<?xml version="1.0" encoding="UTF-8" standalone="no" ?>
<gpx xmlns="http://www.topografix.com/GPX/1/1" xmlns:xsi="http://www.w3.org/2001/XMLSchema-instance" xsi:schemaLocation="http://www.topografix.com/GPX/1/1 http://www.topografix.com/GPX/1/1/gpx.xsd" version="1.1" creator="VisuGPX - https://www.visugpx.com">
  <metadata>
    <name>salagoumania 2014</name>
    <desc><![CDATA[rando vtt du dimanche 28 septembre 2014.
Tour du salagou, parcours baroudeur 47 km.]]></desc>
  </metadata>
  <trk>
    <name><![CDATA[09/28/2014 Clermont L'Hérault, Languedoc-Roussillon, France]]></name>
    <trkseg>
      <trkpt lat="43.64669" lon="3.38894">
        <ele>143.5</ele>
        <time>2014-09-28T06:38:52Z</time>
      </trkpt>
      <trkpt lat="43.64673" lon="3.38885">
        <ele>143.2</ele>
        <time>2014-09-28T06:38:55Z</time>
      </trkpt>
      <trkpt lat="43.64675" lon="3.38877">
        <ele>143</ele>
        <time>2014-09-28T06:38:57Z</time>
      </trkpt>
      <trkpt lat="43.64675" lon="3.38866">
        <ele>142.9</ele>
        <time>2014-09-28T06:39:00Z</time>
      </trkpt>
      <trkpt lat="43.64675" lon="3.38858">
        <ele>142.8</ele>
        <time>2014-09-28T06:39:02Z</time>
      </trkpt>
      <trkpt lat="43.64675" lon="3.38852">
        <ele>142.8</ele>
        <time>2014-09-28T06:39:04Z</time>
      </trkpt>
      <trkpt lat="43.64674" lon="3.38846">
        <ele>142.7</ele>
        <time>2014-09-28T06:39:05Z</time>
      </trkpt>
      <trkpt lat="43.64674" lon="3.38837">
        <ele>142.6</ele>
        <time>2014-09-28T06:39:07Z</time>
      </trkpt>
      <trkpt lat="43.64675" lon="3.38831">
        <ele>142.6</ele>
        <time>2014-09-28T06:39:09Z</time>
      </trkpt>
      <trkpt lat="43.64675" lon="3.38824">
        <ele>142.5</ele>
        <time>2014-09-28T06:39:10Z</time>
      </trkpt>
      <trkpt lat="43.64676" lon="3.38815">
        <ele>142.4</ele>
        <time>2014-09-28T06:39:12Z</time>
      </trkpt>
      <trkpt lat="43.64676" lon="3.38807">
        <ele>142.3</ele>
        <time>2014-09-28T06:39:14Z</time>
      </trkpt>
      <trkpt lat="43.64676" lon="3.388">
        <ele>142.2</ele>
        <time>2014-09-28T06:39:15Z</time>
      </trkpt>
      <trkpt lat="43.64677" lon="3.38793">
        <ele>142.2</ele>
        <time>2014-09-28T06:39:17Z</time>
      </trkpt>
      <trkpt lat="43.64677" lon="3.38785">
        <ele>142</ele>
        <time>2014-09-28T06:39:19Z</time>
      </trkpt>
      <trkpt lat="43.64678" lon="3.38778">
        <ele>141.8</ele>
        <time>2014-09-28T06:39:20Z</time>
      </trkpt>
      <trkpt lat="43.64679" lon="3.38771">
        <ele>141.6</ele>
        <time>2014-09-28T06:39:22Z</time>
      </trkpt>
      <trkpt lat="43.6468" lon="3.3876">
        <ele>141.3</ele>
        <time>2014-09-28T06:39:24Z</time>
      </trkpt>
      <trkpt lat="43.64681" lon="3.38754">
        <ele>141.1</ele>
        <time>2014-09-28T06:39:25Z</time>
      </trkpt>
      <trkpt lat="43.64681" lon="3.38746">
        <ele>140.9</ele>
        <time>2014-09-28T06:39:28Z</time>
      </trkpt>
      <trkpt lat="43.64679" lon="3.38738">
        <ele>140.7</ele>
        <time>2014-09-28T06:39:29Z</time>
      </trkpt>
      <trkpt lat="43.64676" lon="3.3873">
        <ele>140.6</ele>
        <time>2014-09-28T06:39:30Z</time>
      </trkpt>
      <trkpt lat="43.64673" lon="3.38719">
        <ele>140.3</ele>
        <time>2014-09-28T06:39:32Z</time>
      </trkpt>
      <trkpt lat="43.64672" lon="3.38712">
        <ele>140.1</ele>
        <time>2014-09-28T06:39:34Z</time>
      </trkpt>
      <trkpt lat="43.6467" lon="3.38702">
        <ele>139.7</ele>
        <time>2014-09-28T06:39:36Z</time>
      </trkpt>
      <trkpt lat="43.64668" lon="3.38694">
        <ele>139.3</ele>
        <time>2014-09-28T06:39:37Z</time>
      </trkpt>
      <trkpt lat="43.64664" lon="3.38685">
        <ele>138.9</ele>
        <time>2014-09-28T06:39:40Z</time>
      </trkpt>
      <trkpt lat="43.64658" lon="3.38673">
        <ele>138.3</ele>
        <time>2014-09-28T06:39:42Z</time>
      </trkpt>
      <trkpt lat="43.64653" lon="3.38667">
        <ele>138</ele>
        <time>2014-09-28T06:39:44Z</time>
      </trkpt>
      <trkpt lat="43.64649" lon="3.3866">
        <ele>137.7</ele>
        <time>2014-09-28T06:39:46Z</time>
      </trkpt>
      <trkpt lat="43.64644" lon="3.38653">
        <ele>137.3</ele>
        <time>2014-09-28T06:39:48Z</time>
      </trkpt>
      <trkpt lat="43.6464" lon="3.38648">
        <ele>137.1</ele>
        <time>2014-09-28T06:39:49Z</time>
      </trkpt>
      <trkpt lat="43.64637" lon="3.38643">
        <ele>136.9</ele>
        <time>2014-09-28T06:39:50Z</time>
      </trkpt>
      <trkpt lat="43.64634" lon="3.38637">
        <ele>136.6</ele>
        <time>2014-09-28T06:39:52Z</time>
      </trkpt>
      <trkpt lat="43.64629" lon="3.38632">
        <ele>136.3</ele>
        <time>2014-09-28T06:39:55Z</time>
      </trkpt>
      <trkpt lat="43.64624" lon="3.38627">
        <ele>136.1</ele>
        <time>2014-09-28T06:39:57Z</time>
      </trkpt>
      <trkpt lat="43.64619" lon="3.38625">
        <ele>136.2</ele>
        <time>2014-09-28T06:39:59Z</time>
      </trkpt>
      <trkpt lat="43.64611" lon="3.38627">
        <ele>136.6</ele>
        <time>2014-09-28T06:40:01Z</time>
      </trkpt>
      <trkpt lat="43.64605" lon="3.38629">
        <ele>136.9</ele>
        <time>2014-09-28T06:40:02Z</time>
      </trkpt>
      <trkpt lat="43.64598" lon="3.38632">
        <ele>137.3</ele>
        <time>2014-09-28T06:40:04Z</time>
      </trkpt>
      <trkpt lat="43.64592" lon="3.38633">
        <ele>137.5</ele>
        <time>2014-09-28T06:40:05Z</time>
      </trkpt>
      <trkpt lat="43.64584" lon="3.38633">
        <ele>137.8</ele>
        <time>2014-09-28T06:40:07Z</time>
      </trkpt>
      <trkpt lat="43.64579" lon="3.38633">
        <ele>138</ele>
        <time>2014-09-28T06:40:09Z</time>
      </trkpt>
      <trkpt lat="43.64574" lon="3.38633">
        <ele>138.2</ele>
        <time>2014-09-28T06:40:10Z</time>
      </trkpt>
      <trkpt lat="43.64568" lon="3.38634">
        <ele>138.4</ele>
        <time>2014-09-28T06:40:12Z</time>
      </trkpt>
      <trkpt lat="43.64562" lon="3.38635">
        <ele>138.6</ele>
        <time>2014-09-28T06:40:14Z</time>
      </trkpt>
      <trkpt lat="43.64557" lon="3.38636">
        <ele>138.9</ele>
        <time>2014-09-28T06:40:15Z</time>
      </trkpt>
      <trkpt lat="43.6455" lon="3.38636">
        <ele>139.1</ele>
        <time>2014-09-28T06:40:17Z</time>
      </trkpt>
      <trkpt lat="43.64545" lon="3.38636">
        <ele>139.3</ele>
        <time>2014-09-28T06:40:19Z</time>
      </trkpt>
      <trkpt lat="43.64539" lon="3.38636">
        <ele>139.4</ele>
        <time>2014-09-28T06:40:20Z</time>
      </trkpt>
      <trkpt lat="43.64532" lon="3.38636">
        <ele>139.4</ele>
        <time>2014-09-28T06:40:22Z</time>
      </trkpt>
      <trkpt lat="43.64526" lon="3.38636">
        <ele>139.4</ele>
        <time>2014-09-28T06:40:24Z</time>
      </trkpt>
      <trkpt lat="43.6452" lon="3.38636">
        <ele>139.3</ele>
        <time>2014-09-28T06:40:25Z</time>
      </trkpt>
      <trkpt lat="43.64513" lon="3.38635">
        <ele>139.3</ele>
        <time>2014-09-28T06:40:28Z</time>
      </trkpt>
      <trkpt lat="43.64504" lon="3.3863">
        <ele>139.1</ele>
        <time>2014-09-28T06:40:30Z</time>
      </trkpt>
      <trkpt lat="43.64499" lon="3.38626">
        <ele>139</ele>
        <time>2014-09-28T06:40:31Z</time>
      </trkpt>
      <trkpt lat="43.64494" lon="3.38621">
        <ele>138.9</ele>
        <time>2014-09-28T06:40:33Z</time>
      </trkpt>
      <trkpt lat="43.64486" lon="3.38613">
        <ele>138.8</ele>
        <time>2014-09-28T06:40:35Z</time>
      </trkpt>
      <trkpt lat="43.64482" lon="3.38609">
        <ele>138.7</ele>
        <time>2014-09-28T06:40:37Z</time>
      </trkpt>
      <trkpt lat="43.64476" lon="3.38602">
        <ele>138.6</ele>
        <time>2014-09-28T06:40:39Z</time>
      </trkpt>
      <trkpt lat="43.64472" lon="3.38596">
        <ele>138.5</ele>
        <time>2014-09-28T06:40:40Z</time>
      </trkpt>
      <trkpt lat="43.64468" lon="3.38591">
        <ele>138.5</ele>
        <time>2014-09-28T06:40:42Z</time>
      </trkpt>
      <trkpt lat="43.64464" lon="3.38586">
        <ele>138.5</ele>
        <time>2014-09-28T06:40:44Z</time>
      </trkpt>
      <trkpt lat="43.64462" lon="3.38579">
        <ele>138.4</ele>
        <time>2014-09-28T06:40:46Z</time>
      </trkpt>
      <trkpt lat="43.6446" lon="3.3857">
        <ele>138.3</ele>
        <time>2014-09-28T06:40:48Z</time>
      </trkpt>
      <trkpt lat="43.64456" lon="3.38561">
        <ele>138.3</ele>
        <time>2014-09-28T06:40:50Z</time>
      </trkpt>
      <trkpt lat="43.64452" lon="3.38552">
        <ele>138.3</ele>
        <time>2014-09-28T06:40:52Z</time>
      </trkpt>
      <trkpt lat="43.6445" lon="3.38542">
        <ele>138.2</ele>
        <time>2014-09-28T06:40:54Z</time>
      </trkpt>
      <trkpt lat="43.64446" lon="3.38532">
        <ele>138.3</ele>
        <time>2014-09-28T06:40:56Z</time>
      </trkpt>
      <trkpt lat="43.64441" lon="3.38524">
        <ele>138.5</ele>
        <time>2014-09-28T06:40:58Z</time>
      </trkpt>
      <trkpt lat="43.64434" lon="3.38517">
        <ele>138.7</ele>
        <time>2014-09-28T06:41:00Z</time>
      </trkpt>
      <trkpt lat="43.64428" lon="3.38512">
        <ele>138.9</ele>
        <time>2014-09-28T06:41:02Z</time>
      </trkpt>
      <trkpt lat="43.64424" lon="3.38505">
        <ele>139</ele>
        <time>2014-09-28T06:41:04Z</time>
      </trkpt>
      <trkpt lat="43.64423" lon="3.38498">
        <ele>139.1</ele>
        <time>2014-09-28T06:41:06Z</time>
      </trkpt>
      <trkpt lat="43.64419" lon="3.38493">
        <ele>139.2</ele>
        <time>2014-09-28T06:41:09Z</time>
      </trkpt>
      <trkpt lat="43.64414" lon="3.38496">
        <ele>139.4</ele>
        <time>2014-09-28T06:41:12Z</time>
      </trkpt>
      <trkpt lat="43.64409" lon="3.38496">
        <ele>139.5</ele>
        <time>2014-09-28T06:41:14Z</time>
      </trkpt>
      <trkpt lat="43.64405" lon="3.3849">
        <ele>139.7</ele>
        <time>2014-09-28T06:41:16Z</time>
      </trkpt>
      <trkpt lat="43.644" lon="3.38482">
        <ele>139.9</ele>
        <time>2014-09-28T06:41:18Z</time>
      </trkpt>
      <trkpt lat="43.64396" lon="3.38473">
        <ele>140.1</ele>
        <time>2014-09-28T06:41:20Z</time>
      </trkpt>
      <trkpt lat="43.64392" lon="3.38463">
        <ele>140.4</ele>
        <time>2014-09-28T06:41:22Z</time>
      </trkpt>
      <trkpt lat="43.64388" lon="3.38452">
        <ele>140.4</ele>
        <time>2014-09-28T06:41:24Z</time>
      </trkpt>
      <trkpt lat="43.64386" lon="3.38442">
        <ele>140.3</ele>
        <time>2014-09-28T06:41:26Z</time>
      </trkpt>
      <trkpt lat="43.64385" lon="3.38434">
        <ele>140.2</ele>
        <time>2014-09-28T06:41:28Z</time>
      </trkpt>
      <trkpt lat="43.64384" lon="3.38428">
        <ele>140.1</ele>
        <time>2014-09-28T06:41:32Z</time>
      </trkpt>
      <trkpt lat="43.64381" lon="3.38422">
        <ele>140</ele>
        <time>2014-09-28T06:41:36Z</time>
      </trkpt>
      <trkpt lat="43.64383" lon="3.38415">
        <ele>139.8</ele>
        <time>2014-09-28T06:41:39Z</time>
      </trkpt>
      <trkpt lat="43.64384" lon="3.38409">
        <ele>139.7</ele>
        <time>2014-09-28T06:41:41Z</time>
      </trkpt>
      <trkpt lat="43.64386" lon="3.384">
        <ele>139.5</ele>
        <time>2014-09-28T06:41:43Z</time>
      </trkpt>
      <trkpt lat="43.64387" lon="3.38391">
        <ele>139.3</ele>
        <time>2014-09-28T06:41:45Z</time>
      </trkpt>
      <trkpt lat="43.64389" lon="3.38378">
        <ele>139.1</ele>
        <time>2014-09-28T06:41:47Z</time>
      </trkpt>
      <trkpt lat="43.64391" lon="3.38371">
        <ele>139</ele>
        <time>2014-09-28T06:41:49Z</time>
      </trkpt>
      <trkpt lat="43.64396" lon="3.38359">
        <ele>139.2</ele>
        <time>2014-09-28T06:41:51Z</time>
      </trkpt>
      <trkpt lat="43.64399" lon="3.38352">
        <ele>139.3</ele>
        <time>2014-09-28T06:41:53Z</time>
      </trkpt>
      <trkpt lat="43.64403" lon="3.38342">
        <ele>139.4</ele>
        <time>2014-09-28T06:41:55Z</time>
      </trkpt>
      <trkpt lat="43.64406" lon="3.38333">
        <ele>139.5</ele>
        <time>2014-09-28T06:41:57Z</time>
      </trkpt>
      <trkpt lat="43.64409" lon="3.38322">
        <ele>139.6</ele>
        <time>2014-09-28T06:41:59Z</time>
      </trkpt>
      <trkpt lat="43.64411" lon="3.38311">
        <ele>139.8</ele>
        <time>2014-09-28T06:42:01Z</time>
      </trkpt>
      <trkpt lat="43.64414" lon="3.383">
        <ele>139.9</ele>
        <time>2014-09-28T06:42:03Z</time>
      </trkpt>
      <trkpt lat="43.64418" lon="3.3829">
        <ele>140</ele>
        <time>2014-09-28T06:42:05Z</time>
      </trkpt>
      <trkpt lat="43.6442" lon="3.38281">
        <ele>140.1</ele>
        <time>2014-09-28T06:42:06Z</time>
      </trkpt>
      <trkpt lat="43.64422" lon="3.38273">
        <ele>140.1</ele>
        <time>2014-09-28T06:42:08Z</time>
      </trkpt>
      <trkpt lat="43.64423" lon="3.38261">
        <ele>140.2</ele>
        <time>2014-09-28T06:42:10Z</time>
      </trkpt>
      <trkpt lat="43.64423" lon="3.38249">
        <ele>140.2</ele>
        <time>2014-09-28T06:42:12Z</time>
      </trkpt>
      <trkpt lat="43.64422" lon="3.38238">
        <ele>140.3</ele>
        <time>2014-09-28T06:42:14Z</time>
      </trkpt>
      <trkpt lat="43.64422" lon="3.38231">
        <ele>140.3</ele>
        <time>2014-09-28T06:42:15Z</time>
      </trkpt>
      <trkpt lat="43.64421" lon="3.38223">
        <ele>140.4</ele>
        <time>2014-09-28T06:42:17Z</time>
      </trkpt>
      <trkpt lat="43.64419" lon="3.38212">
        <ele>140.5</ele>
        <time>2014-09-28T06:42:19Z</time>
      </trkpt>
      <trkpt lat="43.64418" lon="3.38201">
        <ele>140.4</ele>
        <time>2014-09-28T06:42:21Z</time>
      </trkpt>
      <trkpt lat="43.64418" lon="3.38191">
        <ele>140.2</ele>
        <time>2014-09-28T06:42:23Z</time>
      </trkpt>
      <trkpt lat="43.64419" lon="3.3818">
        <ele>140</ele>
        <time>2014-09-28T06:42:25Z</time>
      </trkpt>
      <trkpt lat="43.64422" lon="3.38168">
        <ele>139.7</ele>
        <time>2014-09-28T06:42:27Z</time>
      </trkpt>
      <trkpt lat="43.64425" lon="3.38157">
        <ele>139.4</ele>
        <time>2014-09-28T06:42:29Z</time>
      </trkpt>
      <trkpt lat="43.64426" lon="3.38147">
        <ele>139.2</ele>
        <time>2014-09-28T06:42:31Z</time>
      </trkpt>
      <trkpt lat="43.64426" lon="3.38136">
        <ele>139</ele>
        <time>2014-09-28T06:42:33Z</time>
      </trkpt>
      <trkpt lat="43.64428" lon="3.38124">
        <ele>138.7</ele>
        <time>2014-09-28T06:42:35Z</time>
      </trkpt>
      <trkpt lat="43.6443" lon="3.38111">
        <ele>138.7</ele>
        <time>2014-09-28T06:42:37Z</time>
      </trkpt>
      <trkpt lat="43.64432" lon="3.38102">
        <ele>138.6</ele>
        <time>2014-09-28T06:42:39Z</time>
      </trkpt>
      <trkpt lat="43.64434" lon="3.38092">
        <ele>138.6</ele>
        <time>2014-09-28T06:42:41Z</time>
      </trkpt>
      <trkpt lat="43.64436" lon="3.38085">
        <ele>138.5</ele>
        <time>2014-09-28T06:42:42Z</time>
      </trkpt>
      <trkpt lat="43.64438" lon="3.38077">
        <ele>138.5</ele>
        <time>2014-09-28T06:42:44Z</time>
      </trkpt>
      <trkpt lat="43.6444" lon="3.38064">
        <ele>138.4</ele>
        <time>2014-09-28T06:42:46Z</time>
      </trkpt>
      <trkpt lat="43.6444" lon="3.38058">
        <ele>138.4</ele>
        <time>2014-09-28T06:42:47Z</time>
      </trkpt>
      <trkpt lat="43.6444" lon="3.38051">
        <ele>138.4</ele>
        <time>2014-09-28T06:42:48Z</time>
      </trkpt>
      <trkpt lat="43.64441" lon="3.38045">
        <ele>138.4</ele>
        <time>2014-09-28T06:42:49Z</time>
      </trkpt>
      <trkpt lat="43.64442" lon="3.38038">
        <ele>138.4</ele>
        <time>2014-09-28T06:42:50Z</time>
      </trkpt>
      <trkpt lat="43.64444" lon="3.38032">
        <ele>138.2</ele>
        <time>2014-09-28T06:42:51Z</time>
      </trkpt>
      <trkpt lat="43.64446" lon="3.38027">
        <ele>138.1</ele>
        <time>2014-09-28T06:42:52Z</time>
      </trkpt>
      <trkpt lat="43.64449" lon="3.38021">
        <ele>138</ele>
        <time>2014-09-28T06:42:53Z</time>
      </trkpt>
      <trkpt lat="43.64451" lon="3.38015">
        <ele>137.9</ele>
        <time>2014-09-28T06:42:54Z</time>
      </trkpt>
      <trkpt lat="43.64453" lon="3.38003">
        <ele>137.7</ele>
        <time>2014-09-28T06:42:56Z</time>
      </trkpt>
      <trkpt lat="43.64454" lon="3.37997">
        <ele>137.6</ele>
        <time>2014-09-28T06:42:57Z</time>
      </trkpt>
      <trkpt lat="43.64455" lon="3.37991">
        <ele>137.5</ele>
        <time>2014-09-28T06:42:58Z</time>
      </trkpt>
      <trkpt lat="43.64455" lon="3.3798">
        <ele>137.4</ele>
        <time>2014-09-28T06:43:00Z</time>
      </trkpt>
      <trkpt lat="43.64448" lon="3.37974">
        <ele>137.5</ele>
        <time>2014-09-28T06:43:02Z</time>
      </trkpt>
      <trkpt lat="43.64441" lon="3.37972">
        <ele>137.8</ele>
        <time>2014-09-28T06:43:04Z</time>
      </trkpt>
      <trkpt lat="43.64436" lon="3.37972">
        <ele>137.9</ele>
        <time>2014-09-28T06:43:05Z</time>
      </trkpt>
      <trkpt lat="43.64431" lon="3.37973">
        <ele>138.1</ele>
        <time>2014-09-28T06:43:07Z</time>
      </trkpt>
      <trkpt lat="43.64424" lon="3.37977">
        <ele>138.4</ele>
        <time>2014-09-28T06:43:09Z</time>
      </trkpt>
      <trkpt lat="43.64415" lon="3.37985">
        <ele>138.7</ele>
        <time>2014-09-28T06:43:11Z</time>
      </trkpt>
      <trkpt lat="43.64411" lon="3.37989">
        <ele>138.9</ele>
        <time>2014-09-28T06:43:12Z</time>
      </trkpt>
      <trkpt lat="43.64407" lon="3.37998">
        <ele>139</ele>
        <time>2014-09-28T06:43:15Z</time>
      </trkpt>
      <trkpt lat="43.64402" lon="3.38008">
        <ele>139.2</ele>
        <time>2014-09-28T06:43:17Z</time>
      </trkpt>
      <trkpt lat="43.64397" lon="3.38014">
        <ele>139.4</ele>
        <time>2014-09-28T06:43:19Z</time>
      </trkpt>
      <trkpt lat="43.64392" lon="3.38018">
        <ele>139.5</ele>
        <time>2014-09-28T06:43:21Z</time>
      </trkpt>
      <trkpt lat="43.64387" lon="3.38022">
        <ele>139.7</ele>
        <time>2014-09-28T06:43:24Z</time>
      </trkpt>
      <trkpt lat="43.64382" lon="3.38026">
        <ele>139.8</ele>
        <time>2014-09-28T06:43:25Z</time>
      </trkpt>
      <trkpt lat="43.64377" lon="3.38031">
        <ele>140</ele>
        <time>2014-09-28T06:43:26Z</time>
      </trkpt>
      <trkpt lat="43.64374" lon="3.38036">
        <ele>140.1</ele>
        <time>2014-09-28T06:43:27Z</time>
      </trkpt>
      <trkpt lat="43.64371" lon="3.38042">
        <ele>140.1</ele>
        <time>2014-09-28T06:43:29Z</time>
      </trkpt>
      <trkpt lat="43.64367" lon="3.38051">
        <ele>140.3</ele>
        <time>2014-09-28T06:43:31Z</time>
      </trkpt>
      <trkpt lat="43.64361" lon="3.38052">
        <ele>140.5</ele>
        <time>2014-09-28T06:43:33Z</time>
      </trkpt>
      <trkpt lat="43.64356" lon="3.3805">
        <ele>140.7</ele>
        <time>2014-09-28T06:43:35Z</time>
      </trkpt>
      <trkpt lat="43.64352" lon="3.38046">
        <ele>140.8</ele>
        <time>2014-09-28T06:43:37Z</time>
      </trkpt>
      <trkpt lat="43.6435" lon="3.38038">
        <ele>140.9</ele>
        <time>2014-09-28T06:43:39Z</time>
      </trkpt>
      <trkpt lat="43.64348" lon="3.38029">
        <ele>141</ele>
        <time>2014-09-28T06:43:41Z</time>
      </trkpt>
      <trkpt lat="43.64345" lon="3.38018">
        <ele>141.1</ele>
        <time>2014-09-28T06:43:43Z</time>
      </trkpt>
      <trkpt lat="43.64345" lon="3.38006">
        <ele>141.1</ele>
        <time>2014-09-28T06:43:45Z</time>
      </trkpt>
      <trkpt lat="43.64346" lon="3.38">
        <ele>141.1</ele>
        <time>2014-09-28T06:43:46Z</time>
      </trkpt>
      <trkpt lat="43.64347" lon="3.37993">
        <ele>141</ele>
        <time>2014-09-28T06:43:47Z</time>
      </trkpt>
      <trkpt lat="43.64348" lon="3.37987">
        <ele>141</ele>
        <time>2014-09-28T06:43:48Z</time>
      </trkpt>
      <trkpt lat="43.64351" lon="3.37976">
        <ele>140.9</ele>
        <time>2014-09-28T06:43:50Z</time>
      </trkpt>
      <trkpt lat="43.64353" lon="3.37971">
        <ele>140.8</ele>
        <time>2014-09-28T06:43:51Z</time>
      </trkpt>
      <trkpt lat="43.64356" lon="3.37966">
        <ele>140.7</ele>
        <time>2014-09-28T06:43:52Z</time>
      </trkpt>
      <trkpt lat="43.6436" lon="3.37961">
        <ele>140.5</ele>
        <time>2014-09-28T06:43:53Z</time>
      </trkpt>
      <trkpt lat="43.64363" lon="3.37957">
        <ele>140.5</ele>
        <time>2014-09-28T06:43:54Z</time>
      </trkpt>
      <trkpt lat="43.64369" lon="3.37949">
        <ele>140.4</ele>
        <time>2014-09-28T06:43:56Z</time>
      </trkpt>
      <trkpt lat="43.64374" lon="3.3794">
        <ele>140.5</ele>
        <time>2014-09-28T06:43:58Z</time>
      </trkpt>
      <trkpt lat="43.64379" lon="3.37931">
        <ele>140.5</ele>
        <time>2014-09-28T06:44:00Z</time>
      </trkpt>
      <trkpt lat="43.64382" lon="3.37923">
        <ele>140.6</ele>
        <time>2014-09-28T06:44:02Z</time>
      </trkpt>
      <trkpt lat="43.64383" lon="3.37913">
        <ele>140.8</ele>
        <time>2014-09-28T06:44:04Z</time>
      </trkpt>
      <trkpt lat="43.64384" lon="3.37906">
        <ele>140.9</ele>
        <time>2014-09-28T06:44:05Z</time>
      </trkpt>
      <trkpt lat="43.64385" lon="3.37898">
        <ele>141.1</ele>
        <time>2014-09-28T06:44:06Z</time>
      </trkpt>
      <trkpt lat="43.64385" lon="3.37891">
        <ele>141.3</ele>
        <time>2014-09-28T06:44:08Z</time>
      </trkpt>
      <trkpt lat="43.64387" lon="3.37883">
        <ele>141.4</ele>
        <time>2014-09-28T06:44:10Z</time>
      </trkpt>
      <trkpt lat="43.64391" lon="3.37875">
        <ele>141.4</ele>
        <time>2014-09-28T06:44:12Z</time>
      </trkpt>
      <trkpt lat="43.64396" lon="3.37864">
        <ele>141.3</ele>
        <time>2014-09-28T06:44:14Z</time>
      </trkpt>
      <trkpt lat="43.64398" lon="3.37857">
        <ele>141.3</ele>
        <time>2014-09-28T06:44:15Z</time>
      </trkpt>
      <trkpt lat="43.64398" lon="3.37849">
        <ele>141.3</ele>
        <time>2014-09-28T06:44:17Z</time>
      </trkpt>
      <trkpt lat="43.64397" lon="3.37841">
        <ele>141.4</ele>
        <time>2014-09-28T06:44:19Z</time>
      </trkpt>
      <trkpt lat="43.64399" lon="3.37832">
        <ele>141.4</ele>
        <time>2014-09-28T06:44:20Z</time>
      </trkpt>
      <trkpt lat="43.64401" lon="3.37823">
        <ele>141.3</ele>
        <time>2014-09-28T06:44:21Z</time>
      </trkpt>
      <trkpt lat="43.64404" lon="3.37818">
        <ele>141.2</ele>
        <time>2014-09-28T06:44:22Z</time>
      </trkpt>
      <trkpt lat="43.64407" lon="3.37809">
        <ele>141</ele>
        <time>2014-09-28T06:44:24Z</time>
      </trkpt>
      <trkpt lat="43.6441" lon="3.378">
        <ele>140.9</ele>
        <time>2014-09-28T06:44:25Z</time>
      </trkpt>
      <trkpt lat="43.64412" lon="3.37795">
        <ele>140.8</ele>
        <time>2014-09-28T06:44:26Z</time>
      </trkpt>
      <trkpt lat="43.64415" lon="3.37787">
        <ele>140.6</ele>
        <time>2014-09-28T06:44:28Z</time>
      </trkpt>
      <trkpt lat="43.64416" lon="3.37777">
        <ele>140.5</ele>
        <time>2014-09-28T06:44:30Z</time>
      </trkpt>
      <trkpt lat="43.64419" lon="3.37764">
        <ele>140.4</ele>
        <time>2014-09-28T06:44:32Z</time>
      </trkpt>
      <trkpt lat="43.64419" lon="3.37757">
        <ele>140.4</ele>
        <time>2014-09-28T06:44:34Z</time>
      </trkpt>
      <trkpt lat="43.64418" lon="3.3775">
        <ele>140.5</ele>
        <time>2014-09-28T06:44:35Z</time>
      </trkpt>
      <trkpt lat="43.64417" lon="3.37744">
        <ele>140.5</ele>
        <time>2014-09-28T06:44:37Z</time>
      </trkpt>
      <trkpt lat="43.64418" lon="3.37734">
        <ele>140.5</ele>
        <time>2014-09-28T06:44:40Z</time>
      </trkpt>
      <trkpt lat="43.64418" lon="3.37727">
        <ele>140.5</ele>
        <time>2014-09-28T06:44:41Z</time>
      </trkpt>
      <trkpt lat="43.64418" lon="3.3772">
        <ele>140.5</ele>
        <time>2014-09-28T06:44:42Z</time>
      </trkpt>
      <trkpt lat="43.64418" lon="3.37708">
        <ele>140.5</ele>
        <time>2014-09-28T06:44:45Z</time>
      </trkpt>
      <trkpt lat="43.64418" lon="3.377">
        <ele>140.3</ele>
        <time>2014-09-28T06:44:46Z</time>
      </trkpt>
      <trkpt lat="43.6442" lon="3.37692">
        <ele>140.2</ele>
        <time>2014-09-28T06:44:48Z</time>
      </trkpt>
      <trkpt lat="43.64424" lon="3.3768">
        <ele>139.9</ele>
        <time>2014-09-28T06:44:50Z</time>
      </trkpt>
      <trkpt lat="43.64427" lon="3.3767">
        <ele>139.6</ele>
        <time>2014-09-28T06:44:52Z</time>
      </trkpt>
      <trkpt lat="43.6443" lon="3.37662">
        <ele>139.4</ele>
        <time>2014-09-28T06:44:54Z</time>
      </trkpt>
      <trkpt lat="43.64431" lon="3.37655">
        <ele>139.3</ele>
        <time>2014-09-28T06:44:55Z</time>
      </trkpt>
      <trkpt lat="43.6443" lon="3.37647">
        <ele>139.1</ele>
        <time>2014-09-28T06:44:58Z</time>
      </trkpt>
      <trkpt lat="43.64429" lon="3.37641">
        <ele>139</ele>
        <time>2014-09-28T06:44:59Z</time>
      </trkpt>
      <trkpt lat="43.64428" lon="3.37634">
        <ele>138.9</ele>
        <time>2014-09-28T06:45:00Z</time>
      </trkpt>
      <trkpt lat="43.64428" lon="3.37624">
        <ele>138.7</ele>
        <time>2014-09-28T06:45:02Z</time>
      </trkpt>
      <trkpt lat="43.64427" lon="3.37616">
        <ele>138.8</ele>
        <time>2014-09-28T06:45:04Z</time>
      </trkpt>
      <trkpt lat="43.64427" lon="3.37609">
        <ele>138.8</ele>
        <time>2014-09-28T06:45:05Z</time>
      </trkpt>
      <trkpt lat="43.64431" lon="3.37601">
        <ele>138.8</ele>
        <time>2014-09-28T06:45:07Z</time>
      </trkpt>
      <trkpt lat="43.64434" lon="3.37593">
        <ele>138.7</ele>
        <time>2014-09-28T06:45:09Z</time>
      </trkpt>
      <trkpt lat="43.64437" lon="3.37584">
        <ele>138.6</ele>
        <time>2014-09-28T06:45:10Z</time>
      </trkpt>
      <trkpt lat="43.64439" lon="3.37579">
        <ele>138.6</ele>
        <time>2014-09-28T06:45:11Z</time>
      </trkpt>
      <trkpt lat="43.64442" lon="3.37573">
        <ele>138.5</ele>
        <time>2014-09-28T06:45:12Z</time>
      </trkpt>
      <trkpt lat="43.64444" lon="3.37565">
        <ele>138.5</ele>
        <time>2014-09-28T06:45:14Z</time>
      </trkpt>
      <trkpt lat="43.64446" lon="3.37558">
        <ele>138.4</ele>
        <time>2014-09-28T06:45:15Z</time>
      </trkpt>
      <trkpt lat="43.64448" lon="3.37549">
        <ele>138.4</ele>
        <time>2014-09-28T06:45:17Z</time>
      </trkpt>
      <trkpt lat="43.6445" lon="3.3754">
        <ele>138.3</ele>
        <time>2014-09-28T06:45:19Z</time>
      </trkpt>
      <trkpt lat="43.64452" lon="3.37531">
        <ele>138.4</ele>
        <time>2014-09-28T06:45:20Z</time>
      </trkpt>
      <trkpt lat="43.64452" lon="3.37531">
        <ele>138.4</ele>
        <time>2014-09-28T06:45:20Z</time>
      </trkpt>
      <trkpt lat="43.64453" lon="3.37523">
        <ele>138.4</ele>
        <time>2014-09-28T06:45:21Z</time>
      </trkpt>
      <trkpt lat="43.64455" lon="3.37515">
        <ele>138.5</ele>
        <time>2014-09-28T06:45:23Z</time>
      </trkpt>
      <trkpt lat="43.64458" lon="3.37505">
        <ele>138.5</ele>
        <time>2014-09-28T06:45:25Z</time>
      </trkpt>
      <trkpt lat="43.64461" lon="3.37494">
        <ele>138.5</ele>
        <time>2014-09-28T06:45:27Z</time>
      </trkpt>
      <trkpt lat="43.64462" lon="3.37486">
        <ele>138.5</ele>
        <time>2014-09-28T06:45:29Z</time>
      </trkpt>
      <trkpt lat="43.64464" lon="3.37477">
        <ele>138.6</ele>
        <time>2014-09-28T06:45:30Z</time>
      </trkpt>
      <trkpt lat="43.64465" lon="3.37469">
        <ele>138.6</ele>
        <time>2014-09-28T06:45:31Z</time>
      </trkpt>
      <trkpt lat="43.64466" lon="3.37462">
        <ele>138.7</ele>
        <time>2014-09-28T06:45:33Z</time>
      </trkpt>
      <trkpt lat="43.64466" lon="3.37453">
        <ele>138.8</ele>
        <time>2014-09-28T06:45:35Z</time>
      </trkpt>
      <trkpt lat="43.64467" lon="3.37447">
        <ele>138.8</ele>
        <time>2014-09-28T06:45:37Z</time>
      </trkpt>
      <trkpt lat="43.64469" lon="3.37439">
        <ele>138.8</ele>
        <time>2014-09-28T06:45:39Z</time>
      </trkpt>
      <trkpt lat="43.64471" lon="3.37433">
        <ele>138.8</ele>
        <time>2014-09-28T06:45:40Z</time>
      </trkpt>
      <trkpt lat="43.64471" lon="3.37425">
        <ele>138.9</ele>
        <time>2014-09-28T06:45:42Z</time>
      </trkpt>
      <trkpt lat="43.6447" lon="3.37417">
        <ele>139</ele>
        <time>2014-09-28T06:45:44Z</time>
      </trkpt>
      <trkpt lat="43.6447" lon="3.37408">
        <ele>139.1</ele>
        <time>2014-09-28T06:45:45Z</time>
      </trkpt>
      <trkpt lat="43.64469" lon="3.37399">
        <ele>139.2</ele>
        <time>2014-09-28T06:45:46Z</time>
      </trkpt>
      <trkpt lat="43.64468" lon="3.37391">
        <ele>139.4</ele>
        <time>2014-09-28T06:45:48Z</time>
      </trkpt>
      <trkpt lat="43.64467" lon="3.3738">
        <ele>139.5</ele>
        <time>2014-09-28T06:45:50Z</time>
      </trkpt>
      <trkpt lat="43.64463" lon="3.37368">
        <ele>139.8</ele>
        <time>2014-09-28T06:45:52Z</time>
      </trkpt>
      <trkpt lat="43.6446" lon="3.37361">
        <ele>139.9</ele>
        <time>2014-09-28T06:45:54Z</time>
      </trkpt>
      <trkpt lat="43.64457" lon="3.37354">
        <ele>140</ele>
        <time>2014-09-28T06:45:55Z</time>
      </trkpt>
      <trkpt lat="43.64452" lon="3.37347">
        <ele>140.1</ele>
        <time>2014-09-28T06:45:57Z</time>
      </trkpt>
      <trkpt lat="43.64446" lon="3.37337">
        <ele>140.2</ele>
        <time>2014-09-28T06:46:00Z</time>
      </trkpt>
      <trkpt lat="43.64442" lon="3.3733">
        <ele>140.3</ele>
        <time>2014-09-28T06:46:01Z</time>
      </trkpt>
      <trkpt lat="43.64438" lon="3.37325">
        <ele>140.4</ele>
        <time>2014-09-28T06:46:03Z</time>
      </trkpt>
      <trkpt lat="43.64432" lon="3.37318">
        <ele>140.5</ele>
        <time>2014-09-28T06:46:05Z</time>
      </trkpt>
      <trkpt lat="43.64426" lon="3.37309">
        <ele>140.7</ele>
        <time>2014-09-28T06:46:07Z</time>
      </trkpt>
      <trkpt lat="43.64422" lon="3.37301">
        <ele>140.8</ele>
        <time>2014-09-28T06:46:10Z</time>
      </trkpt>
      <trkpt lat="43.64421" lon="3.37294">
        <ele>140.9</ele>
        <time>2014-09-28T06:46:12Z</time>
      </trkpt>
      <trkpt lat="43.64422" lon="3.37285">
        <ele>141</ele>
        <time>2014-09-28T06:46:15Z</time>
      </trkpt>
      <trkpt lat="43.64422" lon="3.37277">
        <ele>141.2</ele>
        <time>2014-09-28T06:46:17Z</time>
      </trkpt>
      <trkpt lat="43.64422" lon="3.37271">
        <ele>141.4</ele>
        <time>2014-09-28T06:46:19Z</time>
      </trkpt>
      <trkpt lat="43.64421" lon="3.37261">
        <ele>141.6</ele>
        <time>2014-09-28T06:46:21Z</time>
      </trkpt>
      <trkpt lat="43.64421" lon="3.37254">
        <ele>141.8</ele>
        <time>2014-09-28T06:46:23Z</time>
      </trkpt>
      <trkpt lat="43.6442" lon="3.37244">
        <ele>142.1</ele>
        <time>2014-09-28T06:46:25Z</time>
      </trkpt>
      <trkpt lat="43.64417" lon="3.37232">
        <ele>142.4</ele>
        <time>2014-09-28T06:46:27Z</time>
      </trkpt>
      <trkpt lat="43.64415" lon="3.37226">
        <ele>142.6</ele>
        <time>2014-09-28T06:46:29Z</time>
      </trkpt>
      <trkpt lat="43.64412" lon="3.3722">
        <ele>142.8</ele>
        <time>2014-09-28T06:46:30Z</time>
      </trkpt>
      <trkpt lat="43.64407" lon="3.37214">
        <ele>143.1</ele>
        <time>2014-09-28T06:46:32Z</time>
      </trkpt>
      <trkpt lat="43.64401" lon="3.37209">
        <ele>143.3</ele>
        <time>2014-09-28T06:46:35Z</time>
      </trkpt>
      <trkpt lat="43.64397" lon="3.37206">
        <ele>143.4</ele>
        <time>2014-09-28T06:46:36Z</time>
      </trkpt>
      <trkpt lat="43.64392" lon="3.37203">
        <ele>143.4</ele>
        <time>2014-09-28T06:46:37Z</time>
      </trkpt>
      <trkpt lat="43.64387" lon="3.37199">
        <ele>143.3</ele>
        <time>2014-09-28T06:46:40Z</time>
      </trkpt>
      <trkpt lat="43.64383" lon="3.37196">
        <ele>143.3</ele>
        <time>2014-09-28T06:46:41Z</time>
      </trkpt>
      <trkpt lat="43.64378" lon="3.37191">
        <ele>143.3</ele>
        <time>2014-09-28T06:46:43Z</time>
      </trkpt>
      <trkpt lat="43.64374" lon="3.37185">
        <ele>143.2</ele>
        <time>2014-09-28T06:46:45Z</time>
      </trkpt>
      <trkpt lat="43.64371" lon="3.37181">
        <ele>143.1</ele>
        <time>2014-09-28T06:46:47Z</time>
      </trkpt>
      <trkpt lat="43.64366" lon="3.37171">
        <ele>142.9</ele>
        <time>2014-09-28T06:46:50Z</time>
      </trkpt>
      <trkpt lat="43.64362" lon="3.37166">
        <ele>142.8</ele>
        <time>2014-09-28T06:46:52Z</time>
      </trkpt>
      <trkpt lat="43.64357" lon="3.37157">
        <ele>142.6</ele>
        <time>2014-09-28T06:46:55Z</time>
      </trkpt>
      <trkpt lat="43.64355" lon="3.37151">
        <ele>142.5</ele>
        <time>2014-09-28T06:46:57Z</time>
      </trkpt>
      <trkpt lat="43.64355" lon="3.37139">
        <ele>142.2</ele>
        <time>2014-09-28T06:47:00Z</time>
      </trkpt>
      <trkpt lat="43.64355" lon="3.3713">
        <ele>141.9</ele>
        <time>2014-09-28T06:47:02Z</time>
      </trkpt>
      <trkpt lat="43.64355" lon="3.37123">
        <ele>141.7</ele>
        <time>2014-09-28T06:47:04Z</time>
      </trkpt>
      <trkpt lat="43.64356" lon="3.37115">
        <ele>141.5</ele>
        <time>2014-09-28T06:47:05Z</time>
      </trkpt>
      <trkpt lat="43.64356" lon="3.37106">
        <ele>141.3</ele>
        <time>2014-09-28T06:47:07Z</time>
      </trkpt>
      <trkpt lat="43.64356" lon="3.37106">
        <ele>141.3</ele>
        <time>2014-09-28T06:47:07Z</time>
      </trkpt>
      <trkpt lat="43.64355" lon="3.37099">
        <ele>141.2</ele>
        <time>2014-09-28T06:47:09Z</time>
      </trkpt>
      <trkpt lat="43.64354" lon="3.37091">
        <ele>141.2</ele>
        <time>2014-09-28T06:47:10Z</time>
      </trkpt>
      <trkpt lat="43.64351" lon="3.37082">
        <ele>141.2</ele>
        <time>2014-09-28T06:47:12Z</time>
      </trkpt>
      <trkpt lat="43.64349" lon="3.37075">
        <ele>141.1</ele>
        <time>2014-09-28T06:47:14Z</time>
      </trkpt>
      <trkpt lat="43.64347" lon="3.37067">
        <ele>141.1</ele>
        <time>2014-09-28T06:47:15Z</time>
      </trkpt>
      <trkpt lat="43.64345" lon="3.37057">
        <ele>141</ele>
        <time>2014-09-28T06:47:17Z</time>
      </trkpt>
      <trkpt lat="43.64345" lon="3.3705">
        <ele>140.9</ele>
        <time>2014-09-28T06:47:19Z</time>
      </trkpt>
      <trkpt lat="43.64346" lon="3.37044">
        <ele>140.8</ele>
        <time>2014-09-28T06:47:20Z</time>
      </trkpt>
      <trkpt lat="43.64347" lon="3.37036">
        <ele>140.8</ele>
        <time>2014-09-28T06:47:22Z</time>
      </trkpt>
      <trkpt lat="43.64348" lon="3.37029">
        <ele>140.9</ele>
        <time>2014-09-28T06:47:24Z</time>
      </trkpt>
      <trkpt lat="43.64349" lon="3.37023">
        <ele>140.9</ele>
        <time>2014-09-28T06:47:25Z</time>
      </trkpt>
      <trkpt lat="43.6435" lon="3.37016">
        <ele>141</ele>
        <time>2014-09-28T06:47:27Z</time>
      </trkpt>
      <trkpt lat="43.64355" lon="3.37009">
        <ele>140.7</ele>
        <time>2014-09-28T06:47:30Z</time>
      </trkpt>
      <trkpt lat="43.64356" lon="3.37002">
        <ele>140.7</ele>
        <time>2014-09-28T06:47:32Z</time>
      </trkpt>
      <trkpt lat="43.64356" lon="3.36991">
        <ele>140.9</ele>
        <time>2014-09-28T06:47:35Z</time>
      </trkpt>
      <trkpt lat="43.64355" lon="3.36982">
        <ele>141.1</ele>
        <time>2014-09-28T06:47:37Z</time>
      </trkpt>
      <trkpt lat="43.64355" lon="3.36975">
        <ele>141.2</ele>
        <time>2014-09-28T06:47:39Z</time>
      </trkpt>
      <trkpt lat="43.64354" lon="3.36968">
        <ele>141.3</ele>
        <time>2014-09-28T06:47:40Z</time>
      </trkpt>
      <trkpt lat="43.64354" lon="3.36958">
        <ele>141.5</ele>
        <time>2014-09-28T06:47:42Z</time>
      </trkpt>
      <trkpt lat="43.64355" lon="3.36951">
        <ele>141.4</ele>
        <time>2014-09-28T06:47:44Z</time>
      </trkpt>
      <trkpt lat="43.64356" lon="3.36943">
        <ele>141.2</ele>
        <time>2014-09-28T06:47:45Z</time>
      </trkpt>
      <trkpt lat="43.64358" lon="3.36932">
        <ele>141</ele>
        <time>2014-09-28T06:47:47Z</time>
      </trkpt>
      <trkpt lat="43.64356" lon="3.36924">
        <ele>141.1</ele>
        <time>2014-09-28T06:47:49Z</time>
      </trkpt>
      <trkpt lat="43.64354" lon="3.36916">
        <ele>141.4</ele>
        <time>2014-09-28T06:47:50Z</time>
      </trkpt>
      <trkpt lat="43.64349" lon="3.36907">
        <ele>142.1</ele>
        <time>2014-09-28T06:47:52Z</time>
      </trkpt>
      <trkpt lat="43.64346" lon="3.36901">
        <ele>142.5</ele>
        <time>2014-09-28T06:47:54Z</time>
      </trkpt>
      <trkpt lat="43.64345" lon="3.36894">
        <ele>142.7</ele>
        <time>2014-09-28T06:47:55Z</time>
      </trkpt>
      <trkpt lat="43.64344" lon="3.36883">
        <ele>142.9</ele>
        <time>2014-09-28T06:47:57Z</time>
      </trkpt>
      <trkpt lat="43.64343" lon="3.36875">
        <ele>143.1</ele>
        <time>2014-09-28T06:47:59Z</time>
      </trkpt>
      <trkpt lat="43.64342" lon="3.36867">
        <ele>142.8</ele>
        <time>2014-09-28T06:48:00Z</time>
      </trkpt>
      <trkpt lat="43.64341" lon="3.36857">
        <ele>142.3</ele>
        <time>2014-09-28T06:48:02Z</time>
      </trkpt>
      <trkpt lat="43.6434" lon="3.36851">
        <ele>142.1</ele>
        <time>2014-09-28T06:48:04Z</time>
      </trkpt>
      <trkpt lat="43.64339" lon="3.36844">
        <ele>141.9</ele>
        <time>2014-09-28T06:48:05Z</time>
      </trkpt>
      <trkpt lat="43.64336" lon="3.36833">
        <ele>141.6</ele>
        <time>2014-09-28T06:48:07Z</time>
      </trkpt>
      <trkpt lat="43.64335" lon="3.36824">
        <ele>141.3</ele>
        <time>2014-09-28T06:48:09Z</time>
      </trkpt>
      <trkpt lat="43.64333" lon="3.36815">
        <ele>140.9</ele>
        <time>2014-09-28T06:48:10Z</time>
      </trkpt>
      <trkpt lat="43.64332" lon="3.36809">
        <ele>140.7</ele>
        <time>2014-09-28T06:48:11Z</time>
      </trkpt>
      <trkpt lat="43.6433" lon="3.36802">
        <ele>140.4</ele>
        <time>2014-09-28T06:48:13Z</time>
      </trkpt>
      <trkpt lat="43.64325" lon="3.36793">
        <ele>140.3</ele>
        <time>2014-09-28T06:48:15Z</time>
      </trkpt>
      <trkpt lat="43.64323" lon="3.36785">
        <ele>140.2</ele>
        <time>2014-09-28T06:48:17Z</time>
      </trkpt>
      <trkpt lat="43.6432" lon="3.36775">
        <ele>140.1</ele>
        <time>2014-09-28T06:48:20Z</time>
      </trkpt>
      <trkpt lat="43.64318" lon="3.36768">
        <ele>140</ele>
        <time>2014-09-28T06:48:23Z</time>
      </trkpt>
      <trkpt lat="43.64315" lon="3.36758">
        <ele>139.9</ele>
        <time>2014-09-28T06:48:25Z</time>
      </trkpt>
      <trkpt lat="43.64316" lon="3.3675">
        <ele>139.6</ele>
        <time>2014-09-28T06:48:27Z</time>
      </trkpt>
      <trkpt lat="43.64317" lon="3.36743">
        <ele>139.3</ele>
        <time>2014-09-28T06:48:29Z</time>
      </trkpt>
      <trkpt lat="43.64317" lon="3.36737">
        <ele>139.1</ele>
        <time>2014-09-28T06:48:30Z</time>
      </trkpt>
      <trkpt lat="43.64314" lon="3.3673">
        <ele>139</ele>
        <time>2014-09-28T06:48:32Z</time>
      </trkpt>
      <trkpt lat="43.64311" lon="3.36723">
        <ele>138.8</ele>
        <time>2014-09-28T06:48:34Z</time>
      </trkpt>
      <trkpt lat="43.64309" lon="3.36716">
        <ele>138.7</ele>
        <time>2014-09-28T06:48:35Z</time>
      </trkpt>
      <trkpt lat="43.64306" lon="3.36709">
        <ele>138.5</ele>
        <time>2014-09-28T06:48:37Z</time>
      </trkpt>
      <trkpt lat="43.64307" lon="3.36701">
        <ele>138.5</ele>
        <time>2014-09-28T06:48:39Z</time>
      </trkpt>
      <trkpt lat="43.64309" lon="3.36693">
        <ele>138.5</ele>
        <time>2014-09-28T06:48:40Z</time>
      </trkpt>
      <trkpt lat="43.6431" lon="3.36681">
        <ele>138.6</ele>
        <time>2014-09-28T06:48:42Z</time>
      </trkpt>
      <trkpt lat="43.64309" lon="3.36673">
        <ele>138.7</ele>
        <time>2014-09-28T06:48:44Z</time>
      </trkpt>
      <trkpt lat="43.64306" lon="3.36666">
        <ele>138.9</ele>
        <time>2014-09-28T06:48:45Z</time>
      </trkpt>
      <trkpt lat="43.643" lon="3.36659">
        <ele>139.2</ele>
        <time>2014-09-28T06:48:47Z</time>
      </trkpt>
      <trkpt lat="43.64295" lon="3.36656">
        <ele>139.5</ele>
        <time>2014-09-28T06:48:49Z</time>
      </trkpt>
      <trkpt lat="43.6429" lon="3.36652">
        <ele>139.9</ele>
        <time>2014-09-28T06:48:50Z</time>
      </trkpt>
      <trkpt lat="43.64285" lon="3.36644">
        <ele>140.4</ele>
        <time>2014-09-28T06:48:52Z</time>
      </trkpt>
      <trkpt lat="43.64285" lon="3.36636">
        <ele>140.5</ele>
        <time>2014-09-28T06:48:54Z</time>
      </trkpt>
      <trkpt lat="43.64284" lon="3.36628">
        <ele>140.7</ele>
        <time>2014-09-28T06:48:55Z</time>
      </trkpt>
      <trkpt lat="43.64284" lon="3.36618">
        <ele>141.1</ele>
        <time>2014-09-28T06:48:57Z</time>
      </trkpt>
      <trkpt lat="43.64283" lon="3.3661">
        <ele>141.4</ele>
        <time>2014-09-28T06:48:59Z</time>
      </trkpt>
      <trkpt lat="43.64283" lon="3.36602">
        <ele>141.8</ele>
        <time>2014-09-28T06:49:00Z</time>
      </trkpt>
      <trkpt lat="43.64281" lon="3.36593">
        <ele>142.4</ele>
        <time>2014-09-28T06:49:02Z</time>
      </trkpt>
      <trkpt lat="43.6428" lon="3.36586">
        <ele>142.7</ele>
        <time>2014-09-28T06:49:04Z</time>
      </trkpt>
      <trkpt lat="43.6428" lon="3.36579">
        <ele>143.1</ele>
        <time>2014-09-28T06:49:05Z</time>
      </trkpt>
      <trkpt lat="43.64279" lon="3.36569">
        <ele>143.5</ele>
        <time>2014-09-28T06:49:07Z</time>
      </trkpt>
      <trkpt lat="43.64279" lon="3.36562">
        <ele>143.8</ele>
        <time>2014-09-28T06:49:09Z</time>
      </trkpt>
      <trkpt lat="43.64279" lon="3.36554">
        <ele>144.2</ele>
        <time>2014-09-28T06:49:10Z</time>
      </trkpt>
      <trkpt lat="43.64279" lon="3.36544">
        <ele>144.5</ele>
        <time>2014-09-28T06:49:12Z</time>
      </trkpt>
      <trkpt lat="43.64279" lon="3.36536">
        <ele>145.3</ele>
        <time>2014-09-28T06:49:14Z</time>
      </trkpt>
      <trkpt lat="43.64278" lon="3.36527">
        <ele>146.2</ele>
        <time>2014-09-28T06:49:15Z</time>
      </trkpt>
      <trkpt lat="43.64279" lon="3.36515">
        <ele>147.1</ele>
        <time>2014-09-28T06:49:17Z</time>
      </trkpt>
      <trkpt lat="43.64279" lon="3.36506">
        <ele>147.9</ele>
        <time>2014-09-28T06:49:19Z</time>
      </trkpt>
      <trkpt lat="43.6428" lon="3.36498">
        <ele>148.6</ele>
        <time>2014-09-28T06:49:20Z</time>
      </trkpt>
      <trkpt lat="43.64282" lon="3.36488">
        <ele>149.3</ele>
        <time>2014-09-28T06:49:22Z</time>
      </trkpt>
      <trkpt lat="43.64283" lon="3.3648">
        <ele>149.9</ele>
        <time>2014-09-28T06:49:24Z</time>
      </trkpt>
      <trkpt lat="43.64284" lon="3.36472">
        <ele>150.5</ele>
        <time>2014-09-28T06:49:25Z</time>
      </trkpt>
      <trkpt lat="43.64286" lon="3.36461">
        <ele>151.3</ele>
        <time>2014-09-28T06:49:27Z</time>
      </trkpt>
      <trkpt lat="43.64288" lon="3.36453">
        <ele>151.7</ele>
        <time>2014-09-28T06:49:29Z</time>
      </trkpt>
      <trkpt lat="43.64289" lon="3.36445">
        <ele>151.9</ele>
        <time>2014-09-28T06:49:30Z</time>
      </trkpt>
      <trkpt lat="43.64291" lon="3.36435">
        <ele>152.2</ele>
        <time>2014-09-28T06:49:32Z</time>
      </trkpt>
      <trkpt lat="43.64293" lon="3.36428">
        <ele>152.3</ele>
        <time>2014-09-28T06:49:34Z</time>
      </trkpt>
      <trkpt lat="43.64295" lon="3.36421">
        <ele>152.4</ele>
        <time>2014-09-28T06:49:35Z</time>
      </trkpt>
      <trkpt lat="43.64297" lon="3.36412">
        <ele>152.5</ele>
        <time>2014-09-28T06:49:37Z</time>
      </trkpt>
      <trkpt lat="43.64299" lon="3.36401">
        <ele>152.8</ele>
        <time>2014-09-28T06:49:40Z</time>
      </trkpt>
      <trkpt lat="43.643" lon="3.36395">
        <ele>152.8</ele>
        <time>2014-09-28T06:49:42Z</time>
      </trkpt>
      <trkpt lat="43.64303" lon="3.36386">
        <ele>152.9</ele>
        <time>2014-09-28T06:49:45Z</time>
      </trkpt>
      <trkpt lat="43.64305" lon="3.36379">
        <ele>152.9</ele>
        <time>2014-09-28T06:49:47Z</time>
      </trkpt>
      <trkpt lat="43.64307" lon="3.36369">
        <ele>152.9</ele>
        <time>2014-09-28T06:49:50Z</time>
      </trkpt>
      <trkpt lat="43.64305" lon="3.36363">
        <ele>153.2</ele>
        <time>2014-09-28T06:49:52Z</time>
      </trkpt>
      <trkpt lat="43.64302" lon="3.36353">
        <ele>153.7</ele>
        <time>2014-09-28T06:49:55Z</time>
      </trkpt>
      <trkpt lat="43.64301" lon="3.36345">
        <ele>153.8</ele>
        <time>2014-09-28T06:49:57Z</time>
      </trkpt>
      <trkpt lat="43.64299" lon="3.36334">
        <ele>154.1</ele>
        <time>2014-09-28T06:50:00Z</time>
      </trkpt>
      <trkpt lat="43.64297" lon="3.36327">
        <ele>154.3</ele>
        <time>2014-09-28T06:50:02Z</time>
      </trkpt>
      <trkpt lat="43.64296" lon="3.36316">
        <ele>154.5</ele>
        <time>2014-09-28T06:50:05Z</time>
      </trkpt>
      <trkpt lat="43.64294" lon="3.36308">
        <ele>154.8</ele>
        <time>2014-09-28T06:50:07Z</time>
      </trkpt>
      <trkpt lat="43.64294" lon="3.36302">
        <ele>154.8</ele>
        <time>2014-09-28T06:50:09Z</time>
      </trkpt>
      <trkpt lat="43.64293" lon="3.36292">
        <ele>154.8</ele>
        <time>2014-09-28T06:50:11Z</time>
      </trkpt>
      <trkpt lat="43.64293" lon="3.36283">
        <ele>155.2</ele>
        <time>2014-09-28T06:50:14Z</time>
      </trkpt>
      <trkpt lat="43.64294" lon="3.36273">
        <ele>155.7</ele>
        <time>2014-09-28T06:50:16Z</time>
      </trkpt>
      <trkpt lat="43.64294" lon="3.36264">
        <ele>156.1</ele>
        <time>2014-09-28T06:50:19Z</time>
      </trkpt>
      <trkpt lat="43.64293" lon="3.36254">
        <ele>156.6</ele>
        <time>2014-09-28T06:50:21Z</time>
      </trkpt>
      <trkpt lat="43.64294" lon="3.36245">
        <ele>157</ele>
        <time>2014-09-28T06:50:24Z</time>
      </trkpt>
      <trkpt lat="43.64295" lon="3.36236">
        <ele>157.4</ele>
        <time>2014-09-28T06:50:26Z</time>
      </trkpt>
      <trkpt lat="43.64295" lon="3.36227">
        <ele>157.9</ele>
        <time>2014-09-28T06:50:29Z</time>
      </trkpt>
      <trkpt lat="43.64294" lon="3.3622">
        <ele>158.2</ele>
        <time>2014-09-28T06:50:30Z</time>
      </trkpt>
      <trkpt lat="43.64293" lon="3.36211">
        <ele>158.8</ele>
        <time>2014-09-28T06:50:32Z</time>
      </trkpt>
      <trkpt lat="43.64293" lon="3.36204">
        <ele>159.2</ele>
        <time>2014-09-28T06:50:34Z</time>
      </trkpt>
      <trkpt lat="43.64293" lon="3.36198">
        <ele>159.5</ele>
        <time>2014-09-28T06:50:35Z</time>
      </trkpt>
      <trkpt lat="43.64296" lon="3.36192">
        <ele>159.6</ele>
        <time>2014-09-28T06:50:37Z</time>
      </trkpt>
      <trkpt lat="43.643" lon="3.36188">
        <ele>159.5</ele>
        <time>2014-09-28T06:50:39Z</time>
      </trkpt>
      <trkpt lat="43.64304" lon="3.36184">
        <ele>159.4</ele>
        <time>2014-09-28T06:50:40Z</time>
      </trkpt>
      <trkpt lat="43.6431" lon="3.36178">
        <ele>159.3</ele>
        <time>2014-09-28T06:50:42Z</time>
      </trkpt>
      <trkpt lat="43.64315" lon="3.36171">
        <ele>159.3</ele>
        <time>2014-09-28T06:50:45Z</time>
      </trkpt>
      <trkpt lat="43.64315" lon="3.36171">
        <ele>159.3</ele>
        <time>2014-09-28T06:50:45Z</time>
      </trkpt>
      <trkpt lat="43.6432" lon="3.36166">
        <ele>159.2</ele>
        <time>2014-09-28T06:50:48Z</time>
      </trkpt>
      <trkpt lat="43.64324" lon="3.36162">
        <ele>159.1</ele>
        <time>2014-09-28T06:50:50Z</time>
      </trkpt>
      <trkpt lat="43.64328" lon="3.36158">
        <ele>159</ele>
        <time>2014-09-28T06:50:53Z</time>
      </trkpt>
      <trkpt lat="43.64332" lon="3.36154">
        <ele>158.8</ele>
        <time>2014-09-28T06:50:56Z</time>
      </trkpt>
      <trkpt lat="43.64337" lon="3.3615">
        <ele>158.7</ele>
        <time>2014-09-28T06:51:22Z</time>
      </trkpt>
      <trkpt lat="43.64341" lon="3.36146">
        <ele>158.6</ele>
        <time>2014-09-28T06:51:25Z</time>
      </trkpt>
      <trkpt lat="43.64346" lon="3.36142">
        <ele>158.4</ele>
        <time>2014-09-28T06:51:28Z</time>
      </trkpt>
      <trkpt lat="43.64351" lon="3.36139">
        <ele>158.2</ele>
        <time>2014-09-28T06:51:30Z</time>
      </trkpt>
      <trkpt lat="43.64356" lon="3.36136">
        <ele>157.9</ele>
        <time>2014-09-28T06:51:32Z</time>
      </trkpt>
      <trkpt lat="43.6436" lon="3.36134">
        <ele>157.7</ele>
        <time>2014-09-28T06:51:34Z</time>
      </trkpt>
      <trkpt lat="43.64365" lon="3.36131">
        <ele>157.5</ele>
        <time>2014-09-28T06:51:35Z</time>
      </trkpt>
      <trkpt lat="43.64372" lon="3.36126">
        <ele>157.2</ele>
        <time>2014-09-28T06:51:37Z</time>
      </trkpt>
      <trkpt lat="43.64378" lon="3.36122">
        <ele>156.9</ele>
        <time>2014-09-28T06:51:39Z</time>
      </trkpt>
      <trkpt lat="43.64385" lon="3.36117">
        <ele>156.6</ele>
        <time>2014-09-28T06:51:40Z</time>
      </trkpt>
      <trkpt lat="43.64389" lon="3.36114">
        <ele>156.4</ele>
        <time>2014-09-28T06:51:41Z</time>
      </trkpt>
      <trkpt lat="43.64393" lon="3.3611">
        <ele>156.1</ele>
        <time>2014-09-28T06:51:42Z</time>
      </trkpt>
      <trkpt lat="43.64401" lon="3.36105">
        <ele>155.7</ele>
        <time>2014-09-28T06:51:44Z</time>
      </trkpt>
      <trkpt lat="43.64408" lon="3.36099">
        <ele>155.3</ele>
        <time>2014-09-28T06:51:45Z</time>
      </trkpt>
      <trkpt lat="43.64413" lon="3.36094">
        <ele>155</ele>
        <time>2014-09-28T06:51:46Z</time>
      </trkpt>
      <trkpt lat="43.64419" lon="3.3609">
        <ele>154.7</ele>
        <time>2014-09-28T06:51:47Z</time>
      </trkpt>
      <trkpt lat="43.64428" lon="3.36083">
        <ele>154.1</ele>
        <time>2014-09-28T06:51:49Z</time>
      </trkpt>
      <trkpt lat="43.64437" lon="3.36077">
        <ele>153.5</ele>
        <time>2014-09-28T06:51:50Z</time>
      </trkpt>
      <trkpt lat="43.64443" lon="3.36073">
        <ele>153</ele>
        <time>2014-09-28T06:51:51Z</time>
      </trkpt>
      <trkpt lat="43.64449" lon="3.3607">
        <ele>152.5</ele>
        <time>2014-09-28T06:51:52Z</time>
      </trkpt>
      <trkpt lat="43.64457" lon="3.36068">
        <ele>151.8</ele>
        <time>2014-09-28T06:51:54Z</time>
      </trkpt>
      <trkpt lat="43.64464" lon="3.36066">
        <ele>151.5</ele>
        <time>2014-09-28T06:51:55Z</time>
      </trkpt>
      <trkpt lat="43.64471" lon="3.36064">
        <ele>151.2</ele>
        <time>2014-09-28T06:51:57Z</time>
      </trkpt>
      <trkpt lat="43.64477" lon="3.3606">
        <ele>151</ele>
        <time>2014-09-28T06:51:59Z</time>
      </trkpt>
      <trkpt lat="43.64484" lon="3.36056">
        <ele>150.8</ele>
        <time>2014-09-28T06:52:00Z</time>
      </trkpt>
      <trkpt lat="43.64489" lon="3.36053">
        <ele>150.7</ele>
        <time>2014-09-28T06:52:01Z</time>
      </trkpt>
      <trkpt lat="43.64494" lon="3.36049">
        <ele>150.6</ele>
        <time>2014-09-28T06:52:02Z</time>
      </trkpt>
      <trkpt lat="43.64502" lon="3.36043">
        <ele>150.4</ele>
        <time>2014-09-28T06:52:04Z</time>
      </trkpt>
      <trkpt lat="43.6451" lon="3.36039">
        <ele>150.2</ele>
        <time>2014-09-28T06:52:05Z</time>
      </trkpt>
      <trkpt lat="43.64516" lon="3.36037">
        <ele>150</ele>
        <time>2014-09-28T06:52:06Z</time>
      </trkpt>
      <trkpt lat="43.64521" lon="3.36035">
        <ele>149.9</ele>
        <time>2014-09-28T06:52:07Z</time>
      </trkpt>
      <trkpt lat="43.64529" lon="3.36031">
        <ele>149.7</ele>
        <time>2014-09-28T06:52:09Z</time>
      </trkpt>
      <trkpt lat="43.64537" lon="3.36028">
        <ele>149.5</ele>
        <time>2014-09-28T06:52:10Z</time>
      </trkpt>
      <trkpt lat="43.64542" lon="3.36026">
        <ele>149.3</ele>
        <time>2014-09-28T06:52:11Z</time>
      </trkpt>
      <trkpt lat="43.64548" lon="3.36025">
        <ele>148.9</ele>
        <time>2014-09-28T06:52:12Z</time>
      </trkpt>
      <trkpt lat="43.64557" lon="3.36022">
        <ele>148.2</ele>
        <time>2014-09-28T06:52:14Z</time>
      </trkpt>
      <trkpt lat="43.64566" lon="3.36021">
        <ele>147.5</ele>
        <time>2014-09-28T06:52:15Z</time>
      </trkpt>
      <trkpt lat="43.64572" lon="3.3602">
        <ele>147.1</ele>
        <time>2014-09-28T06:52:16Z</time>
      </trkpt>
      <trkpt lat="43.64577" lon="3.36021">
        <ele>146.6</ele>
        <time>2014-09-28T06:52:17Z</time>
      </trkpt>
      <trkpt lat="43.64582" lon="3.36022">
        <ele>146.2</ele>
        <time>2014-09-28T06:52:19Z</time>
      </trkpt>
      <trkpt lat="43.64587" lon="3.36023">
        <ele>145.8</ele>
        <time>2014-09-28T06:52:21Z</time>
      </trkpt>
      <trkpt lat="43.6459" lon="3.36029">
        <ele>145.4</ele>
        <time>2014-09-28T06:52:25Z</time>
      </trkpt>
      <trkpt lat="43.64591" lon="3.36036">
        <ele>145</ele>
        <time>2014-09-28T06:52:29Z</time>
      </trkpt>
      <trkpt lat="43.64594" lon="3.36046">
        <ele>144.5</ele>
        <time>2014-09-28T06:52:31Z</time>
      </trkpt>
      <trkpt lat="43.64597" lon="3.3605">
        <ele>144.1</ele>
        <time>2014-09-28T06:52:33Z</time>
      </trkpt>
      <trkpt lat="43.64603" lon="3.36048">
        <ele>143.7</ele>
        <time>2014-09-28T06:52:36Z</time>
      </trkpt>
      <trkpt lat="43.64608" lon="3.36045">
        <ele>143.3</ele>
        <time>2014-09-28T06:52:40Z</time>
      </trkpt>
      <trkpt lat="43.64614" lon="3.3604">
        <ele>143</ele>
        <time>2014-09-28T06:53:09Z</time>
      </trkpt>
      <trkpt lat="43.64618" lon="3.36036">
        <ele>142.8</ele>
        <time>2014-09-28T06:53:12Z</time>
      </trkpt>
      <trkpt lat="43.64622" lon="3.36031">
        <ele>142.6</ele>
        <time>2014-09-28T06:53:17Z</time>
      </trkpt>
      <trkpt lat="43.64625" lon="3.36025">
        <ele>142.6</ele>
        <time>2014-09-28T06:53:21Z</time>
      </trkpt>
      <trkpt lat="43.64628" lon="3.36019">
        <ele>142.8</ele>
        <time>2014-09-28T06:53:25Z</time>
      </trkpt>
      <trkpt lat="43.64631" lon="3.36013">
        <ele>143</ele>
        <time>2014-09-28T06:53:31Z</time>
      </trkpt>
      <trkpt lat="43.64636" lon="3.36012">
        <ele>143.1</ele>
        <time>2014-09-28T06:53:35Z</time>
      </trkpt>
      <trkpt lat="43.64641" lon="3.36012">
        <ele>143.1</ele>
        <time>2014-09-28T06:53:40Z</time>
      </trkpt>
      <trkpt lat="43.64645" lon="3.36014">
        <ele>143</ele>
        <time>2014-09-28T06:53:45Z</time>
      </trkpt>
      <trkpt lat="43.6465" lon="3.36012">
        <ele>143.1</ele>
        <time>2014-09-28T06:53:52Z</time>
      </trkpt>
      <trkpt lat="43.64656" lon="3.36011">
        <ele>143.1</ele>
        <time>2014-09-28T06:53:55Z</time>
      </trkpt>
      <trkpt lat="43.64661" lon="3.36012">
        <ele>143.1</ele>
        <time>2014-09-28T06:54:00Z</time>
      </trkpt>
      <trkpt lat="43.64671" lon="3.36016">
        <ele>142.9</ele>
        <time>2014-09-28T06:54:10Z</time>
      </trkpt>
      <trkpt lat="43.64674" lon="3.36022">
        <ele>142.7</ele>
        <time>2014-09-28T06:54:14Z</time>
      </trkpt>
      <trkpt lat="43.64682" lon="3.36033">
        <ele>142.3</ele>
        <time>2014-09-28T06:54:20Z</time>
      </trkpt>
      <trkpt lat="43.64686" lon="3.36047">
        <ele>141.7</ele>
        <time>2014-09-28T06:54:25Z</time>
      </trkpt>
      <trkpt lat="43.64689" lon="3.36056">
        <ele>141.2</ele>
        <time>2014-09-28T06:54:27Z</time>
      </trkpt>
      <trkpt lat="43.64696" lon="3.36064">
        <ele>140.6</ele>
        <time>2014-09-28T06:54:30Z</time>
      </trkpt>
      <trkpt lat="43.64702" lon="3.3607">
        <ele>140.1</ele>
        <time>2014-09-28T06:54:32Z</time>
      </trkpt>
      <trkpt lat="43.64705" lon="3.36075">
        <ele>139.7</ele>
        <time>2014-09-28T06:54:34Z</time>
      </trkpt>
      <trkpt lat="43.64709" lon="3.3608">
        <ele>139.2</ele>
        <time>2014-09-28T06:54:35Z</time>
      </trkpt>
      <trkpt lat="43.64715" lon="3.36087">
        <ele>138.7</ele>
        <time>2014-09-28T06:54:37Z</time>
      </trkpt>
      <trkpt lat="43.64719" lon="3.36091">
        <ele>138.3</ele>
        <time>2014-09-28T06:54:39Z</time>
      </trkpt>
      <trkpt lat="43.64724" lon="3.36096">
        <ele>137.9</ele>
        <time>2014-09-28T06:54:40Z</time>
      </trkpt>
      <trkpt lat="43.6473" lon="3.36099">
        <ele>137.7</ele>
        <time>2014-09-28T06:54:42Z</time>
      </trkpt>
      <trkpt lat="43.64735" lon="3.36094">
        <ele>138</ele>
        <time>2014-09-28T06:54:44Z</time>
      </trkpt>
      <trkpt lat="43.64738" lon="3.36088">
        <ele>138.4</ele>
        <time>2014-09-28T06:54:45Z</time>
      </trkpt>
      <trkpt lat="43.64741" lon="3.36079">
        <ele>138.9</ele>
        <time>2014-09-28T06:54:47Z</time>
      </trkpt>
      <trkpt lat="43.64745" lon="3.36073">
        <ele>139.2</ele>
        <time>2014-09-28T06:54:49Z</time>
      </trkpt>
      <trkpt lat="43.64749" lon="3.36067">
        <ele>139.5</ele>
        <time>2014-09-28T06:54:50Z</time>
      </trkpt>
      <trkpt lat="43.64755" lon="3.36061">
        <ele>139.8</ele>
        <time>2014-09-28T06:54:52Z</time>
      </trkpt>
      <trkpt lat="43.6476" lon="3.36056">
        <ele>139.9</ele>
        <time>2014-09-28T06:54:54Z</time>
      </trkpt>
      <trkpt lat="43.64765" lon="3.36051">
        <ele>140.1</ele>
        <time>2014-09-28T06:54:55Z</time>
      </trkpt>
      <trkpt lat="43.6477" lon="3.36043">
        <ele>140.5</ele>
        <time>2014-09-28T06:54:57Z</time>
      </trkpt>
      <trkpt lat="43.64773" lon="3.36033">
        <ele>140.9</ele>
        <time>2014-09-28T06:55:00Z</time>
      </trkpt>
      <trkpt lat="43.64775" lon="3.36025">
        <ele>141.3</ele>
        <time>2014-09-28T06:55:02Z</time>
      </trkpt>
      <trkpt lat="43.64778" lon="3.36018">
        <ele>141.7</ele>
        <time>2014-09-28T06:55:04Z</time>
      </trkpt>
      <trkpt lat="43.6478" lon="3.36011">
        <ele>142</ele>
        <time>2014-09-28T06:55:05Z</time>
      </trkpt>
      <trkpt lat="43.64784" lon="3.36002">
        <ele>142.5</ele>
        <time>2014-09-28T06:55:07Z</time>
      </trkpt>
      <trkpt lat="43.64787" lon="3.35995">
        <ele>142.8</ele>
        <time>2014-09-28T06:55:09Z</time>
      </trkpt>
      <trkpt lat="43.64789" lon="3.35989">
        <ele>143.2</ele>
        <time>2014-09-28T06:55:10Z</time>
      </trkpt>
      <trkpt lat="43.64793" lon="3.3598">
        <ele>143.7</ele>
        <time>2014-09-28T06:55:12Z</time>
      </trkpt>
      <trkpt lat="43.64795" lon="3.35974">
        <ele>143.9</ele>
        <time>2014-09-28T06:55:14Z</time>
      </trkpt>
      <trkpt lat="43.64798" lon="3.35968">
        <ele>144.2</ele>
        <time>2014-09-28T06:55:15Z</time>
      </trkpt>
      <trkpt lat="43.64801" lon="3.35959">
        <ele>144.6</ele>
        <time>2014-09-28T06:55:17Z</time>
      </trkpt>
      <trkpt lat="43.64804" lon="3.35952">
        <ele>144.6</ele>
        <time>2014-09-28T06:55:19Z</time>
      </trkpt>
      <trkpt lat="43.64807" lon="3.35946">
        <ele>144.5</ele>
        <time>2014-09-28T06:55:20Z</time>
      </trkpt>
      <trkpt lat="43.64811" lon="3.35937">
        <ele>144.3</ele>
        <time>2014-09-28T06:55:22Z</time>
      </trkpt>
      <trkpt lat="43.64814" lon="3.35931">
        <ele>144.2</ele>
        <time>2014-09-28T06:55:24Z</time>
      </trkpt>
      <trkpt lat="43.64818" lon="3.35925">
        <ele>144</ele>
        <time>2014-09-28T06:55:25Z</time>
      </trkpt>
      <trkpt lat="43.64822" lon="3.35916">
        <ele>143.7</ele>
        <time>2014-09-28T06:55:27Z</time>
      </trkpt>
      <trkpt lat="43.64825" lon="3.35908">
        <ele>143.5</ele>
        <time>2014-09-28T06:55:29Z</time>
      </trkpt>
      <trkpt lat="43.64828" lon="3.359">
        <ele>143.2</ele>
        <time>2014-09-28T06:55:30Z</time>
      </trkpt>
      <trkpt lat="43.6483" lon="3.35894">
        <ele>143</ele>
        <time>2014-09-28T06:55:31Z</time>
      </trkpt>
      <trkpt lat="43.64831" lon="3.35888">
        <ele>142.9</ele>
        <time>2014-09-28T06:55:32Z</time>
      </trkpt>
      <trkpt lat="43.64832" lon="3.35879">
        <ele>142.6</ele>
        <time>2014-09-28T06:55:34Z</time>
      </trkpt>
      <trkpt lat="43.64834" lon="3.3587">
        <ele>142.5</ele>
        <time>2014-09-28T06:55:35Z</time>
      </trkpt>
      <trkpt lat="43.64836" lon="3.35864">
        <ele>142.4</ele>
        <time>2014-09-28T06:55:36Z</time>
      </trkpt>
      <trkpt lat="43.64837" lon="3.35858">
        <ele>142.3</ele>
        <time>2014-09-28T06:55:37Z</time>
      </trkpt>
      <trkpt lat="43.64837" lon="3.35858">
        <ele>142.3</ele>
        <time>2014-09-28T06:55:37Z</time>
      </trkpt>
      <trkpt lat="43.6484" lon="3.35849">
        <ele>142.1</ele>
        <time>2014-09-28T06:55:39Z</time>
      </trkpt>
      <trkpt lat="43.64842" lon="3.3584">
        <ele>142</ele>
        <time>2014-09-28T06:55:40Z</time>
      </trkpt>
      <trkpt lat="43.64844" lon="3.35834">
        <ele>141.9</ele>
        <time>2014-09-28T06:55:41Z</time>
      </trkpt>
      <trkpt lat="43.64846" lon="3.35827">
        <ele>141.8</ele>
        <time>2014-09-28T06:55:42Z</time>
      </trkpt>
      <trkpt lat="43.64848" lon="3.35818">
        <ele>141.7</ele>
        <time>2014-09-28T06:55:44Z</time>
      </trkpt>
      <trkpt lat="43.64851" lon="3.35809">
        <ele>141.6</ele>
        <time>2014-09-28T06:55:45Z</time>
      </trkpt>
      <trkpt lat="43.64854" lon="3.35798">
        <ele>141.4</ele>
        <time>2014-09-28T06:55:47Z</time>
      </trkpt>
      <trkpt lat="43.64857" lon="3.35791">
        <ele>141.3</ele>
        <time>2014-09-28T06:55:49Z</time>
      </trkpt>
      <trkpt lat="43.64859" lon="3.35784">
        <ele>141.2</ele>
        <time>2014-09-28T06:55:50Z</time>
      </trkpt>
      <trkpt lat="43.6486" lon="3.35777">
        <ele>141.2</ele>
        <time>2014-09-28T06:55:52Z</time>
      </trkpt>
      <trkpt lat="43.64861" lon="3.35771">
        <ele>141.2</ele>
        <time>2014-09-28T06:55:54Z</time>
      </trkpt>
      <trkpt lat="43.64865" lon="3.35764">
        <ele>141</ele>
        <time>2014-09-28T06:55:56Z</time>
      </trkpt>
      <trkpt lat="43.64871" lon="3.35754">
        <ele>140.7</ele>
        <time>2014-09-28T06:55:58Z</time>
      </trkpt>
      <trkpt lat="43.64874" lon="3.35749">
        <ele>140.6</ele>
        <time>2014-09-28T06:55:59Z</time>
      </trkpt>
      <trkpt lat="43.64877" lon="3.35745">
        <ele>140.5</ele>
        <time>2014-09-28T06:56:00Z</time>
      </trkpt>
      <trkpt lat="43.64881" lon="3.35741">
        <ele>140.4</ele>
        <time>2014-09-28T06:56:01Z</time>
      </trkpt>
      <trkpt lat="43.64888" lon="3.35734">
        <ele>140.2</ele>
        <time>2014-09-28T06:56:03Z</time>
      </trkpt>
      <trkpt lat="43.64894" lon="3.35726">
        <ele>140.1</ele>
        <time>2014-09-28T06:56:05Z</time>
      </trkpt>
      <trkpt lat="43.64897" lon="3.35722">
        <ele>140.1</ele>
        <time>2014-09-28T06:56:06Z</time>
      </trkpt>
      <trkpt lat="43.64902" lon="3.35713">
        <ele>140</ele>
        <time>2014-09-28T06:56:08Z</time>
      </trkpt>
      <trkpt lat="43.64908" lon="3.35704">
        <ele>139.9</ele>
        <time>2014-09-28T06:56:10Z</time>
      </trkpt>
      <trkpt lat="43.64914" lon="3.35696">
        <ele>139.8</ele>
        <time>2014-09-28T06:56:12Z</time>
      </trkpt>
      <trkpt lat="43.6492" lon="3.35688">
        <ele>139.6</ele>
        <time>2014-09-28T06:56:14Z</time>
      </trkpt>
      <trkpt lat="43.64928" lon="3.35682">
        <ele>139.4</ele>
        <time>2014-09-28T06:56:16Z</time>
      </trkpt>
      <trkpt lat="43.64932" lon="3.35679">
        <ele>139.3</ele>
        <time>2014-09-28T06:56:17Z</time>
      </trkpt>
      <trkpt lat="43.64936" lon="3.35677">
        <ele>139.2</ele>
        <time>2014-09-28T06:56:18Z</time>
      </trkpt>
      <trkpt lat="43.64941" lon="3.35676">
        <ele>139</ele>
        <time>2014-09-28T06:56:19Z</time>
      </trkpt>
      <trkpt lat="43.64948" lon="3.35673">
        <ele>138.8</ele>
        <time>2014-09-28T06:56:21Z</time>
      </trkpt>
      <trkpt lat="43.64955" lon="3.35669">
        <ele>138.6</ele>
        <time>2014-09-28T06:56:23Z</time>
      </trkpt>
      <trkpt lat="43.64961" lon="3.35661">
        <ele>138.5</ele>
        <time>2014-09-28T06:56:25Z</time>
      </trkpt>
      <trkpt lat="43.64964" lon="3.35655">
        <ele>138.5</ele>
        <time>2014-09-28T06:56:26Z</time>
      </trkpt>
      <trkpt lat="43.64966" lon="3.35649">
        <ele>138.5</ele>
        <time>2014-09-28T06:56:27Z</time>
      </trkpt>
      <trkpt lat="43.64967" lon="3.35642">
        <ele>138.5</ele>
        <time>2014-09-28T06:56:28Z</time>
      </trkpt>
      <trkpt lat="43.64968" lon="3.35636">
        <ele>138.6</ele>
        <time>2014-09-28T06:56:29Z</time>
      </trkpt>
      <trkpt lat="43.6497" lon="3.3563">
        <ele>138.6</ele>
        <time>2014-09-28T06:56:30Z</time>
      </trkpt>
      <trkpt lat="43.64973" lon="3.3562">
        <ele>138.5</ele>
        <time>2014-09-28T06:56:32Z</time>
      </trkpt>
      <trkpt lat="43.64976" lon="3.35609">
        <ele>138.3</ele>
        <time>2014-09-28T06:56:34Z</time>
      </trkpt>
      <trkpt lat="43.64978" lon="3.35603">
        <ele>138.2</ele>
        <time>2014-09-28T06:56:35Z</time>
      </trkpt>
      <trkpt lat="43.6498" lon="3.35591">
        <ele>138.1</ele>
        <time>2014-09-28T06:56:37Z</time>
      </trkpt>
      <trkpt lat="43.64981" lon="3.35585">
        <ele>138</ele>
        <time>2014-09-28T06:56:38Z</time>
      </trkpt>
      <trkpt lat="43.64982" lon="3.35578">
        <ele>138</ele>
        <time>2014-09-28T06:56:39Z</time>
      </trkpt>
      <trkpt lat="43.64983" lon="3.35571">
        <ele>137.9</ele>
        <time>2014-09-28T06:56:40Z</time>
      </trkpt>
      <trkpt lat="43.64984" lon="3.35565">
        <ele>137.9</ele>
        <time>2014-09-28T06:56:41Z</time>
      </trkpt>
      <trkpt lat="43.64985" lon="3.35558">
        <ele>137.8</ele>
        <time>2014-09-28T06:56:42Z</time>
      </trkpt>
      <trkpt lat="43.64986" lon="3.35552">
        <ele>137.7</ele>
        <time>2014-09-28T06:56:43Z</time>
      </trkpt>
      <trkpt lat="43.64988" lon="3.35546">
        <ele>137.6</ele>
        <time>2014-09-28T06:56:44Z</time>
      </trkpt>
      <trkpt lat="43.64989" lon="3.3554">
        <ele>137.5</ele>
        <time>2014-09-28T06:56:45Z</time>
      </trkpt>
      <trkpt lat="43.6499" lon="3.35534">
        <ele>137.5</ele>
        <time>2014-09-28T06:56:46Z</time>
      </trkpt>
      <trkpt lat="43.64991" lon="3.35527">
        <ele>137.5</ele>
        <time>2014-09-28T06:56:47Z</time>
      </trkpt>
      <trkpt lat="43.64991" lon="3.35521">
        <ele>137.5</ele>
        <time>2014-09-28T06:56:48Z</time>
      </trkpt>
      <trkpt lat="43.6499" lon="3.35515">
        <ele>137.6</ele>
        <time>2014-09-28T06:56:49Z</time>
      </trkpt>
      <trkpt lat="43.64988" lon="3.35509">
        <ele>137.7</ele>
        <time>2014-09-28T06:56:50Z</time>
      </trkpt>
      <trkpt lat="43.64981" lon="3.35502">
        <ele>138.1</ele>
        <time>2014-09-28T06:56:52Z</time>
      </trkpt>
      <trkpt lat="43.64977" lon="3.355">
        <ele>138.2</ele>
        <time>2014-09-28T06:56:53Z</time>
      </trkpt>
      <trkpt lat="43.64972" lon="3.35497">
        <ele>138.4</ele>
        <time>2014-09-28T06:56:54Z</time>
      </trkpt>
      <trkpt lat="43.64968" lon="3.35495">
        <ele>138.6</ele>
        <time>2014-09-28T06:56:55Z</time>
      </trkpt>
      <trkpt lat="43.64963" lon="3.35493">
        <ele>138.8</ele>
        <time>2014-09-28T06:56:56Z</time>
      </trkpt>
      <trkpt lat="43.64958" lon="3.35491">
        <ele>139</ele>
        <time>2014-09-28T06:56:57Z</time>
      </trkpt>
      <trkpt lat="43.64954" lon="3.3549">
        <ele>139.1</ele>
        <time>2014-09-28T06:56:58Z</time>
      </trkpt>
      <trkpt lat="43.64949" lon="3.35489">
        <ele>139.2</ele>
        <time>2014-09-28T06:56:59Z</time>
      </trkpt>
      <trkpt lat="43.64945" lon="3.35487">
        <ele>139.3</ele>
        <time>2014-09-28T06:57:00Z</time>
      </trkpt>
      <trkpt lat="43.64945" lon="3.35487">
        <ele>139.3</ele>
        <time>2014-09-28T06:57:00Z</time>
      </trkpt>
      <trkpt lat="43.64941" lon="3.35485">
        <ele>139.3</ele>
        <time>2014-09-28T06:57:01Z</time>
      </trkpt>
      <trkpt lat="43.64933" lon="3.35479">
        <ele>139.5</ele>
        <time>2014-09-28T06:57:03Z</time>
      </trkpt>
      <trkpt lat="43.64929" lon="3.35475">
        <ele>139.5</ele>
        <time>2014-09-28T06:57:04Z</time>
      </trkpt>
      <trkpt lat="43.64926" lon="3.3547">
        <ele>139.5</ele>
        <time>2014-09-28T06:57:05Z</time>
      </trkpt>
      <trkpt lat="43.64923" lon="3.35466">
        <ele>139.5</ele>
        <time>2014-09-28T06:57:06Z</time>
      </trkpt>
      <trkpt lat="43.6492" lon="3.3546">
        <ele>139.5</ele>
        <time>2014-09-28T06:57:07Z</time>
      </trkpt>
      <trkpt lat="43.64917" lon="3.35455">
        <ele>139.5</ele>
        <time>2014-09-28T06:57:08Z</time>
      </trkpt>
      <trkpt lat="43.64915" lon="3.3545">
        <ele>139.6</ele>
        <time>2014-09-28T06:57:09Z</time>
      </trkpt>
      <trkpt lat="43.64912" lon="3.35446">
        <ele>139.6</ele>
        <time>2014-09-28T06:57:10Z</time>
      </trkpt>
      <trkpt lat="43.64909" lon="3.3544">
        <ele>139.7</ele>
        <time>2014-09-28T06:57:11Z</time>
      </trkpt>
      <trkpt lat="43.64907" lon="3.35434">
        <ele>139.8</ele>
        <time>2014-09-28T06:57:12Z</time>
      </trkpt>
      <trkpt lat="43.64906" lon="3.35428">
        <ele>139.9</ele>
        <time>2014-09-28T06:57:13Z</time>
      </trkpt>
      <trkpt lat="43.64907" lon="3.35421">
        <ele>139.9</ele>
        <time>2014-09-28T06:57:14Z</time>
      </trkpt>
      <trkpt lat="43.64909" lon="3.35415">
        <ele>139.9</ele>
        <time>2014-09-28T06:57:15Z</time>
      </trkpt>
      <trkpt lat="43.64912" lon="3.35409">
        <ele>139.9</ele>
        <time>2014-09-28T06:57:16Z</time>
      </trkpt>
      <trkpt lat="43.64916" lon="3.35405">
        <ele>139.8</ele>
        <time>2014-09-28T06:57:17Z</time>
      </trkpt>
      <trkpt lat="43.6492" lon="3.35401">
        <ele>139.8</ele>
        <time>2014-09-28T06:57:18Z</time>
      </trkpt>
      <trkpt lat="43.64924" lon="3.35396">
        <ele>139.7</ele>
        <time>2014-09-28T06:57:19Z</time>
      </trkpt>
      <trkpt lat="43.64928" lon="3.35392">
        <ele>139.7</ele>
        <time>2014-09-28T06:57:20Z</time>
      </trkpt>
      <trkpt lat="43.64931" lon="3.35387">
        <ele>139.6</ele>
        <time>2014-09-28T06:57:21Z</time>
      </trkpt>
      <trkpt lat="43.64933" lon="3.35381">
        <ele>139.6</ele>
        <time>2014-09-28T06:57:22Z</time>
      </trkpt>
      <trkpt lat="43.64935" lon="3.35375">
        <ele>139.6</ele>
        <time>2014-09-28T06:57:23Z</time>
      </trkpt>
      <trkpt lat="43.64936" lon="3.35368">
        <ele>139.4</ele>
        <time>2014-09-28T06:57:24Z</time>
      </trkpt>
      <trkpt lat="43.64937" lon="3.35361">
        <ele>139.3</ele>
        <time>2014-09-28T06:57:25Z</time>
      </trkpt>
      <trkpt lat="43.64938" lon="3.35354">
        <ele>139.1</ele>
        <time>2014-09-28T06:57:26Z</time>
      </trkpt>
      <trkpt lat="43.64938" lon="3.35343">
        <ele>138.9</ele>
        <time>2014-09-28T06:57:28Z</time>
      </trkpt>
      <trkpt lat="43.64936" lon="3.35332">
        <ele>138.8</ele>
        <time>2014-09-28T06:57:30Z</time>
      </trkpt>
      <trkpt lat="43.64933" lon="3.35326">
        <ele>138.8</ele>
        <time>2014-09-28T06:57:31Z</time>
      </trkpt>
      <trkpt lat="43.6493" lon="3.35321">
        <ele>138.8</ele>
        <time>2014-09-28T06:57:32Z</time>
      </trkpt>
      <trkpt lat="43.64927" lon="3.35316">
        <ele>138.9</ele>
        <time>2014-09-28T06:57:33Z</time>
      </trkpt>
      <trkpt lat="43.64923" lon="3.35311">
        <ele>139</ele>
        <time>2014-09-28T06:57:34Z</time>
      </trkpt>
      <trkpt lat="43.6492" lon="3.35306">
        <ele>139</ele>
        <time>2014-09-28T06:57:35Z</time>
      </trkpt>
      <trkpt lat="43.64917" lon="3.353">
        <ele>139.1</ele>
        <time>2014-09-28T06:57:36Z</time>
      </trkpt>
      <trkpt lat="43.64915" lon="3.35293">
        <ele>139.1</ele>
        <time>2014-09-28T06:57:37Z</time>
      </trkpt>
      <trkpt lat="43.64914" lon="3.35286">
        <ele>139.2</ele>
        <time>2014-09-28T06:57:38Z</time>
      </trkpt>
      <trkpt lat="43.64913" lon="3.35278">
        <ele>139.3</ele>
        <time>2014-09-28T06:57:39Z</time>
      </trkpt>
      <trkpt lat="43.64913" lon="3.35271">
        <ele>139.4</ele>
        <time>2014-09-28T06:57:40Z</time>
      </trkpt>
      <trkpt lat="43.64914" lon="3.35264">
        <ele>139.4</ele>
        <time>2014-09-28T06:57:41Z</time>
      </trkpt>
      <trkpt lat="43.64915" lon="3.35258">
        <ele>139.5</ele>
        <time>2014-09-28T06:57:42Z</time>
      </trkpt>
      <trkpt lat="43.64916" lon="3.35251">
        <ele>139.5</ele>
        <time>2014-09-28T06:57:43Z</time>
      </trkpt>
      <trkpt lat="43.64918" lon="3.35245">
        <ele>139.5</ele>
        <time>2014-09-28T06:57:44Z</time>
      </trkpt>
      <trkpt lat="43.64919" lon="3.35239">
        <ele>139.6</ele>
        <time>2014-09-28T06:57:45Z</time>
      </trkpt>
      <trkpt lat="43.6492" lon="3.35232">
        <ele>139.7</ele>
        <time>2014-09-28T06:57:46Z</time>
      </trkpt>
      <trkpt lat="43.64921" lon="3.35226">
        <ele>139.7</ele>
        <time>2014-09-28T06:57:47Z</time>
      </trkpt>
      <trkpt lat="43.64922" lon="3.35219">
        <ele>139.8</ele>
        <time>2014-09-28T06:57:48Z</time>
      </trkpt>
      <trkpt lat="43.64922" lon="3.35213">
        <ele>139.9</ele>
        <time>2014-09-28T06:57:49Z</time>
      </trkpt>
      <trkpt lat="43.64921" lon="3.35206">
        <ele>139.9</ele>
        <time>2014-09-28T06:57:50Z</time>
      </trkpt>
      <trkpt lat="43.64919" lon="3.352">
        <ele>139.8</ele>
        <time>2014-09-28T06:57:51Z</time>
      </trkpt>
      <trkpt lat="43.64917" lon="3.35194">
        <ele>139.7</ele>
        <time>2014-09-28T06:57:52Z</time>
      </trkpt>
      <trkpt lat="43.64914" lon="3.3519">
        <ele>139.6</ele>
        <time>2014-09-28T06:57:53Z</time>
      </trkpt>
      <trkpt lat="43.6491" lon="3.35187">
        <ele>139.5</ele>
        <time>2014-09-28T06:57:54Z</time>
      </trkpt>
      <trkpt lat="43.64905" lon="3.35184">
        <ele>139.4</ele>
        <time>2014-09-28T06:57:55Z</time>
      </trkpt>
      <trkpt lat="43.649" lon="3.35182">
        <ele>139.4</ele>
        <time>2014-09-28T06:57:56Z</time>
      </trkpt>
      <trkpt lat="43.64895" lon="3.3518">
        <ele>139.3</ele>
        <time>2014-09-28T06:57:57Z</time>
      </trkpt>
      <trkpt lat="43.64891" lon="3.35178">
        <ele>139.3</ele>
        <time>2014-09-28T06:57:58Z</time>
      </trkpt>
      <trkpt lat="43.64886" lon="3.35175">
        <ele>139.2</ele>
        <time>2014-09-28T06:57:59Z</time>
      </trkpt>
      <trkpt lat="43.64882" lon="3.35171">
        <ele>139.1</ele>
        <time>2014-09-28T06:58:00Z</time>
      </trkpt>
      <trkpt lat="43.64878" lon="3.35167">
        <ele>139</ele>
        <time>2014-09-28T06:58:01Z</time>
      </trkpt>
      <trkpt lat="43.64875" lon="3.35162">
        <ele>138.9</ele>
        <time>2014-09-28T06:58:02Z</time>
      </trkpt>
      <trkpt lat="43.64872" lon="3.35157">
        <ele>138.8</ele>
        <time>2014-09-28T06:58:03Z</time>
      </trkpt>
      <trkpt lat="43.6487" lon="3.35151">
        <ele>138.7</ele>
        <time>2014-09-28T06:58:04Z</time>
      </trkpt>
      <trkpt lat="43.64868" lon="3.35145">
        <ele>138.6</ele>
        <time>2014-09-28T06:58:05Z</time>
      </trkpt>
      <trkpt lat="43.64866" lon="3.35139">
        <ele>138.5</ele>
        <time>2014-09-28T06:58:06Z</time>
      </trkpt>
      <trkpt lat="43.64864" lon="3.35132">
        <ele>138.4</ele>
        <time>2014-09-28T06:58:07Z</time>
      </trkpt>
      <trkpt lat="43.64863" lon="3.35126">
        <ele>138.3</ele>
        <time>2014-09-28T06:58:08Z</time>
      </trkpt>
      <trkpt lat="43.64862" lon="3.3512">
        <ele>138.4</ele>
        <time>2014-09-28T06:58:09Z</time>
      </trkpt>
      <trkpt lat="43.64862" lon="3.35113">
        <ele>138.4</ele>
        <time>2014-09-28T06:58:10Z</time>
      </trkpt>
      <trkpt lat="43.64862" lon="3.35107">
        <ele>138.5</ele>
        <time>2014-09-28T06:58:11Z</time>
      </trkpt>
      <trkpt lat="43.64862" lon="3.35107">
        <ele>138.5</ele>
        <time>2014-09-28T06:58:11Z</time>
      </trkpt>
      <trkpt lat="43.64865" lon="3.35095">
        <ele>138.6</ele>
        <time>2014-09-28T06:58:13Z</time>
      </trkpt>
      <trkpt lat="43.64866" lon="3.35089">
        <ele>138.6</ele>
        <time>2014-09-28T06:58:14Z</time>
      </trkpt>
      <trkpt lat="43.64867" lon="3.35083">
        <ele>138.6</ele>
        <time>2014-09-28T06:58:15Z</time>
      </trkpt>
      <trkpt lat="43.64869" lon="3.35071">
        <ele>138.7</ele>
        <time>2014-09-28T06:58:17Z</time>
      </trkpt>
      <trkpt lat="43.64868" lon="3.35061">
        <ele>138.9</ele>
        <time>2014-09-28T06:58:19Z</time>
      </trkpt>
      <trkpt lat="43.6487" lon="3.35052">
        <ele>138.9</ele>
        <time>2014-09-28T06:58:21Z</time>
      </trkpt>
      <trkpt lat="43.64873" lon="3.35043">
        <ele>139</ele>
        <time>2014-09-28T06:58:23Z</time>
      </trkpt>
      <trkpt lat="43.64876" lon="3.35034">
        <ele>138.9</ele>
        <time>2014-09-28T06:58:25Z</time>
      </trkpt>
      <trkpt lat="43.64878" lon="3.35025">
        <ele>138.9</ele>
        <time>2014-09-28T06:58:27Z</time>
      </trkpt>
      <trkpt lat="43.64879" lon="3.35014">
        <ele>138.8</ele>
        <time>2014-09-28T06:58:29Z</time>
      </trkpt>
      <trkpt lat="43.64879" lon="3.35002">
        <ele>138.7</ele>
        <time>2014-09-28T06:58:31Z</time>
      </trkpt>
      <trkpt lat="43.6488" lon="3.34995">
        <ele>138.7</ele>
        <time>2014-09-28T06:58:32Z</time>
      </trkpt>
      <trkpt lat="43.64881" lon="3.34988">
        <ele>138.7</ele>
        <time>2014-09-28T06:58:33Z</time>
      </trkpt>
      <trkpt lat="43.64882" lon="3.34981">
        <ele>138.8</ele>
        <time>2014-09-28T06:58:34Z</time>
      </trkpt>
      <trkpt lat="43.64883" lon="3.34974">
        <ele>138.7</ele>
        <time>2014-09-28T06:58:35Z</time>
      </trkpt>
      <trkpt lat="43.64883" lon="3.34967">
        <ele>138.7</ele>
        <time>2014-09-28T06:58:36Z</time>
      </trkpt>
      <trkpt lat="43.64882" lon="3.3496">
        <ele>138.6</ele>
        <time>2014-09-28T06:58:37Z</time>
      </trkpt>
      <trkpt lat="43.64881" lon="3.34954">
        <ele>138.6</ele>
        <time>2014-09-28T06:58:38Z</time>
      </trkpt>
      <trkpt lat="43.64879" lon="3.34948">
        <ele>138.8</ele>
        <time>2014-09-28T06:58:39Z</time>
      </trkpt>
      <trkpt lat="43.64876" lon="3.34937">
        <ele>138.9</ele>
        <time>2014-09-28T06:58:41Z</time>
      </trkpt>
      <trkpt lat="43.64871" lon="3.34928">
        <ele>139.1</ele>
        <time>2014-09-28T06:58:43Z</time>
      </trkpt>
      <trkpt lat="43.64866" lon="3.34921">
        <ele>139.5</ele>
        <time>2014-09-28T06:58:45Z</time>
      </trkpt>
      <trkpt lat="43.6486" lon="3.34916">
        <ele>139.7</ele>
        <time>2014-09-28T06:58:47Z</time>
      </trkpt>
      <trkpt lat="43.64855" lon="3.3491">
        <ele>140</ele>
        <time>2014-09-28T06:58:49Z</time>
      </trkpt>
      <trkpt lat="43.64851" lon="3.34905">
        <ele>140.2</ele>
        <time>2014-09-28T06:58:51Z</time>
      </trkpt>
      <trkpt lat="43.64847" lon="3.34901">
        <ele>140.4</ele>
        <time>2014-09-28T06:58:53Z</time>
      </trkpt>
      <trkpt lat="43.64843" lon="3.34898">
        <ele>140.6</ele>
        <time>2014-09-28T06:58:55Z</time>
      </trkpt>
      <trkpt lat="43.64839" lon="3.34892">
        <ele>140.8</ele>
        <time>2014-09-28T06:58:58Z</time>
      </trkpt>
      <trkpt lat="43.64841" lon="3.34884">
        <ele>141.1</ele>
        <time>2014-09-28T06:59:01Z</time>
      </trkpt>
      <trkpt lat="43.64847" lon="3.3488">
        <ele>141.2</ele>
        <time>2014-09-28T06:59:04Z</time>
      </trkpt>
      <trkpt lat="43.64851" lon="3.34875">
        <ele>141.3</ele>
        <time>2014-09-28T06:59:07Z</time>
      </trkpt>
      <trkpt lat="43.64856" lon="3.3487">
        <ele>141.5</ele>
        <time>2014-09-28T06:59:10Z</time>
      </trkpt>
      <trkpt lat="43.64861" lon="3.34864">
        <ele>141.8</ele>
        <time>2014-09-28T06:59:13Z</time>
      </trkpt>
      <trkpt lat="43.64864" lon="3.34858">
        <ele>142.1</ele>
        <time>2014-09-28T06:59:16Z</time>
      </trkpt>
      <trkpt lat="43.64866" lon="3.34852">
        <ele>142.4</ele>
        <time>2014-09-28T06:59:19Z</time>
      </trkpt>
      <trkpt lat="43.64867" lon="3.34846">
        <ele>142.8</ele>
        <time>2014-09-28T06:59:22Z</time>
      </trkpt>
      <trkpt lat="43.64869" lon="3.3484">
        <ele>143.1</ele>
        <time>2014-09-28T06:59:25Z</time>
      </trkpt>
      <trkpt lat="43.64871" lon="3.34833">
        <ele>143.5</ele>
        <time>2014-09-28T06:59:28Z</time>
      </trkpt>
      <trkpt lat="43.64875" lon="3.34827">
        <ele>143.9</ele>
        <time>2014-09-28T06:59:31Z</time>
      </trkpt>
      <trkpt lat="43.64879" lon="3.3482">
        <ele>144.6</ele>
        <time>2014-09-28T06:59:34Z</time>
      </trkpt>
      <trkpt lat="43.64881" lon="3.34812">
        <ele>145.3</ele>
        <time>2014-09-28T06:59:37Z</time>
      </trkpt>
      <trkpt lat="43.64884" lon="3.34806">
        <ele>146</ele>
        <time>2014-09-28T06:59:40Z</time>
      </trkpt>
      <trkpt lat="43.64888" lon="3.34801">
        <ele>146.6</ele>
        <time>2014-09-28T06:59:43Z</time>
      </trkpt>
      <trkpt lat="43.64892" lon="3.34797">
        <ele>147.3</ele>
        <time>2014-09-28T06:59:46Z</time>
      </trkpt>
      <trkpt lat="43.64898" lon="3.34794">
        <ele>148</ele>
        <time>2014-09-28T06:59:49Z</time>
      </trkpt>
      <trkpt lat="43.64903" lon="3.34789">
        <ele>148.8</ele>
        <time>2014-09-28T06:59:52Z</time>
      </trkpt>
      <trkpt lat="43.64906" lon="3.34784">
        <ele>149.3</ele>
        <time>2014-09-28T06:59:55Z</time>
      </trkpt>
      <trkpt lat="43.6491" lon="3.34779">
        <ele>149.9</ele>
        <time>2014-09-28T06:59:58Z</time>
      </trkpt>
      <trkpt lat="43.64914" lon="3.34776">
        <ele>150.4</ele>
        <time>2014-09-28T07:00:01Z</time>
      </trkpt>
      <trkpt lat="43.64921" lon="3.34766">
        <ele>151.5</ele>
        <time>2014-09-28T07:00:07Z</time>
      </trkpt>
      <trkpt lat="43.64925" lon="3.3476">
        <ele>152</ele>
        <time>2014-09-28T07:00:10Z</time>
      </trkpt>
      <trkpt lat="43.6493" lon="3.34754">
        <ele>152.6</ele>
        <time>2014-09-28T07:00:13Z</time>
      </trkpt>
      <trkpt lat="43.64933" lon="3.3475">
        <ele>153.1</ele>
        <time>2014-09-28T07:00:16Z</time>
      </trkpt>
      <trkpt lat="43.64938" lon="3.34744">
        <ele>153.6</ele>
        <time>2014-09-28T07:00:19Z</time>
      </trkpt>
      <trkpt lat="43.64941" lon="3.34738">
        <ele>154</ele>
        <time>2014-09-28T07:00:22Z</time>
      </trkpt>
      <trkpt lat="43.64945" lon="3.34732">
        <ele>154.5</ele>
        <time>2014-09-28T07:00:25Z</time>
      </trkpt>
      <trkpt lat="43.64948" lon="3.34727">
        <ele>154.9</ele>
        <time>2014-09-28T07:00:28Z</time>
      </trkpt>
      <trkpt lat="43.64952" lon="3.3472">
        <ele>155.3</ele>
        <time>2014-09-28T07:00:31Z</time>
      </trkpt>
      <trkpt lat="43.64955" lon="3.34713">
        <ele>155.7</ele>
        <time>2014-09-28T07:00:34Z</time>
      </trkpt>
      <trkpt lat="43.64958" lon="3.34707">
        <ele>156</ele>
        <time>2014-09-28T07:00:37Z</time>
      </trkpt>
      <trkpt lat="43.64961" lon="3.34701">
        <ele>156.4</ele>
        <time>2014-09-28T07:00:40Z</time>
      </trkpt>
      <trkpt lat="43.64961" lon="3.34701">
        <ele>156.4</ele>
        <time>2014-09-28T07:00:40Z</time>
      </trkpt>
      <trkpt lat="43.64965" lon="3.34695">
        <ele>156.8</ele>
        <time>2014-09-28T07:00:43Z</time>
      </trkpt>
      <trkpt lat="43.64969" lon="3.34689">
        <ele>157.2</ele>
        <time>2014-09-28T07:00:46Z</time>
      </trkpt>
      <trkpt lat="43.64973" lon="3.34682">
        <ele>157.7</ele>
        <time>2014-09-28T07:00:49Z</time>
      </trkpt>
      <trkpt lat="43.64977" lon="3.34675">
        <ele>158.1</ele>
        <time>2014-09-28T07:00:52Z</time>
      </trkpt>
      <trkpt lat="43.6498" lon="3.34669">
        <ele>158.6</ele>
        <time>2014-09-28T07:00:55Z</time>
      </trkpt>
      <trkpt lat="43.64982" lon="3.34662">
        <ele>159</ele>
        <time>2014-09-28T07:00:58Z</time>
      </trkpt>
      <trkpt lat="43.64985" lon="3.34655">
        <ele>159.5</ele>
        <time>2014-09-28T07:01:01Z</time>
      </trkpt>
      <trkpt lat="43.64988" lon="3.34648">
        <ele>160</ele>
        <time>2014-09-28T07:01:04Z</time>
      </trkpt>
      <trkpt lat="43.64992" lon="3.34642">
        <ele>160.6</ele>
        <time>2014-09-28T07:01:07Z</time>
      </trkpt>
      <trkpt lat="43.64996" lon="3.34635">
        <ele>161.2</ele>
        <time>2014-09-28T07:01:10Z</time>
      </trkpt>
      <trkpt lat="43.64999" lon="3.3463">
        <ele>161.7</ele>
        <time>2014-09-28T07:01:12Z</time>
      </trkpt>
      <trkpt lat="43.65003" lon="3.34623">
        <ele>162.3</ele>
        <time>2014-09-28T07:01:15Z</time>
      </trkpt>
      <trkpt lat="43.65006" lon="3.34616">
        <ele>163</ele>
        <time>2014-09-28T07:01:18Z</time>
      </trkpt>
      <trkpt lat="43.6501" lon="3.3461">
        <ele>163.7</ele>
        <time>2014-09-28T07:01:21Z</time>
      </trkpt>
      <trkpt lat="43.65013" lon="3.34604">
        <ele>164.3</ele>
        <time>2014-09-28T07:01:24Z</time>
      </trkpt>
      <trkpt lat="43.65015" lon="3.34591">
        <ele>165.4</ele>
        <time>2014-09-28T07:01:30Z</time>
      </trkpt>
      <trkpt lat="43.65014" lon="3.34583">
        <ele>165.9</ele>
        <time>2014-09-28T07:01:33Z</time>
      </trkpt>
      <trkpt lat="43.65014" lon="3.34577">
        <ele>166.3</ele>
        <time>2014-09-28T07:01:36Z</time>
      </trkpt>
      <trkpt lat="43.65017" lon="3.3457">
        <ele>167.1</ele>
        <time>2014-09-28T07:01:40Z</time>
      </trkpt>
      <trkpt lat="43.65019" lon="3.34564">
        <ele>167.7</ele>
        <time>2014-09-28T07:01:43Z</time>
      </trkpt>
      <trkpt lat="43.65021" lon="3.34557">
        <ele>168.4</ele>
        <time>2014-09-28T07:01:47Z</time>
      </trkpt>
      <trkpt lat="43.65024" lon="3.34552">
        <ele>169.1</ele>
        <time>2014-09-28T07:01:50Z</time>
      </trkpt>
      <trkpt lat="43.65026" lon="3.34544">
        <ele>169.9</ele>
        <time>2014-09-28T07:01:54Z</time>
      </trkpt>
      <trkpt lat="43.65025" lon="3.34538">
        <ele>170.3</ele>
        <time>2014-09-28T07:01:57Z</time>
      </trkpt>
      <trkpt lat="43.65031" lon="3.34527">
        <ele>171.8</ele>
        <time>2014-09-28T07:02:04Z</time>
      </trkpt>
      <trkpt lat="43.65033" lon="3.3452">
        <ele>172.6</ele>
        <time>2014-09-28T07:02:08Z</time>
      </trkpt>
      <trkpt lat="43.65036" lon="3.34513">
        <ele>173.4</ele>
        <time>2014-09-28T07:02:12Z</time>
      </trkpt>
      <trkpt lat="43.65041" lon="3.34507">
        <ele>174.4</ele>
        <time>2014-09-28T07:02:16Z</time>
      </trkpt>
      <trkpt lat="43.65045" lon="3.34504">
        <ele>175.2</ele>
        <time>2014-09-28T07:02:19Z</time>
      </trkpt>
      <trkpt lat="43.65047" lon="3.34498">
        <ele>175.9</ele>
        <time>2014-09-28T07:02:22Z</time>
      </trkpt>
      <trkpt lat="43.65048" lon="3.34492">
        <ele>176.6</ele>
        <time>2014-09-28T07:02:25Z</time>
      </trkpt>
      <trkpt lat="43.65049" lon="3.34486">
        <ele>177.2</ele>
        <time>2014-09-28T07:02:29Z</time>
      </trkpt>
      <trkpt lat="43.65047" lon="3.34477">
        <ele>177.5</ele>
        <time>2014-09-28T07:02:49Z</time>
      </trkpt>
      <trkpt lat="43.65043" lon="3.34471">
        <ele>177.3</ele>
        <time>2014-09-28T07:02:53Z</time>
      </trkpt>
      <trkpt lat="43.65038" lon="3.34467">
        <ele>176.9</ele>
        <time>2014-09-28T07:02:56Z</time>
      </trkpt>
      <trkpt lat="43.65034" lon="3.34464">
        <ele>176.6</ele>
        <time>2014-09-28T07:02:58Z</time>
      </trkpt>
      <trkpt lat="43.6503" lon="3.34459">
        <ele>176.3</ele>
        <time>2014-09-28T07:03:00Z</time>
      </trkpt>
      <trkpt lat="43.65025" lon="3.34455">
        <ele>175.8</ele>
        <time>2014-09-28T07:03:02Z</time>
      </trkpt>
      <trkpt lat="43.6502" lon="3.34451">
        <ele>175.3</ele>
        <time>2014-09-28T07:03:04Z</time>
      </trkpt>
      <trkpt lat="43.65016" lon="3.34446">
        <ele>174.9</ele>
        <time>2014-09-28T07:03:06Z</time>
      </trkpt>
      <trkpt lat="43.65012" lon="3.3444">
        <ele>174.5</ele>
        <time>2014-09-28T07:03:08Z</time>
      </trkpt>
      <trkpt lat="43.65009" lon="3.34434">
        <ele>174.2</ele>
        <time>2014-09-28T07:03:10Z</time>
      </trkpt>
      <trkpt lat="43.65006" lon="3.34428">
        <ele>174</ele>
        <time>2014-09-28T07:03:12Z</time>
      </trkpt>
      <trkpt lat="43.65003" lon="3.34421">
        <ele>173.7</ele>
        <time>2014-09-28T07:03:14Z</time>
      </trkpt>
      <trkpt lat="43.65" lon="3.34416">
        <ele>173.4</ele>
        <time>2014-09-28T07:03:16Z</time>
      </trkpt>
      <trkpt lat="43.64995" lon="3.34413">
        <ele>172.9</ele>
        <time>2014-09-28T07:03:18Z</time>
      </trkpt>
      <trkpt lat="43.6499" lon="3.3441">
        <ele>172.3</ele>
        <time>2014-09-28T07:03:20Z</time>
      </trkpt>
      <trkpt lat="43.64985" lon="3.34405">
        <ele>171.8</ele>
        <time>2014-09-28T07:03:22Z</time>
      </trkpt>
      <trkpt lat="43.64982" lon="3.34401">
        <ele>171.4</ele>
        <time>2014-09-28T07:03:24Z</time>
      </trkpt>
      <trkpt lat="43.64981" lon="3.34393">
        <ele>171.6</ele>
        <time>2014-09-28T07:03:27Z</time>
      </trkpt>
      <trkpt lat="43.64982" lon="3.34386">
        <ele>171.9</ele>
        <time>2014-09-28T07:03:30Z</time>
      </trkpt>
      <trkpt lat="43.64984" lon="3.34381">
        <ele>172.3</ele>
        <time>2014-09-28T07:03:35Z</time>
      </trkpt>
      <trkpt lat="43.64987" lon="3.34376">
        <ele>172.8</ele>
        <time>2014-09-28T07:03:50Z</time>
      </trkpt>
      <trkpt lat="43.64989" lon="3.34368">
        <ele>173.6</ele>
        <time>2014-09-28T07:03:53Z</time>
      </trkpt>
      <trkpt lat="43.64991" lon="3.34359">
        <ele>174.5</ele>
        <time>2014-09-28T07:03:55Z</time>
      </trkpt>
      <trkpt lat="43.64993" lon="3.34352">
        <ele>175.3</ele>
        <time>2014-09-28T07:03:57Z</time>
      </trkpt>
      <trkpt lat="43.64994" lon="3.34345">
        <ele>176</ele>
        <time>2014-09-28T07:03:59Z</time>
      </trkpt>
      <trkpt lat="43.64995" lon="3.34338">
        <ele>176.7</ele>
        <time>2014-09-28T07:04:01Z</time>
      </trkpt>
      <trkpt lat="43.64997" lon="3.34332">
        <ele>177.4</ele>
        <time>2014-09-28T07:04:03Z</time>
      </trkpt>
      <trkpt lat="43.64998" lon="3.34325">
        <ele>178.1</ele>
        <time>2014-09-28T07:04:08Z</time>
      </trkpt>
      <trkpt lat="43.64998" lon="3.34318">
        <ele>178.6</ele>
        <time>2014-09-28T07:04:12Z</time>
      </trkpt>
      <trkpt lat="43.64996" lon="3.34312">
        <ele>178.7</ele>
        <time>2014-09-28T07:04:16Z</time>
      </trkpt>
      <trkpt lat="43.64993" lon="3.34307">
        <ele>178.7</ele>
        <time>2014-09-28T07:04:20Z</time>
      </trkpt>
      <trkpt lat="43.64991" lon="3.34299">
        <ele>179</ele>
        <time>2014-09-28T07:04:28Z</time>
      </trkpt>
      <trkpt lat="43.6499" lon="3.34292">
        <ele>179.3</ele>
        <time>2014-09-28T07:04:31Z</time>
      </trkpt>
      <trkpt lat="43.6499" lon="3.34292">
        <ele>179.3</ele>
        <time>2014-09-28T07:04:31Z</time>
      </trkpt>
      <trkpt lat="43.64987" lon="3.34285">
        <ele>179.1</ele>
        <time>2014-09-28T07:04:34Z</time>
      </trkpt>
      <trkpt lat="43.64983" lon="3.34282">
        <ele>178.5</ele>
        <time>2014-09-28T07:04:40Z</time>
      </trkpt>
      <trkpt lat="43.6498" lon="3.34275">
        <ele>178.4</ele>
        <time>2014-09-28T07:04:47Z</time>
      </trkpt>
      <trkpt lat="43.64976" lon="3.34271">
        <ele>177.9</ele>
        <time>2014-09-28T07:04:54Z</time>
      </trkpt>
      <trkpt lat="43.64974" lon="3.34264">
        <ele>177.9</ele>
        <time>2014-09-28T07:05:02Z</time>
      </trkpt>
      <trkpt lat="43.64971" lon="3.34257">
        <ele>177.7</ele>
        <time>2014-09-28T07:05:05Z</time>
      </trkpt>
      <trkpt lat="43.64968" lon="3.34252">
        <ele>177.5</ele>
        <time>2014-09-28T07:05:07Z</time>
      </trkpt>
      <trkpt lat="43.64965" lon="3.34247">
        <ele>177.2</ele>
        <time>2014-09-28T07:05:10Z</time>
      </trkpt>
      <trkpt lat="43.64962" lon="3.34238">
        <ele>177.2</ele>
        <time>2014-09-28T07:05:13Z</time>
      </trkpt>
      <trkpt lat="43.6496" lon="3.34232">
        <ele>177.1</ele>
        <time>2014-09-28T07:05:15Z</time>
      </trkpt>
      <trkpt lat="43.64957" lon="3.34227">
        <ele>177</ele>
        <time>2014-09-28T07:05:17Z</time>
      </trkpt>
      <trkpt lat="43.64954" lon="3.3422">
        <ele>176.9</ele>
        <time>2014-09-28T07:05:19Z</time>
      </trkpt>
      <trkpt lat="43.64949" lon="3.34212">
        <ele>176.6</ele>
        <time>2014-09-28T07:05:21Z</time>
      </trkpt>
      <trkpt lat="43.64946" lon="3.34202">
        <ele>176.1</ele>
        <time>2014-09-28T07:05:23Z</time>
      </trkpt>
      <trkpt lat="43.64943" lon="3.34192">
        <ele>175.4</ele>
        <time>2014-09-28T07:05:25Z</time>
      </trkpt>
      <trkpt lat="43.6494" lon="3.34182">
        <ele>174.6</ele>
        <time>2014-09-28T07:05:27Z</time>
      </trkpt>
      <trkpt lat="43.64937" lon="3.34172">
        <ele>173.9</ele>
        <time>2014-09-28T07:05:29Z</time>
      </trkpt>
      <trkpt lat="43.64937" lon="3.34162">
        <ele>173.5</ele>
        <time>2014-09-28T07:05:31Z</time>
      </trkpt>
      <trkpt lat="43.64936" lon="3.34153">
        <ele>173.1</ele>
        <time>2014-09-28T07:05:33Z</time>
      </trkpt>
      <trkpt lat="43.64937" lon="3.34145">
        <ele>172.9</ele>
        <time>2014-09-28T07:05:35Z</time>
      </trkpt>
      <trkpt lat="43.64938" lon="3.34136">
        <ele>172.7</ele>
        <time>2014-09-28T07:05:38Z</time>
      </trkpt>
      <trkpt lat="43.6494" lon="3.34129">
        <ele>172.6</ele>
        <time>2014-09-28T07:05:41Z</time>
      </trkpt>
      <trkpt lat="43.64939" lon="3.34122">
        <ele>172.2</ele>
        <time>2014-09-28T07:05:43Z</time>
      </trkpt>
      <trkpt lat="43.64935" lon="3.34116">
        <ele>171.5</ele>
        <time>2014-09-28T07:05:45Z</time>
      </trkpt>
      <trkpt lat="43.64932" lon="3.34109">
        <ele>170.8</ele>
        <time>2014-09-28T07:05:47Z</time>
      </trkpt>
      <trkpt lat="43.6493" lon="3.34101">
        <ele>170.2</ele>
        <time>2014-09-28T07:05:49Z</time>
      </trkpt>
      <trkpt lat="43.64929" lon="3.34092">
        <ele>169.6</ele>
        <time>2014-09-28T07:05:51Z</time>
      </trkpt>
      <trkpt lat="43.64928" lon="3.3408">
        <ele>168.8</ele>
        <time>2014-09-28T07:05:53Z</time>
      </trkpt>
      <trkpt lat="43.64928" lon="3.34074">
        <ele>168.4</ele>
        <time>2014-09-28T07:05:54Z</time>
      </trkpt>
      <trkpt lat="43.64928" lon="3.34066">
        <ele>167.9</ele>
        <time>2014-09-28T07:05:55Z</time>
      </trkpt>
      <trkpt lat="43.64928" lon="3.34059">
        <ele>167.5</ele>
        <time>2014-09-28T07:05:56Z</time>
      </trkpt>
      <trkpt lat="43.64929" lon="3.34052">
        <ele>167.1</ele>
        <time>2014-09-28T07:05:57Z</time>
      </trkpt>
      <trkpt lat="43.64929" lon="3.34046">
        <ele>166.8</ele>
        <time>2014-09-28T07:05:58Z</time>
      </trkpt>
      <trkpt lat="43.6493" lon="3.34028">
        <ele>165.8</ele>
        <time>2014-09-28T07:06:01Z</time>
      </trkpt>
      <trkpt lat="43.64933" lon="3.34017">
        <ele>165.3</ele>
        <time>2014-09-28T07:06:03Z</time>
      </trkpt>
      <trkpt lat="43.64935" lon="3.34009">
        <ele>164.9</ele>
        <time>2014-09-28T07:06:05Z</time>
      </trkpt>
      <trkpt lat="43.64936" lon="3.34001">
        <ele>164.5</ele>
        <time>2014-09-28T07:06:08Z</time>
      </trkpt>
      <trkpt lat="43.64936" lon="3.33993">
        <ele>163.9</ele>
        <time>2014-09-28T07:06:10Z</time>
      </trkpt>
      <trkpt lat="43.64937" lon="3.33984">
        <ele>163.4</ele>
        <time>2014-09-28T07:06:12Z</time>
      </trkpt>
      <trkpt lat="43.64939" lon="3.33975">
        <ele>162.9</ele>
        <time>2014-09-28T07:06:14Z</time>
      </trkpt>
      <trkpt lat="43.64942" lon="3.33967">
        <ele>162.6</ele>
        <time>2014-09-28T07:06:16Z</time>
      </trkpt>
      <trkpt lat="43.64944" lon="3.33957">
        <ele>162.1</ele>
        <time>2014-09-28T07:06:18Z</time>
      </trkpt>
      <trkpt lat="43.64942" lon="3.33947">
        <ele>161.3</ele>
        <time>2014-09-28T07:06:20Z</time>
      </trkpt>
      <trkpt lat="43.64935" lon="3.33939">
        <ele>160.5</ele>
        <time>2014-09-28T07:06:22Z</time>
      </trkpt>
      <trkpt lat="43.64931" lon="3.33934">
        <ele>160</ele>
        <time>2014-09-28T07:06:23Z</time>
      </trkpt>
      <trkpt lat="43.64927" lon="3.33929">
        <ele>159.5</ele>
        <time>2014-09-28T07:06:24Z</time>
      </trkpt>
      <trkpt lat="43.64926" lon="3.33923">
        <ele>159.1</ele>
        <time>2014-09-28T07:06:25Z</time>
      </trkpt>
      <trkpt lat="43.64925" lon="3.33913">
        <ele>158.5</ele>
        <time>2014-09-28T07:06:27Z</time>
      </trkpt>
      <trkpt lat="43.64924" lon="3.33905">
        <ele>158</ele>
        <time>2014-09-28T07:06:29Z</time>
      </trkpt>
      <trkpt lat="43.64921" lon="3.33896">
        <ele>157.3</ele>
        <time>2014-09-28T07:06:31Z</time>
      </trkpt>
      <trkpt lat="43.64917" lon="3.33886">
        <ele>156.6</ele>
        <time>2014-09-28T07:06:33Z</time>
      </trkpt>
      <trkpt lat="43.64914" lon="3.33881">
        <ele>156.2</ele>
        <time>2014-09-28T07:06:34Z</time>
      </trkpt>
      <trkpt lat="43.64912" lon="3.3387">
        <ele>155.6</ele>
        <time>2014-09-28T07:06:36Z</time>
      </trkpt>
      <trkpt lat="43.64915" lon="3.33859">
        <ele>155.1</ele>
        <time>2014-09-28T07:06:38Z</time>
      </trkpt>
      <trkpt lat="43.64918" lon="3.33853">
        <ele>155</ele>
        <time>2014-09-28T07:06:39Z</time>
      </trkpt>
      <trkpt lat="43.64921" lon="3.33847">
        <ele>154.8</ele>
        <time>2014-09-28T07:06:40Z</time>
      </trkpt>
      <trkpt lat="43.64921" lon="3.33847">
        <ele>154.8</ele>
        <time>2014-09-28T07:06:40Z</time>
      </trkpt>
      <trkpt lat="43.64925" lon="3.33843">
        <ele>154.7</ele>
        <time>2014-09-28T07:06:41Z</time>
      </trkpt>
      <trkpt lat="43.6493" lon="3.33837">
        <ele>154.7</ele>
        <time>2014-09-28T07:06:43Z</time>
      </trkpt>
      <trkpt lat="43.64934" lon="3.33833">
        <ele>154.6</ele>
        <time>2014-09-28T07:06:45Z</time>
      </trkpt>
      <trkpt lat="43.64939" lon="3.3383">
        <ele>154.6</ele>
        <time>2014-09-28T07:06:47Z</time>
      </trkpt>
      <trkpt lat="43.64943" lon="3.33826">
        <ele>154.5</ele>
        <time>2014-09-28T07:06:49Z</time>
      </trkpt>
      <trkpt lat="43.64948" lon="3.33821">
        <ele>154.4</ele>
        <time>2014-09-28T07:06:51Z</time>
      </trkpt>
      <trkpt lat="43.64953" lon="3.33817">
        <ele>154.3</ele>
        <time>2014-09-28T07:06:54Z</time>
      </trkpt>
      <trkpt lat="43.64957" lon="3.33813">
        <ele>154.3</ele>
        <time>2014-09-28T07:07:00Z</time>
      </trkpt>
      <trkpt lat="43.64962" lon="3.3381">
        <ele>154.4</ele>
        <time>2014-09-28T07:07:06Z</time>
      </trkpt>
      <trkpt lat="43.64968" lon="3.33805">
        <ele>154.4</ele>
        <time>2014-09-28T07:07:09Z</time>
      </trkpt>
      <trkpt lat="43.64972" lon="3.338">
        <ele>154.3</ele>
        <time>2014-09-28T07:07:11Z</time>
      </trkpt>
      <trkpt lat="43.64975" lon="3.33795">
        <ele>154.2</ele>
        <time>2014-09-28T07:07:13Z</time>
      </trkpt>
      <trkpt lat="43.64978" lon="3.33787">
        <ele>153.9</ele>
        <time>2014-09-28T07:07:15Z</time>
      </trkpt>
      <trkpt lat="43.64982" lon="3.33779">
        <ele>153.7</ele>
        <time>2014-09-28T07:07:17Z</time>
      </trkpt>
      <trkpt lat="43.64986" lon="3.33771">
        <ele>153.4</ele>
        <time>2014-09-28T07:07:19Z</time>
      </trkpt>
      <trkpt lat="43.64991" lon="3.33763">
        <ele>153.2</ele>
        <time>2014-09-28T07:07:21Z</time>
      </trkpt>
      <trkpt lat="43.64997" lon="3.33755">
        <ele>152.9</ele>
        <time>2014-09-28T07:07:23Z</time>
      </trkpt>
      <trkpt lat="43.65003" lon="3.33748">
        <ele>152.7</ele>
        <time>2014-09-28T07:07:25Z</time>
      </trkpt>
      <trkpt lat="43.65009" lon="3.3374">
        <ele>152.4</ele>
        <time>2014-09-28T07:07:27Z</time>
      </trkpt>
      <trkpt lat="43.65013" lon="3.3373">
        <ele>151.8</ele>
        <time>2014-09-28T07:07:29Z</time>
      </trkpt>
      <trkpt lat="43.65013" lon="3.33718">
        <ele>151</ele>
        <time>2014-09-28T07:07:31Z</time>
      </trkpt>
      <trkpt lat="43.65012" lon="3.33711">
        <ele>150.5</ele>
        <time>2014-09-28T07:07:32Z</time>
      </trkpt>
      <trkpt lat="43.65011" lon="3.33705">
        <ele>150.1</ele>
        <time>2014-09-28T07:07:33Z</time>
      </trkpt>
      <trkpt lat="43.65013" lon="3.33694">
        <ele>149.8</ele>
        <time>2014-09-28T07:07:35Z</time>
      </trkpt>
      <trkpt lat="43.65019" lon="3.33687">
        <ele>149.7</ele>
        <time>2014-09-28T07:07:37Z</time>
      </trkpt>
      <trkpt lat="43.65024" lon="3.33678">
        <ele>149.5</ele>
        <time>2014-09-28T07:07:39Z</time>
      </trkpt>
      <trkpt lat="43.65024" lon="3.33666">
        <ele>149.1</ele>
        <time>2014-09-28T07:07:41Z</time>
      </trkpt>
      <trkpt lat="43.65024" lon="3.33659">
        <ele>148.8</ele>
        <time>2014-09-28T07:07:42Z</time>
      </trkpt>
      <trkpt lat="43.65025" lon="3.33652">
        <ele>148.5</ele>
        <time>2014-09-28T07:07:43Z</time>
      </trkpt>
      <trkpt lat="43.65026" lon="3.33643">
        <ele>148.3</ele>
        <time>2014-09-28T07:07:44Z</time>
      </trkpt>
      <trkpt lat="43.65027" lon="3.33635">
        <ele>148</ele>
        <time>2014-09-28T07:07:45Z</time>
      </trkpt>
      <trkpt lat="43.65028" lon="3.33626">
        <ele>147.7</ele>
        <time>2014-09-28T07:07:46Z</time>
      </trkpt>
      <trkpt lat="43.65029" lon="3.33618">
        <ele>147.4</ele>
        <time>2014-09-28T07:07:47Z</time>
      </trkpt>
      <trkpt lat="43.65031" lon="3.33609">
        <ele>147</ele>
        <time>2014-09-28T07:07:48Z</time>
      </trkpt>
      <trkpt lat="43.65033" lon="3.336">
        <ele>146.6</ele>
        <time>2014-09-28T07:07:49Z</time>
      </trkpt>
      <trkpt lat="43.65034" lon="3.33591">
        <ele>146.2</ele>
        <time>2014-09-28T07:07:50Z</time>
      </trkpt>
      <trkpt lat="43.65036" lon="3.33581">
        <ele>145.8</ele>
        <time>2014-09-28T07:07:51Z</time>
      </trkpt>
      <trkpt lat="43.65037" lon="3.33571">
        <ele>145.3</ele>
        <time>2014-09-28T07:07:52Z</time>
      </trkpt>
      <trkpt lat="43.65038" lon="3.33561">
        <ele>144.9</ele>
        <time>2014-09-28T07:07:53Z</time>
      </trkpt>
      <trkpt lat="43.6504" lon="3.33551">
        <ele>144.4</ele>
        <time>2014-09-28T07:07:54Z</time>
      </trkpt>
      <trkpt lat="43.65042" lon="3.33542">
        <ele>144</ele>
        <time>2014-09-28T07:07:55Z</time>
      </trkpt>
      <trkpt lat="43.65045" lon="3.33534">
        <ele>143.8</ele>
        <time>2014-09-28T07:07:56Z</time>
      </trkpt>
      <trkpt lat="43.65049" lon="3.33528">
        <ele>143.5</ele>
        <time>2014-09-28T07:07:57Z</time>
      </trkpt>
      <trkpt lat="43.65052" lon="3.33521">
        <ele>143.3</ele>
        <time>2014-09-28T07:07:58Z</time>
      </trkpt>
      <trkpt lat="43.65054" lon="3.33514">
        <ele>143.1</ele>
        <time>2014-09-28T07:07:59Z</time>
      </trkpt>
      <trkpt lat="43.65054" lon="3.33507">
        <ele>142.9</ele>
        <time>2014-09-28T07:08:00Z</time>
      </trkpt>
      <trkpt lat="43.65053" lon="3.335">
        <ele>142.7</ele>
        <time>2014-09-28T07:08:01Z</time>
      </trkpt>
      <trkpt lat="43.65052" lon="3.33493">
        <ele>142.6</ele>
        <time>2014-09-28T07:08:02Z</time>
      </trkpt>
      <trkpt lat="43.65051" lon="3.33486">
        <ele>142.4</ele>
        <time>2014-09-28T07:08:03Z</time>
      </trkpt>
      <trkpt lat="43.65051" lon="3.33479">
        <ele>142.2</ele>
        <time>2014-09-28T07:08:04Z</time>
      </trkpt>
      <trkpt lat="43.65052" lon="3.33471">
        <ele>142</ele>
        <time>2014-09-28T07:08:05Z</time>
      </trkpt>
      <trkpt lat="43.65053" lon="3.33464">
        <ele>141.7</ele>
        <time>2014-09-28T07:08:06Z</time>
      </trkpt>
      <trkpt lat="43.65054" lon="3.33456">
        <ele>141.5</ele>
        <time>2014-09-28T07:08:07Z</time>
      </trkpt>
      <trkpt lat="43.65056" lon="3.33448">
        <ele>141.4</ele>
        <time>2014-09-28T07:08:08Z</time>
      </trkpt>
      <trkpt lat="43.65058" lon="3.3344">
        <ele>141.3</ele>
        <time>2014-09-28T07:08:09Z</time>
      </trkpt>
      <trkpt lat="43.65058" lon="3.3344">
        <ele>141.3</ele>
        <time>2014-09-28T07:08:09Z</time>
      </trkpt>
      <trkpt lat="43.6506" lon="3.33431">
        <ele>141.2</ele>
        <time>2014-09-28T07:08:10Z</time>
      </trkpt>
      <trkpt lat="43.65063" lon="3.33423">
        <ele>141.1</ele>
        <time>2014-09-28T07:08:11Z</time>
      </trkpt>
      <trkpt lat="43.65066" lon="3.33415">
        <ele>141.1</ele>
        <time>2014-09-28T07:08:12Z</time>
      </trkpt>
      <trkpt lat="43.6507" lon="3.33408">
        <ele>141</ele>
        <time>2014-09-28T07:08:13Z</time>
      </trkpt>
      <trkpt lat="43.65073" lon="3.33401">
        <ele>141</ele>
        <time>2014-09-28T07:08:14Z</time>
      </trkpt>
      <trkpt lat="43.65075" lon="3.33394">
        <ele>141</ele>
        <time>2014-09-28T07:08:15Z</time>
      </trkpt>
      <trkpt lat="43.65076" lon="3.33385">
        <ele>141</ele>
        <time>2014-09-28T07:08:16Z</time>
      </trkpt>
      <trkpt lat="43.65075" lon="3.33377">
        <ele>141</ele>
        <time>2014-09-28T07:08:17Z</time>
      </trkpt>
      <trkpt lat="43.65073" lon="3.33371">
        <ele>141.1</ele>
        <time>2014-09-28T07:08:18Z</time>
      </trkpt>
      <trkpt lat="43.65067" lon="3.33366">
        <ele>141.1</ele>
        <time>2014-09-28T07:08:20Z</time>
      </trkpt>
      <trkpt lat="43.65061" lon="3.33364">
        <ele>141.1</ele>
        <time>2014-09-28T07:08:22Z</time>
      </trkpt>
      <trkpt lat="43.65054" lon="3.33361">
        <ele>141</ele>
        <time>2014-09-28T07:08:24Z</time>
      </trkpt>
      <trkpt lat="43.65048" lon="3.3336">
        <ele>140.9</ele>
        <time>2014-09-28T07:08:26Z</time>
      </trkpt>
      <trkpt lat="43.65044" lon="3.3336">
        <ele>140.8</ele>
        <time>2014-09-28T07:08:28Z</time>
      </trkpt>
      <trkpt lat="43.65038" lon="3.33359">
        <ele>140.7</ele>
        <time>2014-09-28T07:08:31Z</time>
      </trkpt>
      <trkpt lat="43.65033" lon="3.33361">
        <ele>140.5</ele>
        <time>2014-09-28T07:09:07Z</time>
      </trkpt>
      <trkpt lat="43.65023" lon="3.33361">
        <ele>140.1</ele>
        <time>2014-09-28T07:09:11Z</time>
      </trkpt>
      <trkpt lat="43.65017" lon="3.33361">
        <ele>139.9</ele>
        <time>2014-09-28T07:09:13Z</time>
      </trkpt>
      <trkpt lat="43.65012" lon="3.33361">
        <ele>139.7</ele>
        <time>2014-09-28T07:09:15Z</time>
      </trkpt>
      <trkpt lat="43.65007" lon="3.3336">
        <ele>139.5</ele>
        <time>2014-09-28T07:09:18Z</time>
      </trkpt>
      <trkpt lat="43.65002" lon="3.33359">
        <ele>139.3</ele>
        <time>2014-09-28T07:11:46Z</time>
      </trkpt>
      <trkpt lat="43.64996" lon="3.33359">
        <ele>139</ele>
        <time>2014-09-28T07:11:49Z</time>
      </trkpt>
      <trkpt lat="43.64989" lon="3.33358">
        <ele>138.8</ele>
        <time>2014-09-28T07:11:52Z</time>
      </trkpt>
      <trkpt lat="43.64984" lon="3.33356">
        <ele>138.5</ele>
        <time>2014-09-28T07:11:54Z</time>
      </trkpt>
      <trkpt lat="43.64979" lon="3.33354">
        <ele>138.3</ele>
        <time>2014-09-28T07:11:56Z</time>
      </trkpt>
      <trkpt lat="43.64974" lon="3.33352">
        <ele>138.1</ele>
        <time>2014-09-28T07:11:58Z</time>
      </trkpt>
      <trkpt lat="43.64969" lon="3.3335">
        <ele>137.8</ele>
        <time>2014-09-28T07:12:00Z</time>
      </trkpt>
      <trkpt lat="43.64964" lon="3.33348">
        <ele>137.6</ele>
        <time>2014-09-28T07:12:02Z</time>
      </trkpt>
      <trkpt lat="43.64958" lon="3.33345">
        <ele>137.3</ele>
        <time>2014-09-28T07:12:04Z</time>
      </trkpt>
      <trkpt lat="43.64951" lon="3.33341">
        <ele>137.4</ele>
        <time>2014-09-28T07:12:06Z</time>
      </trkpt>
      <trkpt lat="43.64944" lon="3.33337">
        <ele>137.6</ele>
        <time>2014-09-28T07:12:08Z</time>
      </trkpt>
      <trkpt lat="43.64935" lon="3.33334">
        <ele>137.9</ele>
        <time>2014-09-28T07:12:10Z</time>
      </trkpt>
      <trkpt lat="43.64927" lon="3.33331">
        <ele>138.1</ele>
        <time>2014-09-28T07:12:12Z</time>
      </trkpt>
      <trkpt lat="43.64919" lon="3.33328">
        <ele>138.3</ele>
        <time>2014-09-28T07:12:14Z</time>
      </trkpt>
      <trkpt lat="43.64912" lon="3.33325">
        <ele>138.5</ele>
        <time>2014-09-28T07:12:16Z</time>
      </trkpt>
      <trkpt lat="43.64904" lon="3.33321">
        <ele>138.7</ele>
        <time>2014-09-28T07:12:18Z</time>
      </trkpt>
      <trkpt lat="43.64896" lon="3.33318">
        <ele>138.9</ele>
        <time>2014-09-28T07:12:20Z</time>
      </trkpt>
      <trkpt lat="43.64888" lon="3.33315">
        <ele>139.1</ele>
        <time>2014-09-28T07:12:22Z</time>
      </trkpt>
      <trkpt lat="43.64881" lon="3.33311">
        <ele>139.3</ele>
        <time>2014-09-28T07:12:24Z</time>
      </trkpt>
      <trkpt lat="43.64873" lon="3.33308">
        <ele>139.5</ele>
        <time>2014-09-28T07:12:26Z</time>
      </trkpt>
      <trkpt lat="43.64866" lon="3.33304">
        <ele>139.8</ele>
        <time>2014-09-28T07:12:28Z</time>
      </trkpt>
      <trkpt lat="43.64858" lon="3.33301">
        <ele>140</ele>
        <time>2014-09-28T07:12:30Z</time>
      </trkpt>
      <trkpt lat="43.64851" lon="3.33297">
        <ele>140.3</ele>
        <time>2014-09-28T07:12:32Z</time>
      </trkpt>
      <trkpt lat="43.64844" lon="3.33292">
        <ele>140.5</ele>
        <time>2014-09-28T07:12:34Z</time>
      </trkpt>
      <trkpt lat="43.6484" lon="3.33285">
        <ele>140.5</ele>
        <time>2014-09-28T07:12:36Z</time>
      </trkpt>
      <trkpt lat="43.64836" lon="3.33275">
        <ele>140.3</ele>
        <time>2014-09-28T07:12:38Z</time>
      </trkpt>
      <trkpt lat="43.64834" lon="3.33263">
        <ele>140</ele>
        <time>2014-09-28T07:12:40Z</time>
      </trkpt>
      <trkpt lat="43.64833" lon="3.33257">
        <ele>139.8</ele>
        <time>2014-09-28T07:12:41Z</time>
      </trkpt>
      <trkpt lat="43.64831" lon="3.33246">
        <ele>139.4</ele>
        <time>2014-09-28T07:12:43Z</time>
      </trkpt>
      <trkpt lat="43.6483" lon="3.33235">
        <ele>139</ele>
        <time>2014-09-28T07:12:45Z</time>
      </trkpt>
      <trkpt lat="43.6483" lon="3.33223">
        <ele>138.6</ele>
        <time>2014-09-28T07:12:47Z</time>
      </trkpt>
      <trkpt lat="43.64829" lon="3.33212">
        <ele>138.2</ele>
        <time>2014-09-28T07:12:49Z</time>
      </trkpt>
      <trkpt lat="43.64829" lon="3.332">
        <ele>138.2</ele>
        <time>2014-09-28T07:12:51Z</time>
      </trkpt>
      <trkpt lat="43.64828" lon="3.33194">
        <ele>138.4</ele>
        <time>2014-09-28T07:12:52Z</time>
      </trkpt>
      <trkpt lat="43.64828" lon="3.33187">
        <ele>138.5</ele>
        <time>2014-09-28T07:12:53Z</time>
      </trkpt>
      <trkpt lat="43.64826" lon="3.3318">
        <ele>138.6</ele>
        <time>2014-09-28T07:12:54Z</time>
      </trkpt>
      <trkpt lat="43.64825" lon="3.33174">
        <ele>138.7</ele>
        <time>2014-09-28T07:12:55Z</time>
      </trkpt>
      <trkpt lat="43.64823" lon="3.33167">
        <ele>138.8</ele>
        <time>2014-09-28T07:12:56Z</time>
      </trkpt>
      <trkpt lat="43.64821" lon="3.3316">
        <ele>138.9</ele>
        <time>2014-09-28T07:12:57Z</time>
      </trkpt>
      <trkpt lat="43.64819" lon="3.33153">
        <ele>139</ele>
        <time>2014-09-28T07:12:58Z</time>
      </trkpt>
      <trkpt lat="43.64817" lon="3.33145">
        <ele>139.1</ele>
        <time>2014-09-28T07:12:59Z</time>
      </trkpt>
      <trkpt lat="43.64817" lon="3.33138">
        <ele>139.2</ele>
        <time>2014-09-28T07:13:00Z</time>
      </trkpt>
      <trkpt lat="43.64816" lon="3.33131">
        <ele>139.2</ele>
        <time>2014-09-28T07:13:01Z</time>
      </trkpt>
      <trkpt lat="43.64814" lon="3.33125">
        <ele>139.3</ele>
        <time>2014-09-28T07:13:02Z</time>
      </trkpt>
      <trkpt lat="43.64812" lon="3.33119">
        <ele>139.3</ele>
        <time>2014-09-28T07:13:03Z</time>
      </trkpt>
      <trkpt lat="43.64809" lon="3.33114">
        <ele>139.3</ele>
        <time>2014-09-28T07:13:04Z</time>
      </trkpt>
      <trkpt lat="43.64805" lon="3.33111">
        <ele>139.3</ele>
        <time>2014-09-28T07:13:05Z</time>
      </trkpt>
      <trkpt lat="43.64801" lon="3.33107">
        <ele>139.4</ele>
        <time>2014-09-28T07:13:06Z</time>
      </trkpt>
      <trkpt lat="43.64794" lon="3.331">
        <ele>139.6</ele>
        <time>2014-09-28T07:13:08Z</time>
      </trkpt>
      <trkpt lat="43.64789" lon="3.33096">
        <ele>139.7</ele>
        <time>2014-09-28T07:13:10Z</time>
      </trkpt>
      <trkpt lat="43.64784" lon="3.33094">
        <ele>139.8</ele>
        <time>2014-09-28T07:13:12Z</time>
      </trkpt>
      <trkpt lat="43.6478" lon="3.3309">
        <ele>140</ele>
        <time>2014-09-28T07:13:14Z</time>
      </trkpt>
      <trkpt lat="43.64779" lon="3.33083">
        <ele>140.1</ele>
        <time>2014-09-28T07:13:16Z</time>
      </trkpt>
      <trkpt lat="43.64778" lon="3.33075">
        <ele>140.2</ele>
        <time>2014-09-28T07:13:18Z</time>
      </trkpt>
      <trkpt lat="43.64776" lon="3.33068">
        <ele>140.4</ele>
        <time>2014-09-28T07:13:20Z</time>
      </trkpt>
      <trkpt lat="43.64773" lon="3.33063">
        <ele>140.4</ele>
        <time>2014-09-28T07:13:22Z</time>
      </trkpt>
      <trkpt lat="43.64769" lon="3.33059">
        <ele>140.5</ele>
        <time>2014-09-28T07:13:24Z</time>
      </trkpt>
      <trkpt lat="43.64764" lon="3.33053">
        <ele>140.5</ele>
        <time>2014-09-28T07:13:27Z</time>
      </trkpt>
      <trkpt lat="43.64759" lon="3.33046">
        <ele>140.6</ele>
        <time>2014-09-28T07:13:29Z</time>
      </trkpt>
      <trkpt lat="43.64755" lon="3.33039">
        <ele>140.5</ele>
        <time>2014-09-28T07:13:31Z</time>
      </trkpt>
      <trkpt lat="43.64749" lon="3.33033">
        <ele>140.4</ele>
        <time>2014-09-28T07:13:33Z</time>
      </trkpt>
      <trkpt lat="43.64743" lon="3.33025">
        <ele>140.2</ele>
        <time>2014-09-28T07:13:35Z</time>
      </trkpt>
      <trkpt lat="43.64741" lon="3.3302">
        <ele>140.1</ele>
        <time>2014-09-28T07:13:36Z</time>
      </trkpt>
      <trkpt lat="43.64738" lon="3.33014">
        <ele>140</ele>
        <time>2014-09-28T07:13:37Z</time>
      </trkpt>
      <trkpt lat="43.64734" lon="3.33009">
        <ele>139.9</ele>
        <time>2014-09-28T07:13:38Z</time>
      </trkpt>
      <trkpt lat="43.64731" lon="3.33005">
        <ele>139.8</ele>
        <time>2014-09-28T07:13:39Z</time>
      </trkpt>
      <trkpt lat="43.64727" lon="3.33">
        <ele>139.7</ele>
        <time>2014-09-28T07:13:40Z</time>
      </trkpt>
      <trkpt lat="43.64722" lon="3.32997">
        <ele>139.6</ele>
        <time>2014-09-28T07:13:41Z</time>
      </trkpt>
      <trkpt lat="43.64718" lon="3.32994">
        <ele>139.5</ele>
        <time>2014-09-28T07:13:42Z</time>
      </trkpt>
      <trkpt lat="43.64713" lon="3.32991">
        <ele>139.5</ele>
        <time>2014-09-28T07:13:43Z</time>
      </trkpt>
      <trkpt lat="43.64709" lon="3.3299">
        <ele>139.4</ele>
        <time>2014-09-28T07:13:44Z</time>
      </trkpt>
      <trkpt lat="43.64699" lon="3.32988">
        <ele>139.6</ele>
        <time>2014-09-28T07:13:46Z</time>
      </trkpt>
      <trkpt lat="43.64694" lon="3.32989">
        <ele>139.7</ele>
        <time>2014-09-28T07:13:47Z</time>
      </trkpt>
      <trkpt lat="43.6469" lon="3.32992">
        <ele>139.9</ele>
        <time>2014-09-28T07:13:48Z</time>
      </trkpt>
      <trkpt lat="43.64685" lon="3.32994">
        <ele>140</ele>
        <time>2014-09-28T07:13:49Z</time>
      </trkpt>
      <trkpt lat="43.6468" lon="3.32997">
        <ele>140.1</ele>
        <time>2014-09-28T07:13:50Z</time>
      </trkpt>
      <trkpt lat="43.64675" lon="3.33">
        <ele>140.3</ele>
        <time>2014-09-28T07:13:51Z</time>
      </trkpt>
      <trkpt lat="43.6467" lon="3.33002">
        <ele>140.4</ele>
        <time>2014-09-28T07:13:52Z</time>
      </trkpt>
      <trkpt lat="43.64665" lon="3.33004">
        <ele>140.6</ele>
        <time>2014-09-28T07:13:53Z</time>
      </trkpt>
      <trkpt lat="43.6466" lon="3.33006">
        <ele>140.7</ele>
        <time>2014-09-28T07:13:54Z</time>
      </trkpt>
      <trkpt lat="43.64652" lon="3.3301">
        <ele>141</ele>
        <time>2014-09-28T07:13:56Z</time>
      </trkpt>
      <trkpt lat="43.64647" lon="3.33012">
        <ele>141.1</ele>
        <time>2014-09-28T07:13:57Z</time>
      </trkpt>
      <trkpt lat="43.64639" lon="3.33012">
        <ele>141.3</ele>
        <time>2014-09-28T07:13:59Z</time>
      </trkpt>
      <trkpt lat="43.64634" lon="3.33011">
        <ele>141.4</ele>
        <time>2014-09-28T07:14:00Z</time>
      </trkpt>
      <trkpt lat="43.64627" lon="3.33013">
        <ele>141.6</ele>
        <time>2014-09-28T07:14:02Z</time>
      </trkpt>
      <trkpt lat="43.64621" lon="3.33016">
        <ele>141.9</ele>
        <time>2014-09-28T07:14:04Z</time>
      </trkpt>
      <trkpt lat="43.64616" lon="3.33014">
        <ele>142.2</ele>
        <time>2014-09-28T07:14:06Z</time>
      </trkpt>
      <trkpt lat="43.64611" lon="3.33008">
        <ele>142.4</ele>
        <time>2014-09-28T07:14:08Z</time>
      </trkpt>
      <trkpt lat="43.64605" lon="3.33003">
        <ele>142.6</ele>
        <time>2014-09-28T07:14:10Z</time>
      </trkpt>
      <trkpt lat="43.64598" lon="3.32999">
        <ele>142.9</ele>
        <time>2014-09-28T07:14:12Z</time>
      </trkpt>
      <trkpt lat="43.64592" lon="3.32992">
        <ele>143.1</ele>
        <time>2014-09-28T07:14:14Z</time>
      </trkpt>
      <trkpt lat="43.64584" lon="3.32987">
        <ele>143.3</ele>
        <time>2014-09-28T07:14:16Z</time>
      </trkpt>
      <trkpt lat="43.64578" lon="3.32983">
        <ele>143.5</ele>
        <time>2014-09-28T07:14:18Z</time>
      </trkpt>
      <trkpt lat="43.64571" lon="3.32978">
        <ele>143.6</ele>
        <time>2014-09-28T07:14:20Z</time>
      </trkpt>
      <trkpt lat="43.64567" lon="3.32972">
        <ele>143.6</ele>
        <time>2014-09-28T07:14:22Z</time>
      </trkpt>
      <trkpt lat="43.64563" lon="3.32964">
        <ele>143.5</ele>
        <time>2014-09-28T07:14:24Z</time>
      </trkpt>
      <trkpt lat="43.64559" lon="3.32956">
        <ele>143.2</ele>
        <time>2014-09-28T07:14:26Z</time>
      </trkpt>
      <trkpt lat="43.64554" lon="3.32948">
        <ele>142.9</ele>
        <time>2014-09-28T07:14:28Z</time>
      </trkpt>
      <trkpt lat="43.64551" lon="3.32941">
        <ele>142.5</ele>
        <time>2014-09-28T07:14:30Z</time>
      </trkpt>
      <trkpt lat="43.64548" lon="3.32935">
        <ele>142.2</ele>
        <time>2014-09-28T07:14:32Z</time>
      </trkpt>
      <trkpt lat="43.64543" lon="3.32928">
        <ele>141.8</ele>
        <time>2014-09-28T07:14:34Z</time>
      </trkpt>
      <trkpt lat="43.64538" lon="3.32924">
        <ele>141.7</ele>
        <time>2014-09-28T07:14:36Z</time>
      </trkpt>
      <trkpt lat="43.64532" lon="3.32919">
        <ele>141.6</ele>
        <time>2014-09-28T07:14:38Z</time>
      </trkpt>
      <trkpt lat="43.64527" lon="3.32912">
        <ele>141.3</ele>
        <time>2014-09-28T07:14:40Z</time>
      </trkpt>
      <trkpt lat="43.6452" lon="3.32905">
        <ele>141.2</ele>
        <time>2014-09-28T07:14:42Z</time>
      </trkpt>
      <trkpt lat="43.64516" lon="3.32901">
        <ele>141.1</ele>
        <time>2014-09-28T07:14:43Z</time>
      </trkpt>
      <trkpt lat="43.64513" lon="3.32896">
        <ele>141</ele>
        <time>2014-09-28T07:14:44Z</time>
      </trkpt>
      <trkpt lat="43.6451" lon="3.32891">
        <ele>140.8</ele>
        <time>2014-09-28T07:14:45Z</time>
      </trkpt>
      <trkpt lat="43.64507" lon="3.32886">
        <ele>140.7</ele>
        <time>2014-09-28T07:14:46Z</time>
      </trkpt>
      <trkpt lat="43.64504" lon="3.3288">
        <ele>140.5</ele>
        <time>2014-09-28T07:14:47Z</time>
      </trkpt>
      <trkpt lat="43.64501" lon="3.32874">
        <ele>140.4</ele>
        <time>2014-09-28T07:14:48Z</time>
      </trkpt>
      <trkpt lat="43.64497" lon="3.32868">
        <ele>140.5</ele>
        <time>2014-09-28T07:14:49Z</time>
      </trkpt>
      <trkpt lat="43.64494" lon="3.32862">
        <ele>140.6</ele>
        <time>2014-09-28T07:14:50Z</time>
      </trkpt>
      <trkpt lat="43.6449" lon="3.32857">
        <ele>140.7</ele>
        <time>2014-09-28T07:14:51Z</time>
      </trkpt>
      <trkpt lat="43.64487" lon="3.32852">
        <ele>140.8</ele>
        <time>2014-09-28T07:14:52Z</time>
      </trkpt>
      <trkpt lat="43.64484" lon="3.32848">
        <ele>140.9</ele>
        <time>2014-09-28T07:14:53Z</time>
      </trkpt>
      <trkpt lat="43.6448" lon="3.32844">
        <ele>141.1</ele>
        <time>2014-09-28T07:14:54Z</time>
      </trkpt>
      <trkpt lat="43.64476" lon="3.32841">
        <ele>141.2</ele>
        <time>2014-09-28T07:14:55Z</time>
      </trkpt>
      <trkpt lat="43.64469" lon="3.32836">
        <ele>141.5</ele>
        <time>2014-09-28T07:14:57Z</time>
      </trkpt>
      <trkpt lat="43.64463" lon="3.3283">
        <ele>141.6</ele>
        <time>2014-09-28T07:14:59Z</time>
      </trkpt>
      <trkpt lat="43.64461" lon="3.32823">
        <ele>141.6</ele>
        <time>2014-09-28T07:15:01Z</time>
      </trkpt>
      <trkpt lat="43.64458" lon="3.32817">
        <ele>141.6</ele>
        <time>2014-09-28T07:15:03Z</time>
      </trkpt>
      <trkpt lat="43.64458" lon="3.32811">
        <ele>141.5</ele>
        <time>2014-09-28T07:15:05Z</time>
      </trkpt>
      <trkpt lat="43.64456" lon="3.32806">
        <ele>141.4</ele>
        <time>2014-09-28T07:15:08Z</time>
      </trkpt>
      <trkpt lat="43.64452" lon="3.32798">
        <ele>141.3</ele>
        <time>2014-09-28T07:15:11Z</time>
      </trkpt>
      <trkpt lat="43.64448" lon="3.32793">
        <ele>141.3</ele>
        <time>2014-09-28T07:15:14Z</time>
      </trkpt>
      <trkpt lat="43.64443" lon="3.32791">
        <ele>141.4</ele>
        <time>2014-09-28T07:15:17Z</time>
      </trkpt>
      <trkpt lat="43.64437" lon="3.32789">
        <ele>141.5</ele>
        <time>2014-09-28T07:15:20Z</time>
      </trkpt>
      <trkpt lat="43.64432" lon="3.3279">
        <ele>141.7</ele>
        <time>2014-09-28T07:15:22Z</time>
      </trkpt>
      <trkpt lat="43.64427" lon="3.32791">
        <ele>141.8</ele>
        <time>2014-09-28T07:15:24Z</time>
      </trkpt>
      <trkpt lat="43.64422" lon="3.32792">
        <ele>141.9</ele>
        <time>2014-09-28T07:15:26Z</time>
      </trkpt>
      <trkpt lat="43.64418" lon="3.32793">
        <ele>142</ele>
        <time>2014-09-28T07:15:28Z</time>
      </trkpt>
      <trkpt lat="43.64413" lon="3.32794">
        <ele>142.1</ele>
        <time>2014-09-28T07:15:30Z</time>
      </trkpt>
      <trkpt lat="43.64408" lon="3.32793">
        <ele>142.2</ele>
        <time>2014-09-28T07:15:32Z</time>
      </trkpt>
      <trkpt lat="43.64404" lon="3.32791">
        <ele>142.3</ele>
        <time>2014-09-28T07:15:34Z</time>
      </trkpt>
      <trkpt lat="43.64399" lon="3.32789">
        <ele>142.5</ele>
        <time>2014-09-28T07:15:36Z</time>
      </trkpt>
      <trkpt lat="43.64394" lon="3.32785">
        <ele>142.6</ele>
        <time>2014-09-28T07:15:38Z</time>
      </trkpt>
      <trkpt lat="43.64389" lon="3.32779">
        <ele>142.8</ele>
        <time>2014-09-28T07:15:40Z</time>
      </trkpt>
      <trkpt lat="43.64383" lon="3.32775">
        <ele>143</ele>
        <time>2014-09-28T07:15:42Z</time>
      </trkpt>
      <trkpt lat="43.64376" lon="3.32773">
        <ele>143.2</ele>
        <time>2014-09-28T07:15:44Z</time>
      </trkpt>
      <trkpt lat="43.64368" lon="3.32773">
        <ele>143.4</ele>
        <time>2014-09-28T07:15:46Z</time>
      </trkpt>
      <trkpt lat="43.64361" lon="3.32771">
        <ele>143.5</ele>
        <time>2014-09-28T07:15:48Z</time>
      </trkpt>
      <trkpt lat="43.64354" lon="3.32768">
        <ele>143.6</ele>
        <time>2014-09-28T07:15:50Z</time>
      </trkpt>
      <trkpt lat="43.64347" lon="3.32765">
        <ele>143.8</ele>
        <time>2014-09-28T07:15:52Z</time>
      </trkpt>
      <trkpt lat="43.64339" lon="3.32763">
        <ele>143.9</ele>
        <time>2014-09-28T07:15:54Z</time>
      </trkpt>
      <trkpt lat="43.64331" lon="3.32765">
        <ele>144</ele>
        <time>2014-09-28T07:15:56Z</time>
      </trkpt>
      <trkpt lat="43.64325" lon="3.32772">
        <ele>144.1</ele>
        <time>2014-09-28T07:15:58Z</time>
      </trkpt>
      <trkpt lat="43.64321" lon="3.32779">
        <ele>144.3</ele>
        <time>2014-09-28T07:16:00Z</time>
      </trkpt>
      <trkpt lat="43.64315" lon="3.32781">
        <ele>144.4</ele>
        <time>2014-09-28T07:16:02Z</time>
      </trkpt>
      <trkpt lat="43.64309" lon="3.32779">
        <ele>144.5</ele>
        <time>2014-09-28T07:16:04Z</time>
      </trkpt>
      <trkpt lat="43.64305" lon="3.32773">
        <ele>144.5</ele>
        <time>2014-09-28T07:16:06Z</time>
      </trkpt>
      <trkpt lat="43.64302" lon="3.32765">
        <ele>144.5</ele>
        <time>2014-09-28T07:16:08Z</time>
      </trkpt>
      <trkpt lat="43.64298" lon="3.32759">
        <ele>144.5</ele>
        <time>2014-09-28T07:16:10Z</time>
      </trkpt>
      <trkpt lat="43.64298" lon="3.32759">
        <ele>144.5</ele>
        <time>2014-09-28T07:16:10Z</time>
      </trkpt>
      <trkpt lat="43.64291" lon="3.32757">
        <ele>144.6</ele>
        <time>2014-09-28T07:16:12Z</time>
      </trkpt>
      <trkpt lat="43.64286" lon="3.32755">
        <ele>144.7</ele>
        <time>2014-09-28T07:16:13Z</time>
      </trkpt>
      <trkpt lat="43.64282" lon="3.32751">
        <ele>144.8</ele>
        <time>2014-09-28T07:16:14Z</time>
      </trkpt>
      <trkpt lat="43.64277" lon="3.32747">
        <ele>144.8</ele>
        <time>2014-09-28T07:16:15Z</time>
      </trkpt>
      <trkpt lat="43.64273" lon="3.32745">
        <ele>144.9</ele>
        <time>2014-09-28T07:16:16Z</time>
      </trkpt>
      <trkpt lat="43.64266" lon="3.32743">
        <ele>145</ele>
        <time>2014-09-28T07:16:18Z</time>
      </trkpt>
      <trkpt lat="43.64259" lon="3.32741">
        <ele>145.2</ele>
        <time>2014-09-28T07:16:20Z</time>
      </trkpt>
      <trkpt lat="43.64253" lon="3.32736">
        <ele>145.3</ele>
        <time>2014-09-28T07:16:22Z</time>
      </trkpt>
      <trkpt lat="43.64248" lon="3.32731">
        <ele>145.3</ele>
        <time>2014-09-28T07:16:24Z</time>
      </trkpt>
      <trkpt lat="43.64242" lon="3.32729">
        <ele>145.4</ele>
        <time>2014-09-28T07:16:26Z</time>
      </trkpt>
      <trkpt lat="43.64236" lon="3.32727">
        <ele>145.6</ele>
        <time>2014-09-28T07:16:28Z</time>
      </trkpt>
      <trkpt lat="43.64231" lon="3.32724">
        <ele>145.7</ele>
        <time>2014-09-28T07:16:30Z</time>
      </trkpt>
      <trkpt lat="43.64225" lon="3.32721">
        <ele>145.7</ele>
        <time>2014-09-28T07:16:32Z</time>
      </trkpt>
      <trkpt lat="43.64221" lon="3.32721">
        <ele>145.9</ele>
        <time>2014-09-28T07:16:34Z</time>
      </trkpt>
      <trkpt lat="43.64217" lon="3.32723">
        <ele>146</ele>
        <time>2014-09-28T07:16:36Z</time>
      </trkpt>
      <trkpt lat="43.64211" lon="3.32725">
        <ele>146.1</ele>
        <time>2014-09-28T07:16:39Z</time>
      </trkpt>
      <trkpt lat="43.64208" lon="3.3272">
        <ele>146.1</ele>
        <time>2014-09-28T07:16:41Z</time>
      </trkpt>
      <trkpt lat="43.64205" lon="3.32713">
        <ele>146</ele>
        <time>2014-09-28T07:16:43Z</time>
      </trkpt>
      <trkpt lat="43.64201" lon="3.32707">
        <ele>145.8</ele>
        <time>2014-09-28T07:16:45Z</time>
      </trkpt>
      <trkpt lat="43.64196" lon="3.32702">
        <ele>145.5</ele>
        <time>2014-09-28T07:16:47Z</time>
      </trkpt>
      <trkpt lat="43.64193" lon="3.32696">
        <ele>145.3</ele>
        <time>2014-09-28T07:16:49Z</time>
      </trkpt>
      <trkpt lat="43.64191" lon="3.32689">
        <ele>145.1</ele>
        <time>2014-09-28T07:16:52Z</time>
      </trkpt>
      <trkpt lat="43.64192" lon="3.32683">
        <ele>145</ele>
        <time>2014-09-28T07:16:58Z</time>
      </trkpt>
      <trkpt lat="43.64195" lon="3.32678">
        <ele>144.9</ele>
        <time>2014-09-28T07:17:15Z</time>
      </trkpt>
      <trkpt lat="43.64195" lon="3.32671">
        <ele>144.8</ele>
        <time>2014-09-28T07:17:20Z</time>
      </trkpt>
      <trkpt lat="43.64194" lon="3.3266">
        <ele>144.5</ele>
        <time>2014-09-28T07:17:39Z</time>
      </trkpt>
      <trkpt lat="43.64192" lon="3.32654">
        <ele>144.3</ele>
        <time>2014-09-28T07:17:43Z</time>
      </trkpt>
      <trkpt lat="43.64188" lon="3.32649">
        <ele>144.1</ele>
        <time>2014-09-28T07:17:52Z</time>
      </trkpt>
      <trkpt lat="43.64188" lon="3.32641">
        <ele>143.9</ele>
        <time>2014-09-28T07:17:56Z</time>
      </trkpt>
      <trkpt lat="43.64191" lon="3.32634">
        <ele>143.8</ele>
        <time>2014-09-28T07:17:59Z</time>
      </trkpt>
      <trkpt lat="43.64195" lon="3.32629">
        <ele>143.8</ele>
        <time>2014-09-28T07:18:02Z</time>
      </trkpt>
      <trkpt lat="43.64197" lon="3.32622">
        <ele>143.7</ele>
        <time>2014-09-28T07:18:05Z</time>
      </trkpt>
      <trkpt lat="43.64196" lon="3.32614">
        <ele>143.5</ele>
        <time>2014-09-28T07:18:08Z</time>
      </trkpt>
      <trkpt lat="43.64196" lon="3.32607">
        <ele>143.3</ele>
        <time>2014-09-28T07:18:11Z</time>
      </trkpt>
      <trkpt lat="43.64198" lon="3.326">
        <ele>143.2</ele>
        <time>2014-09-28T07:18:15Z</time>
      </trkpt>
      <trkpt lat="43.642" lon="3.32594">
        <ele>143.1</ele>
        <time>2014-09-28T07:18:18Z</time>
      </trkpt>
      <trkpt lat="43.64201" lon="3.32587">
        <ele>143</ele>
        <time>2014-09-28T07:18:21Z</time>
      </trkpt>
      <trkpt lat="43.64204" lon="3.32578">
        <ele>142.8</ele>
        <time>2014-09-28T07:18:24Z</time>
      </trkpt>
      <trkpt lat="43.64206" lon="3.3257">
        <ele>142.7</ele>
        <time>2014-09-28T07:18:26Z</time>
      </trkpt>
      <trkpt lat="43.64208" lon="3.32563">
        <ele>142.5</ele>
        <time>2014-09-28T07:18:28Z</time>
      </trkpt>
      <trkpt lat="43.6421" lon="3.32555">
        <ele>142.3</ele>
        <time>2014-09-28T07:18:30Z</time>
      </trkpt>
      <trkpt lat="43.64212" lon="3.32546">
        <ele>142</ele>
        <time>2014-09-28T07:18:32Z</time>
      </trkpt>
      <trkpt lat="43.64215" lon="3.32538">
        <ele>141.9</ele>
        <time>2014-09-28T07:18:34Z</time>
      </trkpt>
      <trkpt lat="43.64216" lon="3.3253">
        <ele>142</ele>
        <time>2014-09-28T07:18:36Z</time>
      </trkpt>
      <trkpt lat="43.64219" lon="3.32521">
        <ele>142.1</ele>
        <time>2014-09-28T07:18:38Z</time>
      </trkpt>
      <trkpt lat="43.64221" lon="3.32512">
        <ele>142.2</ele>
        <time>2014-09-28T07:18:40Z</time>
      </trkpt>
      <trkpt lat="43.64223" lon="3.32505">
        <ele>142.3</ele>
        <time>2014-09-28T07:18:42Z</time>
      </trkpt>
      <trkpt lat="43.64225" lon="3.32498">
        <ele>142.4</ele>
        <time>2014-09-28T07:18:44Z</time>
      </trkpt>
      <trkpt lat="43.64228" lon="3.32492">
        <ele>142.6</ele>
        <time>2014-09-28T07:18:46Z</time>
      </trkpt>
      <trkpt lat="43.64231" lon="3.32487">
        <ele>142.7</ele>
        <time>2014-09-28T07:18:48Z</time>
      </trkpt>
      <trkpt lat="43.64234" lon="3.32481">
        <ele>142.8</ele>
        <time>2014-09-28T07:18:50Z</time>
      </trkpt>
      <trkpt lat="43.64236" lon="3.32475">
        <ele>142.9</ele>
        <time>2014-09-28T07:18:52Z</time>
      </trkpt>
      <trkpt lat="43.64238" lon="3.32469">
        <ele>143.1</ele>
        <time>2014-09-28T07:18:54Z</time>
      </trkpt>
      <trkpt lat="43.64241" lon="3.32463">
        <ele>143.3</ele>
        <time>2014-09-28T07:18:56Z</time>
      </trkpt>
      <trkpt lat="43.64242" lon="3.32457">
        <ele>143.5</ele>
        <time>2014-09-28T07:18:58Z</time>
      </trkpt>
      <trkpt lat="43.64244" lon="3.3245">
        <ele>143.9</ele>
        <time>2014-09-28T07:19:00Z</time>
      </trkpt>
      <trkpt lat="43.64247" lon="3.32442">
        <ele>144.4</ele>
        <time>2014-09-28T07:19:02Z</time>
      </trkpt>
      <trkpt lat="43.64251" lon="3.32435">
        <ele>144.8</ele>
        <time>2014-09-28T07:19:04Z</time>
      </trkpt>
      <trkpt lat="43.64253" lon="3.32427">
        <ele>145.2</ele>
        <time>2014-09-28T07:19:06Z</time>
      </trkpt>
      <trkpt lat="43.64255" lon="3.32419">
        <ele>145.6</ele>
        <time>2014-09-28T07:19:08Z</time>
      </trkpt>
      <trkpt lat="43.64257" lon="3.32411">
        <ele>146</ele>
        <time>2014-09-28T07:19:10Z</time>
      </trkpt>
      <trkpt lat="43.64258" lon="3.32403">
        <ele>146.4</ele>
        <time>2014-09-28T07:19:12Z</time>
      </trkpt>
      <trkpt lat="43.6426" lon="3.32395">
        <ele>146.8</ele>
        <time>2014-09-28T07:19:14Z</time>
      </trkpt>
      <trkpt lat="43.64263" lon="3.32387">
        <ele>147.1</ele>
        <time>2014-09-28T07:19:16Z</time>
      </trkpt>
      <trkpt lat="43.64268" lon="3.3238">
        <ele>147.4</ele>
        <time>2014-09-28T07:19:18Z</time>
      </trkpt>
      <trkpt lat="43.64272" lon="3.32373">
        <ele>147.6</ele>
        <time>2014-09-28T07:19:20Z</time>
      </trkpt>
      <trkpt lat="43.64277" lon="3.32367">
        <ele>147.9</ele>
        <time>2014-09-28T07:19:22Z</time>
      </trkpt>
      <trkpt lat="43.64281" lon="3.32361">
        <ele>148.3</ele>
        <time>2014-09-28T07:19:24Z</time>
      </trkpt>
      <trkpt lat="43.64287" lon="3.32354">
        <ele>148.6</ele>
        <time>2014-09-28T07:19:26Z</time>
      </trkpt>
      <trkpt lat="43.64292" lon="3.32347">
        <ele>149</ele>
        <time>2014-09-28T07:19:28Z</time>
      </trkpt>
      <trkpt lat="43.64297" lon="3.3234">
        <ele>149.2</ele>
        <time>2014-09-28T07:19:30Z</time>
      </trkpt>
      <trkpt lat="43.64301" lon="3.32333">
        <ele>149.5</ele>
        <time>2014-09-28T07:19:32Z</time>
      </trkpt>
      <trkpt lat="43.64305" lon="3.32325">
        <ele>149.8</ele>
        <time>2014-09-28T07:19:34Z</time>
      </trkpt>
      <trkpt lat="43.64309" lon="3.32316">
        <ele>150.1</ele>
        <time>2014-09-28T07:19:36Z</time>
      </trkpt>
      <trkpt lat="43.64313" lon="3.32306">
        <ele>150.6</ele>
        <time>2014-09-28T07:19:38Z</time>
      </trkpt>
      <trkpt lat="43.64314" lon="3.32295">
        <ele>151.2</ele>
        <time>2014-09-28T07:19:40Z</time>
      </trkpt>
      <trkpt lat="43.64316" lon="3.32283">
        <ele>151.5</ele>
        <time>2014-09-28T07:19:42Z</time>
      </trkpt>
      <trkpt lat="43.64316" lon="3.32277">
        <ele>151.6</ele>
        <time>2014-09-28T07:19:43Z</time>
      </trkpt>
      <trkpt lat="43.64316" lon="3.3227">
        <ele>151.7</ele>
        <time>2014-09-28T07:19:44Z</time>
      </trkpt>
      <trkpt lat="43.64316" lon="3.32264">
        <ele>151.9</ele>
        <time>2014-09-28T07:19:45Z</time>
      </trkpt>
      <trkpt lat="43.64316" lon="3.32258">
        <ele>152</ele>
        <time>2014-09-28T07:19:46Z</time>
      </trkpt>
      <trkpt lat="43.64316" lon="3.32251">
        <ele>152.2</ele>
        <time>2014-09-28T07:19:47Z</time>
      </trkpt>
      <trkpt lat="43.64316" lon="3.32245">
        <ele>152.4</ele>
        <time>2014-09-28T07:19:48Z</time>
      </trkpt>
      <trkpt lat="43.64317" lon="3.32239">
        <ele>152.4</ele>
        <time>2014-09-28T07:19:49Z</time>
      </trkpt>
      <trkpt lat="43.64318" lon="3.32227">
        <ele>152.6</ele>
        <time>2014-09-28T07:19:51Z</time>
      </trkpt>
      <trkpt lat="43.64319" lon="3.32221">
        <ele>152.8</ele>
        <time>2014-09-28T07:19:52Z</time>
      </trkpt>
      <trkpt lat="43.64319" lon="3.32214">
        <ele>152.9</ele>
        <time>2014-09-28T07:19:53Z</time>
      </trkpt>
      <trkpt lat="43.6432" lon="3.32207">
        <ele>152.9</ele>
        <time>2014-09-28T07:19:54Z</time>
      </trkpt>
      <trkpt lat="43.64321" lon="3.322">
        <ele>152.8</ele>
        <time>2014-09-28T07:19:55Z</time>
      </trkpt>
      <trkpt lat="43.64323" lon="3.32193">
        <ele>152.6</ele>
        <time>2014-09-28T07:19:56Z</time>
      </trkpt>
      <trkpt lat="43.64324" lon="3.32186">
        <ele>152.5</ele>
        <time>2014-09-28T07:19:57Z</time>
      </trkpt>
      <trkpt lat="43.64325" lon="3.32179">
        <ele>152.3</ele>
        <time>2014-09-28T07:19:58Z</time>
      </trkpt>
      <trkpt lat="43.64325" lon="3.32172">
        <ele>152.2</ele>
        <time>2014-09-28T07:19:59Z</time>
      </trkpt>
      <trkpt lat="43.64325" lon="3.32165">
        <ele>152.2</ele>
        <time>2014-09-28T07:20:00Z</time>
      </trkpt>
      <trkpt lat="43.64324" lon="3.32158">
        <ele>152.2</ele>
        <time>2014-09-28T07:20:01Z</time>
      </trkpt>
      <trkpt lat="43.64323" lon="3.3215">
        <ele>152.2</ele>
        <time>2014-09-28T07:20:02Z</time>
      </trkpt>
      <trkpt lat="43.64322" lon="3.32143">
        <ele>152.3</ele>
        <time>2014-09-28T07:20:03Z</time>
      </trkpt>
      <trkpt lat="43.64321" lon="3.32136">
        <ele>152.3</ele>
        <time>2014-09-28T07:20:04Z</time>
      </trkpt>
      <trkpt lat="43.64319" lon="3.32125">
        <ele>152.4</ele>
        <time>2014-09-28T07:20:06Z</time>
      </trkpt>
      <trkpt lat="43.64317" lon="3.32113">
        <ele>152.6</ele>
        <time>2014-09-28T07:20:08Z</time>
      </trkpt>
      <trkpt lat="43.64316" lon="3.32101">
        <ele>152.7</ele>
        <time>2014-09-28T07:20:10Z</time>
      </trkpt>
      <trkpt lat="43.64316" lon="3.32095">
        <ele>152.8</ele>
        <time>2014-09-28T07:20:11Z</time>
      </trkpt>
      <trkpt lat="43.64316" lon="3.32089">
        <ele>152.8</ele>
        <time>2014-09-28T07:20:12Z</time>
      </trkpt>
      <trkpt lat="43.64316" lon="3.32082">
        <ele>152.8</ele>
        <time>2014-09-28T07:20:13Z</time>
      </trkpt>
      <trkpt lat="43.64317" lon="3.32076">
        <ele>152.8</ele>
        <time>2014-09-28T07:20:14Z</time>
      </trkpt>
      <trkpt lat="43.64318" lon="3.3207">
        <ele>152.7</ele>
        <time>2014-09-28T07:20:15Z</time>
      </trkpt>
      <trkpt lat="43.64319" lon="3.32064">
        <ele>152.6</ele>
        <time>2014-09-28T07:20:16Z</time>
      </trkpt>
      <trkpt lat="43.64321" lon="3.32052">
        <ele>152.5</ele>
        <time>2014-09-28T07:20:18Z</time>
      </trkpt>
      <trkpt lat="43.64324" lon="3.32041">
        <ele>152.3</ele>
        <time>2014-09-28T07:20:20Z</time>
      </trkpt>
      <trkpt lat="43.64327" lon="3.32031">
        <ele>152.3</ele>
        <time>2014-09-28T07:20:22Z</time>
      </trkpt>
      <trkpt lat="43.64331" lon="3.32023">
        <ele>152</ele>
        <time>2014-09-28T07:20:24Z</time>
      </trkpt>
      <trkpt lat="43.64335" lon="3.32014">
        <ele>151.8</ele>
        <time>2014-09-28T07:20:26Z</time>
      </trkpt>
      <trkpt lat="43.64338" lon="3.32004">
        <ele>151.8</ele>
        <time>2014-09-28T07:20:28Z</time>
      </trkpt>
      <trkpt lat="43.64339" lon="3.31994">
        <ele>151.9</ele>
        <time>2014-09-28T07:20:30Z</time>
      </trkpt>
      <trkpt lat="43.6434" lon="3.31983">
        <ele>152.1</ele>
        <time>2014-09-28T07:20:32Z</time>
      </trkpt>
      <trkpt lat="43.64339" lon="3.31972">
        <ele>152.3</ele>
        <time>2014-09-28T07:20:34Z</time>
      </trkpt>
      <trkpt lat="43.64337" lon="3.31962">
        <ele>152.6</ele>
        <time>2014-09-28T07:20:36Z</time>
      </trkpt>
      <trkpt lat="43.64337" lon="3.31952">
        <ele>152.9</ele>
        <time>2014-09-28T07:20:38Z</time>
      </trkpt>
      <trkpt lat="43.64338" lon="3.31942">
        <ele>153.2</ele>
        <time>2014-09-28T07:20:40Z</time>
      </trkpt>
      <trkpt lat="43.64338" lon="3.31931">
        <ele>153.5</ele>
        <time>2014-09-28T07:20:42Z</time>
      </trkpt>
      <trkpt lat="43.64339" lon="3.3192">
        <ele>153.8</ele>
        <time>2014-09-28T07:20:44Z</time>
      </trkpt>
      <trkpt lat="43.64342" lon="3.3191">
        <ele>153.9</ele>
        <time>2014-09-28T07:20:46Z</time>
      </trkpt>
      <trkpt lat="43.64346" lon="3.319">
        <ele>154</ele>
        <time>2014-09-28T07:20:48Z</time>
      </trkpt>
      <trkpt lat="43.64348" lon="3.31894">
        <ele>154</ele>
        <time>2014-09-28T07:20:49Z</time>
      </trkpt>
      <trkpt lat="43.64351" lon="3.31883">
        <ele>154.2</ele>
        <time>2014-09-28T07:20:51Z</time>
      </trkpt>
      <trkpt lat="43.64354" lon="3.31872">
        <ele>154.4</ele>
        <time>2014-09-28T07:20:53Z</time>
      </trkpt>
      <trkpt lat="43.64356" lon="3.31866">
        <ele>154.5</ele>
        <time>2014-09-28T07:20:54Z</time>
      </trkpt>
      <trkpt lat="43.64358" lon="3.31861">
        <ele>154.6</ele>
        <time>2014-09-28T07:20:55Z</time>
      </trkpt>
      <trkpt lat="43.64362" lon="3.3185">
        <ele>154.9</ele>
        <time>2014-09-28T07:20:57Z</time>
      </trkpt>
      <trkpt lat="43.64365" lon="3.3184">
        <ele>155.2</ele>
        <time>2014-09-28T07:20:59Z</time>
      </trkpt>
      <trkpt lat="43.64368" lon="3.31831">
        <ele>155.5</ele>
        <time>2014-09-28T07:21:01Z</time>
      </trkpt>
      <trkpt lat="43.64371" lon="3.31822">
        <ele>155.7</ele>
        <time>2014-09-28T07:21:03Z</time>
      </trkpt>
      <trkpt lat="43.64375" lon="3.31811">
        <ele>156.1</ele>
        <time>2014-09-28T07:21:05Z</time>
      </trkpt>
      <trkpt lat="43.6438" lon="3.31802">
        <ele>156.2</ele>
        <time>2014-09-28T07:21:07Z</time>
      </trkpt>
      <trkpt lat="43.64384" lon="3.31794">
        <ele>156.3</ele>
        <time>2014-09-28T07:21:09Z</time>
      </trkpt>
      <trkpt lat="43.64385" lon="3.31785">
        <ele>156.5</ele>
        <time>2014-09-28T07:21:11Z</time>
      </trkpt>
      <trkpt lat="43.64384" lon="3.31777">
        <ele>156.9</ele>
        <time>2014-09-28T07:21:13Z</time>
      </trkpt>
      <trkpt lat="43.6438" lon="3.31772">
        <ele>157.3</ele>
        <time>2014-09-28T07:21:15Z</time>
      </trkpt>
      <trkpt lat="43.64376" lon="3.3177">
        <ele>157.8</ele>
        <time>2014-09-28T07:21:17Z</time>
      </trkpt>
      <trkpt lat="43.64371" lon="3.31768">
        <ele>158</ele>
        <time>2014-09-28T07:21:19Z</time>
      </trkpt>
      <trkpt lat="43.64366" lon="3.31765">
        <ele>158.3</ele>
        <time>2014-09-28T07:21:21Z</time>
      </trkpt>
      <trkpt lat="43.64363" lon="3.3176">
        <ele>158.6</ele>
        <time>2014-09-28T07:21:23Z</time>
      </trkpt>
      <trkpt lat="43.6436" lon="3.31754">
        <ele>158.9</ele>
        <time>2014-09-28T07:21:26Z</time>
      </trkpt>
      <trkpt lat="43.64358" lon="3.31748">
        <ele>159.2</ele>
        <time>2014-09-28T07:21:29Z</time>
      </trkpt>
      <trkpt lat="43.6436" lon="3.31742">
        <ele>159.4</ele>
        <time>2014-09-28T07:21:33Z</time>
      </trkpt>
      <trkpt lat="43.64362" lon="3.31734">
        <ele>159.6</ele>
        <time>2014-09-28T07:21:37Z</time>
      </trkpt>
      <trkpt lat="43.64364" lon="3.31726">
        <ele>159.8</ele>
        <time>2014-09-28T07:21:40Z</time>
      </trkpt>
      <trkpt lat="43.64366" lon="3.31718">
        <ele>160</ele>
        <time>2014-09-28T07:21:43Z</time>
      </trkpt>
      <trkpt lat="43.64369" lon="3.31712">
        <ele>160.1</ele>
        <time>2014-09-28T07:21:46Z</time>
      </trkpt>
      <trkpt lat="43.64369" lon="3.31705">
        <ele>160.4</ele>
        <time>2014-09-28T07:21:49Z</time>
      </trkpt>
      <trkpt lat="43.64373" lon="3.31701">
        <ele>160.4</ele>
        <time>2014-09-28T07:22:10Z</time>
      </trkpt>
      <trkpt lat="43.64376" lon="3.31696">
        <ele>160.6</ele>
        <time>2014-09-28T07:22:12Z</time>
      </trkpt>
      <trkpt lat="43.64379" lon="3.31684">
        <ele>160.8</ele>
        <time>2014-09-28T07:22:16Z</time>
      </trkpt>
      <trkpt lat="43.6438" lon="3.31677">
        <ele>160.9</ele>
        <time>2014-09-28T07:22:18Z</time>
      </trkpt>
      <trkpt lat="43.64381" lon="3.31669">
        <ele>161.3</ele>
        <time>2014-09-28T07:22:20Z</time>
      </trkpt>
      <trkpt lat="43.64382" lon="3.31661">
        <ele>161.6</ele>
        <time>2014-09-28T07:22:22Z</time>
      </trkpt>
      <trkpt lat="43.64383" lon="3.31653">
        <ele>161.8</ele>
        <time>2014-09-28T07:22:24Z</time>
      </trkpt>
      <trkpt lat="43.64384" lon="3.31645">
        <ele>162.1</ele>
        <time>2014-09-28T07:22:26Z</time>
      </trkpt>
      <trkpt lat="43.64384" lon="3.31636">
        <ele>162.5</ele>
        <time>2014-09-28T07:22:28Z</time>
      </trkpt>
      <trkpt lat="43.64385" lon="3.31625">
        <ele>162.9</ele>
        <time>2014-09-28T07:22:30Z</time>
      </trkpt>
      <trkpt lat="43.64387" lon="3.31615">
        <ele>162.9</ele>
        <time>2014-09-28T07:22:32Z</time>
      </trkpt>
      <trkpt lat="43.64389" lon="3.31606">
        <ele>162.8</ele>
        <time>2014-09-28T07:22:34Z</time>
      </trkpt>
      <trkpt lat="43.64392" lon="3.31596">
        <ele>162.7</ele>
        <time>2014-09-28T07:22:36Z</time>
      </trkpt>
      <trkpt lat="43.64394" lon="3.31586">
        <ele>162.6</ele>
        <time>2014-09-28T07:22:38Z</time>
      </trkpt>
      <trkpt lat="43.64396" lon="3.31576">
        <ele>162.4</ele>
        <time>2014-09-28T07:22:40Z</time>
      </trkpt>
      <trkpt lat="43.644" lon="3.31565">
        <ele>162.2</ele>
        <time>2014-09-28T07:22:42Z</time>
      </trkpt>
      <trkpt lat="43.64402" lon="3.31555">
        <ele>161.9</ele>
        <time>2014-09-28T07:22:44Z</time>
      </trkpt>
      <trkpt lat="43.64405" lon="3.31544">
        <ele>161.7</ele>
        <time>2014-09-28T07:22:46Z</time>
      </trkpt>
      <trkpt lat="43.64406" lon="3.31534">
        <ele>161.5</ele>
        <time>2014-09-28T07:22:48Z</time>
      </trkpt>
      <trkpt lat="43.64409" lon="3.31523">
        <ele>161.2</ele>
        <time>2014-09-28T07:22:50Z</time>
      </trkpt>
      <trkpt lat="43.64411" lon="3.31512">
        <ele>160.9</ele>
        <time>2014-09-28T07:22:52Z</time>
      </trkpt>
      <trkpt lat="43.64412" lon="3.31502">
        <ele>160.8</ele>
        <time>2014-09-28T07:22:54Z</time>
      </trkpt>
      <trkpt lat="43.64411" lon="3.31492">
        <ele>160.9</ele>
        <time>2014-09-28T07:22:56Z</time>
      </trkpt>
      <trkpt lat="43.64411" lon="3.31483">
        <ele>161</ele>
        <time>2014-09-28T07:22:58Z</time>
      </trkpt>
      <trkpt lat="43.6441" lon="3.31474">
        <ele>161.1</ele>
        <time>2014-09-28T07:23:00Z</time>
      </trkpt>
      <trkpt lat="43.64409" lon="3.31466">
        <ele>161.3</ele>
        <time>2014-09-28T07:23:02Z</time>
      </trkpt>
      <trkpt lat="43.64408" lon="3.31456">
        <ele>161.4</ele>
        <time>2014-09-28T07:23:04Z</time>
      </trkpt>
      <trkpt lat="43.64408" lon="3.31446">
        <ele>161.5</ele>
        <time>2014-09-28T07:23:06Z</time>
      </trkpt>
      <trkpt lat="43.64407" lon="3.31435">
        <ele>161.6</ele>
        <time>2014-09-28T07:23:08Z</time>
      </trkpt>
      <trkpt lat="43.64407" lon="3.31425">
        <ele>161.6</ele>
        <time>2014-09-28T07:23:10Z</time>
      </trkpt>
      <trkpt lat="43.64405" lon="3.31416">
        <ele>161.8</ele>
        <time>2014-09-28T07:23:12Z</time>
      </trkpt>
      <trkpt lat="43.64404" lon="3.31406">
        <ele>161.9</ele>
        <time>2014-09-28T07:23:14Z</time>
      </trkpt>
      <trkpt lat="43.64404" lon="3.31395">
        <ele>162</ele>
        <time>2014-09-28T07:23:16Z</time>
      </trkpt>
      <trkpt lat="43.64403" lon="3.31384">
        <ele>162</ele>
        <time>2014-09-28T07:23:18Z</time>
      </trkpt>
      <trkpt lat="43.64402" lon="3.31372">
        <ele>162.1</ele>
        <time>2014-09-28T07:23:20Z</time>
      </trkpt>
      <trkpt lat="43.64401" lon="3.31365">
        <ele>162.3</ele>
        <time>2014-09-28T07:23:21Z</time>
      </trkpt>
      <trkpt lat="43.644" lon="3.31359">
        <ele>162.5</ele>
        <time>2014-09-28T07:23:22Z</time>
      </trkpt>
      <trkpt lat="43.64399" lon="3.31352">
        <ele>162.6</ele>
        <time>2014-09-28T07:23:23Z</time>
      </trkpt>
      <trkpt lat="43.64398" lon="3.31345">
        <ele>162.7</ele>
        <time>2014-09-28T07:23:24Z</time>
      </trkpt>
      <trkpt lat="43.64396" lon="3.31334">
        <ele>163</ele>
        <time>2014-09-28T07:23:26Z</time>
      </trkpt>
      <trkpt lat="43.64392" lon="3.31324">
        <ele>163.4</ele>
        <time>2014-09-28T07:23:28Z</time>
      </trkpt>
      <trkpt lat="43.64388" lon="3.31315">
        <ele>163.8</ele>
        <time>2014-09-28T07:23:30Z</time>
      </trkpt>
      <trkpt lat="43.64384" lon="3.31306">
        <ele>164.2</ele>
        <time>2014-09-28T07:23:32Z</time>
      </trkpt>
      <trkpt lat="43.6438" lon="3.31298">
        <ele>164.6</ele>
        <time>2014-09-28T07:23:34Z</time>
      </trkpt>
      <trkpt lat="43.64376" lon="3.3129">
        <ele>164.9</ele>
        <time>2014-09-28T07:23:36Z</time>
      </trkpt>
      <trkpt lat="43.64372" lon="3.31282">
        <ele>165.1</ele>
        <time>2014-09-28T07:23:38Z</time>
      </trkpt>
      <trkpt lat="43.64369" lon="3.31274">
        <ele>165.2</ele>
        <time>2014-09-28T07:23:40Z</time>
      </trkpt>
      <trkpt lat="43.64365" lon="3.31267">
        <ele>165.4</ele>
        <time>2014-09-28T07:23:42Z</time>
      </trkpt>
      <trkpt lat="43.64361" lon="3.3126">
        <ele>165.6</ele>
        <time>2014-09-28T07:23:44Z</time>
      </trkpt>
      <trkpt lat="43.64357" lon="3.31251">
        <ele>165.8</ele>
        <time>2014-09-28T07:23:46Z</time>
      </trkpt>
      <trkpt lat="43.64354" lon="3.31244">
        <ele>166</ele>
        <time>2014-09-28T07:23:48Z</time>
      </trkpt>
      <trkpt lat="43.6435" lon="3.31236">
        <ele>166.2</ele>
        <time>2014-09-28T07:23:50Z</time>
      </trkpt>
      <trkpt lat="43.64347" lon="3.31228">
        <ele>166.4</ele>
        <time>2014-09-28T07:23:52Z</time>
      </trkpt>
      <trkpt lat="43.64344" lon="3.3122">
        <ele>166.6</ele>
        <time>2014-09-28T07:23:54Z</time>
      </trkpt>
      <trkpt lat="43.64341" lon="3.31213">
        <ele>166.9</ele>
        <time>2014-09-28T07:23:56Z</time>
      </trkpt>
      <trkpt lat="43.64338" lon="3.31205">
        <ele>167.1</ele>
        <time>2014-09-28T07:23:58Z</time>
      </trkpt>
      <trkpt lat="43.64335" lon="3.31196">
        <ele>167.3</ele>
        <time>2014-09-28T07:24:00Z</time>
      </trkpt>
      <trkpt lat="43.64332" lon="3.31187">
        <ele>167.5</ele>
        <time>2014-09-28T07:24:02Z</time>
      </trkpt>
      <trkpt lat="43.64329" lon="3.31177">
        <ele>167.7</ele>
        <time>2014-09-28T07:24:04Z</time>
      </trkpt>
      <trkpt lat="43.64325" lon="3.31168">
        <ele>168</ele>
        <time>2014-09-28T07:24:06Z</time>
      </trkpt>
      <trkpt lat="43.64323" lon="3.31158">
        <ele>168.2</ele>
        <time>2014-09-28T07:24:08Z</time>
      </trkpt>
      <trkpt lat="43.6432" lon="3.31148">
        <ele>168.4</ele>
        <time>2014-09-28T07:24:10Z</time>
      </trkpt>
      <trkpt lat="43.64317" lon="3.31137">
        <ele>168.6</ele>
        <time>2014-09-28T07:24:12Z</time>
      </trkpt>
      <trkpt lat="43.64315" lon="3.31126">
        <ele>168.8</ele>
        <time>2014-09-28T07:24:14Z</time>
      </trkpt>
      <trkpt lat="43.64312" lon="3.31115">
        <ele>169</ele>
        <time>2014-09-28T07:24:16Z</time>
      </trkpt>
      <trkpt lat="43.64309" lon="3.31104">
        <ele>169.3</ele>
        <time>2014-09-28T07:24:18Z</time>
      </trkpt>
      <trkpt lat="43.64305" lon="3.31093">
        <ele>169.6</ele>
        <time>2014-09-28T07:24:20Z</time>
      </trkpt>
      <trkpt lat="43.64302" lon="3.31081">
        <ele>170</ele>
        <time>2014-09-28T07:24:22Z</time>
      </trkpt>
      <trkpt lat="43.64299" lon="3.3107">
        <ele>170.3</ele>
        <time>2014-09-28T07:24:24Z</time>
      </trkpt>
      <trkpt lat="43.64296" lon="3.31059">
        <ele>170.6</ele>
        <time>2014-09-28T07:24:26Z</time>
      </trkpt>
      <trkpt lat="43.64293" lon="3.31048">
        <ele>170.9</ele>
        <time>2014-09-28T07:24:28Z</time>
      </trkpt>
      <trkpt lat="43.6429" lon="3.31037">
        <ele>171</ele>
        <time>2014-09-28T07:24:30Z</time>
      </trkpt>
      <trkpt lat="43.64287" lon="3.31026">
        <ele>170.7</ele>
        <time>2014-09-28T07:24:32Z</time>
      </trkpt>
      <trkpt lat="43.64284" lon="3.31016">
        <ele>170.5</ele>
        <time>2014-09-28T07:24:34Z</time>
      </trkpt>
      <trkpt lat="43.64282" lon="3.31006">
        <ele>170.4</ele>
        <time>2014-09-28T07:24:36Z</time>
      </trkpt>
      <trkpt lat="43.64279" lon="3.30997">
        <ele>170.3</ele>
        <time>2014-09-28T07:24:38Z</time>
      </trkpt>
      <trkpt lat="43.64277" lon="3.30987">
        <ele>170.2</ele>
        <time>2014-09-28T07:24:40Z</time>
      </trkpt>
      <trkpt lat="43.64275" lon="3.30978">
        <ele>170.1</ele>
        <time>2014-09-28T07:24:42Z</time>
      </trkpt>
      <trkpt lat="43.64275" lon="3.30967">
        <ele>169.7</ele>
        <time>2014-09-28T07:24:44Z</time>
      </trkpt>
      <trkpt lat="43.64275" lon="3.30955">
        <ele>169.5</ele>
        <time>2014-09-28T07:24:46Z</time>
      </trkpt>
      <trkpt lat="43.64275" lon="3.30948">
        <ele>169.6</ele>
        <time>2014-09-28T07:24:47Z</time>
      </trkpt>
      <trkpt lat="43.64275" lon="3.30942">
        <ele>169.7</ele>
        <time>2014-09-28T07:24:48Z</time>
      </trkpt>
      <trkpt lat="43.64275" lon="3.3093">
        <ele>169.9</ele>
        <time>2014-09-28T07:24:50Z</time>
      </trkpt>
      <trkpt lat="43.64275" lon="3.30918">
        <ele>170.2</ele>
        <time>2014-09-28T07:24:52Z</time>
      </trkpt>
      <trkpt lat="43.64275" lon="3.30912">
        <ele>170.3</ele>
        <time>2014-09-28T07:24:53Z</time>
      </trkpt>
      <trkpt lat="43.64275" lon="3.30906">
        <ele>170.5</ele>
        <time>2014-09-28T07:24:54Z</time>
      </trkpt>
      <trkpt lat="43.64275" lon="3.30899">
        <ele>170.6</ele>
        <time>2014-09-28T07:24:55Z</time>
      </trkpt>
      <trkpt lat="43.64275" lon="3.30892">
        <ele>170.7</ele>
        <time>2014-09-28T07:24:56Z</time>
      </trkpt>
      <trkpt lat="43.64274" lon="3.30881">
        <ele>171</ele>
        <time>2014-09-28T07:24:58Z</time>
      </trkpt>
      <trkpt lat="43.64274" lon="3.30869">
        <ele>171.1</ele>
        <time>2014-09-28T07:25:00Z</time>
      </trkpt>
      <trkpt lat="43.64274" lon="3.30857">
        <ele>171.2</ele>
        <time>2014-09-28T07:25:02Z</time>
      </trkpt>
      <trkpt lat="43.64273" lon="3.30845">
        <ele>171.4</ele>
        <time>2014-09-28T07:25:04Z</time>
      </trkpt>
      <trkpt lat="43.64271" lon="3.30834">
        <ele>171.6</ele>
        <time>2014-09-28T07:25:06Z</time>
      </trkpt>
      <trkpt lat="43.64267" lon="3.30824">
        <ele>172</ele>
        <time>2014-09-28T07:25:08Z</time>
      </trkpt>
      <trkpt lat="43.64263" lon="3.30816">
        <ele>172.4</ele>
        <time>2014-09-28T07:25:10Z</time>
      </trkpt>
      <trkpt lat="43.64259" lon="3.30808">
        <ele>172.8</ele>
        <time>2014-09-28T07:25:12Z</time>
      </trkpt>
      <trkpt lat="43.64255" lon="3.308">
        <ele>173.1</ele>
        <time>2014-09-28T07:25:14Z</time>
      </trkpt>
      <trkpt lat="43.64252" lon="3.30792">
        <ele>173.3</ele>
        <time>2014-09-28T07:25:16Z</time>
      </trkpt>
      <trkpt lat="43.64249" lon="3.30783">
        <ele>173.7</ele>
        <time>2014-09-28T07:25:18Z</time>
      </trkpt>
      <trkpt lat="43.64247" lon="3.30775">
        <ele>173.9</ele>
        <time>2014-09-28T07:25:20Z</time>
      </trkpt>
      <trkpt lat="43.64245" lon="3.30767">
        <ele>174.3</ele>
        <time>2014-09-28T07:25:22Z</time>
      </trkpt>
      <trkpt lat="43.64244" lon="3.30758">
        <ele>174.5</ele>
        <time>2014-09-28T07:25:24Z</time>
      </trkpt>
      <trkpt lat="43.64243" lon="3.30748">
        <ele>174.7</ele>
        <time>2014-09-28T07:25:26Z</time>
      </trkpt>
      <trkpt lat="43.64242" lon="3.30739">
        <ele>175</ele>
        <time>2014-09-28T07:25:28Z</time>
      </trkpt>
      <trkpt lat="43.64241" lon="3.30729">
        <ele>175.2</ele>
        <time>2014-09-28T07:25:30Z</time>
      </trkpt>
      <trkpt lat="43.6424" lon="3.30719">
        <ele>175.4</ele>
        <time>2014-09-28T07:25:32Z</time>
      </trkpt>
      <trkpt lat="43.64241" lon="3.3071">
        <ele>175.5</ele>
        <time>2014-09-28T07:25:34Z</time>
      </trkpt>
      <trkpt lat="43.64241" lon="3.30701">
        <ele>175.9</ele>
        <time>2014-09-28T07:25:36Z</time>
      </trkpt>
      <trkpt lat="43.64244" lon="3.30691">
        <ele>176.1</ele>
        <time>2014-09-28T07:25:38Z</time>
      </trkpt>
      <trkpt lat="43.64248" lon="3.30681">
        <ele>176.2</ele>
        <time>2014-09-28T07:25:40Z</time>
      </trkpt>
      <trkpt lat="43.64251" lon="3.30671">
        <ele>176.4</ele>
        <time>2014-09-28T07:25:42Z</time>
      </trkpt>
      <trkpt lat="43.6425" lon="3.3066">
        <ele>177.1</ele>
        <time>2014-09-28T07:25:44Z</time>
      </trkpt>
      <trkpt lat="43.64249" lon="3.30649">
        <ele>177.8</ele>
        <time>2014-09-28T07:25:46Z</time>
      </trkpt>
      <trkpt lat="43.64248" lon="3.3064">
        <ele>178.4</ele>
        <time>2014-09-28T07:25:48Z</time>
      </trkpt>
      <trkpt lat="43.64248" lon="3.30631">
        <ele>178.9</ele>
        <time>2014-09-28T07:25:50Z</time>
      </trkpt>
      <trkpt lat="43.64247" lon="3.30622">
        <ele>179.4</ele>
        <time>2014-09-28T07:25:52Z</time>
      </trkpt>
      <trkpt lat="43.64246" lon="3.30614">
        <ele>179.7</ele>
        <time>2014-09-28T07:25:54Z</time>
      </trkpt>
      <trkpt lat="43.64245" lon="3.30605">
        <ele>180.1</ele>
        <time>2014-09-28T07:25:56Z</time>
      </trkpt>
      <trkpt lat="43.64244" lon="3.30596">
        <ele>180.4</ele>
        <time>2014-09-28T07:25:58Z</time>
      </trkpt>
      <trkpt lat="43.64243" lon="3.30588">
        <ele>180.7</ele>
        <time>2014-09-28T07:26:00Z</time>
      </trkpt>
      <trkpt lat="43.64242" lon="3.3058">
        <ele>181.1</ele>
        <time>2014-09-28T07:26:02Z</time>
      </trkpt>
      <trkpt lat="43.64241" lon="3.30572">
        <ele>181.4</ele>
        <time>2014-09-28T07:26:04Z</time>
      </trkpt>
      <trkpt lat="43.6424" lon="3.30565">
        <ele>181.7</ele>
        <time>2014-09-28T07:26:06Z</time>
      </trkpt>
      <trkpt lat="43.6424" lon="3.30557">
        <ele>182</ele>
        <time>2014-09-28T07:26:08Z</time>
      </trkpt>
      <trkpt lat="43.64239" lon="3.3055">
        <ele>182.2</ele>
        <time>2014-09-28T07:26:10Z</time>
      </trkpt>
      <trkpt lat="43.64238" lon="3.30543">
        <ele>182.5</ele>
        <time>2014-09-28T07:26:12Z</time>
      </trkpt>
      <trkpt lat="43.64237" lon="3.30536">
        <ele>182.7</ele>
        <time>2014-09-28T07:26:14Z</time>
      </trkpt>
      <trkpt lat="43.64235" lon="3.30528">
        <ele>183</ele>
        <time>2014-09-28T07:26:16Z</time>
      </trkpt>
      <trkpt lat="43.64234" lon="3.30521">
        <ele>183.1</ele>
        <time>2014-09-28T07:26:18Z</time>
      </trkpt>
      <trkpt lat="43.64233" lon="3.30514">
        <ele>183.3</ele>
        <time>2014-09-28T07:26:20Z</time>
      </trkpt>
      <trkpt lat="43.64233" lon="3.30508">
        <ele>183.4</ele>
        <time>2014-09-28T07:26:22Z</time>
      </trkpt>
      <trkpt lat="43.64232" lon="3.305">
        <ele>183.5</ele>
        <time>2014-09-28T07:26:24Z</time>
      </trkpt>
      <trkpt lat="43.6423" lon="3.30493">
        <ele>183.7</ele>
        <time>2014-09-28T07:26:26Z</time>
      </trkpt>
      <trkpt lat="43.64228" lon="3.30486">
        <ele>183.8</ele>
        <time>2014-09-28T07:26:28Z</time>
      </trkpt>
      <trkpt lat="43.64227" lon="3.30479">
        <ele>183.9</ele>
        <time>2014-09-28T07:26:30Z</time>
      </trkpt>
      <trkpt lat="43.64225" lon="3.30471">
        <ele>183.9</ele>
        <time>2014-09-28T07:26:33Z</time>
      </trkpt>
      <trkpt lat="43.64224" lon="3.30464">
        <ele>184</ele>
        <time>2014-09-28T07:26:35Z</time>
      </trkpt>
      <trkpt lat="43.64224" lon="3.30458">
        <ele>184</ele>
        <time>2014-09-28T07:26:37Z</time>
      </trkpt>
      <trkpt lat="43.64224" lon="3.30451">
        <ele>184.3</ele>
        <time>2014-09-28T07:26:39Z</time>
      </trkpt>
      <trkpt lat="43.64224" lon="3.30445">
        <ele>184.7</ele>
        <time>2014-09-28T07:26:41Z</time>
      </trkpt>
      <trkpt lat="43.64224" lon="3.30438">
        <ele>184.9</ele>
        <time>2014-09-28T07:26:43Z</time>
      </trkpt>
      <trkpt lat="43.64223" lon="3.30432">
        <ele>185.2</ele>
        <time>2014-09-28T07:26:45Z</time>
      </trkpt>
      <trkpt lat="43.64223" lon="3.30426">
        <ele>185.5</ele>
        <time>2014-09-28T07:26:47Z</time>
      </trkpt>
      <trkpt lat="43.64222" lon="3.30419">
        <ele>185.8</ele>
        <time>2014-09-28T07:26:49Z</time>
      </trkpt>
      <trkpt lat="43.64221" lon="3.30413">
        <ele>186.1</ele>
        <time>2014-09-28T07:26:51Z</time>
      </trkpt>
      <trkpt lat="43.64221" lon="3.30406">
        <ele>186.4</ele>
        <time>2014-09-28T07:26:53Z</time>
      </trkpt>
      <trkpt lat="43.6422" lon="3.304">
        <ele>186.6</ele>
        <time>2014-09-28T07:26:55Z</time>
      </trkpt>
      <trkpt lat="43.6422" lon="3.30393">
        <ele>186.9</ele>
        <time>2014-09-28T07:26:57Z</time>
      </trkpt>
      <trkpt lat="43.6422" lon="3.30386">
        <ele>187.2</ele>
        <time>2014-09-28T07:26:59Z</time>
      </trkpt>
      <trkpt lat="43.64219" lon="3.3038">
        <ele>187.5</ele>
        <time>2014-09-28T07:27:01Z</time>
      </trkpt>
      <trkpt lat="43.64219" lon="3.30372">
        <ele>187.8</ele>
        <time>2014-09-28T07:27:03Z</time>
      </trkpt>
      <trkpt lat="43.6422" lon="3.30364">
        <ele>188.2</ele>
        <time>2014-09-28T07:27:05Z</time>
      </trkpt>
      <trkpt lat="43.64221" lon="3.30358">
        <ele>188.6</ele>
        <time>2014-09-28T07:27:07Z</time>
      </trkpt>
      <trkpt lat="43.64222" lon="3.30351">
        <ele>188.9</ele>
        <time>2014-09-28T07:27:09Z</time>
      </trkpt>
      <trkpt lat="43.64223" lon="3.30345">
        <ele>189.3</ele>
        <time>2014-09-28T07:27:11Z</time>
      </trkpt>
      <trkpt lat="43.64223" lon="3.30338">
        <ele>189.6</ele>
        <time>2014-09-28T07:27:13Z</time>
      </trkpt>
      <trkpt lat="43.64224" lon="3.30331">
        <ele>190</ele>
        <time>2014-09-28T07:27:15Z</time>
      </trkpt>
      <trkpt lat="43.64223" lon="3.30325">
        <ele>190.3</ele>
        <time>2014-09-28T07:27:17Z</time>
      </trkpt>
      <trkpt lat="43.64222" lon="3.30316">
        <ele>190.6</ele>
        <time>2014-09-28T07:27:20Z</time>
      </trkpt>
      <trkpt lat="43.6422" lon="3.3031">
        <ele>190.8</ele>
        <time>2014-09-28T07:27:22Z</time>
      </trkpt>
      <trkpt lat="43.64218" lon="3.30303">
        <ele>191.1</ele>
        <time>2014-09-28T07:27:24Z</time>
      </trkpt>
      <trkpt lat="43.64217" lon="3.30295">
        <ele>191.4</ele>
        <time>2014-09-28T07:27:26Z</time>
      </trkpt>
      <trkpt lat="43.64216" lon="3.30288">
        <ele>191.7</ele>
        <time>2014-09-28T07:27:28Z</time>
      </trkpt>
      <trkpt lat="43.64215" lon="3.3028">
        <ele>192</ele>
        <time>2014-09-28T07:27:30Z</time>
      </trkpt>
      <trkpt lat="43.64214" lon="3.30273">
        <ele>192.4</ele>
        <time>2014-09-28T07:27:32Z</time>
      </trkpt>
      <trkpt lat="43.64213" lon="3.30265">
        <ele>192.9</ele>
        <time>2014-09-28T07:27:34Z</time>
      </trkpt>
      <trkpt lat="43.64213" lon="3.30256">
        <ele>193.3</ele>
        <time>2014-09-28T07:27:36Z</time>
      </trkpt>
      <trkpt lat="43.64213" lon="3.30248">
        <ele>193.8</ele>
        <time>2014-09-28T07:27:38Z</time>
      </trkpt>
      <trkpt lat="43.64212" lon="3.30241">
        <ele>194.2</ele>
        <time>2014-09-28T07:27:40Z</time>
      </trkpt>
      <trkpt lat="43.64212" lon="3.30234">
        <ele>194.6</ele>
        <time>2014-09-28T07:27:42Z</time>
      </trkpt>
      <trkpt lat="43.64212" lon="3.30226">
        <ele>195</ele>
        <time>2014-09-28T07:27:44Z</time>
      </trkpt>
      <trkpt lat="43.64212" lon="3.30219">
        <ele>195.5</ele>
        <time>2014-09-28T07:27:46Z</time>
      </trkpt>
      <trkpt lat="43.64212" lon="3.30211">
        <ele>195.9</ele>
        <time>2014-09-28T07:27:48Z</time>
      </trkpt>
      <trkpt lat="43.64213" lon="3.30203">
        <ele>196.2</ele>
        <time>2014-09-28T07:27:50Z</time>
      </trkpt>
      <trkpt lat="43.64215" lon="3.30195">
        <ele>196.4</ele>
        <time>2014-09-28T07:27:52Z</time>
      </trkpt>
      <trkpt lat="43.64216" lon="3.30187">
        <ele>196.6</ele>
        <time>2014-09-28T07:27:54Z</time>
      </trkpt>
      <trkpt lat="43.64217" lon="3.30179">
        <ele>196.8</ele>
        <time>2014-09-28T07:27:56Z</time>
      </trkpt>
      <trkpt lat="43.64217" lon="3.3017">
        <ele>197</ele>
        <time>2014-09-28T07:27:58Z</time>
      </trkpt>
      <trkpt lat="43.64218" lon="3.30162">
        <ele>197.2</ele>
        <time>2014-09-28T07:28:00Z</time>
      </trkpt>
      <trkpt lat="43.64219" lon="3.30153">
        <ele>197.4</ele>
        <time>2014-09-28T07:28:02Z</time>
      </trkpt>
      <trkpt lat="43.64219" lon="3.30146">
        <ele>197.6</ele>
        <time>2014-09-28T07:28:04Z</time>
      </trkpt>
      <trkpt lat="43.64221" lon="3.30138">
        <ele>197.7</ele>
        <time>2014-09-28T07:28:06Z</time>
      </trkpt>
      <trkpt lat="43.64222" lon="3.3013">
        <ele>197.9</ele>
        <time>2014-09-28T07:28:08Z</time>
      </trkpt>
      <trkpt lat="43.64223" lon="3.30122">
        <ele>198</ele>
        <time>2014-09-28T07:28:10Z</time>
      </trkpt>
      <trkpt lat="43.64225" lon="3.30114">
        <ele>198.1</ele>
        <time>2014-09-28T07:28:12Z</time>
      </trkpt>
      <trkpt lat="43.64226" lon="3.30105">
        <ele>198.1</ele>
        <time>2014-09-28T07:28:14Z</time>
      </trkpt>
      <trkpt lat="43.64229" lon="3.30097">
        <ele>198.2</ele>
        <time>2014-09-28T07:28:16Z</time>
      </trkpt>
      <trkpt lat="43.64233" lon="3.30089">
        <ele>198.2</ele>
        <time>2014-09-28T07:28:18Z</time>
      </trkpt>
      <trkpt lat="43.64235" lon="3.30079">
        <ele>198.2</ele>
        <time>2014-09-28T07:28:20Z</time>
      </trkpt>
      <trkpt lat="43.64235" lon="3.3007">
        <ele>198.2</ele>
        <time>2014-09-28T07:28:22Z</time>
      </trkpt>
      <trkpt lat="43.64235" lon="3.3006">
        <ele>198.3</ele>
        <time>2014-09-28T07:28:24Z</time>
      </trkpt>
      <trkpt lat="43.64235" lon="3.3005">
        <ele>198.3</ele>
        <time>2014-09-28T07:28:26Z</time>
      </trkpt>
      <trkpt lat="43.64234" lon="3.3004">
        <ele>198.5</ele>
        <time>2014-09-28T07:28:28Z</time>
      </trkpt>
      <trkpt lat="43.64234" lon="3.3003">
        <ele>198.9</ele>
        <time>2014-09-28T07:28:30Z</time>
      </trkpt>
      <trkpt lat="43.64234" lon="3.30019">
        <ele>199.3</ele>
        <time>2014-09-28T07:28:32Z</time>
      </trkpt>
      <trkpt lat="43.64234" lon="3.30009">
        <ele>199.7</ele>
        <time>2014-09-28T07:28:34Z</time>
      </trkpt>
      <trkpt lat="43.64234" lon="3.3">
        <ele>200.1</ele>
        <time>2014-09-28T07:28:36Z</time>
      </trkpt>
      <trkpt lat="43.64233" lon="3.29991">
        <ele>200.4</ele>
        <time>2014-09-28T07:28:38Z</time>
      </trkpt>
      <trkpt lat="43.64232" lon="3.29983">
        <ele>200.8</ele>
        <time>2014-09-28T07:28:40Z</time>
      </trkpt>
      <trkpt lat="43.64231" lon="3.29974">
        <ele>201.1</ele>
        <time>2014-09-28T07:28:42Z</time>
      </trkpt>
      <trkpt lat="43.6423" lon="3.29964">
        <ele>201.5</ele>
        <time>2014-09-28T07:28:44Z</time>
      </trkpt>
      <trkpt lat="43.64229" lon="3.29954">
        <ele>201.9</ele>
        <time>2014-09-28T07:28:46Z</time>
      </trkpt>
      <trkpt lat="43.64228" lon="3.29944">
        <ele>202.2</ele>
        <time>2014-09-28T07:28:48Z</time>
      </trkpt>
      <trkpt lat="43.64226" lon="3.29935">
        <ele>202.5</ele>
        <time>2014-09-28T07:28:50Z</time>
      </trkpt>
      <trkpt lat="43.64225" lon="3.29926">
        <ele>202.7</ele>
        <time>2014-09-28T07:28:52Z</time>
      </trkpt>
      <trkpt lat="43.64224" lon="3.29917">
        <ele>203</ele>
        <time>2014-09-28T07:28:54Z</time>
      </trkpt>
      <trkpt lat="43.64222" lon="3.29908">
        <ele>203.2</ele>
        <time>2014-09-28T07:28:56Z</time>
      </trkpt>
      <trkpt lat="43.64221" lon="3.299">
        <ele>203.5</ele>
        <time>2014-09-28T07:28:58Z</time>
      </trkpt>
      <trkpt lat="43.64221" lon="3.29891">
        <ele>203.7</ele>
        <time>2014-09-28T07:29:00Z</time>
      </trkpt>
      <trkpt lat="43.64221" lon="3.29883">
        <ele>203.9</ele>
        <time>2014-09-28T07:29:02Z</time>
      </trkpt>
      <trkpt lat="43.64221" lon="3.29874">
        <ele>204.2</ele>
        <time>2014-09-28T07:29:04Z</time>
      </trkpt>
      <trkpt lat="43.64222" lon="3.29866">
        <ele>204.4</ele>
        <time>2014-09-28T07:29:06Z</time>
      </trkpt>
      <trkpt lat="43.64222" lon="3.29857">
        <ele>204.7</ele>
        <time>2014-09-28T07:29:08Z</time>
      </trkpt>
      <trkpt lat="43.64222" lon="3.29849">
        <ele>204.9</ele>
        <time>2014-09-28T07:29:10Z</time>
      </trkpt>
      <trkpt lat="43.64221" lon="3.29841">
        <ele>205.1</ele>
        <time>2014-09-28T07:29:12Z</time>
      </trkpt>
      <trkpt lat="43.64221" lon="3.29833">
        <ele>205.3</ele>
        <time>2014-09-28T07:29:14Z</time>
      </trkpt>
      <trkpt lat="43.6422" lon="3.29825">
        <ele>205.5</ele>
        <time>2014-09-28T07:29:16Z</time>
      </trkpt>
      <trkpt lat="43.64218" lon="3.29817">
        <ele>205.7</ele>
        <time>2014-09-28T07:29:18Z</time>
      </trkpt>
      <trkpt lat="43.64214" lon="3.2981">
        <ele>205.7</ele>
        <time>2014-09-28T07:29:20Z</time>
      </trkpt>
      <trkpt lat="43.64209" lon="3.29804">
        <ele>205.7</ele>
        <time>2014-09-28T07:29:22Z</time>
      </trkpt>
      <trkpt lat="43.64203" lon="3.29799">
        <ele>205.9</ele>
        <time>2014-09-28T07:29:24Z</time>
      </trkpt>
      <trkpt lat="43.64199" lon="3.29791">
        <ele>206.2</ele>
        <time>2014-09-28T07:29:26Z</time>
      </trkpt>
      <trkpt lat="43.64196" lon="3.29782">
        <ele>206.6</ele>
        <time>2014-09-28T07:29:28Z</time>
      </trkpt>
      <trkpt lat="43.64193" lon="3.29772">
        <ele>207.1</ele>
        <time>2014-09-28T07:29:30Z</time>
      </trkpt>
      <trkpt lat="43.64191" lon="3.29764">
        <ele>207.5</ele>
        <time>2014-09-28T07:29:32Z</time>
      </trkpt>
      <trkpt lat="43.6419" lon="3.29755">
        <ele>207.9</ele>
        <time>2014-09-28T07:29:34Z</time>
      </trkpt>
      <trkpt lat="43.64191" lon="3.29746">
        <ele>208.3</ele>
        <time>2014-09-28T07:29:36Z</time>
      </trkpt>
      <trkpt lat="43.64193" lon="3.29738">
        <ele>208.6</ele>
        <time>2014-09-28T07:29:38Z</time>
      </trkpt>
      <trkpt lat="43.64196" lon="3.29731">
        <ele>208.9</ele>
        <time>2014-09-28T07:29:40Z</time>
      </trkpt>
      <trkpt lat="43.642" lon="3.29724">
        <ele>209.3</ele>
        <time>2014-09-28T07:29:43Z</time>
      </trkpt>
      <trkpt lat="43.64202" lon="3.29718">
        <ele>209.6</ele>
        <time>2014-09-28T07:29:45Z</time>
      </trkpt>
      <trkpt lat="43.64203" lon="3.2971">
        <ele>209.9</ele>
        <time>2014-09-28T07:29:47Z</time>
      </trkpt>
      <trkpt lat="43.64204" lon="3.29702">
        <ele>210.2</ele>
        <time>2014-09-28T07:29:49Z</time>
      </trkpt>
      <trkpt lat="43.64206" lon="3.29695">
        <ele>210.5</ele>
        <time>2014-09-28T07:29:51Z</time>
      </trkpt>
      <trkpt lat="43.64207" lon="3.29688">
        <ele>210.7</ele>
        <time>2014-09-28T07:29:53Z</time>
      </trkpt>
      <trkpt lat="43.64207" lon="3.29681">
        <ele>211</ele>
        <time>2014-09-28T07:29:55Z</time>
      </trkpt>
      <trkpt lat="43.64207" lon="3.29674">
        <ele>211.2</ele>
        <time>2014-09-28T07:29:57Z</time>
      </trkpt>
      <trkpt lat="43.64206" lon="3.29668">
        <ele>211.4</ele>
        <time>2014-09-28T07:29:59Z</time>
      </trkpt>
      <trkpt lat="43.64205" lon="3.29661">
        <ele>211.7</ele>
        <time>2014-09-28T07:30:01Z</time>
      </trkpt>
      <trkpt lat="43.64204" lon="3.29654">
        <ele>211.9</ele>
        <time>2014-09-28T07:30:03Z</time>
      </trkpt>
      <trkpt lat="43.64203" lon="3.29647">
        <ele>212.1</ele>
        <time>2014-09-28T07:30:05Z</time>
      </trkpt>
      <trkpt lat="43.64202" lon="3.29641">
        <ele>212.3</ele>
        <time>2014-09-28T07:30:07Z</time>
      </trkpt>
      <trkpt lat="43.64201" lon="3.29635">
        <ele>212.5</ele>
        <time>2014-09-28T07:30:09Z</time>
      </trkpt>
      <trkpt lat="43.642" lon="3.29626">
        <ele>212.7</ele>
        <time>2014-09-28T07:30:12Z</time>
      </trkpt>
      <trkpt lat="43.64199" lon="3.29618">
        <ele>213</ele>
        <time>2014-09-28T07:30:15Z</time>
      </trkpt>
      <trkpt lat="43.64198" lon="3.29609">
        <ele>213.3</ele>
        <time>2014-09-28T07:30:18Z</time>
      </trkpt>
      <trkpt lat="43.64198" lon="3.29602">
        <ele>213.6</ele>
        <time>2014-09-28T07:30:20Z</time>
      </trkpt>
      <trkpt lat="43.64197" lon="3.29593">
        <ele>213.9</ele>
        <time>2014-09-28T07:30:23Z</time>
      </trkpt>
      <trkpt lat="43.64196" lon="3.29585">
        <ele>214.1</ele>
        <time>2014-09-28T07:30:26Z</time>
      </trkpt>
      <trkpt lat="43.64195" lon="3.29577">
        <ele>214.4</ele>
        <time>2014-09-28T07:30:29Z</time>
      </trkpt>
      <trkpt lat="43.64193" lon="3.29568">
        <ele>214.7</ele>
        <time>2014-09-28T07:30:32Z</time>
      </trkpt>
      <trkpt lat="43.64192" lon="3.2956">
        <ele>214.9</ele>
        <time>2014-09-28T07:30:34Z</time>
      </trkpt>
      <trkpt lat="43.64193" lon="3.29551">
        <ele>215.3</ele>
        <time>2014-09-28T07:30:36Z</time>
      </trkpt>
      <trkpt lat="43.64193" lon="3.29544">
        <ele>215.6</ele>
        <time>2014-09-28T07:30:38Z</time>
      </trkpt>
      <trkpt lat="43.64193" lon="3.29536">
        <ele>215.9</ele>
        <time>2014-09-28T07:30:40Z</time>
      </trkpt>
      <trkpt lat="43.64192" lon="3.2953">
        <ele>216.1</ele>
        <time>2014-09-28T07:30:42Z</time>
      </trkpt>
      <trkpt lat="43.64192" lon="3.29523">
        <ele>216.4</ele>
        <time>2014-09-28T07:30:44Z</time>
      </trkpt>
      <trkpt lat="43.64193" lon="3.29516">
        <ele>216.7</ele>
        <time>2014-09-28T07:30:46Z</time>
      </trkpt>
      <trkpt lat="43.64192" lon="3.29509">
        <ele>217</ele>
        <time>2014-09-28T07:30:48Z</time>
      </trkpt>
      <trkpt lat="43.64192" lon="3.29501">
        <ele>217.4</ele>
        <time>2014-09-28T07:30:50Z</time>
      </trkpt>
      <trkpt lat="43.6419" lon="3.29494">
        <ele>217.6</ele>
        <time>2014-09-28T07:30:52Z</time>
      </trkpt>
      <trkpt lat="43.64188" lon="3.29485">
        <ele>217.9</ele>
        <time>2014-09-28T07:30:54Z</time>
      </trkpt>
      <trkpt lat="43.64185" lon="3.29476">
        <ele>218.1</ele>
        <time>2014-09-28T07:30:56Z</time>
      </trkpt>
      <trkpt lat="43.64181" lon="3.29466">
        <ele>218.4</ele>
        <time>2014-09-28T07:30:58Z</time>
      </trkpt>
      <trkpt lat="43.64178" lon="3.29456">
        <ele>218.6</ele>
        <time>2014-09-28T07:31:00Z</time>
      </trkpt>
      <trkpt lat="43.64177" lon="3.29446">
        <ele>218.7</ele>
        <time>2014-09-28T07:31:02Z</time>
      </trkpt>
      <trkpt lat="43.64175" lon="3.29436">
        <ele>218.7</ele>
        <time>2014-09-28T07:31:04Z</time>
      </trkpt>
      <trkpt lat="43.64174" lon="3.29427">
        <ele>218.8</ele>
        <time>2014-09-28T07:31:06Z</time>
      </trkpt>
      <trkpt lat="43.64173" lon="3.29419">
        <ele>218.8</ele>
        <time>2014-09-28T07:31:08Z</time>
      </trkpt>
      <trkpt lat="43.64171" lon="3.2941">
        <ele>218.8</ele>
        <time>2014-09-28T07:31:10Z</time>
      </trkpt>
      <trkpt lat="43.64169" lon="3.29402">
        <ele>218.8</ele>
        <time>2014-09-28T07:31:12Z</time>
      </trkpt>
      <trkpt lat="43.64168" lon="3.29395">
        <ele>218.9</ele>
        <time>2014-09-28T07:31:14Z</time>
      </trkpt>
      <trkpt lat="43.64168" lon="3.29387">
        <ele>218.9</ele>
        <time>2014-09-28T07:31:16Z</time>
      </trkpt>
      <trkpt lat="43.64168" lon="3.29379">
        <ele>219</ele>
        <time>2014-09-28T07:31:18Z</time>
      </trkpt>
      <trkpt lat="43.64168" lon="3.29371">
        <ele>219.2</ele>
        <time>2014-09-28T07:31:20Z</time>
      </trkpt>
      <trkpt lat="43.64168" lon="3.29363">
        <ele>219.5</ele>
        <time>2014-09-28T07:31:22Z</time>
      </trkpt>
      <trkpt lat="43.64169" lon="3.29356">
        <ele>219.9</ele>
        <time>2014-09-28T07:31:24Z</time>
      </trkpt>
      <trkpt lat="43.64169" lon="3.29348">
        <ele>220.1</ele>
        <time>2014-09-28T07:31:26Z</time>
      </trkpt>
      <trkpt lat="43.64169" lon="3.29339">
        <ele>220.5</ele>
        <time>2014-09-28T07:31:28Z</time>
      </trkpt>
      <trkpt lat="43.64167" lon="3.29331">
        <ele>220.6</ele>
        <time>2014-09-28T07:31:30Z</time>
      </trkpt>
      <trkpt lat="43.64166" lon="3.29323">
        <ele>220.8</ele>
        <time>2014-09-28T07:31:32Z</time>
      </trkpt>
      <trkpt lat="43.64165" lon="3.29315">
        <ele>221</ele>
        <time>2014-09-28T07:31:34Z</time>
      </trkpt>
      <trkpt lat="43.64164" lon="3.29307">
        <ele>221.2</ele>
        <time>2014-09-28T07:31:36Z</time>
      </trkpt>
      <trkpt lat="43.64163" lon="3.29298">
        <ele>221.4</ele>
        <time>2014-09-28T07:31:38Z</time>
      </trkpt>
      <trkpt lat="43.64162" lon="3.29291">
        <ele>221.5</ele>
        <time>2014-09-28T07:31:40Z</time>
      </trkpt>
      <trkpt lat="43.64161" lon="3.29283">
        <ele>221.1</ele>
        <time>2014-09-28T07:31:42Z</time>
      </trkpt>
      <trkpt lat="43.6416" lon="3.29274">
        <ele>220.8</ele>
        <time>2014-09-28T07:31:44Z</time>
      </trkpt>
      <trkpt lat="43.64159" lon="3.29265">
        <ele>220.4</ele>
        <time>2014-09-28T07:31:46Z</time>
      </trkpt>
      <trkpt lat="43.64158" lon="3.29255">
        <ele>220.1</ele>
        <time>2014-09-28T07:31:48Z</time>
      </trkpt>
      <trkpt lat="43.64159" lon="3.29245">
        <ele>219.8</ele>
        <time>2014-09-28T07:31:50Z</time>
      </trkpt>
      <trkpt lat="43.64159" lon="3.29235">
        <ele>219.5</ele>
        <time>2014-09-28T07:31:52Z</time>
      </trkpt>
      <trkpt lat="43.6416" lon="3.29225">
        <ele>219.3</ele>
        <time>2014-09-28T07:31:54Z</time>
      </trkpt>
      <trkpt lat="43.64161" lon="3.29214">
        <ele>219</ele>
        <time>2014-09-28T07:31:56Z</time>
      </trkpt>
      <trkpt lat="43.64162" lon="3.29203">
        <ele>218.6</ele>
        <time>2014-09-28T07:31:58Z</time>
      </trkpt>
      <trkpt lat="43.64164" lon="3.29193">
        <ele>218</ele>
        <time>2014-09-28T07:32:00Z</time>
      </trkpt>
      <trkpt lat="43.64164" lon="3.29181">
        <ele>217.1</ele>
        <time>2014-09-28T07:32:02Z</time>
      </trkpt>
      <trkpt lat="43.64163" lon="3.2917">
        <ele>216</ele>
        <time>2014-09-28T07:32:04Z</time>
      </trkpt>
      <trkpt lat="43.64161" lon="3.29159">
        <ele>214.9</ele>
        <time>2014-09-28T07:32:06Z</time>
      </trkpt>
      <trkpt lat="43.6416" lon="3.29152">
        <ele>214.3</ele>
        <time>2014-09-28T07:32:07Z</time>
      </trkpt>
      <trkpt lat="43.64161" lon="3.29142">
        <ele>213.5</ele>
        <time>2014-09-28T07:32:09Z</time>
      </trkpt>
      <trkpt lat="43.64159" lon="3.29135">
        <ele>212.7</ele>
        <time>2014-09-28T07:32:11Z</time>
      </trkpt>
      <trkpt lat="43.64155" lon="3.29128">
        <ele>211.6</ele>
        <time>2014-09-28T07:32:13Z</time>
      </trkpt>
      <trkpt lat="43.64152" lon="3.29121">
        <ele>210.8</ele>
        <time>2014-09-28T07:32:15Z</time>
      </trkpt>
      <trkpt lat="43.64148" lon="3.29113">
        <ele>210</ele>
        <time>2014-09-28T07:32:17Z</time>
      </trkpt>
      <trkpt lat="43.64143" lon="3.29106">
        <ele>209.2</ele>
        <time>2014-09-28T07:32:19Z</time>
      </trkpt>
      <trkpt lat="43.64139" lon="3.29098">
        <ele>208.6</ele>
        <time>2014-09-28T07:32:21Z</time>
      </trkpt>
      <trkpt lat="43.64135" lon="3.2909">
        <ele>208.1</ele>
        <time>2014-09-28T07:32:23Z</time>
      </trkpt>
      <trkpt lat="43.64131" lon="3.29084">
        <ele>207.6</ele>
        <time>2014-09-28T07:32:25Z</time>
      </trkpt>
      <trkpt lat="43.64128" lon="3.29079">
        <ele>207.3</ele>
        <time>2014-09-28T07:32:27Z</time>
      </trkpt>
      <trkpt lat="43.64125" lon="3.29073">
        <ele>207</ele>
        <time>2014-09-28T07:32:29Z</time>
      </trkpt>
      <trkpt lat="43.64121" lon="3.29067">
        <ele>207</ele>
        <time>2014-09-28T07:32:31Z</time>
      </trkpt>
      <trkpt lat="43.64119" lon="3.2906">
        <ele>207</ele>
        <time>2014-09-28T07:32:33Z</time>
      </trkpt>
      <trkpt lat="43.64118" lon="3.29052">
        <ele>207</ele>
        <time>2014-09-28T07:32:35Z</time>
      </trkpt>
      <trkpt lat="43.64119" lon="3.29046">
        <ele>207.1</ele>
        <time>2014-09-28T07:32:37Z</time>
      </trkpt>
      <trkpt lat="43.6412" lon="3.29038">
        <ele>207.5</ele>
        <time>2014-09-28T07:32:40Z</time>
      </trkpt>
      <trkpt lat="43.64121" lon="3.29031">
        <ele>208.2</ele>
        <time>2014-09-28T07:32:42Z</time>
      </trkpt>
      <trkpt lat="43.64121" lon="3.29023">
        <ele>209</ele>
        <time>2014-09-28T07:32:44Z</time>
      </trkpt>
      <trkpt lat="43.64123" lon="3.29015">
        <ele>209.9</ele>
        <time>2014-09-28T07:32:46Z</time>
      </trkpt>
      <trkpt lat="43.64126" lon="3.29007">
        <ele>210.7</ele>
        <time>2014-09-28T07:32:48Z</time>
      </trkpt>
      <trkpt lat="43.64129" lon="3.29">
        <ele>211.6</ele>
        <time>2014-09-28T07:32:50Z</time>
      </trkpt>
      <trkpt lat="43.64133" lon="3.28993">
        <ele>212.3</ele>
        <time>2014-09-28T07:32:52Z</time>
      </trkpt>
      <trkpt lat="43.64137" lon="3.28989">
        <ele>212.8</ele>
        <time>2014-09-28T07:32:54Z</time>
      </trkpt>
      <trkpt lat="43.64142" lon="3.28983">
        <ele>213.3</ele>
        <time>2014-09-28T07:32:56Z</time>
      </trkpt>
      <trkpt lat="43.64146" lon="3.28976">
        <ele>213.9</ele>
        <time>2014-09-28T07:32:58Z</time>
      </trkpt>
      <trkpt lat="43.6415" lon="3.28972">
        <ele>214.3</ele>
        <time>2014-09-28T07:33:00Z</time>
      </trkpt>
      <trkpt lat="43.64153" lon="3.28966">
        <ele>214.7</ele>
        <time>2014-09-28T07:33:03Z</time>
      </trkpt>
      <trkpt lat="43.64153" lon="3.28959">
        <ele>215.3</ele>
        <time>2014-09-28T07:33:06Z</time>
      </trkpt>
      <trkpt lat="43.6415" lon="3.28952">
        <ele>216.6</ele>
        <time>2014-09-28T07:33:09Z</time>
      </trkpt>
      <trkpt lat="43.64146" lon="3.28948">
        <ele>217.4</ele>
        <time>2014-09-28T07:33:11Z</time>
      </trkpt>
      <trkpt lat="43.64142" lon="3.28946">
        <ele>217.8</ele>
        <time>2014-09-28T07:33:13Z</time>
      </trkpt>
      <trkpt lat="43.64137" lon="3.28945">
        <ele>218</ele>
        <time>2014-09-28T07:33:15Z</time>
      </trkpt>
      <trkpt lat="43.64132" lon="3.28947">
        <ele>217.8</ele>
        <time>2014-09-28T07:33:17Z</time>
      </trkpt>
      <trkpt lat="43.64127" lon="3.28949">
        <ele>217.6</ele>
        <time>2014-09-28T07:33:19Z</time>
      </trkpt>
      <trkpt lat="43.64122" lon="3.28951">
        <ele>217.3</ele>
        <time>2014-09-28T07:33:22Z</time>
      </trkpt>
      <trkpt lat="43.64117" lon="3.28951">
        <ele>217.6</ele>
        <time>2014-09-28T07:33:26Z</time>
      </trkpt>
      <trkpt lat="43.64116" lon="3.28957">
        <ele>216.6</ele>
        <time>2014-09-28T07:33:38Z</time>
      </trkpt>
      <trkpt lat="43.64112" lon="3.28963">
        <ele>215.9</ele>
        <time>2014-09-28T07:33:41Z</time>
      </trkpt>
      <trkpt lat="43.64109" lon="3.28969">
        <ele>215.4</ele>
        <time>2014-09-28T07:33:43Z</time>
      </trkpt>
      <trkpt lat="43.64105" lon="3.28974">
        <ele>214.9</ele>
        <time>2014-09-28T07:33:45Z</time>
      </trkpt>
      <trkpt lat="43.64101" lon="3.28978">
        <ele>214.6</ele>
        <time>2014-09-28T07:33:47Z</time>
      </trkpt>
      <trkpt lat="43.64096" lon="3.28981">
        <ele>214.4</ele>
        <time>2014-09-28T07:33:49Z</time>
      </trkpt>
      <trkpt lat="43.64092" lon="3.28983">
        <ele>214.3</ele>
        <time>2014-09-28T07:33:51Z</time>
      </trkpt>
      <trkpt lat="43.64086" lon="3.28985">
        <ele>214.2</ele>
        <time>2014-09-28T07:33:53Z</time>
      </trkpt>
      <trkpt lat="43.6408" lon="3.28987">
        <ele>214.2</ele>
        <time>2014-09-28T07:33:56Z</time>
      </trkpt>
      <trkpt lat="43.64075" lon="3.28989">
        <ele>214</ele>
        <time>2014-09-28T07:33:58Z</time>
      </trkpt>
      <trkpt lat="43.64069" lon="3.28993">
        <ele>213.7</ele>
        <time>2014-09-28T07:34:00Z</time>
      </trkpt>
      <trkpt lat="43.64062" lon="3.28997">
        <ele>213.4</ele>
        <time>2014-09-28T07:34:02Z</time>
      </trkpt>
      <trkpt lat="43.64056" lon="3.29001">
        <ele>213.1</ele>
        <time>2014-09-28T07:34:04Z</time>
      </trkpt>
      <trkpt lat="43.64049" lon="3.29004">
        <ele>212.8</ele>
        <time>2014-09-28T07:34:06Z</time>
      </trkpt>
      <trkpt lat="43.64041" lon="3.29007">
        <ele>212.6</ele>
        <time>2014-09-28T07:34:08Z</time>
      </trkpt>
      <trkpt lat="43.64036" lon="3.29008">
        <ele>212.4</ele>
        <time>2014-09-28T07:34:09Z</time>
      </trkpt>
      <trkpt lat="43.64032" lon="3.29009">
        <ele>212.2</ele>
        <time>2014-09-28T07:34:10Z</time>
      </trkpt>
      <trkpt lat="43.64023" lon="3.29012">
        <ele>211.8</ele>
        <time>2014-09-28T07:34:12Z</time>
      </trkpt>
      <trkpt lat="43.64014" lon="3.29015">
        <ele>211.5</ele>
        <time>2014-09-28T07:34:14Z</time>
      </trkpt>
      <trkpt lat="43.64006" lon="3.29016">
        <ele>211.3</ele>
        <time>2014-09-28T07:34:16Z</time>
      </trkpt>
      <trkpt lat="43.63998" lon="3.29017">
        <ele>211.2</ele>
        <time>2014-09-28T07:34:18Z</time>
      </trkpt>
      <trkpt lat="43.6399" lon="3.29017">
        <ele>211.1</ele>
        <time>2014-09-28T07:34:20Z</time>
      </trkpt>
      <trkpt lat="43.63982" lon="3.29016">
        <ele>211.2</ele>
        <time>2014-09-28T07:34:22Z</time>
      </trkpt>
      <trkpt lat="43.63974" lon="3.29015">
        <ele>211.3</ele>
        <time>2014-09-28T07:34:24Z</time>
      </trkpt>
      <trkpt lat="43.63966" lon="3.29014">
        <ele>211.4</ele>
        <time>2014-09-28T07:34:26Z</time>
      </trkpt>
      <trkpt lat="43.63958" lon="3.29013">
        <ele>211.4</ele>
        <time>2014-09-28T07:34:28Z</time>
      </trkpt>
      <trkpt lat="43.63951" lon="3.29012">
        <ele>210.9</ele>
        <time>2014-09-28T07:34:30Z</time>
      </trkpt>
      <trkpt lat="43.63943" lon="3.29011">
        <ele>210.5</ele>
        <time>2014-09-28T07:34:32Z</time>
      </trkpt>
      <trkpt lat="43.63936" lon="3.29011">
        <ele>210</ele>
        <time>2014-09-28T07:34:34Z</time>
      </trkpt>
      <trkpt lat="43.63929" lon="3.29011">
        <ele>209.5</ele>
        <time>2014-09-28T07:34:36Z</time>
      </trkpt>
      <trkpt lat="43.6392" lon="3.29012">
        <ele>208.8</ele>
        <time>2014-09-28T07:34:38Z</time>
      </trkpt>
      <trkpt lat="43.63916" lon="3.29012">
        <ele>208.4</ele>
        <time>2014-09-28T07:34:39Z</time>
      </trkpt>
      <trkpt lat="43.63911" lon="3.29012">
        <ele>208</ele>
        <time>2014-09-28T07:34:40Z</time>
      </trkpt>
      <trkpt lat="43.63905" lon="3.29012">
        <ele>207.6</ele>
        <time>2014-09-28T07:34:41Z</time>
      </trkpt>
      <trkpt lat="43.63899" lon="3.29012">
        <ele>207.3</ele>
        <time>2014-09-28T07:34:42Z</time>
      </trkpt>
      <trkpt lat="43.63893" lon="3.29011">
        <ele>206.9</ele>
        <time>2014-09-28T07:34:43Z</time>
      </trkpt>
      <trkpt lat="43.63887" lon="3.29011">
        <ele>206.4</ele>
        <time>2014-09-28T07:34:44Z</time>
      </trkpt>
      <trkpt lat="43.6388" lon="3.29011">
        <ele>206</ele>
        <time>2014-09-28T07:34:45Z</time>
      </trkpt>
      <trkpt lat="43.63874" lon="3.29013">
        <ele>205.4</ele>
        <time>2014-09-28T07:34:46Z</time>
      </trkpt>
      <trkpt lat="43.63868" lon="3.29016">
        <ele>204.7</ele>
        <time>2014-09-28T07:34:47Z</time>
      </trkpt>
      <trkpt lat="43.63864" lon="3.29022">
        <ele>203.9</ele>
        <time>2014-09-28T07:34:48Z</time>
      </trkpt>
      <trkpt lat="43.6386" lon="3.2903">
        <ele>202.9</ele>
        <time>2014-09-28T07:34:49Z</time>
      </trkpt>
      <trkpt lat="43.63858" lon="3.2904">
        <ele>201.9</ele>
        <time>2014-09-28T07:34:50Z</time>
      </trkpt>
      <trkpt lat="43.63854" lon="3.29049">
        <ele>201.1</ele>
        <time>2014-09-28T07:34:51Z</time>
      </trkpt>
      <trkpt lat="43.6385" lon="3.29059">
        <ele>200.3</ele>
        <time>2014-09-28T07:34:52Z</time>
      </trkpt>
      <trkpt lat="43.63845" lon="3.29068">
        <ele>199.6</ele>
        <time>2014-09-28T07:34:53Z</time>
      </trkpt>
      <trkpt lat="43.63838" lon="3.29076">
        <ele>198.8</ele>
        <time>2014-09-28T07:34:54Z</time>
      </trkpt>
      <trkpt lat="43.63832" lon="3.29084">
        <ele>198.1</ele>
        <time>2014-09-28T07:34:55Z</time>
      </trkpt>
      <trkpt lat="43.63825" lon="3.29092">
        <ele>197.5</ele>
        <time>2014-09-28T07:34:56Z</time>
      </trkpt>
      <trkpt lat="43.63819" lon="3.291">
        <ele>196.9</ele>
        <time>2014-09-28T07:34:57Z</time>
      </trkpt>
      <trkpt lat="43.63813" lon="3.29107">
        <ele>196.4</ele>
        <time>2014-09-28T07:34:58Z</time>
      </trkpt>
      <trkpt lat="43.63808" lon="3.29112">
        <ele>196</ele>
        <time>2014-09-28T07:34:59Z</time>
      </trkpt>
      <trkpt lat="43.63802" lon="3.29117">
        <ele>195.6</ele>
        <time>2014-09-28T07:35:00Z</time>
      </trkpt>
      <trkpt lat="43.63797" lon="3.29119">
        <ele>195.4</ele>
        <time>2014-09-28T07:35:01Z</time>
      </trkpt>
      <trkpt lat="43.63792" lon="3.29119">
        <ele>195.1</ele>
        <time>2014-09-28T07:35:02Z</time>
      </trkpt>
      <trkpt lat="43.63787" lon="3.29117">
        <ele>194.9</ele>
        <time>2014-09-28T07:35:03Z</time>
      </trkpt>
      <trkpt lat="43.63782" lon="3.29113">
        <ele>194.8</ele>
        <time>2014-09-28T07:35:04Z</time>
      </trkpt>
      <trkpt lat="43.63778" lon="3.29109">
        <ele>194.7</ele>
        <time>2014-09-28T07:35:05Z</time>
      </trkpt>
      <trkpt lat="43.63774" lon="3.29105">
        <ele>194.6</ele>
        <time>2014-09-28T07:35:06Z</time>
      </trkpt>
      <trkpt lat="43.63769" lon="3.29103">
        <ele>194.4</ele>
        <time>2014-09-28T07:35:07Z</time>
      </trkpt>
      <trkpt lat="43.63765" lon="3.29102">
        <ele>194.2</ele>
        <time>2014-09-28T07:35:08Z</time>
      </trkpt>
      <trkpt lat="43.6376" lon="3.29102">
        <ele>193.9</ele>
        <time>2014-09-28T07:35:09Z</time>
      </trkpt>
      <trkpt lat="43.63755" lon="3.29103">
        <ele>193.7</ele>
        <time>2014-09-28T07:35:10Z</time>
      </trkpt>
      <trkpt lat="43.6375" lon="3.29103">
        <ele>193.4</ele>
        <time>2014-09-28T07:35:11Z</time>
      </trkpt>
      <trkpt lat="43.63745" lon="3.29104">
        <ele>193.1</ele>
        <time>2014-09-28T07:35:12Z</time>
      </trkpt>
      <trkpt lat="43.63741" lon="3.29104">
        <ele>192.9</ele>
        <time>2014-09-28T07:35:13Z</time>
      </trkpt>
      <trkpt lat="43.63735" lon="3.29104">
        <ele>192.6</ele>
        <time>2014-09-28T07:35:14Z</time>
      </trkpt>
      <trkpt lat="43.6373" lon="3.29104">
        <ele>192.4</ele>
        <time>2014-09-28T07:35:15Z</time>
      </trkpt>
      <trkpt lat="43.63725" lon="3.29105">
        <ele>192.1</ele>
        <time>2014-09-28T07:35:16Z</time>
      </trkpt>
      <trkpt lat="43.63719" lon="3.29107">
        <ele>191.8</ele>
        <time>2014-09-28T07:35:17Z</time>
      </trkpt>
      <trkpt lat="43.63714" lon="3.2911">
        <ele>191.4</ele>
        <time>2014-09-28T07:35:18Z</time>
      </trkpt>
      <trkpt lat="43.63707" lon="3.29112">
        <ele>191.1</ele>
        <time>2014-09-28T07:35:19Z</time>
      </trkpt>
      <trkpt lat="43.63701" lon="3.29113">
        <ele>190.6</ele>
        <time>2014-09-28T07:35:20Z</time>
      </trkpt>
      <trkpt lat="43.63695" lon="3.29114">
        <ele>190.2</ele>
        <time>2014-09-28T07:35:21Z</time>
      </trkpt>
      <trkpt lat="43.63688" lon="3.29114">
        <ele>189.7</ele>
        <time>2014-09-28T07:35:22Z</time>
      </trkpt>
      <trkpt lat="43.63681" lon="3.29112">
        <ele>189.2</ele>
        <time>2014-09-28T07:35:23Z</time>
      </trkpt>
      <trkpt lat="43.63675" lon="3.29109">
        <ele>188.8</ele>
        <time>2014-09-28T07:35:24Z</time>
      </trkpt>
      <trkpt lat="43.63668" lon="3.29106">
        <ele>188.3</ele>
        <time>2014-09-28T07:35:25Z</time>
      </trkpt>
      <trkpt lat="43.63668" lon="3.29106">
        <ele>188.3</ele>
        <time>2014-09-28T07:35:25Z</time>
      </trkpt>
      <trkpt lat="43.63661" lon="3.29102">
        <ele>187.9</ele>
        <time>2014-09-28T07:35:26Z</time>
      </trkpt>
      <trkpt lat="43.63654" lon="3.29098">
        <ele>187.4</ele>
        <time>2014-09-28T07:35:27Z</time>
      </trkpt>
      <trkpt lat="43.63647" lon="3.29093">
        <ele>187</ele>
        <time>2014-09-28T07:35:28Z</time>
      </trkpt>
      <trkpt lat="43.6364" lon="3.29088">
        <ele>186.5</ele>
        <time>2014-09-28T07:35:29Z</time>
      </trkpt>
      <trkpt lat="43.63632" lon="3.29083">
        <ele>186</ele>
        <time>2014-09-28T07:35:30Z</time>
      </trkpt>
      <trkpt lat="43.63624" lon="3.29079">
        <ele>185.4</ele>
        <time>2014-09-28T07:35:31Z</time>
      </trkpt>
      <trkpt lat="43.63615" lon="3.29076">
        <ele>184.9</ele>
        <time>2014-09-28T07:35:32Z</time>
      </trkpt>
      <trkpt lat="43.63607" lon="3.29074">
        <ele>184.3</ele>
        <time>2014-09-28T07:35:33Z</time>
      </trkpt>
      <trkpt lat="43.63598" lon="3.29073">
        <ele>183.7</ele>
        <time>2014-09-28T07:35:34Z</time>
      </trkpt>
      <trkpt lat="43.6359" lon="3.29072">
        <ele>183.1</ele>
        <time>2014-09-28T07:35:35Z</time>
      </trkpt>
      <trkpt lat="43.63582" lon="3.29073">
        <ele>182.5</ele>
        <time>2014-09-28T07:35:36Z</time>
      </trkpt>
      <trkpt lat="43.63574" lon="3.29074">
        <ele>181.9</ele>
        <time>2014-09-28T07:35:37Z</time>
      </trkpt>
      <trkpt lat="43.63566" lon="3.29074">
        <ele>181.4</ele>
        <time>2014-09-28T07:35:38Z</time>
      </trkpt>
      <trkpt lat="43.63559" lon="3.29074">
        <ele>180.8</ele>
        <time>2014-09-28T07:35:39Z</time>
      </trkpt>
      <trkpt lat="43.63551" lon="3.29073">
        <ele>180.3</ele>
        <time>2014-09-28T07:35:40Z</time>
      </trkpt>
      <trkpt lat="43.63544" lon="3.29072">
        <ele>179.8</ele>
        <time>2014-09-28T07:35:41Z</time>
      </trkpt>
      <trkpt lat="43.63536" lon="3.29068">
        <ele>179.4</ele>
        <time>2014-09-28T07:35:42Z</time>
      </trkpt>
      <trkpt lat="43.63528" lon="3.29063">
        <ele>179.1</ele>
        <time>2014-09-28T07:35:43Z</time>
      </trkpt>
      <trkpt lat="43.63521" lon="3.29056">
        <ele>178.9</ele>
        <time>2014-09-28T07:35:44Z</time>
      </trkpt>
      <trkpt lat="43.63514" lon="3.29048">
        <ele>178.8</ele>
        <time>2014-09-28T07:35:45Z</time>
      </trkpt>
      <trkpt lat="43.63507" lon="3.29043">
        <ele>178.7</ele>
        <time>2014-09-28T07:35:46Z</time>
      </trkpt>
      <trkpt lat="43.635" lon="3.2904">
        <ele>178.5</ele>
        <time>2014-09-28T07:35:47Z</time>
      </trkpt>
      <trkpt lat="43.63492" lon="3.29039">
        <ele>178.2</ele>
        <time>2014-09-28T07:35:48Z</time>
      </trkpt>
      <trkpt lat="43.63483" lon="3.29039">
        <ele>177.9</ele>
        <time>2014-09-28T07:35:49Z</time>
      </trkpt>
      <trkpt lat="43.63475" lon="3.29039">
        <ele>177.6</ele>
        <time>2014-09-28T07:35:50Z</time>
      </trkpt>
      <trkpt lat="43.63467" lon="3.29039">
        <ele>177.3</ele>
        <time>2014-09-28T07:35:51Z</time>
      </trkpt>
      <trkpt lat="43.63459" lon="3.2904">
        <ele>177</ele>
        <time>2014-09-28T07:35:52Z</time>
      </trkpt>
      <trkpt lat="43.63452" lon="3.2904">
        <ele>176.6</ele>
        <time>2014-09-28T07:35:53Z</time>
      </trkpt>
      <trkpt lat="43.63446" lon="3.29039">
        <ele>176.3</ele>
        <time>2014-09-28T07:35:54Z</time>
      </trkpt>
      <trkpt lat="43.63441" lon="3.29035">
        <ele>176</ele>
        <time>2014-09-28T07:35:55Z</time>
      </trkpt>
      <trkpt lat="43.63437" lon="3.29029">
        <ele>175.9</ele>
        <time>2014-09-28T07:35:56Z</time>
      </trkpt>
      <trkpt lat="43.63435" lon="3.29022">
        <ele>176</ele>
        <time>2014-09-28T07:35:57Z</time>
      </trkpt>
      <trkpt lat="43.63434" lon="3.29014">
        <ele>176.1</ele>
        <time>2014-09-28T07:35:58Z</time>
      </trkpt>
      <trkpt lat="43.63433" lon="3.29006">
        <ele>176.1</ele>
        <time>2014-09-28T07:35:59Z</time>
      </trkpt>
      <trkpt lat="43.63432" lon="3.28998">
        <ele>176.3</ele>
        <time>2014-09-28T07:36:00Z</time>
      </trkpt>
      <trkpt lat="43.63431" lon="3.28991">
        <ele>176.4</ele>
        <time>2014-09-28T07:36:01Z</time>
      </trkpt>
      <trkpt lat="43.6343" lon="3.28984">
        <ele>176.5</ele>
        <time>2014-09-28T07:36:02Z</time>
      </trkpt>
      <trkpt lat="43.63429" lon="3.28977">
        <ele>176.6</ele>
        <time>2014-09-28T07:36:03Z</time>
      </trkpt>
      <trkpt lat="43.63428" lon="3.2897">
        <ele>176.7</ele>
        <time>2014-09-28T07:36:04Z</time>
      </trkpt>
      <trkpt lat="43.63427" lon="3.28964">
        <ele>176.8</ele>
        <time>2014-09-28T07:36:05Z</time>
      </trkpt>
      <trkpt lat="43.63426" lon="3.28957">
        <ele>176.9</ele>
        <time>2014-09-28T07:36:06Z</time>
      </trkpt>
      <trkpt lat="43.63425" lon="3.28951">
        <ele>177.1</ele>
        <time>2014-09-28T07:36:07Z</time>
      </trkpt>
      <trkpt lat="43.63424" lon="3.28944">
        <ele>177.3</ele>
        <time>2014-09-28T07:36:08Z</time>
      </trkpt>
      <trkpt lat="43.63423" lon="3.28938">
        <ele>177.5</ele>
        <time>2014-09-28T07:36:09Z</time>
      </trkpt>
      <trkpt lat="43.63421" lon="3.28932">
        <ele>177.6</ele>
        <time>2014-09-28T07:36:10Z</time>
      </trkpt>
      <trkpt lat="43.63419" lon="3.2892">
        <ele>177.9</ele>
        <time>2014-09-28T07:36:12Z</time>
      </trkpt>
      <trkpt lat="43.63416" lon="3.28909">
        <ele>178.2</ele>
        <time>2014-09-28T07:36:14Z</time>
      </trkpt>
      <trkpt lat="43.63414" lon="3.28903">
        <ele>178.4</ele>
        <time>2014-09-28T07:36:15Z</time>
      </trkpt>
      <trkpt lat="43.63413" lon="3.28897">
        <ele>178.6</ele>
        <time>2014-09-28T07:36:16Z</time>
      </trkpt>
      <trkpt lat="43.63411" lon="3.28891">
        <ele>178.7</ele>
        <time>2014-09-28T07:36:17Z</time>
      </trkpt>
      <trkpt lat="43.63409" lon="3.28885">
        <ele>178.9</ele>
        <time>2014-09-28T07:36:18Z</time>
      </trkpt>
      <trkpt lat="43.63407" lon="3.2888">
        <ele>179</ele>
        <time>2014-09-28T07:36:19Z</time>
      </trkpt>
      <trkpt lat="43.63402" lon="3.2887">
        <ele>179.2</ele>
        <time>2014-09-28T07:36:21Z</time>
      </trkpt>
      <trkpt lat="43.63402" lon="3.2887">
        <ele>179.2</ele>
        <time>2014-09-28T07:36:21Z</time>
      </trkpt>
      <trkpt lat="43.63399" lon="3.28865">
        <ele>179.3</ele>
        <time>2014-09-28T07:36:22Z</time>
      </trkpt>
      <trkpt lat="43.63393" lon="3.28856">
        <ele>179.5</ele>
        <time>2014-09-28T07:36:24Z</time>
      </trkpt>
      <trkpt lat="43.63387" lon="3.28848">
        <ele>179.7</ele>
        <time>2014-09-28T07:36:26Z</time>
      </trkpt>
      <trkpt lat="43.63382" lon="3.2884">
        <ele>179.9</ele>
        <time>2014-09-28T07:36:28Z</time>
      </trkpt>
      <trkpt lat="43.63377" lon="3.28831">
        <ele>180.1</ele>
        <time>2014-09-28T07:36:30Z</time>
      </trkpt>
      <trkpt lat="43.63372" lon="3.28822">
        <ele>180.4</ele>
        <time>2014-09-28T07:36:32Z</time>
      </trkpt>
      <trkpt lat="43.63368" lon="3.28813">
        <ele>180.7</ele>
        <time>2014-09-28T07:36:34Z</time>
      </trkpt>
      <trkpt lat="43.63364" lon="3.28803">
        <ele>181</ele>
        <time>2014-09-28T07:36:36Z</time>
      </trkpt>
      <trkpt lat="43.6336" lon="3.28793">
        <ele>181.3</ele>
        <time>2014-09-28T07:36:38Z</time>
      </trkpt>
      <trkpt lat="43.63357" lon="3.28782">
        <ele>181.3</ele>
        <time>2014-09-28T07:36:40Z</time>
      </trkpt>
      <trkpt lat="43.63353" lon="3.28772">
        <ele>181.3</ele>
        <time>2014-09-28T07:36:42Z</time>
      </trkpt>
      <trkpt lat="43.6335" lon="3.28762">
        <ele>181.4</ele>
        <time>2014-09-28T07:36:44Z</time>
      </trkpt>
      <trkpt lat="43.63347" lon="3.28752">
        <ele>181.4</ele>
        <time>2014-09-28T07:36:46Z</time>
      </trkpt>
      <trkpt lat="43.63344" lon="3.28743">
        <ele>181.5</ele>
        <time>2014-09-28T07:36:48Z</time>
      </trkpt>
      <trkpt lat="43.63341" lon="3.28733">
        <ele>181.5</ele>
        <time>2014-09-28T07:36:50Z</time>
      </trkpt>
      <trkpt lat="43.63337" lon="3.28724">
        <ele>181.4</ele>
        <time>2014-09-28T07:36:52Z</time>
      </trkpt>
      <trkpt lat="43.63335" lon="3.28715">
        <ele>181.5</ele>
        <time>2014-09-28T07:36:54Z</time>
      </trkpt>
      <trkpt lat="43.63335" lon="3.28707">
        <ele>181.6</ele>
        <time>2014-09-28T07:36:56Z</time>
      </trkpt>
      <trkpt lat="43.63338" lon="3.28699">
        <ele>181.9</ele>
        <time>2014-09-28T07:36:58Z</time>
      </trkpt>
      <trkpt lat="43.63342" lon="3.28691">
        <ele>182.3</ele>
        <time>2014-09-28T07:37:00Z</time>
      </trkpt>
      <trkpt lat="43.63345" lon="3.28684">
        <ele>182.6</ele>
        <time>2014-09-28T07:37:02Z</time>
      </trkpt>
      <trkpt lat="43.63349" lon="3.28678">
        <ele>182.9</ele>
        <time>2014-09-28T07:37:04Z</time>
      </trkpt>
      <trkpt lat="43.63352" lon="3.28672">
        <ele>183.2</ele>
        <time>2014-09-28T07:37:06Z</time>
      </trkpt>
      <trkpt lat="43.63357" lon="3.28666">
        <ele>183.5</ele>
        <time>2014-09-28T07:37:08Z</time>
      </trkpt>
      <trkpt lat="43.63361" lon="3.2866">
        <ele>183.8</ele>
        <time>2014-09-28T07:37:10Z</time>
      </trkpt>
      <trkpt lat="43.63365" lon="3.28653">
        <ele>184.2</ele>
        <time>2014-09-28T07:37:12Z</time>
      </trkpt>
      <trkpt lat="43.63369" lon="3.28647">
        <ele>184.4</ele>
        <time>2014-09-28T07:37:14Z</time>
      </trkpt>
      <trkpt lat="43.63373" lon="3.2864">
        <ele>184.7</ele>
        <time>2014-09-28T07:37:16Z</time>
      </trkpt>
      <trkpt lat="43.63377" lon="3.28633">
        <ele>185</ele>
        <time>2014-09-28T07:37:18Z</time>
      </trkpt>
      <trkpt lat="43.6338" lon="3.28627">
        <ele>185.5</ele>
        <time>2014-09-28T07:37:20Z</time>
      </trkpt>
      <trkpt lat="43.63384" lon="3.2862">
        <ele>186</ele>
        <time>2014-09-28T07:37:22Z</time>
      </trkpt>
      <trkpt lat="43.63387" lon="3.28613">
        <ele>186.5</ele>
        <time>2014-09-28T07:37:24Z</time>
      </trkpt>
      <trkpt lat="43.63391" lon="3.28606">
        <ele>187</ele>
        <time>2014-09-28T07:37:26Z</time>
      </trkpt>
      <trkpt lat="43.63396" lon="3.286">
        <ele>187.6</ele>
        <time>2014-09-28T07:37:28Z</time>
      </trkpt>
      <trkpt lat="43.634" lon="3.28595">
        <ele>188.1</ele>
        <time>2014-09-28T07:37:30Z</time>
      </trkpt>
      <trkpt lat="43.63404" lon="3.28589">
        <ele>188.6</ele>
        <time>2014-09-28T07:37:32Z</time>
      </trkpt>
      <trkpt lat="43.63408" lon="3.28584">
        <ele>189.1</ele>
        <time>2014-09-28T07:37:34Z</time>
      </trkpt>
      <trkpt lat="43.63412" lon="3.28579">
        <ele>189.6</ele>
        <time>2014-09-28T07:37:36Z</time>
      </trkpt>
      <trkpt lat="43.63415" lon="3.28575">
        <ele>190.1</ele>
        <time>2014-09-28T07:37:38Z</time>
      </trkpt>
      <trkpt lat="43.63421" lon="3.28569">
        <ele>190.7</ele>
        <time>2014-09-28T07:37:41Z</time>
      </trkpt>
      <trkpt lat="43.63425" lon="3.28564">
        <ele>191.2</ele>
        <time>2014-09-28T07:37:43Z</time>
      </trkpt>
      <trkpt lat="43.63429" lon="3.2856">
        <ele>191.8</ele>
        <time>2014-09-28T07:37:45Z</time>
      </trkpt>
      <trkpt lat="43.63433" lon="3.28555">
        <ele>192.3</ele>
        <time>2014-09-28T07:37:47Z</time>
      </trkpt>
      <trkpt lat="43.63438" lon="3.2855">
        <ele>192.8</ele>
        <time>2014-09-28T07:37:49Z</time>
      </trkpt>
      <trkpt lat="43.63442" lon="3.28545">
        <ele>193.3</ele>
        <time>2014-09-28T07:37:51Z</time>
      </trkpt>
      <trkpt lat="43.63446" lon="3.28541">
        <ele>193.8</ele>
        <time>2014-09-28T07:37:53Z</time>
      </trkpt>
      <trkpt lat="43.6345" lon="3.28537">
        <ele>194.3</ele>
        <time>2014-09-28T07:37:55Z</time>
      </trkpt>
      <trkpt lat="43.63455" lon="3.28534">
        <ele>194.7</ele>
        <time>2014-09-28T07:37:57Z</time>
      </trkpt>
      <trkpt lat="43.6346" lon="3.28531">
        <ele>195.2</ele>
        <time>2014-09-28T07:37:59Z</time>
      </trkpt>
      <trkpt lat="43.63464" lon="3.28528">
        <ele>195.7</ele>
        <time>2014-09-28T07:38:01Z</time>
      </trkpt>
      <trkpt lat="43.63468" lon="3.28524">
        <ele>196.2</ele>
        <time>2014-09-28T07:38:03Z</time>
      </trkpt>
      <trkpt lat="43.63472" lon="3.2852">
        <ele>196.7</ele>
        <time>2014-09-28T07:38:05Z</time>
      </trkpt>
      <trkpt lat="43.63477" lon="3.28516">
        <ele>197.3</ele>
        <time>2014-09-28T07:38:07Z</time>
      </trkpt>
      <trkpt lat="43.63481" lon="3.28511">
        <ele>197.8</ele>
        <time>2014-09-28T07:38:09Z</time>
      </trkpt>
      <trkpt lat="43.63485" lon="3.28507">
        <ele>198.3</ele>
        <time>2014-09-28T07:38:11Z</time>
      </trkpt>
      <trkpt lat="43.63489" lon="3.28502">
        <ele>198.9</ele>
        <time>2014-09-28T07:38:13Z</time>
      </trkpt>
      <trkpt lat="43.63493" lon="3.28498">
        <ele>199.5</ele>
        <time>2014-09-28T07:38:15Z</time>
      </trkpt>
      <trkpt lat="43.63497" lon="3.28494">
        <ele>200</ele>
        <time>2014-09-28T07:38:17Z</time>
      </trkpt>
      <trkpt lat="43.63501" lon="3.28492">
        <ele>200.6</ele>
        <time>2014-09-28T07:38:19Z</time>
      </trkpt>
      <trkpt lat="43.63506" lon="3.28493">
        <ele>201.2</ele>
        <time>2014-09-28T07:38:21Z</time>
      </trkpt>
      <trkpt lat="43.63511" lon="3.28496">
        <ele>201.7</ele>
        <time>2014-09-28T07:38:24Z</time>
      </trkpt>
      <trkpt lat="43.63517" lon="3.28492">
        <ele>202.4</ele>
        <time>2014-09-28T07:38:27Z</time>
      </trkpt>
      <trkpt lat="43.63518" lon="3.28485">
        <ele>202.8</ele>
        <time>2014-09-28T07:38:29Z</time>
      </trkpt>
      <trkpt lat="43.63517" lon="3.28478">
        <ele>203</ele>
        <time>2014-09-28T07:38:31Z</time>
      </trkpt>
      <trkpt lat="43.63516" lon="3.28471">
        <ele>203.2</ele>
        <time>2014-09-28T07:38:33Z</time>
      </trkpt>
      <trkpt lat="43.63516" lon="3.28464">
        <ele>203.4</ele>
        <time>2014-09-28T07:38:35Z</time>
      </trkpt>
      <trkpt lat="43.63516" lon="3.28458">
        <ele>203.6</ele>
        <time>2014-09-28T07:38:37Z</time>
      </trkpt>
      <trkpt lat="43.63516" lon="3.28452">
        <ele>203.8</ele>
        <time>2014-09-28T07:38:39Z</time>
      </trkpt>
      <trkpt lat="43.63515" lon="3.28445">
        <ele>203.9</ele>
        <time>2014-09-28T07:38:41Z</time>
      </trkpt>
      <trkpt lat="43.63513" lon="3.28439">
        <ele>204</ele>
        <time>2014-09-28T07:38:43Z</time>
      </trkpt>
      <trkpt lat="43.6351" lon="3.28432">
        <ele>203.9</ele>
        <time>2014-09-28T07:38:45Z</time>
      </trkpt>
      <trkpt lat="43.63507" lon="3.28423">
        <ele>203.8</ele>
        <time>2014-09-28T07:38:47Z</time>
      </trkpt>
      <trkpt lat="43.63503" lon="3.28415">
        <ele>203.7</ele>
        <time>2014-09-28T07:38:49Z</time>
      </trkpt>
      <trkpt lat="43.635" lon="3.28405">
        <ele>203.7</ele>
        <time>2014-09-28T07:38:51Z</time>
      </trkpt>
      <trkpt lat="43.63496" lon="3.28396">
        <ele>203.7</ele>
        <time>2014-09-28T07:38:53Z</time>
      </trkpt>
      <trkpt lat="43.63493" lon="3.28386">
        <ele>203.6</ele>
        <time>2014-09-28T07:38:55Z</time>
      </trkpt>
      <trkpt lat="43.6349" lon="3.28379">
        <ele>203.6</ele>
        <time>2014-09-28T07:38:57Z</time>
      </trkpt>
      <trkpt lat="43.63486" lon="3.28374">
        <ele>203.4</ele>
        <time>2014-09-28T07:38:59Z</time>
      </trkpt>
      <trkpt lat="43.63482" lon="3.28368">
        <ele>203.2</ele>
        <time>2014-09-28T07:39:01Z</time>
      </trkpt>
      <trkpt lat="43.63479" lon="3.2836">
        <ele>203.2</ele>
        <time>2014-09-28T07:39:03Z</time>
      </trkpt>
      <trkpt lat="43.63477" lon="3.2835">
        <ele>203.3</ele>
        <time>2014-09-28T07:39:05Z</time>
      </trkpt>
      <trkpt lat="43.63472" lon="3.28339">
        <ele>203.1</ele>
        <time>2014-09-28T07:39:07Z</time>
      </trkpt>
      <trkpt lat="43.63469" lon="3.28334">
        <ele>202.9</ele>
        <time>2014-09-28T07:39:08Z</time>
      </trkpt>
      <trkpt lat="43.63464" lon="3.28325">
        <ele>202.6</ele>
        <time>2014-09-28T07:39:10Z</time>
      </trkpt>
      <trkpt lat="43.63458" lon="3.28318">
        <ele>202</ele>
        <time>2014-09-28T07:39:12Z</time>
      </trkpt>
      <trkpt lat="43.63452" lon="3.28314">
        <ele>201.4</ele>
        <time>2014-09-28T07:39:14Z</time>
      </trkpt>
      <trkpt lat="43.63445" lon="3.2831">
        <ele>200.9</ele>
        <time>2014-09-28T07:39:16Z</time>
      </trkpt>
      <trkpt lat="43.6344" lon="3.28303">
        <ele>200.4</ele>
        <time>2014-09-28T07:39:18Z</time>
      </trkpt>
      <trkpt lat="43.63434" lon="3.28296">
        <ele>199.9</ele>
        <time>2014-09-28T07:39:20Z</time>
      </trkpt>
      <trkpt lat="43.63428" lon="3.28287">
        <ele>199.6</ele>
        <time>2014-09-28T07:39:22Z</time>
      </trkpt>
      <trkpt lat="43.63425" lon="3.28276">
        <ele>199.5</ele>
        <time>2014-09-28T07:39:24Z</time>
      </trkpt>
      <trkpt lat="43.63423" lon="3.28265">
        <ele>199.8</ele>
        <time>2014-09-28T07:39:26Z</time>
      </trkpt>
      <trkpt lat="43.63424" lon="3.28255">
        <ele>200.2</ele>
        <time>2014-09-28T07:39:28Z</time>
      </trkpt>
      <trkpt lat="43.63425" lon="3.28245">
        <ele>200.6</ele>
        <time>2014-09-28T07:39:30Z</time>
      </trkpt>
      <trkpt lat="43.63425" lon="3.28237">
        <ele>201</ele>
        <time>2014-09-28T07:39:32Z</time>
      </trkpt>
      <trkpt lat="43.63425" lon="3.28228">
        <ele>201.3</ele>
        <time>2014-09-28T07:39:34Z</time>
      </trkpt>
      <trkpt lat="43.63424" lon="3.2822">
        <ele>201.5</ele>
        <time>2014-09-28T07:39:36Z</time>
      </trkpt>
      <trkpt lat="43.63425" lon="3.28211">
        <ele>201.9</ele>
        <time>2014-09-28T07:39:38Z</time>
      </trkpt>
      <trkpt lat="43.63425" lon="3.28201">
        <ele>202</ele>
        <time>2014-09-28T07:39:40Z</time>
      </trkpt>
      <trkpt lat="43.63423" lon="3.28191">
        <ele>201.9</ele>
        <time>2014-09-28T07:39:42Z</time>
      </trkpt>
      <trkpt lat="43.63423" lon="3.28182">
        <ele>201.9</ele>
        <time>2014-09-28T07:39:44Z</time>
      </trkpt>
      <trkpt lat="43.63423" lon="3.28174">
        <ele>201.9</ele>
        <time>2014-09-28T07:39:46Z</time>
      </trkpt>
      <trkpt lat="43.63423" lon="3.28164">
        <ele>202</ele>
        <time>2014-09-28T07:39:48Z</time>
      </trkpt>
      <trkpt lat="43.63422" lon="3.28153">
        <ele>201.9</ele>
        <time>2014-09-28T07:39:50Z</time>
      </trkpt>
      <trkpt lat="43.63421" lon="3.28147">
        <ele>201.8</ele>
        <time>2014-09-28T07:39:51Z</time>
      </trkpt>
      <trkpt lat="43.63418" lon="3.28135">
        <ele>201.6</ele>
        <time>2014-09-28T07:39:53Z</time>
      </trkpt>
      <trkpt lat="43.63416" lon="3.28124">
        <ele>201.4</ele>
        <time>2014-09-28T07:39:55Z</time>
      </trkpt>
      <trkpt lat="43.63415" lon="3.28113">
        <ele>201.2</ele>
        <time>2014-09-28T07:39:57Z</time>
      </trkpt>
      <trkpt lat="43.63416" lon="3.28102">
        <ele>201.3</ele>
        <time>2014-09-28T07:39:59Z</time>
      </trkpt>
      <trkpt lat="43.63418" lon="3.28096">
        <ele>201.5</ele>
        <time>2014-09-28T07:40:00Z</time>
      </trkpt>
      <trkpt lat="43.63421" lon="3.28086">
        <ele>201.6</ele>
        <time>2014-09-28T07:40:02Z</time>
      </trkpt>
      <trkpt lat="43.63424" lon="3.28078">
        <ele>201.8</ele>
        <time>2014-09-28T07:40:04Z</time>
      </trkpt>
      <trkpt lat="43.63425" lon="3.28071">
        <ele>201.9</ele>
        <time>2014-09-28T07:40:06Z</time>
      </trkpt>
      <trkpt lat="43.63426" lon="3.28063">
        <ele>201.9</ele>
        <time>2014-09-28T07:40:08Z</time>
      </trkpt>
      <trkpt lat="43.63426" lon="3.28056">
        <ele>201.8</ele>
        <time>2014-09-28T07:40:10Z</time>
      </trkpt>
      <trkpt lat="43.63426" lon="3.28048">
        <ele>201.7</ele>
        <time>2014-09-28T07:40:12Z</time>
      </trkpt>
      <trkpt lat="43.63425" lon="3.2804">
        <ele>201.6</ele>
        <time>2014-09-28T07:40:14Z</time>
      </trkpt>
      <trkpt lat="43.63424" lon="3.28032">
        <ele>201.6</ele>
        <time>2014-09-28T07:40:16Z</time>
      </trkpt>
      <trkpt lat="43.63424" lon="3.28024">
        <ele>201.6</ele>
        <time>2014-09-28T07:40:18Z</time>
      </trkpt>
      <trkpt lat="43.63423" lon="3.28015">
        <ele>201.6</ele>
        <time>2014-09-28T07:40:20Z</time>
      </trkpt>
      <trkpt lat="43.63422" lon="3.28007">
        <ele>201.5</ele>
        <time>2014-09-28T07:40:22Z</time>
      </trkpt>
      <trkpt lat="43.6342" lon="3.27999">
        <ele>201.5</ele>
        <time>2014-09-28T07:40:24Z</time>
      </trkpt>
      <trkpt lat="43.63419" lon="3.27989">
        <ele>201.4</ele>
        <time>2014-09-28T07:40:26Z</time>
      </trkpt>
      <trkpt lat="43.63417" lon="3.27981">
        <ele>201.4</ele>
        <time>2014-09-28T07:40:28Z</time>
      </trkpt>
      <trkpt lat="43.63415" lon="3.27972">
        <ele>201.3</ele>
        <time>2014-09-28T07:40:30Z</time>
      </trkpt>
      <trkpt lat="43.63415" lon="3.27963">
        <ele>201.4</ele>
        <time>2014-09-28T07:40:32Z</time>
      </trkpt>
      <trkpt lat="43.63416" lon="3.27955">
        <ele>201.3</ele>
        <time>2014-09-28T07:40:34Z</time>
      </trkpt>
      <trkpt lat="43.63416" lon="3.27948">
        <ele>201</ele>
        <time>2014-09-28T07:40:36Z</time>
      </trkpt>
      <trkpt lat="43.63416" lon="3.27941">
        <ele>200.7</ele>
        <time>2014-09-28T07:40:38Z</time>
      </trkpt>
      <trkpt lat="43.63416" lon="3.27933">
        <ele>200.4</ele>
        <time>2014-09-28T07:40:40Z</time>
      </trkpt>
      <trkpt lat="43.63416" lon="3.27925">
        <ele>200.1</ele>
        <time>2014-09-28T07:40:42Z</time>
      </trkpt>
      <trkpt lat="43.63415" lon="3.27919">
        <ele>199.7</ele>
        <time>2014-09-28T07:40:44Z</time>
      </trkpt>
      <trkpt lat="43.63413" lon="3.27912">
        <ele>199.3</ele>
        <time>2014-09-28T07:40:46Z</time>
      </trkpt>
      <trkpt lat="43.63411" lon="3.27903">
        <ele>198.9</ele>
        <time>2014-09-28T07:40:48Z</time>
      </trkpt>
      <trkpt lat="43.63412" lon="3.27895">
        <ele>198.6</ele>
        <time>2014-09-28T07:40:50Z</time>
      </trkpt>
      <trkpt lat="43.63412" lon="3.27887">
        <ele>198.2</ele>
        <time>2014-09-28T07:40:52Z</time>
      </trkpt>
      <trkpt lat="43.63412" lon="3.27879">
        <ele>197.9</ele>
        <time>2014-09-28T07:40:54Z</time>
      </trkpt>
      <trkpt lat="43.63413" lon="3.27871">
        <ele>197.6</ele>
        <time>2014-09-28T07:40:56Z</time>
      </trkpt>
      <trkpt lat="43.63414" lon="3.27862">
        <ele>197.2</ele>
        <time>2014-09-28T07:40:58Z</time>
      </trkpt>
      <trkpt lat="43.63416" lon="3.27853">
        <ele>196.8</ele>
        <time>2014-09-28T07:41:00Z</time>
      </trkpt>
      <trkpt lat="43.63417" lon="3.27844">
        <ele>196.4</ele>
        <time>2014-09-28T07:41:02Z</time>
      </trkpt>
      <trkpt lat="43.63419" lon="3.27836">
        <ele>196</ele>
        <time>2014-09-28T07:41:04Z</time>
      </trkpt>
      <trkpt lat="43.6342" lon="3.27827">
        <ele>195.6</ele>
        <time>2014-09-28T07:41:06Z</time>
      </trkpt>
      <trkpt lat="43.6342" lon="3.27817">
        <ele>195.1</ele>
        <time>2014-09-28T07:41:08Z</time>
      </trkpt>
      <trkpt lat="43.6342" lon="3.27811">
        <ele>194.8</ele>
        <time>2014-09-28T07:41:09Z</time>
      </trkpt>
      <trkpt lat="43.6342" lon="3.27804">
        <ele>194.4</ele>
        <time>2014-09-28T07:41:10Z</time>
      </trkpt>
      <trkpt lat="43.6342" lon="3.27798">
        <ele>194.1</ele>
        <time>2014-09-28T07:41:11Z</time>
      </trkpt>
      <trkpt lat="43.6342" lon="3.27787">
        <ele>193.8</ele>
        <time>2014-09-28T07:41:13Z</time>
      </trkpt>
      <trkpt lat="43.6342" lon="3.27777">
        <ele>193.8</ele>
        <time>2014-09-28T07:41:15Z</time>
      </trkpt>
      <trkpt lat="43.6342" lon="3.27768">
        <ele>193.9</ele>
        <time>2014-09-28T07:41:17Z</time>
      </trkpt>
      <trkpt lat="43.63421" lon="3.27762">
        <ele>194</ele>
        <time>2014-09-28T07:41:19Z</time>
      </trkpt>
      <trkpt lat="43.6342" lon="3.27754">
        <ele>193.9</ele>
        <time>2014-09-28T07:41:21Z</time>
      </trkpt>
      <trkpt lat="43.63419" lon="3.27746">
        <ele>193.9</ele>
        <time>2014-09-28T07:41:23Z</time>
      </trkpt>
      <trkpt lat="43.63418" lon="3.27738">
        <ele>193.9</ele>
        <time>2014-09-28T07:41:25Z</time>
      </trkpt>
      <trkpt lat="43.63416" lon="3.27731">
        <ele>193.8</ele>
        <time>2014-09-28T07:41:27Z</time>
      </trkpt>
      <trkpt lat="43.63415" lon="3.27722">
        <ele>193.8</ele>
        <time>2014-09-28T07:41:29Z</time>
      </trkpt>
      <trkpt lat="43.63413" lon="3.27711">
        <ele>193.8</ele>
        <time>2014-09-28T07:41:31Z</time>
      </trkpt>
      <trkpt lat="43.63413" lon="3.27704">
        <ele>194.2</ele>
        <time>2014-09-28T07:41:32Z</time>
      </trkpt>
      <trkpt lat="43.63412" lon="3.27698">
        <ele>194.7</ele>
        <time>2014-09-28T07:41:33Z</time>
      </trkpt>
      <trkpt lat="43.63411" lon="3.27692">
        <ele>195.3</ele>
        <time>2014-09-28T07:41:34Z</time>
      </trkpt>
      <trkpt lat="43.63408" lon="3.27681">
        <ele>196.2</ele>
        <time>2014-09-28T07:41:36Z</time>
      </trkpt>
      <trkpt lat="43.63406" lon="3.27672">
        <ele>197.1</ele>
        <time>2014-09-28T07:41:38Z</time>
      </trkpt>
      <trkpt lat="43.63404" lon="3.27664">
        <ele>197.8</ele>
        <time>2014-09-28T07:41:40Z</time>
      </trkpt>
      <trkpt lat="43.63403" lon="3.27654">
        <ele>198.8</ele>
        <time>2014-09-28T07:41:42Z</time>
      </trkpt>
      <trkpt lat="43.63406" lon="3.27645">
        <ele>199.6</ele>
        <time>2014-09-28T07:41:44Z</time>
      </trkpt>
      <trkpt lat="43.6341" lon="3.27637">
        <ele>200.5</ele>
        <time>2014-09-28T07:41:46Z</time>
      </trkpt>
      <trkpt lat="43.63414" lon="3.27628">
        <ele>201.2</ele>
        <time>2014-09-28T07:41:48Z</time>
      </trkpt>
      <trkpt lat="43.63418" lon="3.27621">
        <ele>201.6</ele>
        <time>2014-09-28T07:41:50Z</time>
      </trkpt>
      <trkpt lat="43.6342" lon="3.27612">
        <ele>201.9</ele>
        <time>2014-09-28T07:41:52Z</time>
      </trkpt>
      <trkpt lat="43.63424" lon="3.27605">
        <ele>202.1</ele>
        <time>2014-09-28T07:41:54Z</time>
      </trkpt>
      <trkpt lat="43.63428" lon="3.27601">
        <ele>202.2</ele>
        <time>2014-09-28T07:41:56Z</time>
      </trkpt>
      <trkpt lat="43.63433" lon="3.27596">
        <ele>202.4</ele>
        <time>2014-09-28T07:41:59Z</time>
      </trkpt>
      <trkpt lat="43.63437" lon="3.27589">
        <ele>202.6</ele>
        <time>2014-09-28T07:42:02Z</time>
      </trkpt>
      <trkpt lat="43.63443" lon="3.2759">
        <ele>202.4</ele>
        <time>2014-09-28T07:42:05Z</time>
      </trkpt>
      <trkpt lat="43.63448" lon="3.27588">
        <ele>202.5</ele>
        <time>2014-09-28T07:42:08Z</time>
      </trkpt>
      <trkpt lat="43.63453" lon="3.27582">
        <ele>202.6</ele>
        <time>2014-09-28T07:42:11Z</time>
      </trkpt>
      <trkpt lat="43.63455" lon="3.27574">
        <ele>202.9</ele>
        <time>2014-09-28T07:42:14Z</time>
      </trkpt>
      <trkpt lat="43.63458" lon="3.27566">
        <ele>203.1</ele>
        <time>2014-09-28T07:42:17Z</time>
      </trkpt>
      <trkpt lat="43.63459" lon="3.27559">
        <ele>203.4</ele>
        <time>2014-09-28T07:42:20Z</time>
      </trkpt>
      <trkpt lat="43.6346" lon="3.2755">
        <ele>203.6</ele>
        <time>2014-09-28T07:42:23Z</time>
      </trkpt>
      <trkpt lat="43.63462" lon="3.27543">
        <ele>203.8</ele>
        <time>2014-09-28T07:42:26Z</time>
      </trkpt>
      <trkpt lat="43.63464" lon="3.27535">
        <ele>204.1</ele>
        <time>2014-09-28T07:42:29Z</time>
      </trkpt>
      <trkpt lat="43.63466" lon="3.27527">
        <ele>204.4</ele>
        <time>2014-09-28T07:42:32Z</time>
      </trkpt>
      <trkpt lat="43.63467" lon="3.2752">
        <ele>204.8</ele>
        <time>2014-09-28T07:42:35Z</time>
      </trkpt>
      <trkpt lat="43.63465" lon="3.27511">
        <ele>205.3</ele>
        <time>2014-09-28T07:42:38Z</time>
      </trkpt>
      <trkpt lat="43.63464" lon="3.27498">
        <ele>206</ele>
        <time>2014-09-28T07:42:42Z</time>
      </trkpt>
      <trkpt lat="43.63465" lon="3.27489">
        <ele>206.5</ele>
        <time>2014-09-28T07:42:45Z</time>
      </trkpt>
      <trkpt lat="43.63465" lon="3.27482">
        <ele>206.8</ele>
        <time>2014-09-28T07:42:47Z</time>
      </trkpt>
      <trkpt lat="43.63464" lon="3.27469">
        <ele>207.5</ele>
        <time>2014-09-28T07:42:55Z</time>
      </trkpt>
      <trkpt lat="43.63468" lon="3.27457">
        <ele>208.2</ele>
        <time>2014-09-28T07:43:05Z</time>
      </trkpt>
      <trkpt lat="43.63469" lon="3.2745">
        <ele>208.3</ele>
        <time>2014-09-28T07:43:09Z</time>
      </trkpt>
      <trkpt lat="43.6347" lon="3.27443">
        <ele>208.5</ele>
        <time>2014-09-28T07:43:16Z</time>
      </trkpt>
      <trkpt lat="43.63469" lon="3.27436">
        <ele>208.6</ele>
        <time>2014-09-28T07:43:22Z</time>
      </trkpt>
      <trkpt lat="43.6347" lon="3.2743">
        <ele>208.8</ele>
        <time>2014-09-28T07:43:26Z</time>
      </trkpt>
      <trkpt lat="43.63472" lon="3.27422">
        <ele>209.1</ele>
        <time>2014-09-28T07:43:33Z</time>
      </trkpt>
      <trkpt lat="43.63475" lon="3.27414">
        <ele>209.5</ele>
        <time>2014-09-28T07:43:36Z</time>
      </trkpt>
      <trkpt lat="43.63478" lon="3.27408">
        <ele>209.8</ele>
        <time>2014-09-28T07:43:39Z</time>
      </trkpt>
      <trkpt lat="43.63481" lon="3.27395">
        <ele>210.5</ele>
        <time>2014-09-28T07:43:46Z</time>
      </trkpt>
      <trkpt lat="43.63482" lon="3.27388">
        <ele>210.8</ele>
        <time>2014-09-28T07:43:50Z</time>
      </trkpt>
      <trkpt lat="43.63483" lon="3.27381">
        <ele>211.1</ele>
        <time>2014-09-28T07:43:53Z</time>
      </trkpt>
      <trkpt lat="43.63484" lon="3.27375">
        <ele>211.5</ele>
        <time>2014-09-28T07:43:56Z</time>
      </trkpt>
      <trkpt lat="43.63486" lon="3.27367">
        <ele>211.9</ele>
        <time>2014-09-28T07:44:00Z</time>
      </trkpt>
      <trkpt lat="43.63487" lon="3.27361">
        <ele>212.3</ele>
        <time>2014-09-28T07:44:03Z</time>
      </trkpt>
      <trkpt lat="43.63489" lon="3.27353">
        <ele>212.8</ele>
        <time>2014-09-28T07:44:06Z</time>
      </trkpt>
      <trkpt lat="43.63488" lon="3.27347">
        <ele>213</ele>
        <time>2014-09-28T07:44:09Z</time>
      </trkpt>
      <trkpt lat="43.63483" lon="3.27348">
        <ele>212.4</ele>
        <time>2014-09-28T07:44:14Z</time>
      </trkpt>
      <trkpt lat="43.6348" lon="3.27353">
        <ele>211.9</ele>
        <time>2014-09-28T07:44:44Z</time>
      </trkpt>
      <trkpt lat="43.63471" lon="3.27359">
        <ele>210.9</ele>
        <time>2014-09-28T07:44:55Z</time>
      </trkpt>
      <trkpt lat="43.63465" lon="3.27361">
        <ele>210.1</ele>
        <time>2014-09-28T07:44:58Z</time>
      </trkpt>
      <trkpt lat="43.63459" lon="3.27365">
        <ele>209.5</ele>
        <time>2014-09-28T07:45:00Z</time>
      </trkpt>
      <trkpt lat="43.63453" lon="3.27371">
        <ele>208.7</ele>
        <time>2014-09-28T07:45:02Z</time>
      </trkpt>
      <trkpt lat="43.63448" lon="3.27378">
        <ele>208.1</ele>
        <time>2014-09-28T07:45:04Z</time>
      </trkpt>
      <trkpt lat="43.63442" lon="3.27384">
        <ele>207.6</ele>
        <time>2014-09-28T07:45:06Z</time>
      </trkpt>
      <trkpt lat="43.63436" lon="3.2739">
        <ele>207</ele>
        <time>2014-09-28T07:45:08Z</time>
      </trkpt>
      <trkpt lat="43.6343" lon="3.27399">
        <ele>206.5</ele>
        <time>2014-09-28T07:45:10Z</time>
      </trkpt>
      <trkpt lat="43.63428" lon="3.27406">
        <ele>206.3</ele>
        <time>2014-09-28T07:45:11Z</time>
      </trkpt>
      <trkpt lat="43.63425" lon="3.27413">
        <ele>206.1</ele>
        <time>2014-09-28T07:45:12Z</time>
      </trkpt>
      <trkpt lat="43.63422" lon="3.2742">
        <ele>205.9</ele>
        <time>2014-09-28T07:45:13Z</time>
      </trkpt>
      <trkpt lat="43.63419" lon="3.27427">
        <ele>205.7</ele>
        <time>2014-09-28T07:45:14Z</time>
      </trkpt>
      <trkpt lat="43.63415" lon="3.27434">
        <ele>205.4</ele>
        <time>2014-09-28T07:45:15Z</time>
      </trkpt>
      <trkpt lat="43.63411" lon="3.27441">
        <ele>205.1</ele>
        <time>2014-09-28T07:45:16Z</time>
      </trkpt>
      <trkpt lat="43.63406" lon="3.27448">
        <ele>204.8</ele>
        <time>2014-09-28T07:45:17Z</time>
      </trkpt>
      <trkpt lat="43.63401" lon="3.27453">
        <ele>204.5</ele>
        <time>2014-09-28T07:45:18Z</time>
      </trkpt>
      <trkpt lat="43.63396" lon="3.27459">
        <ele>204.2</ele>
        <time>2014-09-28T07:45:19Z</time>
      </trkpt>
      <trkpt lat="43.63396" lon="3.27459">
        <ele>204.2</ele>
        <time>2014-09-28T07:45:19Z</time>
      </trkpt>
      <trkpt lat="43.6339" lon="3.27464">
        <ele>203.9</ele>
        <time>2014-09-28T07:45:20Z</time>
      </trkpt>
      <trkpt lat="43.63384" lon="3.27469">
        <ele>203.7</ele>
        <time>2014-09-28T07:45:21Z</time>
      </trkpt>
      <trkpt lat="43.63377" lon="3.27473">
        <ele>203.5</ele>
        <time>2014-09-28T07:45:22Z</time>
      </trkpt>
      <trkpt lat="43.63371" lon="3.27478">
        <ele>203</ele>
        <time>2014-09-28T07:45:23Z</time>
      </trkpt>
      <trkpt lat="43.63365" lon="3.27482">
        <ele>202.5</ele>
        <time>2014-09-28T07:45:24Z</time>
      </trkpt>
      <trkpt lat="43.63359" lon="3.27487">
        <ele>201.9</ele>
        <time>2014-09-28T07:45:25Z</time>
      </trkpt>
      <trkpt lat="43.63352" lon="3.2749">
        <ele>201.3</ele>
        <time>2014-09-28T07:45:26Z</time>
      </trkpt>
      <trkpt lat="43.63346" lon="3.27493">
        <ele>200.7</ele>
        <time>2014-09-28T07:45:27Z</time>
      </trkpt>
      <trkpt lat="43.63339" lon="3.27495">
        <ele>200</ele>
        <time>2014-09-28T07:45:28Z</time>
      </trkpt>
      <trkpt lat="43.63332" lon="3.27497">
        <ele>199.3</ele>
        <time>2014-09-28T07:45:29Z</time>
      </trkpt>
      <trkpt lat="43.63326" lon="3.27499">
        <ele>198.6</ele>
        <time>2014-09-28T07:45:30Z</time>
      </trkpt>
      <trkpt lat="43.63319" lon="3.27502">
        <ele>198</ele>
        <time>2014-09-28T07:45:31Z</time>
      </trkpt>
      <trkpt lat="43.63313" lon="3.27504">
        <ele>197.4</ele>
        <time>2014-09-28T07:45:32Z</time>
      </trkpt>
      <trkpt lat="43.63306" lon="3.27506">
        <ele>196.7</ele>
        <time>2014-09-28T07:45:33Z</time>
      </trkpt>
      <trkpt lat="43.633" lon="3.27507">
        <ele>196</ele>
        <time>2014-09-28T07:45:34Z</time>
      </trkpt>
      <trkpt lat="43.63293" lon="3.27507">
        <ele>195.3</ele>
        <time>2014-09-28T07:45:35Z</time>
      </trkpt>
      <trkpt lat="43.63287" lon="3.27505">
        <ele>194.9</ele>
        <time>2014-09-28T07:45:36Z</time>
      </trkpt>
      <trkpt lat="43.6328" lon="3.27502">
        <ele>194.6</ele>
        <time>2014-09-28T07:45:37Z</time>
      </trkpt>
      <trkpt lat="43.63275" lon="3.27499">
        <ele>194.3</ele>
        <time>2014-09-28T07:45:38Z</time>
      </trkpt>
      <trkpt lat="43.63269" lon="3.27494">
        <ele>194</ele>
        <time>2014-09-28T07:45:39Z</time>
      </trkpt>
      <trkpt lat="43.63264" lon="3.27489">
        <ele>193.7</ele>
        <time>2014-09-28T07:45:40Z</time>
      </trkpt>
      <trkpt lat="43.63258" lon="3.27484">
        <ele>193.4</ele>
        <time>2014-09-28T07:45:41Z</time>
      </trkpt>
      <trkpt lat="43.63252" lon="3.2748">
        <ele>193.2</ele>
        <time>2014-09-28T07:45:42Z</time>
      </trkpt>
      <trkpt lat="43.63246" lon="3.27477">
        <ele>193</ele>
        <time>2014-09-28T07:45:43Z</time>
      </trkpt>
      <trkpt lat="43.6324" lon="3.27476">
        <ele>192.8</ele>
        <time>2014-09-28T07:45:44Z</time>
      </trkpt>
      <trkpt lat="43.63234" lon="3.27478">
        <ele>192.6</ele>
        <time>2014-09-28T07:45:45Z</time>
      </trkpt>
      <trkpt lat="43.63229" lon="3.2748">
        <ele>192.4</ele>
        <time>2014-09-28T07:45:46Z</time>
      </trkpt>
      <trkpt lat="43.63224" lon="3.27483">
        <ele>192.2</ele>
        <time>2014-09-28T07:45:47Z</time>
      </trkpt>
      <trkpt lat="43.63219" lon="3.27485">
        <ele>192.1</ele>
        <time>2014-09-28T07:45:48Z</time>
      </trkpt>
      <trkpt lat="43.63212" lon="3.27488">
        <ele>191.8</ele>
        <time>2014-09-28T07:45:50Z</time>
      </trkpt>
      <trkpt lat="43.63206" lon="3.27488">
        <ele>191.6</ele>
        <time>2014-09-28T07:45:52Z</time>
      </trkpt>
      <trkpt lat="43.63199" lon="3.27488">
        <ele>191.3</ele>
        <time>2014-09-28T07:45:54Z</time>
      </trkpt>
      <trkpt lat="43.63191" lon="3.27486">
        <ele>191</ele>
        <time>2014-09-28T07:45:56Z</time>
      </trkpt>
      <trkpt lat="43.63186" lon="3.27485">
        <ele>190.9</ele>
        <time>2014-09-28T07:45:57Z</time>
      </trkpt>
      <trkpt lat="43.63178" lon="3.27483">
        <ele>190.6</ele>
        <time>2014-09-28T07:45:59Z</time>
      </trkpt>
      <trkpt lat="43.63172" lon="3.27481">
        <ele>190.4</ele>
        <time>2014-09-28T07:46:01Z</time>
      </trkpt>
      <trkpt lat="43.63166" lon="3.27477">
        <ele>190.3</ele>
        <time>2014-09-28T07:46:03Z</time>
      </trkpt>
      <trkpt lat="43.63163" lon="3.27471">
        <ele>190.2</ele>
        <time>2014-09-28T07:46:05Z</time>
      </trkpt>
      <trkpt lat="43.63165" lon="3.27464">
        <ele>190.4</ele>
        <time>2014-09-28T07:46:08Z</time>
      </trkpt>
      <trkpt lat="43.63169" lon="3.27459">
        <ele>190.6</ele>
        <time>2014-09-28T07:46:11Z</time>
      </trkpt>
      <trkpt lat="43.6317" lon="3.27452">
        <ele>190.8</ele>
        <time>2014-09-28T07:46:22Z</time>
      </trkpt>
      <trkpt lat="43.63173" lon="3.27446">
        <ele>191.2</ele>
        <time>2014-09-28T07:46:24Z</time>
      </trkpt>
      <trkpt lat="43.63176" lon="3.2744">
        <ele>191.5</ele>
        <time>2014-09-28T07:46:26Z</time>
      </trkpt>
      <trkpt lat="43.6318" lon="3.27432">
        <ele>191.9</ele>
        <time>2014-09-28T07:46:28Z</time>
      </trkpt>
      <trkpt lat="43.63183" lon="3.27425">
        <ele>192.3</ele>
        <time>2014-09-28T07:46:30Z</time>
      </trkpt>
      <trkpt lat="43.63187" lon="3.27418">
        <ele>192.7</ele>
        <time>2014-09-28T07:46:32Z</time>
      </trkpt>
      <trkpt lat="43.6319" lon="3.27412">
        <ele>193</ele>
        <time>2014-09-28T07:46:34Z</time>
      </trkpt>
      <trkpt lat="43.63193" lon="3.27406">
        <ele>193.3</ele>
        <time>2014-09-28T07:46:36Z</time>
      </trkpt>
      <trkpt lat="43.63197" lon="3.274">
        <ele>193.7</ele>
        <time>2014-09-28T07:46:38Z</time>
      </trkpt>
      <trkpt lat="43.63201" lon="3.27394">
        <ele>194</ele>
        <time>2014-09-28T07:46:40Z</time>
      </trkpt>
      <trkpt lat="43.63204" lon="3.27387">
        <ele>194.4</ele>
        <time>2014-09-28T07:46:42Z</time>
      </trkpt>
      <trkpt lat="43.63206" lon="3.2738">
        <ele>194.7</ele>
        <time>2014-09-28T07:46:44Z</time>
      </trkpt>
      <trkpt lat="43.63208" lon="3.27374">
        <ele>195.1</ele>
        <time>2014-09-28T07:46:46Z</time>
      </trkpt>
      <trkpt lat="43.63209" lon="3.27367">
        <ele>195.6</ele>
        <time>2014-09-28T07:46:48Z</time>
      </trkpt>
      <trkpt lat="43.63209" lon="3.27359">
        <ele>196.2</ele>
        <time>2014-09-28T07:46:51Z</time>
      </trkpt>
      <trkpt lat="43.6321" lon="3.27352">
        <ele>196.6</ele>
        <time>2014-09-28T07:46:53Z</time>
      </trkpt>
      <trkpt lat="43.63212" lon="3.27343">
        <ele>197.2</ele>
        <time>2014-09-28T07:46:56Z</time>
      </trkpt>
      <trkpt lat="43.63214" lon="3.27337">
        <ele>197.7</ele>
        <time>2014-09-28T07:46:59Z</time>
      </trkpt>
      <trkpt lat="43.63215" lon="3.2733">
        <ele>198.1</ele>
        <time>2014-09-28T07:47:02Z</time>
      </trkpt>
      <trkpt lat="43.63216" lon="3.27324">
        <ele>198.5</ele>
        <time>2014-09-28T07:47:05Z</time>
      </trkpt>
      <trkpt lat="43.63216" lon="3.27324">
        <ele>198.5</ele>
        <time>2014-09-28T07:47:05Z</time>
      </trkpt>
      <trkpt lat="43.63218" lon="3.27317">
        <ele>199</ele>
        <time>2014-09-28T07:47:08Z</time>
      </trkpt>
      <trkpt lat="43.6322" lon="3.27309">
        <ele>199.4</ele>
        <time>2014-09-28T07:47:11Z</time>
      </trkpt>
      <trkpt lat="43.63221" lon="3.27303">
        <ele>199.8</ele>
        <time>2014-09-28T07:47:14Z</time>
      </trkpt>
      <trkpt lat="43.63223" lon="3.27295">
        <ele>200.3</ele>
        <time>2014-09-28T07:47:17Z</time>
      </trkpt>
      <trkpt lat="43.63224" lon="3.27289">
        <ele>200.6</ele>
        <time>2014-09-28T07:47:20Z</time>
      </trkpt>
      <trkpt lat="43.63226" lon="3.27283">
        <ele>201</ele>
        <time>2014-09-28T07:47:23Z</time>
      </trkpt>
      <trkpt lat="43.63228" lon="3.27276">
        <ele>201.4</ele>
        <time>2014-09-28T07:47:27Z</time>
      </trkpt>
      <trkpt lat="43.6323" lon="3.27269">
        <ele>201.8</ele>
        <time>2014-09-28T07:47:30Z</time>
      </trkpt>
      <trkpt lat="43.63232" lon="3.27261">
        <ele>202.3</ele>
        <time>2014-09-28T07:47:33Z</time>
      </trkpt>
      <trkpt lat="43.63234" lon="3.27253">
        <ele>202.8</ele>
        <time>2014-09-28T07:47:36Z</time>
      </trkpt>
      <trkpt lat="43.63235" lon="3.27244">
        <ele>203.3</ele>
        <time>2014-09-28T07:47:39Z</time>
      </trkpt>
      <trkpt lat="43.63236" lon="3.27237">
        <ele>203.8</ele>
        <time>2014-09-28T07:47:41Z</time>
      </trkpt>
      <trkpt lat="43.63236" lon="3.2723">
        <ele>204.2</ele>
        <time>2014-09-28T07:47:43Z</time>
      </trkpt>
      <trkpt lat="43.63237" lon="3.27221">
        <ele>204.8</ele>
        <time>2014-09-28T07:47:46Z</time>
      </trkpt>
      <trkpt lat="43.63238" lon="3.27213">
        <ele>205.3</ele>
        <time>2014-09-28T07:47:49Z</time>
      </trkpt>
      <trkpt lat="43.63237" lon="3.27205">
        <ele>205.8</ele>
        <time>2014-09-28T07:47:52Z</time>
      </trkpt>
      <trkpt lat="43.63235" lon="3.27193">
        <ele>206.4</ele>
        <time>2014-09-28T07:47:56Z</time>
      </trkpt>
      <trkpt lat="43.63233" lon="3.27184">
        <ele>206.9</ele>
        <time>2014-09-28T07:47:59Z</time>
      </trkpt>
      <trkpt lat="43.63232" lon="3.27178">
        <ele>207.2</ele>
        <time>2014-09-28T07:48:01Z</time>
      </trkpt>
      <trkpt lat="43.63231" lon="3.27169">
        <ele>207.6</ele>
        <time>2014-09-28T07:48:04Z</time>
      </trkpt>
      <trkpt lat="43.6323" lon="3.27162">
        <ele>207.9</ele>
        <time>2014-09-28T07:48:06Z</time>
      </trkpt>
      <trkpt lat="43.6323" lon="3.27154">
        <ele>208.3</ele>
        <time>2014-09-28T07:48:08Z</time>
      </trkpt>
      <trkpt lat="43.63229" lon="3.27147">
        <ele>208.6</ele>
        <time>2014-09-28T07:48:10Z</time>
      </trkpt>
      <trkpt lat="43.63229" lon="3.2714">
        <ele>208.9</ele>
        <time>2014-09-28T07:48:12Z</time>
      </trkpt>
      <trkpt lat="43.63228" lon="3.27133">
        <ele>209.2</ele>
        <time>2014-09-28T07:48:14Z</time>
      </trkpt>
      <trkpt lat="43.63227" lon="3.27126">
        <ele>209.5</ele>
        <time>2014-09-28T07:48:16Z</time>
      </trkpt>
      <trkpt lat="43.63226" lon="3.27119">
        <ele>209.5</ele>
        <time>2014-09-28T07:48:18Z</time>
      </trkpt>
      <trkpt lat="43.63226" lon="3.27112">
        <ele>209.4</ele>
        <time>2014-09-28T07:48:20Z</time>
      </trkpt>
      <trkpt lat="43.63225" lon="3.27105">
        <ele>209.4</ele>
        <time>2014-09-28T07:48:22Z</time>
      </trkpt>
      <trkpt lat="43.63224" lon="3.27099">
        <ele>209.3</ele>
        <time>2014-09-28T07:48:24Z</time>
      </trkpt>
      <trkpt lat="43.63222" lon="3.27093">
        <ele>209.2</ele>
        <time>2014-09-28T07:48:26Z</time>
      </trkpt>
      <trkpt lat="43.63222" lon="3.27086">
        <ele>209.1</ele>
        <time>2014-09-28T07:48:28Z</time>
      </trkpt>
      <trkpt lat="43.63222" lon="3.27078">
        <ele>209</ele>
        <time>2014-09-28T07:48:30Z</time>
      </trkpt>
      <trkpt lat="43.6322" lon="3.2707">
        <ele>208.9</ele>
        <time>2014-09-28T07:48:33Z</time>
      </trkpt>
      <trkpt lat="43.63217" lon="3.27065">
        <ele>208.7</ele>
        <time>2014-09-28T07:48:35Z</time>
      </trkpt>
      <trkpt lat="43.63212" lon="3.27058">
        <ele>208.5</ele>
        <time>2014-09-28T07:48:38Z</time>
      </trkpt>
      <trkpt lat="43.63208" lon="3.27052">
        <ele>208.2</ele>
        <time>2014-09-28T07:48:41Z</time>
      </trkpt>
      <trkpt lat="43.63204" lon="3.27046">
        <ele>207.8</ele>
        <time>2014-09-28T07:48:44Z</time>
      </trkpt>
      <trkpt lat="43.63203" lon="3.2704">
        <ele>207.7</ele>
        <time>2014-09-28T07:48:46Z</time>
      </trkpt>
      <trkpt lat="43.63198" lon="3.27029">
        <ele>207.9</ele>
        <time>2014-09-28T07:48:50Z</time>
      </trkpt>
      <trkpt lat="43.63196" lon="3.27023">
        <ele>208</ele>
        <time>2014-09-28T07:48:52Z</time>
      </trkpt>
      <trkpt lat="43.63194" lon="3.27016">
        <ele>208.1</ele>
        <time>2014-09-28T07:48:54Z</time>
      </trkpt>
      <trkpt lat="43.63191" lon="3.27008">
        <ele>208.3</ele>
        <time>2014-09-28T07:48:57Z</time>
      </trkpt>
      <trkpt lat="43.6319" lon="3.27">
        <ele>208.5</ele>
        <time>2014-09-28T07:49:00Z</time>
      </trkpt>
      <trkpt lat="43.63187" lon="3.26992">
        <ele>208.7</ele>
        <time>2014-09-28T07:49:03Z</time>
      </trkpt>
      <trkpt lat="43.63184" lon="3.2698">
        <ele>209</ele>
        <time>2014-09-28T07:49:07Z</time>
      </trkpt>
      <trkpt lat="43.63181" lon="3.26972">
        <ele>209.1</ele>
        <time>2014-09-28T07:49:10Z</time>
      </trkpt>
      <trkpt lat="43.63178" lon="3.26967">
        <ele>209.1</ele>
        <time>2014-09-28T07:49:14Z</time>
      </trkpt>
      <trkpt lat="43.63174" lon="3.26963">
        <ele>208.9</ele>
        <time>2014-09-28T07:49:21Z</time>
      </trkpt>
      <trkpt lat="43.63171" lon="3.26958">
        <ele>208.8</ele>
        <time>2014-09-28T07:49:24Z</time>
      </trkpt>
      <trkpt lat="43.63165" lon="3.26954">
        <ele>208.2</ele>
        <time>2014-09-28T07:49:27Z</time>
      </trkpt>
      <trkpt lat="43.6316" lon="3.26957">
        <ele>207.9</ele>
        <time>2014-09-28T07:49:30Z</time>
      </trkpt>
      <trkpt lat="43.63165" lon="3.26956">
        <ele>208.3</ele>
        <time>2014-09-28T07:49:40Z</time>
      </trkpt>
      <trkpt lat="43.63169" lon="3.26953">
        <ele>208.6</ele>
        <time>2014-09-28T07:49:45Z</time>
      </trkpt>
      <trkpt lat="43.63174" lon="3.26951">
        <ele>208.9</ele>
        <time>2014-09-28T07:51:14Z</time>
      </trkpt>
      <trkpt lat="43.6317" lon="3.26954">
        <ele>208.6</ele>
        <time>2014-09-28T07:52:08Z</time>
      </trkpt>
      <trkpt lat="43.63165" lon="3.26956">
        <ele>208.3</ele>
        <time>2014-09-28T07:52:47Z</time>
      </trkpt>
      <trkpt lat="43.6316" lon="3.26957">
        <ele>207.9</ele>
        <time>2014-09-28T07:53:04Z</time>
      </trkpt>
      <trkpt lat="43.63165" lon="3.26956">
        <ele>208.2</ele>
        <time>2014-09-28T07:53:24Z</time>
      </trkpt>
      <trkpt lat="43.63169" lon="3.26954">
        <ele>208.6</ele>
        <time>2014-09-28T07:53:32Z</time>
      </trkpt>
      <trkpt lat="43.63165" lon="3.26958">
        <ele>208.4</ele>
        <time>2014-09-28T07:53:44Z</time>
      </trkpt>
      <trkpt lat="43.6316" lon="3.26957">
        <ele>207.9</ele>
        <time>2014-09-28T07:53:50Z</time>
      </trkpt>
      <trkpt lat="43.63162" lon="3.26951">
        <ele>207.9</ele>
        <time>2014-09-28T07:55:33Z</time>
      </trkpt>
      <trkpt lat="43.63159" lon="3.26946">
        <ele>207.4</ele>
        <time>2014-09-28T07:55:50Z</time>
      </trkpt>
      <trkpt lat="43.63162" lon="3.26939">
        <ele>207.4</ele>
        <time>2014-09-28T07:56:28Z</time>
      </trkpt>
      <trkpt lat="43.63162" lon="3.26939">
        <ele>207.4</ele>
        <time>2014-09-28T07:56:28Z</time>
      </trkpt>
      <trkpt lat="43.63162" lon="3.2693">
        <ele>207.2</ele>
        <time>2014-09-28T07:56:31Z</time>
      </trkpt>
      <trkpt lat="43.63162" lon="3.26921">
        <ele>206.9</ele>
        <time>2014-09-28T07:56:34Z</time>
      </trkpt>
      <trkpt lat="43.63163" lon="3.26909">
        <ele>206.6</ele>
        <time>2014-09-28T07:56:38Z</time>
      </trkpt>
      <trkpt lat="43.63162" lon="3.26901">
        <ele>206.2</ele>
        <time>2014-09-28T07:56:41Z</time>
      </trkpt>
      <trkpt lat="43.63161" lon="3.26894">
        <ele>205.8</ele>
        <time>2014-09-28T07:56:45Z</time>
      </trkpt>
      <trkpt lat="43.63165" lon="3.26892">
        <ele>206.3</ele>
        <time>2014-09-28T07:57:02Z</time>
      </trkpt>
      <trkpt lat="43.6317" lon="3.26893">
        <ele>206.9</ele>
        <time>2014-09-28T07:57:16Z</time>
      </trkpt>
      <trkpt lat="43.63169" lon="3.26885">
        <ele>206.6</ele>
        <time>2014-09-28T07:57:23Z</time>
      </trkpt>
      <trkpt lat="43.63166" lon="3.2688">
        <ele>206</ele>
        <time>2014-09-28T07:57:25Z</time>
      </trkpt>
      <trkpt lat="43.63163" lon="3.26872">
        <ele>205.5</ele>
        <time>2014-09-28T07:57:28Z</time>
      </trkpt>
      <trkpt lat="43.63161" lon="3.26867">
        <ele>205.1</ele>
        <time>2014-09-28T07:58:00Z</time>
      </trkpt>
      <trkpt lat="43.63162" lon="3.26859">
        <ele>205.1</ele>
        <time>2014-09-28T07:58:06Z</time>
      </trkpt>
      <trkpt lat="43.63163" lon="3.26851">
        <ele>205.2</ele>
        <time>2014-09-28T07:58:09Z</time>
      </trkpt>
      <trkpt lat="43.63162" lon="3.26844">
        <ele>205</ele>
        <time>2014-09-28T07:58:11Z</time>
      </trkpt>
      <trkpt lat="43.63161" lon="3.26836">
        <ele>204.7</ele>
        <time>2014-09-28T07:58:13Z</time>
      </trkpt>
      <trkpt lat="43.63161" lon="3.26827">
        <ele>204.6</ele>
        <time>2014-09-28T07:58:15Z</time>
      </trkpt>
      <trkpt lat="43.63161" lon="3.26818">
        <ele>204.4</ele>
        <time>2014-09-28T07:58:17Z</time>
      </trkpt>
      <trkpt lat="43.63159" lon="3.26808">
        <ele>204.1</ele>
        <time>2014-09-28T07:58:19Z</time>
      </trkpt>
      <trkpt lat="43.63158" lon="3.26797">
        <ele>203.8</ele>
        <time>2014-09-28T07:58:21Z</time>
      </trkpt>
      <trkpt lat="43.63157" lon="3.26785">
        <ele>203.4</ele>
        <time>2014-09-28T07:58:23Z</time>
      </trkpt>
      <trkpt lat="43.63157" lon="3.26779">
        <ele>203.2</ele>
        <time>2014-09-28T07:58:24Z</time>
      </trkpt>
      <trkpt lat="43.63156" lon="3.26772">
        <ele>203</ele>
        <time>2014-09-28T07:58:25Z</time>
      </trkpt>
      <trkpt lat="43.63156" lon="3.26766">
        <ele>202.8</ele>
        <time>2014-09-28T07:58:26Z</time>
      </trkpt>
      <trkpt lat="43.63156" lon="3.26759">
        <ele>202.7</ele>
        <time>2014-09-28T07:58:27Z</time>
      </trkpt>
      <trkpt lat="43.63157" lon="3.26752">
        <ele>202.6</ele>
        <time>2014-09-28T07:58:28Z</time>
      </trkpt>
      <trkpt lat="43.63158" lon="3.26745">
        <ele>202.5</ele>
        <time>2014-09-28T07:58:29Z</time>
      </trkpt>
      <trkpt lat="43.63159" lon="3.26738">
        <ele>202.5</ele>
        <time>2014-09-28T07:58:30Z</time>
      </trkpt>
      <trkpt lat="43.63161" lon="3.26732">
        <ele>202.5</ele>
        <time>2014-09-28T07:58:31Z</time>
      </trkpt>
      <trkpt lat="43.63163" lon="3.2672">
        <ele>202.4</ele>
        <time>2014-09-28T07:58:33Z</time>
      </trkpt>
      <trkpt lat="43.63164" lon="3.26714">
        <ele>202.3</ele>
        <time>2014-09-28T07:58:34Z</time>
      </trkpt>
      <trkpt lat="43.63165" lon="3.26707">
        <ele>202.2</ele>
        <time>2014-09-28T07:58:35Z</time>
      </trkpt>
      <trkpt lat="43.63166" lon="3.267">
        <ele>202.1</ele>
        <time>2014-09-28T07:58:36Z</time>
      </trkpt>
      <trkpt lat="43.63167" lon="3.26694">
        <ele>201.9</ele>
        <time>2014-09-28T07:58:37Z</time>
      </trkpt>
      <trkpt lat="43.63168" lon="3.26688">
        <ele>201.8</ele>
        <time>2014-09-28T07:58:38Z</time>
      </trkpt>
      <trkpt lat="43.6317" lon="3.26677">
        <ele>201.5</ele>
        <time>2014-09-28T07:58:40Z</time>
      </trkpt>
      <trkpt lat="43.63173" lon="3.26666">
        <ele>201.2</ele>
        <time>2014-09-28T07:58:42Z</time>
      </trkpt>
      <trkpt lat="43.63177" lon="3.26655">
        <ele>201</ele>
        <time>2014-09-28T07:58:44Z</time>
      </trkpt>
      <trkpt lat="43.63181" lon="3.26645">
        <ele>200.7</ele>
        <time>2014-09-28T07:58:46Z</time>
      </trkpt>
      <trkpt lat="43.63183" lon="3.26639">
        <ele>200.5</ele>
        <time>2014-09-28T07:58:47Z</time>
      </trkpt>
      <trkpt lat="43.63185" lon="3.26633">
        <ele>200.3</ele>
        <time>2014-09-28T07:58:48Z</time>
      </trkpt>
      <trkpt lat="43.63187" lon="3.26628">
        <ele>200.1</ele>
        <time>2014-09-28T07:58:49Z</time>
      </trkpt>
      <trkpt lat="43.6319" lon="3.26622">
        <ele>200.1</ele>
        <time>2014-09-28T07:58:50Z</time>
      </trkpt>
      <trkpt lat="43.63195" lon="3.26612">
        <ele>200.3</ele>
        <time>2014-09-28T07:58:52Z</time>
      </trkpt>
      <trkpt lat="43.63199" lon="3.26602">
        <ele>200.5</ele>
        <time>2014-09-28T07:58:54Z</time>
      </trkpt>
      <trkpt lat="43.63203" lon="3.26593">
        <ele>200.7</ele>
        <time>2014-09-28T07:58:56Z</time>
      </trkpt>
      <trkpt lat="43.63208" lon="3.26584">
        <ele>201</ele>
        <time>2014-09-28T07:58:58Z</time>
      </trkpt>
      <trkpt lat="43.63213" lon="3.26575">
        <ele>201.6</ele>
        <time>2014-09-28T07:59:00Z</time>
      </trkpt>
      <trkpt lat="43.63218" lon="3.26565">
        <ele>202.4</ele>
        <time>2014-09-28T07:59:02Z</time>
      </trkpt>
      <trkpt lat="43.6322" lon="3.26559">
        <ele>202.7</ele>
        <time>2014-09-28T07:59:03Z</time>
      </trkpt>
      <trkpt lat="43.63222" lon="3.26554">
        <ele>202.9</ele>
        <time>2014-09-28T07:59:04Z</time>
      </trkpt>
      <trkpt lat="43.63224" lon="3.26547">
        <ele>203.1</ele>
        <time>2014-09-28T07:59:05Z</time>
      </trkpt>
      <trkpt lat="43.63225" lon="3.26541">
        <ele>203.3</ele>
        <time>2014-09-28T07:59:06Z</time>
      </trkpt>
      <trkpt lat="43.63226" lon="3.26534">
        <ele>203.9</ele>
        <time>2014-09-28T07:59:07Z</time>
      </trkpt>
      <trkpt lat="43.63227" lon="3.26527">
        <ele>204.3</ele>
        <time>2014-09-28T07:59:08Z</time>
      </trkpt>
      <trkpt lat="43.63226" lon="3.26521">
        <ele>204.7</ele>
        <time>2014-09-28T07:59:09Z</time>
      </trkpt>
      <trkpt lat="43.63225" lon="3.26514">
        <ele>205</ele>
        <time>2014-09-28T07:59:10Z</time>
      </trkpt>
      <trkpt lat="43.63224" lon="3.26508">
        <ele>205.2</ele>
        <time>2014-09-28T07:59:11Z</time>
      </trkpt>
      <trkpt lat="43.63222" lon="3.26502">
        <ele>205.4</ele>
        <time>2014-09-28T07:59:12Z</time>
      </trkpt>
      <trkpt lat="43.63221" lon="3.26496">
        <ele>205.5</ele>
        <time>2014-09-28T07:59:13Z</time>
      </trkpt>
      <trkpt lat="43.63221" lon="3.26496">
        <ele>205.5</ele>
        <time>2014-09-28T07:59:13Z</time>
      </trkpt>
      <trkpt lat="43.63219" lon="3.2649">
        <ele>205.6</ele>
        <time>2014-09-28T07:59:14Z</time>
      </trkpt>
      <trkpt lat="43.63217" lon="3.26484">
        <ele>205.7</ele>
        <time>2014-09-28T07:59:15Z</time>
      </trkpt>
      <trkpt lat="43.63215" lon="3.26479">
        <ele>205.7</ele>
        <time>2014-09-28T07:59:16Z</time>
      </trkpt>
      <trkpt lat="43.63212" lon="3.26473">
        <ele>205.7</ele>
        <time>2014-09-28T07:59:17Z</time>
      </trkpt>
      <trkpt lat="43.6321" lon="3.26468">
        <ele>205.7</ele>
        <time>2014-09-28T07:59:18Z</time>
      </trkpt>
      <trkpt lat="43.63208" lon="3.26462">
        <ele>205.8</ele>
        <time>2014-09-28T07:59:19Z</time>
      </trkpt>
      <trkpt lat="43.63206" lon="3.26456">
        <ele>205.8</ele>
        <time>2014-09-28T07:59:20Z</time>
      </trkpt>
      <trkpt lat="43.63202" lon="3.26445">
        <ele>205.8</ele>
        <time>2014-09-28T07:59:22Z</time>
      </trkpt>
      <trkpt lat="43.632" lon="3.2644">
        <ele>205.8</ele>
        <time>2014-09-28T07:59:23Z</time>
      </trkpt>
      <trkpt lat="43.63196" lon="3.26429">
        <ele>205.7</ele>
        <time>2014-09-28T07:59:25Z</time>
      </trkpt>
      <trkpt lat="43.63192" lon="3.26418">
        <ele>205.7</ele>
        <time>2014-09-28T07:59:27Z</time>
      </trkpt>
      <trkpt lat="43.63188" lon="3.26408">
        <ele>205.7</ele>
        <time>2014-09-28T07:59:29Z</time>
      </trkpt>
      <trkpt lat="43.63185" lon="3.26398">
        <ele>205.7</ele>
        <time>2014-09-28T07:59:31Z</time>
      </trkpt>
      <trkpt lat="43.6318" lon="3.26387">
        <ele>205.6</ele>
        <time>2014-09-28T07:59:33Z</time>
      </trkpt>
      <trkpt lat="43.63178" lon="3.26382">
        <ele>205.6</ele>
        <time>2014-09-28T07:59:34Z</time>
      </trkpt>
      <trkpt lat="43.63176" lon="3.26376">
        <ele>205.6</ele>
        <time>2014-09-28T07:59:35Z</time>
      </trkpt>
      <trkpt lat="43.63174" lon="3.26371">
        <ele>205.5</ele>
        <time>2014-09-28T07:59:36Z</time>
      </trkpt>
      <trkpt lat="43.63172" lon="3.26365">
        <ele>205.3</ele>
        <time>2014-09-28T07:59:37Z</time>
      </trkpt>
      <trkpt lat="43.6317" lon="3.26359">
        <ele>205.2</ele>
        <time>2014-09-28T07:59:38Z</time>
      </trkpt>
      <trkpt lat="43.63168" lon="3.26353">
        <ele>205.1</ele>
        <time>2014-09-28T07:59:39Z</time>
      </trkpt>
      <trkpt lat="43.63166" lon="3.26347">
        <ele>205</ele>
        <time>2014-09-28T07:59:40Z</time>
      </trkpt>
      <trkpt lat="43.63165" lon="3.26341">
        <ele>204.9</ele>
        <time>2014-09-28T07:59:41Z</time>
      </trkpt>
      <trkpt lat="43.63164" lon="3.26334">
        <ele>204.9</ele>
        <time>2014-09-28T07:59:42Z</time>
      </trkpt>
      <trkpt lat="43.63163" lon="3.26328">
        <ele>204.8</ele>
        <time>2014-09-28T07:59:43Z</time>
      </trkpt>
      <trkpt lat="43.63163" lon="3.26321">
        <ele>204.8</ele>
        <time>2014-09-28T07:59:44Z</time>
      </trkpt>
      <trkpt lat="43.63162" lon="3.26315">
        <ele>204.8</ele>
        <time>2014-09-28T07:59:45Z</time>
      </trkpt>
      <trkpt lat="43.63162" lon="3.26308">
        <ele>204.9</ele>
        <time>2014-09-28T07:59:46Z</time>
      </trkpt>
      <trkpt lat="43.63163" lon="3.26301">
        <ele>204.9</ele>
        <time>2014-09-28T07:59:47Z</time>
      </trkpt>
      <trkpt lat="43.63164" lon="3.26293">
        <ele>204.9</ele>
        <time>2014-09-28T07:59:48Z</time>
      </trkpt>
      <trkpt lat="43.63165" lon="3.26286">
        <ele>205.1</ele>
        <time>2014-09-28T07:59:49Z</time>
      </trkpt>
      <trkpt lat="43.63167" lon="3.26278">
        <ele>205.2</ele>
        <time>2014-09-28T07:59:50Z</time>
      </trkpt>
      <trkpt lat="43.63169" lon="3.26271">
        <ele>205.4</ele>
        <time>2014-09-28T07:59:51Z</time>
      </trkpt>
      <trkpt lat="43.63173" lon="3.26264">
        <ele>205.6</ele>
        <time>2014-09-28T07:59:52Z</time>
      </trkpt>
      <trkpt lat="43.63176" lon="3.26256">
        <ele>205.7</ele>
        <time>2014-09-28T07:59:53Z</time>
      </trkpt>
      <trkpt lat="43.6318" lon="3.26249">
        <ele>205.8</ele>
        <time>2014-09-28T07:59:54Z</time>
      </trkpt>
      <trkpt lat="43.63184" lon="3.26243">
        <ele>205.9</ele>
        <time>2014-09-28T07:59:55Z</time>
      </trkpt>
      <trkpt lat="43.63189" lon="3.26237">
        <ele>206</ele>
        <time>2014-09-28T07:59:56Z</time>
      </trkpt>
      <trkpt lat="43.63194" lon="3.26231">
        <ele>206</ele>
        <time>2014-09-28T07:59:57Z</time>
      </trkpt>
      <trkpt lat="43.63199" lon="3.26226">
        <ele>206</ele>
        <time>2014-09-28T07:59:58Z</time>
      </trkpt>
      <trkpt lat="43.63205" lon="3.26221">
        <ele>206</ele>
        <time>2014-09-28T07:59:59Z</time>
      </trkpt>
      <trkpt lat="43.63211" lon="3.26217">
        <ele>206</ele>
        <time>2014-09-28T08:00:00Z</time>
      </trkpt>
      <trkpt lat="43.63217" lon="3.26213">
        <ele>206</ele>
        <time>2014-09-28T08:00:01Z</time>
      </trkpt>
      <trkpt lat="43.63222" lon="3.26208">
        <ele>206</ele>
        <time>2014-09-28T08:00:02Z</time>
      </trkpt>
      <trkpt lat="43.63227" lon="3.26204">
        <ele>206.1</ele>
        <time>2014-09-28T08:00:03Z</time>
      </trkpt>
      <trkpt lat="43.63232" lon="3.262">
        <ele>206.1</ele>
        <time>2014-09-28T08:00:04Z</time>
      </trkpt>
      <trkpt lat="43.63237" lon="3.26196">
        <ele>206.1</ele>
        <time>2014-09-28T08:00:05Z</time>
      </trkpt>
      <trkpt lat="43.63242" lon="3.26193">
        <ele>206.2</ele>
        <time>2014-09-28T08:00:06Z</time>
      </trkpt>
      <trkpt lat="43.63247" lon="3.2619">
        <ele>206.2</ele>
        <time>2014-09-28T08:00:07Z</time>
      </trkpt>
      <trkpt lat="43.63252" lon="3.26186">
        <ele>206.3</ele>
        <time>2014-09-28T08:00:08Z</time>
      </trkpt>
      <trkpt lat="43.63257" lon="3.26182">
        <ele>206.3</ele>
        <time>2014-09-28T08:00:09Z</time>
      </trkpt>
      <trkpt lat="43.63262" lon="3.26179">
        <ele>206.3</ele>
        <time>2014-09-28T08:00:10Z</time>
      </trkpt>
      <trkpt lat="43.63267" lon="3.26176">
        <ele>206.4</ele>
        <time>2014-09-28T08:00:11Z</time>
      </trkpt>
      <trkpt lat="43.63273" lon="3.26174">
        <ele>206.4</ele>
        <time>2014-09-28T08:00:12Z</time>
      </trkpt>
      <trkpt lat="43.63278" lon="3.26171">
        <ele>206.5</ele>
        <time>2014-09-28T08:00:13Z</time>
      </trkpt>
      <trkpt lat="43.63282" lon="3.26168">
        <ele>206.5</ele>
        <time>2014-09-28T08:00:14Z</time>
      </trkpt>
      <trkpt lat="43.63287" lon="3.26165">
        <ele>206.5</ele>
        <time>2014-09-28T08:00:15Z</time>
      </trkpt>
      <trkpt lat="43.63291" lon="3.26162">
        <ele>206.6</ele>
        <time>2014-09-28T08:00:16Z</time>
      </trkpt>
      <trkpt lat="43.63296" lon="3.2616">
        <ele>206.6</ele>
        <time>2014-09-28T08:00:17Z</time>
      </trkpt>
      <trkpt lat="43.63301" lon="3.26157">
        <ele>206.7</ele>
        <time>2014-09-28T08:00:18Z</time>
      </trkpt>
      <trkpt lat="43.63306" lon="3.26155">
        <ele>206.8</ele>
        <time>2014-09-28T08:00:19Z</time>
      </trkpt>
      <trkpt lat="43.6331" lon="3.26152">
        <ele>206.8</ele>
        <time>2014-09-28T08:00:20Z</time>
      </trkpt>
      <trkpt lat="43.6331" lon="3.26152">
        <ele>206.8</ele>
        <time>2014-09-28T08:00:20Z</time>
      </trkpt>
      <trkpt lat="43.63315" lon="3.2615">
        <ele>206.9</ele>
        <time>2014-09-28T08:00:21Z</time>
      </trkpt>
      <trkpt lat="43.6332" lon="3.26147">
        <ele>206.9</ele>
        <time>2014-09-28T08:00:22Z</time>
      </trkpt>
      <trkpt lat="43.63325" lon="3.26145">
        <ele>206.9</ele>
        <time>2014-09-28T08:00:23Z</time>
      </trkpt>
      <trkpt lat="43.6333" lon="3.26143">
        <ele>207</ele>
        <time>2014-09-28T08:00:24Z</time>
      </trkpt>
      <trkpt lat="43.63335" lon="3.26141">
        <ele>207</ele>
        <time>2014-09-28T08:00:25Z</time>
      </trkpt>
      <trkpt lat="43.63341" lon="3.2614">
        <ele>207</ele>
        <time>2014-09-28T08:00:26Z</time>
      </trkpt>
      <trkpt lat="43.63345" lon="3.26138">
        <ele>207</ele>
        <time>2014-09-28T08:00:27Z</time>
      </trkpt>
      <trkpt lat="43.63353" lon="3.26134">
        <ele>207.1</ele>
        <time>2014-09-28T08:00:29Z</time>
      </trkpt>
      <trkpt lat="43.63358" lon="3.26132">
        <ele>207.1</ele>
        <time>2014-09-28T08:00:30Z</time>
      </trkpt>
      <trkpt lat="43.63366" lon="3.26128">
        <ele>207</ele>
        <time>2014-09-28T08:00:32Z</time>
      </trkpt>
      <trkpt lat="43.6337" lon="3.26126">
        <ele>207</ele>
        <time>2014-09-28T08:00:33Z</time>
      </trkpt>
      <trkpt lat="43.63376" lon="3.26124">
        <ele>207.1</ele>
        <time>2014-09-28T08:00:34Z</time>
      </trkpt>
      <trkpt lat="43.6338" lon="3.26122">
        <ele>207.4</ele>
        <time>2014-09-28T08:00:35Z</time>
      </trkpt>
      <trkpt lat="43.63385" lon="3.2612">
        <ele>207.6</ele>
        <time>2014-09-28T08:00:36Z</time>
      </trkpt>
      <trkpt lat="43.63389" lon="3.26117">
        <ele>207.9</ele>
        <time>2014-09-28T08:00:37Z</time>
      </trkpt>
      <trkpt lat="43.63396" lon="3.26113">
        <ele>208.2</ele>
        <time>2014-09-28T08:00:39Z</time>
      </trkpt>
      <trkpt lat="43.63404" lon="3.26109">
        <ele>208.6</ele>
        <time>2014-09-28T08:00:41Z</time>
      </trkpt>
      <trkpt lat="43.63412" lon="3.26104">
        <ele>209</ele>
        <time>2014-09-28T08:00:43Z</time>
      </trkpt>
      <trkpt lat="43.63419" lon="3.26099">
        <ele>209.2</ele>
        <time>2014-09-28T08:00:45Z</time>
      </trkpt>
      <trkpt lat="43.63427" lon="3.26094">
        <ele>209.4</ele>
        <time>2014-09-28T08:00:47Z</time>
      </trkpt>
      <trkpt lat="43.63434" lon="3.26089">
        <ele>209.6</ele>
        <time>2014-09-28T08:00:49Z</time>
      </trkpt>
      <trkpt lat="43.63442" lon="3.26084">
        <ele>209.7</ele>
        <time>2014-09-28T08:00:51Z</time>
      </trkpt>
      <trkpt lat="43.6345" lon="3.2608">
        <ele>209.8</ele>
        <time>2014-09-28T08:00:53Z</time>
      </trkpt>
      <trkpt lat="43.63458" lon="3.26075">
        <ele>209.8</ele>
        <time>2014-09-28T08:00:55Z</time>
      </trkpt>
      <trkpt lat="43.63465" lon="3.2607">
        <ele>209.9</ele>
        <time>2014-09-28T08:00:57Z</time>
      </trkpt>
      <trkpt lat="43.63473" lon="3.26065">
        <ele>209.9</ele>
        <time>2014-09-28T08:00:59Z</time>
      </trkpt>
      <trkpt lat="43.6348" lon="3.26061">
        <ele>210</ele>
        <time>2014-09-28T08:01:01Z</time>
      </trkpt>
      <trkpt lat="43.63488" lon="3.26057">
        <ele>210</ele>
        <time>2014-09-28T08:01:03Z</time>
      </trkpt>
      <trkpt lat="43.63496" lon="3.26053">
        <ele>210</ele>
        <time>2014-09-28T08:01:05Z</time>
      </trkpt>
      <trkpt lat="43.63505" lon="3.26049">
        <ele>209.9</ele>
        <time>2014-09-28T08:01:07Z</time>
      </trkpt>
      <trkpt lat="43.63513" lon="3.26045">
        <ele>209.8</ele>
        <time>2014-09-28T08:01:09Z</time>
      </trkpt>
      <trkpt lat="43.63521" lon="3.26042">
        <ele>209.8</ele>
        <time>2014-09-28T08:01:11Z</time>
      </trkpt>
      <trkpt lat="43.63529" lon="3.26038">
        <ele>209.8</ele>
        <time>2014-09-28T08:01:13Z</time>
      </trkpt>
      <trkpt lat="43.63537" lon="3.26034">
        <ele>209.9</ele>
        <time>2014-09-28T08:01:15Z</time>
      </trkpt>
      <trkpt lat="43.63545" lon="3.26031">
        <ele>210.1</ele>
        <time>2014-09-28T08:01:17Z</time>
      </trkpt>
      <trkpt lat="43.63553" lon="3.26028">
        <ele>210.5</ele>
        <time>2014-09-28T08:01:19Z</time>
      </trkpt>
      <trkpt lat="43.63561" lon="3.26024">
        <ele>210.8</ele>
        <time>2014-09-28T08:01:21Z</time>
      </trkpt>
      <trkpt lat="43.63569" lon="3.26019">
        <ele>211.1</ele>
        <time>2014-09-28T08:01:23Z</time>
      </trkpt>
      <trkpt lat="43.63574" lon="3.26017">
        <ele>211.3</ele>
        <time>2014-09-28T08:01:24Z</time>
      </trkpt>
      <trkpt lat="43.63578" lon="3.26014">
        <ele>211.4</ele>
        <time>2014-09-28T08:01:25Z</time>
      </trkpt>
      <trkpt lat="43.63582" lon="3.26011">
        <ele>211.5</ele>
        <time>2014-09-28T08:01:26Z</time>
      </trkpt>
      <trkpt lat="43.63586" lon="3.26008">
        <ele>211.6</ele>
        <time>2014-09-28T08:01:27Z</time>
      </trkpt>
      <trkpt lat="43.63591" lon="3.26006">
        <ele>211.7</ele>
        <time>2014-09-28T08:01:28Z</time>
      </trkpt>
      <trkpt lat="43.63595" lon="3.26003">
        <ele>211.8</ele>
        <time>2014-09-28T08:01:29Z</time>
      </trkpt>
      <trkpt lat="43.63599" lon="3.26">
        <ele>211.9</ele>
        <time>2014-09-28T08:01:30Z</time>
      </trkpt>
      <trkpt lat="43.63603" lon="3.25997">
        <ele>212</ele>
        <time>2014-09-28T08:01:31Z</time>
      </trkpt>
      <trkpt lat="43.63608" lon="3.25994">
        <ele>212</ele>
        <time>2014-09-28T08:01:32Z</time>
      </trkpt>
      <trkpt lat="43.63612" lon="3.25991">
        <ele>212.1</ele>
        <time>2014-09-28T08:01:33Z</time>
      </trkpt>
      <trkpt lat="43.63615" lon="3.25988">
        <ele>212.1</ele>
        <time>2014-09-28T08:01:34Z</time>
      </trkpt>
      <trkpt lat="43.63619" lon="3.25985">
        <ele>212.1</ele>
        <time>2014-09-28T08:01:35Z</time>
      </trkpt>
      <trkpt lat="43.63624" lon="3.25982">
        <ele>212.1</ele>
        <time>2014-09-28T08:01:36Z</time>
      </trkpt>
      <trkpt lat="43.63628" lon="3.2598">
        <ele>212.2</ele>
        <time>2014-09-28T08:01:37Z</time>
      </trkpt>
      <trkpt lat="43.63636" lon="3.25975">
        <ele>212.3</ele>
        <time>2014-09-28T08:01:39Z</time>
      </trkpt>
      <trkpt lat="43.63644" lon="3.25969">
        <ele>212.3</ele>
        <time>2014-09-28T08:01:41Z</time>
      </trkpt>
      <trkpt lat="43.63648" lon="3.25965">
        <ele>212.3</ele>
        <time>2014-09-28T08:01:42Z</time>
      </trkpt>
      <trkpt lat="43.63652" lon="3.25961">
        <ele>212.2</ele>
        <time>2014-09-28T08:01:43Z</time>
      </trkpt>
      <trkpt lat="43.63655" lon="3.25958">
        <ele>212.1</ele>
        <time>2014-09-28T08:01:44Z</time>
      </trkpt>
      <trkpt lat="43.63661" lon="3.25949">
        <ele>212</ele>
        <time>2014-09-28T08:01:46Z</time>
      </trkpt>
      <trkpt lat="43.63664" lon="3.25944">
        <ele>212</ele>
        <time>2014-09-28T08:01:47Z</time>
      </trkpt>
      <trkpt lat="43.63667" lon="3.25939">
        <ele>211.9</ele>
        <time>2014-09-28T08:01:48Z</time>
      </trkpt>
      <trkpt lat="43.6367" lon="3.25933">
        <ele>211.9</ele>
        <time>2014-09-28T08:01:49Z</time>
      </trkpt>
      <trkpt lat="43.63673" lon="3.25928">
        <ele>211.8</ele>
        <time>2014-09-28T08:01:50Z</time>
      </trkpt>
      <trkpt lat="43.63676" lon="3.25923">
        <ele>211.7</ele>
        <time>2014-09-28T08:01:51Z</time>
      </trkpt>
      <trkpt lat="43.63679" lon="3.25917">
        <ele>211.6</ele>
        <time>2014-09-28T08:01:52Z</time>
      </trkpt>
      <trkpt lat="43.63682" lon="3.25912">
        <ele>211.6</ele>
        <time>2014-09-28T08:01:53Z</time>
      </trkpt>
      <trkpt lat="43.63685" lon="3.25907">
        <ele>211.5</ele>
        <time>2014-09-28T08:01:54Z</time>
      </trkpt>
      <trkpt lat="43.63688" lon="3.25901">
        <ele>211.4</ele>
        <time>2014-09-28T08:01:55Z</time>
      </trkpt>
      <trkpt lat="43.63691" lon="3.25896">
        <ele>211.3</ele>
        <time>2014-09-28T08:01:56Z</time>
      </trkpt>
      <trkpt lat="43.63693" lon="3.2589">
        <ele>211.1</ele>
        <time>2014-09-28T08:01:57Z</time>
      </trkpt>
      <trkpt lat="43.63696" lon="3.25884">
        <ele>211</ele>
        <time>2014-09-28T08:01:58Z</time>
      </trkpt>
      <trkpt lat="43.63699" lon="3.25879">
        <ele>210.9</ele>
        <time>2014-09-28T08:01:59Z</time>
      </trkpt>
      <trkpt lat="43.63701" lon="3.25873">
        <ele>210.9</ele>
        <time>2014-09-28T08:02:00Z</time>
      </trkpt>
      <trkpt lat="43.63704" lon="3.25868">
        <ele>211.1</ele>
        <time>2014-09-28T08:02:01Z</time>
      </trkpt>
      <trkpt lat="43.63707" lon="3.25863">
        <ele>211.3</ele>
        <time>2014-09-28T08:02:02Z</time>
      </trkpt>
      <trkpt lat="43.6371" lon="3.25858">
        <ele>211.5</ele>
        <time>2014-09-28T08:02:03Z</time>
      </trkpt>
      <trkpt lat="43.63713" lon="3.25853">
        <ele>211.7</ele>
        <time>2014-09-28T08:02:04Z</time>
      </trkpt>
      <trkpt lat="43.6372" lon="3.25845">
        <ele>212.2</ele>
        <time>2014-09-28T08:02:06Z</time>
      </trkpt>
      <trkpt lat="43.63727" lon="3.25839">
        <ele>212.7</ele>
        <time>2014-09-28T08:02:08Z</time>
      </trkpt>
      <trkpt lat="43.63735" lon="3.25834">
        <ele>213.1</ele>
        <time>2014-09-28T08:02:10Z</time>
      </trkpt>
      <trkpt lat="43.63739" lon="3.25832">
        <ele>213.3</ele>
        <time>2014-09-28T08:02:11Z</time>
      </trkpt>
      <trkpt lat="43.63747" lon="3.25829">
        <ele>213.7</ele>
        <time>2014-09-28T08:02:13Z</time>
      </trkpt>
      <trkpt lat="43.63755" lon="3.25827">
        <ele>214</ele>
        <time>2014-09-28T08:02:15Z</time>
      </trkpt>
      <trkpt lat="43.63764" lon="3.25824">
        <ele>214.3</ele>
        <time>2014-09-28T08:02:17Z</time>
      </trkpt>
      <trkpt lat="43.63773" lon="3.25822">
        <ele>214.7</ele>
        <time>2014-09-28T08:02:19Z</time>
      </trkpt>
      <trkpt lat="43.63777" lon="3.25821">
        <ele>214.8</ele>
        <time>2014-09-28T08:02:20Z</time>
      </trkpt>
      <trkpt lat="43.63786" lon="3.25819">
        <ele>215.1</ele>
        <time>2014-09-28T08:02:22Z</time>
      </trkpt>
      <trkpt lat="43.63794" lon="3.25816">
        <ele>215.3</ele>
        <time>2014-09-28T08:02:24Z</time>
      </trkpt>
      <trkpt lat="43.63798" lon="3.25815">
        <ele>215.4</ele>
        <time>2014-09-28T08:02:25Z</time>
      </trkpt>
      <trkpt lat="43.63803" lon="3.25813">
        <ele>215.5</ele>
        <time>2014-09-28T08:02:26Z</time>
      </trkpt>
      <trkpt lat="43.63807" lon="3.25812">
        <ele>215.5</ele>
        <time>2014-09-28T08:02:27Z</time>
      </trkpt>
      <trkpt lat="43.63811" lon="3.2581">
        <ele>215.6</ele>
        <time>2014-09-28T08:02:28Z</time>
      </trkpt>
      <trkpt lat="43.63816" lon="3.25809">
        <ele>215.6</ele>
        <time>2014-09-28T08:02:29Z</time>
      </trkpt>
      <trkpt lat="43.6382" lon="3.25807">
        <ele>215.7</ele>
        <time>2014-09-28T08:02:30Z</time>
      </trkpt>
      <trkpt lat="43.63829" lon="3.25804">
        <ele>215.7</ele>
        <time>2014-09-28T08:02:32Z</time>
      </trkpt>
      <trkpt lat="43.63837" lon="3.25801">
        <ele>215.8</ele>
        <time>2014-09-28T08:02:34Z</time>
      </trkpt>
      <trkpt lat="43.63845" lon="3.25799">
        <ele>215.8</ele>
        <time>2014-09-28T08:02:36Z</time>
      </trkpt>
      <trkpt lat="43.63853" lon="3.25797">
        <ele>215.9</ele>
        <time>2014-09-28T08:02:38Z</time>
      </trkpt>
      <trkpt lat="43.63861" lon="3.25794">
        <ele>215.9</ele>
        <time>2014-09-28T08:02:40Z</time>
      </trkpt>
      <trkpt lat="43.6387" lon="3.25792">
        <ele>215.9</ele>
        <time>2014-09-28T08:02:42Z</time>
      </trkpt>
      <trkpt lat="43.63877" lon="3.25789">
        <ele>216.1</ele>
        <time>2014-09-28T08:02:44Z</time>
      </trkpt>
      <trkpt lat="43.63885" lon="3.25786">
        <ele>216.5</ele>
        <time>2014-09-28T08:02:46Z</time>
      </trkpt>
      <trkpt lat="43.63893" lon="3.25783">
        <ele>216.9</ele>
        <time>2014-09-28T08:02:48Z</time>
      </trkpt>
      <trkpt lat="43.63901" lon="3.25779">
        <ele>217.3</ele>
        <time>2014-09-28T08:02:50Z</time>
      </trkpt>
      <trkpt lat="43.63908" lon="3.25775">
        <ele>217.6</ele>
        <time>2014-09-28T08:02:52Z</time>
      </trkpt>
      <trkpt lat="43.63915" lon="3.25772">
        <ele>217.9</ele>
        <time>2014-09-28T08:02:54Z</time>
      </trkpt>
      <trkpt lat="43.63921" lon="3.25767">
        <ele>218.1</ele>
        <time>2014-09-28T08:02:56Z</time>
      </trkpt>
      <trkpt lat="43.63927" lon="3.25764">
        <ele>218.3</ele>
        <time>2014-09-28T08:02:58Z</time>
      </trkpt>
      <trkpt lat="43.63933" lon="3.2576">
        <ele>218.6</ele>
        <time>2014-09-28T08:03:00Z</time>
      </trkpt>
      <trkpt lat="43.63939" lon="3.25757">
        <ele>218.8</ele>
        <time>2014-09-28T08:03:02Z</time>
      </trkpt>
      <trkpt lat="43.63944" lon="3.25755">
        <ele>219</ele>
        <time>2014-09-28T08:03:04Z</time>
      </trkpt>
      <trkpt lat="43.6395" lon="3.25755">
        <ele>219.2</ele>
        <time>2014-09-28T08:03:06Z</time>
      </trkpt>
      <trkpt lat="43.63954" lon="3.2576">
        <ele>219.6</ele>
        <time>2014-09-28T08:03:08Z</time>
      </trkpt>
      <trkpt lat="43.63958" lon="3.25768">
        <ele>220.1</ele>
        <time>2014-09-28T08:03:10Z</time>
      </trkpt>
      <trkpt lat="43.63961" lon="3.25775">
        <ele>220.4</ele>
        <time>2014-09-28T08:03:12Z</time>
      </trkpt>
      <trkpt lat="43.63965" lon="3.25782">
        <ele>220.6</ele>
        <time>2014-09-28T08:03:14Z</time>
      </trkpt>
      <trkpt lat="43.63968" lon="3.2579">
        <ele>220.8</ele>
        <time>2014-09-28T08:03:16Z</time>
      </trkpt>
      <trkpt lat="43.63971" lon="3.25798">
        <ele>221.1</ele>
        <time>2014-09-28T08:03:18Z</time>
      </trkpt>
      <trkpt lat="43.63975" lon="3.25805">
        <ele>221.4</ele>
        <time>2014-09-28T08:03:20Z</time>
      </trkpt>
      <trkpt lat="43.6398" lon="3.25812">
        <ele>221.5</ele>
        <time>2014-09-28T08:03:22Z</time>
      </trkpt>
      <trkpt lat="43.63985" lon="3.25817">
        <ele>221.6</ele>
        <time>2014-09-28T08:03:24Z</time>
      </trkpt>
      <trkpt lat="43.63991" lon="3.25821">
        <ele>221.6</ele>
        <time>2014-09-28T08:03:26Z</time>
      </trkpt>
      <trkpt lat="43.63998" lon="3.25823">
        <ele>221.5</ele>
        <time>2014-09-28T08:03:28Z</time>
      </trkpt>
      <trkpt lat="43.64004" lon="3.25824">
        <ele>221.3</ele>
        <time>2014-09-28T08:03:30Z</time>
      </trkpt>
      <trkpt lat="43.64011" lon="3.25824">
        <ele>221.2</ele>
        <time>2014-09-28T08:03:32Z</time>
      </trkpt>
      <trkpt lat="43.64017" lon="3.25826">
        <ele>221.1</ele>
        <time>2014-09-28T08:03:34Z</time>
      </trkpt>
      <trkpt lat="43.64025" lon="3.25827">
        <ele>220.9</ele>
        <time>2014-09-28T08:03:36Z</time>
      </trkpt>
      <trkpt lat="43.64031" lon="3.25827">
        <ele>220.7</ele>
        <time>2014-09-28T08:03:38Z</time>
      </trkpt>
      <trkpt lat="43.64037" lon="3.25826">
        <ele>220.5</ele>
        <time>2014-09-28T08:03:40Z</time>
      </trkpt>
      <trkpt lat="43.64044" lon="3.25826">
        <ele>220.5</ele>
        <time>2014-09-28T08:03:42Z</time>
      </trkpt>
      <trkpt lat="43.6405" lon="3.25827">
        <ele>220.7</ele>
        <time>2014-09-28T08:03:44Z</time>
      </trkpt>
      <trkpt lat="43.64057" lon="3.25829">
        <ele>220.9</ele>
        <time>2014-09-28T08:03:46Z</time>
      </trkpt>
      <trkpt lat="43.64063" lon="3.25831">
        <ele>221.1</ele>
        <time>2014-09-28T08:03:48Z</time>
      </trkpt>
      <trkpt lat="43.64068" lon="3.25833">
        <ele>221.3</ele>
        <time>2014-09-28T08:03:50Z</time>
      </trkpt>
      <trkpt lat="43.64074" lon="3.25834">
        <ele>221.5</ele>
        <time>2014-09-28T08:03:52Z</time>
      </trkpt>
      <trkpt lat="43.64079" lon="3.25836">
        <ele>221.6</ele>
        <time>2014-09-28T08:03:54Z</time>
      </trkpt>
      <trkpt lat="43.64084" lon="3.25838">
        <ele>221.8</ele>
        <time>2014-09-28T08:03:56Z</time>
      </trkpt>
      <trkpt lat="43.64089" lon="3.25841">
        <ele>222</ele>
        <time>2014-09-28T08:03:58Z</time>
      </trkpt>
      <trkpt lat="43.64095" lon="3.25844">
        <ele>222.1</ele>
        <time>2014-09-28T08:04:00Z</time>
      </trkpt>
      <trkpt lat="43.641" lon="3.25847">
        <ele>222.3</ele>
        <time>2014-09-28T08:04:02Z</time>
      </trkpt>
      <trkpt lat="43.64105" lon="3.25851">
        <ele>222.5</ele>
        <time>2014-09-28T08:04:04Z</time>
      </trkpt>
      <trkpt lat="43.64109" lon="3.25856">
        <ele>222.6</ele>
        <time>2014-09-28T08:04:06Z</time>
      </trkpt>
      <trkpt lat="43.64113" lon="3.2586">
        <ele>222.7</ele>
        <time>2014-09-28T08:04:08Z</time>
      </trkpt>
      <trkpt lat="43.64118" lon="3.25865">
        <ele>222.8</ele>
        <time>2014-09-28T08:04:10Z</time>
      </trkpt>
      <trkpt lat="43.64122" lon="3.2587">
        <ele>222.9</ele>
        <time>2014-09-28T08:04:12Z</time>
      </trkpt>
      <trkpt lat="43.64127" lon="3.25874">
        <ele>223.1</ele>
        <time>2014-09-28T08:04:14Z</time>
      </trkpt>
      <trkpt lat="43.64131" lon="3.2588">
        <ele>223.4</ele>
        <time>2014-09-28T08:04:16Z</time>
      </trkpt>
      <trkpt lat="43.64134" lon="3.25885">
        <ele>223.8</ele>
        <time>2014-09-28T08:04:18Z</time>
      </trkpt>
      <trkpt lat="43.64139" lon="3.2589">
        <ele>224.1</ele>
        <time>2014-09-28T08:04:20Z</time>
      </trkpt>
      <trkpt lat="43.64144" lon="3.25895">
        <ele>224.5</ele>
        <time>2014-09-28T08:04:22Z</time>
      </trkpt>
      <trkpt lat="43.6415" lon="3.25898">
        <ele>224.8</ele>
        <time>2014-09-28T08:04:24Z</time>
      </trkpt>
      <trkpt lat="43.64156" lon="3.25902">
        <ele>225.1</ele>
        <time>2014-09-28T08:04:26Z</time>
      </trkpt>
      <trkpt lat="43.64163" lon="3.25905">
        <ele>225.4</ele>
        <time>2014-09-28T08:04:28Z</time>
      </trkpt>
      <trkpt lat="43.6417" lon="3.25907">
        <ele>225.7</ele>
        <time>2014-09-28T08:04:30Z</time>
      </trkpt>
      <trkpt lat="43.64179" lon="3.25909">
        <ele>226</ele>
        <time>2014-09-28T08:04:32Z</time>
      </trkpt>
      <trkpt lat="43.64186" lon="3.25909">
        <ele>226.3</ele>
        <time>2014-09-28T08:04:34Z</time>
      </trkpt>
      <trkpt lat="43.64193" lon="3.25908">
        <ele>226.5</ele>
        <time>2014-09-28T08:04:36Z</time>
      </trkpt>
      <trkpt lat="43.64199" lon="3.25907">
        <ele>226.7</ele>
        <time>2014-09-28T08:04:38Z</time>
      </trkpt>
      <trkpt lat="43.64204" lon="3.25904">
        <ele>226.8</ele>
        <time>2014-09-28T08:04:40Z</time>
      </trkpt>
      <trkpt lat="43.64209" lon="3.259">
        <ele>227.1</ele>
        <time>2014-09-28T08:04:42Z</time>
      </trkpt>
      <trkpt lat="43.64215" lon="3.25893">
        <ele>227.3</ele>
        <time>2014-09-28T08:04:44Z</time>
      </trkpt>
      <trkpt lat="43.6422" lon="3.25885">
        <ele>227.6</ele>
        <time>2014-09-28T08:04:46Z</time>
      </trkpt>
      <trkpt lat="43.64224" lon="3.25877">
        <ele>227.7</ele>
        <time>2014-09-28T08:04:48Z</time>
      </trkpt>
      <trkpt lat="43.64228" lon="3.25871">
        <ele>227.9</ele>
        <time>2014-09-28T08:04:50Z</time>
      </trkpt>
      <trkpt lat="43.64234" lon="3.25865">
        <ele>228.1</ele>
        <time>2014-09-28T08:04:52Z</time>
      </trkpt>
      <trkpt lat="43.64239" lon="3.25863">
        <ele>228.3</ele>
        <time>2014-09-28T08:04:54Z</time>
      </trkpt>
      <trkpt lat="43.64244" lon="3.25863">
        <ele>228.6</ele>
        <time>2014-09-28T08:04:56Z</time>
      </trkpt>
      <trkpt lat="43.64249" lon="3.25864">
        <ele>228.8</ele>
        <time>2014-09-28T08:04:58Z</time>
      </trkpt>
      <trkpt lat="43.64254" lon="3.25865">
        <ele>229.1</ele>
        <time>2014-09-28T08:05:00Z</time>
      </trkpt>
      <trkpt lat="43.6426" lon="3.25866">
        <ele>229.4</ele>
        <time>2014-09-28T08:05:02Z</time>
      </trkpt>
      <trkpt lat="43.64265" lon="3.25868">
        <ele>229.6</ele>
        <time>2014-09-28T08:05:04Z</time>
      </trkpt>
      <trkpt lat="43.64271" lon="3.25871">
        <ele>230</ele>
        <time>2014-09-28T08:05:07Z</time>
      </trkpt>
      <trkpt lat="43.64275" lon="3.25873">
        <ele>230.2</ele>
        <time>2014-09-28T08:05:09Z</time>
      </trkpt>
      <trkpt lat="43.64281" lon="3.25876">
        <ele>230.5</ele>
        <time>2014-09-28T08:05:12Z</time>
      </trkpt>
      <trkpt lat="43.64286" lon="3.25878">
        <ele>230.8</ele>
        <time>2014-09-28T08:05:14Z</time>
      </trkpt>
      <trkpt lat="43.64291" lon="3.25882">
        <ele>231.1</ele>
        <time>2014-09-28T08:05:17Z</time>
      </trkpt>
      <trkpt lat="43.64297" lon="3.25886">
        <ele>231.5</ele>
        <time>2014-09-28T08:05:20Z</time>
      </trkpt>
      <trkpt lat="43.64302" lon="3.25891">
        <ele>231.8</ele>
        <time>2014-09-28T08:05:23Z</time>
      </trkpt>
      <trkpt lat="43.64306" lon="3.25894">
        <ele>232.1</ele>
        <time>2014-09-28T08:05:25Z</time>
      </trkpt>
      <trkpt lat="43.6431" lon="3.25898">
        <ele>232.3</ele>
        <time>2014-09-28T08:05:27Z</time>
      </trkpt>
      <trkpt lat="43.64314" lon="3.25902">
        <ele>232.6</ele>
        <time>2014-09-28T08:05:29Z</time>
      </trkpt>
      <trkpt lat="43.64318" lon="3.25906">
        <ele>232.9</ele>
        <time>2014-09-28T08:05:31Z</time>
      </trkpt>
      <trkpt lat="43.64323" lon="3.2591">
        <ele>233.2</ele>
        <time>2014-09-28T08:05:33Z</time>
      </trkpt>
      <trkpt lat="43.64327" lon="3.25913">
        <ele>233.6</ele>
        <time>2014-09-28T08:05:35Z</time>
      </trkpt>
      <trkpt lat="43.64331" lon="3.25917">
        <ele>233.9</ele>
        <time>2014-09-28T08:05:37Z</time>
      </trkpt>
      <trkpt lat="43.64335" lon="3.2592">
        <ele>234.2</ele>
        <time>2014-09-28T08:05:39Z</time>
      </trkpt>
      <trkpt lat="43.6434" lon="3.25922">
        <ele>234.5</ele>
        <time>2014-09-28T08:05:41Z</time>
      </trkpt>
      <trkpt lat="43.64344" lon="3.25925">
        <ele>234.8</ele>
        <time>2014-09-28T08:05:43Z</time>
      </trkpt>
      <trkpt lat="43.6435" lon="3.25928">
        <ele>235.2</ele>
        <time>2014-09-28T08:05:46Z</time>
      </trkpt>
      <trkpt lat="43.64354" lon="3.25931">
        <ele>235.6</ele>
        <time>2014-09-28T08:05:48Z</time>
      </trkpt>
      <trkpt lat="43.64358" lon="3.25934">
        <ele>235.9</ele>
        <time>2014-09-28T08:05:50Z</time>
      </trkpt>
      <trkpt lat="43.64363" lon="3.25936">
        <ele>236.3</ele>
        <time>2014-09-28T08:05:52Z</time>
      </trkpt>
      <trkpt lat="43.64367" lon="3.25938">
        <ele>236.6</ele>
        <time>2014-09-28T08:05:54Z</time>
      </trkpt>
      <trkpt lat="43.64372" lon="3.2594">
        <ele>236.9</ele>
        <time>2014-09-28T08:05:56Z</time>
      </trkpt>
      <trkpt lat="43.64376" lon="3.25941">
        <ele>237.3</ele>
        <time>2014-09-28T08:05:58Z</time>
      </trkpt>
      <trkpt lat="43.64381" lon="3.25944">
        <ele>237.9</ele>
        <time>2014-09-28T08:06:00Z</time>
      </trkpt>
      <trkpt lat="43.64385" lon="3.25947">
        <ele>238.6</ele>
        <time>2014-09-28T08:06:02Z</time>
      </trkpt>
      <trkpt lat="43.64389" lon="3.2595">
        <ele>239.1</ele>
        <time>2014-09-28T08:06:04Z</time>
      </trkpt>
      <trkpt lat="43.64395" lon="3.25954">
        <ele>239.9</ele>
        <time>2014-09-28T08:06:07Z</time>
      </trkpt>
      <trkpt lat="43.644" lon="3.25957">
        <ele>240.7</ele>
        <time>2014-09-28T08:06:10Z</time>
      </trkpt>
      <trkpt lat="43.64406" lon="3.2596">
        <ele>241.3</ele>
        <time>2014-09-28T08:06:13Z</time>
      </trkpt>
      <trkpt lat="43.64412" lon="3.25962">
        <ele>242</ele>
        <time>2014-09-28T08:06:16Z</time>
      </trkpt>
      <trkpt lat="43.64418" lon="3.25961">
        <ele>242.7</ele>
        <time>2014-09-28T08:06:19Z</time>
      </trkpt>
      <trkpt lat="43.64424" lon="3.2596">
        <ele>243.3</ele>
        <time>2014-09-28T08:06:22Z</time>
      </trkpt>
      <trkpt lat="43.6443" lon="3.25958">
        <ele>243.9</ele>
        <time>2014-09-28T08:06:25Z</time>
      </trkpt>
      <trkpt lat="43.64435" lon="3.25956">
        <ele>244.4</ele>
        <time>2014-09-28T08:06:28Z</time>
      </trkpt>
      <trkpt lat="43.64442" lon="3.25955">
        <ele>245</ele>
        <time>2014-09-28T08:06:31Z</time>
      </trkpt>
      <trkpt lat="43.64448" lon="3.25955">
        <ele>245.7</ele>
        <time>2014-09-28T08:06:34Z</time>
      </trkpt>
      <trkpt lat="43.64454" lon="3.25956">
        <ele>246.4</ele>
        <time>2014-09-28T08:06:37Z</time>
      </trkpt>
      <trkpt lat="43.6446" lon="3.25957">
        <ele>247</ele>
        <time>2014-09-28T08:06:40Z</time>
      </trkpt>
      <trkpt lat="43.64466" lon="3.25958">
        <ele>247.7</ele>
        <time>2014-09-28T08:06:43Z</time>
      </trkpt>
      <trkpt lat="43.64472" lon="3.25961">
        <ele>248.3</ele>
        <time>2014-09-28T08:06:46Z</time>
      </trkpt>
      <trkpt lat="43.64477" lon="3.25965">
        <ele>248.7</ele>
        <time>2014-09-28T08:06:49Z</time>
      </trkpt>
      <trkpt lat="43.64482" lon="3.2597">
        <ele>249.2</ele>
        <time>2014-09-28T08:06:52Z</time>
      </trkpt>
      <trkpt lat="43.64487" lon="3.25972">
        <ele>249.7</ele>
        <time>2014-09-28T08:06:55Z</time>
      </trkpt>
      <trkpt lat="43.64493" lon="3.25973">
        <ele>250.3</ele>
        <time>2014-09-28T08:06:58Z</time>
      </trkpt>
      <trkpt lat="43.64499" lon="3.25974">
        <ele>250.8</ele>
        <time>2014-09-28T08:07:01Z</time>
      </trkpt>
      <trkpt lat="43.64505" lon="3.25974">
        <ele>251.3</ele>
        <time>2014-09-28T08:07:04Z</time>
      </trkpt>
      <trkpt lat="43.6451" lon="3.25974">
        <ele>251.8</ele>
        <time>2014-09-28T08:07:07Z</time>
      </trkpt>
      <trkpt lat="43.64516" lon="3.25975">
        <ele>252.4</ele>
        <time>2014-09-28T08:07:10Z</time>
      </trkpt>
      <trkpt lat="43.64521" lon="3.25974">
        <ele>252.9</ele>
        <time>2014-09-28T08:07:13Z</time>
      </trkpt>
      <trkpt lat="43.64526" lon="3.25969">
        <ele>253.4</ele>
        <time>2014-09-28T08:07:16Z</time>
      </trkpt>
      <trkpt lat="43.64529" lon="3.25963">
        <ele>253.7</ele>
        <time>2014-09-28T08:07:19Z</time>
      </trkpt>
      <trkpt lat="43.64531" lon="3.25956">
        <ele>254</ele>
        <time>2014-09-28T08:07:22Z</time>
      </trkpt>
      <trkpt lat="43.64533" lon="3.25948">
        <ele>254.2</ele>
        <time>2014-09-28T08:07:25Z</time>
      </trkpt>
      <trkpt lat="43.64537" lon="3.25942">
        <ele>254.6</ele>
        <time>2014-09-28T08:07:28Z</time>
      </trkpt>
      <trkpt lat="43.64539" lon="3.25937">
        <ele>255</ele>
        <time>2014-09-28T08:07:31Z</time>
      </trkpt>
      <trkpt lat="43.64543" lon="3.25933">
        <ele>255.7</ele>
        <time>2014-09-28T08:07:34Z</time>
      </trkpt>
      <trkpt lat="43.64547" lon="3.2593">
        <ele>256.9</ele>
        <time>2014-09-28T08:07:37Z</time>
      </trkpt>
      <trkpt lat="43.64556" lon="3.25929">
        <ele>259.3</ele>
        <time>2014-09-28T08:07:43Z</time>
      </trkpt>
      <trkpt lat="43.6456" lon="3.25932">
        <ele>260.3</ele>
        <time>2014-09-28T08:07:47Z</time>
      </trkpt>
      <trkpt lat="43.64567" lon="3.25941">
        <ele>261.5</ele>
        <time>2014-09-28T08:07:55Z</time>
      </trkpt>
      <trkpt lat="43.6457" lon="3.25948">
        <ele>262.1</ele>
        <time>2014-09-28T08:07:59Z</time>
      </trkpt>
      <trkpt lat="43.64574" lon="3.25953">
        <ele>262.6</ele>
        <time>2014-09-28T08:08:03Z</time>
      </trkpt>
      <trkpt lat="43.64578" lon="3.25959">
        <ele>263.2</ele>
        <time>2014-09-28T08:08:08Z</time>
      </trkpt>
      <trkpt lat="43.64582" lon="3.25963">
        <ele>264</ele>
        <time>2014-09-28T08:08:12Z</time>
      </trkpt>
      <trkpt lat="43.64587" lon="3.25966">
        <ele>265</ele>
        <time>2014-09-28T08:08:16Z</time>
      </trkpt>
      <trkpt lat="43.64592" lon="3.25966">
        <ele>266</ele>
        <time>2014-09-28T08:08:19Z</time>
      </trkpt>
      <trkpt lat="43.64598" lon="3.25964">
        <ele>267.4</ele>
        <time>2014-09-28T08:08:22Z</time>
      </trkpt>
      <trkpt lat="43.64602" lon="3.25959">
        <ele>268.8</ele>
        <time>2014-09-28T08:08:25Z</time>
      </trkpt>
      <trkpt lat="43.64607" lon="3.25952">
        <ele>270.5</ele>
        <time>2014-09-28T08:08:28Z</time>
      </trkpt>
      <trkpt lat="43.64611" lon="3.25945">
        <ele>272.3</ele>
        <time>2014-09-28T08:08:31Z</time>
      </trkpt>
      <trkpt lat="43.64616" lon="3.2594">
        <ele>274.1</ele>
        <time>2014-09-28T08:08:34Z</time>
      </trkpt>
      <trkpt lat="43.64621" lon="3.25934">
        <ele>276.1</ele>
        <time>2014-09-28T08:08:37Z</time>
      </trkpt>
      <trkpt lat="43.64625" lon="3.2593">
        <ele>277.6</ele>
        <time>2014-09-28T08:08:39Z</time>
      </trkpt>
      <trkpt lat="43.6463" lon="3.25926">
        <ele>279.1</ele>
        <time>2014-09-28T08:08:42Z</time>
      </trkpt>
      <trkpt lat="43.64635" lon="3.25924">
        <ele>280.2</ele>
        <time>2014-09-28T08:08:45Z</time>
      </trkpt>
      <trkpt lat="43.6464" lon="3.25922">
        <ele>281.3</ele>
        <time>2014-09-28T08:08:48Z</time>
      </trkpt>
      <trkpt lat="43.64645" lon="3.2592">
        <ele>282.5</ele>
        <time>2014-09-28T08:08:51Z</time>
      </trkpt>
      <trkpt lat="43.6465" lon="3.25917">
        <ele>283.7</ele>
        <time>2014-09-28T08:08:54Z</time>
      </trkpt>
      <trkpt lat="43.64655" lon="3.25914">
        <ele>285.1</ele>
        <time>2014-09-28T08:08:58Z</time>
      </trkpt>
      <trkpt lat="43.6466" lon="3.25912">
        <ele>286.4</ele>
        <time>2014-09-28T08:09:02Z</time>
      </trkpt>
      <trkpt lat="43.64665" lon="3.25908">
        <ele>287.8</ele>
        <time>2014-09-28T08:09:06Z</time>
      </trkpt>
      <trkpt lat="43.6467" lon="3.25906">
        <ele>289.1</ele>
        <time>2014-09-28T08:09:10Z</time>
      </trkpt>
      <trkpt lat="43.64675" lon="3.25903">
        <ele>290.7</ele>
        <time>2014-09-28T08:09:14Z</time>
      </trkpt>
      <trkpt lat="43.64685" lon="3.259">
        <ele>293.2</ele>
        <time>2014-09-28T08:09:21Z</time>
      </trkpt>
      <trkpt lat="43.6469" lon="3.25898">
        <ele>294.5</ele>
        <time>2014-09-28T08:09:24Z</time>
      </trkpt>
      <trkpt lat="43.64695" lon="3.25895">
        <ele>296.1</ele>
        <time>2014-09-28T08:09:28Z</time>
      </trkpt>
      <trkpt lat="43.647" lon="3.25893">
        <ele>297.5</ele>
        <time>2014-09-28T08:09:32Z</time>
      </trkpt>
      <trkpt lat="43.64705" lon="3.25893">
        <ele>298.5</ele>
        <time>2014-09-28T08:09:35Z</time>
      </trkpt>
      <trkpt lat="43.64709" lon="3.25892">
        <ele>299.4</ele>
        <time>2014-09-28T08:09:38Z</time>
      </trkpt>
      <trkpt lat="43.64714" lon="3.2589">
        <ele>300.2</ele>
        <time>2014-09-28T08:09:42Z</time>
      </trkpt>
      <trkpt lat="43.64719" lon="3.25888">
        <ele>300.9</ele>
        <time>2014-09-28T08:09:47Z</time>
      </trkpt>
      <trkpt lat="43.64724" lon="3.25888">
        <ele>301.5</ele>
        <time>2014-09-28T08:09:52Z</time>
      </trkpt>
      <trkpt lat="43.6473" lon="3.25888">
        <ele>301.8</ele>
        <time>2014-09-28T08:09:56Z</time>
      </trkpt>
      <trkpt lat="43.64736" lon="3.25889">
        <ele>302</ele>
        <time>2014-09-28T08:10:00Z</time>
      </trkpt>
      <trkpt lat="43.64742" lon="3.25891">
        <ele>302.1</ele>
        <time>2014-09-28T08:10:03Z</time>
      </trkpt>
      <trkpt lat="43.64747" lon="3.25892">
        <ele>302.4</ele>
        <time>2014-09-28T08:10:07Z</time>
      </trkpt>
      <trkpt lat="43.64752" lon="3.25893">
        <ele>302.5</ele>
        <time>2014-09-28T08:10:10Z</time>
      </trkpt>
      <trkpt lat="43.6476" lon="3.25887">
        <ele>304.2</ele>
        <time>2014-09-28T08:10:19Z</time>
      </trkpt>
      <trkpt lat="43.64757" lon="3.25881">
        <ele>304.9</ele>
        <time>2014-09-28T08:10:23Z</time>
      </trkpt>
      <trkpt lat="43.64752" lon="3.25879">
        <ele>304.9</ele>
        <time>2014-09-28T08:10:26Z</time>
      </trkpt>
      <trkpt lat="43.64748" lon="3.25877">
        <ele>305</ele>
        <time>2014-09-28T08:10:29Z</time>
      </trkpt>
      <trkpt lat="43.64743" lon="3.25875">
        <ele>305</ele>
        <time>2014-09-28T08:10:32Z</time>
      </trkpt>
      <trkpt lat="43.64738" lon="3.25873">
        <ele>304.8</ele>
        <time>2014-09-28T08:10:35Z</time>
      </trkpt>
      <trkpt lat="43.64733" lon="3.2587">
        <ele>304.4</ele>
        <time>2014-09-28T08:10:38Z</time>
      </trkpt>
      <trkpt lat="43.64728" lon="3.25868">
        <ele>304</ele>
        <time>2014-09-28T08:10:41Z</time>
      </trkpt>
      <trkpt lat="43.64722" lon="3.25867">
        <ele>303.5</ele>
        <time>2014-09-28T08:10:44Z</time>
      </trkpt>
      <trkpt lat="43.64711" lon="3.25866">
        <ele>302.7</ele>
        <time>2014-09-28T08:10:49Z</time>
      </trkpt>
      <trkpt lat="43.64702" lon="3.25865">
        <ele>301</ele>
        <time>2014-09-28T08:10:53Z</time>
      </trkpt>
      <trkpt lat="43.64698" lon="3.25863">
        <ele>299.9</ele>
        <time>2014-09-28T08:10:55Z</time>
      </trkpt>
      <trkpt lat="43.64693" lon="3.25861">
        <ele>298.6</ele>
        <time>2014-09-28T08:10:58Z</time>
      </trkpt>
      <trkpt lat="43.64688" lon="3.2586">
        <ele>297.4</ele>
        <time>2014-09-28T08:11:01Z</time>
      </trkpt>
      <trkpt lat="43.64681" lon="3.25858">
        <ele>295.9</ele>
        <time>2014-09-28T08:11:04Z</time>
      </trkpt>
      <trkpt lat="43.64675" lon="3.25857">
        <ele>294.3</ele>
        <time>2014-09-28T08:11:07Z</time>
      </trkpt>
      <trkpt lat="43.6467" lon="3.25857">
        <ele>293.2</ele>
        <time>2014-09-28T08:11:09Z</time>
      </trkpt>
      <trkpt lat="43.6466" lon="3.25853">
        <ele>290.5</ele>
        <time>2014-09-28T08:11:14Z</time>
      </trkpt>
      <trkpt lat="43.64654" lon="3.25848">
        <ele>288.8</ele>
        <time>2014-09-28T08:11:17Z</time>
      </trkpt>
      <trkpt lat="43.6465" lon="3.25841">
        <ele>287.2</ele>
        <time>2014-09-28T08:11:20Z</time>
      </trkpt>
      <trkpt lat="43.64649" lon="3.25832">
        <ele>286.1</ele>
        <time>2014-09-28T08:11:23Z</time>
      </trkpt>
      <trkpt lat="43.6465" lon="3.25825">
        <ele>285.6</ele>
        <time>2014-09-28T08:11:26Z</time>
      </trkpt>
      <trkpt lat="43.64654" lon="3.2582">
        <ele>286.2</ele>
        <time>2014-09-28T08:11:29Z</time>
      </trkpt>
      <trkpt lat="43.64659" lon="3.25817">
        <ele>287.2</ele>
        <time>2014-09-28T08:11:33Z</time>
      </trkpt>
      <trkpt lat="43.64664" lon="3.25816">
        <ele>288.4</ele>
        <time>2014-09-28T08:11:36Z</time>
      </trkpt>
      <trkpt lat="43.64669" lon="3.25816">
        <ele>289.6</ele>
        <time>2014-09-28T08:11:39Z</time>
      </trkpt>
      <trkpt lat="43.64669" lon="3.25816">
        <ele>289.6</ele>
        <time>2014-09-28T08:11:39Z</time>
      </trkpt>
      <trkpt lat="43.64674" lon="3.25816">
        <ele>290.8</ele>
        <time>2014-09-28T08:11:42Z</time>
      </trkpt>
      <trkpt lat="43.64679" lon="3.25815">
        <ele>291.9</ele>
        <time>2014-09-28T08:11:45Z</time>
      </trkpt>
      <trkpt lat="43.64685" lon="3.25813">
        <ele>293.3</ele>
        <time>2014-09-28T08:11:49Z</time>
      </trkpt>
      <trkpt lat="43.6469" lon="3.2581">
        <ele>294.5</ele>
        <time>2014-09-28T08:11:53Z</time>
      </trkpt>
      <trkpt lat="43.64695" lon="3.25808">
        <ele>295.4</ele>
        <time>2014-09-28T08:11:56Z</time>
      </trkpt>
      <trkpt lat="43.647" lon="3.25804">
        <ele>296.5</ele>
        <time>2014-09-28T08:12:00Z</time>
      </trkpt>
      <trkpt lat="43.64705" lon="3.25801">
        <ele>297.6</ele>
        <time>2014-09-28T08:12:03Z</time>
      </trkpt>
      <trkpt lat="43.6471" lon="3.25798">
        <ele>298.7</ele>
        <time>2014-09-28T08:12:06Z</time>
      </trkpt>
      <trkpt lat="43.64715" lon="3.25794">
        <ele>299.4</ele>
        <time>2014-09-28T08:12:09Z</time>
      </trkpt>
      <trkpt lat="43.6472" lon="3.2579">
        <ele>299.9</ele>
        <time>2014-09-28T08:12:12Z</time>
      </trkpt>
      <trkpt lat="43.64725" lon="3.25787">
        <ele>300.3</ele>
        <time>2014-09-28T08:12:15Z</time>
      </trkpt>
      <trkpt lat="43.64729" lon="3.25783">
        <ele>300.5</ele>
        <time>2014-09-28T08:12:18Z</time>
      </trkpt>
      <trkpt lat="43.64734" lon="3.25779">
        <ele>300.7</ele>
        <time>2014-09-28T08:12:21Z</time>
      </trkpt>
      <trkpt lat="43.64739" lon="3.25775">
        <ele>301</ele>
        <time>2014-09-28T08:12:24Z</time>
      </trkpt>
      <trkpt lat="43.64744" lon="3.25772">
        <ele>301.3</ele>
        <time>2014-09-28T08:12:27Z</time>
      </trkpt>
      <trkpt lat="43.64748" lon="3.25769">
        <ele>301.8</ele>
        <time>2014-09-28T08:12:30Z</time>
      </trkpt>
      <trkpt lat="43.64753" lon="3.25767">
        <ele>302.3</ele>
        <time>2014-09-28T08:12:33Z</time>
      </trkpt>
      <trkpt lat="43.64757" lon="3.25764">
        <ele>302.8</ele>
        <time>2014-09-28T08:12:36Z</time>
      </trkpt>
      <trkpt lat="43.64762" lon="3.25763">
        <ele>303.6</ele>
        <time>2014-09-28T08:12:39Z</time>
      </trkpt>
      <trkpt lat="43.64768" lon="3.25761">
        <ele>304.5</ele>
        <time>2014-09-28T08:12:42Z</time>
      </trkpt>
      <trkpt lat="43.64773" lon="3.25759">
        <ele>305.1</ele>
        <time>2014-09-28T08:12:45Z</time>
      </trkpt>
      <trkpt lat="43.64779" lon="3.25758">
        <ele>306.2</ele>
        <time>2014-09-28T08:12:48Z</time>
      </trkpt>
      <trkpt lat="43.64784" lon="3.25756">
        <ele>306.9</ele>
        <time>2014-09-28T08:12:51Z</time>
      </trkpt>
      <trkpt lat="43.6479" lon="3.25754">
        <ele>307.6</ele>
        <time>2014-09-28T08:12:54Z</time>
      </trkpt>
      <trkpt lat="43.64794" lon="3.25752">
        <ele>308.3</ele>
        <time>2014-09-28T08:12:57Z</time>
      </trkpt>
      <trkpt lat="43.64803" lon="3.25748">
        <ele>309.5</ele>
        <time>2014-09-28T08:13:03Z</time>
      </trkpt>
      <trkpt lat="43.64808" lon="3.25747">
        <ele>310.3</ele>
        <time>2014-09-28T08:13:06Z</time>
      </trkpt>
      <trkpt lat="43.64813" lon="3.25745">
        <ele>310.9</ele>
        <time>2014-09-28T08:13:10Z</time>
      </trkpt>
      <trkpt lat="43.64818" lon="3.25742">
        <ele>311.5</ele>
        <time>2014-09-28T08:13:14Z</time>
      </trkpt>
      <trkpt lat="43.64824" lon="3.25741">
        <ele>312.3</ele>
        <time>2014-09-28T08:13:18Z</time>
      </trkpt>
      <trkpt lat="43.64832" lon="3.25736">
        <ele>313.1</ele>
        <time>2014-09-28T08:13:24Z</time>
      </trkpt>
      <trkpt lat="43.64836" lon="3.25734">
        <ele>313.7</ele>
        <time>2014-09-28T08:13:27Z</time>
      </trkpt>
      <trkpt lat="43.6484" lon="3.25729">
        <ele>313.7</ele>
        <time>2014-09-28T08:13:31Z</time>
      </trkpt>
      <trkpt lat="43.64845" lon="3.25725">
        <ele>314</ele>
        <time>2014-09-28T08:13:35Z</time>
      </trkpt>
      <trkpt lat="43.64851" lon="3.25723">
        <ele>314.6</ele>
        <time>2014-09-28T08:13:39Z</time>
      </trkpt>
      <trkpt lat="43.64855" lon="3.2572">
        <ele>315.1</ele>
        <time>2014-09-28T08:13:43Z</time>
      </trkpt>
      <trkpt lat="43.6486" lon="3.25723">
        <ele>316.4</ele>
        <time>2014-09-28T08:13:47Z</time>
      </trkpt>
      <trkpt lat="43.64864" lon="3.25727">
        <ele>317.9</ele>
        <time>2014-09-28T08:13:51Z</time>
      </trkpt>
      <trkpt lat="43.64869" lon="3.25731">
        <ele>319.5</ele>
        <time>2014-09-28T08:13:55Z</time>
      </trkpt>
      <trkpt lat="43.64873" lon="3.25742">
        <ele>322.3</ele>
        <time>2014-09-28T08:14:02Z</time>
      </trkpt>
      <trkpt lat="43.64875" lon="3.25749">
        <ele>323.7</ele>
        <time>2014-09-28T08:14:06Z</time>
      </trkpt>
      <trkpt lat="43.64878" lon="3.25755">
        <ele>325.5</ele>
        <time>2014-09-28T08:14:10Z</time>
      </trkpt>
      <trkpt lat="43.6488" lon="3.25762">
        <ele>327.3</ele>
        <time>2014-09-28T08:14:14Z</time>
      </trkpt>
      <trkpt lat="43.64883" lon="3.25768">
        <ele>329.3</ele>
        <time>2014-09-28T08:14:18Z</time>
      </trkpt>
      <trkpt lat="43.64885" lon="3.25773">
        <ele>330.9</ele>
        <time>2014-09-28T08:14:21Z</time>
      </trkpt>
      <trkpt lat="43.64887" lon="3.2578">
        <ele>332.6</ele>
        <time>2014-09-28T08:14:24Z</time>
      </trkpt>
      <trkpt lat="43.6489" lon="3.25787">
        <ele>334.7</ele>
        <time>2014-09-28T08:14:28Z</time>
      </trkpt>
      <trkpt lat="43.64894" lon="3.25794">
        <ele>336.4</ele>
        <time>2014-09-28T08:14:32Z</time>
      </trkpt>
      <trkpt lat="43.64901" lon="3.25802">
        <ele>338.1</ele>
        <time>2014-09-28T08:14:39Z</time>
      </trkpt>
      <trkpt lat="43.64906" lon="3.25806">
        <ele>339.1</ele>
        <time>2014-09-28T08:14:42Z</time>
      </trkpt>
      <trkpt lat="43.64914" lon="3.25812">
        <ele>341.1</ele>
        <time>2014-09-28T08:14:48Z</time>
      </trkpt>
      <trkpt lat="43.64918" lon="3.25816">
        <ele>342.2</ele>
        <time>2014-09-28T08:14:52Z</time>
      </trkpt>
      <trkpt lat="43.64923" lon="3.2582">
        <ele>343.3</ele>
        <time>2014-09-28T08:14:55Z</time>
      </trkpt>
      <trkpt lat="43.64926" lon="3.25823">
        <ele>344.2</ele>
        <time>2014-09-28T08:14:58Z</time>
      </trkpt>
      <trkpt lat="43.6493" lon="3.25827">
        <ele>345.2</ele>
        <time>2014-09-28T08:15:01Z</time>
      </trkpt>
      <trkpt lat="43.64935" lon="3.2583">
        <ele>346.3</ele>
        <time>2014-09-28T08:15:04Z</time>
      </trkpt>
      <trkpt lat="43.64938" lon="3.25835">
        <ele>347.1</ele>
        <time>2014-09-28T08:15:08Z</time>
      </trkpt>
      <trkpt lat="43.64942" lon="3.25841">
        <ele>347.9</ele>
        <time>2014-09-28T08:15:12Z</time>
      </trkpt>
      <trkpt lat="43.64945" lon="3.25846">
        <ele>348.6</ele>
        <time>2014-09-28T08:15:16Z</time>
      </trkpt>
      <trkpt lat="43.64948" lon="3.2585">
        <ele>349.3</ele>
        <time>2014-09-28T08:15:19Z</time>
      </trkpt>
      <trkpt lat="43.64951" lon="3.25856">
        <ele>349.8</ele>
        <time>2014-09-28T08:15:23Z</time>
      </trkpt>
      <trkpt lat="43.64954" lon="3.25862">
        <ele>350.2</ele>
        <time>2014-09-28T08:15:27Z</time>
      </trkpt>
      <trkpt lat="43.64955" lon="3.2587">
        <ele>350.1</ele>
        <time>2014-09-28T08:15:31Z</time>
      </trkpt>
      <trkpt lat="43.64957" lon="3.25877">
        <ele>350.2</ele>
        <time>2014-09-28T08:15:35Z</time>
      </trkpt>
      <trkpt lat="43.64961" lon="3.25879">
        <ele>351.7</ele>
        <time>2014-09-28T08:15:39Z</time>
      </trkpt>
      <trkpt lat="43.64962" lon="3.25872">
        <ele>352.5</ele>
        <time>2014-09-28T08:15:43Z</time>
      </trkpt>
      <trkpt lat="43.64962" lon="3.25864">
        <ele>353.2</ele>
        <time>2014-09-28T08:15:47Z</time>
      </trkpt>
      <trkpt lat="43.64963" lon="3.25857">
        <ele>354</ele>
        <time>2014-09-28T08:15:51Z</time>
      </trkpt>
      <trkpt lat="43.64963" lon="3.25849">
        <ele>354.3</ele>
        <time>2014-09-28T08:15:55Z</time>
      </trkpt>
      <trkpt lat="43.64963" lon="3.25843">
        <ele>354.7</ele>
        <time>2014-09-28T08:15:58Z</time>
      </trkpt>
      <trkpt lat="43.64965" lon="3.25836">
        <ele>355.8</ele>
        <time>2014-09-28T08:16:02Z</time>
      </trkpt>
      <trkpt lat="43.6497" lon="3.25834">
        <ele>357.8</ele>
        <time>2014-09-28T08:16:06Z</time>
      </trkpt>
      <trkpt lat="43.64973" lon="3.2584">
        <ele>358.5</ele>
        <time>2014-09-28T08:16:10Z</time>
      </trkpt>
      <trkpt lat="43.64974" lon="3.25848">
        <ele>358.7</ele>
        <time>2014-09-28T08:16:14Z</time>
      </trkpt>
      <trkpt lat="43.64975" lon="3.25855">
        <ele>358.6</ele>
        <time>2014-09-28T08:16:18Z</time>
      </trkpt>
      <trkpt lat="43.64977" lon="3.25863">
        <ele>359</ele>
        <time>2014-09-28T08:16:22Z</time>
      </trkpt>
      <trkpt lat="43.6498" lon="3.25869">
        <ele>359.5</ele>
        <time>2014-09-28T08:16:26Z</time>
      </trkpt>
      <trkpt lat="43.64982" lon="3.25876">
        <ele>359.9</ele>
        <time>2014-09-28T08:16:30Z</time>
      </trkpt>
      <trkpt lat="43.64984" lon="3.25883">
        <ele>360.3</ele>
        <time>2014-09-28T08:16:34Z</time>
      </trkpt>
      <trkpt lat="43.64987" lon="3.2589">
        <ele>360.7</ele>
        <time>2014-09-28T08:16:38Z</time>
      </trkpt>
      <trkpt lat="43.64989" lon="3.25896">
        <ele>361.1</ele>
        <time>2014-09-28T08:16:42Z</time>
      </trkpt>
      <trkpt lat="43.6499" lon="3.25904">
        <ele>360.9</ele>
        <time>2014-09-28T08:16:46Z</time>
      </trkpt>
      <trkpt lat="43.64995" lon="3.25914">
        <ele>361.7</ele>
        <time>2014-09-28T08:16:52Z</time>
      </trkpt>
      <trkpt lat="43.64997" lon="3.25922">
        <ele>362.1</ele>
        <time>2014-09-28T08:16:56Z</time>
      </trkpt>
      <trkpt lat="43.65" lon="3.25929">
        <ele>362.4</ele>
        <time>2014-09-28T08:17:00Z</time>
      </trkpt>
      <trkpt lat="43.65003" lon="3.25935">
        <ele>363.2</ele>
        <time>2014-09-28T08:17:04Z</time>
      </trkpt>
      <trkpt lat="43.65006" lon="3.25941">
        <ele>363.6</ele>
        <time>2014-09-28T08:17:07Z</time>
      </trkpt>
      <trkpt lat="43.65008" lon="3.25948">
        <ele>364.1</ele>
        <time>2014-09-28T08:17:11Z</time>
      </trkpt>
      <trkpt lat="43.65013" lon="3.25959">
        <ele>364.8</ele>
        <time>2014-09-28T08:17:18Z</time>
      </trkpt>
      <trkpt lat="43.65018" lon="3.25964">
        <ele>366.2</ele>
        <time>2014-09-28T08:17:23Z</time>
      </trkpt>
      <trkpt lat="43.65022" lon="3.25966">
        <ele>367.6</ele>
        <time>2014-09-28T08:17:26Z</time>
      </trkpt>
      <trkpt lat="43.65028" lon="3.25969">
        <ele>369.2</ele>
        <time>2014-09-28T08:17:29Z</time>
      </trkpt>
      <trkpt lat="43.65032" lon="3.25972">
        <ele>370.6</ele>
        <time>2014-09-28T08:17:32Z</time>
      </trkpt>
      <trkpt lat="43.65038" lon="3.25975">
        <ele>372.3</ele>
        <time>2014-09-28T08:17:35Z</time>
      </trkpt>
      <trkpt lat="43.65042" lon="3.25977">
        <ele>373.5</ele>
        <time>2014-09-28T08:17:37Z</time>
      </trkpt>
      <trkpt lat="43.65048" lon="3.2598">
        <ele>374.2</ele>
        <time>2014-09-28T08:17:40Z</time>
      </trkpt>
      <trkpt lat="43.65053" lon="3.25982">
        <ele>375.4</ele>
        <time>2014-09-28T08:17:43Z</time>
      </trkpt>
      <trkpt lat="43.65058" lon="3.25983">
        <ele>376.3</ele>
        <time>2014-09-28T08:17:45Z</time>
      </trkpt>
      <trkpt lat="43.65062" lon="3.25985">
        <ele>377.1</ele>
        <time>2014-09-28T08:17:47Z</time>
      </trkpt>
      <trkpt lat="43.65067" lon="3.25987">
        <ele>377.9</ele>
        <time>2014-09-28T08:17:50Z</time>
      </trkpt>
      <trkpt lat="43.65073" lon="3.2599">
        <ele>379.1</ele>
        <time>2014-09-28T08:17:53Z</time>
      </trkpt>
      <trkpt lat="43.65078" lon="3.25993">
        <ele>379.8</ele>
        <time>2014-09-28T08:17:55Z</time>
      </trkpt>
      <trkpt lat="43.65083" lon="3.25998">
        <ele>380.5</ele>
        <time>2014-09-28T08:17:58Z</time>
      </trkpt>
      <trkpt lat="43.65087" lon="3.26001">
        <ele>381.1</ele>
        <time>2014-09-28T08:18:02Z</time>
      </trkpt>
      <trkpt lat="43.6509" lon="3.26007">
        <ele>381</ele>
        <time>2014-09-28T08:18:58Z</time>
      </trkpt>
      <trkpt lat="43.65095" lon="3.26011">
        <ele>381.7</ele>
        <time>2014-09-28T08:19:02Z</time>
      </trkpt>
      <trkpt lat="43.65099" lon="3.26014">
        <ele>382.5</ele>
        <time>2014-09-28T08:19:05Z</time>
      </trkpt>
      <trkpt lat="43.65104" lon="3.26019">
        <ele>383.2</ele>
        <time>2014-09-28T08:19:08Z</time>
      </trkpt>
      <trkpt lat="43.6511" lon="3.26024">
        <ele>383.9</ele>
        <time>2014-09-28T08:19:11Z</time>
      </trkpt>
      <trkpt lat="43.65114" lon="3.2603">
        <ele>384.4</ele>
        <time>2014-09-28T08:19:13Z</time>
      </trkpt>
      <trkpt lat="43.65119" lon="3.26035">
        <ele>385.2</ele>
        <time>2014-09-28T08:19:15Z</time>
      </trkpt>
      <trkpt lat="43.65124" lon="3.26041">
        <ele>385.7</ele>
        <time>2014-09-28T08:19:17Z</time>
      </trkpt>
      <trkpt lat="43.65128" lon="3.2605">
        <ele>385.7</ele>
        <time>2014-09-28T08:19:19Z</time>
      </trkpt>
      <trkpt lat="43.65131" lon="3.26058">
        <ele>385.4</ele>
        <time>2014-09-28T08:19:21Z</time>
      </trkpt>
      <trkpt lat="43.65135" lon="3.26066">
        <ele>385.3</ele>
        <time>2014-09-28T08:19:23Z</time>
      </trkpt>
      <trkpt lat="43.65139" lon="3.26073">
        <ele>385.1</ele>
        <time>2014-09-28T08:19:25Z</time>
      </trkpt>
      <trkpt lat="43.65141" lon="3.26081">
        <ele>384.9</ele>
        <time>2014-09-28T08:19:27Z</time>
      </trkpt>
      <trkpt lat="43.65143" lon="3.26089">
        <ele>384.6</ele>
        <time>2014-09-28T08:19:29Z</time>
      </trkpt>
      <trkpt lat="43.65145" lon="3.26097">
        <ele>384.4</ele>
        <time>2014-09-28T08:19:31Z</time>
      </trkpt>
      <trkpt lat="43.65149" lon="3.26103">
        <ele>384.4</ele>
        <time>2014-09-28T08:19:33Z</time>
      </trkpt>
      <trkpt lat="43.65153" lon="3.26108">
        <ele>384.8</ele>
        <time>2014-09-28T08:19:35Z</time>
      </trkpt>
      <trkpt lat="43.65158" lon="3.26113">
        <ele>385.2</ele>
        <time>2014-09-28T08:19:37Z</time>
      </trkpt>
      <trkpt lat="43.65162" lon="3.26117">
        <ele>385.6</ele>
        <time>2014-09-28T08:19:39Z</time>
      </trkpt>
      <trkpt lat="43.65166" lon="3.26121">
        <ele>386.1</ele>
        <time>2014-09-28T08:19:41Z</time>
      </trkpt>
      <trkpt lat="43.6517" lon="3.26126">
        <ele>386.6</ele>
        <time>2014-09-28T08:19:43Z</time>
      </trkpt>
      <trkpt lat="43.65175" lon="3.2613">
        <ele>387.3</ele>
        <time>2014-09-28T08:19:45Z</time>
      </trkpt>
      <trkpt lat="43.6518" lon="3.26134">
        <ele>388.1</ele>
        <time>2014-09-28T08:19:47Z</time>
      </trkpt>
      <trkpt lat="43.65185" lon="3.26139">
        <ele>388.9</ele>
        <time>2014-09-28T08:19:49Z</time>
      </trkpt>
      <trkpt lat="43.65189" lon="3.26143">
        <ele>389.7</ele>
        <time>2014-09-28T08:19:51Z</time>
      </trkpt>
      <trkpt lat="43.65194" lon="3.26147">
        <ele>390.6</ele>
        <time>2014-09-28T08:19:53Z</time>
      </trkpt>
      <trkpt lat="43.65199" lon="3.26151">
        <ele>391.6</ele>
        <time>2014-09-28T08:19:55Z</time>
      </trkpt>
      <trkpt lat="43.65203" lon="3.26156">
        <ele>392.4</ele>
        <time>2014-09-28T08:19:57Z</time>
      </trkpt>
      <trkpt lat="43.65208" lon="3.2616">
        <ele>393.3</ele>
        <time>2014-09-28T08:19:59Z</time>
      </trkpt>
      <trkpt lat="43.65212" lon="3.26165">
        <ele>393.6</ele>
        <time>2014-09-28T08:20:01Z</time>
      </trkpt>
      <trkpt lat="43.65217" lon="3.2617">
        <ele>393.9</ele>
        <time>2014-09-28T08:20:03Z</time>
      </trkpt>
      <trkpt lat="43.65222" lon="3.26175">
        <ele>394.2</ele>
        <time>2014-09-28T08:20:05Z</time>
      </trkpt>
      <trkpt lat="43.65227" lon="3.26181">
        <ele>394.4</ele>
        <time>2014-09-28T08:20:07Z</time>
      </trkpt>
      <trkpt lat="43.65233" lon="3.26186">
        <ele>394.7</ele>
        <time>2014-09-28T08:20:09Z</time>
      </trkpt>
      <trkpt lat="43.65239" lon="3.26191">
        <ele>395</ele>
        <time>2014-09-28T08:20:11Z</time>
      </trkpt>
      <trkpt lat="43.65244" lon="3.26197">
        <ele>395.2</ele>
        <time>2014-09-28T08:20:13Z</time>
      </trkpt>
      <trkpt lat="43.6525" lon="3.26202">
        <ele>395.5</ele>
        <time>2014-09-28T08:20:15Z</time>
      </trkpt>
      <trkpt lat="43.65255" lon="3.26208">
        <ele>395.7</ele>
        <time>2014-09-28T08:20:17Z</time>
      </trkpt>
      <trkpt lat="43.65261" lon="3.26212">
        <ele>395.5</ele>
        <time>2014-09-28T08:20:19Z</time>
      </trkpt>
      <trkpt lat="43.65266" lon="3.26215">
        <ele>395.4</ele>
        <time>2014-09-28T08:20:21Z</time>
      </trkpt>
      <trkpt lat="43.6527" lon="3.26217">
        <ele>395.5</ele>
        <time>2014-09-28T08:20:23Z</time>
      </trkpt>
      <trkpt lat="43.65275" lon="3.26219">
        <ele>395.6</ele>
        <time>2014-09-28T08:20:25Z</time>
      </trkpt>
      <trkpt lat="43.65281" lon="3.2622">
        <ele>395.9</ele>
        <time>2014-09-28T08:20:27Z</time>
      </trkpt>
      <trkpt lat="43.65287" lon="3.26222">
        <ele>396.1</ele>
        <time>2014-09-28T08:20:29Z</time>
      </trkpt>
      <trkpt lat="43.65293" lon="3.26223">
        <ele>396.3</ele>
        <time>2014-09-28T08:20:31Z</time>
      </trkpt>
      <trkpt lat="43.65298" lon="3.26226">
        <ele>396.2</ele>
        <time>2014-09-28T08:20:33Z</time>
      </trkpt>
      <trkpt lat="43.65304" lon="3.2623">
        <ele>396.1</ele>
        <time>2014-09-28T08:20:35Z</time>
      </trkpt>
      <trkpt lat="43.65311" lon="3.26234">
        <ele>396</ele>
        <time>2014-09-28T08:20:37Z</time>
      </trkpt>
      <trkpt lat="43.65316" lon="3.26238">
        <ele>395.9</ele>
        <time>2014-09-28T08:20:39Z</time>
      </trkpt>
      <trkpt lat="43.65322" lon="3.26243">
        <ele>395.7</ele>
        <time>2014-09-28T08:20:41Z</time>
      </trkpt>
      <trkpt lat="43.65327" lon="3.26248">
        <ele>395.5</ele>
        <time>2014-09-28T08:20:43Z</time>
      </trkpt>
      <trkpt lat="43.65332" lon="3.26251">
        <ele>395.4</ele>
        <time>2014-09-28T08:20:45Z</time>
      </trkpt>
      <trkpt lat="43.65336" lon="3.26255">
        <ele>395.3</ele>
        <time>2014-09-28T08:20:47Z</time>
      </trkpt>
      <trkpt lat="43.65339" lon="3.2626">
        <ele>395.1</ele>
        <time>2014-09-28T08:20:49Z</time>
      </trkpt>
      <trkpt lat="43.65339" lon="3.26268">
        <ele>394.7</ele>
        <time>2014-09-28T08:20:51Z</time>
      </trkpt>
      <trkpt lat="43.65337" lon="3.26278">
        <ele>394.2</ele>
        <time>2014-09-28T08:20:53Z</time>
      </trkpt>
      <trkpt lat="43.65335" lon="3.26287">
        <ele>393.7</ele>
        <time>2014-09-28T08:20:55Z</time>
      </trkpt>
      <trkpt lat="43.65333" lon="3.26296">
        <ele>393.3</ele>
        <time>2014-09-28T08:20:57Z</time>
      </trkpt>
      <trkpt lat="43.65331" lon="3.26305">
        <ele>393</ele>
        <time>2014-09-28T08:20:59Z</time>
      </trkpt>
      <trkpt lat="43.65329" lon="3.26315">
        <ele>392.6</ele>
        <time>2014-09-28T08:21:01Z</time>
      </trkpt>
      <trkpt lat="43.65327" lon="3.26325">
        <ele>392.2</ele>
        <time>2014-09-28T08:21:03Z</time>
      </trkpt>
      <trkpt lat="43.65325" lon="3.26335">
        <ele>391.7</ele>
        <time>2014-09-28T08:21:05Z</time>
      </trkpt>
      <trkpt lat="43.65322" lon="3.26344">
        <ele>391.3</ele>
        <time>2014-09-28T08:21:07Z</time>
      </trkpt>
      <trkpt lat="43.65319" lon="3.26354">
        <ele>390.8</ele>
        <time>2014-09-28T08:21:09Z</time>
      </trkpt>
      <trkpt lat="43.65315" lon="3.26361">
        <ele>390.4</ele>
        <time>2014-09-28T08:21:11Z</time>
      </trkpt>
      <trkpt lat="43.65311" lon="3.26366">
        <ele>390.1</ele>
        <time>2014-09-28T08:21:13Z</time>
      </trkpt>
      <trkpt lat="43.65306" lon="3.2637">
        <ele>389.7</ele>
        <time>2014-09-28T08:21:15Z</time>
      </trkpt>
      <trkpt lat="43.65302" lon="3.26374">
        <ele>389.4</ele>
        <time>2014-09-28T08:21:17Z</time>
      </trkpt>
      <trkpt lat="43.65297" lon="3.26378">
        <ele>389.5</ele>
        <time>2014-09-28T08:21:19Z</time>
      </trkpt>
      <trkpt lat="43.65293" lon="3.26384">
        <ele>389.8</ele>
        <time>2014-09-28T08:21:21Z</time>
      </trkpt>
      <trkpt lat="43.65289" lon="3.2639">
        <ele>389.8</ele>
        <time>2014-09-28T08:21:23Z</time>
      </trkpt>
      <trkpt lat="43.65286" lon="3.26396">
        <ele>389.7</ele>
        <time>2014-09-28T08:21:25Z</time>
      </trkpt>
      <trkpt lat="43.65283" lon="3.26404">
        <ele>389.7</ele>
        <time>2014-09-28T08:21:27Z</time>
      </trkpt>
      <trkpt lat="43.65279" lon="3.26411">
        <ele>389.8</ele>
        <time>2014-09-28T08:21:29Z</time>
      </trkpt>
      <trkpt lat="43.65276" lon="3.26418">
        <ele>389.9</ele>
        <time>2014-09-28T08:21:31Z</time>
      </trkpt>
      <trkpt lat="43.65273" lon="3.26425">
        <ele>390.2</ele>
        <time>2014-09-28T08:21:33Z</time>
      </trkpt>
      <trkpt lat="43.6527" lon="3.26431">
        <ele>390.5</ele>
        <time>2014-09-28T08:21:35Z</time>
      </trkpt>
      <trkpt lat="43.65268" lon="3.26438">
        <ele>390.8</ele>
        <time>2014-09-28T08:21:37Z</time>
      </trkpt>
      <trkpt lat="43.65265" lon="3.26444">
        <ele>391.2</ele>
        <time>2014-09-28T08:21:39Z</time>
      </trkpt>
      <trkpt lat="43.65263" lon="3.26451">
        <ele>391.7</ele>
        <time>2014-09-28T08:21:41Z</time>
      </trkpt>
      <trkpt lat="43.65261" lon="3.26457">
        <ele>392.2</ele>
        <time>2014-09-28T08:21:43Z</time>
      </trkpt>
      <trkpt lat="43.65259" lon="3.26464">
        <ele>392.6</ele>
        <time>2014-09-28T08:21:45Z</time>
      </trkpt>
      <trkpt lat="43.65256" lon="3.2647">
        <ele>393</ele>
        <time>2014-09-28T08:21:47Z</time>
      </trkpt>
      <trkpt lat="43.65253" lon="3.26475">
        <ele>393.3</ele>
        <time>2014-09-28T08:21:49Z</time>
      </trkpt>
      <trkpt lat="43.6525" lon="3.26481">
        <ele>393.5</ele>
        <time>2014-09-28T08:21:51Z</time>
      </trkpt>
      <trkpt lat="43.65247" lon="3.26486">
        <ele>393.9</ele>
        <time>2014-09-28T08:21:53Z</time>
      </trkpt>
      <trkpt lat="43.65243" lon="3.26491">
        <ele>394.1</ele>
        <time>2014-09-28T08:21:55Z</time>
      </trkpt>
      <trkpt lat="43.65239" lon="3.26495">
        <ele>394.3</ele>
        <time>2014-09-28T08:21:57Z</time>
      </trkpt>
      <trkpt lat="43.65235" lon="3.265">
        <ele>394.6</ele>
        <time>2014-09-28T08:21:59Z</time>
      </trkpt>
      <trkpt lat="43.65232" lon="3.26504">
        <ele>394.9</ele>
        <time>2014-09-28T08:22:01Z</time>
      </trkpt>
      <trkpt lat="43.65228" lon="3.26508">
        <ele>395.2</ele>
        <time>2014-09-28T08:22:03Z</time>
      </trkpt>
      <trkpt lat="43.65225" lon="3.26512">
        <ele>395.5</ele>
        <time>2014-09-28T08:22:05Z</time>
      </trkpt>
      <trkpt lat="43.6522" lon="3.26518">
        <ele>396</ele>
        <time>2014-09-28T08:22:08Z</time>
      </trkpt>
      <trkpt lat="43.65216" lon="3.26523">
        <ele>396.5</ele>
        <time>2014-09-28T08:22:11Z</time>
      </trkpt>
      <trkpt lat="43.65212" lon="3.26528">
        <ele>397</ele>
        <time>2014-09-28T08:22:14Z</time>
      </trkpt>
      <trkpt lat="43.65208" lon="3.26533">
        <ele>397.5</ele>
        <time>2014-09-28T08:22:17Z</time>
      </trkpt>
      <trkpt lat="43.65204" lon="3.26537">
        <ele>397.1</ele>
        <time>2014-09-28T08:22:20Z</time>
      </trkpt>
      <trkpt lat="43.65199" lon="3.26542">
        <ele>396.7</ele>
        <time>2014-09-28T08:22:23Z</time>
      </trkpt>
      <trkpt lat="43.65195" lon="3.26548">
        <ele>396.3</ele>
        <time>2014-09-28T08:22:26Z</time>
      </trkpt>
      <trkpt lat="43.65191" lon="3.26552">
        <ele>395.8</ele>
        <time>2014-09-28T08:22:28Z</time>
      </trkpt>
      <trkpt lat="43.65187" lon="3.26558">
        <ele>395.7</ele>
        <time>2014-09-28T08:22:31Z</time>
      </trkpt>
      <trkpt lat="43.65184" lon="3.26563">
        <ele>395.6</ele>
        <time>2014-09-28T08:22:33Z</time>
      </trkpt>
      <trkpt lat="43.65181" lon="3.26568">
        <ele>395.7</ele>
        <time>2014-09-28T08:22:35Z</time>
      </trkpt>
      <trkpt lat="43.65177" lon="3.26573">
        <ele>395.7</ele>
        <time>2014-09-28T08:22:37Z</time>
      </trkpt>
      <trkpt lat="43.65173" lon="3.26579">
        <ele>395.6</ele>
        <time>2014-09-28T08:22:39Z</time>
      </trkpt>
      <trkpt lat="43.65169" lon="3.26584">
        <ele>395.6</ele>
        <time>2014-09-28T08:22:41Z</time>
      </trkpt>
      <trkpt lat="43.65166" lon="3.26589">
        <ele>395.7</ele>
        <time>2014-09-28T08:22:43Z</time>
      </trkpt>
      <trkpt lat="43.65163" lon="3.26595">
        <ele>396.1</ele>
        <time>2014-09-28T08:22:45Z</time>
      </trkpt>
      <trkpt lat="43.6516" lon="3.26601">
        <ele>396.6</ele>
        <time>2014-09-28T08:22:47Z</time>
      </trkpt>
      <trkpt lat="43.65158" lon="3.26607">
        <ele>397.3</ele>
        <time>2014-09-28T08:22:49Z</time>
      </trkpt>
      <trkpt lat="43.65156" lon="3.26613">
        <ele>398.1</ele>
        <time>2014-09-28T08:22:51Z</time>
      </trkpt>
      <trkpt lat="43.65155" lon="3.2662">
        <ele>399</ele>
        <time>2014-09-28T08:22:53Z</time>
      </trkpt>
      <trkpt lat="43.65153" lon="3.26626">
        <ele>399.8</ele>
        <time>2014-09-28T08:22:55Z</time>
      </trkpt>
      <trkpt lat="43.65151" lon="3.26632">
        <ele>400.4</ele>
        <time>2014-09-28T08:22:57Z</time>
      </trkpt>
      <trkpt lat="43.6515" lon="3.26639">
        <ele>401.3</ele>
        <time>2014-09-28T08:22:59Z</time>
      </trkpt>
      <trkpt lat="43.6515" lon="3.26645">
        <ele>402.1</ele>
        <time>2014-09-28T08:23:01Z</time>
      </trkpt>
      <trkpt lat="43.65148" lon="3.26654">
        <ele>403.1</ele>
        <time>2014-09-28T08:23:04Z</time>
      </trkpt>
      <trkpt lat="43.65146" lon="3.26663">
        <ele>404</ele>
        <time>2014-09-28T08:23:07Z</time>
      </trkpt>
      <trkpt lat="43.65145" lon="3.26669">
        <ele>404.8</ele>
        <time>2014-09-28T08:23:09Z</time>
      </trkpt>
      <trkpt lat="43.65144" lon="3.26678">
        <ele>406</ele>
        <time>2014-09-28T08:23:12Z</time>
      </trkpt>
      <trkpt lat="43.65142" lon="3.26685">
        <ele>406.8</ele>
        <time>2014-09-28T08:23:14Z</time>
      </trkpt>
      <trkpt lat="43.65142" lon="3.26691">
        <ele>407.7</ele>
        <time>2014-09-28T08:23:16Z</time>
      </trkpt>
      <trkpt lat="43.65141" lon="3.26698">
        <ele>408.6</ele>
        <time>2014-09-28T08:23:18Z</time>
      </trkpt>
      <trkpt lat="43.65141" lon="3.26704">
        <ele>409.5</ele>
        <time>2014-09-28T08:23:20Z</time>
      </trkpt>
      <trkpt lat="43.65141" lon="3.26711">
        <ele>410.5</ele>
        <time>2014-09-28T08:23:22Z</time>
      </trkpt>
      <trkpt lat="43.65141" lon="3.26718">
        <ele>411.5</ele>
        <time>2014-09-28T08:23:24Z</time>
      </trkpt>
      <trkpt lat="43.65141" lon="3.26725">
        <ele>412.5</ele>
        <time>2014-09-28T08:23:26Z</time>
      </trkpt>
      <trkpt lat="43.6514" lon="3.26731">
        <ele>413.5</ele>
        <time>2014-09-28T08:23:28Z</time>
      </trkpt>
      <trkpt lat="43.65139" lon="3.26738">
        <ele>414.4</ele>
        <time>2014-09-28T08:23:30Z</time>
      </trkpt>
      <trkpt lat="43.65137" lon="3.26745">
        <ele>415.2</ele>
        <time>2014-09-28T08:23:32Z</time>
      </trkpt>
      <trkpt lat="43.65134" lon="3.26752">
        <ele>416</ele>
        <time>2014-09-28T08:23:35Z</time>
      </trkpt>
      <trkpt lat="43.65132" lon="3.26758">
        <ele>416.5</ele>
        <time>2014-09-28T08:23:37Z</time>
      </trkpt>
      <trkpt lat="43.6513" lon="3.26763">
        <ele>417.1</ele>
        <time>2014-09-28T08:23:39Z</time>
      </trkpt>
      <trkpt lat="43.65127" lon="3.26768">
        <ele>417.6</ele>
        <time>2014-09-28T08:23:41Z</time>
      </trkpt>
      <trkpt lat="43.65123" lon="3.26773">
        <ele>418.2</ele>
        <time>2014-09-28T08:23:43Z</time>
      </trkpt>
      <trkpt lat="43.65119" lon="3.26776">
        <ele>418.7</ele>
        <time>2014-09-28T08:23:45Z</time>
      </trkpt>
      <trkpt lat="43.65114" lon="3.26779">
        <ele>419.3</ele>
        <time>2014-09-28T08:23:47Z</time>
      </trkpt>
      <trkpt lat="43.6511" lon="3.26781">
        <ele>419.6</ele>
        <time>2014-09-28T08:23:49Z</time>
      </trkpt>
      <trkpt lat="43.65104" lon="3.26781">
        <ele>419.8</ele>
        <time>2014-09-28T08:23:51Z</time>
      </trkpt>
      <trkpt lat="43.65099" lon="3.26782">
        <ele>420.1</ele>
        <time>2014-09-28T08:23:53Z</time>
      </trkpt>
      <trkpt lat="43.65095" lon="3.26783">
        <ele>420.4</ele>
        <time>2014-09-28T08:23:55Z</time>
      </trkpt>
      <trkpt lat="43.6509" lon="3.26784">
        <ele>420.8</ele>
        <time>2014-09-28T08:23:57Z</time>
      </trkpt>
      <trkpt lat="43.65086" lon="3.26787">
        <ele>421.5</ele>
        <time>2014-09-28T08:23:59Z</time>
      </trkpt>
      <trkpt lat="43.6508" lon="3.26791">
        <ele>422.5</ele>
        <time>2014-09-28T08:24:02Z</time>
      </trkpt>
      <trkpt lat="43.65076" lon="3.26796">
        <ele>423.1</ele>
        <time>2014-09-28T08:24:04Z</time>
      </trkpt>
      <trkpt lat="43.65073" lon="3.26804">
        <ele>424</ele>
        <time>2014-09-28T08:24:07Z</time>
      </trkpt>
      <trkpt lat="43.65072" lon="3.2681">
        <ele>424.6</ele>
        <time>2014-09-28T08:24:09Z</time>
      </trkpt>
      <trkpt lat="43.65071" lon="3.26816">
        <ele>425.2</ele>
        <time>2014-09-28T08:24:11Z</time>
      </trkpt>
      <trkpt lat="43.65072" lon="3.26823">
        <ele>425.8</ele>
        <time>2014-09-28T08:24:13Z</time>
      </trkpt>
      <trkpt lat="43.65073" lon="3.2683">
        <ele>426.4</ele>
        <time>2014-09-28T08:24:15Z</time>
      </trkpt>
      <trkpt lat="43.65074" lon="3.26836">
        <ele>427</ele>
        <time>2014-09-28T08:24:17Z</time>
      </trkpt>
      <trkpt lat="43.65075" lon="3.26843">
        <ele>427.6</ele>
        <time>2014-09-28T08:24:19Z</time>
      </trkpt>
      <trkpt lat="43.65077" lon="3.2685">
        <ele>428.2</ele>
        <time>2014-09-28T08:24:21Z</time>
      </trkpt>
      <trkpt lat="43.65078" lon="3.26858">
        <ele>428.9</ele>
        <time>2014-09-28T08:24:23Z</time>
      </trkpt>
      <trkpt lat="43.6508" lon="3.26865">
        <ele>429.6</ele>
        <time>2014-09-28T08:24:25Z</time>
      </trkpt>
      <trkpt lat="43.65082" lon="3.26873">
        <ele>430.3</ele>
        <time>2014-09-28T08:24:27Z</time>
      </trkpt>
      <trkpt lat="43.65083" lon="3.2688">
        <ele>430.4</ele>
        <time>2014-09-28T08:24:29Z</time>
      </trkpt>
      <trkpt lat="43.65084" lon="3.26889">
        <ele>430.3</ele>
        <time>2014-09-28T08:24:31Z</time>
      </trkpt>
      <trkpt lat="43.65083" lon="3.269">
        <ele>430.2</ele>
        <time>2014-09-28T08:24:33Z</time>
      </trkpt>
      <trkpt lat="43.65082" lon="3.26912">
        <ele>430</ele>
        <time>2014-09-28T08:24:35Z</time>
      </trkpt>
      <trkpt lat="43.65081" lon="3.2692">
        <ele>429.9</ele>
        <time>2014-09-28T08:24:36Z</time>
      </trkpt>
      <trkpt lat="43.65081" lon="3.26929">
        <ele>429.8</ele>
        <time>2014-09-28T08:24:37Z</time>
      </trkpt>
      <trkpt lat="43.65081" lon="3.2694">
        <ele>429.7</ele>
        <time>2014-09-28T08:24:38Z</time>
      </trkpt>
      <trkpt lat="43.65082" lon="3.26951">
        <ele>429.5</ele>
        <time>2014-09-28T08:24:39Z</time>
      </trkpt>
      <trkpt lat="43.65082" lon="3.26963">
        <ele>429</ele>
        <time>2014-09-28T08:24:40Z</time>
      </trkpt>
      <trkpt lat="43.65083" lon="3.26976">
        <ele>427.7</ele>
        <time>2014-09-28T08:24:41Z</time>
      </trkpt>
      <trkpt lat="43.65084" lon="3.26988">
        <ele>426.5</ele>
        <time>2014-09-28T08:24:42Z</time>
      </trkpt>
      <trkpt lat="43.65084" lon="3.27001">
        <ele>425.2</ele>
        <time>2014-09-28T08:24:43Z</time>
      </trkpt>
      <trkpt lat="43.65085" lon="3.27015">
        <ele>423.8</ele>
        <time>2014-09-28T08:24:44Z</time>
      </trkpt>
      <trkpt lat="43.65085" lon="3.27028">
        <ele>422.4</ele>
        <time>2014-09-28T08:24:45Z</time>
      </trkpt>
      <trkpt lat="43.65083" lon="3.27042">
        <ele>421</ele>
        <time>2014-09-28T08:24:46Z</time>
      </trkpt>
      <trkpt lat="43.65079" lon="3.27054">
        <ele>419.8</ele>
        <time>2014-09-28T08:24:47Z</time>
      </trkpt>
      <trkpt lat="43.65073" lon="3.27066">
        <ele>418.4</ele>
        <time>2014-09-28T08:24:48Z</time>
      </trkpt>
      <trkpt lat="43.65067" lon="3.27077">
        <ele>416.8</ele>
        <time>2014-09-28T08:24:49Z</time>
      </trkpt>
      <trkpt lat="43.65061" lon="3.27088">
        <ele>414.9</ele>
        <time>2014-09-28T08:24:50Z</time>
      </trkpt>
      <trkpt lat="43.65054" lon="3.27099">
        <ele>412.6</ele>
        <time>2014-09-28T08:24:51Z</time>
      </trkpt>
      <trkpt lat="43.65046" lon="3.2711">
        <ele>410</ele>
        <time>2014-09-28T08:24:52Z</time>
      </trkpt>
      <trkpt lat="43.65039" lon="3.27121">
        <ele>407</ele>
        <time>2014-09-28T08:24:53Z</time>
      </trkpt>
      <trkpt lat="43.65031" lon="3.27132">
        <ele>404.8</ele>
        <time>2014-09-28T08:24:54Z</time>
      </trkpt>
      <trkpt lat="43.65022" lon="3.27143">
        <ele>403</ele>
        <time>2014-09-28T08:24:55Z</time>
      </trkpt>
      <trkpt lat="43.65013" lon="3.27153">
        <ele>401</ele>
        <time>2014-09-28T08:24:56Z</time>
      </trkpt>
      <trkpt lat="43.65004" lon="3.27162">
        <ele>398.7</ele>
        <time>2014-09-28T08:24:57Z</time>
      </trkpt>
      <trkpt lat="43.64994" lon="3.27171">
        <ele>396.3</ele>
        <time>2014-09-28T08:24:58Z</time>
      </trkpt>
      <trkpt lat="43.64984" lon="3.27181">
        <ele>393.6</ele>
        <time>2014-09-28T08:24:59Z</time>
      </trkpt>
      <trkpt lat="43.64973" lon="3.2719">
        <ele>390.6</ele>
        <time>2014-09-28T08:25:00Z</time>
      </trkpt>
      <trkpt lat="43.64963" lon="3.272">
        <ele>387.5</ele>
        <time>2014-09-28T08:25:01Z</time>
      </trkpt>
      <trkpt lat="43.64952" lon="3.27209">
        <ele>384</ele>
        <time>2014-09-28T08:25:02Z</time>
      </trkpt>
      <trkpt lat="43.64952" lon="3.27209">
        <ele>384</ele>
        <time>2014-09-28T08:25:02Z</time>
      </trkpt>
      <trkpt lat="43.6494" lon="3.27218">
        <ele>382</ele>
        <time>2014-09-28T08:25:03Z</time>
      </trkpt>
      <trkpt lat="43.64929" lon="3.27227">
        <ele>379.8</ele>
        <time>2014-09-28T08:25:04Z</time>
      </trkpt>
      <trkpt lat="43.64918" lon="3.27235">
        <ele>377.6</ele>
        <time>2014-09-28T08:25:05Z</time>
      </trkpt>
      <trkpt lat="43.64908" lon="3.27244">
        <ele>375.5</ele>
        <time>2014-09-28T08:25:06Z</time>
      </trkpt>
      <trkpt lat="43.64899" lon="3.27254">
        <ele>373.7</ele>
        <time>2014-09-28T08:25:07Z</time>
      </trkpt>
      <trkpt lat="43.64891" lon="3.27262">
        <ele>372</ele>
        <time>2014-09-28T08:25:08Z</time>
      </trkpt>
      <trkpt lat="43.64883" lon="3.27269">
        <ele>370.1</ele>
        <time>2014-09-28T08:25:09Z</time>
      </trkpt>
      <trkpt lat="43.64875" lon="3.27275">
        <ele>368.3</ele>
        <time>2014-09-28T08:25:10Z</time>
      </trkpt>
      <trkpt lat="43.64868" lon="3.27283">
        <ele>366.4</ele>
        <time>2014-09-28T08:25:11Z</time>
      </trkpt>
      <trkpt lat="43.64862" lon="3.27292">
        <ele>364.7</ele>
        <time>2014-09-28T08:25:12Z</time>
      </trkpt>
      <trkpt lat="43.64857" lon="3.27302">
        <ele>363.1</ele>
        <time>2014-09-28T08:25:13Z</time>
      </trkpt>
      <trkpt lat="43.64853" lon="3.27313">
        <ele>362.4</ele>
        <time>2014-09-28T08:25:14Z</time>
      </trkpt>
      <trkpt lat="43.64853" lon="3.27323">
        <ele>362.5</ele>
        <time>2014-09-28T08:25:15Z</time>
      </trkpt>
      <trkpt lat="43.64853" lon="3.2733">
        <ele>363.1</ele>
        <time>2014-09-28T08:25:16Z</time>
      </trkpt>
      <trkpt lat="43.64853" lon="3.27338">
        <ele>363.5</ele>
        <time>2014-09-28T08:25:17Z</time>
      </trkpt>
      <trkpt lat="43.64853" lon="3.27345">
        <ele>363.6</ele>
        <time>2014-09-28T08:25:18Z</time>
      </trkpt>
      <trkpt lat="43.64851" lon="3.27352">
        <ele>363.5</ele>
        <time>2014-09-28T08:25:19Z</time>
      </trkpt>
      <trkpt lat="43.6485" lon="3.27361">
        <ele>363.4</ele>
        <time>2014-09-28T08:25:20Z</time>
      </trkpt>
      <trkpt lat="43.64848" lon="3.2737">
        <ele>363.3</ele>
        <time>2014-09-28T08:25:21Z</time>
      </trkpt>
      <trkpt lat="43.64845" lon="3.27379">
        <ele>363.1</ele>
        <time>2014-09-28T08:25:22Z</time>
      </trkpt>
      <trkpt lat="43.64841" lon="3.27388">
        <ele>362.7</ele>
        <time>2014-09-28T08:25:23Z</time>
      </trkpt>
      <trkpt lat="43.64835" lon="3.27396">
        <ele>361.8</ele>
        <time>2014-09-28T08:25:24Z</time>
      </trkpt>
      <trkpt lat="43.64828" lon="3.27404">
        <ele>360.4</ele>
        <time>2014-09-28T08:25:25Z</time>
      </trkpt>
      <trkpt lat="43.64821" lon="3.2741">
        <ele>358.8</ele>
        <time>2014-09-28T08:25:26Z</time>
      </trkpt>
      <trkpt lat="43.64814" lon="3.27414">
        <ele>356.9</ele>
        <time>2014-09-28T08:25:27Z</time>
      </trkpt>
      <trkpt lat="43.64806" lon="3.27419">
        <ele>355</ele>
        <time>2014-09-28T08:25:28Z</time>
      </trkpt>
      <trkpt lat="43.64799" lon="3.27426">
        <ele>353.4</ele>
        <time>2014-09-28T08:25:29Z</time>
      </trkpt>
      <trkpt lat="43.64793" lon="3.27435">
        <ele>352.2</ele>
        <time>2014-09-28T08:25:30Z</time>
      </trkpt>
      <trkpt lat="43.64787" lon="3.27447">
        <ele>351.9</ele>
        <time>2014-09-28T08:25:31Z</time>
      </trkpt>
      <trkpt lat="43.64783" lon="3.27458">
        <ele>352.1</ele>
        <time>2014-09-28T08:25:32Z</time>
      </trkpt>
      <trkpt lat="43.64779" lon="3.27471">
        <ele>352.5</ele>
        <time>2014-09-28T08:25:33Z</time>
      </trkpt>
      <trkpt lat="43.64776" lon="3.27484">
        <ele>353.1</ele>
        <time>2014-09-28T08:25:34Z</time>
      </trkpt>
      <trkpt lat="43.64773" lon="3.27497">
        <ele>353.9</ele>
        <time>2014-09-28T08:25:35Z</time>
      </trkpt>
      <trkpt lat="43.64771" lon="3.2751">
        <ele>354.9</ele>
        <time>2014-09-28T08:25:36Z</time>
      </trkpt>
      <trkpt lat="43.64769" lon="3.27522">
        <ele>355.8</ele>
        <time>2014-09-28T08:25:37Z</time>
      </trkpt>
      <trkpt lat="43.64768" lon="3.27534">
        <ele>356.8</ele>
        <time>2014-09-28T08:25:38Z</time>
      </trkpt>
      <trkpt lat="43.64767" lon="3.27544">
        <ele>357.6</ele>
        <time>2014-09-28T08:25:39Z</time>
      </trkpt>
      <trkpt lat="43.64766" lon="3.27554">
        <ele>357.7</ele>
        <time>2014-09-28T08:25:40Z</time>
      </trkpt>
      <trkpt lat="43.64765" lon="3.27564">
        <ele>357.9</ele>
        <time>2014-09-28T08:25:41Z</time>
      </trkpt>
      <trkpt lat="43.64763" lon="3.27574">
        <ele>357.9</ele>
        <time>2014-09-28T08:25:42Z</time>
      </trkpt>
      <trkpt lat="43.64761" lon="3.27585">
        <ele>357.9</ele>
        <time>2014-09-28T08:25:43Z</time>
      </trkpt>
      <trkpt lat="43.64759" lon="3.27595">
        <ele>357.9</ele>
        <time>2014-09-28T08:25:44Z</time>
      </trkpt>
      <trkpt lat="43.64759" lon="3.27595">
        <ele>357.9</ele>
        <time>2014-09-28T08:25:44Z</time>
      </trkpt>
      <trkpt lat="43.64757" lon="3.27606">
        <ele>357.9</ele>
        <time>2014-09-28T08:25:45Z</time>
      </trkpt>
      <trkpt lat="43.64754" lon="3.27618">
        <ele>357.8</ele>
        <time>2014-09-28T08:25:46Z</time>
      </trkpt>
      <trkpt lat="43.64751" lon="3.2763">
        <ele>357.5</ele>
        <time>2014-09-28T08:25:47Z</time>
      </trkpt>
      <trkpt lat="43.64748" lon="3.27644">
        <ele>356.8</ele>
        <time>2014-09-28T08:25:48Z</time>
      </trkpt>
      <trkpt lat="43.64746" lon="3.27658">
        <ele>355.9</ele>
        <time>2014-09-28T08:25:49Z</time>
      </trkpt>
      <trkpt lat="43.64742" lon="3.27672">
        <ele>354.9</ele>
        <time>2014-09-28T08:25:50Z</time>
      </trkpt>
      <trkpt lat="43.64737" lon="3.27686">
        <ele>353.6</ele>
        <time>2014-09-28T08:25:51Z</time>
      </trkpt>
      <trkpt lat="43.64731" lon="3.27699">
        <ele>352</ele>
        <time>2014-09-28T08:25:52Z</time>
      </trkpt>
      <trkpt lat="43.64725" lon="3.2771">
        <ele>350.3</ele>
        <time>2014-09-28T08:25:53Z</time>
      </trkpt>
      <trkpt lat="43.64719" lon="3.27721">
        <ele>349</ele>
        <time>2014-09-28T08:25:54Z</time>
      </trkpt>
      <trkpt lat="43.64715" lon="3.27732">
        <ele>347.9</ele>
        <time>2014-09-28T08:25:55Z</time>
      </trkpt>
      <trkpt lat="43.64712" lon="3.27743">
        <ele>347.1</ele>
        <time>2014-09-28T08:25:56Z</time>
      </trkpt>
      <trkpt lat="43.64711" lon="3.27755">
        <ele>346.5</ele>
        <time>2014-09-28T08:25:57Z</time>
      </trkpt>
      <trkpt lat="43.6471" lon="3.27766">
        <ele>346</ele>
        <time>2014-09-28T08:25:58Z</time>
      </trkpt>
      <trkpt lat="43.64709" lon="3.27777">
        <ele>345.5</ele>
        <time>2014-09-28T08:25:59Z</time>
      </trkpt>
      <trkpt lat="43.64708" lon="3.27788">
        <ele>345</ele>
        <time>2014-09-28T08:26:00Z</time>
      </trkpt>
      <trkpt lat="43.64706" lon="3.27799">
        <ele>344.4</ele>
        <time>2014-09-28T08:26:01Z</time>
      </trkpt>
      <trkpt lat="43.64704" lon="3.2781">
        <ele>343.7</ele>
        <time>2014-09-28T08:26:02Z</time>
      </trkpt>
      <trkpt lat="43.64702" lon="3.27821">
        <ele>342.9</ele>
        <time>2014-09-28T08:26:03Z</time>
      </trkpt>
      <trkpt lat="43.64701" lon="3.27833">
        <ele>342.1</ele>
        <time>2014-09-28T08:26:04Z</time>
      </trkpt>
      <trkpt lat="43.647" lon="3.27845">
        <ele>341.4</ele>
        <time>2014-09-28T08:26:05Z</time>
      </trkpt>
      <trkpt lat="43.647" lon="3.27858">
        <ele>340.6</ele>
        <time>2014-09-28T08:26:06Z</time>
      </trkpt>
      <trkpt lat="43.647" lon="3.2787">
        <ele>340</ele>
        <time>2014-09-28T08:26:07Z</time>
      </trkpt>
      <trkpt lat="43.647" lon="3.27881">
        <ele>339.6</ele>
        <time>2014-09-28T08:26:08Z</time>
      </trkpt>
      <trkpt lat="43.647" lon="3.27892">
        <ele>339.3</ele>
        <time>2014-09-28T08:26:09Z</time>
      </trkpt>
      <trkpt lat="43.647" lon="3.27901">
        <ele>339.1</ele>
        <time>2014-09-28T08:26:10Z</time>
      </trkpt>
      <trkpt lat="43.647" lon="3.2791">
        <ele>338.9</ele>
        <time>2014-09-28T08:26:11Z</time>
      </trkpt>
      <trkpt lat="43.64699" lon="3.27917">
        <ele>338.5</ele>
        <time>2014-09-28T08:26:12Z</time>
      </trkpt>
      <trkpt lat="43.64697" lon="3.27924">
        <ele>338</ele>
        <time>2014-09-28T08:26:13Z</time>
      </trkpt>
      <trkpt lat="43.64695" lon="3.2793">
        <ele>337.4</ele>
        <time>2014-09-28T08:26:14Z</time>
      </trkpt>
      <trkpt lat="43.64692" lon="3.27936">
        <ele>336.7</ele>
        <time>2014-09-28T08:26:15Z</time>
      </trkpt>
      <trkpt lat="43.64689" lon="3.27943">
        <ele>336.1</ele>
        <time>2014-09-28T08:26:16Z</time>
      </trkpt>
      <trkpt lat="43.64687" lon="3.2795">
        <ele>335.5</ele>
        <time>2014-09-28T08:26:17Z</time>
      </trkpt>
      <trkpt lat="43.64686" lon="3.27958">
        <ele>334.9</ele>
        <time>2014-09-28T08:26:18Z</time>
      </trkpt>
      <trkpt lat="43.64684" lon="3.27966">
        <ele>334.4</ele>
        <time>2014-09-28T08:26:19Z</time>
      </trkpt>
      <trkpt lat="43.64682" lon="3.27976">
        <ele>333.8</ele>
        <time>2014-09-28T08:26:20Z</time>
      </trkpt>
      <trkpt lat="43.64681" lon="3.27985">
        <ele>333.2</ele>
        <time>2014-09-28T08:26:21Z</time>
      </trkpt>
      <trkpt lat="43.64679" lon="3.27995">
        <ele>332.7</ele>
        <time>2014-09-28T08:26:22Z</time>
      </trkpt>
      <trkpt lat="43.64677" lon="3.28004">
        <ele>332</ele>
        <time>2014-09-28T08:26:23Z</time>
      </trkpt>
      <trkpt lat="43.64675" lon="3.28013">
        <ele>331.2</ele>
        <time>2014-09-28T08:26:24Z</time>
      </trkpt>
      <trkpt lat="43.64671" lon="3.28021">
        <ele>330.2</ele>
        <time>2014-09-28T08:26:25Z</time>
      </trkpt>
      <trkpt lat="43.64667" lon="3.28028">
        <ele>329.1</ele>
        <time>2014-09-28T08:26:26Z</time>
      </trkpt>
      <trkpt lat="43.64663" lon="3.28035">
        <ele>328</ele>
        <time>2014-09-28T08:26:27Z</time>
      </trkpt>
      <trkpt lat="43.6466" lon="3.28041">
        <ele>326.9</ele>
        <time>2014-09-28T08:26:28Z</time>
      </trkpt>
      <trkpt lat="43.64657" lon="3.28048">
        <ele>326</ele>
        <time>2014-09-28T08:26:29Z</time>
      </trkpt>
      <trkpt lat="43.64655" lon="3.28055">
        <ele>325.3</ele>
        <time>2014-09-28T08:26:30Z</time>
      </trkpt>
      <trkpt lat="43.64655" lon="3.28055">
        <ele>325.3</ele>
        <time>2014-09-28T08:26:30Z</time>
      </trkpt>
      <trkpt lat="43.64654" lon="3.28063">
        <ele>324.8</ele>
        <time>2014-09-28T08:26:31Z</time>
      </trkpt>
      <trkpt lat="43.64652" lon="3.2807">
        <ele>324.2</ele>
        <time>2014-09-28T08:26:32Z</time>
      </trkpt>
      <trkpt lat="43.64651" lon="3.28078">
        <ele>323.5</ele>
        <time>2014-09-28T08:26:33Z</time>
      </trkpt>
      <trkpt lat="43.6465" lon="3.28086">
        <ele>323.1</ele>
        <time>2014-09-28T08:26:34Z</time>
      </trkpt>
      <trkpt lat="43.6465" lon="3.28095">
        <ele>322.8</ele>
        <time>2014-09-28T08:26:35Z</time>
      </trkpt>
      <trkpt lat="43.64651" lon="3.28104">
        <ele>322.6</ele>
        <time>2014-09-28T08:26:36Z</time>
      </trkpt>
      <trkpt lat="43.64653" lon="3.28112">
        <ele>322.7</ele>
        <time>2014-09-28T08:26:37Z</time>
      </trkpt>
      <trkpt lat="43.64655" lon="3.2812">
        <ele>323.1</ele>
        <time>2014-09-28T08:26:38Z</time>
      </trkpt>
      <trkpt lat="43.64659" lon="3.28127">
        <ele>323.5</ele>
        <time>2014-09-28T08:26:39Z</time>
      </trkpt>
      <trkpt lat="43.64662" lon="3.28134">
        <ele>323.2</ele>
        <time>2014-09-28T08:26:40Z</time>
      </trkpt>
      <trkpt lat="43.64666" lon="3.28142">
        <ele>322.9</ele>
        <time>2014-09-28T08:26:41Z</time>
      </trkpt>
      <trkpt lat="43.64669" lon="3.2815">
        <ele>322.4</ele>
        <time>2014-09-28T08:26:42Z</time>
      </trkpt>
      <trkpt lat="43.64672" lon="3.28159">
        <ele>321.7</ele>
        <time>2014-09-28T08:26:43Z</time>
      </trkpt>
      <trkpt lat="43.64676" lon="3.28168">
        <ele>321.1</ele>
        <time>2014-09-28T08:26:44Z</time>
      </trkpt>
      <trkpt lat="43.64679" lon="3.28176">
        <ele>320.6</ele>
        <time>2014-09-28T08:26:45Z</time>
      </trkpt>
      <trkpt lat="43.64683" lon="3.28183">
        <ele>320.4</ele>
        <time>2014-09-28T08:26:46Z</time>
      </trkpt>
      <trkpt lat="43.64687" lon="3.2819">
        <ele>320</ele>
        <time>2014-09-28T08:26:47Z</time>
      </trkpt>
      <trkpt lat="43.6469" lon="3.28198">
        <ele>319.5</ele>
        <time>2014-09-28T08:26:48Z</time>
      </trkpt>
      <trkpt lat="43.64693" lon="3.28205">
        <ele>318.9</ele>
        <time>2014-09-28T08:26:49Z</time>
      </trkpt>
      <trkpt lat="43.64697" lon="3.28213">
        <ele>318.5</ele>
        <time>2014-09-28T08:26:50Z</time>
      </trkpt>
      <trkpt lat="43.647" lon="3.2822">
        <ele>318.1</ele>
        <time>2014-09-28T08:26:51Z</time>
      </trkpt>
      <trkpt lat="43.64704" lon="3.28227">
        <ele>318</ele>
        <time>2014-09-28T08:26:52Z</time>
      </trkpt>
      <trkpt lat="43.64708" lon="3.28233">
        <ele>318</ele>
        <time>2014-09-28T08:26:53Z</time>
      </trkpt>
      <trkpt lat="43.64712" lon="3.28238">
        <ele>318.3</ele>
        <time>2014-09-28T08:26:54Z</time>
      </trkpt>
      <trkpt lat="43.64717" lon="3.28246">
        <ele>318.4</ele>
        <time>2014-09-28T08:26:56Z</time>
      </trkpt>
      <trkpt lat="43.64722" lon="3.28254">
        <ele>318.5</ele>
        <time>2014-09-28T08:26:58Z</time>
      </trkpt>
      <trkpt lat="43.64726" lon="3.2826">
        <ele>318.2</ele>
        <time>2014-09-28T08:27:00Z</time>
      </trkpt>
      <trkpt lat="43.64725" lon="3.28267">
        <ele>316.7</ele>
        <time>2014-09-28T08:27:02Z</time>
      </trkpt>
      <trkpt lat="43.6472" lon="3.28268">
        <ele>315.5</ele>
        <time>2014-09-28T08:27:04Z</time>
      </trkpt>
      <trkpt lat="43.64713" lon="3.28264">
        <ele>314.5</ele>
        <time>2014-09-28T08:27:06Z</time>
      </trkpt>
      <trkpt lat="43.64705" lon="3.2826">
        <ele>313.1</ele>
        <time>2014-09-28T08:27:08Z</time>
      </trkpt>
      <trkpt lat="43.647" lon="3.28259">
        <ele>312.2</ele>
        <time>2014-09-28T08:27:09Z</time>
      </trkpt>
      <trkpt lat="43.64695" lon="3.28257">
        <ele>311.3</ele>
        <time>2014-09-28T08:27:10Z</time>
      </trkpt>
      <trkpt lat="43.6469" lon="3.28255">
        <ele>310.4</ele>
        <time>2014-09-28T08:27:11Z</time>
      </trkpt>
      <trkpt lat="43.64686" lon="3.28253">
        <ele>309.8</ele>
        <time>2014-09-28T08:27:12Z</time>
      </trkpt>
      <trkpt lat="43.64682" lon="3.2825">
        <ele>309.3</ele>
        <time>2014-09-28T08:27:13Z</time>
      </trkpt>
      <trkpt lat="43.64678" lon="3.28247">
        <ele>308.9</ele>
        <time>2014-09-28T08:27:14Z</time>
      </trkpt>
      <trkpt lat="43.64671" lon="3.28241">
        <ele>308</ele>
        <time>2014-09-28T08:27:16Z</time>
      </trkpt>
      <trkpt lat="43.64663" lon="3.28234">
        <ele>307.3</ele>
        <time>2014-09-28T08:27:18Z</time>
      </trkpt>
      <trkpt lat="43.64659" lon="3.2823">
        <ele>307</ele>
        <time>2014-09-28T08:27:19Z</time>
      </trkpt>
      <trkpt lat="43.64656" lon="3.28226">
        <ele>306.7</ele>
        <time>2014-09-28T08:27:20Z</time>
      </trkpt>
      <trkpt lat="43.64652" lon="3.28222">
        <ele>306.4</ele>
        <time>2014-09-28T08:27:21Z</time>
      </trkpt>
      <trkpt lat="43.64648" lon="3.28218">
        <ele>306.1</ele>
        <time>2014-09-28T08:27:22Z</time>
      </trkpt>
      <trkpt lat="43.64644" lon="3.28214">
        <ele>305.8</ele>
        <time>2014-09-28T08:27:23Z</time>
      </trkpt>
      <trkpt lat="43.6464" lon="3.28209">
        <ele>305.5</ele>
        <time>2014-09-28T08:27:24Z</time>
      </trkpt>
      <trkpt lat="43.64637" lon="3.28204">
        <ele>305.5</ele>
        <time>2014-09-28T08:27:25Z</time>
      </trkpt>
      <trkpt lat="43.64633" lon="3.282">
        <ele>305.3</ele>
        <time>2014-09-28T08:27:26Z</time>
      </trkpt>
      <trkpt lat="43.64627" lon="3.28191">
        <ele>305.2</ele>
        <time>2014-09-28T08:27:28Z</time>
      </trkpt>
      <trkpt lat="43.64623" lon="3.28187">
        <ele>305</ele>
        <time>2014-09-28T08:27:29Z</time>
      </trkpt>
      <trkpt lat="43.64619" lon="3.28183">
        <ele>304.8</ele>
        <time>2014-09-28T08:27:30Z</time>
      </trkpt>
      <trkpt lat="43.64615" lon="3.2818">
        <ele>304.6</ele>
        <time>2014-09-28T08:27:31Z</time>
      </trkpt>
      <trkpt lat="43.64608" lon="3.28173">
        <ele>304.4</ele>
        <time>2014-09-28T08:27:33Z</time>
      </trkpt>
      <trkpt lat="43.64603" lon="3.28167">
        <ele>304.5</ele>
        <time>2014-09-28T08:27:35Z</time>
      </trkpt>
      <trkpt lat="43.64598" lon="3.28162">
        <ele>304.3</ele>
        <time>2014-09-28T08:27:37Z</time>
      </trkpt>
      <trkpt lat="43.64593" lon="3.28159">
        <ele>303.7</ele>
        <time>2014-09-28T08:27:39Z</time>
      </trkpt>
      <trkpt lat="43.64586" lon="3.28159">
        <ele>302.5</ele>
        <time>2014-09-28T08:27:41Z</time>
      </trkpt>
      <trkpt lat="43.6458" lon="3.28158">
        <ele>301.4</ele>
        <time>2014-09-28T08:27:43Z</time>
      </trkpt>
      <trkpt lat="43.64573" lon="3.28156">
        <ele>300.6</ele>
        <time>2014-09-28T08:27:45Z</time>
      </trkpt>
      <trkpt lat="43.64566" lon="3.28153">
        <ele>299.6</ele>
        <time>2014-09-28T08:27:47Z</time>
      </trkpt>
      <trkpt lat="43.64559" lon="3.28151">
        <ele>298.9</ele>
        <time>2014-09-28T08:27:49Z</time>
      </trkpt>
      <trkpt lat="43.64554" lon="3.28148">
        <ele>298.3</ele>
        <time>2014-09-28T08:27:51Z</time>
      </trkpt>
      <trkpt lat="43.64548" lon="3.28145">
        <ele>297.7</ele>
        <time>2014-09-28T08:27:53Z</time>
      </trkpt>
      <trkpt lat="43.64543" lon="3.28143">
        <ele>297.3</ele>
        <time>2014-09-28T08:27:55Z</time>
      </trkpt>
      <trkpt lat="43.64537" lon="3.2814">
        <ele>298.1</ele>
        <time>2014-09-28T08:27:58Z</time>
      </trkpt>
      <trkpt lat="43.64533" lon="3.28137">
        <ele>299.1</ele>
        <time>2014-09-28T08:28:00Z</time>
      </trkpt>
      <trkpt lat="43.64527" lon="3.28134">
        <ele>300.4</ele>
        <time>2014-09-28T08:28:02Z</time>
      </trkpt>
      <trkpt lat="43.6452" lon="3.28129">
        <ele>302</ele>
        <time>2014-09-28T08:28:04Z</time>
      </trkpt>
      <trkpt lat="43.64512" lon="3.28127">
        <ele>303.2</ele>
        <time>2014-09-28T08:28:06Z</time>
      </trkpt>
      <trkpt lat="43.64503" lon="3.28126">
        <ele>304.4</ele>
        <time>2014-09-28T08:28:08Z</time>
      </trkpt>
      <trkpt lat="43.64495" lon="3.28124">
        <ele>305.7</ele>
        <time>2014-09-28T08:28:10Z</time>
      </trkpt>
      <trkpt lat="43.64488" lon="3.28119">
        <ele>307.4</ele>
        <time>2014-09-28T08:28:12Z</time>
      </trkpt>
      <trkpt lat="43.64483" lon="3.28115">
        <ele>308.8</ele>
        <time>2014-09-28T08:28:14Z</time>
      </trkpt>
      <trkpt lat="43.64478" lon="3.28112">
        <ele>309.9</ele>
        <time>2014-09-28T08:28:18Z</time>
      </trkpt>
      <trkpt lat="43.64474" lon="3.28116">
        <ele>309.8</ele>
        <time>2014-09-28T08:28:26Z</time>
      </trkpt>
      <trkpt lat="43.64473" lon="3.28124">
        <ele>308.4</ele>
        <time>2014-09-28T08:28:29Z</time>
      </trkpt>
      <trkpt lat="43.64478" lon="3.28128">
        <ele>307.1</ele>
        <time>2014-09-28T08:28:31Z</time>
      </trkpt>
      <trkpt lat="43.64485" lon="3.28132">
        <ele>305.7</ele>
        <time>2014-09-28T08:28:33Z</time>
      </trkpt>
      <trkpt lat="43.64491" lon="3.28136">
        <ele>304.3</ele>
        <time>2014-09-28T08:28:35Z</time>
      </trkpt>
      <trkpt lat="43.64498" lon="3.2814">
        <ele>302.7</ele>
        <time>2014-09-28T08:28:37Z</time>
      </trkpt>
      <trkpt lat="43.64505" lon="3.28146">
        <ele>300.9</ele>
        <time>2014-09-28T08:28:39Z</time>
      </trkpt>
      <trkpt lat="43.64511" lon="3.28152">
        <ele>299.2</ele>
        <time>2014-09-28T08:28:41Z</time>
      </trkpt>
      <trkpt lat="43.64517" lon="3.28159">
        <ele>297.3</ele>
        <time>2014-09-28T08:28:43Z</time>
      </trkpt>
      <trkpt lat="43.6452" lon="3.28168">
        <ele>295.4</ele>
        <time>2014-09-28T08:28:45Z</time>
      </trkpt>
      <trkpt lat="43.64521" lon="3.28176">
        <ele>293.9</ele>
        <time>2014-09-28T08:28:47Z</time>
      </trkpt>
      <trkpt lat="43.64522" lon="3.28185">
        <ele>292.3</ele>
        <time>2014-09-28T08:28:49Z</time>
      </trkpt>
      <trkpt lat="43.64522" lon="3.28196">
        <ele>290.5</ele>
        <time>2014-09-28T08:28:51Z</time>
      </trkpt>
      <trkpt lat="43.64523" lon="3.28206">
        <ele>288.7</ele>
        <time>2014-09-28T08:28:53Z</time>
      </trkpt>
      <trkpt lat="43.64525" lon="3.28217">
        <ele>286.6</ele>
        <time>2014-09-28T08:28:55Z</time>
      </trkpt>
      <trkpt lat="43.64528" lon="3.28227">
        <ele>284.6</ele>
        <time>2014-09-28T08:28:57Z</time>
      </trkpt>
      <trkpt lat="43.64532" lon="3.28236">
        <ele>282.8</ele>
        <time>2014-09-28T08:28:59Z</time>
      </trkpt>
      <trkpt lat="43.64537" lon="3.28244">
        <ele>281</ele>
        <time>2014-09-28T08:29:01Z</time>
      </trkpt>
      <trkpt lat="43.6454" lon="3.28254">
        <ele>279</ele>
        <time>2014-09-28T08:29:03Z</time>
      </trkpt>
      <trkpt lat="43.64544" lon="3.28265">
        <ele>277.6</ele>
        <time>2014-09-28T08:29:05Z</time>
      </trkpt>
      <trkpt lat="43.64549" lon="3.28275">
        <ele>276.9</ele>
        <time>2014-09-28T08:29:07Z</time>
      </trkpt>
      <trkpt lat="43.6455" lon="3.28281">
        <ele>276.3</ele>
        <time>2014-09-28T08:29:08Z</time>
      </trkpt>
      <trkpt lat="43.64552" lon="3.28288">
        <ele>275.6</ele>
        <time>2014-09-28T08:29:09Z</time>
      </trkpt>
      <trkpt lat="43.64554" lon="3.28294">
        <ele>275.1</ele>
        <time>2014-09-28T08:29:10Z</time>
      </trkpt>
      <trkpt lat="43.64556" lon="3.28299">
        <ele>274.5</ele>
        <time>2014-09-28T08:29:11Z</time>
      </trkpt>
      <trkpt lat="43.64558" lon="3.28305">
        <ele>273.9</ele>
        <time>2014-09-28T08:29:12Z</time>
      </trkpt>
      <trkpt lat="43.64561" lon="3.28311">
        <ele>273.4</ele>
        <time>2014-09-28T08:29:13Z</time>
      </trkpt>
      <trkpt lat="43.64566" lon="3.2832">
        <ele>272.8</ele>
        <time>2014-09-28T08:29:15Z</time>
      </trkpt>
      <trkpt lat="43.64572" lon="3.28326">
        <ele>272.6</ele>
        <time>2014-09-28T08:29:17Z</time>
      </trkpt>
      <trkpt lat="43.64577" lon="3.28332">
        <ele>272.5</ele>
        <time>2014-09-28T08:29:19Z</time>
      </trkpt>
      <trkpt lat="43.64584" lon="3.28339">
        <ele>272.5</ele>
        <time>2014-09-28T08:29:21Z</time>
      </trkpt>
      <trkpt lat="43.64588" lon="3.28343">
        <ele>272.5</ele>
        <time>2014-09-28T08:29:22Z</time>
      </trkpt>
      <trkpt lat="43.64591" lon="3.28347">
        <ele>272.4</ele>
        <time>2014-09-28T08:29:23Z</time>
      </trkpt>
      <trkpt lat="43.64597" lon="3.28355">
        <ele>271.9</ele>
        <time>2014-09-28T08:29:25Z</time>
      </trkpt>
      <trkpt lat="43.64602" lon="3.28364">
        <ele>271</ele>
        <time>2014-09-28T08:29:27Z</time>
      </trkpt>
      <trkpt lat="43.64606" lon="3.28373">
        <ele>270</ele>
        <time>2014-09-28T08:29:29Z</time>
      </trkpt>
      <trkpt lat="43.64607" lon="3.2838">
        <ele>268.8</ele>
        <time>2014-09-28T08:29:31Z</time>
      </trkpt>
      <trkpt lat="43.64602" lon="3.28382">
        <ele>267.5</ele>
        <time>2014-09-28T08:29:34Z</time>
      </trkpt>
      <trkpt lat="43.64598" lon="3.28378">
        <ele>267.5</ele>
        <time>2014-09-28T08:29:36Z</time>
      </trkpt>
      <trkpt lat="43.64594" lon="3.28374">
        <ele>267.6</ele>
        <time>2014-09-28T08:29:38Z</time>
      </trkpt>
      <trkpt lat="43.64588" lon="3.28369">
        <ele>267.5</ele>
        <time>2014-09-28T08:29:40Z</time>
      </trkpt>
      <trkpt lat="43.64583" lon="3.28366">
        <ele>267.2</ele>
        <time>2014-09-28T08:29:42Z</time>
      </trkpt>
      <trkpt lat="43.64578" lon="3.28362">
        <ele>267</ele>
        <time>2014-09-28T08:29:44Z</time>
      </trkpt>
      <trkpt lat="43.64573" lon="3.28361">
        <ele>266.4</ele>
        <time>2014-09-28T08:29:46Z</time>
      </trkpt>
      <trkpt lat="43.64568" lon="3.28361">
        <ele>265.3</ele>
        <time>2014-09-28T08:29:48Z</time>
      </trkpt>
      <trkpt lat="43.64563" lon="3.28362">
        <ele>264.3</ele>
        <time>2014-09-28T08:29:50Z</time>
      </trkpt>
      <trkpt lat="43.64556" lon="3.28362">
        <ele>263</ele>
        <time>2014-09-28T08:29:52Z</time>
      </trkpt>
      <trkpt lat="43.64551" lon="3.2836">
        <ele>262.5</ele>
        <time>2014-09-28T08:29:53Z</time>
      </trkpt>
      <trkpt lat="43.64546" lon="3.28357">
        <ele>262</ele>
        <time>2014-09-28T08:29:54Z</time>
      </trkpt>
      <trkpt lat="43.64541" lon="3.28355">
        <ele>261.7</ele>
        <time>2014-09-28T08:29:55Z</time>
      </trkpt>
      <trkpt lat="43.64536" lon="3.28354">
        <ele>262.7</ele>
        <time>2014-09-28T08:29:56Z</time>
      </trkpt>
      <trkpt lat="43.64532" lon="3.28352">
        <ele>263.7</ele>
        <time>2014-09-28T08:29:57Z</time>
      </trkpt>
      <trkpt lat="43.64528" lon="3.28348">
        <ele>264.9</ele>
        <time>2014-09-28T08:29:58Z</time>
      </trkpt>
      <trkpt lat="43.64524" lon="3.28344">
        <ele>266.2</ele>
        <time>2014-09-28T08:29:59Z</time>
      </trkpt>
      <trkpt lat="43.64521" lon="3.28338">
        <ele>267.6</ele>
        <time>2014-09-28T08:30:00Z</time>
      </trkpt>
      <trkpt lat="43.64518" lon="3.28333">
        <ele>268.9</ele>
        <time>2014-09-28T08:30:01Z</time>
      </trkpt>
      <trkpt lat="43.64514" lon="3.28323">
        <ele>271</ele>
        <time>2014-09-28T08:30:03Z</time>
      </trkpt>
      <trkpt lat="43.64509" lon="3.28315">
        <ele>273</ele>
        <time>2014-09-28T08:30:05Z</time>
      </trkpt>
      <trkpt lat="43.64502" lon="3.28308">
        <ele>274.9</ele>
        <time>2014-09-28T08:30:07Z</time>
      </trkpt>
      <trkpt lat="43.64495" lon="3.28301">
        <ele>276.6</ele>
        <time>2014-09-28T08:30:09Z</time>
      </trkpt>
      <trkpt lat="43.64489" lon="3.28296">
        <ele>278.1</ele>
        <time>2014-09-28T08:30:11Z</time>
      </trkpt>
      <trkpt lat="43.64483" lon="3.28291">
        <ele>279.5</ele>
        <time>2014-09-28T08:30:13Z</time>
      </trkpt>
      <trkpt lat="43.64476" lon="3.28286">
        <ele>281</ele>
        <time>2014-09-28T08:30:15Z</time>
      </trkpt>
      <trkpt lat="43.6447" lon="3.28284">
        <ele>282</ele>
        <time>2014-09-28T08:30:17Z</time>
      </trkpt>
      <trkpt lat="43.64465" lon="3.28285">
        <ele>282.3</ele>
        <time>2014-09-28T08:30:19Z</time>
      </trkpt>
      <trkpt lat="43.6446" lon="3.28289">
        <ele>282.3</ele>
        <time>2014-09-28T08:30:22Z</time>
      </trkpt>
      <trkpt lat="43.64457" lon="3.28294">
        <ele>282.2</ele>
        <time>2014-09-28T08:30:25Z</time>
      </trkpt>
      <trkpt lat="43.64457" lon="3.28302">
        <ele>281.3</ele>
        <time>2014-09-28T08:30:28Z</time>
      </trkpt>
      <trkpt lat="43.64457" lon="3.28308">
        <ele>280.5</ele>
        <time>2014-09-28T08:30:30Z</time>
      </trkpt>
      <trkpt lat="43.64457" lon="3.28315">
        <ele>279.5</ele>
        <time>2014-09-28T08:30:32Z</time>
      </trkpt>
      <trkpt lat="43.64457" lon="3.28322">
        <ele>278.6</ele>
        <time>2014-09-28T08:30:34Z</time>
      </trkpt>
      <trkpt lat="43.64459" lon="3.28331">
        <ele>277.3</ele>
        <time>2014-09-28T08:30:36Z</time>
      </trkpt>
      <trkpt lat="43.64459" lon="3.28339">
        <ele>276.2</ele>
        <time>2014-09-28T08:30:38Z</time>
      </trkpt>
      <trkpt lat="43.64459" lon="3.28348">
        <ele>275.2</ele>
        <time>2014-09-28T08:30:41Z</time>
      </trkpt>
      <trkpt lat="43.64461" lon="3.28354">
        <ele>274.1</ele>
        <time>2014-09-28T08:30:46Z</time>
      </trkpt>
      <trkpt lat="43.64461" lon="3.28362">
        <ele>273.1</ele>
        <time>2014-09-28T08:30:53Z</time>
      </trkpt>
      <trkpt lat="43.64462" lon="3.28368">
        <ele>272.3</ele>
        <time>2014-09-28T08:30:58Z</time>
      </trkpt>
      <trkpt lat="43.64461" lon="3.28375">
        <ele>271.6</ele>
        <time>2014-09-28T08:31:01Z</time>
      </trkpt>
      <trkpt lat="43.64459" lon="3.28382">
        <ele>271</ele>
        <time>2014-09-28T08:31:06Z</time>
      </trkpt>
      <trkpt lat="43.64459" lon="3.28389">
        <ele>270.2</ele>
        <time>2014-09-28T08:31:08Z</time>
      </trkpt>
      <trkpt lat="43.6446" lon="3.28395">
        <ele>269.2</ele>
        <time>2014-09-28T08:31:10Z</time>
      </trkpt>
      <trkpt lat="43.64462" lon="3.28403">
        <ele>268.1</ele>
        <time>2014-09-28T08:31:16Z</time>
      </trkpt>
      <trkpt lat="43.64461" lon="3.28411">
        <ele>267.1</ele>
        <time>2014-09-28T08:31:19Z</time>
      </trkpt>
      <trkpt lat="43.64463" lon="3.28419">
        <ele>265.9</ele>
        <time>2014-09-28T08:31:21Z</time>
      </trkpt>
      <trkpt lat="43.64462" lon="3.28428">
        <ele>264.9</ele>
        <time>2014-09-28T08:31:23Z</time>
      </trkpt>
      <trkpt lat="43.6446" lon="3.28437">
        <ele>264.4</ele>
        <time>2014-09-28T08:31:25Z</time>
      </trkpt>
      <trkpt lat="43.64458" lon="3.28447">
        <ele>263.4</ele>
        <time>2014-09-28T08:31:27Z</time>
      </trkpt>
      <trkpt lat="43.64458" lon="3.28459">
        <ele>261.9</ele>
        <time>2014-09-28T08:31:29Z</time>
      </trkpt>
      <trkpt lat="43.64459" lon="3.2847">
        <ele>259.9</ele>
        <time>2014-09-28T08:31:31Z</time>
      </trkpt>
      <trkpt lat="43.6446" lon="3.28483">
        <ele>257.6</ele>
        <time>2014-09-28T08:31:33Z</time>
      </trkpt>
      <trkpt lat="43.6446" lon="3.28489">
        <ele>256.5</ele>
        <time>2014-09-28T08:31:34Z</time>
      </trkpt>
      <trkpt lat="43.64459" lon="3.28496">
        <ele>255.6</ele>
        <time>2014-09-28T08:31:35Z</time>
      </trkpt>
      <trkpt lat="43.64457" lon="3.28502">
        <ele>254.9</ele>
        <time>2014-09-28T08:31:36Z</time>
      </trkpt>
      <trkpt lat="43.64455" lon="3.28508">
        <ele>254.2</ele>
        <time>2014-09-28T08:31:37Z</time>
      </trkpt>
      <trkpt lat="43.64452" lon="3.28518">
        <ele>253.1</ele>
        <time>2014-09-28T08:31:39Z</time>
      </trkpt>
      <trkpt lat="43.64446" lon="3.28526">
        <ele>252.8</ele>
        <time>2014-09-28T08:31:41Z</time>
      </trkpt>
      <trkpt lat="43.64439" lon="3.28529">
        <ele>253.5</ele>
        <time>2014-09-28T08:31:43Z</time>
      </trkpt>
      <trkpt lat="43.64432" lon="3.28532">
        <ele>254</ele>
        <time>2014-09-28T08:31:45Z</time>
      </trkpt>
      <trkpt lat="43.64425" lon="3.28538">
        <ele>254.4</ele>
        <time>2014-09-28T08:31:47Z</time>
      </trkpt>
      <trkpt lat="43.64418" lon="3.28541">
        <ele>254.9</ele>
        <time>2014-09-28T08:31:49Z</time>
      </trkpt>
      <trkpt lat="43.64411" lon="3.28548">
        <ele>254.6</ele>
        <time>2014-09-28T08:31:51Z</time>
      </trkpt>
      <trkpt lat="43.64405" lon="3.28557">
        <ele>253.5</ele>
        <time>2014-09-28T08:31:53Z</time>
      </trkpt>
      <trkpt lat="43.64402" lon="3.28562">
        <ele>253</ele>
        <time>2014-09-28T08:31:54Z</time>
      </trkpt>
      <trkpt lat="43.64398" lon="3.28566">
        <ele>252.6</ele>
        <time>2014-09-28T08:31:55Z</time>
      </trkpt>
      <trkpt lat="43.64394" lon="3.2857">
        <ele>252.4</ele>
        <time>2014-09-28T08:31:56Z</time>
      </trkpt>
      <trkpt lat="43.6439" lon="3.28575">
        <ele>252.1</ele>
        <time>2014-09-28T08:31:57Z</time>
      </trkpt>
      <trkpt lat="43.64386" lon="3.28579">
        <ele>251.7</ele>
        <time>2014-09-28T08:31:58Z</time>
      </trkpt>
      <trkpt lat="43.64381" lon="3.28584">
        <ele>251.5</ele>
        <time>2014-09-28T08:31:59Z</time>
      </trkpt>
      <trkpt lat="43.64377" lon="3.28588">
        <ele>251.1</ele>
        <time>2014-09-28T08:32:00Z</time>
      </trkpt>
      <trkpt lat="43.64373" lon="3.28592">
        <ele>251.1</ele>
        <time>2014-09-28T08:32:01Z</time>
      </trkpt>
      <trkpt lat="43.64365" lon="3.28596">
        <ele>251.7</ele>
        <time>2014-09-28T08:32:03Z</time>
      </trkpt>
      <trkpt lat="43.64357" lon="3.28597">
        <ele>253.2</ele>
        <time>2014-09-28T08:32:05Z</time>
      </trkpt>
      <trkpt lat="43.6435" lon="3.286">
        <ele>254</ele>
        <time>2014-09-28T08:32:07Z</time>
      </trkpt>
      <trkpt lat="43.64346" lon="3.28609">
        <ele>252.8</ele>
        <time>2014-09-28T08:32:09Z</time>
      </trkpt>
      <trkpt lat="43.64344" lon="3.28619">
        <ele>251</ele>
        <time>2014-09-28T08:32:11Z</time>
      </trkpt>
      <trkpt lat="43.64339" lon="3.28624">
        <ele>251</ele>
        <time>2014-09-28T08:32:34Z</time>
      </trkpt>
      <trkpt lat="43.64335" lon="3.28629">
        <ele>251.1</ele>
        <time>2014-09-28T08:32:36Z</time>
      </trkpt>
      <trkpt lat="43.6433" lon="3.28635">
        <ele>251.3</ele>
        <time>2014-09-28T08:32:38Z</time>
      </trkpt>
      <trkpt lat="43.64324" lon="3.28643">
        <ele>251.4</ele>
        <time>2014-09-28T08:32:40Z</time>
      </trkpt>
      <trkpt lat="43.64321" lon="3.28649">
        <ele>251.2</ele>
        <time>2014-09-28T08:32:41Z</time>
      </trkpt>
      <trkpt lat="43.64318" lon="3.28655">
        <ele>250.8</ele>
        <time>2014-09-28T08:32:42Z</time>
      </trkpt>
      <trkpt lat="43.64316" lon="3.28663">
        <ele>250.2</ele>
        <time>2014-09-28T08:32:43Z</time>
      </trkpt>
      <trkpt lat="43.64315" lon="3.28671">
        <ele>249.3</ele>
        <time>2014-09-28T08:32:44Z</time>
      </trkpt>
      <trkpt lat="43.64314" lon="3.28679">
        <ele>248.2</ele>
        <time>2014-09-28T08:32:45Z</time>
      </trkpt>
      <trkpt lat="43.64313" lon="3.28688">
        <ele>247.1</ele>
        <time>2014-09-28T08:32:46Z</time>
      </trkpt>
      <trkpt lat="43.64312" lon="3.28698">
        <ele>245.9</ele>
        <time>2014-09-28T08:32:47Z</time>
      </trkpt>
      <trkpt lat="43.6431" lon="3.28708">
        <ele>244.8</ele>
        <time>2014-09-28T08:32:48Z</time>
      </trkpt>
      <trkpt lat="43.64308" lon="3.28719">
        <ele>243.7</ele>
        <time>2014-09-28T08:32:49Z</time>
      </trkpt>
      <trkpt lat="43.64305" lon="3.28728">
        <ele>242.7</ele>
        <time>2014-09-28T08:32:50Z</time>
      </trkpt>
      <trkpt lat="43.643" lon="3.28737">
        <ele>242.1</ele>
        <time>2014-09-28T08:32:51Z</time>
      </trkpt>
      <trkpt lat="43.64295" lon="3.28746">
        <ele>241.6</ele>
        <time>2014-09-28T08:32:52Z</time>
      </trkpt>
      <trkpt lat="43.6429" lon="3.28754">
        <ele>241</ele>
        <time>2014-09-28T08:32:53Z</time>
      </trkpt>
      <trkpt lat="43.64285" lon="3.28762">
        <ele>240.2</ele>
        <time>2014-09-28T08:32:54Z</time>
      </trkpt>
      <trkpt lat="43.64279" lon="3.2877">
        <ele>239.5</ele>
        <time>2014-09-28T08:32:55Z</time>
      </trkpt>
      <trkpt lat="43.64274" lon="3.28778">
        <ele>238.9</ele>
        <time>2014-09-28T08:32:56Z</time>
      </trkpt>
      <trkpt lat="43.64268" lon="3.28786">
        <ele>238.1</ele>
        <time>2014-09-28T08:32:57Z</time>
      </trkpt>
      <trkpt lat="43.64263" lon="3.28795">
        <ele>237.2</ele>
        <time>2014-09-28T08:32:58Z</time>
      </trkpt>
      <trkpt lat="43.64259" lon="3.28804">
        <ele>236.2</ele>
        <time>2014-09-28T08:32:59Z</time>
      </trkpt>
      <trkpt lat="43.64255" lon="3.28814">
        <ele>234.9</ele>
        <time>2014-09-28T08:33:00Z</time>
      </trkpt>
      <trkpt lat="43.6425" lon="3.28824">
        <ele>233.6</ele>
        <time>2014-09-28T08:33:01Z</time>
      </trkpt>
      <trkpt lat="43.64246" lon="3.28834">
        <ele>232.5</ele>
        <time>2014-09-28T08:33:02Z</time>
      </trkpt>
      <trkpt lat="43.64241" lon="3.28842">
        <ele>231.5</ele>
        <time>2014-09-28T08:33:03Z</time>
      </trkpt>
      <trkpt lat="43.64235" lon="3.2885">
        <ele>230.7</ele>
        <time>2014-09-28T08:33:04Z</time>
      </trkpt>
      <trkpt lat="43.64229" lon="3.28857">
        <ele>230.2</ele>
        <time>2014-09-28T08:33:05Z</time>
      </trkpt>
      <trkpt lat="43.64222" lon="3.28863">
        <ele>229.7</ele>
        <time>2014-09-28T08:33:06Z</time>
      </trkpt>
      <trkpt lat="43.64216" lon="3.2887">
        <ele>229.2</ele>
        <time>2014-09-28T08:33:07Z</time>
      </trkpt>
      <trkpt lat="43.64216" lon="3.2887">
        <ele>229.2</ele>
        <time>2014-09-28T08:33:07Z</time>
      </trkpt>
      <trkpt lat="43.64209" lon="3.28878">
        <ele>228.4</ele>
        <time>2014-09-28T08:33:08Z</time>
      </trkpt>
      <trkpt lat="43.64203" lon="3.28886">
        <ele>227.1</ele>
        <time>2014-09-28T08:33:09Z</time>
      </trkpt>
      <trkpt lat="43.64196" lon="3.28894">
        <ele>225.8</ele>
        <time>2014-09-28T08:33:10Z</time>
      </trkpt>
      <trkpt lat="43.6419" lon="3.289">
        <ele>224.7</ele>
        <time>2014-09-28T08:33:11Z</time>
      </trkpt>
      <trkpt lat="43.64185" lon="3.28905">
        <ele>224</ele>
        <time>2014-09-28T08:33:12Z</time>
      </trkpt>
      <trkpt lat="43.6418" lon="3.28909">
        <ele>223.4</ele>
        <time>2014-09-28T08:33:13Z</time>
      </trkpt>
      <trkpt lat="43.64174" lon="3.28914">
        <ele>222.6</ele>
        <time>2014-09-28T08:33:15Z</time>
      </trkpt>
      <trkpt lat="43.64171" lon="3.2892">
        <ele>221.6</ele>
        <time>2014-09-28T08:33:17Z</time>
      </trkpt>
      <trkpt lat="43.64164" lon="3.28928">
        <ele>220.3</ele>
        <time>2014-09-28T08:33:19Z</time>
      </trkpt>
      <trkpt lat="43.64161" lon="3.28933">
        <ele>219.5</ele>
        <time>2014-09-28T08:33:20Z</time>
      </trkpt>
      <trkpt lat="43.64157" lon="3.28937">
        <ele>218.9</ele>
        <time>2014-09-28T08:33:21Z</time>
      </trkpt>
      <trkpt lat="43.64153" lon="3.28941">
        <ele>218.3</ele>
        <time>2014-09-28T08:33:22Z</time>
      </trkpt>
      <trkpt lat="43.64149" lon="3.28945">
        <ele>217.7</ele>
        <time>2014-09-28T08:33:23Z</time>
      </trkpt>
      <trkpt lat="43.64145" lon="3.28948">
        <ele>217.3</ele>
        <time>2014-09-28T08:33:24Z</time>
      </trkpt>
      <trkpt lat="43.64139" lon="3.28953">
        <ele>216.6</ele>
        <time>2014-09-28T08:33:26Z</time>
      </trkpt>
      <trkpt lat="43.64134" lon="3.28958">
        <ele>215.8</ele>
        <time>2014-09-28T08:33:28Z</time>
      </trkpt>
      <trkpt lat="43.64134" lon="3.28966">
        <ele>215</ele>
        <time>2014-09-28T08:33:31Z</time>
      </trkpt>
      <trkpt lat="43.64137" lon="3.28973">
        <ele>214.3</ele>
        <time>2014-09-28T08:33:33Z</time>
      </trkpt>
      <trkpt lat="43.64139" lon="3.28981">
        <ele>213.6</ele>
        <time>2014-09-28T08:33:35Z</time>
      </trkpt>
      <trkpt lat="43.64137" lon="3.28987">
        <ele>213</ele>
        <time>2014-09-28T08:33:37Z</time>
      </trkpt>
      <trkpt lat="43.64133" lon="3.28992">
        <ele>212.5</ele>
        <time>2014-09-28T08:33:39Z</time>
      </trkpt>
      <trkpt lat="43.64129" lon="3.28997">
        <ele>211.9</ele>
        <time>2014-09-28T08:33:41Z</time>
      </trkpt>
      <trkpt lat="43.64125" lon="3.29003">
        <ele>211.2</ele>
        <time>2014-09-28T08:33:43Z</time>
      </trkpt>
      <trkpt lat="43.64121" lon="3.29008">
        <ele>210.7</ele>
        <time>2014-09-28T08:33:45Z</time>
      </trkpt>
      <trkpt lat="43.64117" lon="3.29014">
        <ele>210.2</ele>
        <time>2014-09-28T08:33:47Z</time>
      </trkpt>
      <trkpt lat="43.64115" lon="3.2902">
        <ele>209.5</ele>
        <time>2014-09-28T08:33:49Z</time>
      </trkpt>
      <trkpt lat="43.64112" lon="3.29026">
        <ele>208.9</ele>
        <time>2014-09-28T08:33:51Z</time>
      </trkpt>
      <trkpt lat="43.64111" lon="3.29032">
        <ele>208.3</ele>
        <time>2014-09-28T08:33:53Z</time>
      </trkpt>
      <trkpt lat="43.6411" lon="3.29039">
        <ele>207.5</ele>
        <time>2014-09-28T08:33:56Z</time>
      </trkpt>
      <trkpt lat="43.64111" lon="3.29045">
        <ele>207.1</ele>
        <time>2014-09-28T08:34:01Z</time>
      </trkpt>
      <trkpt lat="43.6411" lon="3.29051">
        <ele>207.1</ele>
        <time>2014-09-28T08:34:09Z</time>
      </trkpt>
      <trkpt lat="43.64111" lon="3.29058">
        <ele>207</ele>
        <time>2014-09-28T08:34:16Z</time>
      </trkpt>
      <trkpt lat="43.64111" lon="3.29064">
        <ele>206.9</ele>
        <time>2014-09-28T08:34:20Z</time>
      </trkpt>
      <trkpt lat="43.64113" lon="3.29071">
        <ele>206.8</ele>
        <time>2014-09-28T08:34:24Z</time>
      </trkpt>
      <trkpt lat="43.64116" lon="3.29077">
        <ele>206.8</ele>
        <time>2014-09-28T08:34:28Z</time>
      </trkpt>
      <trkpt lat="43.64121" lon="3.29078">
        <ele>206.9</ele>
        <time>2014-09-28T08:34:32Z</time>
      </trkpt>
      <trkpt lat="43.64125" lon="3.29078">
        <ele>207</ele>
        <time>2014-09-28T08:34:36Z</time>
      </trkpt>
      <trkpt lat="43.6413" lon="3.29078">
        <ele>207.5</ele>
        <time>2014-09-28T08:34:50Z</time>
      </trkpt>
      <trkpt lat="43.64139" lon="3.29081">
        <ele>208.4</ele>
        <time>2014-09-28T08:34:57Z</time>
      </trkpt>
      <trkpt lat="43.64143" lon="3.29084">
        <ele>208.9</ele>
        <time>2014-09-28T08:35:00Z</time>
      </trkpt>
      <trkpt lat="43.64147" lon="3.29089">
        <ele>209.4</ele>
        <time>2014-09-28T08:35:04Z</time>
      </trkpt>
      <trkpt lat="43.64152" lon="3.29094">
        <ele>210</ele>
        <time>2014-09-28T08:35:07Z</time>
      </trkpt>
      <trkpt lat="43.64155" lon="3.29098">
        <ele>210.5</ele>
        <time>2014-09-28T08:35:09Z</time>
      </trkpt>
      <trkpt lat="43.64159" lon="3.29103">
        <ele>211.1</ele>
        <time>2014-09-28T08:35:11Z</time>
      </trkpt>
      <trkpt lat="43.64163" lon="3.29108">
        <ele>211.8</ele>
        <time>2014-09-28T08:35:14Z</time>
      </trkpt>
      <trkpt lat="43.64166" lon="3.29114">
        <ele>212.5</ele>
        <time>2014-09-28T08:35:17Z</time>
      </trkpt>
      <trkpt lat="43.64171" lon="3.29125">
        <ele>213.6</ele>
        <time>2014-09-28T08:35:23Z</time>
      </trkpt>
      <trkpt lat="43.64174" lon="3.29132">
        <ele>214.5</ele>
        <time>2014-09-28T08:35:26Z</time>
      </trkpt>
      <trkpt lat="43.64177" lon="3.29138">
        <ele>215.4</ele>
        <time>2014-09-28T08:35:30Z</time>
      </trkpt>
      <trkpt lat="43.64178" lon="3.29144">
        <ele>216.1</ele>
        <time>2014-09-28T08:35:33Z</time>
      </trkpt>
      <trkpt lat="43.6418" lon="3.29152">
        <ele>216.9</ele>
        <time>2014-09-28T08:35:37Z</time>
      </trkpt>
      <trkpt lat="43.64183" lon="3.29158">
        <ele>217.7</ele>
        <time>2014-09-28T08:35:41Z</time>
      </trkpt>
      <trkpt lat="43.64187" lon="3.29163">
        <ele>218.5</ele>
        <time>2014-09-28T08:35:44Z</time>
      </trkpt>
      <trkpt lat="43.6419" lon="3.29169">
        <ele>219.3</ele>
        <time>2014-09-28T08:35:58Z</time>
      </trkpt>
      <trkpt lat="43.64194" lon="3.29172">
        <ele>220</ele>
        <time>2014-09-28T08:36:06Z</time>
      </trkpt>
      <trkpt lat="43.64196" lon="3.29178">
        <ele>220.7</ele>
        <time>2014-09-28T08:36:10Z</time>
      </trkpt>
      <trkpt lat="43.64198" lon="3.29185">
        <ele>221.4</ele>
        <time>2014-09-28T08:36:15Z</time>
      </trkpt>
      <trkpt lat="43.64201" lon="3.29191">
        <ele>222.1</ele>
        <time>2014-09-28T08:36:20Z</time>
      </trkpt>
      <trkpt lat="43.64206" lon="3.29203">
        <ele>223.4</ele>
        <time>2014-09-28T08:36:29Z</time>
      </trkpt>
      <trkpt lat="43.64209" lon="3.29208">
        <ele>224.1</ele>
        <time>2014-09-28T08:36:33Z</time>
      </trkpt>
      <trkpt lat="43.64212" lon="3.29213">
        <ele>224.8</ele>
        <time>2014-09-28T08:36:38Z</time>
      </trkpt>
      <trkpt lat="43.64217" lon="3.29216">
        <ele>225.6</ele>
        <time>2014-09-28T08:37:04Z</time>
      </trkpt>
      <trkpt lat="43.64222" lon="3.29213">
        <ele>226.4</ele>
        <time>2014-09-28T08:37:08Z</time>
      </trkpt>
      <trkpt lat="43.64228" lon="3.29211">
        <ele>227.3</ele>
        <time>2014-09-28T08:37:12Z</time>
      </trkpt>
      <trkpt lat="43.64233" lon="3.2921">
        <ele>228.1</ele>
        <time>2014-09-28T08:37:15Z</time>
      </trkpt>
      <trkpt lat="43.64238" lon="3.29209">
        <ele>229</ele>
        <time>2014-09-28T08:37:19Z</time>
      </trkpt>
      <trkpt lat="43.64238" lon="3.29209">
        <ele>229</ele>
        <time>2014-09-28T08:37:19Z</time>
      </trkpt>
      <trkpt lat="43.64247" lon="3.29203">
        <ele>230.2</ele>
        <time>2014-09-28T08:37:25Z</time>
      </trkpt>
      <trkpt lat="43.64257" lon="3.29203">
        <ele>232</ele>
        <time>2014-09-28T08:37:32Z</time>
      </trkpt>
      <trkpt lat="43.64262" lon="3.29207">
        <ele>232.9</ele>
        <time>2014-09-28T08:37:36Z</time>
      </trkpt>
      <trkpt lat="43.64265" lon="3.29214">
        <ele>233.5</ele>
        <time>2014-09-28T08:37:40Z</time>
      </trkpt>
      <trkpt lat="43.64267" lon="3.2922">
        <ele>233.9</ele>
        <time>2014-09-28T08:37:44Z</time>
      </trkpt>
      <trkpt lat="43.64269" lon="3.29226">
        <ele>234.3</ele>
        <time>2014-09-28T08:37:47Z</time>
      </trkpt>
      <trkpt lat="43.64272" lon="3.29232">
        <ele>234.7</ele>
        <time>2014-09-28T08:37:50Z</time>
      </trkpt>
      <trkpt lat="43.64274" lon="3.2924">
        <ele>235.1</ele>
        <time>2014-09-28T08:37:54Z</time>
      </trkpt>
      <trkpt lat="43.64275" lon="3.29246">
        <ele>235.4</ele>
        <time>2014-09-28T08:37:57Z</time>
      </trkpt>
      <trkpt lat="43.64281" lon="3.29257">
        <ele>236.4</ele>
        <time>2014-09-28T08:38:04Z</time>
      </trkpt>
      <trkpt lat="43.64283" lon="3.29263">
        <ele>236.7</ele>
        <time>2014-09-28T08:38:07Z</time>
      </trkpt>
      <trkpt lat="43.64288" lon="3.29274">
        <ele>237.5</ele>
        <time>2014-09-28T08:38:14Z</time>
      </trkpt>
      <trkpt lat="43.64291" lon="3.2928">
        <ele>237.9</ele>
        <time>2014-09-28T08:38:18Z</time>
      </trkpt>
      <trkpt lat="43.64294" lon="3.29287">
        <ele>238.6</ele>
        <time>2014-09-28T08:38:22Z</time>
      </trkpt>
      <trkpt lat="43.64296" lon="3.29293">
        <ele>239.2</ele>
        <time>2014-09-28T08:38:27Z</time>
      </trkpt>
      <trkpt lat="43.643" lon="3.29296">
        <ele>240.3</ele>
        <time>2014-09-28T08:38:32Z</time>
      </trkpt>
      <trkpt lat="43.64305" lon="3.293">
        <ele>241.3</ele>
        <time>2014-09-28T08:38:35Z</time>
      </trkpt>
      <trkpt lat="43.6431" lon="3.29302">
        <ele>242.7</ele>
        <time>2014-09-28T08:38:38Z</time>
      </trkpt>
      <trkpt lat="43.64315" lon="3.29305">
        <ele>244</ele>
        <time>2014-09-28T08:38:41Z</time>
      </trkpt>
      <trkpt lat="43.6432" lon="3.29308">
        <ele>245.1</ele>
        <time>2014-09-28T08:38:45Z</time>
      </trkpt>
      <trkpt lat="43.64322" lon="3.29321">
        <ele>244.9</ele>
        <time>2014-09-28T08:39:42Z</time>
      </trkpt>
      <trkpt lat="43.64325" lon="3.29327">
        <ele>245.1</ele>
        <time>2014-09-28T08:39:44Z</time>
      </trkpt>
      <trkpt lat="43.64327" lon="3.29334">
        <ele>245.3</ele>
        <time>2014-09-28T08:39:46Z</time>
      </trkpt>
      <trkpt lat="43.64331" lon="3.29343">
        <ele>245.5</ele>
        <time>2014-09-28T08:39:48Z</time>
      </trkpt>
      <trkpt lat="43.64333" lon="3.29351">
        <ele>245.5</ele>
        <time>2014-09-28T08:39:50Z</time>
      </trkpt>
      <trkpt lat="43.64336" lon="3.29357">
        <ele>245.7</ele>
        <time>2014-09-28T08:39:52Z</time>
      </trkpt>
      <trkpt lat="43.64339" lon="3.29365">
        <ele>245.7</ele>
        <time>2014-09-28T08:39:54Z</time>
      </trkpt>
      <trkpt lat="43.64342" lon="3.29373">
        <ele>245.8</ele>
        <time>2014-09-28T08:39:56Z</time>
      </trkpt>
      <trkpt lat="43.64345" lon="3.29384">
        <ele>245.4</ele>
        <time>2014-09-28T08:39:58Z</time>
      </trkpt>
      <trkpt lat="43.64346" lon="3.2939">
        <ele>244.9</ele>
        <time>2014-09-28T08:39:59Z</time>
      </trkpt>
      <trkpt lat="43.64345" lon="3.29397">
        <ele>244.2</ele>
        <time>2014-09-28T08:40:00Z</time>
      </trkpt>
      <trkpt lat="43.64344" lon="3.29404">
        <ele>243.1</ele>
        <time>2014-09-28T08:40:01Z</time>
      </trkpt>
      <trkpt lat="43.64342" lon="3.29412">
        <ele>241.9</ele>
        <time>2014-09-28T08:40:02Z</time>
      </trkpt>
      <trkpt lat="43.6434" lon="3.29419">
        <ele>240.7</ele>
        <time>2014-09-28T08:40:03Z</time>
      </trkpt>
      <trkpt lat="43.64339" lon="3.29426">
        <ele>239.7</ele>
        <time>2014-09-28T08:40:04Z</time>
      </trkpt>
      <trkpt lat="43.64339" lon="3.29435">
        <ele>238.8</ele>
        <time>2014-09-28T08:40:05Z</time>
      </trkpt>
      <trkpt lat="43.6434" lon="3.29443">
        <ele>238.2</ele>
        <time>2014-09-28T08:40:06Z</time>
      </trkpt>
      <trkpt lat="43.64343" lon="3.29451">
        <ele>237.9</ele>
        <time>2014-09-28T08:40:07Z</time>
      </trkpt>
      <trkpt lat="43.64347" lon="3.29458">
        <ele>237.9</ele>
        <time>2014-09-28T08:40:08Z</time>
      </trkpt>
      <trkpt lat="43.64352" lon="3.29463">
        <ele>238.3</ele>
        <time>2014-09-28T08:40:09Z</time>
      </trkpt>
      <trkpt lat="43.64357" lon="3.29466">
        <ele>238.8</ele>
        <time>2014-09-28T08:40:10Z</time>
      </trkpt>
      <trkpt lat="43.64362" lon="3.29469">
        <ele>239.4</ele>
        <time>2014-09-28T08:40:11Z</time>
      </trkpt>
      <trkpt lat="43.64367" lon="3.2947">
        <ele>240.1</ele>
        <time>2014-09-28T08:40:12Z</time>
      </trkpt>
      <trkpt lat="43.64373" lon="3.29471">
        <ele>241</ele>
        <time>2014-09-28T08:40:13Z</time>
      </trkpt>
      <trkpt lat="43.64379" lon="3.29472">
        <ele>242.1</ele>
        <time>2014-09-28T08:40:14Z</time>
      </trkpt>
      <trkpt lat="43.64385" lon="3.29473">
        <ele>243.4</ele>
        <time>2014-09-28T08:40:15Z</time>
      </trkpt>
      <trkpt lat="43.64391" lon="3.29475">
        <ele>244.5</ele>
        <time>2014-09-28T08:40:16Z</time>
      </trkpt>
      <trkpt lat="43.64396" lon="3.29479">
        <ele>245.1</ele>
        <time>2014-09-28T08:40:17Z</time>
      </trkpt>
      <trkpt lat="43.64401" lon="3.29486">
        <ele>245.2</ele>
        <time>2014-09-28T08:40:18Z</time>
      </trkpt>
      <trkpt lat="43.64404" lon="3.29494">
        <ele>244.7</ele>
        <time>2014-09-28T08:40:19Z</time>
      </trkpt>
      <trkpt lat="43.64406" lon="3.29503">
        <ele>243.6</ele>
        <time>2014-09-28T08:40:20Z</time>
      </trkpt>
      <trkpt lat="43.64407" lon="3.29513">
        <ele>242.1</ele>
        <time>2014-09-28T08:40:21Z</time>
      </trkpt>
      <trkpt lat="43.64406" lon="3.29523">
        <ele>240.3</ele>
        <time>2014-09-28T08:40:22Z</time>
      </trkpt>
      <trkpt lat="43.64406" lon="3.29534">
        <ele>238.6</ele>
        <time>2014-09-28T08:40:23Z</time>
      </trkpt>
      <trkpt lat="43.64408" lon="3.29544">
        <ele>237.2</ele>
        <time>2014-09-28T08:40:24Z</time>
      </trkpt>
      <trkpt lat="43.64408" lon="3.29544">
        <ele>237.2</ele>
        <time>2014-09-28T08:40:24Z</time>
      </trkpt>
      <trkpt lat="43.64411" lon="3.29554">
        <ele>236.3</ele>
        <time>2014-09-28T08:40:25Z</time>
      </trkpt>
      <trkpt lat="43.64414" lon="3.29563">
        <ele>235.5</ele>
        <time>2014-09-28T08:40:26Z</time>
      </trkpt>
      <trkpt lat="43.64419" lon="3.29572">
        <ele>235</ele>
        <time>2014-09-28T08:40:27Z</time>
      </trkpt>
      <trkpt lat="43.64424" lon="3.2958">
        <ele>234.7</ele>
        <time>2014-09-28T08:40:28Z</time>
      </trkpt>
      <trkpt lat="43.6443" lon="3.29587">
        <ele>234.4</ele>
        <time>2014-09-28T08:40:29Z</time>
      </trkpt>
      <trkpt lat="43.64436" lon="3.29594">
        <ele>234.2</ele>
        <time>2014-09-28T08:40:30Z</time>
      </trkpt>
      <trkpt lat="43.64442" lon="3.296">
        <ele>233.9</ele>
        <time>2014-09-28T08:40:31Z</time>
      </trkpt>
      <trkpt lat="43.64448" lon="3.29607">
        <ele>233.6</ele>
        <time>2014-09-28T08:40:32Z</time>
      </trkpt>
      <trkpt lat="43.64454" lon="3.29615">
        <ele>233.1</ele>
        <time>2014-09-28T08:40:33Z</time>
      </trkpt>
      <trkpt lat="43.64459" lon="3.29624">
        <ele>232.4</ele>
        <time>2014-09-28T08:40:34Z</time>
      </trkpt>
      <trkpt lat="43.64465" lon="3.29633">
        <ele>232.4</ele>
        <time>2014-09-28T08:40:35Z</time>
      </trkpt>
      <trkpt lat="43.64469" lon="3.29643">
        <ele>232.2</ele>
        <time>2014-09-28T08:40:36Z</time>
      </trkpt>
      <trkpt lat="43.64474" lon="3.29653">
        <ele>232</ele>
        <time>2014-09-28T08:40:37Z</time>
      </trkpt>
      <trkpt lat="43.64478" lon="3.29664">
        <ele>231.6</ele>
        <time>2014-09-28T08:40:38Z</time>
      </trkpt>
      <trkpt lat="43.64482" lon="3.29675">
        <ele>231.2</ele>
        <time>2014-09-28T08:40:39Z</time>
      </trkpt>
      <trkpt lat="43.64487" lon="3.29685">
        <ele>230.7</ele>
        <time>2014-09-28T08:40:40Z</time>
      </trkpt>
      <trkpt lat="43.64491" lon="3.29696">
        <ele>230.1</ele>
        <time>2014-09-28T08:40:41Z</time>
      </trkpt>
      <trkpt lat="43.64495" lon="3.29707">
        <ele>229.5</ele>
        <time>2014-09-28T08:40:42Z</time>
      </trkpt>
      <trkpt lat="43.645" lon="3.29717">
        <ele>229.2</ele>
        <time>2014-09-28T08:40:43Z</time>
      </trkpt>
      <trkpt lat="43.64506" lon="3.29727">
        <ele>228.8</ele>
        <time>2014-09-28T08:40:44Z</time>
      </trkpt>
      <trkpt lat="43.64512" lon="3.29737">
        <ele>228.4</ele>
        <time>2014-09-28T08:40:45Z</time>
      </trkpt>
      <trkpt lat="43.64518" lon="3.29747">
        <ele>227.9</ele>
        <time>2014-09-28T08:40:46Z</time>
      </trkpt>
      <trkpt lat="43.64524" lon="3.29757">
        <ele>227.3</ele>
        <time>2014-09-28T08:40:47Z</time>
      </trkpt>
      <trkpt lat="43.6453" lon="3.29766">
        <ele>226.7</ele>
        <time>2014-09-28T08:40:48Z</time>
      </trkpt>
      <trkpt lat="43.64535" lon="3.29775">
        <ele>225.9</ele>
        <time>2014-09-28T08:40:49Z</time>
      </trkpt>
      <trkpt lat="43.64541" lon="3.29784">
        <ele>225</ele>
        <time>2014-09-28T08:40:50Z</time>
      </trkpt>
      <trkpt lat="43.64548" lon="3.29792">
        <ele>224.4</ele>
        <time>2014-09-28T08:40:51Z</time>
      </trkpt>
      <trkpt lat="43.64556" lon="3.29799">
        <ele>223.7</ele>
        <time>2014-09-28T08:40:52Z</time>
      </trkpt>
      <trkpt lat="43.64564" lon="3.29806">
        <ele>223</ele>
        <time>2014-09-28T08:40:53Z</time>
      </trkpt>
      <trkpt lat="43.64573" lon="3.29813">
        <ele>222.3</ele>
        <time>2014-09-28T08:40:54Z</time>
      </trkpt>
      <trkpt lat="43.64582" lon="3.2982">
        <ele>221.5</ele>
        <time>2014-09-28T08:40:55Z</time>
      </trkpt>
      <trkpt lat="43.6459" lon="3.29827">
        <ele>220.7</ele>
        <time>2014-09-28T08:40:56Z</time>
      </trkpt>
      <trkpt lat="43.64599" lon="3.29833">
        <ele>220</ele>
        <time>2014-09-28T08:40:57Z</time>
      </trkpt>
      <trkpt lat="43.64607" lon="3.29839">
        <ele>219.3</ele>
        <time>2014-09-28T08:40:58Z</time>
      </trkpt>
      <trkpt lat="43.64616" lon="3.29845">
        <ele>218.6</ele>
        <time>2014-09-28T08:40:59Z</time>
      </trkpt>
      <trkpt lat="43.64624" lon="3.29851">
        <ele>217.8</ele>
        <time>2014-09-28T08:41:00Z</time>
      </trkpt>
      <trkpt lat="43.64632" lon="3.29857">
        <ele>217.9</ele>
        <time>2014-09-28T08:41:01Z</time>
      </trkpt>
      <trkpt lat="43.64639" lon="3.29864">
        <ele>218.1</ele>
        <time>2014-09-28T08:41:02Z</time>
      </trkpt>
      <trkpt lat="43.64646" lon="3.29871">
        <ele>218</ele>
        <time>2014-09-28T08:41:03Z</time>
      </trkpt>
      <trkpt lat="43.64646" lon="3.29871">
        <ele>218</ele>
        <time>2014-09-28T08:41:03Z</time>
      </trkpt>
      <trkpt lat="43.64652" lon="3.2988">
        <ele>217.6</ele>
        <time>2014-09-28T08:41:04Z</time>
      </trkpt>
      <trkpt lat="43.64656" lon="3.2989">
        <ele>217.1</ele>
        <time>2014-09-28T08:41:05Z</time>
      </trkpt>
      <trkpt lat="43.64661" lon="3.29901">
        <ele>216.3</ele>
        <time>2014-09-28T08:41:06Z</time>
      </trkpt>
      <trkpt lat="43.64665" lon="3.29912">
        <ele>215.5</ele>
        <time>2014-09-28T08:41:07Z</time>
      </trkpt>
      <trkpt lat="43.64669" lon="3.29923">
        <ele>214.7</ele>
        <time>2014-09-28T08:41:08Z</time>
      </trkpt>
      <trkpt lat="43.64673" lon="3.29934">
        <ele>213.9</ele>
        <time>2014-09-28T08:41:09Z</time>
      </trkpt>
      <trkpt lat="43.64676" lon="3.29945">
        <ele>213.1</ele>
        <time>2014-09-28T08:41:10Z</time>
      </trkpt>
      <trkpt lat="43.6468" lon="3.29956">
        <ele>212.3</ele>
        <time>2014-09-28T08:41:11Z</time>
      </trkpt>
      <trkpt lat="43.64684" lon="3.29966">
        <ele>211.7</ele>
        <time>2014-09-28T08:41:12Z</time>
      </trkpt>
      <trkpt lat="43.64688" lon="3.29977">
        <ele>211.1</ele>
        <time>2014-09-28T08:41:13Z</time>
      </trkpt>
      <trkpt lat="43.64692" lon="3.29988">
        <ele>210.4</ele>
        <time>2014-09-28T08:41:14Z</time>
      </trkpt>
      <trkpt lat="43.64696" lon="3.29998">
        <ele>209.8</ele>
        <time>2014-09-28T08:41:15Z</time>
      </trkpt>
      <trkpt lat="43.647" lon="3.30009">
        <ele>209.2</ele>
        <time>2014-09-28T08:41:16Z</time>
      </trkpt>
      <trkpt lat="43.64706" lon="3.30018">
        <ele>209</ele>
        <time>2014-09-28T08:41:17Z</time>
      </trkpt>
      <trkpt lat="43.64712" lon="3.30025">
        <ele>208.9</ele>
        <time>2014-09-28T08:41:18Z</time>
      </trkpt>
      <trkpt lat="43.6472" lon="3.3003">
        <ele>209.2</ele>
        <time>2014-09-28T08:41:19Z</time>
      </trkpt>
      <trkpt lat="43.64728" lon="3.30032">
        <ele>209.9</ele>
        <time>2014-09-28T08:41:20Z</time>
      </trkpt>
      <trkpt lat="43.64737" lon="3.30033">
        <ele>210.8</ele>
        <time>2014-09-28T08:41:21Z</time>
      </trkpt>
      <trkpt lat="43.64746" lon="3.30034">
        <ele>211.8</ele>
        <time>2014-09-28T08:41:22Z</time>
      </trkpt>
      <trkpt lat="43.64755" lon="3.30035">
        <ele>212.8</ele>
        <time>2014-09-28T08:41:23Z</time>
      </trkpt>
      <trkpt lat="43.64764" lon="3.30036">
        <ele>213.8</ele>
        <time>2014-09-28T08:41:24Z</time>
      </trkpt>
      <trkpt lat="43.64773" lon="3.30038">
        <ele>214.6</ele>
        <time>2014-09-28T08:41:25Z</time>
      </trkpt>
      <trkpt lat="43.64782" lon="3.30043">
        <ele>214.6</ele>
        <time>2014-09-28T08:41:26Z</time>
      </trkpt>
      <trkpt lat="43.64789" lon="3.3005">
        <ele>214</ele>
        <time>2014-09-28T08:41:27Z</time>
      </trkpt>
      <trkpt lat="43.64797" lon="3.30059">
        <ele>212.8</ele>
        <time>2014-09-28T08:41:28Z</time>
      </trkpt>
      <trkpt lat="43.64803" lon="3.30068">
        <ele>211.5</ele>
        <time>2014-09-28T08:41:29Z</time>
      </trkpt>
      <trkpt lat="43.6481" lon="3.30078">
        <ele>209.9</ele>
        <time>2014-09-28T08:41:30Z</time>
      </trkpt>
      <trkpt lat="43.64817" lon="3.30087">
        <ele>208.5</ele>
        <time>2014-09-28T08:41:31Z</time>
      </trkpt>
      <trkpt lat="43.64824" lon="3.30096">
        <ele>207.1</ele>
        <time>2014-09-28T08:41:32Z</time>
      </trkpt>
      <trkpt lat="43.64832" lon="3.30103">
        <ele>206.1</ele>
        <time>2014-09-28T08:41:33Z</time>
      </trkpt>
      <trkpt lat="43.64841" lon="3.30108">
        <ele>205.6</ele>
        <time>2014-09-28T08:41:34Z</time>
      </trkpt>
      <trkpt lat="43.6485" lon="3.30112">
        <ele>205.4</ele>
        <time>2014-09-28T08:41:35Z</time>
      </trkpt>
      <trkpt lat="43.6486" lon="3.30114">
        <ele>205.5</ele>
        <time>2014-09-28T08:41:36Z</time>
      </trkpt>
      <trkpt lat="43.64869" lon="3.30116">
        <ele>205.7</ele>
        <time>2014-09-28T08:41:37Z</time>
      </trkpt>
      <trkpt lat="43.64879" lon="3.30118">
        <ele>205.7</ele>
        <time>2014-09-28T08:41:38Z</time>
      </trkpt>
      <trkpt lat="43.64888" lon="3.30122">
        <ele>205.4</ele>
        <time>2014-09-28T08:41:39Z</time>
      </trkpt>
      <trkpt lat="43.64896" lon="3.30128">
        <ele>204.5</ele>
        <time>2014-09-28T08:41:40Z</time>
      </trkpt>
      <trkpt lat="43.64904" lon="3.30137">
        <ele>203.4</ele>
        <time>2014-09-28T08:41:41Z</time>
      </trkpt>
      <trkpt lat="43.64904" lon="3.30137">
        <ele>203.4</ele>
        <time>2014-09-28T08:41:41Z</time>
      </trkpt>
      <trkpt lat="43.6491" lon="3.30147">
        <ele>202.2</ele>
        <time>2014-09-28T08:41:42Z</time>
      </trkpt>
      <trkpt lat="43.64917" lon="3.30157">
        <ele>200.9</ele>
        <time>2014-09-28T08:41:43Z</time>
      </trkpt>
      <trkpt lat="43.64924" lon="3.30167">
        <ele>199.6</ele>
        <time>2014-09-28T08:41:44Z</time>
      </trkpt>
      <trkpt lat="43.6493" lon="3.30177">
        <ele>198.4</ele>
        <time>2014-09-28T08:41:45Z</time>
      </trkpt>
      <trkpt lat="43.64937" lon="3.30187">
        <ele>197.1</ele>
        <time>2014-09-28T08:41:46Z</time>
      </trkpt>
      <trkpt lat="43.64943" lon="3.30197">
        <ele>195.8</ele>
        <time>2014-09-28T08:41:47Z</time>
      </trkpt>
      <trkpt lat="43.64949" lon="3.30207">
        <ele>194.7</ele>
        <time>2014-09-28T08:41:48Z</time>
      </trkpt>
      <trkpt lat="43.64955" lon="3.30216">
        <ele>194</ele>
        <time>2014-09-28T08:41:49Z</time>
      </trkpt>
      <trkpt lat="43.64961" lon="3.30224">
        <ele>193.5</ele>
        <time>2014-09-28T08:41:50Z</time>
      </trkpt>
      <trkpt lat="43.64969" lon="3.30231">
        <ele>193.4</ele>
        <time>2014-09-28T08:41:51Z</time>
      </trkpt>
      <trkpt lat="43.64978" lon="3.30236">
        <ele>193.4</ele>
        <time>2014-09-28T08:41:52Z</time>
      </trkpt>
      <trkpt lat="43.64987" lon="3.30238">
        <ele>193.8</ele>
        <time>2014-09-28T08:41:53Z</time>
      </trkpt>
      <trkpt lat="43.64997" lon="3.3024">
        <ele>194.2</ele>
        <time>2014-09-28T08:41:54Z</time>
      </trkpt>
      <trkpt lat="43.65007" lon="3.30241">
        <ele>194.7</ele>
        <time>2014-09-28T08:41:55Z</time>
      </trkpt>
      <trkpt lat="43.65017" lon="3.30241">
        <ele>195.3</ele>
        <time>2014-09-28T08:41:56Z</time>
      </trkpt>
      <trkpt lat="43.65027" lon="3.30243">
        <ele>195.7</ele>
        <time>2014-09-28T08:41:57Z</time>
      </trkpt>
      <trkpt lat="43.65036" lon="3.30245">
        <ele>195.8</ele>
        <time>2014-09-28T08:41:58Z</time>
      </trkpt>
      <trkpt lat="43.65045" lon="3.30248">
        <ele>195.5</ele>
        <time>2014-09-28T08:41:59Z</time>
      </trkpt>
      <trkpt lat="43.65054" lon="3.30252">
        <ele>194.8</ele>
        <time>2014-09-28T08:42:00Z</time>
      </trkpt>
      <trkpt lat="43.65064" lon="3.30257">
        <ele>194.1</ele>
        <time>2014-09-28T08:42:01Z</time>
      </trkpt>
      <trkpt lat="43.65073" lon="3.30262">
        <ele>193.2</ele>
        <time>2014-09-28T08:42:02Z</time>
      </trkpt>
      <trkpt lat="43.65081" lon="3.30267">
        <ele>192.3</ele>
        <time>2014-09-28T08:42:03Z</time>
      </trkpt>
      <trkpt lat="43.65089" lon="3.30274">
        <ele>191.1</ele>
        <time>2014-09-28T08:42:04Z</time>
      </trkpt>
      <trkpt lat="43.65096" lon="3.30282">
        <ele>189.8</ele>
        <time>2014-09-28T08:42:05Z</time>
      </trkpt>
      <trkpt lat="43.65102" lon="3.30291">
        <ele>188.3</ele>
        <time>2014-09-28T08:42:06Z</time>
      </trkpt>
      <trkpt lat="43.65107" lon="3.30299">
        <ele>187.7</ele>
        <time>2014-09-28T08:42:07Z</time>
      </trkpt>
      <trkpt lat="43.65112" lon="3.30307">
        <ele>187.2</ele>
        <time>2014-09-28T08:42:08Z</time>
      </trkpt>
      <trkpt lat="43.65116" lon="3.30315">
        <ele>186.7</ele>
        <time>2014-09-28T08:42:09Z</time>
      </trkpt>
      <trkpt lat="43.6512" lon="3.30322">
        <ele>186.3</ele>
        <time>2014-09-28T08:42:10Z</time>
      </trkpt>
      <trkpt lat="43.65123" lon="3.3033">
        <ele>185.7</ele>
        <time>2014-09-28T08:42:11Z</time>
      </trkpt>
      <trkpt lat="43.65125" lon="3.30337">
        <ele>185.2</ele>
        <time>2014-09-28T08:42:12Z</time>
      </trkpt>
      <trkpt lat="43.65126" lon="3.30345">
        <ele>184.5</ele>
        <time>2014-09-28T08:42:13Z</time>
      </trkpt>
      <trkpt lat="43.65125" lon="3.30354">
        <ele>183.8</ele>
        <time>2014-09-28T08:42:14Z</time>
      </trkpt>
      <trkpt lat="43.65123" lon="3.30363">
        <ele>183</ele>
        <time>2014-09-28T08:42:15Z</time>
      </trkpt>
      <trkpt lat="43.65121" lon="3.30372">
        <ele>182</ele>
        <time>2014-09-28T08:42:16Z</time>
      </trkpt>
      <trkpt lat="43.65118" lon="3.30382">
        <ele>181.6</ele>
        <time>2014-09-28T08:42:17Z</time>
      </trkpt>
      <trkpt lat="43.65115" lon="3.30392">
        <ele>181.3</ele>
        <time>2014-09-28T08:42:18Z</time>
      </trkpt>
      <trkpt lat="43.65112" lon="3.30403">
        <ele>181</ele>
        <time>2014-09-28T08:42:19Z</time>
      </trkpt>
      <trkpt lat="43.65109" lon="3.30413">
        <ele>180.7</ele>
        <time>2014-09-28T08:42:20Z</time>
      </trkpt>
      <trkpt lat="43.65107" lon="3.30423">
        <ele>180.4</ele>
        <time>2014-09-28T08:42:21Z</time>
      </trkpt>
      <trkpt lat="43.65106" lon="3.30434">
        <ele>180.2</ele>
        <time>2014-09-28T08:42:22Z</time>
      </trkpt>
      <trkpt lat="43.65106" lon="3.30445">
        <ele>180.1</ele>
        <time>2014-09-28T08:42:23Z</time>
      </trkpt>
      <trkpt lat="43.65106" lon="3.30445">
        <ele>180.1</ele>
        <time>2014-09-28T08:42:23Z</time>
      </trkpt>
      <trkpt lat="43.65108" lon="3.30455">
        <ele>180</ele>
        <time>2014-09-28T08:42:24Z</time>
      </trkpt>
      <trkpt lat="43.6511" lon="3.30465">
        <ele>180</ele>
        <time>2014-09-28T08:42:25Z</time>
      </trkpt>
      <trkpt lat="43.65112" lon="3.30474">
        <ele>179.9</ele>
        <time>2014-09-28T08:42:26Z</time>
      </trkpt>
      <trkpt lat="43.65114" lon="3.30484">
        <ele>179.8</ele>
        <time>2014-09-28T08:42:27Z</time>
      </trkpt>
      <trkpt lat="43.65116" lon="3.30494">
        <ele>179.7</ele>
        <time>2014-09-28T08:42:28Z</time>
      </trkpt>
      <trkpt lat="43.65118" lon="3.30504">
        <ele>179.6</ele>
        <time>2014-09-28T08:42:29Z</time>
      </trkpt>
      <trkpt lat="43.65121" lon="3.30514">
        <ele>179.5</ele>
        <time>2014-09-28T08:42:30Z</time>
      </trkpt>
      <trkpt lat="43.65123" lon="3.30523">
        <ele>179.4</ele>
        <time>2014-09-28T08:42:31Z</time>
      </trkpt>
      <trkpt lat="43.65126" lon="3.30532">
        <ele>179.3</ele>
        <time>2014-09-28T08:42:32Z</time>
      </trkpt>
      <trkpt lat="43.65128" lon="3.3054">
        <ele>179.2</ele>
        <time>2014-09-28T08:42:33Z</time>
      </trkpt>
      <trkpt lat="43.65131" lon="3.30547">
        <ele>179.2</ele>
        <time>2014-09-28T08:42:34Z</time>
      </trkpt>
      <trkpt lat="43.65134" lon="3.30552">
        <ele>179.3</ele>
        <time>2014-09-28T08:42:35Z</time>
      </trkpt>
      <trkpt lat="43.65138" lon="3.30562">
        <ele>179.5</ele>
        <time>2014-09-28T08:42:37Z</time>
      </trkpt>
      <trkpt lat="43.65141" lon="3.30569">
        <ele>179.7</ele>
        <time>2014-09-28T08:42:39Z</time>
      </trkpt>
      <trkpt lat="43.65146" lon="3.30575">
        <ele>180</ele>
        <time>2014-09-28T08:42:41Z</time>
      </trkpt>
      <trkpt lat="43.6515" lon="3.30578">
        <ele>180.3</ele>
        <time>2014-09-28T08:42:43Z</time>
      </trkpt>
      <trkpt lat="43.65155" lon="3.30577">
        <ele>180.6</ele>
        <time>2014-09-28T08:42:45Z</time>
      </trkpt>
      <trkpt lat="43.65162" lon="3.30574">
        <ele>181.1</ele>
        <time>2014-09-28T08:42:47Z</time>
      </trkpt>
      <trkpt lat="43.65169" lon="3.30572">
        <ele>181.5</ele>
        <time>2014-09-28T08:42:49Z</time>
      </trkpt>
      <trkpt lat="43.65175" lon="3.3057">
        <ele>181.9</ele>
        <time>2014-09-28T08:42:51Z</time>
      </trkpt>
      <trkpt lat="43.65183" lon="3.30567">
        <ele>182.3</ele>
        <time>2014-09-28T08:42:53Z</time>
      </trkpt>
      <trkpt lat="43.65189" lon="3.30564">
        <ele>182.6</ele>
        <time>2014-09-28T08:42:55Z</time>
      </trkpt>
      <trkpt lat="43.65195" lon="3.30561">
        <ele>182.9</ele>
        <time>2014-09-28T08:42:57Z</time>
      </trkpt>
      <trkpt lat="43.65201" lon="3.3056">
        <ele>183.2</ele>
        <time>2014-09-28T08:42:59Z</time>
      </trkpt>
      <trkpt lat="43.65206" lon="3.30559">
        <ele>183.5</ele>
        <time>2014-09-28T08:43:01Z</time>
      </trkpt>
      <trkpt lat="43.65212" lon="3.30556">
        <ele>183.5</ele>
        <time>2014-09-28T08:43:03Z</time>
      </trkpt>
      <trkpt lat="43.65218" lon="3.30549">
        <ele>183.2</ele>
        <time>2014-09-28T08:43:05Z</time>
      </trkpt>
      <trkpt lat="43.65222" lon="3.30544">
        <ele>183.1</ele>
        <time>2014-09-28T08:43:06Z</time>
      </trkpt>
      <trkpt lat="43.65225" lon="3.30539">
        <ele>183</ele>
        <time>2014-09-28T08:43:07Z</time>
      </trkpt>
      <trkpt lat="43.65229" lon="3.30532">
        <ele>183</ele>
        <time>2014-09-28T08:43:09Z</time>
      </trkpt>
      <trkpt lat="43.65229" lon="3.30525">
        <ele>183</ele>
        <time>2014-09-28T08:43:11Z</time>
      </trkpt>
      <trkpt lat="43.65231" lon="3.30519">
        <ele>182.9</ele>
        <time>2014-09-28T08:43:13Z</time>
      </trkpt>
      <trkpt lat="43.65233" lon="3.30513">
        <ele>183</ele>
        <time>2014-09-28T08:43:15Z</time>
      </trkpt>
      <trkpt lat="43.65238" lon="3.3051">
        <ele>183</ele>
        <time>2014-09-28T08:43:18Z</time>
      </trkpt>
      <trkpt lat="43.65238" lon="3.30503">
        <ele>183</ele>
        <time>2014-09-28T08:43:46Z</time>
      </trkpt>
      <trkpt lat="43.65238" lon="3.30508">
        <ele>183</ele>
        <time>2014-09-28T08:51:08Z</time>
      </trkpt>
      <trkpt lat="43.65241" lon="3.30502">
        <ele>183.1</ele>
        <time>2014-09-28T08:52:33Z</time>
      </trkpt>
      <trkpt lat="43.65243" lon="3.30496">
        <ele>183.1</ele>
        <time>2014-09-28T08:52:36Z</time>
      </trkpt>
      <trkpt lat="43.65246" lon="3.3049">
        <ele>183.2</ele>
        <time>2014-09-28T08:52:38Z</time>
      </trkpt>
      <trkpt lat="43.6525" lon="3.30484">
        <ele>183.4</ele>
        <time>2014-09-28T08:52:41Z</time>
      </trkpt>
      <trkpt lat="43.65256" lon="3.30483">
        <ele>183.5</ele>
        <time>2014-09-28T08:52:44Z</time>
      </trkpt>
      <trkpt lat="43.65252" lon="3.30488">
        <ele>183.4</ele>
        <time>2014-09-28T08:52:48Z</time>
      </trkpt>
      <trkpt lat="43.65249" lon="3.30482">
        <ele>183.3</ele>
        <time>2014-09-28T08:52:52Z</time>
      </trkpt>
      <trkpt lat="43.65246" lon="3.30488">
        <ele>183.2</ele>
        <time>2014-09-28T08:53:26Z</time>
      </trkpt>
      <trkpt lat="43.65242" lon="3.305">
        <ele>183.1</ele>
        <time>2014-09-28T08:53:34Z</time>
      </trkpt>
      <trkpt lat="43.65239" lon="3.30506">
        <ele>183</ele>
        <time>2014-09-28T08:53:38Z</time>
      </trkpt>
      <trkpt lat="43.65236" lon="3.30511">
        <ele>183</ele>
        <time>2014-09-28T08:53:41Z</time>
      </trkpt>
      <trkpt lat="43.6523" lon="3.30515">
        <ele>182.9</ele>
        <time>2014-09-28T08:53:44Z</time>
      </trkpt>
      <trkpt lat="43.65229" lon="3.30521">
        <ele>182.9</ele>
        <time>2014-09-28T08:53:46Z</time>
      </trkpt>
      <trkpt lat="43.65229" lon="3.30527">
        <ele>183</ele>
        <time>2014-09-28T08:53:48Z</time>
      </trkpt>
      <trkpt lat="43.65234" lon="3.3053">
        <ele>183</ele>
        <time>2014-09-28T08:53:51Z</time>
      </trkpt>
      <trkpt lat="43.65238" lon="3.30526">
        <ele>183</ele>
        <time>2014-09-28T08:53:54Z</time>
      </trkpt>
      <trkpt lat="43.65241" lon="3.30521">
        <ele>183</ele>
        <time>2014-09-28T08:54:03Z</time>
      </trkpt>
      <trkpt lat="43.65246" lon="3.30516">
        <ele>183.1</ele>
        <time>2014-09-28T08:54:05Z</time>
      </trkpt>
      <trkpt lat="43.65251" lon="3.30511">
        <ele>183.2</ele>
        <time>2014-09-28T08:54:07Z</time>
      </trkpt>
      <trkpt lat="43.65256" lon="3.30504">
        <ele>183.3</ele>
        <time>2014-09-28T08:54:09Z</time>
      </trkpt>
      <trkpt lat="43.65261" lon="3.30498">
        <ele>183.5</ele>
        <time>2014-09-28T08:54:11Z</time>
      </trkpt>
      <trkpt lat="43.65267" lon="3.30492">
        <ele>183.7</ele>
        <time>2014-09-28T08:54:13Z</time>
      </trkpt>
      <trkpt lat="43.65272" lon="3.30486">
        <ele>183.9</ele>
        <time>2014-09-28T08:54:15Z</time>
      </trkpt>
      <trkpt lat="43.65278" lon="3.3048">
        <ele>184.1</ele>
        <time>2014-09-28T08:54:17Z</time>
      </trkpt>
      <trkpt lat="43.65283" lon="3.30473">
        <ele>184.4</ele>
        <time>2014-09-28T08:54:19Z</time>
      </trkpt>
      <trkpt lat="43.65288" lon="3.30467">
        <ele>184.7</ele>
        <time>2014-09-28T08:54:21Z</time>
      </trkpt>
      <trkpt lat="43.65294" lon="3.3046">
        <ele>185</ele>
        <time>2014-09-28T08:54:23Z</time>
      </trkpt>
      <trkpt lat="43.65299" lon="3.30454">
        <ele>185.2</ele>
        <time>2014-09-28T08:54:25Z</time>
      </trkpt>
      <trkpt lat="43.65304" lon="3.30448">
        <ele>185.4</ele>
        <time>2014-09-28T08:54:27Z</time>
      </trkpt>
      <trkpt lat="43.65309" lon="3.30444">
        <ele>185.5</ele>
        <time>2014-09-28T08:54:29Z</time>
      </trkpt>
      <trkpt lat="43.65314" lon="3.30438">
        <ele>185.6</ele>
        <time>2014-09-28T08:54:31Z</time>
      </trkpt>
      <trkpt lat="43.65319" lon="3.30432">
        <ele>185.8</ele>
        <time>2014-09-28T08:54:33Z</time>
      </trkpt>
      <trkpt lat="43.65324" lon="3.30426">
        <ele>185.9</ele>
        <time>2014-09-28T08:54:35Z</time>
      </trkpt>
      <trkpt lat="43.65329" lon="3.3042">
        <ele>185.9</ele>
        <time>2014-09-28T08:54:37Z</time>
      </trkpt>
      <trkpt lat="43.65335" lon="3.30415">
        <ele>186</ele>
        <time>2014-09-28T08:54:39Z</time>
      </trkpt>
      <trkpt lat="43.6534" lon="3.30409">
        <ele>186.1</ele>
        <time>2014-09-28T08:54:41Z</time>
      </trkpt>
      <trkpt lat="43.65345" lon="3.30404">
        <ele>186.1</ele>
        <time>2014-09-28T08:54:43Z</time>
      </trkpt>
      <trkpt lat="43.6535" lon="3.30399">
        <ele>186.1</ele>
        <time>2014-09-28T08:54:45Z</time>
      </trkpt>
      <trkpt lat="43.65354" lon="3.30394">
        <ele>186.1</ele>
        <time>2014-09-28T08:54:47Z</time>
      </trkpt>
      <trkpt lat="43.65359" lon="3.30389">
        <ele>186.1</ele>
        <time>2014-09-28T08:54:49Z</time>
      </trkpt>
      <trkpt lat="43.65364" lon="3.30384">
        <ele>186.1</ele>
        <time>2014-09-28T08:54:51Z</time>
      </trkpt>
      <trkpt lat="43.65369" lon="3.30378">
        <ele>186</ele>
        <time>2014-09-28T08:54:53Z</time>
      </trkpt>
      <trkpt lat="43.65373" lon="3.30373">
        <ele>186.1</ele>
        <time>2014-09-28T08:54:55Z</time>
      </trkpt>
      <trkpt lat="43.65377" lon="3.30368">
        <ele>186.5</ele>
        <time>2014-09-28T08:54:57Z</time>
      </trkpt>
      <trkpt lat="43.65381" lon="3.30364">
        <ele>187</ele>
        <time>2014-09-28T08:54:59Z</time>
      </trkpt>
      <trkpt lat="43.65386" lon="3.30359">
        <ele>187.6</ele>
        <time>2014-09-28T08:55:01Z</time>
      </trkpt>
      <trkpt lat="43.6539" lon="3.30354">
        <ele>188.1</ele>
        <time>2014-09-28T08:55:03Z</time>
      </trkpt>
      <trkpt lat="43.65394" lon="3.30349">
        <ele>188.7</ele>
        <time>2014-09-28T08:55:05Z</time>
      </trkpt>
      <trkpt lat="43.65399" lon="3.30344">
        <ele>189.3</ele>
        <time>2014-09-28T08:55:07Z</time>
      </trkpt>
      <trkpt lat="43.65403" lon="3.3034">
        <ele>189.9</ele>
        <time>2014-09-28T08:55:09Z</time>
      </trkpt>
      <trkpt lat="43.65408" lon="3.30334">
        <ele>190.5</ele>
        <time>2014-09-28T08:55:11Z</time>
      </trkpt>
      <trkpt lat="43.65412" lon="3.30329">
        <ele>191.1</ele>
        <time>2014-09-28T08:55:13Z</time>
      </trkpt>
      <trkpt lat="43.65417" lon="3.30323">
        <ele>191.8</ele>
        <time>2014-09-28T08:55:15Z</time>
      </trkpt>
      <trkpt lat="43.65421" lon="3.30319">
        <ele>192.4</ele>
        <time>2014-09-28T08:55:17Z</time>
      </trkpt>
      <trkpt lat="43.65425" lon="3.30315">
        <ele>192.9</ele>
        <time>2014-09-28T08:55:19Z</time>
      </trkpt>
      <trkpt lat="43.6543" lon="3.30312">
        <ele>193.4</ele>
        <time>2014-09-28T08:55:21Z</time>
      </trkpt>
      <trkpt lat="43.65435" lon="3.3031">
        <ele>194</ele>
        <time>2014-09-28T08:55:23Z</time>
      </trkpt>
      <trkpt lat="43.6544" lon="3.30307">
        <ele>194.5</ele>
        <time>2014-09-28T08:55:25Z</time>
      </trkpt>
      <trkpt lat="43.65445" lon="3.30306">
        <ele>195.1</ele>
        <time>2014-09-28T08:55:27Z</time>
      </trkpt>
      <trkpt lat="43.65451" lon="3.30305">
        <ele>195.6</ele>
        <time>2014-09-28T08:55:29Z</time>
      </trkpt>
      <trkpt lat="43.65458" lon="3.30303">
        <ele>196.2</ele>
        <time>2014-09-28T08:55:31Z</time>
      </trkpt>
      <trkpt lat="43.65462" lon="3.303">
        <ele>196.8</ele>
        <time>2014-09-28T08:55:33Z</time>
      </trkpt>
      <trkpt lat="43.65467" lon="3.30296">
        <ele>197.3</ele>
        <time>2014-09-28T08:55:35Z</time>
      </trkpt>
      <trkpt lat="43.6547" lon="3.30292">
        <ele>197.8</ele>
        <time>2014-09-28T08:55:37Z</time>
      </trkpt>
      <trkpt lat="43.65473" lon="3.30287">
        <ele>197.9</ele>
        <time>2014-09-28T08:55:39Z</time>
      </trkpt>
      <trkpt lat="43.65475" lon="3.30281">
        <ele>198</ele>
        <time>2014-09-28T08:55:41Z</time>
      </trkpt>
      <trkpt lat="43.65478" lon="3.30273">
        <ele>198.1</ele>
        <time>2014-09-28T08:55:44Z</time>
      </trkpt>
      <trkpt lat="43.65481" lon="3.30267">
        <ele>198.4</ele>
        <time>2014-09-28T08:55:47Z</time>
      </trkpt>
      <trkpt lat="43.65486" lon="3.30262">
        <ele>198.8</ele>
        <time>2014-09-28T08:55:50Z</time>
      </trkpt>
      <trkpt lat="43.6549" lon="3.30256">
        <ele>199.3</ele>
        <time>2014-09-28T08:55:53Z</time>
      </trkpt>
      <trkpt lat="43.65495" lon="3.3025">
        <ele>199.9</ele>
        <time>2014-09-28T08:55:56Z</time>
      </trkpt>
      <trkpt lat="43.65499" lon="3.30247">
        <ele>200.4</ele>
        <time>2014-09-28T08:55:58Z</time>
      </trkpt>
      <trkpt lat="43.65503" lon="3.30244">
        <ele>200.9</ele>
        <time>2014-09-28T08:56:00Z</time>
      </trkpt>
      <trkpt lat="43.65508" lon="3.3024">
        <ele>201.7</ele>
        <time>2014-09-28T08:56:03Z</time>
      </trkpt>
      <trkpt lat="43.65512" lon="3.30237">
        <ele>202.3</ele>
        <time>2014-09-28T08:56:05Z</time>
      </trkpt>
      <trkpt lat="43.65517" lon="3.30235">
        <ele>203</ele>
        <time>2014-09-28T08:56:07Z</time>
      </trkpt>
      <trkpt lat="43.65523" lon="3.30236">
        <ele>203.8</ele>
        <time>2014-09-28T08:56:10Z</time>
      </trkpt>
      <trkpt lat="43.65528" lon="3.3024">
        <ele>204.3</ele>
        <time>2014-09-28T08:56:13Z</time>
      </trkpt>
      <trkpt lat="43.65534" lon="3.30245">
        <ele>204.8</ele>
        <time>2014-09-28T08:56:16Z</time>
      </trkpt>
      <trkpt lat="43.65539" lon="3.3025">
        <ele>205.2</ele>
        <time>2014-09-28T08:56:19Z</time>
      </trkpt>
      <trkpt lat="43.65544" lon="3.30254">
        <ele>205.7</ele>
        <time>2014-09-28T08:56:22Z</time>
      </trkpt>
      <trkpt lat="43.6555" lon="3.30258">
        <ele>206.2</ele>
        <time>2014-09-28T08:56:25Z</time>
      </trkpt>
      <trkpt lat="43.65553" lon="3.30262">
        <ele>206.6</ele>
        <time>2014-09-28T08:56:27Z</time>
      </trkpt>
      <trkpt lat="43.65557" lon="3.30265">
        <ele>207</ele>
        <time>2014-09-28T08:56:29Z</time>
      </trkpt>
      <trkpt lat="43.65562" lon="3.30268">
        <ele>207.4</ele>
        <time>2014-09-28T08:56:31Z</time>
      </trkpt>
      <trkpt lat="43.65566" lon="3.3027">
        <ele>207.9</ele>
        <time>2014-09-28T08:56:33Z</time>
      </trkpt>
      <trkpt lat="43.6557" lon="3.30272">
        <ele>208.3</ele>
        <time>2014-09-28T08:56:35Z</time>
      </trkpt>
      <trkpt lat="43.65575" lon="3.30275">
        <ele>208.9</ele>
        <time>2014-09-28T08:56:37Z</time>
      </trkpt>
      <trkpt lat="43.6558" lon="3.30276">
        <ele>209.4</ele>
        <time>2014-09-28T08:56:39Z</time>
      </trkpt>
      <trkpt lat="43.65586" lon="3.30278">
        <ele>210.2</ele>
        <time>2014-09-28T08:56:42Z</time>
      </trkpt>
      <trkpt lat="43.65591" lon="3.3028">
        <ele>210.6</ele>
        <time>2014-09-28T08:56:44Z</time>
      </trkpt>
      <trkpt lat="43.65595" lon="3.30282">
        <ele>211</ele>
        <time>2014-09-28T08:56:46Z</time>
      </trkpt>
      <trkpt lat="43.656" lon="3.30285">
        <ele>211.4</ele>
        <time>2014-09-28T08:56:48Z</time>
      </trkpt>
      <trkpt lat="43.65605" lon="3.30287">
        <ele>211.8</ele>
        <time>2014-09-28T08:56:50Z</time>
      </trkpt>
      <trkpt lat="43.6561" lon="3.3029">
        <ele>212.2</ele>
        <time>2014-09-28T08:56:52Z</time>
      </trkpt>
      <trkpt lat="43.65615" lon="3.30294">
        <ele>212.2</ele>
        <time>2014-09-28T08:56:54Z</time>
      </trkpt>
      <trkpt lat="43.6562" lon="3.303">
        <ele>212</ele>
        <time>2014-09-28T08:56:56Z</time>
      </trkpt>
      <trkpt lat="43.65624" lon="3.30306">
        <ele>211.5</ele>
        <time>2014-09-28T08:56:58Z</time>
      </trkpt>
      <trkpt lat="43.65628" lon="3.30314">
        <ele>211.1</ele>
        <time>2014-09-28T08:57:00Z</time>
      </trkpt>
      <trkpt lat="43.65631" lon="3.30322">
        <ele>210.5</ele>
        <time>2014-09-28T08:57:02Z</time>
      </trkpt>
      <trkpt lat="43.65634" lon="3.30331">
        <ele>209.7</ele>
        <time>2014-09-28T08:57:04Z</time>
      </trkpt>
      <trkpt lat="43.65636" lon="3.30339">
        <ele>208.8</ele>
        <time>2014-09-28T08:57:06Z</time>
      </trkpt>
      <trkpt lat="43.65638" lon="3.30346">
        <ele>208.2</ele>
        <time>2014-09-28T08:57:08Z</time>
      </trkpt>
      <trkpt lat="43.65641" lon="3.30353">
        <ele>207.6</ele>
        <time>2014-09-28T08:57:10Z</time>
      </trkpt>
      <trkpt lat="43.65644" lon="3.30359">
        <ele>207.3</ele>
        <time>2014-09-28T08:57:12Z</time>
      </trkpt>
      <trkpt lat="43.65648" lon="3.30364">
        <ele>207.3</ele>
        <time>2014-09-28T08:57:14Z</time>
      </trkpt>
      <trkpt lat="43.65651" lon="3.30369">
        <ele>207.4</ele>
        <time>2014-09-28T08:57:16Z</time>
      </trkpt>
      <trkpt lat="43.65655" lon="3.30374">
        <ele>207.4</ele>
        <time>2014-09-28T08:57:18Z</time>
      </trkpt>
      <trkpt lat="43.65658" lon="3.30378">
        <ele>207.7</ele>
        <time>2014-09-28T08:57:20Z</time>
      </trkpt>
      <trkpt lat="43.65662" lon="3.30382">
        <ele>208.1</ele>
        <time>2014-09-28T08:57:22Z</time>
      </trkpt>
      <trkpt lat="43.65667" lon="3.30388">
        <ele>208.8</ele>
        <time>2014-09-28T08:57:25Z</time>
      </trkpt>
      <trkpt lat="43.65672" lon="3.30393">
        <ele>209.4</ele>
        <time>2014-09-28T08:57:28Z</time>
      </trkpt>
      <trkpt lat="43.65677" lon="3.30398">
        <ele>210.1</ele>
        <time>2014-09-28T08:57:31Z</time>
      </trkpt>
      <trkpt lat="43.65682" lon="3.30403">
        <ele>210.7</ele>
        <time>2014-09-28T08:57:34Z</time>
      </trkpt>
      <trkpt lat="43.65688" lon="3.30406">
        <ele>211.5</ele>
        <time>2014-09-28T08:57:37Z</time>
      </trkpt>
      <trkpt lat="43.65693" lon="3.3041">
        <ele>212.3</ele>
        <time>2014-09-28T08:57:40Z</time>
      </trkpt>
      <trkpt lat="43.65698" lon="3.30413">
        <ele>212.7</ele>
        <time>2014-09-28T08:57:42Z</time>
      </trkpt>
      <trkpt lat="43.65703" lon="3.30416">
        <ele>213.5</ele>
        <time>2014-09-28T08:57:45Z</time>
      </trkpt>
      <trkpt lat="43.65709" lon="3.30418">
        <ele>214.5</ele>
        <time>2014-09-28T08:57:48Z</time>
      </trkpt>
      <trkpt lat="43.65714" lon="3.3042">
        <ele>215.4</ele>
        <time>2014-09-28T08:57:51Z</time>
      </trkpt>
      <trkpt lat="43.65719" lon="3.3042">
        <ele>216.3</ele>
        <time>2014-09-28T08:57:55Z</time>
      </trkpt>
      <trkpt lat="43.65724" lon="3.30421">
        <ele>217.2</ele>
        <time>2014-09-28T08:57:58Z</time>
      </trkpt>
      <trkpt lat="43.65729" lon="3.30422">
        <ele>218.1</ele>
        <time>2014-09-28T08:58:01Z</time>
      </trkpt>
      <trkpt lat="43.65734" lon="3.30421">
        <ele>219.4</ele>
        <time>2014-09-28T08:58:05Z</time>
      </trkpt>
      <trkpt lat="43.65739" lon="3.30421">
        <ele>220.4</ele>
        <time>2014-09-28T08:58:08Z</time>
      </trkpt>
      <trkpt lat="43.65744" lon="3.30419">
        <ele>221.7</ele>
        <time>2014-09-28T08:58:11Z</time>
      </trkpt>
      <trkpt lat="43.65749" lon="3.30419">
        <ele>222.9</ele>
        <time>2014-09-28T08:58:14Z</time>
      </trkpt>
      <trkpt lat="43.65754" lon="3.30418">
        <ele>224.2</ele>
        <time>2014-09-28T08:58:17Z</time>
      </trkpt>
      <trkpt lat="43.65763" lon="3.30414">
        <ele>226.8</ele>
        <time>2014-09-28T08:58:23Z</time>
      </trkpt>
      <trkpt lat="43.65768" lon="3.30416">
        <ele>227.7</ele>
        <time>2014-09-28T08:58:26Z</time>
      </trkpt>
      <trkpt lat="43.65774" lon="3.30416">
        <ele>228.7</ele>
        <time>2014-09-28T08:58:29Z</time>
      </trkpt>
      <trkpt lat="43.6578" lon="3.30417">
        <ele>229.8</ele>
        <time>2014-09-28T08:58:32Z</time>
      </trkpt>
      <trkpt lat="43.65785" lon="3.30418">
        <ele>230.6</ele>
        <time>2014-09-28T08:58:35Z</time>
      </trkpt>
      <trkpt lat="43.6579" lon="3.30418">
        <ele>231.9</ele>
        <time>2014-09-28T08:58:38Z</time>
      </trkpt>
      <trkpt lat="43.65796" lon="3.30419">
        <ele>233</ele>
        <time>2014-09-28T08:58:41Z</time>
      </trkpt>
      <trkpt lat="43.65802" lon="3.30421">
        <ele>233.6</ele>
        <time>2014-09-28T08:58:44Z</time>
      </trkpt>
      <trkpt lat="43.65807" lon="3.30424">
        <ele>234.1</ele>
        <time>2014-09-28T08:58:47Z</time>
      </trkpt>
      <trkpt lat="43.65813" lon="3.30426">
        <ele>234.8</ele>
        <time>2014-09-28T08:58:50Z</time>
      </trkpt>
      <trkpt lat="43.65819" lon="3.30427">
        <ele>235.6</ele>
        <time>2014-09-28T08:58:53Z</time>
      </trkpt>
      <trkpt lat="43.65825" lon="3.30429">
        <ele>236.3</ele>
        <time>2014-09-28T08:58:56Z</time>
      </trkpt>
      <trkpt lat="43.6583" lon="3.30431">
        <ele>236.9</ele>
        <time>2014-09-28T08:58:59Z</time>
      </trkpt>
      <trkpt lat="43.65836" lon="3.30432">
        <ele>237.6</ele>
        <time>2014-09-28T08:59:02Z</time>
      </trkpt>
      <trkpt lat="43.65842" lon="3.30433">
        <ele>238.5</ele>
        <time>2014-09-28T08:59:05Z</time>
      </trkpt>
      <trkpt lat="43.65848" lon="3.30435">
        <ele>239.1</ele>
        <time>2014-09-28T08:59:08Z</time>
      </trkpt>
      <trkpt lat="43.65854" lon="3.30436">
        <ele>240</ele>
        <time>2014-09-28T08:59:11Z</time>
      </trkpt>
      <trkpt lat="43.6586" lon="3.30438">
        <ele>240.5</ele>
        <time>2014-09-28T08:59:14Z</time>
      </trkpt>
      <trkpt lat="43.65866" lon="3.3044">
        <ele>241.2</ele>
        <time>2014-09-28T08:59:17Z</time>
      </trkpt>
      <trkpt lat="43.65871" lon="3.30441">
        <ele>241.9</ele>
        <time>2014-09-28T08:59:20Z</time>
      </trkpt>
      <trkpt lat="43.65876" lon="3.30442">
        <ele>242.5</ele>
        <time>2014-09-28T08:59:23Z</time>
      </trkpt>
      <trkpt lat="43.65881" lon="3.30441">
        <ele>243.2</ele>
        <time>2014-09-28T08:59:26Z</time>
      </trkpt>
      <trkpt lat="43.65881" lon="3.30441">
        <ele>243.2</ele>
        <time>2014-09-28T08:59:26Z</time>
      </trkpt>
      <trkpt lat="43.65887" lon="3.3044">
        <ele>244.2</ele>
        <time>2014-09-28T08:59:29Z</time>
      </trkpt>
      <trkpt lat="43.65891" lon="3.30436">
        <ele>245.8</ele>
        <time>2014-09-28T08:59:32Z</time>
      </trkpt>
      <trkpt lat="43.659" lon="3.30432">
        <ele>247.9</ele>
        <time>2014-09-28T08:59:38Z</time>
      </trkpt>
      <trkpt lat="43.65905" lon="3.3043">
        <ele>249.3</ele>
        <time>2014-09-28T08:59:41Z</time>
      </trkpt>
      <trkpt lat="43.65914" lon="3.30428">
        <ele>251</ele>
        <time>2014-09-28T08:59:47Z</time>
      </trkpt>
      <trkpt lat="43.65919" lon="3.30425">
        <ele>252.6</ele>
        <time>2014-09-28T08:59:50Z</time>
      </trkpt>
      <trkpt lat="43.65924" lon="3.30422">
        <ele>254</ele>
        <time>2014-09-28T08:59:53Z</time>
      </trkpt>
      <trkpt lat="43.65929" lon="3.3042">
        <ele>255.4</ele>
        <time>2014-09-28T08:59:56Z</time>
      </trkpt>
      <trkpt lat="43.65934" lon="3.30417">
        <ele>257</ele>
        <time>2014-09-28T09:00:00Z</time>
      </trkpt>
      <trkpt lat="43.6594" lon="3.30415">
        <ele>258.6</ele>
        <time>2014-09-28T09:00:04Z</time>
      </trkpt>
      <trkpt lat="43.65945" lon="3.30412">
        <ele>260.4</ele>
        <time>2014-09-28T09:00:08Z</time>
      </trkpt>
      <trkpt lat="43.65949" lon="3.30408">
        <ele>262.3</ele>
        <time>2014-09-28T09:00:11Z</time>
      </trkpt>
      <trkpt lat="43.65955" lon="3.30404">
        <ele>264.5</ele>
        <time>2014-09-28T09:00:15Z</time>
      </trkpt>
      <trkpt lat="43.65959" lon="3.30403">
        <ele>265.8</ele>
        <time>2014-09-28T09:00:18Z</time>
      </trkpt>
      <trkpt lat="43.65965" lon="3.30399">
        <ele>267</ele>
        <time>2014-09-28T09:00:22Z</time>
      </trkpt>
      <trkpt lat="43.65969" lon="3.30396">
        <ele>268</ele>
        <time>2014-09-28T09:00:25Z</time>
      </trkpt>
      <trkpt lat="43.65974" lon="3.30394">
        <ele>268.6</ele>
        <time>2014-09-28T09:00:28Z</time>
      </trkpt>
      <trkpt lat="43.65979" lon="3.30391">
        <ele>269.5</ele>
        <time>2014-09-28T09:00:31Z</time>
      </trkpt>
      <trkpt lat="43.65983" lon="3.30388">
        <ele>270.6</ele>
        <time>2014-09-28T09:00:38Z</time>
      </trkpt>
      <trkpt lat="43.65989" lon="3.30388">
        <ele>270.5</ele>
        <time>2014-09-28T09:00:42Z</time>
      </trkpt>
      <trkpt lat="43.65994" lon="3.30387">
        <ele>270.7</ele>
        <time>2014-09-28T09:00:45Z</time>
      </trkpt>
      <trkpt lat="43.66" lon="3.30386">
        <ele>271</ele>
        <time>2014-09-28T09:00:49Z</time>
      </trkpt>
      <trkpt lat="43.66004" lon="3.30385">
        <ele>271.4</ele>
        <time>2014-09-28T09:00:52Z</time>
      </trkpt>
      <trkpt lat="43.6601" lon="3.30386">
        <ele>270.8</ele>
        <time>2014-09-28T09:00:55Z</time>
      </trkpt>
      <trkpt lat="43.66015" lon="3.30383">
        <ele>271.7</ele>
        <time>2014-09-28T09:00:59Z</time>
      </trkpt>
      <trkpt lat="43.66019" lon="3.3038">
        <ele>272.8</ele>
        <time>2014-09-28T09:01:03Z</time>
      </trkpt>
      <trkpt lat="43.66023" lon="3.30376">
        <ele>274.2</ele>
        <time>2014-09-28T09:01:06Z</time>
      </trkpt>
      <trkpt lat="43.66027" lon="3.30372">
        <ele>275.3</ele>
        <time>2014-09-28T09:01:09Z</time>
      </trkpt>
      <trkpt lat="43.66032" lon="3.30369">
        <ele>276.2</ele>
        <time>2014-09-28T09:01:12Z</time>
      </trkpt>
      <trkpt lat="43.66037" lon="3.30366">
        <ele>277.4</ele>
        <time>2014-09-28T09:01:15Z</time>
      </trkpt>
      <trkpt lat="43.66042" lon="3.30363">
        <ele>278.3</ele>
        <time>2014-09-28T09:01:18Z</time>
      </trkpt>
      <trkpt lat="43.66047" lon="3.3036">
        <ele>278.2</ele>
        <time>2014-09-28T09:01:21Z</time>
      </trkpt>
      <trkpt lat="43.66052" lon="3.30356">
        <ele>279</ele>
        <time>2014-09-28T09:01:24Z</time>
      </trkpt>
      <trkpt lat="43.66055" lon="3.3035">
        <ele>280.2</ele>
        <time>2014-09-28T09:01:27Z</time>
      </trkpt>
      <trkpt lat="43.6606" lon="3.30345">
        <ele>281.2</ele>
        <time>2014-09-28T09:01:30Z</time>
      </trkpt>
      <trkpt lat="43.66064" lon="3.30341">
        <ele>281.9</ele>
        <time>2014-09-28T09:01:33Z</time>
      </trkpt>
      <trkpt lat="43.66068" lon="3.30336">
        <ele>282.9</ele>
        <time>2014-09-28T09:01:36Z</time>
      </trkpt>
      <trkpt lat="43.66072" lon="3.30331">
        <ele>283.7</ele>
        <time>2014-09-28T09:01:39Z</time>
      </trkpt>
      <trkpt lat="43.66077" lon="3.30327">
        <ele>284.4</ele>
        <time>2014-09-28T09:01:42Z</time>
      </trkpt>
      <trkpt lat="43.66083" lon="3.30325">
        <ele>284.2</ele>
        <time>2014-09-28T09:01:45Z</time>
      </trkpt>
      <trkpt lat="43.66088" lon="3.30325">
        <ele>283.2</ele>
        <time>2014-09-28T09:01:48Z</time>
      </trkpt>
      <trkpt lat="43.66093" lon="3.30322">
        <ele>283.2</ele>
        <time>2014-09-28T09:01:51Z</time>
      </trkpt>
      <trkpt lat="43.66097" lon="3.30319">
        <ele>283.4</ele>
        <time>2014-09-28T09:01:54Z</time>
      </trkpt>
      <trkpt lat="43.66102" lon="3.30314">
        <ele>284.4</ele>
        <time>2014-09-28T09:01:57Z</time>
      </trkpt>
      <trkpt lat="43.66107" lon="3.3031">
        <ele>284.9</ele>
        <time>2014-09-28T09:02:00Z</time>
      </trkpt>
      <trkpt lat="43.66112" lon="3.30306">
        <ele>285.5</ele>
        <time>2014-09-28T09:02:04Z</time>
      </trkpt>
      <trkpt lat="43.66117" lon="3.30303">
        <ele>285.7</ele>
        <time>2014-09-28T09:02:07Z</time>
      </trkpt>
      <trkpt lat="43.66122" lon="3.30301">
        <ele>285.2</ele>
        <time>2014-09-28T09:02:10Z</time>
      </trkpt>
      <trkpt lat="43.66126" lon="3.30297">
        <ele>286</ele>
        <time>2014-09-28T09:02:13Z</time>
      </trkpt>
      <trkpt lat="43.66129" lon="3.30291">
        <ele>287.1</ele>
        <time>2014-09-28T09:02:16Z</time>
      </trkpt>
      <trkpt lat="43.6613" lon="3.30284">
        <ele>289</ele>
        <time>2014-09-28T09:02:20Z</time>
      </trkpt>
      <trkpt lat="43.66131" lon="3.30277">
        <ele>290.7</ele>
        <time>2014-09-28T09:02:23Z</time>
      </trkpt>
      <trkpt lat="43.66136" lon="3.30272">
        <ele>290.7</ele>
        <time>2014-09-28T09:02:26Z</time>
      </trkpt>
      <trkpt lat="43.66141" lon="3.30269">
        <ele>290.4</ele>
        <time>2014-09-28T09:02:29Z</time>
      </trkpt>
      <trkpt lat="43.66146" lon="3.30268">
        <ele>289.3</ele>
        <time>2014-09-28T09:02:32Z</time>
      </trkpt>
      <trkpt lat="43.66155" lon="3.30265">
        <ele>288</ele>
        <time>2014-09-28T09:02:38Z</time>
      </trkpt>
      <trkpt lat="43.66159" lon="3.30263">
        <ele>287.3</ele>
        <time>2014-09-28T09:02:42Z</time>
      </trkpt>
      <trkpt lat="43.66164" lon="3.3026">
        <ele>286.9</ele>
        <time>2014-09-28T09:02:45Z</time>
      </trkpt>
      <trkpt lat="43.66168" lon="3.30256">
        <ele>287</ele>
        <time>2014-09-28T09:02:48Z</time>
      </trkpt>
      <trkpt lat="43.6617" lon="3.3025">
        <ele>287.9</ele>
        <time>2014-09-28T09:02:51Z</time>
      </trkpt>
      <trkpt lat="43.66173" lon="3.30243">
        <ele>289.1</ele>
        <time>2014-09-28T09:02:54Z</time>
      </trkpt>
      <trkpt lat="43.66176" lon="3.30236">
        <ele>290</ele>
        <time>2014-09-28T09:02:57Z</time>
      </trkpt>
      <trkpt lat="43.66179" lon="3.30229">
        <ele>291</ele>
        <time>2014-09-28T09:03:00Z</time>
      </trkpt>
      <trkpt lat="43.66181" lon="3.30223">
        <ele>292</ele>
        <time>2014-09-28T09:03:03Z</time>
      </trkpt>
      <trkpt lat="43.66182" lon="3.30215">
        <ele>293.7</ele>
        <time>2014-09-28T09:03:07Z</time>
      </trkpt>
      <trkpt lat="43.66183" lon="3.30208">
        <ele>295.2</ele>
        <time>2014-09-28T09:03:10Z</time>
      </trkpt>
      <trkpt lat="43.66183" lon="3.30208">
        <ele>295.2</ele>
        <time>2014-09-28T09:03:10Z</time>
      </trkpt>
      <trkpt lat="43.66181" lon="3.30201">
        <ele>297.6</ele>
        <time>2014-09-28T09:03:13Z</time>
      </trkpt>
      <trkpt lat="43.6618" lon="3.30193">
        <ele>300.2</ele>
        <time>2014-09-28T09:03:16Z</time>
      </trkpt>
      <trkpt lat="43.66179" lon="3.30185">
        <ele>302.8</ele>
        <time>2014-09-28T09:03:19Z</time>
      </trkpt>
      <trkpt lat="43.6618" lon="3.30178">
        <ele>304.5</ele>
        <time>2014-09-28T09:03:22Z</time>
      </trkpt>
      <trkpt lat="43.66181" lon="3.3017">
        <ele>306.9</ele>
        <time>2014-09-28T09:03:25Z</time>
      </trkpt>
      <trkpt lat="43.66183" lon="3.30163">
        <ele>308.3</ele>
        <time>2014-09-28T09:03:28Z</time>
      </trkpt>
      <trkpt lat="43.66186" lon="3.30157">
        <ele>309.2</ele>
        <time>2014-09-28T09:03:31Z</time>
      </trkpt>
      <trkpt lat="43.66191" lon="3.30154">
        <ele>309</ele>
        <time>2014-09-28T09:03:34Z</time>
      </trkpt>
      <trkpt lat="43.66196" lon="3.30152">
        <ele>308.3</ele>
        <time>2014-09-28T09:03:37Z</time>
      </trkpt>
      <trkpt lat="43.662" lon="3.30156">
        <ele>305.9</ele>
        <time>2014-09-28T09:03:40Z</time>
      </trkpt>
      <trkpt lat="43.66206" lon="3.30161">
        <ele>302.9</ele>
        <time>2014-09-28T09:03:43Z</time>
      </trkpt>
      <trkpt lat="43.66211" lon="3.30167">
        <ele>300.5</ele>
        <time>2014-09-28T09:03:46Z</time>
      </trkpt>
      <trkpt lat="43.66215" lon="3.3017">
        <ele>299.6</ele>
        <time>2014-09-28T09:03:48Z</time>
      </trkpt>
      <trkpt lat="43.6622" lon="3.30174">
        <ele>298.5</ele>
        <time>2014-09-28T09:03:51Z</time>
      </trkpt>
      <trkpt lat="43.66225" lon="3.30179">
        <ele>297</ele>
        <time>2014-09-28T09:03:54Z</time>
      </trkpt>
      <trkpt lat="43.66227" lon="3.30185">
        <ele>295.1</ele>
        <time>2014-09-28T09:03:56Z</time>
      </trkpt>
      <trkpt lat="43.6623" lon="3.3019">
        <ele>293.4</ele>
        <time>2014-09-28T09:03:58Z</time>
      </trkpt>
      <trkpt lat="43.66235" lon="3.30194">
        <ele>292.4</ele>
        <time>2014-09-28T09:04:00Z</time>
      </trkpt>
      <trkpt lat="43.66239" lon="3.30196">
        <ele>291.8</ele>
        <time>2014-09-28T09:04:02Z</time>
      </trkpt>
      <trkpt lat="43.66249" lon="3.30195">
        <ele>291.9</ele>
        <time>2014-09-28T09:04:07Z</time>
      </trkpt>
      <trkpt lat="43.66255" lon="3.30192">
        <ele>292.8</ele>
        <time>2014-09-28T09:04:10Z</time>
      </trkpt>
      <trkpt lat="43.66261" lon="3.3019">
        <ele>293.6</ele>
        <time>2014-09-28T09:04:13Z</time>
      </trkpt>
      <trkpt lat="43.66267" lon="3.30188">
        <ele>294.2</ele>
        <time>2014-09-28T09:04:16Z</time>
      </trkpt>
      <trkpt lat="43.66274" lon="3.30187">
        <ele>294.8</ele>
        <time>2014-09-28T09:04:19Z</time>
      </trkpt>
      <trkpt lat="43.6628" lon="3.30188">
        <ele>294.4</ele>
        <time>2014-09-28T09:04:22Z</time>
      </trkpt>
      <trkpt lat="43.66286" lon="3.30186">
        <ele>294.9</ele>
        <time>2014-09-28T09:04:25Z</time>
      </trkpt>
      <trkpt lat="43.66292" lon="3.30186">
        <ele>295</ele>
        <time>2014-09-28T09:04:28Z</time>
      </trkpt>
      <trkpt lat="43.66298" lon="3.30186">
        <ele>295</ele>
        <time>2014-09-28T09:04:31Z</time>
      </trkpt>
      <trkpt lat="43.66304" lon="3.30185">
        <ele>295.5</ele>
        <time>2014-09-28T09:04:34Z</time>
      </trkpt>
      <trkpt lat="43.66309" lon="3.30184">
        <ele>296</ele>
        <time>2014-09-28T09:04:37Z</time>
      </trkpt>
      <trkpt lat="43.66316" lon="3.30182">
        <ele>296.7</ele>
        <time>2014-09-28T09:04:40Z</time>
      </trkpt>
      <trkpt lat="43.66321" lon="3.30182">
        <ele>297.1</ele>
        <time>2014-09-28T09:04:42Z</time>
      </trkpt>
      <trkpt lat="43.66327" lon="3.3018">
        <ele>297.9</ele>
        <time>2014-09-28T09:04:45Z</time>
      </trkpt>
      <trkpt lat="43.66333" lon="3.30177">
        <ele>298.9</ele>
        <time>2014-09-28T09:04:48Z</time>
      </trkpt>
      <trkpt lat="43.6634" lon="3.30174">
        <ele>300.3</ele>
        <time>2014-09-28T09:04:51Z</time>
      </trkpt>
      <trkpt lat="43.66344" lon="3.30172">
        <ele>301.3</ele>
        <time>2014-09-28T09:04:53Z</time>
      </trkpt>
      <trkpt lat="43.66349" lon="3.3017">
        <ele>302.2</ele>
        <time>2014-09-28T09:04:55Z</time>
      </trkpt>
      <trkpt lat="43.66359" lon="3.3017">
        <ele>302.3</ele>
        <time>2014-09-28T09:05:00Z</time>
      </trkpt>
      <trkpt lat="43.66365" lon="3.30168">
        <ele>303.4</ele>
        <time>2014-09-28T09:05:03Z</time>
      </trkpt>
      <trkpt lat="43.6637" lon="3.30164">
        <ele>305</ele>
        <time>2014-09-28T09:05:06Z</time>
      </trkpt>
      <trkpt lat="43.66374" lon="3.30158">
        <ele>307.6</ele>
        <time>2014-09-28T09:05:09Z</time>
      </trkpt>
      <trkpt lat="43.66378" lon="3.30153">
        <ele>309.2</ele>
        <time>2014-09-28T09:05:12Z</time>
      </trkpt>
      <trkpt lat="43.66382" lon="3.30148">
        <ele>310.2</ele>
        <time>2014-09-28T09:05:15Z</time>
      </trkpt>
      <trkpt lat="43.66388" lon="3.30144">
        <ele>311.3</ele>
        <time>2014-09-28T09:05:18Z</time>
      </trkpt>
      <trkpt lat="43.66393" lon="3.30142">
        <ele>311.1</ele>
        <time>2014-09-28T09:05:21Z</time>
      </trkpt>
      <trkpt lat="43.66397" lon="3.30138">
        <ele>311.8</ele>
        <time>2014-09-28T09:05:24Z</time>
      </trkpt>
      <trkpt lat="43.66402" lon="3.30137">
        <ele>311.4</ele>
        <time>2014-09-28T09:05:27Z</time>
      </trkpt>
      <trkpt lat="43.66407" lon="3.30134">
        <ele>311.4</ele>
        <time>2014-09-28T09:05:30Z</time>
      </trkpt>
      <trkpt lat="43.66412" lon="3.30131">
        <ele>311.7</ele>
        <time>2014-09-28T09:05:33Z</time>
      </trkpt>
      <trkpt lat="43.66418" lon="3.30128">
        <ele>311.8</ele>
        <time>2014-09-28T09:05:36Z</time>
      </trkpt>
      <trkpt lat="43.66423" lon="3.30123">
        <ele>312.3</ele>
        <time>2014-09-28T09:05:39Z</time>
      </trkpt>
      <trkpt lat="43.66426" lon="3.30118">
        <ele>313.3</ele>
        <time>2014-09-28T09:05:41Z</time>
      </trkpt>
      <trkpt lat="43.6643" lon="3.30112">
        <ele>314.8</ele>
        <time>2014-09-28T09:05:44Z</time>
      </trkpt>
      <trkpt lat="43.66434" lon="3.30105">
        <ele>316.3</ele>
        <time>2014-09-28T09:05:47Z</time>
      </trkpt>
      <trkpt lat="43.66437" lon="3.30097">
        <ele>318.2</ele>
        <time>2014-09-28T09:05:50Z</time>
      </trkpt>
      <trkpt lat="43.66441" lon="3.3009">
        <ele>319.4</ele>
        <time>2014-09-28T09:05:53Z</time>
      </trkpt>
      <trkpt lat="43.66445" lon="3.30085">
        <ele>320.4</ele>
        <time>2014-09-28T09:05:56Z</time>
      </trkpt>
      <trkpt lat="43.66449" lon="3.30079">
        <ele>321.2</ele>
        <time>2014-09-28T09:05:59Z</time>
      </trkpt>
      <trkpt lat="43.66453" lon="3.30074">
        <ele>322.1</ele>
        <time>2014-09-28T09:06:02Z</time>
      </trkpt>
      <trkpt lat="43.66457" lon="3.30068">
        <ele>323.2</ele>
        <time>2014-09-28T09:06:05Z</time>
      </trkpt>
      <trkpt lat="43.66461" lon="3.30062">
        <ele>324.1</ele>
        <time>2014-09-28T09:06:08Z</time>
      </trkpt>
      <trkpt lat="43.66464" lon="3.30058">
        <ele>324.3</ele>
        <time>2014-09-28T09:06:11Z</time>
      </trkpt>
      <trkpt lat="43.66464" lon="3.30058">
        <ele>324.3</ele>
        <time>2014-09-28T09:06:11Z</time>
      </trkpt>
      <trkpt lat="43.66468" lon="3.30053">
        <ele>324.5</ele>
        <time>2014-09-28T09:06:14Z</time>
      </trkpt>
      <trkpt lat="43.66473" lon="3.30049">
        <ele>324.3</ele>
        <time>2014-09-28T09:06:17Z</time>
      </trkpt>
      <trkpt lat="43.66479" lon="3.30045">
        <ele>324</ele>
        <time>2014-09-28T09:06:21Z</time>
      </trkpt>
      <trkpt lat="43.66483" lon="3.30043">
        <ele>323.3</ele>
        <time>2014-09-28T09:06:24Z</time>
      </trkpt>
      <trkpt lat="43.66488" lon="3.30041">
        <ele>322.3</ele>
        <time>2014-09-28T09:06:27Z</time>
      </trkpt>
      <trkpt lat="43.66493" lon="3.30039">
        <ele>321.6</ele>
        <time>2014-09-28T09:06:30Z</time>
      </trkpt>
      <trkpt lat="43.66497" lon="3.30036">
        <ele>321.2</ele>
        <time>2014-09-28T09:06:34Z</time>
      </trkpt>
      <trkpt lat="43.665" lon="3.30029">
        <ele>322.4</ele>
        <time>2014-09-28T09:06:38Z</time>
      </trkpt>
      <trkpt lat="43.66503" lon="3.30021">
        <ele>323.9</ele>
        <time>2014-09-28T09:06:42Z</time>
      </trkpt>
      <trkpt lat="43.66505" lon="3.30014">
        <ele>325.3</ele>
        <time>2014-09-28T09:06:45Z</time>
      </trkpt>
      <trkpt lat="43.66507" lon="3.30007">
        <ele>326.9</ele>
        <time>2014-09-28T09:06:48Z</time>
      </trkpt>
      <trkpt lat="43.66508" lon="3.3">
        <ele>328.4</ele>
        <time>2014-09-28T09:06:51Z</time>
      </trkpt>
      <trkpt lat="43.66511" lon="3.29994">
        <ele>329.2</ele>
        <time>2014-09-28T09:06:54Z</time>
      </trkpt>
      <trkpt lat="43.66515" lon="3.29988">
        <ele>329.8</ele>
        <time>2014-09-28T09:06:57Z</time>
      </trkpt>
      <trkpt lat="43.66519" lon="3.29984">
        <ele>329.9</ele>
        <time>2014-09-28T09:07:00Z</time>
      </trkpt>
      <trkpt lat="43.66524" lon="3.29981">
        <ele>329.2</ele>
        <time>2014-09-28T09:07:03Z</time>
      </trkpt>
      <trkpt lat="43.66529" lon="3.2998">
        <ele>328.1</ele>
        <time>2014-09-28T09:07:06Z</time>
      </trkpt>
      <trkpt lat="43.66534" lon="3.29979">
        <ele>327.3</ele>
        <time>2014-09-28T09:07:09Z</time>
      </trkpt>
      <trkpt lat="43.66538" lon="3.29975">
        <ele>327.2</ele>
        <time>2014-09-28T09:07:12Z</time>
      </trkpt>
      <trkpt lat="43.66542" lon="3.29971">
        <ele>326.9</ele>
        <time>2014-09-28T09:07:15Z</time>
      </trkpt>
      <trkpt lat="43.66547" lon="3.29967">
        <ele>327.1</ele>
        <time>2014-09-28T09:07:18Z</time>
      </trkpt>
      <trkpt lat="43.66551" lon="3.29964">
        <ele>326.9</ele>
        <time>2014-09-28T09:07:21Z</time>
      </trkpt>
      <trkpt lat="43.66556" lon="3.29961">
        <ele>326.7</ele>
        <time>2014-09-28T09:07:24Z</time>
      </trkpt>
      <trkpt lat="43.6656" lon="3.29955">
        <ele>327.5</ele>
        <time>2014-09-28T09:07:27Z</time>
      </trkpt>
      <trkpt lat="43.66563" lon="3.29948">
        <ele>328.3</ele>
        <time>2014-09-28T09:07:30Z</time>
      </trkpt>
      <trkpt lat="43.66567" lon="3.29942">
        <ele>328.7</ele>
        <time>2014-09-28T09:07:33Z</time>
      </trkpt>
      <trkpt lat="43.66571" lon="3.29936">
        <ele>329.1</ele>
        <time>2014-09-28T09:07:36Z</time>
      </trkpt>
      <trkpt lat="43.66575" lon="3.2993">
        <ele>329.3</ele>
        <time>2014-09-28T09:07:39Z</time>
      </trkpt>
      <trkpt lat="43.66579" lon="3.29924">
        <ele>329.7</ele>
        <time>2014-09-28T09:07:42Z</time>
      </trkpt>
      <trkpt lat="43.66582" lon="3.2992">
        <ele>329.6</ele>
        <time>2014-09-28T09:07:45Z</time>
      </trkpt>
      <trkpt lat="43.66587" lon="3.29915">
        <ele>329.3</ele>
        <time>2014-09-28T09:07:48Z</time>
      </trkpt>
      <trkpt lat="43.6659" lon="3.29911">
        <ele>329.1</ele>
        <time>2014-09-28T09:07:51Z</time>
      </trkpt>
      <trkpt lat="43.66593" lon="3.29904">
        <ele>329.9</ele>
        <time>2014-09-28T09:07:54Z</time>
      </trkpt>
      <trkpt lat="43.66596" lon="3.29896">
        <ele>330.4</ele>
        <time>2014-09-28T09:07:57Z</time>
      </trkpt>
      <trkpt lat="43.66598" lon="3.29888">
        <ele>331.5</ele>
        <time>2014-09-28T09:08:00Z</time>
      </trkpt>
      <trkpt lat="43.666" lon="3.29881">
        <ele>332.2</ele>
        <time>2014-09-28T09:08:03Z</time>
      </trkpt>
      <trkpt lat="43.66602" lon="3.29875">
        <ele>332.4</ele>
        <time>2014-09-28T09:08:06Z</time>
      </trkpt>
      <trkpt lat="43.66605" lon="3.29868">
        <ele>332.6</ele>
        <time>2014-09-28T09:08:10Z</time>
      </trkpt>
      <trkpt lat="43.66608" lon="3.29862">
        <ele>332.7</ele>
        <time>2014-09-28T09:08:13Z</time>
      </trkpt>
      <trkpt lat="43.6661" lon="3.29856">
        <ele>333</ele>
        <time>2014-09-28T09:08:16Z</time>
      </trkpt>
      <trkpt lat="43.66612" lon="3.29849">
        <ele>333.4</ele>
        <time>2014-09-28T09:08:19Z</time>
      </trkpt>
      <trkpt lat="43.66613" lon="3.29841">
        <ele>334.2</ele>
        <time>2014-09-28T09:08:22Z</time>
      </trkpt>
      <trkpt lat="43.66614" lon="3.29835">
        <ele>335.1</ele>
        <time>2014-09-28T09:08:25Z</time>
      </trkpt>
      <trkpt lat="43.66615" lon="3.29827">
        <ele>335.9</ele>
        <time>2014-09-28T09:08:28Z</time>
      </trkpt>
      <trkpt lat="43.66615" lon="3.2982">
        <ele>337</ele>
        <time>2014-09-28T09:08:31Z</time>
      </trkpt>
      <trkpt lat="43.66615" lon="3.29812">
        <ele>338.5</ele>
        <time>2014-09-28T09:08:34Z</time>
      </trkpt>
      <trkpt lat="43.66611" lon="3.29801">
        <ele>341.9</ele>
        <time>2014-09-28T09:08:40Z</time>
      </trkpt>
      <trkpt lat="43.66608" lon="3.29788">
        <ele>345.1</ele>
        <time>2014-09-28T09:08:47Z</time>
      </trkpt>
      <trkpt lat="43.66607" lon="3.2978">
        <ele>345.8</ele>
        <time>2014-09-28T09:08:50Z</time>
      </trkpt>
      <trkpt lat="43.6661" lon="3.29773">
        <ele>345.4</ele>
        <time>2014-09-28T09:08:53Z</time>
      </trkpt>
      <trkpt lat="43.66614" lon="3.29768">
        <ele>344.5</ele>
        <time>2014-09-28T09:08:56Z</time>
      </trkpt>
      <trkpt lat="43.66616" lon="3.29761">
        <ele>344.5</ele>
        <time>2014-09-28T09:08:59Z</time>
      </trkpt>
      <trkpt lat="43.66619" lon="3.29754">
        <ele>344.1</ele>
        <time>2014-09-28T09:09:02Z</time>
      </trkpt>
      <trkpt lat="43.66621" lon="3.29746">
        <ele>344.2</ele>
        <time>2014-09-28T09:09:05Z</time>
      </trkpt>
      <trkpt lat="43.66622" lon="3.29738">
        <ele>344.7</ele>
        <time>2014-09-28T09:09:08Z</time>
      </trkpt>
      <trkpt lat="43.66624" lon="3.29729">
        <ele>345.2</ele>
        <time>2014-09-28T09:09:11Z</time>
      </trkpt>
      <trkpt lat="43.66625" lon="3.29717">
        <ele>346.1</ele>
        <time>2014-09-28T09:09:15Z</time>
      </trkpt>
      <trkpt lat="43.66625" lon="3.2971">
        <ele>346.7</ele>
        <time>2014-09-28T09:09:17Z</time>
      </trkpt>
      <trkpt lat="43.66627" lon="3.29702">
        <ele>347.3</ele>
        <time>2014-09-28T09:09:20Z</time>
      </trkpt>
      <trkpt lat="43.66628" lon="3.29689">
        <ele>348.5</ele>
        <time>2014-09-28T09:09:24Z</time>
      </trkpt>
      <trkpt lat="43.6663" lon="3.29683">
        <ele>348.5</ele>
        <time>2014-09-28T09:09:26Z</time>
      </trkpt>
      <trkpt lat="43.66631" lon="3.29677">
        <ele>348.7</ele>
        <time>2014-09-28T09:09:28Z</time>
      </trkpt>
      <trkpt lat="43.66632" lon="3.29668">
        <ele>349.2</ele>
        <time>2014-09-28T09:09:31Z</time>
      </trkpt>
      <trkpt lat="43.66635" lon="3.29656">
        <ele>349.4</ele>
        <time>2014-09-28T09:09:35Z</time>
      </trkpt>
      <trkpt lat="43.66636" lon="3.29649">
        <ele>349.9</ele>
        <time>2014-09-28T09:09:37Z</time>
      </trkpt>
      <trkpt lat="43.66638" lon="3.29643">
        <ele>349.8</ele>
        <time>2014-09-28T09:09:39Z</time>
      </trkpt>
      <trkpt lat="43.66639" lon="3.29636">
        <ele>350.4</ele>
        <time>2014-09-28T09:09:41Z</time>
      </trkpt>
      <trkpt lat="43.66639" lon="3.29629">
        <ele>351.1</ele>
        <time>2014-09-28T09:09:43Z</time>
      </trkpt>
      <trkpt lat="43.66641" lon="3.29621">
        <ele>351.4</ele>
        <time>2014-09-28T09:09:46Z</time>
      </trkpt>
      <trkpt lat="43.66643" lon="3.29614">
        <ele>351</ele>
        <time>2014-09-28T09:09:48Z</time>
      </trkpt>
      <trkpt lat="43.66645" lon="3.29607">
        <ele>350.7</ele>
        <time>2014-09-28T09:09:50Z</time>
      </trkpt>
      <trkpt lat="43.66647" lon="3.29598">
        <ele>350.5</ele>
        <time>2014-09-28T09:09:52Z</time>
      </trkpt>
      <trkpt lat="43.66649" lon="3.2959">
        <ele>350.1</ele>
        <time>2014-09-28T09:09:54Z</time>
      </trkpt>
      <trkpt lat="43.66653" lon="3.29584">
        <ele>348.6</ele>
        <time>2014-09-28T09:09:56Z</time>
      </trkpt>
      <trkpt lat="43.66656" lon="3.29578">
        <ele>347.5</ele>
        <time>2014-09-28T09:09:58Z</time>
      </trkpt>
      <trkpt lat="43.6666" lon="3.29572">
        <ele>346</ele>
        <time>2014-09-28T09:10:00Z</time>
      </trkpt>
      <trkpt lat="43.66664" lon="3.29565">
        <ele>344.6</ele>
        <time>2014-09-28T09:10:02Z</time>
      </trkpt>
      <trkpt lat="43.66668" lon="3.29557">
        <ele>343.6</ele>
        <time>2014-09-28T09:10:04Z</time>
      </trkpt>
      <trkpt lat="43.66671" lon="3.29548">
        <ele>342.6</ele>
        <time>2014-09-28T09:10:06Z</time>
      </trkpt>
      <trkpt lat="43.66674" lon="3.29538">
        <ele>341.9</ele>
        <time>2014-09-28T09:10:08Z</time>
      </trkpt>
      <trkpt lat="43.66678" lon="3.29528">
        <ele>340.9</ele>
        <time>2014-09-28T09:10:10Z</time>
      </trkpt>
      <trkpt lat="43.66682" lon="3.29517">
        <ele>340.1</ele>
        <time>2014-09-28T09:10:12Z</time>
      </trkpt>
      <trkpt lat="43.66685" lon="3.29504">
        <ele>339.4</ele>
        <time>2014-09-28T09:10:14Z</time>
      </trkpt>
      <trkpt lat="43.66687" lon="3.29497">
        <ele>339.3</ele>
        <time>2014-09-28T09:10:15Z</time>
      </trkpt>
      <trkpt lat="43.66688" lon="3.29488">
        <ele>339.5</ele>
        <time>2014-09-28T09:10:16Z</time>
      </trkpt>
      <trkpt lat="43.66688" lon="3.29479">
        <ele>340.3</ele>
        <time>2014-09-28T09:10:17Z</time>
      </trkpt>
      <trkpt lat="43.66688" lon="3.2947">
        <ele>341.3</ele>
        <time>2014-09-28T09:10:18Z</time>
      </trkpt>
      <trkpt lat="43.66687" lon="3.29462">
        <ele>342.4</ele>
        <time>2014-09-28T09:10:19Z</time>
      </trkpt>
      <trkpt lat="43.66686" lon="3.29455">
        <ele>343.9</ele>
        <time>2014-09-28T09:10:20Z</time>
      </trkpt>
      <trkpt lat="43.66683" lon="3.2945">
        <ele>345.9</ele>
        <time>2014-09-28T09:10:21Z</time>
      </trkpt>
      <trkpt lat="43.6668" lon="3.29439">
        <ele>349.2</ele>
        <time>2014-09-28T09:10:23Z</time>
      </trkpt>
      <trkpt lat="43.66678" lon="3.29429">
        <ele>351.5</ele>
        <time>2014-09-28T09:10:25Z</time>
      </trkpt>
      <trkpt lat="43.66679" lon="3.29417">
        <ele>353</ele>
        <time>2014-09-28T09:10:27Z</time>
      </trkpt>
      <trkpt lat="43.66684" lon="3.29407">
        <ele>352.9</ele>
        <time>2014-09-28T09:10:29Z</time>
      </trkpt>
      <trkpt lat="43.66689" lon="3.29399">
        <ele>352.2</ele>
        <time>2014-09-28T09:10:31Z</time>
      </trkpt>
      <trkpt lat="43.66696" lon="3.29396">
        <ele>350.8</ele>
        <time>2014-09-28T09:10:33Z</time>
      </trkpt>
      <trkpt lat="43.667" lon="3.29399">
        <ele>348.9</ele>
        <time>2014-09-28T09:10:35Z</time>
      </trkpt>
      <trkpt lat="43.66702" lon="3.29405">
        <ele>346.8</ele>
        <time>2014-09-28T09:10:37Z</time>
      </trkpt>
      <trkpt lat="43.66706" lon="3.29413">
        <ele>343.8</ele>
        <time>2014-09-28T09:10:40Z</time>
      </trkpt>
      <trkpt lat="43.66709" lon="3.29419">
        <ele>341.4</ele>
        <time>2014-09-28T09:10:42Z</time>
      </trkpt>
      <trkpt lat="43.66712" lon="3.29424">
        <ele>340.1</ele>
        <time>2014-09-28T09:10:44Z</time>
      </trkpt>
      <trkpt lat="43.66716" lon="3.29431">
        <ele>338.5</ele>
        <time>2014-09-28T09:10:47Z</time>
      </trkpt>
      <trkpt lat="43.6672" lon="3.29437">
        <ele>337.1</ele>
        <time>2014-09-28T09:10:50Z</time>
      </trkpt>
      <trkpt lat="43.66725" lon="3.29443">
        <ele>335.8</ele>
        <time>2014-09-28T09:10:53Z</time>
      </trkpt>
      <trkpt lat="43.66727" lon="3.29449">
        <ele>334.5</ele>
        <time>2014-09-28T09:10:56Z</time>
      </trkpt>
      <trkpt lat="43.66731" lon="3.29455">
        <ele>333.3</ele>
        <time>2014-09-28T09:10:59Z</time>
      </trkpt>
      <trkpt lat="43.66734" lon="3.29461">
        <ele>332.5</ele>
        <time>2014-09-28T09:11:01Z</time>
      </trkpt>
      <trkpt lat="43.66738" lon="3.29467">
        <ele>331.9</ele>
        <time>2014-09-28T09:11:04Z</time>
      </trkpt>
      <trkpt lat="43.66742" lon="3.29473">
        <ele>331.5</ele>
        <time>2014-09-28T09:11:07Z</time>
      </trkpt>
      <trkpt lat="43.66746" lon="3.29478">
        <ele>331.1</ele>
        <time>2014-09-28T09:11:10Z</time>
      </trkpt>
      <trkpt lat="43.66749" lon="3.29484">
        <ele>330.6</ele>
        <time>2014-09-28T09:11:13Z</time>
      </trkpt>
      <trkpt lat="43.66753" lon="3.29492">
        <ele>330.1</ele>
        <time>2014-09-28T09:11:16Z</time>
      </trkpt>
      <trkpt lat="43.66755" lon="3.29498">
        <ele>329.7</ele>
        <time>2014-09-28T09:11:18Z</time>
      </trkpt>
      <trkpt lat="43.66754" lon="3.29505">
        <ele>329.3</ele>
        <time>2014-09-28T09:11:20Z</time>
      </trkpt>
      <trkpt lat="43.66754" lon="3.29513">
        <ele>328.7</ele>
        <time>2014-09-28T09:11:23Z</time>
      </trkpt>
      <trkpt lat="43.66753" lon="3.29526">
        <ele>327.8</ele>
        <time>2014-09-28T09:11:27Z</time>
      </trkpt>
      <trkpt lat="43.66752" lon="3.29533">
        <ele>327.3</ele>
        <time>2014-09-28T09:11:29Z</time>
      </trkpt>
      <trkpt lat="43.66752" lon="3.2954">
        <ele>326.7</ele>
        <time>2014-09-28T09:11:31Z</time>
      </trkpt>
      <trkpt lat="43.6675" lon="3.29547">
        <ele>326.1</ele>
        <time>2014-09-28T09:11:33Z</time>
      </trkpt>
      <trkpt lat="43.66749" lon="3.29554">
        <ele>325.5</ele>
        <time>2014-09-28T09:11:35Z</time>
      </trkpt>
      <trkpt lat="43.66749" lon="3.29561">
        <ele>324.9</ele>
        <time>2014-09-28T09:11:37Z</time>
      </trkpt>
      <trkpt lat="43.66748" lon="3.29568">
        <ele>324.3</ele>
        <time>2014-09-28T09:11:39Z</time>
      </trkpt>
      <trkpt lat="43.66748" lon="3.29575">
        <ele>323.8</ele>
        <time>2014-09-28T09:11:41Z</time>
      </trkpt>
      <trkpt lat="43.66748" lon="3.29582">
        <ele>323.2</ele>
        <time>2014-09-28T09:11:43Z</time>
      </trkpt>
      <trkpt lat="43.66748" lon="3.2959">
        <ele>322.6</ele>
        <time>2014-09-28T09:11:45Z</time>
      </trkpt>
      <trkpt lat="43.66748" lon="3.29598">
        <ele>322</ele>
        <time>2014-09-28T09:11:47Z</time>
      </trkpt>
      <trkpt lat="43.6675" lon="3.29606">
        <ele>321.4</ele>
        <time>2014-09-28T09:11:49Z</time>
      </trkpt>
      <trkpt lat="43.66751" lon="3.29616">
        <ele>320.8</ele>
        <time>2014-09-28T09:11:51Z</time>
      </trkpt>
      <trkpt lat="43.66753" lon="3.29627">
        <ele>320.1</ele>
        <time>2014-09-28T09:11:53Z</time>
      </trkpt>
      <trkpt lat="43.66754" lon="3.29639">
        <ele>319.5</ele>
        <time>2014-09-28T09:11:55Z</time>
      </trkpt>
      <trkpt lat="43.66757" lon="3.2965">
        <ele>319</ele>
        <time>2014-09-28T09:11:57Z</time>
      </trkpt>
      <trkpt lat="43.6676" lon="3.29661">
        <ele>318.7</ele>
        <time>2014-09-28T09:11:59Z</time>
      </trkpt>
      <trkpt lat="43.66764" lon="3.2967">
        <ele>318.6</ele>
        <time>2014-09-28T09:12:01Z</time>
      </trkpt>
      <trkpt lat="43.66768" lon="3.29679">
        <ele>318.6</ele>
        <time>2014-09-28T09:12:03Z</time>
      </trkpt>
      <trkpt lat="43.66771" lon="3.29687">
        <ele>318.7</ele>
        <time>2014-09-28T09:12:05Z</time>
      </trkpt>
      <trkpt lat="43.66775" lon="3.29694">
        <ele>318.9</ele>
        <time>2014-09-28T09:12:07Z</time>
      </trkpt>
      <trkpt lat="43.66779" lon="3.29701">
        <ele>319.3</ele>
        <time>2014-09-28T09:12:09Z</time>
      </trkpt>
      <trkpt lat="43.66783" lon="3.29708">
        <ele>319.6</ele>
        <time>2014-09-28T09:12:11Z</time>
      </trkpt>
      <trkpt lat="43.66787" lon="3.29715">
        <ele>319.5</ele>
        <time>2014-09-28T09:12:13Z</time>
      </trkpt>
      <trkpt lat="43.66791" lon="3.29721">
        <ele>319.3</ele>
        <time>2014-09-28T09:12:15Z</time>
      </trkpt>
      <trkpt lat="43.66795" lon="3.29729">
        <ele>319.9</ele>
        <time>2014-09-28T09:12:17Z</time>
      </trkpt>
      <trkpt lat="43.668" lon="3.29737">
        <ele>320.5</ele>
        <time>2014-09-28T09:12:19Z</time>
      </trkpt>
      <trkpt lat="43.66804" lon="3.29743">
        <ele>321.5</ele>
        <time>2014-09-28T09:12:21Z</time>
      </trkpt>
      <trkpt lat="43.66808" lon="3.29751">
        <ele>322</ele>
        <time>2014-09-28T09:12:23Z</time>
      </trkpt>
      <trkpt lat="43.66812" lon="3.29758">
        <ele>322.5</ele>
        <time>2014-09-28T09:12:25Z</time>
      </trkpt>
      <trkpt lat="43.66816" lon="3.29765">
        <ele>323.3</ele>
        <time>2014-09-28T09:12:27Z</time>
      </trkpt>
      <trkpt lat="43.66821" lon="3.29771">
        <ele>324.1</ele>
        <time>2014-09-28T09:12:29Z</time>
      </trkpt>
      <trkpt lat="43.66825" lon="3.29778">
        <ele>324.7</ele>
        <time>2014-09-28T09:12:31Z</time>
      </trkpt>
      <trkpt lat="43.66829" lon="3.29784">
        <ele>325.4</ele>
        <time>2014-09-28T09:12:33Z</time>
      </trkpt>
      <trkpt lat="43.66833" lon="3.29789">
        <ele>326.3</ele>
        <time>2014-09-28T09:12:35Z</time>
      </trkpt>
      <trkpt lat="43.66838" lon="3.29795">
        <ele>327</ele>
        <time>2014-09-28T09:12:37Z</time>
      </trkpt>
      <trkpt lat="43.66843" lon="3.298">
        <ele>327.8</ele>
        <time>2014-09-28T09:12:39Z</time>
      </trkpt>
      <trkpt lat="43.66848" lon="3.29803">
        <ele>328.9</ele>
        <time>2014-09-28T09:12:41Z</time>
      </trkpt>
      <trkpt lat="43.66853" lon="3.29806">
        <ele>329.9</ele>
        <time>2014-09-28T09:12:43Z</time>
      </trkpt>
      <trkpt lat="43.66859" lon="3.2981">
        <ele>331.4</ele>
        <time>2014-09-28T09:12:45Z</time>
      </trkpt>
      <trkpt lat="43.66865" lon="3.29814">
        <ele>332.7</ele>
        <time>2014-09-28T09:12:47Z</time>
      </trkpt>
      <trkpt lat="43.66871" lon="3.29818">
        <ele>334</ele>
        <time>2014-09-28T09:12:49Z</time>
      </trkpt>
      <trkpt lat="43.66879" lon="3.29822">
        <ele>335.1</ele>
        <time>2014-09-28T09:12:51Z</time>
      </trkpt>
      <trkpt lat="43.66886" lon="3.29827">
        <ele>335.2</ele>
        <time>2014-09-28T09:12:53Z</time>
      </trkpt>
      <trkpt lat="43.66893" lon="3.29833">
        <ele>334.9</ele>
        <time>2014-09-28T09:12:55Z</time>
      </trkpt>
      <trkpt lat="43.669" lon="3.29838">
        <ele>335</ele>
        <time>2014-09-28T09:12:57Z</time>
      </trkpt>
      <trkpt lat="43.66907" lon="3.29841">
        <ele>335.2</ele>
        <time>2014-09-28T09:12:59Z</time>
      </trkpt>
      <trkpt lat="43.66914" lon="3.29843">
        <ele>335.8</ele>
        <time>2014-09-28T09:13:01Z</time>
      </trkpt>
      <trkpt lat="43.6692" lon="3.29845">
        <ele>336.3</ele>
        <time>2014-09-28T09:13:03Z</time>
      </trkpt>
      <trkpt lat="43.66926" lon="3.29845">
        <ele>337.3</ele>
        <time>2014-09-28T09:13:05Z</time>
      </trkpt>
      <trkpt lat="43.66931" lon="3.29846">
        <ele>337.7</ele>
        <time>2014-09-28T09:13:07Z</time>
      </trkpt>
      <trkpt lat="43.66936" lon="3.29846">
        <ele>338.4</ele>
        <time>2014-09-28T09:13:09Z</time>
      </trkpt>
      <trkpt lat="43.66941" lon="3.29845">
        <ele>339.5</ele>
        <time>2014-09-28T09:13:11Z</time>
      </trkpt>
      <trkpt lat="43.66948" lon="3.29844">
        <ele>340.7</ele>
        <time>2014-09-28T09:13:13Z</time>
      </trkpt>
      <trkpt lat="43.66954" lon="3.29843">
        <ele>342</ele>
        <time>2014-09-28T09:13:15Z</time>
      </trkpt>
      <trkpt lat="43.66959" lon="3.29841">
        <ele>343.3</ele>
        <time>2014-09-28T09:13:17Z</time>
      </trkpt>
      <trkpt lat="43.66964" lon="3.2984">
        <ele>344.1</ele>
        <time>2014-09-28T09:13:19Z</time>
      </trkpt>
      <trkpt lat="43.6697" lon="3.29837">
        <ele>345.3</ele>
        <time>2014-09-28T09:13:22Z</time>
      </trkpt>
      <trkpt lat="43.66975" lon="3.29834">
        <ele>346.6</ele>
        <time>2014-09-28T09:13:25Z</time>
      </trkpt>
      <trkpt lat="43.66978" lon="3.29831">
        <ele>347.9</ele>
        <time>2014-09-28T09:13:27Z</time>
      </trkpt>
      <trkpt lat="43.66983" lon="3.29828">
        <ele>349</ele>
        <time>2014-09-28T09:13:30Z</time>
      </trkpt>
      <trkpt lat="43.66983" lon="3.29828">
        <ele>349</ele>
        <time>2014-09-28T09:13:30Z</time>
      </trkpt>
      <trkpt lat="43.66988" lon="3.29824">
        <ele>350.3</ele>
        <time>2014-09-28T09:13:33Z</time>
      </trkpt>
      <trkpt lat="43.66994" lon="3.29823">
        <ele>350.9</ele>
        <time>2014-09-28T09:13:36Z</time>
      </trkpt>
      <trkpt lat="43.66999" lon="3.29823">
        <ele>351.3</ele>
        <time>2014-09-28T09:13:39Z</time>
      </trkpt>
      <trkpt lat="43.67004" lon="3.29824">
        <ele>351.4</ele>
        <time>2014-09-28T09:13:41Z</time>
      </trkpt>
      <trkpt lat="43.67009" lon="3.29825">
        <ele>351.4</ele>
        <time>2014-09-28T09:13:43Z</time>
      </trkpt>
      <trkpt lat="43.67014" lon="3.29827">
        <ele>351.4</ele>
        <time>2014-09-28T09:13:45Z</time>
      </trkpt>
      <trkpt lat="43.6702" lon="3.29828">
        <ele>351.6</ele>
        <time>2014-09-28T09:13:47Z</time>
      </trkpt>
      <trkpt lat="43.67027" lon="3.29829">
        <ele>351.8</ele>
        <time>2014-09-28T09:13:49Z</time>
      </trkpt>
      <trkpt lat="43.67033" lon="3.29832">
        <ele>351.7</ele>
        <time>2014-09-28T09:13:51Z</time>
      </trkpt>
      <trkpt lat="43.67039" lon="3.29834">
        <ele>351.7</ele>
        <time>2014-09-28T09:13:53Z</time>
      </trkpt>
      <trkpt lat="43.67046" lon="3.29838">
        <ele>351.3</ele>
        <time>2014-09-28T09:13:55Z</time>
      </trkpt>
      <trkpt lat="43.67051" lon="3.2984">
        <ele>351.1</ele>
        <time>2014-09-28T09:13:56Z</time>
      </trkpt>
      <trkpt lat="43.67058" lon="3.29842">
        <ele>351</ele>
        <time>2014-09-28T09:13:58Z</time>
      </trkpt>
      <trkpt lat="43.67063" lon="3.29844">
        <ele>350.9</ele>
        <time>2014-09-28T09:14:00Z</time>
      </trkpt>
      <trkpt lat="43.67068" lon="3.29844">
        <ele>351.1</ele>
        <time>2014-09-28T09:14:02Z</time>
      </trkpt>
      <trkpt lat="43.67073" lon="3.29846">
        <ele>351.1</ele>
        <time>2014-09-28T09:14:04Z</time>
      </trkpt>
      <trkpt lat="43.67078" lon="3.29848">
        <ele>351</ele>
        <time>2014-09-28T09:14:06Z</time>
      </trkpt>
      <trkpt lat="43.67083" lon="3.2985">
        <ele>351</ele>
        <time>2014-09-28T09:14:08Z</time>
      </trkpt>
      <trkpt lat="43.67087" lon="3.29852">
        <ele>351</ele>
        <time>2014-09-28T09:14:10Z</time>
      </trkpt>
      <trkpt lat="43.67092" lon="3.29855">
        <ele>350.9</ele>
        <time>2014-09-28T09:14:12Z</time>
      </trkpt>
      <trkpt lat="43.67095" lon="3.2986">
        <ele>350.3</ele>
        <time>2014-09-28T09:14:14Z</time>
      </trkpt>
      <trkpt lat="43.67097" lon="3.29868">
        <ele>349.3</ele>
        <time>2014-09-28T09:14:17Z</time>
      </trkpt>
      <trkpt lat="43.67098" lon="3.29875">
        <ele>348.3</ele>
        <time>2014-09-28T09:14:20Z</time>
      </trkpt>
      <trkpt lat="43.67099" lon="3.29882">
        <ele>347.8</ele>
        <time>2014-09-28T09:14:22Z</time>
      </trkpt>
      <trkpt lat="43.671" lon="3.29888">
        <ele>347.4</ele>
        <time>2014-09-28T09:14:24Z</time>
      </trkpt>
      <trkpt lat="43.67102" lon="3.29895">
        <ele>346.9</ele>
        <time>2014-09-28T09:14:27Z</time>
      </trkpt>
      <trkpt lat="43.67103" lon="3.29904">
        <ele>346.2</ele>
        <time>2014-09-28T09:14:30Z</time>
      </trkpt>
      <trkpt lat="43.67103" lon="3.29912">
        <ele>345.5</ele>
        <time>2014-09-28T09:14:33Z</time>
      </trkpt>
      <trkpt lat="43.67103" lon="3.2992">
        <ele>344.7</ele>
        <time>2014-09-28T09:14:36Z</time>
      </trkpt>
      <trkpt lat="43.67105" lon="3.29928">
        <ele>344.3</ele>
        <time>2014-09-28T09:14:39Z</time>
      </trkpt>
      <trkpt lat="43.67105" lon="3.29937">
        <ele>343.6</ele>
        <time>2014-09-28T09:14:42Z</time>
      </trkpt>
      <trkpt lat="43.67104" lon="3.29945">
        <ele>342.5</ele>
        <time>2014-09-28T09:14:45Z</time>
      </trkpt>
      <trkpt lat="43.67102" lon="3.29952">
        <ele>341.5</ele>
        <time>2014-09-28T09:14:48Z</time>
      </trkpt>
      <trkpt lat="43.67101" lon="3.2996">
        <ele>341</ele>
        <time>2014-09-28T09:14:51Z</time>
      </trkpt>
      <trkpt lat="43.67098" lon="3.29966">
        <ele>340.6</ele>
        <time>2014-09-28T09:14:54Z</time>
      </trkpt>
      <trkpt lat="43.67095" lon="3.2997">
        <ele>340</ele>
        <time>2014-09-28T09:14:56Z</time>
      </trkpt>
      <trkpt lat="43.67091" lon="3.29974">
        <ele>339.3</ele>
        <time>2014-09-28T09:14:58Z</time>
      </trkpt>
      <trkpt lat="43.67087" lon="3.29978">
        <ele>338.6</ele>
        <time>2014-09-28T09:15:00Z</time>
      </trkpt>
      <trkpt lat="43.67084" lon="3.29983">
        <ele>338.1</ele>
        <time>2014-09-28T09:15:02Z</time>
      </trkpt>
      <trkpt lat="43.67081" lon="3.29988">
        <ele>337.7</ele>
        <time>2014-09-28T09:15:04Z</time>
      </trkpt>
      <trkpt lat="43.67077" lon="3.30002">
        <ele>337.3</ele>
        <time>2014-09-28T09:15:09Z</time>
      </trkpt>
      <trkpt lat="43.67075" lon="3.3001">
        <ele>337.2</ele>
        <time>2014-09-28T09:15:12Z</time>
      </trkpt>
      <trkpt lat="43.67073" lon="3.30016">
        <ele>336.9</ele>
        <time>2014-09-28T09:15:14Z</time>
      </trkpt>
      <trkpt lat="43.67071" lon="3.30029">
        <ele>336.8</ele>
        <time>2014-09-28T09:15:18Z</time>
      </trkpt>
      <trkpt lat="43.6707" lon="3.30035">
        <ele>336.8</ele>
        <time>2014-09-28T09:15:20Z</time>
      </trkpt>
      <trkpt lat="43.67069" lon="3.30041">
        <ele>336.7</ele>
        <time>2014-09-28T09:15:22Z</time>
      </trkpt>
      <trkpt lat="43.67068" lon="3.30049">
        <ele>337.6</ele>
        <time>2014-09-28T09:15:24Z</time>
      </trkpt>
      <trkpt lat="43.67067" lon="3.30056">
        <ele>338.6</ele>
        <time>2014-09-28T09:15:26Z</time>
      </trkpt>
      <trkpt lat="43.67067" lon="3.30063">
        <ele>339.7</ele>
        <time>2014-09-28T09:15:28Z</time>
      </trkpt>
      <trkpt lat="43.67069" lon="3.30069">
        <ele>340.9</ele>
        <time>2014-09-28T09:15:30Z</time>
      </trkpt>
      <trkpt lat="43.67069" lon="3.30077">
        <ele>342.3</ele>
        <time>2014-09-28T09:15:33Z</time>
      </trkpt>
      <trkpt lat="43.67069" lon="3.30084">
        <ele>343.4</ele>
        <time>2014-09-28T09:15:36Z</time>
      </trkpt>
      <trkpt lat="43.67069" lon="3.30093">
        <ele>344.8</ele>
        <time>2014-09-28T09:15:39Z</time>
      </trkpt>
      <trkpt lat="43.67066" lon="3.301">
        <ele>345.3</ele>
        <time>2014-09-28T09:15:42Z</time>
      </trkpt>
      <trkpt lat="43.67062" lon="3.30108">
        <ele>345.9</ele>
        <time>2014-09-28T09:15:45Z</time>
      </trkpt>
      <trkpt lat="43.67059" lon="3.30113">
        <ele>346.2</ele>
        <time>2014-09-28T09:15:47Z</time>
      </trkpt>
      <trkpt lat="43.67055" lon="3.30118">
        <ele>346.5</ele>
        <time>2014-09-28T09:15:49Z</time>
      </trkpt>
      <trkpt lat="43.67051" lon="3.30124">
        <ele>347</ele>
        <time>2014-09-28T09:15:51Z</time>
      </trkpt>
      <trkpt lat="43.67047" lon="3.3013">
        <ele>347.3</ele>
        <time>2014-09-28T09:15:53Z</time>
      </trkpt>
      <trkpt lat="43.67043" lon="3.30135">
        <ele>347.6</ele>
        <time>2014-09-28T09:15:55Z</time>
      </trkpt>
      <trkpt lat="43.6704" lon="3.3014">
        <ele>348.1</ele>
        <time>2014-09-28T09:15:57Z</time>
      </trkpt>
      <trkpt lat="43.67035" lon="3.30146">
        <ele>348.7</ele>
        <time>2014-09-28T09:15:59Z</time>
      </trkpt>
      <trkpt lat="43.67031" lon="3.30152">
        <ele>349.2</ele>
        <time>2014-09-28T09:16:01Z</time>
      </trkpt>
      <trkpt lat="43.67025" lon="3.30158">
        <ele>349.9</ele>
        <time>2014-09-28T09:16:03Z</time>
      </trkpt>
      <trkpt lat="43.67019" lon="3.30164">
        <ele>350.5</ele>
        <time>2014-09-28T09:16:05Z</time>
      </trkpt>
      <trkpt lat="43.67014" lon="3.30169">
        <ele>351.2</ele>
        <time>2014-09-28T09:16:07Z</time>
      </trkpt>
      <trkpt lat="43.67009" lon="3.30175">
        <ele>352</ele>
        <time>2014-09-28T09:16:09Z</time>
      </trkpt>
      <trkpt lat="43.67004" lon="3.3018">
        <ele>352.8</ele>
        <time>2014-09-28T09:16:11Z</time>
      </trkpt>
      <trkpt lat="43.67" lon="3.30187">
        <ele>353.7</ele>
        <time>2014-09-28T09:16:13Z</time>
      </trkpt>
      <trkpt lat="43.66996" lon="3.30194">
        <ele>354.8</ele>
        <time>2014-09-28T09:16:15Z</time>
      </trkpt>
      <trkpt lat="43.66993" lon="3.30201">
        <ele>356</ele>
        <time>2014-09-28T09:16:17Z</time>
      </trkpt>
      <trkpt lat="43.66988" lon="3.30208">
        <ele>357.3</ele>
        <time>2014-09-28T09:16:19Z</time>
      </trkpt>
      <trkpt lat="43.66984" lon="3.30216">
        <ele>357.6</ele>
        <time>2014-09-28T09:16:21Z</time>
      </trkpt>
      <trkpt lat="43.6698" lon="3.30224">
        <ele>357.9</ele>
        <time>2014-09-28T09:16:23Z</time>
      </trkpt>
      <trkpt lat="43.66976" lon="3.30231">
        <ele>358.3</ele>
        <time>2014-09-28T09:16:25Z</time>
      </trkpt>
      <trkpt lat="43.66972" lon="3.30238">
        <ele>358.8</ele>
        <time>2014-09-28T09:16:27Z</time>
      </trkpt>
      <trkpt lat="43.66969" lon="3.30246">
        <ele>359.3</ele>
        <time>2014-09-28T09:16:29Z</time>
      </trkpt>
      <trkpt lat="43.66965" lon="3.30254">
        <ele>359.9</ele>
        <time>2014-09-28T09:16:31Z</time>
      </trkpt>
      <trkpt lat="43.66962" lon="3.30261">
        <ele>360.6</ele>
        <time>2014-09-28T09:16:33Z</time>
      </trkpt>
      <trkpt lat="43.6696" lon="3.30268">
        <ele>361.2</ele>
        <time>2014-09-28T09:16:35Z</time>
      </trkpt>
      <trkpt lat="43.66957" lon="3.30275">
        <ele>361.7</ele>
        <time>2014-09-28T09:16:37Z</time>
      </trkpt>
      <trkpt lat="43.66954" lon="3.30282">
        <ele>362</ele>
        <time>2014-09-28T09:16:39Z</time>
      </trkpt>
      <trkpt lat="43.66951" lon="3.3029">
        <ele>362.5</ele>
        <time>2014-09-28T09:16:41Z</time>
      </trkpt>
      <trkpt lat="43.66949" lon="3.30297">
        <ele>362.5</ele>
        <time>2014-09-28T09:16:43Z</time>
      </trkpt>
      <trkpt lat="43.66948" lon="3.30305">
        <ele>362.5</ele>
        <time>2014-09-28T09:16:45Z</time>
      </trkpt>
      <trkpt lat="43.66946" lon="3.30314">
        <ele>362.4</ele>
        <time>2014-09-28T09:16:47Z</time>
      </trkpt>
      <trkpt lat="43.66945" lon="3.30322">
        <ele>362.4</ele>
        <time>2014-09-28T09:16:49Z</time>
      </trkpt>
      <trkpt lat="43.66945" lon="3.30331">
        <ele>362.4</ele>
        <time>2014-09-28T09:16:51Z</time>
      </trkpt>
      <trkpt lat="43.66944" lon="3.30339">
        <ele>362.4</ele>
        <time>2014-09-28T09:16:53Z</time>
      </trkpt>
      <trkpt lat="43.66943" lon="3.30347">
        <ele>362.5</ele>
        <time>2014-09-28T09:16:55Z</time>
      </trkpt>
      <trkpt lat="43.66941" lon="3.30355">
        <ele>362.5</ele>
        <time>2014-09-28T09:16:57Z</time>
      </trkpt>
      <trkpt lat="43.66938" lon="3.30363">
        <ele>362.6</ele>
        <time>2014-09-28T09:16:59Z</time>
      </trkpt>
      <trkpt lat="43.66934" lon="3.30368">
        <ele>362.8</ele>
        <time>2014-09-28T09:17:01Z</time>
      </trkpt>
      <trkpt lat="43.6693" lon="3.30374">
        <ele>363</ele>
        <time>2014-09-28T09:17:03Z</time>
      </trkpt>
      <trkpt lat="43.66925" lon="3.30379">
        <ele>363.1</ele>
        <time>2014-09-28T09:17:05Z</time>
      </trkpt>
      <trkpt lat="43.66921" lon="3.30383">
        <ele>363.1</ele>
        <time>2014-09-28T09:17:07Z</time>
      </trkpt>
      <trkpt lat="43.66917" lon="3.30388">
        <ele>363.2</ele>
        <time>2014-09-28T09:17:09Z</time>
      </trkpt>
      <trkpt lat="43.66912" lon="3.30392">
        <ele>363.3</ele>
        <time>2014-09-28T09:17:11Z</time>
      </trkpt>
      <trkpt lat="43.66908" lon="3.30397">
        <ele>363.3</ele>
        <time>2014-09-28T09:17:13Z</time>
      </trkpt>
      <trkpt lat="43.66906" lon="3.30403">
        <ele>363.3</ele>
        <time>2014-09-28T09:17:16Z</time>
      </trkpt>
      <trkpt lat="43.66904" lon="3.3041">
        <ele>363.2</ele>
        <time>2014-09-28T09:17:44Z</time>
      </trkpt>
      <trkpt lat="43.66904" lon="3.30417">
        <ele>363.1</ele>
        <time>2014-09-28T09:17:47Z</time>
      </trkpt>
      <trkpt lat="43.66903" lon="3.30424">
        <ele>363</ele>
        <time>2014-09-28T09:17:49Z</time>
      </trkpt>
      <trkpt lat="43.669" lon="3.30431">
        <ele>363.1</ele>
        <time>2014-09-28T09:17:51Z</time>
      </trkpt>
      <trkpt lat="43.66897" lon="3.30438">
        <ele>363.1</ele>
        <time>2014-09-28T09:17:53Z</time>
      </trkpt>
      <trkpt lat="43.66895" lon="3.30447">
        <ele>363</ele>
        <time>2014-09-28T09:17:55Z</time>
      </trkpt>
      <trkpt lat="43.66891" lon="3.30457">
        <ele>363</ele>
        <time>2014-09-28T09:17:57Z</time>
      </trkpt>
      <trkpt lat="43.66889" lon="3.30464">
        <ele>363</ele>
        <time>2014-09-28T09:17:58Z</time>
      </trkpt>
      <trkpt lat="43.66887" lon="3.30471">
        <ele>362.9</ele>
        <time>2014-09-28T09:17:59Z</time>
      </trkpt>
      <trkpt lat="43.66885" lon="3.30478">
        <ele>362.8</ele>
        <time>2014-09-28T09:18:00Z</time>
      </trkpt>
      <trkpt lat="43.66882" lon="3.30485">
        <ele>362.8</ele>
        <time>2014-09-28T09:18:01Z</time>
      </trkpt>
      <trkpt lat="43.6688" lon="3.30492">
        <ele>362.8</ele>
        <time>2014-09-28T09:18:02Z</time>
      </trkpt>
      <trkpt lat="43.66877" lon="3.30498">
        <ele>362.9</ele>
        <time>2014-09-28T09:18:03Z</time>
      </trkpt>
      <trkpt lat="43.66875" lon="3.30504">
        <ele>362.9</ele>
        <time>2014-09-28T09:18:04Z</time>
      </trkpt>
      <trkpt lat="43.66871" lon="3.30514">
        <ele>362.4</ele>
        <time>2014-09-28T09:18:06Z</time>
      </trkpt>
      <trkpt lat="43.66867" lon="3.30525">
        <ele>362</ele>
        <time>2014-09-28T09:18:08Z</time>
      </trkpt>
      <trkpt lat="43.66863" lon="3.30536">
        <ele>361.7</ele>
        <time>2014-09-28T09:18:10Z</time>
      </trkpt>
      <trkpt lat="43.66859" lon="3.30545">
        <ele>361.4</ele>
        <time>2014-09-28T09:18:12Z</time>
      </trkpt>
      <trkpt lat="43.66855" lon="3.30552">
        <ele>361.3</ele>
        <time>2014-09-28T09:18:14Z</time>
      </trkpt>
      <trkpt lat="43.66851" lon="3.30557">
        <ele>361.2</ele>
        <time>2014-09-28T09:18:16Z</time>
      </trkpt>
      <trkpt lat="43.66848" lon="3.30562">
        <ele>361.1</ele>
        <time>2014-09-28T09:18:18Z</time>
      </trkpt>
      <trkpt lat="43.66848" lon="3.30562">
        <ele>361.1</ele>
        <time>2014-09-28T09:18:18Z</time>
      </trkpt>
      <trkpt lat="43.66844" lon="3.3057">
        <ele>361</ele>
        <time>2014-09-28T09:18:21Z</time>
      </trkpt>
      <trkpt lat="43.6684" lon="3.30575">
        <ele>361</ele>
        <time>2014-09-28T09:18:23Z</time>
      </trkpt>
      <trkpt lat="43.66837" lon="3.30581">
        <ele>361</ele>
        <time>2014-09-28T09:18:25Z</time>
      </trkpt>
      <trkpt lat="43.66834" lon="3.30588">
        <ele>361.1</ele>
        <time>2014-09-28T09:18:27Z</time>
      </trkpt>
      <trkpt lat="43.66833" lon="3.30595">
        <ele>361.1</ele>
        <time>2014-09-28T09:18:29Z</time>
      </trkpt>
      <trkpt lat="43.66832" lon="3.30602">
        <ele>361.2</ele>
        <time>2014-09-28T09:18:31Z</time>
      </trkpt>
      <trkpt lat="43.66833" lon="3.30609">
        <ele>361.3</ele>
        <time>2014-09-28T09:18:33Z</time>
      </trkpt>
      <trkpt lat="43.66833" lon="3.30616">
        <ele>361.4</ele>
        <time>2014-09-28T09:18:35Z</time>
      </trkpt>
      <trkpt lat="43.66832" lon="3.30625">
        <ele>361.5</ele>
        <time>2014-09-28T09:18:38Z</time>
      </trkpt>
      <trkpt lat="43.6683" lon="3.30633">
        <ele>362.2</ele>
        <time>2014-09-28T09:18:41Z</time>
      </trkpt>
      <trkpt lat="43.66827" lon="3.3064">
        <ele>362.8</ele>
        <time>2014-09-28T09:18:44Z</time>
      </trkpt>
      <trkpt lat="43.66823" lon="3.30646">
        <ele>363.4</ele>
        <time>2014-09-28T09:18:47Z</time>
      </trkpt>
      <trkpt lat="43.6682" lon="3.30651">
        <ele>364</ele>
        <time>2014-09-28T09:18:50Z</time>
      </trkpt>
      <trkpt lat="43.66815" lon="3.30657">
        <ele>364.6</ele>
        <time>2014-09-28T09:18:53Z</time>
      </trkpt>
      <trkpt lat="43.66811" lon="3.30661">
        <ele>365.1</ele>
        <time>2014-09-28T09:18:56Z</time>
      </trkpt>
      <trkpt lat="43.66806" lon="3.30663">
        <ele>365.6</ele>
        <time>2014-09-28T09:18:59Z</time>
      </trkpt>
      <trkpt lat="43.66802" lon="3.30666">
        <ele>366</ele>
        <time>2014-09-28T09:19:02Z</time>
      </trkpt>
      <trkpt lat="43.66796" lon="3.30668">
        <ele>366.4</ele>
        <time>2014-09-28T09:19:05Z</time>
      </trkpt>
      <trkpt lat="43.6679" lon="3.30668">
        <ele>366.7</ele>
        <time>2014-09-28T09:19:08Z</time>
      </trkpt>
      <trkpt lat="43.66784" lon="3.30667">
        <ele>366.5</ele>
        <time>2014-09-28T09:19:11Z</time>
      </trkpt>
      <trkpt lat="43.66778" lon="3.30667">
        <ele>366.4</ele>
        <time>2014-09-28T09:19:14Z</time>
      </trkpt>
      <trkpt lat="43.66772" lon="3.30667">
        <ele>366.4</ele>
        <time>2014-09-28T09:19:17Z</time>
      </trkpt>
      <trkpt lat="43.66766" lon="3.30667">
        <ele>366.4</ele>
        <time>2014-09-28T09:19:20Z</time>
      </trkpt>
      <trkpt lat="43.66761" lon="3.30668">
        <ele>366.4</ele>
        <time>2014-09-28T09:19:23Z</time>
      </trkpt>
      <trkpt lat="43.66756" lon="3.30669">
        <ele>366.5</ele>
        <time>2014-09-28T09:19:26Z</time>
      </trkpt>
      <trkpt lat="43.6675" lon="3.30671">
        <ele>366.7</ele>
        <time>2014-09-28T09:19:29Z</time>
      </trkpt>
      <trkpt lat="43.66745" lon="3.30673">
        <ele>366.8</ele>
        <time>2014-09-28T09:19:32Z</time>
      </trkpt>
      <trkpt lat="43.66739" lon="3.30675">
        <ele>367</ele>
        <time>2014-09-28T09:19:35Z</time>
      </trkpt>
      <trkpt lat="43.66735" lon="3.30675">
        <ele>367</ele>
        <time>2014-09-28T09:19:37Z</time>
      </trkpt>
      <trkpt lat="43.66728" lon="3.30675">
        <ele>366.9</ele>
        <time>2014-09-28T09:19:40Z</time>
      </trkpt>
      <trkpt lat="43.66723" lon="3.30674">
        <ele>366.8</ele>
        <time>2014-09-28T09:19:42Z</time>
      </trkpt>
      <trkpt lat="43.66716" lon="3.30675">
        <ele>366.8</ele>
        <time>2014-09-28T09:19:45Z</time>
      </trkpt>
      <trkpt lat="43.66712" lon="3.30675">
        <ele>366.8</ele>
        <time>2014-09-28T09:19:47Z</time>
      </trkpt>
      <trkpt lat="43.66707" lon="3.30677">
        <ele>366.9</ele>
        <time>2014-09-28T09:19:49Z</time>
      </trkpt>
      <trkpt lat="43.66702" lon="3.3068">
        <ele>366.9</ele>
        <time>2014-09-28T09:19:52Z</time>
      </trkpt>
      <trkpt lat="43.66696" lon="3.30683">
        <ele>366.9</ele>
        <time>2014-09-28T09:19:55Z</time>
      </trkpt>
      <trkpt lat="43.66692" lon="3.30688">
        <ele>367</ele>
        <time>2014-09-28T09:19:58Z</time>
      </trkpt>
      <trkpt lat="43.66687" lon="3.30692">
        <ele>367</ele>
        <time>2014-09-28T09:20:01Z</time>
      </trkpt>
      <trkpt lat="43.66682" lon="3.30696">
        <ele>367.1</ele>
        <time>2014-09-28T09:20:04Z</time>
      </trkpt>
      <trkpt lat="43.66677" lon="3.307">
        <ele>367</ele>
        <time>2014-09-28T09:20:08Z</time>
      </trkpt>
      <trkpt lat="43.66673" lon="3.30705">
        <ele>367.2</ele>
        <time>2014-09-28T09:20:11Z</time>
      </trkpt>
      <trkpt lat="43.6667" lon="3.30709">
        <ele>367.3</ele>
        <time>2014-09-28T09:20:14Z</time>
      </trkpt>
      <trkpt lat="43.66668" lon="3.30716">
        <ele>367.9</ele>
        <time>2014-09-28T09:20:17Z</time>
      </trkpt>
      <trkpt lat="43.66668" lon="3.30724">
        <ele>368.7</ele>
        <time>2014-09-28T09:20:20Z</time>
      </trkpt>
      <trkpt lat="43.66668" lon="3.30732">
        <ele>369.5</ele>
        <time>2014-09-28T09:20:23Z</time>
      </trkpt>
      <trkpt lat="43.66667" lon="3.3074">
        <ele>370.3</ele>
        <time>2014-09-28T09:20:26Z</time>
      </trkpt>
      <trkpt lat="43.66667" lon="3.30747">
        <ele>370.9</ele>
        <time>2014-09-28T09:20:29Z</time>
      </trkpt>
      <trkpt lat="43.66665" lon="3.30755">
        <ele>371.5</ele>
        <time>2014-09-28T09:20:32Z</time>
      </trkpt>
      <trkpt lat="43.66663" lon="3.30763">
        <ele>372.2</ele>
        <time>2014-09-28T09:20:35Z</time>
      </trkpt>
      <trkpt lat="43.66661" lon="3.30769">
        <ele>372.6</ele>
        <time>2014-09-28T09:20:37Z</time>
      </trkpt>
      <trkpt lat="43.6666" lon="3.30778">
        <ele>373.3</ele>
        <time>2014-09-28T09:20:40Z</time>
      </trkpt>
      <trkpt lat="43.66658" lon="3.30785">
        <ele>373.7</ele>
        <time>2014-09-28T09:20:43Z</time>
      </trkpt>
      <trkpt lat="43.66656" lon="3.30792">
        <ele>374.1</ele>
        <time>2014-09-28T09:20:46Z</time>
      </trkpt>
      <trkpt lat="43.66655" lon="3.30801">
        <ele>374.3</ele>
        <time>2014-09-28T09:20:49Z</time>
      </trkpt>
      <trkpt lat="43.66655" lon="3.30808">
        <ele>374.7</ele>
        <time>2014-09-28T09:20:52Z</time>
      </trkpt>
      <trkpt lat="43.66655" lon="3.30817">
        <ele>375.1</ele>
        <time>2014-09-28T09:20:55Z</time>
      </trkpt>
      <trkpt lat="43.66655" lon="3.30825">
        <ele>375.4</ele>
        <time>2014-09-28T09:20:58Z</time>
      </trkpt>
      <trkpt lat="43.66654" lon="3.30834">
        <ele>375.7</ele>
        <time>2014-09-28T09:21:01Z</time>
      </trkpt>
      <trkpt lat="43.66655" lon="3.30842">
        <ele>376.3</ele>
        <time>2014-09-28T09:21:04Z</time>
      </trkpt>
      <trkpt lat="43.66659" lon="3.30849">
        <ele>377</ele>
        <time>2014-09-28T09:21:07Z</time>
      </trkpt>
      <trkpt lat="43.66663" lon="3.30855">
        <ele>377.9</ele>
        <time>2014-09-28T09:21:10Z</time>
      </trkpt>
      <trkpt lat="43.66668" lon="3.3086">
        <ele>378.9</ele>
        <time>2014-09-28T09:21:13Z</time>
      </trkpt>
      <trkpt lat="43.66672" lon="3.30865">
        <ele>379.8</ele>
        <time>2014-09-28T09:21:16Z</time>
      </trkpt>
      <trkpt lat="43.66676" lon="3.3087">
        <ele>380.7</ele>
        <time>2014-09-28T09:21:19Z</time>
      </trkpt>
      <trkpt lat="43.66676" lon="3.3087">
        <ele>380.7</ele>
        <time>2014-09-28T09:21:19Z</time>
      </trkpt>
      <trkpt lat="43.66679" lon="3.30878">
        <ele>381.4</ele>
        <time>2014-09-28T09:21:22Z</time>
      </trkpt>
      <trkpt lat="43.6668" lon="3.30884">
        <ele>381.8</ele>
        <time>2014-09-28T09:21:24Z</time>
      </trkpt>
      <trkpt lat="43.66682" lon="3.30891">
        <ele>382.1</ele>
        <time>2014-09-28T09:21:26Z</time>
      </trkpt>
      <trkpt lat="43.66685" lon="3.30899">
        <ele>382.7</ele>
        <time>2014-09-28T09:21:28Z</time>
      </trkpt>
      <trkpt lat="43.66689" lon="3.30908">
        <ele>383.4</ele>
        <time>2014-09-28T09:21:30Z</time>
      </trkpt>
      <trkpt lat="43.66694" lon="3.30917">
        <ele>384.1</ele>
        <time>2014-09-28T09:21:32Z</time>
      </trkpt>
      <trkpt lat="43.66698" lon="3.30924">
        <ele>384.7</ele>
        <time>2014-09-28T09:21:34Z</time>
      </trkpt>
      <trkpt lat="43.66703" lon="3.30932">
        <ele>385.4</ele>
        <time>2014-09-28T09:21:36Z</time>
      </trkpt>
      <trkpt lat="43.66708" lon="3.3094">
        <ele>386</ele>
        <time>2014-09-28T09:21:38Z</time>
      </trkpt>
      <trkpt lat="43.66713" lon="3.30947">
        <ele>386.2</ele>
        <time>2014-09-28T09:21:40Z</time>
      </trkpt>
      <trkpt lat="43.66717" lon="3.30954">
        <ele>386.5</ele>
        <time>2014-09-28T09:21:42Z</time>
      </trkpt>
      <trkpt lat="43.66721" lon="3.30961">
        <ele>386.9</ele>
        <time>2014-09-28T09:21:44Z</time>
      </trkpt>
      <trkpt lat="43.66725" lon="3.30969">
        <ele>387.3</ele>
        <time>2014-09-28T09:21:46Z</time>
      </trkpt>
      <trkpt lat="43.66728" lon="3.30977">
        <ele>387.8</ele>
        <time>2014-09-28T09:21:48Z</time>
      </trkpt>
      <trkpt lat="43.66731" lon="3.30984">
        <ele>388.2</ele>
        <time>2014-09-28T09:21:50Z</time>
      </trkpt>
      <trkpt lat="43.66734" lon="3.30991">
        <ele>388.6</ele>
        <time>2014-09-28T09:21:52Z</time>
      </trkpt>
      <trkpt lat="43.66737" lon="3.30998">
        <ele>389</ele>
        <time>2014-09-28T09:21:54Z</time>
      </trkpt>
      <trkpt lat="43.6674" lon="3.31005">
        <ele>389.4</ele>
        <time>2014-09-28T09:21:56Z</time>
      </trkpt>
      <trkpt lat="43.66742" lon="3.31012">
        <ele>389.7</ele>
        <time>2014-09-28T09:21:58Z</time>
      </trkpt>
      <trkpt lat="43.66742" lon="3.31019">
        <ele>389.9</ele>
        <time>2014-09-28T09:22:00Z</time>
      </trkpt>
      <trkpt lat="43.66742" lon="3.31026">
        <ele>390.1</ele>
        <time>2014-09-28T09:22:02Z</time>
      </trkpt>
      <trkpt lat="43.6674" lon="3.31032">
        <ele>390.2</ele>
        <time>2014-09-28T09:22:05Z</time>
      </trkpt>
      <trkpt lat="43.66737" lon="3.31037">
        <ele>390.2</ele>
        <time>2014-09-28T09:22:09Z</time>
      </trkpt>
      <trkpt lat="43.66733" lon="3.31045">
        <ele>390.3</ele>
        <time>2014-09-28T09:22:12Z</time>
      </trkpt>
      <trkpt lat="43.66731" lon="3.31052">
        <ele>390.4</ele>
        <time>2014-09-28T09:22:15Z</time>
      </trkpt>
      <trkpt lat="43.66728" lon="3.31061">
        <ele>390.5</ele>
        <time>2014-09-28T09:22:18Z</time>
      </trkpt>
      <trkpt lat="43.66726" lon="3.31067">
        <ele>390.5</ele>
        <time>2014-09-28T09:22:20Z</time>
      </trkpt>
      <trkpt lat="43.66724" lon="3.31076">
        <ele>390.7</ele>
        <time>2014-09-28T09:22:23Z</time>
      </trkpt>
      <trkpt lat="43.66723" lon="3.31083">
        <ele>390.9</ele>
        <time>2014-09-28T09:22:25Z</time>
      </trkpt>
      <trkpt lat="43.66721" lon="3.3109">
        <ele>391.1</ele>
        <time>2014-09-28T09:22:27Z</time>
      </trkpt>
      <trkpt lat="43.66719" lon="3.31096">
        <ele>391.2</ele>
        <time>2014-09-28T09:22:29Z</time>
      </trkpt>
      <trkpt lat="43.66718" lon="3.31103">
        <ele>391.4</ele>
        <time>2014-09-28T09:22:31Z</time>
      </trkpt>
      <trkpt lat="43.66715" lon="3.31109">
        <ele>391.5</ele>
        <time>2014-09-28T09:22:33Z</time>
      </trkpt>
      <trkpt lat="43.66712" lon="3.31115">
        <ele>391.7</ele>
        <time>2014-09-28T09:22:35Z</time>
      </trkpt>
      <trkpt lat="43.66712" lon="3.31122">
        <ele>391.9</ele>
        <time>2014-09-28T09:22:37Z</time>
      </trkpt>
      <trkpt lat="43.66713" lon="3.3113">
        <ele>392.3</ele>
        <time>2014-09-28T09:22:39Z</time>
      </trkpt>
      <trkpt lat="43.66714" lon="3.31138">
        <ele>392.7</ele>
        <time>2014-09-28T09:22:41Z</time>
      </trkpt>
      <trkpt lat="43.66715" lon="3.31147">
        <ele>393.1</ele>
        <time>2014-09-28T09:22:43Z</time>
      </trkpt>
      <trkpt lat="43.66716" lon="3.31154">
        <ele>393.4</ele>
        <time>2014-09-28T09:22:45Z</time>
      </trkpt>
      <trkpt lat="43.66717" lon="3.31161">
        <ele>393.8</ele>
        <time>2014-09-28T09:22:47Z</time>
      </trkpt>
      <trkpt lat="43.6672" lon="3.31167">
        <ele>394</ele>
        <time>2014-09-28T09:22:49Z</time>
      </trkpt>
      <trkpt lat="43.66723" lon="3.31173">
        <ele>394.3</ele>
        <time>2014-09-28T09:22:51Z</time>
      </trkpt>
      <trkpt lat="43.66727" lon="3.3118">
        <ele>394.6</ele>
        <time>2014-09-28T09:22:53Z</time>
      </trkpt>
      <trkpt lat="43.66729" lon="3.31188">
        <ele>394.9</ele>
        <time>2014-09-28T09:22:55Z</time>
      </trkpt>
      <trkpt lat="43.6673" lon="3.31196">
        <ele>395.2</ele>
        <time>2014-09-28T09:22:57Z</time>
      </trkpt>
      <trkpt lat="43.6673" lon="3.31204">
        <ele>395.5</ele>
        <time>2014-09-28T09:22:59Z</time>
      </trkpt>
      <trkpt lat="43.66731" lon="3.31212">
        <ele>395.8</ele>
        <time>2014-09-28T09:23:02Z</time>
      </trkpt>
      <trkpt lat="43.66728" lon="3.31218">
        <ele>395.9</ele>
        <time>2014-09-28T09:23:04Z</time>
      </trkpt>
      <trkpt lat="43.66725" lon="3.31224">
        <ele>396</ele>
        <time>2014-09-28T09:23:06Z</time>
      </trkpt>
      <trkpt lat="43.66722" lon="3.3123">
        <ele>396.1</ele>
        <time>2014-09-28T09:23:08Z</time>
      </trkpt>
      <trkpt lat="43.66721" lon="3.31238">
        <ele>396.2</ele>
        <time>2014-09-28T09:23:10Z</time>
      </trkpt>
      <trkpt lat="43.66719" lon="3.31243">
        <ele>396.3</ele>
        <time>2014-09-28T09:23:13Z</time>
      </trkpt>
      <trkpt lat="43.66715" lon="3.31248">
        <ele>396.4</ele>
        <time>2014-09-28T09:23:21Z</time>
      </trkpt>
      <trkpt lat="43.6671" lon="3.3125">
        <ele>396.5</ele>
        <time>2014-09-28T09:24:01Z</time>
      </trkpt>
      <trkpt lat="43.66706" lon="3.31245">
        <ele>396.5</ele>
        <time>2014-09-28T09:26:31Z</time>
      </trkpt>
      <trkpt lat="43.66701" lon="3.31242">
        <ele>396.6</ele>
        <time>2014-09-28T09:26:33Z</time>
      </trkpt>
      <trkpt lat="43.66696" lon="3.31236">
        <ele>396.7</ele>
        <time>2014-09-28T09:26:35Z</time>
      </trkpt>
      <trkpt lat="43.66691" lon="3.31233">
        <ele>396.9</ele>
        <time>2014-09-28T09:26:37Z</time>
      </trkpt>
      <trkpt lat="43.66687" lon="3.3123">
        <ele>397</ele>
        <time>2014-09-28T09:26:39Z</time>
      </trkpt>
      <trkpt lat="43.66682" lon="3.31226">
        <ele>397.2</ele>
        <time>2014-09-28T09:26:42Z</time>
      </trkpt>
      <trkpt lat="43.66678" lon="3.31222">
        <ele>397.4</ele>
        <time>2014-09-28T09:26:44Z</time>
      </trkpt>
      <trkpt lat="43.66673" lon="3.31219">
        <ele>397.6</ele>
        <time>2014-09-28T09:26:46Z</time>
      </trkpt>
      <trkpt lat="43.66673" lon="3.31219">
        <ele>397.6</ele>
        <time>2014-09-28T09:26:46Z</time>
      </trkpt>
      <trkpt lat="43.66668" lon="3.31214">
        <ele>397.9</ele>
        <time>2014-09-28T09:26:49Z</time>
      </trkpt>
      <trkpt lat="43.66663" lon="3.31211">
        <ele>398.1</ele>
        <time>2014-09-28T09:26:51Z</time>
      </trkpt>
      <trkpt lat="43.66657" lon="3.31209">
        <ele>398.4</ele>
        <time>2014-09-28T09:26:54Z</time>
      </trkpt>
      <trkpt lat="43.66654" lon="3.31205">
        <ele>398.5</ele>
        <time>2014-09-28T09:26:56Z</time>
      </trkpt>
      <trkpt lat="43.66649" lon="3.31202">
        <ele>398.5</ele>
        <time>2014-09-28T09:26:58Z</time>
      </trkpt>
      <trkpt lat="43.66645" lon="3.31199">
        <ele>398.6</ele>
        <time>2014-09-28T09:27:00Z</time>
      </trkpt>
      <trkpt lat="43.6664" lon="3.31197">
        <ele>398.7</ele>
        <time>2014-09-28T09:27:02Z</time>
      </trkpt>
      <trkpt lat="43.66635" lon="3.31193">
        <ele>398.8</ele>
        <time>2014-09-28T09:27:04Z</time>
      </trkpt>
      <trkpt lat="43.6663" lon="3.31189">
        <ele>398.9</ele>
        <time>2014-09-28T09:27:06Z</time>
      </trkpt>
      <trkpt lat="43.66624" lon="3.31186">
        <ele>398.9</ele>
        <time>2014-09-28T09:27:08Z</time>
      </trkpt>
      <trkpt lat="43.66619" lon="3.31181">
        <ele>398.8</ele>
        <time>2014-09-28T09:27:10Z</time>
      </trkpt>
      <trkpt lat="43.66613" lon="3.31176">
        <ele>398.6</ele>
        <time>2014-09-28T09:27:12Z</time>
      </trkpt>
      <trkpt lat="43.66608" lon="3.31169">
        <ele>398.3</ele>
        <time>2014-09-28T09:27:14Z</time>
      </trkpt>
      <trkpt lat="43.66604" lon="3.31163">
        <ele>398.1</ele>
        <time>2014-09-28T09:27:16Z</time>
      </trkpt>
      <trkpt lat="43.666" lon="3.31157">
        <ele>397.7</ele>
        <time>2014-09-28T09:27:18Z</time>
      </trkpt>
      <trkpt lat="43.66596" lon="3.3115">
        <ele>397.4</ele>
        <time>2014-09-28T09:27:20Z</time>
      </trkpt>
      <trkpt lat="43.66593" lon="3.31144">
        <ele>397.1</ele>
        <time>2014-09-28T09:27:22Z</time>
      </trkpt>
      <trkpt lat="43.6659" lon="3.31136">
        <ele>396.7</ele>
        <time>2014-09-28T09:27:24Z</time>
      </trkpt>
      <trkpt lat="43.66586" lon="3.3113">
        <ele>396.3</ele>
        <time>2014-09-28T09:27:26Z</time>
      </trkpt>
      <trkpt lat="43.66582" lon="3.31126">
        <ele>396.1</ele>
        <time>2014-09-28T09:27:28Z</time>
      </trkpt>
      <trkpt lat="43.66577" lon="3.31124">
        <ele>395.9</ele>
        <time>2014-09-28T09:27:30Z</time>
      </trkpt>
      <trkpt lat="43.66572" lon="3.31123">
        <ele>395.7</ele>
        <time>2014-09-28T09:27:32Z</time>
      </trkpt>
      <trkpt lat="43.66566" lon="3.31126">
        <ele>396.1</ele>
        <time>2014-09-28T09:27:35Z</time>
      </trkpt>
      <trkpt lat="43.6656" lon="3.31125">
        <ele>396</ele>
        <time>2014-09-28T09:27:38Z</time>
      </trkpt>
      <trkpt lat="43.66555" lon="3.31124">
        <ele>395.8</ele>
        <time>2014-09-28T09:27:40Z</time>
      </trkpt>
      <trkpt lat="43.66551" lon="3.31125">
        <ele>396</ele>
        <time>2014-09-28T09:27:42Z</time>
      </trkpt>
      <trkpt lat="43.66546" lon="3.31128">
        <ele>396.2</ele>
        <time>2014-09-28T09:27:44Z</time>
      </trkpt>
      <trkpt lat="43.66541" lon="3.31133">
        <ele>396.5</ele>
        <time>2014-09-28T09:27:46Z</time>
      </trkpt>
      <trkpt lat="43.66537" lon="3.31137">
        <ele>396.4</ele>
        <time>2014-09-28T09:27:48Z</time>
      </trkpt>
      <trkpt lat="43.66533" lon="3.31141">
        <ele>396.3</ele>
        <time>2014-09-28T09:27:50Z</time>
      </trkpt>
      <trkpt lat="43.66528" lon="3.31144">
        <ele>396.1</ele>
        <time>2014-09-28T09:27:52Z</time>
      </trkpt>
      <trkpt lat="43.66523" lon="3.31147">
        <ele>395.8</ele>
        <time>2014-09-28T09:27:54Z</time>
      </trkpt>
      <trkpt lat="43.66517" lon="3.31148">
        <ele>395.3</ele>
        <time>2014-09-28T09:27:56Z</time>
      </trkpt>
      <trkpt lat="43.66512" lon="3.31149">
        <ele>394.9</ele>
        <time>2014-09-28T09:27:58Z</time>
      </trkpt>
      <trkpt lat="43.66506" lon="3.31151">
        <ele>394.5</ele>
        <time>2014-09-28T09:28:00Z</time>
      </trkpt>
      <trkpt lat="43.665" lon="3.31154">
        <ele>394</ele>
        <time>2014-09-28T09:28:02Z</time>
      </trkpt>
      <trkpt lat="43.66495" lon="3.31158">
        <ele>393.8</ele>
        <time>2014-09-28T09:28:04Z</time>
      </trkpt>
      <trkpt lat="43.66492" lon="3.31164">
        <ele>393.8</ele>
        <time>2014-09-28T09:28:06Z</time>
      </trkpt>
      <trkpt lat="43.66487" lon="3.31171">
        <ele>393.6</ele>
        <time>2014-09-28T09:28:08Z</time>
      </trkpt>
      <trkpt lat="43.66482" lon="3.31178">
        <ele>393.4</ele>
        <time>2014-09-28T09:28:10Z</time>
      </trkpt>
      <trkpt lat="43.66479" lon="3.31182">
        <ele>393.3</ele>
        <time>2014-09-28T09:28:11Z</time>
      </trkpt>
      <trkpt lat="43.66475" lon="3.31187">
        <ele>393.1</ele>
        <time>2014-09-28T09:28:12Z</time>
      </trkpt>
      <trkpt lat="43.66471" lon="3.31191">
        <ele>392.8</ele>
        <time>2014-09-28T09:28:13Z</time>
      </trkpt>
      <trkpt lat="43.66467" lon="3.31194">
        <ele>392.5</ele>
        <time>2014-09-28T09:28:14Z</time>
      </trkpt>
      <trkpt lat="43.66462" lon="3.31203">
        <ele>392.2</ele>
        <time>2014-09-28T09:28:16Z</time>
      </trkpt>
      <trkpt lat="43.66456" lon="3.31212">
        <ele>391.3</ele>
        <time>2014-09-28T09:28:18Z</time>
      </trkpt>
      <trkpt lat="43.66453" lon="3.31221">
        <ele>390.3</ele>
        <time>2014-09-28T09:28:20Z</time>
      </trkpt>
      <trkpt lat="43.66455" lon="3.31231">
        <ele>390.3</ele>
        <time>2014-09-28T09:28:22Z</time>
      </trkpt>
      <trkpt lat="43.66453" lon="3.31243">
        <ele>389.5</ele>
        <time>2014-09-28T09:28:24Z</time>
      </trkpt>
      <trkpt lat="43.66452" lon="3.31249">
        <ele>389.1</ele>
        <time>2014-09-28T09:28:25Z</time>
      </trkpt>
      <trkpt lat="43.6645" lon="3.31258">
        <ele>388.2</ele>
        <time>2014-09-28T09:28:27Z</time>
      </trkpt>
      <trkpt lat="43.66455" lon="3.31265">
        <ele>389.1</ele>
        <time>2014-09-28T09:28:30Z</time>
      </trkpt>
      <trkpt lat="43.66461" lon="3.31268">
        <ele>390.1</ele>
        <time>2014-09-28T09:28:32Z</time>
      </trkpt>
      <trkpt lat="43.66467" lon="3.31272">
        <ele>390.4</ele>
        <time>2014-09-28T09:28:34Z</time>
      </trkpt>
      <trkpt lat="43.66473" lon="3.31278">
        <ele>390.7</ele>
        <time>2014-09-28T09:28:36Z</time>
      </trkpt>
      <trkpt lat="43.66477" lon="3.31281">
        <ele>390.8</ele>
        <time>2014-09-28T09:28:37Z</time>
      </trkpt>
      <trkpt lat="43.66481" lon="3.31285">
        <ele>391</ele>
        <time>2014-09-28T09:28:38Z</time>
      </trkpt>
      <trkpt lat="43.66486" lon="3.31288">
        <ele>391.2</ele>
        <time>2014-09-28T09:28:39Z</time>
      </trkpt>
      <trkpt lat="43.66491" lon="3.3129">
        <ele>391.4</ele>
        <time>2014-09-28T09:28:40Z</time>
      </trkpt>
      <trkpt lat="43.66491" lon="3.3129">
        <ele>391.4</ele>
        <time>2014-09-28T09:28:40Z</time>
      </trkpt>
      <trkpt lat="43.66496" lon="3.31293">
        <ele>391.5</ele>
        <time>2014-09-28T09:28:41Z</time>
      </trkpt>
      <trkpt lat="43.665" lon="3.31297">
        <ele>391.2</ele>
        <time>2014-09-28T09:28:42Z</time>
      </trkpt>
      <trkpt lat="43.66505" lon="3.31302">
        <ele>390.8</ele>
        <time>2014-09-28T09:28:43Z</time>
      </trkpt>
      <trkpt lat="43.6651" lon="3.31306">
        <ele>390.4</ele>
        <time>2014-09-28T09:28:44Z</time>
      </trkpt>
      <trkpt lat="43.66514" lon="3.31311">
        <ele>390.1</ele>
        <time>2014-09-28T09:28:45Z</time>
      </trkpt>
      <trkpt lat="43.66518" lon="3.31316">
        <ele>389.6</ele>
        <time>2014-09-28T09:28:46Z</time>
      </trkpt>
      <trkpt lat="43.66523" lon="3.31322">
        <ele>389.1</ele>
        <time>2014-09-28T09:28:47Z</time>
      </trkpt>
      <trkpt lat="43.66527" lon="3.31329">
        <ele>388.5</ele>
        <time>2014-09-28T09:28:48Z</time>
      </trkpt>
      <trkpt lat="43.66532" lon="3.31334">
        <ele>388.1</ele>
        <time>2014-09-28T09:28:49Z</time>
      </trkpt>
      <trkpt lat="43.66537" lon="3.3134">
        <ele>387.6</ele>
        <time>2014-09-28T09:28:50Z</time>
      </trkpt>
      <trkpt lat="43.66542" lon="3.31346">
        <ele>387.3</ele>
        <time>2014-09-28T09:28:51Z</time>
      </trkpt>
      <trkpt lat="43.66546" lon="3.31351">
        <ele>386.8</ele>
        <time>2014-09-28T09:28:52Z</time>
      </trkpt>
      <trkpt lat="43.6655" lon="3.31356">
        <ele>386.4</ele>
        <time>2014-09-28T09:28:53Z</time>
      </trkpt>
      <trkpt lat="43.66554" lon="3.31362">
        <ele>385.9</ele>
        <time>2014-09-28T09:28:54Z</time>
      </trkpt>
      <trkpt lat="43.66557" lon="3.31367">
        <ele>385.5</ele>
        <time>2014-09-28T09:28:55Z</time>
      </trkpt>
      <trkpt lat="43.6656" lon="3.31372">
        <ele>385.1</ele>
        <time>2014-09-28T09:28:56Z</time>
      </trkpt>
      <trkpt lat="43.66563" lon="3.31377">
        <ele>384.8</ele>
        <time>2014-09-28T09:28:57Z</time>
      </trkpt>
      <trkpt lat="43.66566" lon="3.31382">
        <ele>384.4</ele>
        <time>2014-09-28T09:28:58Z</time>
      </trkpt>
      <trkpt lat="43.66569" lon="3.31388">
        <ele>383.9</ele>
        <time>2014-09-28T09:28:59Z</time>
      </trkpt>
      <trkpt lat="43.66571" lon="3.31394">
        <ele>383.4</ele>
        <time>2014-09-28T09:29:00Z</time>
      </trkpt>
      <trkpt lat="43.66574" lon="3.314">
        <ele>382.9</ele>
        <time>2014-09-28T09:29:01Z</time>
      </trkpt>
      <trkpt lat="43.66577" lon="3.31406">
        <ele>382.5</ele>
        <time>2014-09-28T09:29:02Z</time>
      </trkpt>
      <trkpt lat="43.6658" lon="3.31412">
        <ele>382.1</ele>
        <time>2014-09-28T09:29:03Z</time>
      </trkpt>
      <trkpt lat="43.66582" lon="3.31419">
        <ele>381.7</ele>
        <time>2014-09-28T09:29:04Z</time>
      </trkpt>
      <trkpt lat="43.66585" lon="3.31425">
        <ele>381.2</ele>
        <time>2014-09-28T09:29:05Z</time>
      </trkpt>
      <trkpt lat="43.66588" lon="3.31432">
        <ele>380.8</ele>
        <time>2014-09-28T09:29:06Z</time>
      </trkpt>
      <trkpt lat="43.66592" lon="3.31437">
        <ele>380.7</ele>
        <time>2014-09-28T09:29:07Z</time>
      </trkpt>
      <trkpt lat="43.66596" lon="3.31442">
        <ele>380.7</ele>
        <time>2014-09-28T09:29:08Z</time>
      </trkpt>
      <trkpt lat="43.66599" lon="3.31446">
        <ele>380.7</ele>
        <time>2014-09-28T09:29:09Z</time>
      </trkpt>
      <trkpt lat="43.66603" lon="3.3145">
        <ele>380.6</ele>
        <time>2014-09-28T09:29:10Z</time>
      </trkpt>
      <trkpt lat="43.66607" lon="3.31461">
        <ele>380.2</ele>
        <time>2014-09-28T09:29:12Z</time>
      </trkpt>
      <trkpt lat="43.66611" lon="3.31471">
        <ele>379.9</ele>
        <time>2014-09-28T09:29:14Z</time>
      </trkpt>
      <trkpt lat="43.66616" lon="3.31479">
        <ele>379.6</ele>
        <time>2014-09-28T09:29:16Z</time>
      </trkpt>
      <trkpt lat="43.6662" lon="3.31488">
        <ele>379.4</ele>
        <time>2014-09-28T09:29:18Z</time>
      </trkpt>
      <trkpt lat="43.66626" lon="3.31496">
        <ele>379.5</ele>
        <time>2014-09-28T09:29:20Z</time>
      </trkpt>
      <trkpt lat="43.66631" lon="3.31504">
        <ele>379.6</ele>
        <time>2014-09-28T09:29:22Z</time>
      </trkpt>
      <trkpt lat="43.66636" lon="3.31512">
        <ele>379.6</ele>
        <time>2014-09-28T09:29:24Z</time>
      </trkpt>
      <trkpt lat="43.66641" lon="3.31518">
        <ele>379.8</ele>
        <time>2014-09-28T09:29:26Z</time>
      </trkpt>
      <trkpt lat="43.66645" lon="3.31524">
        <ele>379.9</ele>
        <time>2014-09-28T09:29:28Z</time>
      </trkpt>
      <trkpt lat="43.66649" lon="3.31529">
        <ele>380</ele>
        <time>2014-09-28T09:29:30Z</time>
      </trkpt>
      <trkpt lat="43.66654" lon="3.31537">
        <ele>380.2</ele>
        <time>2014-09-28T09:29:32Z</time>
      </trkpt>
      <trkpt lat="43.66656" lon="3.31545">
        <ele>380</ele>
        <time>2014-09-28T09:29:34Z</time>
      </trkpt>
      <trkpt lat="43.66653" lon="3.31552">
        <ele>379.2</ele>
        <time>2014-09-28T09:29:36Z</time>
      </trkpt>
      <trkpt lat="43.66646" lon="3.31552">
        <ele>378</ele>
        <time>2014-09-28T09:29:38Z</time>
      </trkpt>
      <trkpt lat="43.66641" lon="3.31549">
        <ele>377.4</ele>
        <time>2014-09-28T09:29:39Z</time>
      </trkpt>
      <trkpt lat="43.66637" lon="3.31547">
        <ele>376.8</ele>
        <time>2014-09-28T09:29:40Z</time>
      </trkpt>
      <trkpt lat="43.66632" lon="3.31544">
        <ele>376.1</ele>
        <time>2014-09-28T09:29:41Z</time>
      </trkpt>
      <trkpt lat="43.66627" lon="3.31542">
        <ele>375.4</ele>
        <time>2014-09-28T09:29:42Z</time>
      </trkpt>
      <trkpt lat="43.66622" lon="3.31539">
        <ele>374.9</ele>
        <time>2014-09-28T09:29:43Z</time>
      </trkpt>
      <trkpt lat="43.66617" lon="3.31536">
        <ele>374.5</ele>
        <time>2014-09-28T09:29:44Z</time>
      </trkpt>
      <trkpt lat="43.66612" lon="3.31533">
        <ele>374.1</ele>
        <time>2014-09-28T09:29:45Z</time>
      </trkpt>
      <trkpt lat="43.66606" lon="3.3153">
        <ele>373.6</ele>
        <time>2014-09-28T09:29:46Z</time>
      </trkpt>
      <trkpt lat="43.66601" lon="3.31528">
        <ele>373.1</ele>
        <time>2014-09-28T09:29:47Z</time>
      </trkpt>
      <trkpt lat="43.66596" lon="3.31525">
        <ele>372.6</ele>
        <time>2014-09-28T09:29:48Z</time>
      </trkpt>
      <trkpt lat="43.66591" lon="3.31523">
        <ele>372.3</ele>
        <time>2014-09-28T09:29:49Z</time>
      </trkpt>
      <trkpt lat="43.66587" lon="3.31519">
        <ele>372</ele>
        <time>2014-09-28T09:29:50Z</time>
      </trkpt>
      <trkpt lat="43.66582" lon="3.31515">
        <ele>371.7</ele>
        <time>2014-09-28T09:29:51Z</time>
      </trkpt>
      <trkpt lat="43.66577" lon="3.31511">
        <ele>371.3</ele>
        <time>2014-09-28T09:29:52Z</time>
      </trkpt>
      <trkpt lat="43.66571" lon="3.31508">
        <ele>370.8</ele>
        <time>2014-09-28T09:29:53Z</time>
      </trkpt>
      <trkpt lat="43.66571" lon="3.31508">
        <ele>370.8</ele>
        <time>2014-09-28T09:29:53Z</time>
      </trkpt>
      <trkpt lat="43.66564" lon="3.31504">
        <ele>370.2</ele>
        <time>2014-09-28T09:29:54Z</time>
      </trkpt>
      <trkpt lat="43.66556" lon="3.315">
        <ele>369.4</ele>
        <time>2014-09-28T09:29:55Z</time>
      </trkpt>
      <trkpt lat="43.66548" lon="3.31496">
        <ele>368.7</ele>
        <time>2014-09-28T09:29:56Z</time>
      </trkpt>
      <trkpt lat="43.6654" lon="3.31493">
        <ele>367.9</ele>
        <time>2014-09-28T09:29:57Z</time>
      </trkpt>
      <trkpt lat="43.66532" lon="3.31489">
        <ele>367.4</ele>
        <time>2014-09-28T09:29:58Z</time>
      </trkpt>
      <trkpt lat="43.66524" lon="3.31486">
        <ele>366.8</ele>
        <time>2014-09-28T09:29:59Z</time>
      </trkpt>
      <trkpt lat="43.66516" lon="3.31482">
        <ele>366.3</ele>
        <time>2014-09-28T09:30:00Z</time>
      </trkpt>
      <trkpt lat="43.66508" lon="3.31478">
        <ele>365.9</ele>
        <time>2014-09-28T09:30:01Z</time>
      </trkpt>
      <trkpt lat="43.66501" lon="3.31473">
        <ele>365.6</ele>
        <time>2014-09-28T09:30:02Z</time>
      </trkpt>
      <trkpt lat="43.66494" lon="3.31467">
        <ele>365.5</ele>
        <time>2014-09-28T09:30:03Z</time>
      </trkpt>
      <trkpt lat="43.66487" lon="3.31461">
        <ele>365.5</ele>
        <time>2014-09-28T09:30:04Z</time>
      </trkpt>
      <trkpt lat="43.66481" lon="3.31456">
        <ele>365.5</ele>
        <time>2014-09-28T09:30:05Z</time>
      </trkpt>
      <trkpt lat="43.66474" lon="3.31453">
        <ele>365.2</ele>
        <time>2014-09-28T09:30:06Z</time>
      </trkpt>
      <trkpt lat="43.66467" lon="3.31452">
        <ele>364.8</ele>
        <time>2014-09-28T09:30:07Z</time>
      </trkpt>
      <trkpt lat="43.66459" lon="3.3145">
        <ele>364.4</ele>
        <time>2014-09-28T09:30:08Z</time>
      </trkpt>
      <trkpt lat="43.66452" lon="3.31447">
        <ele>363.9</ele>
        <time>2014-09-28T09:30:09Z</time>
      </trkpt>
      <trkpt lat="43.66445" lon="3.31444">
        <ele>363.6</ele>
        <time>2014-09-28T09:30:10Z</time>
      </trkpt>
      <trkpt lat="43.66439" lon="3.3144">
        <ele>363.3</ele>
        <time>2014-09-28T09:30:11Z</time>
      </trkpt>
      <trkpt lat="43.66432" lon="3.31436">
        <ele>363</ele>
        <time>2014-09-28T09:30:12Z</time>
      </trkpt>
      <trkpt lat="43.66426" lon="3.31433">
        <ele>362.7</ele>
        <time>2014-09-28T09:30:13Z</time>
      </trkpt>
      <trkpt lat="43.66419" lon="3.31429">
        <ele>362.4</ele>
        <time>2014-09-28T09:30:14Z</time>
      </trkpt>
      <trkpt lat="43.66413" lon="3.31425">
        <ele>362</ele>
        <time>2014-09-28T09:30:15Z</time>
      </trkpt>
      <trkpt lat="43.66406" lon="3.31421">
        <ele>361.7</ele>
        <time>2014-09-28T09:30:16Z</time>
      </trkpt>
      <trkpt lat="43.664" lon="3.31417">
        <ele>361.3</ele>
        <time>2014-09-28T09:30:17Z</time>
      </trkpt>
      <trkpt lat="43.66394" lon="3.31413">
        <ele>360.9</ele>
        <time>2014-09-28T09:30:18Z</time>
      </trkpt>
      <trkpt lat="43.66389" lon="3.3141">
        <ele>360.5</ele>
        <time>2014-09-28T09:30:19Z</time>
      </trkpt>
      <trkpt lat="43.66383" lon="3.31407">
        <ele>360</ele>
        <time>2014-09-28T09:30:20Z</time>
      </trkpt>
      <trkpt lat="43.66377" lon="3.31404">
        <ele>359.6</ele>
        <time>2014-09-28T09:30:21Z</time>
      </trkpt>
      <trkpt lat="43.66372" lon="3.314">
        <ele>358.9</ele>
        <time>2014-09-28T09:30:22Z</time>
      </trkpt>
      <trkpt lat="43.66366" lon="3.31397">
        <ele>358.2</ele>
        <time>2014-09-28T09:30:23Z</time>
      </trkpt>
      <trkpt lat="43.66359" lon="3.31393">
        <ele>357.3</ele>
        <time>2014-09-28T09:30:24Z</time>
      </trkpt>
      <trkpt lat="43.66353" lon="3.31389">
        <ele>356.4</ele>
        <time>2014-09-28T09:30:25Z</time>
      </trkpt>
      <trkpt lat="43.66346" lon="3.31385">
        <ele>355.4</ele>
        <time>2014-09-28T09:30:26Z</time>
      </trkpt>
      <trkpt lat="43.66339" lon="3.31381">
        <ele>354.3</ele>
        <time>2014-09-28T09:30:27Z</time>
      </trkpt>
      <trkpt lat="43.66333" lon="3.31377">
        <ele>353.2</ele>
        <time>2014-09-28T09:30:28Z</time>
      </trkpt>
      <trkpt lat="43.66325" lon="3.31374">
        <ele>352</ele>
        <time>2014-09-28T09:30:29Z</time>
      </trkpt>
      <trkpt lat="43.66317" lon="3.31371">
        <ele>350.4</ele>
        <time>2014-09-28T09:30:30Z</time>
      </trkpt>
      <trkpt lat="43.66308" lon="3.31371">
        <ele>348.7</ele>
        <time>2014-09-28T09:30:31Z</time>
      </trkpt>
      <trkpt lat="43.66299" lon="3.3137">
        <ele>346.8</ele>
        <time>2014-09-28T09:30:32Z</time>
      </trkpt>
      <trkpt lat="43.6629" lon="3.3137">
        <ele>344.9</ele>
        <time>2014-09-28T09:30:33Z</time>
      </trkpt>
      <trkpt lat="43.66281" lon="3.3137">
        <ele>343.2</ele>
        <time>2014-09-28T09:30:34Z</time>
      </trkpt>
      <trkpt lat="43.66272" lon="3.31369">
        <ele>341.5</ele>
        <time>2014-09-28T09:30:35Z</time>
      </trkpt>
      <trkpt lat="43.66264" lon="3.31366">
        <ele>340.1</ele>
        <time>2014-09-28T09:30:36Z</time>
      </trkpt>
      <trkpt lat="43.66257" lon="3.31361">
        <ele>339</ele>
        <time>2014-09-28T09:30:37Z</time>
      </trkpt>
      <trkpt lat="43.66252" lon="3.31354">
        <ele>338.2</ele>
        <time>2014-09-28T09:30:38Z</time>
      </trkpt>
      <trkpt lat="43.66247" lon="3.31347">
        <ele>337.6</ele>
        <time>2014-09-28T09:30:39Z</time>
      </trkpt>
      <trkpt lat="43.66244" lon="3.31341">
        <ele>337.2</ele>
        <time>2014-09-28T09:30:40Z</time>
      </trkpt>
      <trkpt lat="43.6624" lon="3.31333">
        <ele>336.5</ele>
        <time>2014-09-28T09:30:42Z</time>
      </trkpt>
      <trkpt lat="43.66234" lon="3.31328">
        <ele>335.6</ele>
        <time>2014-09-28T09:30:44Z</time>
      </trkpt>
      <trkpt lat="43.66228" lon="3.31322">
        <ele>334.4</ele>
        <time>2014-09-28T09:30:46Z</time>
      </trkpt>
      <trkpt lat="43.66222" lon="3.31314">
        <ele>333.4</ele>
        <time>2014-09-28T09:30:48Z</time>
      </trkpt>
      <trkpt lat="43.66219" lon="3.31309">
        <ele>332.9</ele>
        <time>2014-09-28T09:30:49Z</time>
      </trkpt>
      <trkpt lat="43.66215" lon="3.31303">
        <ele>332.3</ele>
        <time>2014-09-28T09:30:50Z</time>
      </trkpt>
      <trkpt lat="43.66212" lon="3.31297">
        <ele>331.6</ele>
        <time>2014-09-28T09:30:51Z</time>
      </trkpt>
      <trkpt lat="43.66208" lon="3.3129">
        <ele>330.8</ele>
        <time>2014-09-28T09:30:52Z</time>
      </trkpt>
      <trkpt lat="43.66203" lon="3.31283">
        <ele>329.6</ele>
        <time>2014-09-28T09:30:53Z</time>
      </trkpt>
      <trkpt lat="43.66199" lon="3.31277">
        <ele>328.4</ele>
        <time>2014-09-28T09:30:54Z</time>
      </trkpt>
      <trkpt lat="43.66195" lon="3.31269">
        <ele>327.2</ele>
        <time>2014-09-28T09:30:55Z</time>
      </trkpt>
      <trkpt lat="43.66192" lon="3.31262">
        <ele>326.3</ele>
        <time>2014-09-28T09:30:56Z</time>
      </trkpt>
      <trkpt lat="43.66189" lon="3.31254">
        <ele>325.5</ele>
        <time>2014-09-28T09:30:57Z</time>
      </trkpt>
      <trkpt lat="43.66186" lon="3.31248">
        <ele>324.6</ele>
        <time>2014-09-28T09:30:58Z</time>
      </trkpt>
      <trkpt lat="43.66179" lon="3.31239">
        <ele>322.5</ele>
        <time>2014-09-28T09:31:00Z</time>
      </trkpt>
      <trkpt lat="43.66174" lon="3.31233">
        <ele>320.8</ele>
        <time>2014-09-28T09:31:02Z</time>
      </trkpt>
      <trkpt lat="43.66168" lon="3.31228">
        <ele>318.9</ele>
        <time>2014-09-28T09:31:04Z</time>
      </trkpt>
      <trkpt lat="43.66163" lon="3.31222">
        <ele>317.1</ele>
        <time>2014-09-28T09:31:06Z</time>
      </trkpt>
      <trkpt lat="43.66158" lon="3.31217">
        <ele>315.4</ele>
        <time>2014-09-28T09:31:08Z</time>
      </trkpt>
      <trkpt lat="43.66153" lon="3.31211">
        <ele>313.8</ele>
        <time>2014-09-28T09:31:10Z</time>
      </trkpt>
      <trkpt lat="43.66149" lon="3.31205">
        <ele>312.2</ele>
        <time>2014-09-28T09:31:12Z</time>
      </trkpt>
      <trkpt lat="43.66145" lon="3.312">
        <ele>310.8</ele>
        <time>2014-09-28T09:31:14Z</time>
      </trkpt>
      <trkpt lat="43.66141" lon="3.31195">
        <ele>309.5</ele>
        <time>2014-09-28T09:31:16Z</time>
      </trkpt>
      <trkpt lat="43.66135" lon="3.31188">
        <ele>307.4</ele>
        <time>2014-09-28T09:31:18Z</time>
      </trkpt>
      <trkpt lat="43.66131" lon="3.31184">
        <ele>306.2</ele>
        <time>2014-09-28T09:31:19Z</time>
      </trkpt>
      <trkpt lat="43.66126" lon="3.31176">
        <ele>304.4</ele>
        <time>2014-09-28T09:31:21Z</time>
      </trkpt>
      <trkpt lat="43.66125" lon="3.31169">
        <ele>303.9</ele>
        <time>2014-09-28T09:31:23Z</time>
      </trkpt>
      <trkpt lat="43.66123" lon="3.31162">
        <ele>303.5</ele>
        <time>2014-09-28T09:31:25Z</time>
      </trkpt>
      <trkpt lat="43.66122" lon="3.31154">
        <ele>303.2</ele>
        <time>2014-09-28T09:31:27Z</time>
      </trkpt>
      <trkpt lat="43.66121" lon="3.31146">
        <ele>302.8</ele>
        <time>2014-09-28T09:31:30Z</time>
      </trkpt>
      <trkpt lat="43.66119" lon="3.31138">
        <ele>302.2</ele>
        <time>2014-09-28T09:31:33Z</time>
      </trkpt>
      <trkpt lat="43.66116" lon="3.31132">
        <ele>301.2</ele>
        <time>2014-09-28T09:31:47Z</time>
      </trkpt>
      <trkpt lat="43.66111" lon="3.31128">
        <ele>299.9</ele>
        <time>2014-09-28T09:31:53Z</time>
      </trkpt>
      <trkpt lat="43.66105" lon="3.31128">
        <ele>298.1</ele>
        <time>2014-09-28T09:32:00Z</time>
      </trkpt>
      <trkpt lat="43.66102" lon="3.31132">
        <ele>297</ele>
        <time>2014-09-28T09:32:02Z</time>
      </trkpt>
      <trkpt lat="43.66098" lon="3.31136">
        <ele>295.9</ele>
        <time>2014-09-28T09:32:04Z</time>
      </trkpt>
      <trkpt lat="43.66093" lon="3.31141">
        <ele>294.3</ele>
        <time>2014-09-28T09:32:06Z</time>
      </trkpt>
      <trkpt lat="43.66088" lon="3.31147">
        <ele>292.8</ele>
        <time>2014-09-28T09:32:08Z</time>
      </trkpt>
      <trkpt lat="43.66084" lon="3.31152">
        <ele>291.5</ele>
        <time>2014-09-28T09:32:10Z</time>
      </trkpt>
      <trkpt lat="43.66078" lon="3.31157">
        <ele>289.7</ele>
        <time>2014-09-28T09:32:12Z</time>
      </trkpt>
      <trkpt lat="43.66073" lon="3.31162">
        <ele>288.2</ele>
        <time>2014-09-28T09:32:14Z</time>
      </trkpt>
      <trkpt lat="43.6607" lon="3.31167">
        <ele>287.1</ele>
        <time>2014-09-28T09:32:16Z</time>
      </trkpt>
      <trkpt lat="43.66066" lon="3.31172">
        <ele>285.7</ele>
        <time>2014-09-28T09:32:18Z</time>
      </trkpt>
      <trkpt lat="43.6606" lon="3.31177">
        <ele>284.1</ele>
        <time>2014-09-28T09:32:20Z</time>
      </trkpt>
      <trkpt lat="43.66055" lon="3.31182">
        <ele>282.4</ele>
        <time>2014-09-28T09:32:22Z</time>
      </trkpt>
      <trkpt lat="43.6605" lon="3.31189">
        <ele>280.7</ele>
        <time>2014-09-28T09:32:24Z</time>
      </trkpt>
      <trkpt lat="43.66045" lon="3.31196">
        <ele>279</ele>
        <time>2014-09-28T09:32:26Z</time>
      </trkpt>
      <trkpt lat="43.6604" lon="3.31203">
        <ele>277.8</ele>
        <time>2014-09-28T09:32:28Z</time>
      </trkpt>
      <trkpt lat="43.66037" lon="3.3121">
        <ele>277.1</ele>
        <time>2014-09-28T09:32:30Z</time>
      </trkpt>
      <trkpt lat="43.66034" lon="3.31217">
        <ele>276.6</ele>
        <time>2014-09-28T09:32:32Z</time>
      </trkpt>
      <trkpt lat="43.66036" lon="3.31227">
        <ele>276.9</ele>
        <time>2014-09-28T09:32:34Z</time>
      </trkpt>
      <trkpt lat="43.66038" lon="3.31236">
        <ele>277.3</ele>
        <time>2014-09-28T09:32:36Z</time>
      </trkpt>
      <trkpt lat="43.6604" lon="3.31244">
        <ele>277.6</ele>
        <time>2014-09-28T09:32:38Z</time>
      </trkpt>
      <trkpt lat="43.6604" lon="3.31252">
        <ele>277.7</ele>
        <time>2014-09-28T09:32:40Z</time>
      </trkpt>
      <trkpt lat="43.66042" lon="3.31262">
        <ele>278</ele>
        <time>2014-09-28T09:32:42Z</time>
      </trkpt>
      <trkpt lat="43.66042" lon="3.31272">
        <ele>278</ele>
        <time>2014-09-28T09:32:44Z</time>
      </trkpt>
      <trkpt lat="43.66041" lon="3.31283">
        <ele>277.9</ele>
        <time>2014-09-28T09:32:46Z</time>
      </trkpt>
      <trkpt lat="43.66041" lon="3.31283">
        <ele>277.9</ele>
        <time>2014-09-28T09:32:46Z</time>
      </trkpt>
      <trkpt lat="43.6604" lon="3.31295">
        <ele>277.4</ele>
        <time>2014-09-28T09:32:48Z</time>
      </trkpt>
      <trkpt lat="43.66039" lon="3.31301">
        <ele>276.7</ele>
        <time>2014-09-28T09:32:49Z</time>
      </trkpt>
      <trkpt lat="43.66038" lon="3.31307">
        <ele>276</ele>
        <time>2014-09-28T09:32:50Z</time>
      </trkpt>
      <trkpt lat="43.66037" lon="3.31319">
        <ele>274.9</ele>
        <time>2014-09-28T09:32:52Z</time>
      </trkpt>
      <trkpt lat="43.66036" lon="3.31328">
        <ele>273.9</ele>
        <time>2014-09-28T09:32:54Z</time>
      </trkpt>
      <trkpt lat="43.66033" lon="3.31337">
        <ele>272.4</ele>
        <time>2014-09-28T09:32:56Z</time>
      </trkpt>
      <trkpt lat="43.66026" lon="3.31346">
        <ele>269.9</ele>
        <time>2014-09-28T09:32:58Z</time>
      </trkpt>
      <trkpt lat="43.66023" lon="3.31351">
        <ele>268.6</ele>
        <time>2014-09-28T09:32:59Z</time>
      </trkpt>
      <trkpt lat="43.6602" lon="3.31356">
        <ele>267.5</ele>
        <time>2014-09-28T09:33:00Z</time>
      </trkpt>
      <trkpt lat="43.66014" lon="3.31365">
        <ele>265</ele>
        <time>2014-09-28T09:33:02Z</time>
      </trkpt>
      <trkpt lat="43.66009" lon="3.3137">
        <ele>263.5</ele>
        <time>2014-09-28T09:33:03Z</time>
      </trkpt>
      <trkpt lat="43.66005" lon="3.31374">
        <ele>262</ele>
        <time>2014-09-28T09:33:04Z</time>
      </trkpt>
      <trkpt lat="43.66002" lon="3.31378">
        <ele>260.8</ele>
        <time>2014-09-28T09:33:05Z</time>
      </trkpt>
      <trkpt lat="43.65995" lon="3.31385">
        <ele>258.6</ele>
        <time>2014-09-28T09:33:07Z</time>
      </trkpt>
      <trkpt lat="43.65989" lon="3.31394">
        <ele>256.6</ele>
        <time>2014-09-28T09:33:09Z</time>
      </trkpt>
      <trkpt lat="43.65984" lon="3.31402">
        <ele>254.9</ele>
        <time>2014-09-28T09:33:11Z</time>
      </trkpt>
      <trkpt lat="43.65978" lon="3.31408">
        <ele>253.2</ele>
        <time>2014-09-28T09:33:13Z</time>
      </trkpt>
      <trkpt lat="43.65974" lon="3.31414">
        <ele>251.9</ele>
        <time>2014-09-28T09:33:15Z</time>
      </trkpt>
      <trkpt lat="43.65971" lon="3.31421">
        <ele>250.6</ele>
        <time>2014-09-28T09:33:17Z</time>
      </trkpt>
      <trkpt lat="43.65965" lon="3.31431">
        <ele>248.7</ele>
        <time>2014-09-28T09:33:19Z</time>
      </trkpt>
      <trkpt lat="43.65962" lon="3.31436">
        <ele>247.7</ele>
        <time>2014-09-28T09:33:20Z</time>
      </trkpt>
      <trkpt lat="43.65959" lon="3.31441">
        <ele>246.8</ele>
        <time>2014-09-28T09:33:21Z</time>
      </trkpt>
      <trkpt lat="43.65954" lon="3.31449">
        <ele>245.2</ele>
        <time>2014-09-28T09:33:23Z</time>
      </trkpt>
      <trkpt lat="43.6595" lon="3.31456">
        <ele>243.7</ele>
        <time>2014-09-28T09:33:25Z</time>
      </trkpt>
      <trkpt lat="43.65946" lon="3.31462">
        <ele>242.5</ele>
        <time>2014-09-28T09:33:27Z</time>
      </trkpt>
      <trkpt lat="43.6594" lon="3.31469">
        <ele>240.9</ele>
        <time>2014-09-28T09:33:29Z</time>
      </trkpt>
      <trkpt lat="43.65935" lon="3.31477">
        <ele>239.2</ele>
        <time>2014-09-28T09:33:31Z</time>
      </trkpt>
      <trkpt lat="43.65932" lon="3.31483">
        <ele>238.4</ele>
        <time>2014-09-28T09:33:32Z</time>
      </trkpt>
      <trkpt lat="43.6593" lon="3.31489">
        <ele>237.7</ele>
        <time>2014-09-28T09:33:33Z</time>
      </trkpt>
      <trkpt lat="43.65929" lon="3.31496">
        <ele>237.1</ele>
        <time>2014-09-28T09:33:34Z</time>
      </trkpt>
      <trkpt lat="43.65929" lon="3.31503">
        <ele>237.1</ele>
        <time>2014-09-28T09:33:35Z</time>
      </trkpt>
      <trkpt lat="43.65932" lon="3.31509">
        <ele>237.5</ele>
        <time>2014-09-28T09:33:36Z</time>
      </trkpt>
      <trkpt lat="43.65935" lon="3.31514">
        <ele>238.2</ele>
        <time>2014-09-28T09:33:37Z</time>
      </trkpt>
      <trkpt lat="43.65939" lon="3.31517">
        <ele>239.1</ele>
        <time>2014-09-28T09:33:38Z</time>
      </trkpt>
      <trkpt lat="43.65946" lon="3.31518">
        <ele>240.9</ele>
        <time>2014-09-28T09:33:40Z</time>
      </trkpt>
      <trkpt lat="43.65951" lon="3.31518">
        <ele>242</ele>
        <time>2014-09-28T09:33:42Z</time>
      </trkpt>
      <trkpt lat="43.65956" lon="3.31522">
        <ele>243.1</ele>
        <time>2014-09-28T09:33:45Z</time>
      </trkpt>
      <trkpt lat="43.65953" lon="3.31526">
        <ele>242.2</ele>
        <time>2014-09-28T09:33:48Z</time>
      </trkpt>
      <trkpt lat="43.65947" lon="3.31531">
        <ele>240.7</ele>
        <time>2014-09-28T09:33:51Z</time>
      </trkpt>
      <trkpt lat="43.65943" lon="3.31535">
        <ele>239.5</ele>
        <time>2014-09-28T09:33:53Z</time>
      </trkpt>
      <trkpt lat="43.65937" lon="3.31538">
        <ele>238.1</ele>
        <time>2014-09-28T09:33:55Z</time>
      </trkpt>
      <trkpt lat="43.65933" lon="3.31541">
        <ele>236.9</ele>
        <time>2014-09-28T09:33:57Z</time>
      </trkpt>
      <trkpt lat="43.65927" lon="3.31545">
        <ele>234.9</ele>
        <time>2014-09-28T09:34:00Z</time>
      </trkpt>
      <trkpt lat="43.65921" lon="3.31549">
        <ele>232.9</ele>
        <time>2014-09-28T09:34:02Z</time>
      </trkpt>
      <trkpt lat="43.65915" lon="3.31555">
        <ele>230.7</ele>
        <time>2014-09-28T09:34:04Z</time>
      </trkpt>
      <trkpt lat="43.6591" lon="3.31558">
        <ele>229.1</ele>
        <time>2014-09-28T09:34:06Z</time>
      </trkpt>
      <trkpt lat="43.65905" lon="3.31563">
        <ele>227.2</ele>
        <time>2014-09-28T09:34:09Z</time>
      </trkpt>
      <trkpt lat="43.65901" lon="3.31567">
        <ele>225.8</ele>
        <time>2014-09-28T09:34:11Z</time>
      </trkpt>
      <trkpt lat="43.65897" lon="3.31571">
        <ele>224.6</ele>
        <time>2014-09-28T09:34:14Z</time>
      </trkpt>
      <trkpt lat="43.65894" lon="3.31576">
        <ele>223.3</ele>
        <time>2014-09-28T09:34:17Z</time>
      </trkpt>
      <trkpt lat="43.6589" lon="3.31581">
        <ele>221.9</ele>
        <time>2014-09-28T09:34:19Z</time>
      </trkpt>
      <trkpt lat="43.65886" lon="3.31584">
        <ele>220.6</ele>
        <time>2014-09-28T09:34:21Z</time>
      </trkpt>
      <trkpt lat="43.65881" lon="3.31587">
        <ele>219.3</ele>
        <time>2014-09-28T09:34:23Z</time>
      </trkpt>
      <trkpt lat="43.65875" lon="3.3159">
        <ele>217.7</ele>
        <time>2014-09-28T09:34:25Z</time>
      </trkpt>
      <trkpt lat="43.65869" lon="3.31596">
        <ele>215.9</ele>
        <time>2014-09-28T09:34:27Z</time>
      </trkpt>
      <trkpt lat="43.65863" lon="3.31604">
        <ele>214</ele>
        <time>2014-09-28T09:34:29Z</time>
      </trkpt>
      <trkpt lat="43.65858" lon="3.3161">
        <ele>212.5</ele>
        <time>2014-09-28T09:34:31Z</time>
      </trkpt>
      <trkpt lat="43.65853" lon="3.31615">
        <ele>211.2</ele>
        <time>2014-09-28T09:34:33Z</time>
      </trkpt>
      <trkpt lat="43.65848" lon="3.3162">
        <ele>209.9</ele>
        <time>2014-09-28T09:34:35Z</time>
      </trkpt>
      <trkpt lat="43.65845" lon="3.31625">
        <ele>208.9</ele>
        <time>2014-09-28T09:34:37Z</time>
      </trkpt>
      <trkpt lat="43.65844" lon="3.31633">
        <ele>207.6</ele>
        <time>2014-09-28T09:34:40Z</time>
      </trkpt>
      <trkpt lat="43.65844" lon="3.31642">
        <ele>206.3</ele>
        <time>2014-09-28T09:34:43Z</time>
      </trkpt>
      <trkpt lat="43.65843" lon="3.31651">
        <ele>205.1</ele>
        <time>2014-09-28T09:34:45Z</time>
      </trkpt>
      <trkpt lat="43.65842" lon="3.31663">
        <ele>203.2</ele>
        <time>2014-09-28T09:34:47Z</time>
      </trkpt>
      <trkpt lat="43.6584" lon="3.3167">
        <ele>202.2</ele>
        <time>2014-09-28T09:34:48Z</time>
      </trkpt>
      <trkpt lat="43.65839" lon="3.31676">
        <ele>201.1</ele>
        <time>2014-09-28T09:34:49Z</time>
      </trkpt>
      <trkpt lat="43.65837" lon="3.31683">
        <ele>200.1</ele>
        <time>2014-09-28T09:34:50Z</time>
      </trkpt>
      <trkpt lat="43.65835" lon="3.3169">
        <ele>199</ele>
        <time>2014-09-28T09:34:51Z</time>
      </trkpt>
      <trkpt lat="43.65834" lon="3.31696">
        <ele>198.1</ele>
        <time>2014-09-28T09:34:52Z</time>
      </trkpt>
      <trkpt lat="43.65832" lon="3.31702">
        <ele>197.2</ele>
        <time>2014-09-28T09:34:53Z</time>
      </trkpt>
      <trkpt lat="43.65827" lon="3.3171">
        <ele>195.8</ele>
        <time>2014-09-28T09:34:55Z</time>
      </trkpt>
      <trkpt lat="43.65823" lon="3.31714">
        <ele>195</ele>
        <time>2014-09-28T09:34:57Z</time>
      </trkpt>
      <trkpt lat="43.65817" lon="3.3172">
        <ele>193.7</ele>
        <time>2014-09-28T09:34:59Z</time>
      </trkpt>
      <trkpt lat="43.65811" lon="3.31728">
        <ele>192.2</ele>
        <time>2014-09-28T09:35:01Z</time>
      </trkpt>
      <trkpt lat="43.65807" lon="3.31733">
        <ele>191.2</ele>
        <time>2014-09-28T09:35:02Z</time>
      </trkpt>
      <trkpt lat="43.65804" lon="3.31739">
        <ele>190.3</ele>
        <time>2014-09-28T09:35:03Z</time>
      </trkpt>
      <trkpt lat="43.658" lon="3.31743">
        <ele>189.4</ele>
        <time>2014-09-28T09:35:04Z</time>
      </trkpt>
      <trkpt lat="43.65796" lon="3.31748">
        <ele>188.6</ele>
        <time>2014-09-28T09:35:05Z</time>
      </trkpt>
      <trkpt lat="43.65792" lon="3.31752">
        <ele>187.7</ele>
        <time>2014-09-28T09:35:06Z</time>
      </trkpt>
      <trkpt lat="43.65788" lon="3.31757">
        <ele>186.5</ele>
        <time>2014-09-28T09:35:07Z</time>
      </trkpt>
      <trkpt lat="43.65784" lon="3.31762">
        <ele>185.2</ele>
        <time>2014-09-28T09:35:08Z</time>
      </trkpt>
      <trkpt lat="43.6578" lon="3.31767">
        <ele>184</ele>
        <time>2014-09-28T09:35:09Z</time>
      </trkpt>
      <trkpt lat="43.65775" lon="3.31772">
        <ele>182.8</ele>
        <time>2014-09-28T09:35:10Z</time>
      </trkpt>
      <trkpt lat="43.65771" lon="3.31776">
        <ele>181.7</ele>
        <time>2014-09-28T09:35:11Z</time>
      </trkpt>
      <trkpt lat="43.65767" lon="3.3178">
        <ele>180.6</ele>
        <time>2014-09-28T09:35:12Z</time>
      </trkpt>
      <trkpt lat="43.65764" lon="3.31784">
        <ele>179.8</ele>
        <time>2014-09-28T09:35:13Z</time>
      </trkpt>
      <trkpt lat="43.65757" lon="3.3179">
        <ele>178.5</ele>
        <time>2014-09-28T09:35:15Z</time>
      </trkpt>
      <trkpt lat="43.65749" lon="3.31794">
        <ele>177.3</ele>
        <time>2014-09-28T09:35:17Z</time>
      </trkpt>
      <trkpt lat="43.65742" lon="3.31799">
        <ele>176.1</ele>
        <time>2014-09-28T09:35:19Z</time>
      </trkpt>
      <trkpt lat="43.65735" lon="3.31805">
        <ele>175</ele>
        <time>2014-09-28T09:35:21Z</time>
      </trkpt>
      <trkpt lat="43.65729" lon="3.31809">
        <ele>174.1</ele>
        <time>2014-09-28T09:35:23Z</time>
      </trkpt>
      <trkpt lat="43.65722" lon="3.31811">
        <ele>173.2</ele>
        <time>2014-09-28T09:35:25Z</time>
      </trkpt>
      <trkpt lat="43.65713" lon="3.31812">
        <ele>172.3</ele>
        <time>2014-09-28T09:35:27Z</time>
      </trkpt>
      <trkpt lat="43.65708" lon="3.31812">
        <ele>171.8</ele>
        <time>2014-09-28T09:35:28Z</time>
      </trkpt>
      <trkpt lat="43.65704" lon="3.31813">
        <ele>171.3</ele>
        <time>2014-09-28T09:35:29Z</time>
      </trkpt>
      <trkpt lat="43.65697" lon="3.31814">
        <ele>170.6</ele>
        <time>2014-09-28T09:35:31Z</time>
      </trkpt>
      <trkpt lat="43.65694" lon="3.31819">
        <ele>170</ele>
        <time>2014-09-28T09:35:33Z</time>
      </trkpt>
      <trkpt lat="43.65691" lon="3.31824">
        <ele>169.5</ele>
        <time>2014-09-28T09:35:35Z</time>
      </trkpt>
      <trkpt lat="43.65688" lon="3.31828">
        <ele>169</ele>
        <time>2014-09-28T09:35:38Z</time>
      </trkpt>
      <trkpt lat="43.65684" lon="3.31832">
        <ele>168.5</ele>
        <time>2014-09-28T09:35:41Z</time>
      </trkpt>
      <trkpt lat="43.65679" lon="3.31833">
        <ele>168.1</ele>
        <time>2014-09-28T09:35:51Z</time>
      </trkpt>
      <trkpt lat="43.65675" lon="3.3183">
        <ele>167.9</ele>
        <time>2014-09-28T09:37:01Z</time>
      </trkpt>
      <trkpt lat="43.65671" lon="3.31827">
        <ele>167.6</ele>
        <time>2014-09-28T09:37:04Z</time>
      </trkpt>
      <trkpt lat="43.65665" lon="3.31824">
        <ele>167.2</ele>
        <time>2014-09-28T09:37:07Z</time>
      </trkpt>
      <trkpt lat="43.6566" lon="3.31821">
        <ele>166.9</ele>
        <time>2014-09-28T09:37:09Z</time>
      </trkpt>
      <trkpt lat="43.65655" lon="3.31817">
        <ele>166.5</ele>
        <time>2014-09-28T09:37:11Z</time>
      </trkpt>
      <trkpt lat="43.65648" lon="3.31812">
        <ele>166</ele>
        <time>2014-09-28T09:37:13Z</time>
      </trkpt>
      <trkpt lat="43.65643" lon="3.31804">
        <ele>165.6</ele>
        <time>2014-09-28T09:37:15Z</time>
      </trkpt>
      <trkpt lat="43.65638" lon="3.31796">
        <ele>165.3</ele>
        <time>2014-09-28T09:37:17Z</time>
      </trkpt>
      <trkpt lat="43.65634" lon="3.31788">
        <ele>164.9</ele>
        <time>2014-09-28T09:37:19Z</time>
      </trkpt>
      <trkpt lat="43.65629" lon="3.31783">
        <ele>164.5</ele>
        <time>2014-09-28T09:37:21Z</time>
      </trkpt>
      <trkpt lat="43.65625" lon="3.3178">
        <ele>164</ele>
        <time>2014-09-28T09:37:23Z</time>
      </trkpt>
      <trkpt lat="43.65619" lon="3.31778">
        <ele>163.6</ele>
        <time>2014-09-28T09:37:25Z</time>
      </trkpt>
      <trkpt lat="43.65614" lon="3.31778">
        <ele>163.2</ele>
        <time>2014-09-28T09:37:27Z</time>
      </trkpt>
      <trkpt lat="43.65607" lon="3.31778">
        <ele>162.7</ele>
        <time>2014-09-28T09:37:29Z</time>
      </trkpt>
      <trkpt lat="43.65599" lon="3.31778">
        <ele>162.2</ele>
        <time>2014-09-28T09:37:31Z</time>
      </trkpt>
      <trkpt lat="43.6559" lon="3.31778">
        <ele>161.6</ele>
        <time>2014-09-28T09:37:33Z</time>
      </trkpt>
      <trkpt lat="43.65586" lon="3.31778">
        <ele>161.2</ele>
        <time>2014-09-28T09:37:34Z</time>
      </trkpt>
      <trkpt lat="43.65581" lon="3.31779">
        <ele>160.9</ele>
        <time>2014-09-28T09:37:35Z</time>
      </trkpt>
      <trkpt lat="43.65575" lon="3.31779">
        <ele>160.5</ele>
        <time>2014-09-28T09:37:36Z</time>
      </trkpt>
      <trkpt lat="43.65569" lon="3.31779">
        <ele>160.1</ele>
        <time>2014-09-28T09:37:37Z</time>
      </trkpt>
      <trkpt lat="43.65563" lon="3.31779">
        <ele>159.7</ele>
        <time>2014-09-28T09:37:38Z</time>
      </trkpt>
      <trkpt lat="43.65557" lon="3.31779">
        <ele>159.3</ele>
        <time>2014-09-28T09:37:39Z</time>
      </trkpt>
      <trkpt lat="43.65551" lon="3.31779">
        <ele>158.8</ele>
        <time>2014-09-28T09:37:40Z</time>
      </trkpt>
      <trkpt lat="43.65544" lon="3.31779">
        <ele>158.3</ele>
        <time>2014-09-28T09:37:41Z</time>
      </trkpt>
      <trkpt lat="43.65538" lon="3.31779">
        <ele>158</ele>
        <time>2014-09-28T09:37:42Z</time>
      </trkpt>
      <trkpt lat="43.65531" lon="3.31778">
        <ele>157.7</ele>
        <time>2014-09-28T09:37:43Z</time>
      </trkpt>
      <trkpt lat="43.65524" lon="3.31778">
        <ele>157.3</ele>
        <time>2014-09-28T09:37:44Z</time>
      </trkpt>
      <trkpt lat="43.65517" lon="3.31778">
        <ele>157</ele>
        <time>2014-09-28T09:37:45Z</time>
      </trkpt>
      <trkpt lat="43.65509" lon="3.31777">
        <ele>156.7</ele>
        <time>2014-09-28T09:37:46Z</time>
      </trkpt>
      <trkpt lat="43.65502" lon="3.31777">
        <ele>156.4</ele>
        <time>2014-09-28T09:37:47Z</time>
      </trkpt>
      <trkpt lat="43.65494" lon="3.31776">
        <ele>156</ele>
        <time>2014-09-28T09:37:48Z</time>
      </trkpt>
      <trkpt lat="43.65487" lon="3.31776">
        <ele>155.7</ele>
        <time>2014-09-28T09:37:49Z</time>
      </trkpt>
      <trkpt lat="43.65479" lon="3.31775">
        <ele>155.3</ele>
        <time>2014-09-28T09:37:50Z</time>
      </trkpt>
      <trkpt lat="43.65471" lon="3.31774">
        <ele>155</ele>
        <time>2014-09-28T09:37:51Z</time>
      </trkpt>
      <trkpt lat="43.65464" lon="3.31774">
        <ele>154.7</ele>
        <time>2014-09-28T09:37:52Z</time>
      </trkpt>
      <trkpt lat="43.65457" lon="3.31774">
        <ele>154.4</ele>
        <time>2014-09-28T09:37:53Z</time>
      </trkpt>
      <trkpt lat="43.6545" lon="3.31776">
        <ele>154.3</ele>
        <time>2014-09-28T09:37:54Z</time>
      </trkpt>
      <trkpt lat="43.65443" lon="3.31778">
        <ele>154.1</ele>
        <time>2014-09-28T09:37:55Z</time>
      </trkpt>
      <trkpt lat="43.65437" lon="3.31782">
        <ele>154</ele>
        <time>2014-09-28T09:37:56Z</time>
      </trkpt>
      <trkpt lat="43.65432" lon="3.31787">
        <ele>153.8</ele>
        <time>2014-09-28T09:37:57Z</time>
      </trkpt>
      <trkpt lat="43.65428" lon="3.31793">
        <ele>153.6</ele>
        <time>2014-09-28T09:37:58Z</time>
      </trkpt>
      <trkpt lat="43.65426" lon="3.318">
        <ele>153.5</ele>
        <time>2014-09-28T09:37:59Z</time>
      </trkpt>
      <trkpt lat="43.65424" lon="3.31806">
        <ele>153.3</ele>
        <time>2014-09-28T09:38:00Z</time>
      </trkpt>
      <trkpt lat="43.65423" lon="3.31816">
        <ele>153.1</ele>
        <time>2014-09-28T09:38:02Z</time>
      </trkpt>
      <trkpt lat="43.65421" lon="3.31825">
        <ele>152.9</ele>
        <time>2014-09-28T09:38:04Z</time>
      </trkpt>
      <trkpt lat="43.65418" lon="3.31832">
        <ele>152.8</ele>
        <time>2014-09-28T09:38:06Z</time>
      </trkpt>
      <trkpt lat="43.65415" lon="3.31839">
        <ele>152.6</ele>
        <time>2014-09-28T09:38:08Z</time>
      </trkpt>
      <trkpt lat="43.65412" lon="3.31844">
        <ele>152.5</ele>
        <time>2014-09-28T09:38:10Z</time>
      </trkpt>
      <trkpt lat="43.65408" lon="3.31849">
        <ele>152.4</ele>
        <time>2014-09-28T09:38:13Z</time>
      </trkpt>
      <trkpt lat="43.65405" lon="3.31855">
        <ele>152.3</ele>
        <time>2014-09-28T09:38:43Z</time>
      </trkpt>
      <trkpt lat="43.65408" lon="3.31867">
        <ele>152.1</ele>
        <time>2014-09-28T09:38:49Z</time>
      </trkpt>
      <trkpt lat="43.65404" lon="3.31878">
        <ele>151.9</ele>
        <time>2014-09-28T09:39:05Z</time>
      </trkpt>
      <trkpt lat="43.65402" lon="3.31884">
        <ele>151.8</ele>
        <time>2014-09-28T09:39:12Z</time>
      </trkpt>
      <trkpt lat="43.654" lon="3.31889">
        <ele>151.6</ele>
        <time>2014-09-28T09:39:17Z</time>
      </trkpt>
      <trkpt lat="43.65403" lon="3.31895">
        <ele>151.4</ele>
        <time>2014-09-28T09:39:26Z</time>
      </trkpt>
      <trkpt lat="43.65407" lon="3.319">
        <ele>151.3</ele>
        <time>2014-09-28T09:39:29Z</time>
      </trkpt>
      <trkpt lat="43.65409" lon="3.31906">
        <ele>151.2</ele>
        <time>2014-09-28T09:39:31Z</time>
      </trkpt>
      <trkpt lat="43.65412" lon="3.31912">
        <ele>151.1</ele>
        <time>2014-09-28T09:39:33Z</time>
      </trkpt>
      <trkpt lat="43.65415" lon="3.31919">
        <ele>150.9</ele>
        <time>2014-09-28T09:39:36Z</time>
      </trkpt>
      <trkpt lat="43.65418" lon="3.31926">
        <ele>150.8</ele>
        <time>2014-09-28T09:39:39Z</time>
      </trkpt>
      <trkpt lat="43.65422" lon="3.31933">
        <ele>150.7</ele>
        <time>2014-09-28T09:39:42Z</time>
      </trkpt>
      <trkpt lat="43.65425" lon="3.31937">
        <ele>150.7</ele>
        <time>2014-09-28T09:39:44Z</time>
      </trkpt>
      <trkpt lat="43.65428" lon="3.31943">
        <ele>150.6</ele>
        <time>2014-09-28T09:39:46Z</time>
      </trkpt>
      <trkpt lat="43.65428" lon="3.31951">
        <ele>150.4</ele>
        <time>2014-09-28T09:39:48Z</time>
      </trkpt>
      <trkpt lat="43.65428" lon="3.3196">
        <ele>150.3</ele>
        <time>2014-09-28T09:39:50Z</time>
      </trkpt>
      <trkpt lat="43.65428" lon="3.31969">
        <ele>150.2</ele>
        <time>2014-09-28T09:39:52Z</time>
      </trkpt>
      <trkpt lat="43.65429" lon="3.31979">
        <ele>150.2</ele>
        <time>2014-09-28T09:39:54Z</time>
      </trkpt>
      <trkpt lat="43.65429" lon="3.31988">
        <ele>150.2</ele>
        <time>2014-09-28T09:39:56Z</time>
      </trkpt>
      <trkpt lat="43.65429" lon="3.31997">
        <ele>150.1</ele>
        <time>2014-09-28T09:39:58Z</time>
      </trkpt>
      <trkpt lat="43.6543" lon="3.32006">
        <ele>150.1</ele>
        <time>2014-09-28T09:40:00Z</time>
      </trkpt>
      <trkpt lat="43.6543" lon="3.32015">
        <ele>150.1</ele>
        <time>2014-09-28T09:40:02Z</time>
      </trkpt>
      <trkpt lat="43.65429" lon="3.32026">
        <ele>150</ele>
        <time>2014-09-28T09:40:04Z</time>
      </trkpt>
      <trkpt lat="43.65426" lon="3.32038">
        <ele>149.9</ele>
        <time>2014-09-28T09:40:06Z</time>
      </trkpt>
      <trkpt lat="43.65425" lon="3.32044">
        <ele>149.8</ele>
        <time>2014-09-28T09:40:07Z</time>
      </trkpt>
      <trkpt lat="43.65423" lon="3.32051">
        <ele>149.6</ele>
        <time>2014-09-28T09:40:08Z</time>
      </trkpt>
      <trkpt lat="43.65422" lon="3.32058">
        <ele>149.5</ele>
        <time>2014-09-28T09:40:09Z</time>
      </trkpt>
      <trkpt lat="43.65421" lon="3.32065">
        <ele>149.3</ele>
        <time>2014-09-28T09:40:10Z</time>
      </trkpt>
      <trkpt lat="43.65419" lon="3.32073">
        <ele>149.2</ele>
        <time>2014-09-28T09:40:11Z</time>
      </trkpt>
      <trkpt lat="43.65418" lon="3.3208">
        <ele>149.1</ele>
        <time>2014-09-28T09:40:12Z</time>
      </trkpt>
      <trkpt lat="43.65416" lon="3.32088">
        <ele>148.9</ele>
        <time>2014-09-28T09:40:13Z</time>
      </trkpt>
      <trkpt lat="43.65414" lon="3.32095">
        <ele>148.8</ele>
        <time>2014-09-28T09:40:14Z</time>
      </trkpt>
      <trkpt lat="43.65411" lon="3.32101">
        <ele>148.7</ele>
        <time>2014-09-28T09:40:15Z</time>
      </trkpt>
      <trkpt lat="43.65408" lon="3.32105">
        <ele>148.6</ele>
        <time>2014-09-28T09:40:16Z</time>
      </trkpt>
      <trkpt lat="43.65398" lon="3.32116">
        <ele>148.3</ele>
        <time>2014-09-28T09:40:19Z</time>
      </trkpt>
      <trkpt lat="43.65395" lon="3.32124">
        <ele>148.2</ele>
        <time>2014-09-28T09:40:21Z</time>
      </trkpt>
      <trkpt lat="43.65393" lon="3.32132">
        <ele>148.2</ele>
        <time>2014-09-28T09:40:23Z</time>
      </trkpt>
      <trkpt lat="43.65391" lon="3.32142">
        <ele>148.1</ele>
        <time>2014-09-28T09:40:25Z</time>
      </trkpt>
      <trkpt lat="43.65391" lon="3.32152">
        <ele>148</ele>
        <time>2014-09-28T09:40:27Z</time>
      </trkpt>
      <trkpt lat="43.6539" lon="3.32162">
        <ele>147.9</ele>
        <time>2014-09-28T09:40:29Z</time>
      </trkpt>
      <trkpt lat="43.65389" lon="3.32174">
        <ele>147.8</ele>
        <time>2014-09-28T09:40:31Z</time>
      </trkpt>
      <trkpt lat="43.65388" lon="3.32185">
        <ele>147.7</ele>
        <time>2014-09-28T09:40:33Z</time>
      </trkpt>
      <trkpt lat="43.65388" lon="3.32191">
        <ele>147.6</ele>
        <time>2014-09-28T09:40:34Z</time>
      </trkpt>
      <trkpt lat="43.65387" lon="3.32197">
        <ele>147.5</ele>
        <time>2014-09-28T09:40:35Z</time>
      </trkpt>
      <trkpt lat="43.65386" lon="3.32204">
        <ele>147.4</ele>
        <time>2014-09-28T09:40:36Z</time>
      </trkpt>
      <trkpt lat="43.65386" lon="3.3221">
        <ele>147.4</ele>
        <time>2014-09-28T09:40:37Z</time>
      </trkpt>
      <trkpt lat="43.65386" lon="3.32217">
        <ele>147.4</ele>
        <time>2014-09-28T09:40:38Z</time>
      </trkpt>
      <trkpt lat="43.65386" lon="3.32223">
        <ele>147.4</ele>
        <time>2014-09-28T09:40:39Z</time>
      </trkpt>
      <trkpt lat="43.65385" lon="3.3223">
        <ele>147.3</ele>
        <time>2014-09-28T09:40:40Z</time>
      </trkpt>
      <trkpt lat="43.65385" lon="3.32237">
        <ele>147.3</ele>
        <time>2014-09-28T09:40:41Z</time>
      </trkpt>
      <trkpt lat="43.65385" lon="3.32243">
        <ele>147.3</ele>
        <time>2014-09-28T09:40:42Z</time>
      </trkpt>
      <trkpt lat="43.65386" lon="3.3225">
        <ele>147.3</ele>
        <time>2014-09-28T09:40:43Z</time>
      </trkpt>
      <trkpt lat="43.65386" lon="3.32256">
        <ele>147.3</ele>
        <time>2014-09-28T09:40:44Z</time>
      </trkpt>
      <trkpt lat="43.65386" lon="3.32262">
        <ele>147.3</ele>
        <time>2014-09-28T09:40:45Z</time>
      </trkpt>
      <trkpt lat="43.65387" lon="3.32269">
        <ele>147.3</ele>
        <time>2014-09-28T09:40:46Z</time>
      </trkpt>
      <trkpt lat="43.65387" lon="3.32275">
        <ele>147.3</ele>
        <time>2014-09-28T09:40:47Z</time>
      </trkpt>
      <trkpt lat="43.65388" lon="3.32282">
        <ele>147.3</ele>
        <time>2014-09-28T09:40:48Z</time>
      </trkpt>
      <trkpt lat="43.65389" lon="3.32289">
        <ele>147.3</ele>
        <time>2014-09-28T09:40:49Z</time>
      </trkpt>
      <trkpt lat="43.65389" lon="3.32296">
        <ele>147.3</ele>
        <time>2014-09-28T09:40:50Z</time>
      </trkpt>
      <trkpt lat="43.6539" lon="3.32303">
        <ele>147.1</ele>
        <time>2014-09-28T09:40:51Z</time>
      </trkpt>
      <trkpt lat="43.6539" lon="3.3231">
        <ele>147</ele>
        <time>2014-09-28T09:40:52Z</time>
      </trkpt>
      <trkpt lat="43.65391" lon="3.32316">
        <ele>146.9</ele>
        <time>2014-09-28T09:40:53Z</time>
      </trkpt>
      <trkpt lat="43.65394" lon="3.32326">
        <ele>146.7</ele>
        <time>2014-09-28T09:40:55Z</time>
      </trkpt>
      <trkpt lat="43.65398" lon="3.32335">
        <ele>146.6</ele>
        <time>2014-09-28T09:40:57Z</time>
      </trkpt>
      <trkpt lat="43.654" lon="3.32343">
        <ele>146.5</ele>
        <time>2014-09-28T09:40:59Z</time>
      </trkpt>
      <trkpt lat="43.65397" lon="3.32351">
        <ele>146.3</ele>
        <time>2014-09-28T09:41:01Z</time>
      </trkpt>
      <trkpt lat="43.65392" lon="3.3236">
        <ele>145.9</ele>
        <time>2014-09-28T09:41:03Z</time>
      </trkpt>
      <trkpt lat="43.65385" lon="3.32366">
        <ele>145.6</ele>
        <time>2014-09-28T09:41:05Z</time>
      </trkpt>
      <trkpt lat="43.65381" lon="3.32368">
        <ele>145.4</ele>
        <time>2014-09-28T09:41:06Z</time>
      </trkpt>
      <trkpt lat="43.65377" lon="3.32372">
        <ele>145.1</ele>
        <time>2014-09-28T09:41:07Z</time>
      </trkpt>
      <trkpt lat="43.65373" lon="3.32376">
        <ele>144.9</ele>
        <time>2014-09-28T09:41:08Z</time>
      </trkpt>
      <trkpt lat="43.65369" lon="3.32379">
        <ele>144.8</ele>
        <time>2014-09-28T09:41:09Z</time>
      </trkpt>
      <trkpt lat="43.65365" lon="3.32382">
        <ele>144.7</ele>
        <time>2014-09-28T09:41:10Z</time>
      </trkpt>
      <trkpt lat="43.65361" lon="3.32385">
        <ele>144.6</ele>
        <time>2014-09-28T09:41:11Z</time>
      </trkpt>
      <trkpt lat="43.65355" lon="3.32391">
        <ele>144.4</ele>
        <time>2014-09-28T09:41:13Z</time>
      </trkpt>
      <trkpt lat="43.65352" lon="3.32398">
        <ele>144.4</ele>
        <time>2014-09-28T09:41:15Z</time>
      </trkpt>
      <trkpt lat="43.65348" lon="3.32407">
        <ele>144.3</ele>
        <time>2014-09-28T09:41:17Z</time>
      </trkpt>
      <trkpt lat="43.65345" lon="3.32415">
        <ele>144.2</ele>
        <time>2014-09-28T09:41:19Z</time>
      </trkpt>
      <trkpt lat="43.65342" lon="3.32423">
        <ele>144.1</ele>
        <time>2014-09-28T09:41:21Z</time>
      </trkpt>
      <trkpt lat="43.6534" lon="3.32428">
        <ele>144.1</ele>
        <time>2014-09-28T09:41:23Z</time>
      </trkpt>
      <trkpt lat="43.65337" lon="3.32434">
        <ele>144</ele>
        <time>2014-09-28T09:41:25Z</time>
      </trkpt>
      <trkpt lat="43.65336" lon="3.32443">
        <ele>144</ele>
        <time>2014-09-28T09:41:27Z</time>
      </trkpt>
      <trkpt lat="43.65335" lon="3.32453">
        <ele>144</ele>
        <time>2014-09-28T09:41:29Z</time>
      </trkpt>
      <trkpt lat="43.65333" lon="3.32462">
        <ele>144</ele>
        <time>2014-09-28T09:41:31Z</time>
      </trkpt>
      <trkpt lat="43.65331" lon="3.32471">
        <ele>143.8</ele>
        <time>2014-09-28T09:41:33Z</time>
      </trkpt>
      <trkpt lat="43.65329" lon="3.32479">
        <ele>143.6</ele>
        <time>2014-09-28T09:41:35Z</time>
      </trkpt>
      <trkpt lat="43.65327" lon="3.32487">
        <ele>143.3</ele>
        <time>2014-09-28T09:41:37Z</time>
      </trkpt>
      <trkpt lat="43.65325" lon="3.32496">
        <ele>143.1</ele>
        <time>2014-09-28T09:41:39Z</time>
      </trkpt>
      <trkpt lat="43.65323" lon="3.32504">
        <ele>142.9</ele>
        <time>2014-09-28T09:41:41Z</time>
      </trkpt>
      <trkpt lat="43.65321" lon="3.32514">
        <ele>142.7</ele>
        <time>2014-09-28T09:41:43Z</time>
      </trkpt>
      <trkpt lat="43.65318" lon="3.32522">
        <ele>142.5</ele>
        <time>2014-09-28T09:41:45Z</time>
      </trkpt>
      <trkpt lat="43.65316" lon="3.32532">
        <ele>142.3</ele>
        <time>2014-09-28T09:41:47Z</time>
      </trkpt>
      <trkpt lat="43.65314" lon="3.32542">
        <ele>142.1</ele>
        <time>2014-09-28T09:41:49Z</time>
      </trkpt>
      <trkpt lat="43.65312" lon="3.32553">
        <ele>141.7</ele>
        <time>2014-09-28T09:41:51Z</time>
      </trkpt>
      <trkpt lat="43.65311" lon="3.32564">
        <ele>141.4</ele>
        <time>2014-09-28T09:41:53Z</time>
      </trkpt>
      <trkpt lat="43.6531" lon="3.32576">
        <ele>141.1</ele>
        <time>2014-09-28T09:41:55Z</time>
      </trkpt>
      <trkpt lat="43.65311" lon="3.32586">
        <ele>140.8</ele>
        <time>2014-09-28T09:41:57Z</time>
      </trkpt>
      <trkpt lat="43.65312" lon="3.32595">
        <ele>140.7</ele>
        <time>2014-09-28T09:41:59Z</time>
      </trkpt>
      <trkpt lat="43.65313" lon="3.32605">
        <ele>140.5</ele>
        <time>2014-09-28T09:42:01Z</time>
      </trkpt>
      <trkpt lat="43.65314" lon="3.32614">
        <ele>140.3</ele>
        <time>2014-09-28T09:42:03Z</time>
      </trkpt>
      <trkpt lat="43.65316" lon="3.32624">
        <ele>140.2</ele>
        <time>2014-09-28T09:42:05Z</time>
      </trkpt>
      <trkpt lat="43.65317" lon="3.32634">
        <ele>139.8</ele>
        <time>2014-09-28T09:42:07Z</time>
      </trkpt>
      <trkpt lat="43.65319" lon="3.32644">
        <ele>139.3</ele>
        <time>2014-09-28T09:42:09Z</time>
      </trkpt>
      <trkpt lat="43.6532" lon="3.32653">
        <ele>138.9</ele>
        <time>2014-09-28T09:42:11Z</time>
      </trkpt>
      <trkpt lat="43.65322" lon="3.32663">
        <ele>138.5</ele>
        <time>2014-09-28T09:42:13Z</time>
      </trkpt>
      <trkpt lat="43.65323" lon="3.32672">
        <ele>138</ele>
        <time>2014-09-28T09:42:15Z</time>
      </trkpt>
      <trkpt lat="43.65325" lon="3.32683">
        <ele>137.5</ele>
        <time>2014-09-28T09:42:17Z</time>
      </trkpt>
      <trkpt lat="43.65326" lon="3.32693">
        <ele>137.1</ele>
        <time>2014-09-28T09:42:19Z</time>
      </trkpt>
      <trkpt lat="43.65328" lon="3.32703">
        <ele>136.6</ele>
        <time>2014-09-28T09:42:21Z</time>
      </trkpt>
      <trkpt lat="43.6533" lon="3.32715">
        <ele>136.4</ele>
        <time>2014-09-28T09:42:23Z</time>
      </trkpt>
      <trkpt lat="43.65332" lon="3.32726">
        <ele>136.7</ele>
        <time>2014-09-28T09:42:25Z</time>
      </trkpt>
      <trkpt lat="43.65333" lon="3.32732">
        <ele>136.8</ele>
        <time>2014-09-28T09:42:26Z</time>
      </trkpt>
      <trkpt lat="43.65334" lon="3.32738">
        <ele>136.9</ele>
        <time>2014-09-28T09:42:27Z</time>
      </trkpt>
      <trkpt lat="43.65335" lon="3.32744">
        <ele>137</ele>
        <time>2014-09-28T09:42:28Z</time>
      </trkpt>
      <trkpt lat="43.65336" lon="3.32751">
        <ele>137.1</ele>
        <time>2014-09-28T09:42:29Z</time>
      </trkpt>
      <trkpt lat="43.65337" lon="3.32757">
        <ele>137.2</ele>
        <time>2014-09-28T09:42:30Z</time>
      </trkpt>
      <trkpt lat="43.65339" lon="3.32763">
        <ele>137.3</ele>
        <time>2014-09-28T09:42:31Z</time>
      </trkpt>
      <trkpt lat="43.6534" lon="3.3277">
        <ele>137.4</ele>
        <time>2014-09-28T09:42:32Z</time>
      </trkpt>
      <trkpt lat="43.65341" lon="3.32776">
        <ele>137.4</ele>
        <time>2014-09-28T09:42:33Z</time>
      </trkpt>
      <trkpt lat="43.65343" lon="3.32783">
        <ele>137.5</ele>
        <time>2014-09-28T09:42:34Z</time>
      </trkpt>
      <trkpt lat="43.65344" lon="3.32789">
        <ele>137.6</ele>
        <time>2014-09-28T09:42:35Z</time>
      </trkpt>
      <trkpt lat="43.65345" lon="3.32796">
        <ele>137.6</ele>
        <time>2014-09-28T09:42:36Z</time>
      </trkpt>
      <trkpt lat="43.65346" lon="3.32802">
        <ele>137.5</ele>
        <time>2014-09-28T09:42:37Z</time>
      </trkpt>
      <trkpt lat="43.65347" lon="3.32809">
        <ele>137.5</ele>
        <time>2014-09-28T09:42:38Z</time>
      </trkpt>
      <trkpt lat="43.65348" lon="3.32815">
        <ele>137.4</ele>
        <time>2014-09-28T09:42:39Z</time>
      </trkpt>
      <trkpt lat="43.65349" lon="3.32821">
        <ele>137.3</ele>
        <time>2014-09-28T09:42:40Z</time>
      </trkpt>
      <trkpt lat="43.6535" lon="3.32828">
        <ele>137.3</ele>
        <time>2014-09-28T09:42:41Z</time>
      </trkpt>
      <trkpt lat="43.65352" lon="3.32834">
        <ele>137.2</ele>
        <time>2014-09-28T09:42:42Z</time>
      </trkpt>
      <trkpt lat="43.65353" lon="3.32841">
        <ele>137.1</ele>
        <time>2014-09-28T09:42:43Z</time>
      </trkpt>
      <trkpt lat="43.65354" lon="3.32847">
        <ele>137.1</ele>
        <time>2014-09-28T09:42:44Z</time>
      </trkpt>
      <trkpt lat="43.65356" lon="3.32853">
        <ele>137</ele>
        <time>2014-09-28T09:42:45Z</time>
      </trkpt>
      <trkpt lat="43.65357" lon="3.3286">
        <ele>137</ele>
        <time>2014-09-28T09:42:46Z</time>
      </trkpt>
      <trkpt lat="43.65359" lon="3.32866">
        <ele>136.9</ele>
        <time>2014-09-28T09:42:47Z</time>
      </trkpt>
      <trkpt lat="43.65361" lon="3.32872">
        <ele>136.9</ele>
        <time>2014-09-28T09:42:48Z</time>
      </trkpt>
      <trkpt lat="43.65364" lon="3.32877">
        <ele>136.8</ele>
        <time>2014-09-28T09:42:49Z</time>
      </trkpt>
      <trkpt lat="43.65367" lon="3.32883">
        <ele>136.8</ele>
        <time>2014-09-28T09:42:50Z</time>
      </trkpt>
      <trkpt lat="43.6537" lon="3.32888">
        <ele>136.8</ele>
        <time>2014-09-28T09:42:51Z</time>
      </trkpt>
      <trkpt lat="43.65374" lon="3.32892">
        <ele>136.8</ele>
        <time>2014-09-28T09:42:52Z</time>
      </trkpt>
      <trkpt lat="43.65378" lon="3.32895">
        <ele>137</ele>
        <time>2014-09-28T09:42:53Z</time>
      </trkpt>
      <trkpt lat="43.65386" lon="3.329">
        <ele>137.6</ele>
        <time>2014-09-28T09:42:55Z</time>
      </trkpt>
      <trkpt lat="43.65393" lon="3.32905">
        <ele>138.1</ele>
        <time>2014-09-28T09:42:57Z</time>
      </trkpt>
      <trkpt lat="43.65401" lon="3.3291">
        <ele>138.5</ele>
        <time>2014-09-28T09:42:59Z</time>
      </trkpt>
      <trkpt lat="43.65408" lon="3.32915">
        <ele>138.9</ele>
        <time>2014-09-28T09:43:01Z</time>
      </trkpt>
      <trkpt lat="43.65414" lon="3.3292">
        <ele>139.2</ele>
        <time>2014-09-28T09:43:03Z</time>
      </trkpt>
      <trkpt lat="43.6542" lon="3.32925">
        <ele>139.4</ele>
        <time>2014-09-28T09:43:05Z</time>
      </trkpt>
      <trkpt lat="43.65424" lon="3.32934">
        <ele>139.4</ele>
        <time>2014-09-28T09:43:07Z</time>
      </trkpt>
      <trkpt lat="43.6543" lon="3.32942">
        <ele>139.3</ele>
        <time>2014-09-28T09:43:09Z</time>
      </trkpt>
      <trkpt lat="43.65434" lon="3.32949">
        <ele>139.3</ele>
        <time>2014-09-28T09:43:11Z</time>
      </trkpt>
      <trkpt lat="43.65439" lon="3.32956">
        <ele>139.2</ele>
        <time>2014-09-28T09:43:13Z</time>
      </trkpt>
      <trkpt lat="43.65444" lon="3.32962">
        <ele>139.2</ele>
        <time>2014-09-28T09:43:15Z</time>
      </trkpt>
      <trkpt lat="43.6545" lon="3.32968">
        <ele>139.2</ele>
        <time>2014-09-28T09:43:17Z</time>
      </trkpt>
      <trkpt lat="43.65455" lon="3.32974">
        <ele>139.1</ele>
        <time>2014-09-28T09:43:19Z</time>
      </trkpt>
      <trkpt lat="43.65459" lon="3.32982">
        <ele>139</ele>
        <time>2014-09-28T09:43:21Z</time>
      </trkpt>
      <trkpt lat="43.65463" lon="3.32991">
        <ele>139.4</ele>
        <time>2014-09-28T09:43:23Z</time>
      </trkpt>
      <trkpt lat="43.65467" lon="3.32995">
        <ele>139.9</ele>
        <time>2014-09-28T09:43:25Z</time>
      </trkpt>
      <trkpt lat="43.65473" lon="3.32996">
        <ele>140.9</ele>
        <time>2014-09-28T09:43:29Z</time>
      </trkpt>
      <trkpt lat="43.65478" lon="3.32996">
        <ele>141.8</ele>
        <time>2014-09-28T09:43:33Z</time>
      </trkpt>
      <trkpt lat="43.65482" lon="3.32994">
        <ele>142.8</ele>
        <time>2014-09-28T09:43:40Z</time>
      </trkpt>
      <trkpt lat="43.65486" lon="3.33001">
        <ele>143.2</ele>
        <time>2014-09-28T09:44:00Z</time>
      </trkpt>
      <trkpt lat="43.65492" lon="3.33005">
        <ele>143.8</ele>
        <time>2014-09-28T09:44:03Z</time>
      </trkpt>
      <trkpt lat="43.65495" lon="3.33013">
        <ele>143.8</ele>
        <time>2014-09-28T09:44:06Z</time>
      </trkpt>
      <trkpt lat="43.655" lon="3.3302">
        <ele>144.1</ele>
        <time>2014-09-28T09:44:09Z</time>
      </trkpt>
      <trkpt lat="43.65503" lon="3.33026">
        <ele>144.3</ele>
        <time>2014-09-28T09:44:11Z</time>
      </trkpt>
      <trkpt lat="43.65507" lon="3.33031">
        <ele>144.5</ele>
        <time>2014-09-28T09:44:13Z</time>
      </trkpt>
      <trkpt lat="43.65511" lon="3.33035">
        <ele>144.8</ele>
        <time>2014-09-28T09:44:15Z</time>
      </trkpt>
      <trkpt lat="43.65516" lon="3.33043">
        <ele>144.9</ele>
        <time>2014-09-28T09:44:18Z</time>
      </trkpt>
      <trkpt lat="43.65518" lon="3.3305">
        <ele>144.9</ele>
        <time>2014-09-28T09:44:20Z</time>
      </trkpt>
      <trkpt lat="43.65522" lon="3.33057">
        <ele>145</ele>
        <time>2014-09-28T09:44:22Z</time>
      </trkpt>
      <trkpt lat="43.65525" lon="3.33064">
        <ele>145.1</ele>
        <time>2014-09-28T09:44:24Z</time>
      </trkpt>
      <trkpt lat="43.65526" lon="3.33072">
        <ele>144.8</ele>
        <time>2014-09-28T09:44:26Z</time>
      </trkpt>
      <trkpt lat="43.65528" lon="3.33078">
        <ele>144.7</ele>
        <time>2014-09-28T09:44:28Z</time>
      </trkpt>
      <trkpt lat="43.65532" lon="3.33083">
        <ele>144.8</ele>
        <time>2014-09-28T09:44:30Z</time>
      </trkpt>
      <trkpt lat="43.65536" lon="3.3309">
        <ele>144.9</ele>
        <time>2014-09-28T09:44:32Z</time>
      </trkpt>
      <trkpt lat="43.65542" lon="3.33096">
        <ele>145.1</ele>
        <time>2014-09-28T09:44:34Z</time>
      </trkpt>
      <trkpt lat="43.65546" lon="3.33097">
        <ele>146</ele>
        <time>2014-09-28T09:44:36Z</time>
      </trkpt>
      <trkpt lat="43.65551" lon="3.33099">
        <ele>146.8</ele>
        <time>2014-09-28T09:44:49Z</time>
      </trkpt>
      <trkpt lat="43.65554" lon="3.33107">
        <ele>146.9</ele>
        <time>2014-09-28T09:44:52Z</time>
      </trkpt>
      <trkpt lat="43.65557" lon="3.33113">
        <ele>146.9</ele>
        <time>2014-09-28T09:44:54Z</time>
      </trkpt>
      <trkpt lat="43.65561" lon="3.3312">
        <ele>146.9</ele>
        <time>2014-09-28T09:44:56Z</time>
      </trkpt>
      <trkpt lat="43.65565" lon="3.33124">
        <ele>147.2</ele>
        <time>2014-09-28T09:44:58Z</time>
      </trkpt>
      <trkpt lat="43.65569" lon="3.33128">
        <ele>147.6</ele>
        <time>2014-09-28T09:45:00Z</time>
      </trkpt>
      <trkpt lat="43.65574" lon="3.33132">
        <ele>148</ele>
        <time>2014-09-28T09:45:03Z</time>
      </trkpt>
      <trkpt lat="43.65579" lon="3.33133">
        <ele>148.8</ele>
        <time>2014-09-28T09:45:06Z</time>
      </trkpt>
      <trkpt lat="43.65584" lon="3.33138">
        <ele>148.9</ele>
        <time>2014-09-28T09:45:09Z</time>
      </trkpt>
      <trkpt lat="43.65586" lon="3.33146">
        <ele>148.4</ele>
        <time>2014-09-28T09:45:11Z</time>
      </trkpt>
      <trkpt lat="43.65587" lon="3.33154">
        <ele>147.6</ele>
        <time>2014-09-28T09:45:13Z</time>
      </trkpt>
      <trkpt lat="43.6559" lon="3.33161">
        <ele>147.2</ele>
        <time>2014-09-28T09:45:15Z</time>
      </trkpt>
      <trkpt lat="43.65593" lon="3.33168">
        <ele>146.7</ele>
        <time>2014-09-28T09:45:18Z</time>
      </trkpt>
      <trkpt lat="43.65597" lon="3.33169">
        <ele>147.1</ele>
        <time>2014-09-28T09:45:28Z</time>
      </trkpt>
      <trkpt lat="43.65602" lon="3.33172">
        <ele>147.5</ele>
        <time>2014-09-28T09:45:31Z</time>
      </trkpt>
      <trkpt lat="43.65607" lon="3.33172">
        <ele>148.1</ele>
        <time>2014-09-28T09:45:39Z</time>
      </trkpt>
      <trkpt lat="43.65612" lon="3.33172">
        <ele>148.8</ele>
        <time>2014-09-28T09:45:49Z</time>
      </trkpt>
      <trkpt lat="43.65617" lon="3.33178">
        <ele>148.5</ele>
        <time>2014-09-28T09:45:52Z</time>
      </trkpt>
      <trkpt lat="43.65619" lon="3.33188">
        <ele>147.5</ele>
        <time>2014-09-28T09:45:54Z</time>
      </trkpt>
      <trkpt lat="43.65621" lon="3.33197">
        <ele>146.2</ele>
        <time>2014-09-28T09:45:56Z</time>
      </trkpt>
      <trkpt lat="43.65624" lon="3.33207">
        <ele>145.1</ele>
        <time>2014-09-28T09:45:58Z</time>
      </trkpt>
      <trkpt lat="43.65629" lon="3.33217">
        <ele>144.8</ele>
        <time>2014-09-28T09:46:00Z</time>
      </trkpt>
      <trkpt lat="43.65633" lon="3.33223">
        <ele>144.9</ele>
        <time>2014-09-28T09:46:01Z</time>
      </trkpt>
      <trkpt lat="43.65637" lon="3.33227">
        <ele>145.1</ele>
        <time>2014-09-28T09:46:02Z</time>
      </trkpt>
      <trkpt lat="43.65641" lon="3.33232">
        <ele>145.4</ele>
        <time>2014-09-28T09:46:03Z</time>
      </trkpt>
      <trkpt lat="43.65641" lon="3.33232">
        <ele>145.4</ele>
        <time>2014-09-28T09:46:03Z</time>
      </trkpt>
      <trkpt lat="43.65644" lon="3.33236">
        <ele>145.5</ele>
        <time>2014-09-28T09:46:04Z</time>
      </trkpt>
      <trkpt lat="43.65649" lon="3.33243">
        <ele>145.4</ele>
        <time>2014-09-28T09:46:06Z</time>
      </trkpt>
      <trkpt lat="43.65651" lon="3.3325">
        <ele>144.9</ele>
        <time>2014-09-28T09:46:08Z</time>
      </trkpt>
      <trkpt lat="43.65652" lon="3.33258">
        <ele>143.9</ele>
        <time>2014-09-28T09:46:10Z</time>
      </trkpt>
      <trkpt lat="43.65649" lon="3.33267">
        <ele>142.3</ele>
        <time>2014-09-28T09:46:12Z</time>
      </trkpt>
      <trkpt lat="43.65649" lon="3.33276">
        <ele>141.2</ele>
        <time>2014-09-28T09:46:14Z</time>
      </trkpt>
      <trkpt lat="43.65652" lon="3.33282">
        <ele>140.8</ele>
        <time>2014-09-28T09:46:16Z</time>
      </trkpt>
      <trkpt lat="43.65654" lon="3.3329">
        <ele>140.1</ele>
        <time>2014-09-28T09:46:18Z</time>
      </trkpt>
      <trkpt lat="43.65657" lon="3.33298">
        <ele>140</ele>
        <time>2014-09-28T09:46:20Z</time>
      </trkpt>
      <trkpt lat="43.65661" lon="3.33303">
        <ele>140.1</ele>
        <time>2014-09-28T09:46:22Z</time>
      </trkpt>
      <trkpt lat="43.65663" lon="3.3331">
        <ele>139.9</ele>
        <time>2014-09-28T09:46:24Z</time>
      </trkpt>
      <trkpt lat="43.65666" lon="3.33319">
        <ele>139.7</ele>
        <time>2014-09-28T09:46:26Z</time>
      </trkpt>
      <trkpt lat="43.65672" lon="3.33326">
        <ele>139.6</ele>
        <time>2014-09-28T09:46:28Z</time>
      </trkpt>
      <trkpt lat="43.65676" lon="3.33334">
        <ele>139.3</ele>
        <time>2014-09-28T09:46:30Z</time>
      </trkpt>
      <trkpt lat="43.6568" lon="3.33339">
        <ele>139.2</ele>
        <time>2014-09-28T09:46:32Z</time>
      </trkpt>
      <trkpt lat="43.65686" lon="3.33341">
        <ele>139.3</ele>
        <time>2014-09-28T09:46:34Z</time>
      </trkpt>
      <trkpt lat="43.65691" lon="3.33344">
        <ele>139.2</ele>
        <time>2014-09-28T09:46:36Z</time>
      </trkpt>
      <trkpt lat="43.65698" lon="3.33346">
        <ele>139.3</ele>
        <time>2014-09-28T09:46:38Z</time>
      </trkpt>
      <trkpt lat="43.65704" lon="3.33348">
        <ele>139.4</ele>
        <time>2014-09-28T09:46:40Z</time>
      </trkpt>
      <trkpt lat="43.65709" lon="3.33351">
        <ele>139.4</ele>
        <time>2014-09-28T09:46:42Z</time>
      </trkpt>
      <trkpt lat="43.65713" lon="3.33357">
        <ele>139.5</ele>
        <time>2014-09-28T09:46:44Z</time>
      </trkpt>
      <trkpt lat="43.65717" lon="3.33365">
        <ele>139.3</ele>
        <time>2014-09-28T09:46:46Z</time>
      </trkpt>
      <trkpt lat="43.65723" lon="3.33372">
        <ele>139.7</ele>
        <time>2014-09-28T09:46:48Z</time>
      </trkpt>
      <trkpt lat="43.65728" lon="3.3338">
        <ele>140.4</ele>
        <time>2014-09-28T09:46:50Z</time>
      </trkpt>
      <trkpt lat="43.65732" lon="3.33387">
        <ele>140.9</ele>
        <time>2014-09-28T09:46:52Z</time>
      </trkpt>
      <trkpt lat="43.65736" lon="3.33391">
        <ele>141.6</ele>
        <time>2014-09-28T09:46:54Z</time>
      </trkpt>
      <trkpt lat="43.6574" lon="3.33394">
        <ele>142.2</ele>
        <time>2014-09-28T09:46:59Z</time>
      </trkpt>
      <trkpt lat="43.65745" lon="3.33397">
        <ele>142.9</ele>
        <time>2014-09-28T09:47:29Z</time>
      </trkpt>
      <trkpt lat="43.6575" lon="3.33399">
        <ele>143.7</ele>
        <time>2014-09-28T09:47:35Z</time>
      </trkpt>
      <trkpt lat="43.65755" lon="3.33401">
        <ele>144.5</ele>
        <time>2014-09-28T09:47:40Z</time>
      </trkpt>
      <trkpt lat="43.65757" lon="3.33406">
        <ele>144.5</ele>
        <time>2014-09-28T09:47:45Z</time>
      </trkpt>
      <trkpt lat="43.65762" lon="3.3341">
        <ele>145</ele>
        <time>2014-09-28T09:47:52Z</time>
      </trkpt>
      <trkpt lat="43.65764" lon="3.33416">
        <ele>144.7</ele>
        <time>2014-09-28T09:47:56Z</time>
      </trkpt>
      <trkpt lat="43.65767" lon="3.33422">
        <ele>144.6</ele>
        <time>2014-09-28T09:48:03Z</time>
      </trkpt>
      <trkpt lat="43.65773" lon="3.33427">
        <ele>144.9</ele>
        <time>2014-09-28T09:48:06Z</time>
      </trkpt>
      <trkpt lat="43.65777" lon="3.33429">
        <ele>145.3</ele>
        <time>2014-09-28T09:48:08Z</time>
      </trkpt>
      <trkpt lat="43.65783" lon="3.33431">
        <ele>145.7</ele>
        <time>2014-09-28T09:48:10Z</time>
      </trkpt>
      <trkpt lat="43.65789" lon="3.33434">
        <ele>146.1</ele>
        <time>2014-09-28T09:48:12Z</time>
      </trkpt>
      <trkpt lat="43.65796" lon="3.33435">
        <ele>146.6</ele>
        <time>2014-09-28T09:48:14Z</time>
      </trkpt>
      <trkpt lat="43.65803" lon="3.33436">
        <ele>147</ele>
        <time>2014-09-28T09:48:16Z</time>
      </trkpt>
      <trkpt lat="43.65811" lon="3.33439">
        <ele>147.3</ele>
        <time>2014-09-28T09:48:18Z</time>
      </trkpt>
      <trkpt lat="43.65816" lon="3.3344">
        <ele>147.3</ele>
        <time>2014-09-28T09:48:19Z</time>
      </trkpt>
      <trkpt lat="43.6582" lon="3.33442">
        <ele>147.4</ele>
        <time>2014-09-28T09:48:20Z</time>
      </trkpt>
      <trkpt lat="43.65827" lon="3.33446">
        <ele>147.2</ele>
        <time>2014-09-28T09:48:22Z</time>
      </trkpt>
      <trkpt lat="43.65831" lon="3.33448">
        <ele>147.1</ele>
        <time>2014-09-28T09:48:24Z</time>
      </trkpt>
      <trkpt lat="43.65837" lon="3.33445">
        <ele>148</ele>
        <time>2014-09-28T09:48:36Z</time>
      </trkpt>
      <trkpt lat="43.65842" lon="3.33448">
        <ele>147.8</ele>
        <time>2014-09-28T09:48:39Z</time>
      </trkpt>
      <trkpt lat="43.6585" lon="3.33456">
        <ele>147</ele>
        <time>2014-09-28T09:48:51Z</time>
      </trkpt>
      <trkpt lat="43.65853" lon="3.3346">
        <ele>146.5</ele>
        <time>2014-09-28T09:48:56Z</time>
      </trkpt>
      <trkpt lat="43.65859" lon="3.33461">
        <ele>146.7</ele>
        <time>2014-09-28T09:49:09Z</time>
      </trkpt>
      <trkpt lat="43.65865" lon="3.33462">
        <ele>147</ele>
        <time>2014-09-28T09:49:12Z</time>
      </trkpt>
      <trkpt lat="43.65871" lon="3.33463">
        <ele>147.2</ele>
        <time>2014-09-28T09:49:15Z</time>
      </trkpt>
      <trkpt lat="43.65878" lon="3.33464">
        <ele>147.5</ele>
        <time>2014-09-28T09:49:18Z</time>
      </trkpt>
      <trkpt lat="43.65884" lon="3.33464">
        <ele>147.8</ele>
        <time>2014-09-28T09:49:21Z</time>
      </trkpt>
      <trkpt lat="43.65893" lon="3.33464">
        <ele>148.4</ele>
        <time>2014-09-28T09:49:27Z</time>
      </trkpt>
      <trkpt lat="43.65898" lon="3.33469">
        <ele>148</ele>
        <time>2014-09-28T09:49:30Z</time>
      </trkpt>
      <trkpt lat="43.65903" lon="3.33472">
        <ele>148</ele>
        <time>2014-09-28T09:49:32Z</time>
      </trkpt>
      <trkpt lat="43.65907" lon="3.33476">
        <ele>147.7</ele>
        <time>2014-09-28T09:49:34Z</time>
      </trkpt>
      <trkpt lat="43.65911" lon="3.33481">
        <ele>147.4</ele>
        <time>2014-09-28T09:49:36Z</time>
      </trkpt>
      <trkpt lat="43.65915" lon="3.33487">
        <ele>147</ele>
        <time>2014-09-28T09:49:38Z</time>
      </trkpt>
      <trkpt lat="43.65919" lon="3.33494">
        <ele>146.4</ele>
        <time>2014-09-28T09:49:40Z</time>
      </trkpt>
      <trkpt lat="43.65923" lon="3.33501">
        <ele>145.8</ele>
        <time>2014-09-28T09:49:42Z</time>
      </trkpt>
      <trkpt lat="43.65926" lon="3.33508">
        <ele>145.2</ele>
        <time>2014-09-28T09:49:44Z</time>
      </trkpt>
      <trkpt lat="43.65929" lon="3.33515">
        <ele>144.7</ele>
        <time>2014-09-28T09:49:46Z</time>
      </trkpt>
      <trkpt lat="43.65933" lon="3.3352">
        <ele>144.4</ele>
        <time>2014-09-28T09:49:48Z</time>
      </trkpt>
      <trkpt lat="43.65937" lon="3.33522">
        <ele>144.5</ele>
        <time>2014-09-28T09:49:50Z</time>
      </trkpt>
      <trkpt lat="43.65943" lon="3.33526">
        <ele>144.5</ele>
        <time>2014-09-28T09:49:53Z</time>
      </trkpt>
      <trkpt lat="43.65947" lon="3.3353">
        <ele>144.3</ele>
        <time>2014-09-28T09:49:56Z</time>
      </trkpt>
      <trkpt lat="43.65952" lon="3.3353">
        <ele>144.8</ele>
        <time>2014-09-28T09:49:59Z</time>
      </trkpt>
      <trkpt lat="43.65957" lon="3.33527">
        <ele>145.5</ele>
        <time>2014-09-28T09:50:03Z</time>
      </trkpt>
      <trkpt lat="43.65962" lon="3.33523">
        <ele>146.6</ele>
        <time>2014-09-28T09:50:07Z</time>
      </trkpt>
      <trkpt lat="43.65967" lon="3.33521">
        <ele>147.6</ele>
        <time>2014-09-28T09:50:11Z</time>
      </trkpt>
      <trkpt lat="43.65973" lon="3.33521">
        <ele>148.3</ele>
        <time>2014-09-28T09:50:15Z</time>
      </trkpt>
      <trkpt lat="43.65977" lon="3.33524">
        <ele>148.6</ele>
        <time>2014-09-28T09:50:18Z</time>
      </trkpt>
      <trkpt lat="43.65983" lon="3.33526">
        <ele>149.2</ele>
        <time>2014-09-28T09:50:21Z</time>
      </trkpt>
      <trkpt lat="43.65988" lon="3.33527">
        <ele>149.9</ele>
        <time>2014-09-28T09:50:24Z</time>
      </trkpt>
      <trkpt lat="43.65994" lon="3.33529">
        <ele>150.5</ele>
        <time>2014-09-28T09:50:27Z</time>
      </trkpt>
      <trkpt lat="43.65999" lon="3.33531">
        <ele>150.9</ele>
        <time>2014-09-28T09:50:30Z</time>
      </trkpt>
      <trkpt lat="43.66005" lon="3.33533">
        <ele>151.4</ele>
        <time>2014-09-28T09:50:33Z</time>
      </trkpt>
      <trkpt lat="43.6601" lon="3.33535">
        <ele>151.8</ele>
        <time>2014-09-28T09:50:36Z</time>
      </trkpt>
      <trkpt lat="43.66015" lon="3.33536">
        <ele>152.2</ele>
        <time>2014-09-28T09:50:39Z</time>
      </trkpt>
      <trkpt lat="43.66019" lon="3.33539">
        <ele>152.5</ele>
        <time>2014-09-28T09:50:43Z</time>
      </trkpt>
      <trkpt lat="43.66024" lon="3.33536">
        <ele>153.5</ele>
        <time>2014-09-28T09:50:47Z</time>
      </trkpt>
      <trkpt lat="43.66029" lon="3.33534">
        <ele>154.5</ele>
        <time>2014-09-28T09:50:50Z</time>
      </trkpt>
      <trkpt lat="43.66034" lon="3.33534">
        <ele>155.2</ele>
        <time>2014-09-28T09:50:52Z</time>
      </trkpt>
      <trkpt lat="43.66038" lon="3.33535">
        <ele>155.6</ele>
        <time>2014-09-28T09:50:54Z</time>
      </trkpt>
      <trkpt lat="43.66042" lon="3.33538">
        <ele>155.7</ele>
        <time>2014-09-28T09:50:56Z</time>
      </trkpt>
      <trkpt lat="43.66048" lon="3.33543">
        <ele>155.8</ele>
        <time>2014-09-28T09:50:59Z</time>
      </trkpt>
      <trkpt lat="43.66052" lon="3.33546">
        <ele>156.1</ele>
        <time>2014-09-28T09:51:01Z</time>
      </trkpt>
      <trkpt lat="43.66057" lon="3.33548">
        <ele>156.5</ele>
        <time>2014-09-28T09:51:03Z</time>
      </trkpt>
      <trkpt lat="43.66062" lon="3.33551">
        <ele>156.9</ele>
        <time>2014-09-28T09:51:05Z</time>
      </trkpt>
      <trkpt lat="43.66066" lon="3.33553">
        <ele>157.3</ele>
        <time>2014-09-28T09:51:07Z</time>
      </trkpt>
      <trkpt lat="43.66073" lon="3.33555">
        <ele>158</ele>
        <time>2014-09-28T09:51:10Z</time>
      </trkpt>
      <trkpt lat="43.66082" lon="3.33556">
        <ele>159.1</ele>
        <time>2014-09-28T09:51:14Z</time>
      </trkpt>
      <trkpt lat="43.66091" lon="3.33557">
        <ele>160.3</ele>
        <time>2014-09-28T09:51:18Z</time>
      </trkpt>
      <trkpt lat="43.66097" lon="3.33558">
        <ele>161</ele>
        <time>2014-09-28T09:51:20Z</time>
      </trkpt>
      <trkpt lat="43.66102" lon="3.33559">
        <ele>161.6</ele>
        <time>2014-09-28T09:51:22Z</time>
      </trkpt>
      <trkpt lat="43.66109" lon="3.3356">
        <ele>162.3</ele>
        <time>2014-09-28T09:51:24Z</time>
      </trkpt>
      <trkpt lat="43.66116" lon="3.33562">
        <ele>163</ele>
        <time>2014-09-28T09:51:26Z</time>
      </trkpt>
      <trkpt lat="43.66123" lon="3.33568">
        <ele>162.9</ele>
        <time>2014-09-28T09:51:28Z</time>
      </trkpt>
      <trkpt lat="43.66126" lon="3.33577">
        <ele>161.8</ele>
        <time>2014-09-28T09:51:30Z</time>
      </trkpt>
      <trkpt lat="43.66128" lon="3.33585">
        <ele>160.5</ele>
        <time>2014-09-28T09:51:32Z</time>
      </trkpt>
      <trkpt lat="43.66131" lon="3.33592">
        <ele>159.6</ele>
        <time>2014-09-28T09:51:34Z</time>
      </trkpt>
      <trkpt lat="43.66134" lon="3.33597">
        <ele>159</ele>
        <time>2014-09-28T09:51:36Z</time>
      </trkpt>
      <trkpt lat="43.66137" lon="3.33601">
        <ele>158.5</ele>
        <time>2014-09-28T09:51:38Z</time>
      </trkpt>
      <trkpt lat="43.66143" lon="3.33606">
        <ele>158.3</ele>
        <time>2014-09-28T09:51:41Z</time>
      </trkpt>
      <trkpt lat="43.66147" lon="3.33608">
        <ele>158.3</ele>
        <time>2014-09-28T09:51:43Z</time>
      </trkpt>
      <trkpt lat="43.66152" lon="3.3361">
        <ele>158.6</ele>
        <time>2014-09-28T09:51:45Z</time>
      </trkpt>
      <trkpt lat="43.66157" lon="3.33609">
        <ele>159.2</ele>
        <time>2014-09-28T09:51:47Z</time>
      </trkpt>
      <trkpt lat="43.66162" lon="3.33609">
        <ele>159.7</ele>
        <time>2014-09-28T09:51:49Z</time>
      </trkpt>
      <trkpt lat="43.66167" lon="3.3361">
        <ele>160.1</ele>
        <time>2014-09-28T09:51:51Z</time>
      </trkpt>
      <trkpt lat="43.66172" lon="3.33611">
        <ele>160.5</ele>
        <time>2014-09-28T09:51:53Z</time>
      </trkpt>
      <trkpt lat="43.66178" lon="3.33611">
        <ele>161</ele>
        <time>2014-09-28T09:51:55Z</time>
      </trkpt>
      <trkpt lat="43.66184" lon="3.33611">
        <ele>161.6</ele>
        <time>2014-09-28T09:51:57Z</time>
      </trkpt>
      <trkpt lat="43.6619" lon="3.33611">
        <ele>162.4</ele>
        <time>2014-09-28T09:51:59Z</time>
      </trkpt>
      <trkpt lat="43.66197" lon="3.33611">
        <ele>163.1</ele>
        <time>2014-09-28T09:52:01Z</time>
      </trkpt>
      <trkpt lat="43.66207" lon="3.33613">
        <ele>163.8</ele>
        <time>2014-09-28T09:52:03Z</time>
      </trkpt>
      <trkpt lat="43.66212" lon="3.33615">
        <ele>163.8</ele>
        <time>2014-09-28T09:52:04Z</time>
      </trkpt>
      <trkpt lat="43.66218" lon="3.33617">
        <ele>163.7</ele>
        <time>2014-09-28T09:52:05Z</time>
      </trkpt>
      <trkpt lat="43.66223" lon="3.33619">
        <ele>163.6</ele>
        <time>2014-09-28T09:52:06Z</time>
      </trkpt>
      <trkpt lat="43.66228" lon="3.33621">
        <ele>163.6</ele>
        <time>2014-09-28T09:52:07Z</time>
      </trkpt>
      <trkpt lat="43.66228" lon="3.33621">
        <ele>163.6</ele>
        <time>2014-09-28T09:52:07Z</time>
      </trkpt>
      <trkpt lat="43.66233" lon="3.33622">
        <ele>163.7</ele>
        <time>2014-09-28T09:52:08Z</time>
      </trkpt>
      <trkpt lat="43.66241" lon="3.33622">
        <ele>164</ele>
        <time>2014-09-28T09:52:10Z</time>
      </trkpt>
      <trkpt lat="43.66248" lon="3.33622">
        <ele>164.5</ele>
        <time>2014-09-28T09:52:12Z</time>
      </trkpt>
      <trkpt lat="43.66255" lon="3.33621">
        <ele>164.8</ele>
        <time>2014-09-28T09:52:14Z</time>
      </trkpt>
      <trkpt lat="43.6626" lon="3.33621">
        <ele>165.2</ele>
        <time>2014-09-28T09:52:16Z</time>
      </trkpt>
      <trkpt lat="43.66266" lon="3.3362">
        <ele>165.6</ele>
        <time>2014-09-28T09:52:18Z</time>
      </trkpt>
      <trkpt lat="43.66271" lon="3.3362">
        <ele>165.9</ele>
        <time>2014-09-28T09:52:20Z</time>
      </trkpt>
      <trkpt lat="43.66276" lon="3.3362">
        <ele>166.1</ele>
        <time>2014-09-28T09:52:22Z</time>
      </trkpt>
      <trkpt lat="43.66282" lon="3.3362">
        <ele>166.3</ele>
        <time>2014-09-28T09:52:24Z</time>
      </trkpt>
      <trkpt lat="43.66287" lon="3.33621">
        <ele>166.5</ele>
        <time>2014-09-28T09:52:26Z</time>
      </trkpt>
      <trkpt lat="43.66293" lon="3.33621">
        <ele>166.8</ele>
        <time>2014-09-28T09:52:28Z</time>
      </trkpt>
      <trkpt lat="43.66299" lon="3.33622">
        <ele>166.9</ele>
        <time>2014-09-28T09:52:30Z</time>
      </trkpt>
      <trkpt lat="43.66306" lon="3.33622">
        <ele>167</ele>
        <time>2014-09-28T09:52:32Z</time>
      </trkpt>
      <trkpt lat="43.66312" lon="3.33622">
        <ele>167.3</ele>
        <time>2014-09-28T09:52:34Z</time>
      </trkpt>
      <trkpt lat="43.66318" lon="3.33622">
        <ele>167.6</ele>
        <time>2014-09-28T09:52:36Z</time>
      </trkpt>
      <trkpt lat="43.66324" lon="3.33621">
        <ele>167.8</ele>
        <time>2014-09-28T09:52:38Z</time>
      </trkpt>
      <trkpt lat="43.66329" lon="3.3362">
        <ele>168.2</ele>
        <time>2014-09-28T09:52:40Z</time>
      </trkpt>
      <trkpt lat="43.66335" lon="3.33619">
        <ele>168.7</ele>
        <time>2014-09-28T09:52:42Z</time>
      </trkpt>
      <trkpt lat="43.66341" lon="3.33617">
        <ele>169.4</ele>
        <time>2014-09-28T09:52:44Z</time>
      </trkpt>
      <trkpt lat="43.66348" lon="3.33615">
        <ele>169.9</ele>
        <time>2014-09-28T09:52:46Z</time>
      </trkpt>
      <trkpt lat="43.66354" lon="3.33614">
        <ele>170.3</ele>
        <time>2014-09-28T09:52:48Z</time>
      </trkpt>
      <trkpt lat="43.6636" lon="3.33613">
        <ele>170.8</ele>
        <time>2014-09-28T09:52:50Z</time>
      </trkpt>
      <trkpt lat="43.66365" lon="3.33612">
        <ele>171.2</ele>
        <time>2014-09-28T09:52:52Z</time>
      </trkpt>
      <trkpt lat="43.66369" lon="3.3361">
        <ele>171.8</ele>
        <time>2014-09-28T09:52:54Z</time>
      </trkpt>
      <trkpt lat="43.66375" lon="3.33607">
        <ele>172.8</ele>
        <time>2014-09-28T09:52:57Z</time>
      </trkpt>
      <trkpt lat="43.66381" lon="3.33603">
        <ele>173.4</ele>
        <time>2014-09-28T09:53:00Z</time>
      </trkpt>
      <trkpt lat="43.66385" lon="3.33601">
        <ele>173.9</ele>
        <time>2014-09-28T09:53:02Z</time>
      </trkpt>
      <trkpt lat="43.66391" lon="3.336">
        <ele>174.1</ele>
        <time>2014-09-28T09:53:04Z</time>
      </trkpt>
      <trkpt lat="43.66396" lon="3.33601">
        <ele>173.9</ele>
        <time>2014-09-28T09:53:06Z</time>
      </trkpt>
      <trkpt lat="43.66399" lon="3.33605">
        <ele>173.1</ele>
        <time>2014-09-28T09:53:08Z</time>
      </trkpt>
      <trkpt lat="43.66397" lon="3.33611">
        <ele>171.9</ele>
        <time>2014-09-28T09:53:39Z</time>
      </trkpt>
      <trkpt lat="43.66391" lon="3.33615">
        <ele>171</ele>
        <time>2014-09-28T09:53:41Z</time>
      </trkpt>
      <trkpt lat="43.66387" lon="3.33626">
        <ele>168.9</ele>
        <time>2014-09-28T09:53:43Z</time>
      </trkpt>
      <trkpt lat="43.66385" lon="3.33633">
        <ele>167.7</ele>
        <time>2014-09-28T09:53:44Z</time>
      </trkpt>
      <trkpt lat="43.66385" lon="3.33643">
        <ele>166.3</ele>
        <time>2014-09-28T09:53:45Z</time>
      </trkpt>
      <trkpt lat="43.66384" lon="3.33653">
        <ele>164.7</ele>
        <time>2014-09-28T09:53:46Z</time>
      </trkpt>
      <trkpt lat="43.66384" lon="3.33664">
        <ele>163</ele>
        <time>2014-09-28T09:53:47Z</time>
      </trkpt>
      <trkpt lat="43.66384" lon="3.33675">
        <ele>161.3</ele>
        <time>2014-09-28T09:53:48Z</time>
      </trkpt>
      <trkpt lat="43.66385" lon="3.33688">
        <ele>159.4</ele>
        <time>2014-09-28T09:53:49Z</time>
      </trkpt>
      <trkpt lat="43.66386" lon="3.337">
        <ele>157.5</ele>
        <time>2014-09-28T09:53:50Z</time>
      </trkpt>
      <trkpt lat="43.66386" lon="3.33713">
        <ele>155.8</ele>
        <time>2014-09-28T09:53:51Z</time>
      </trkpt>
      <trkpt lat="43.66384" lon="3.33726">
        <ele>154.5</ele>
        <time>2014-09-28T09:53:52Z</time>
      </trkpt>
      <trkpt lat="43.6638" lon="3.33739">
        <ele>153.2</ele>
        <time>2014-09-28T09:53:53Z</time>
      </trkpt>
      <trkpt lat="43.66376" lon="3.33751">
        <ele>151.9</ele>
        <time>2014-09-28T09:53:54Z</time>
      </trkpt>
      <trkpt lat="43.66371" lon="3.33763">
        <ele>150.8</ele>
        <time>2014-09-28T09:53:55Z</time>
      </trkpt>
      <trkpt lat="43.66368" lon="3.33775">
        <ele>149.6</ele>
        <time>2014-09-28T09:53:56Z</time>
      </trkpt>
      <trkpt lat="43.66366" lon="3.33788">
        <ele>148.4</ele>
        <time>2014-09-28T09:53:57Z</time>
      </trkpt>
      <trkpt lat="43.66364" lon="3.33802">
        <ele>147.6</ele>
        <time>2014-09-28T09:53:58Z</time>
      </trkpt>
      <trkpt lat="43.66361" lon="3.33815">
        <ele>147</ele>
        <time>2014-09-28T09:53:59Z</time>
      </trkpt>
      <trkpt lat="43.66357" lon="3.33826">
        <ele>146.4</ele>
        <time>2014-09-28T09:54:00Z</time>
      </trkpt>
      <trkpt lat="43.66357" lon="3.33826">
        <ele>146.4</ele>
        <time>2014-09-28T09:54:00Z</time>
      </trkpt>
      <trkpt lat="43.6635" lon="3.33832">
        <ele>145.9</ele>
        <time>2014-09-28T09:54:01Z</time>
      </trkpt>
      <trkpt lat="43.66342" lon="3.33836">
        <ele>145.6</ele>
        <time>2014-09-28T09:54:02Z</time>
      </trkpt>
      <trkpt lat="43.66336" lon="3.3384">
        <ele>145.2</ele>
        <time>2014-09-28T09:54:03Z</time>
      </trkpt>
      <trkpt lat="43.66331" lon="3.33845">
        <ele>144.7</ele>
        <time>2014-09-28T09:54:04Z</time>
      </trkpt>
      <trkpt lat="43.66326" lon="3.3385">
        <ele>144.2</ele>
        <time>2014-09-28T09:54:05Z</time>
      </trkpt>
      <trkpt lat="43.66322" lon="3.33857">
        <ele>143.7</ele>
        <time>2014-09-28T09:54:06Z</time>
      </trkpt>
      <trkpt lat="43.66317" lon="3.33862">
        <ele>143.1</ele>
        <time>2014-09-28T09:54:07Z</time>
      </trkpt>
      <trkpt lat="43.66312" lon="3.33866">
        <ele>142.6</ele>
        <time>2014-09-28T09:54:08Z</time>
      </trkpt>
      <trkpt lat="43.66307" lon="3.33869">
        <ele>142.2</ele>
        <time>2014-09-28T09:54:09Z</time>
      </trkpt>
      <trkpt lat="43.66303" lon="3.33872">
        <ele>141.8</ele>
        <time>2014-09-28T09:54:10Z</time>
      </trkpt>
      <trkpt lat="43.66298" lon="3.33874">
        <ele>141.4</ele>
        <time>2014-09-28T09:54:11Z</time>
      </trkpt>
      <trkpt lat="43.66294" lon="3.33877">
        <ele>141.1</ele>
        <time>2014-09-28T09:54:12Z</time>
      </trkpt>
      <trkpt lat="43.66291" lon="3.3388">
        <ele>141</ele>
        <time>2014-09-28T09:54:13Z</time>
      </trkpt>
      <trkpt lat="43.66286" lon="3.3389">
        <ele>140.9</ele>
        <time>2014-09-28T09:54:15Z</time>
      </trkpt>
      <trkpt lat="43.66283" lon="3.33902">
        <ele>140.7</ele>
        <time>2014-09-28T09:54:17Z</time>
      </trkpt>
      <trkpt lat="43.66281" lon="3.33909">
        <ele>140.6</ele>
        <time>2014-09-28T09:54:18Z</time>
      </trkpt>
      <trkpt lat="43.66279" lon="3.33916">
        <ele>140.5</ele>
        <time>2014-09-28T09:54:19Z</time>
      </trkpt>
      <trkpt lat="43.66277" lon="3.33923">
        <ele>140.4</ele>
        <time>2014-09-28T09:54:20Z</time>
      </trkpt>
      <trkpt lat="43.66275" lon="3.33929">
        <ele>140.3</ele>
        <time>2014-09-28T09:54:21Z</time>
      </trkpt>
      <trkpt lat="43.66273" lon="3.33936">
        <ele>140.1</ele>
        <time>2014-09-28T09:54:22Z</time>
      </trkpt>
      <trkpt lat="43.66271" lon="3.33944">
        <ele>139.9</ele>
        <time>2014-09-28T09:54:23Z</time>
      </trkpt>
      <trkpt lat="43.66268" lon="3.33951">
        <ele>139.7</ele>
        <time>2014-09-28T09:54:24Z</time>
      </trkpt>
      <trkpt lat="43.66264" lon="3.33956">
        <ele>139.4</ele>
        <time>2014-09-28T09:54:25Z</time>
      </trkpt>
      <trkpt lat="43.66259" lon="3.3396">
        <ele>139.2</ele>
        <time>2014-09-28T09:54:26Z</time>
      </trkpt>
      <trkpt lat="43.66254" lon="3.33961">
        <ele>139</ele>
        <time>2014-09-28T09:54:27Z</time>
      </trkpt>
      <trkpt lat="43.66249" lon="3.33961">
        <ele>138.6</ele>
        <time>2014-09-28T09:54:28Z</time>
      </trkpt>
      <trkpt lat="43.66244" lon="3.33959">
        <ele>138.1</ele>
        <time>2014-09-28T09:54:29Z</time>
      </trkpt>
      <trkpt lat="43.66239" lon="3.33957">
        <ele>137.9</ele>
        <time>2014-09-28T09:54:30Z</time>
      </trkpt>
      <trkpt lat="43.66234" lon="3.33954">
        <ele>137.6</ele>
        <time>2014-09-28T09:54:31Z</time>
      </trkpt>
      <trkpt lat="43.66229" lon="3.33952">
        <ele>137.5</ele>
        <time>2014-09-28T09:54:32Z</time>
      </trkpt>
      <trkpt lat="43.66224" lon="3.3395">
        <ele>137.3</ele>
        <time>2014-09-28T09:54:33Z</time>
      </trkpt>
      <trkpt lat="43.66216" lon="3.33947">
        <ele>137</ele>
        <time>2014-09-28T09:54:35Z</time>
      </trkpt>
      <trkpt lat="43.66211" lon="3.3395">
        <ele>136.6</ele>
        <time>2014-09-28T09:54:37Z</time>
      </trkpt>
      <trkpt lat="43.6621" lon="3.33957">
        <ele>136.2</ele>
        <time>2014-09-28T09:54:39Z</time>
      </trkpt>
      <trkpt lat="43.66213" lon="3.33964">
        <ele>136.8</ele>
        <time>2014-09-28T09:54:41Z</time>
      </trkpt>
      <trkpt lat="43.66216" lon="3.3397">
        <ele>137.4</ele>
        <time>2014-09-28T09:54:43Z</time>
      </trkpt>
      <trkpt lat="43.6622" lon="3.33975">
        <ele>138.1</ele>
        <time>2014-09-28T09:54:45Z</time>
      </trkpt>
      <trkpt lat="43.66224" lon="3.3398">
        <ele>138.7</ele>
        <time>2014-09-28T09:54:47Z</time>
      </trkpt>
      <trkpt lat="43.66228" lon="3.33984">
        <ele>139.2</ele>
        <time>2014-09-28T09:54:49Z</time>
      </trkpt>
      <trkpt lat="43.66231" lon="3.33987">
        <ele>139.7</ele>
        <time>2014-09-28T09:54:51Z</time>
      </trkpt>
      <trkpt lat="43.66237" lon="3.33992">
        <ele>140.4</ele>
        <time>2014-09-28T09:54:54Z</time>
      </trkpt>
      <trkpt lat="43.66243" lon="3.33994">
        <ele>140.9</ele>
        <time>2014-09-28T09:54:57Z</time>
      </trkpt>
      <trkpt lat="43.66249" lon="3.33995">
        <ele>141.3</ele>
        <time>2014-09-28T09:55:00Z</time>
      </trkpt>
      <trkpt lat="43.66255" lon="3.33993">
        <ele>141.5</ele>
        <time>2014-09-28T09:55:03Z</time>
      </trkpt>
      <trkpt lat="43.66259" lon="3.3399">
        <ele>141.5</ele>
        <time>2014-09-28T09:55:05Z</time>
      </trkpt>
      <trkpt lat="43.66264" lon="3.33988">
        <ele>141.6</ele>
        <time>2014-09-28T09:55:07Z</time>
      </trkpt>
      <trkpt lat="43.66269" lon="3.33986">
        <ele>141.7</ele>
        <time>2014-09-28T09:55:09Z</time>
      </trkpt>
      <trkpt lat="43.66274" lon="3.33985">
        <ele>141.9</ele>
        <time>2014-09-28T09:55:11Z</time>
      </trkpt>
      <trkpt lat="43.66279" lon="3.33984">
        <ele>142.1</ele>
        <time>2014-09-28T09:55:13Z</time>
      </trkpt>
      <trkpt lat="43.66284" lon="3.33982">
        <ele>142.2</ele>
        <time>2014-09-28T09:55:15Z</time>
      </trkpt>
      <trkpt lat="43.66291" lon="3.33981">
        <ele>142.6</ele>
        <time>2014-09-28T09:55:18Z</time>
      </trkpt>
      <trkpt lat="43.66296" lon="3.33981">
        <ele>142.9</ele>
        <time>2014-09-28T09:55:20Z</time>
      </trkpt>
      <trkpt lat="43.66301" lon="3.3398">
        <ele>143.2</ele>
        <time>2014-09-28T09:55:22Z</time>
      </trkpt>
      <trkpt lat="43.66306" lon="3.33979">
        <ele>143.5</ele>
        <time>2014-09-28T09:55:24Z</time>
      </trkpt>
      <trkpt lat="43.66311" lon="3.33977">
        <ele>143.7</ele>
        <time>2014-09-28T09:55:26Z</time>
      </trkpt>
      <trkpt lat="43.66315" lon="3.33975">
        <ele>143.8</ele>
        <time>2014-09-28T09:55:28Z</time>
      </trkpt>
      <trkpt lat="43.6632" lon="3.33972">
        <ele>143.9</ele>
        <time>2014-09-28T09:55:30Z</time>
      </trkpt>
      <trkpt lat="43.66325" lon="3.33969">
        <ele>144.1</ele>
        <time>2014-09-28T09:55:32Z</time>
      </trkpt>
      <trkpt lat="43.66329" lon="3.33967">
        <ele>144.3</ele>
        <time>2014-09-28T09:55:34Z</time>
      </trkpt>
      <trkpt lat="43.66334" lon="3.33963">
        <ele>144.3</ele>
        <time>2014-09-28T09:55:37Z</time>
      </trkpt>
      <trkpt lat="43.66338" lon="3.3396">
        <ele>144.4</ele>
        <time>2014-09-28T09:55:40Z</time>
      </trkpt>
      <trkpt lat="43.66343" lon="3.33956">
        <ele>144.7</ele>
        <time>2014-09-28T09:55:43Z</time>
      </trkpt>
      <trkpt lat="43.66349" lon="3.33953">
        <ele>145</ele>
        <time>2014-09-28T09:55:46Z</time>
      </trkpt>
      <trkpt lat="43.66355" lon="3.33951">
        <ele>145.4</ele>
        <time>2014-09-28T09:55:49Z</time>
      </trkpt>
      <trkpt lat="43.66361" lon="3.33947">
        <ele>145.7</ele>
        <time>2014-09-28T09:55:52Z</time>
      </trkpt>
      <trkpt lat="43.66365" lon="3.33946">
        <ele>146</ele>
        <time>2014-09-28T09:55:54Z</time>
      </trkpt>
      <trkpt lat="43.66372" lon="3.33945">
        <ele>146.4</ele>
        <time>2014-09-28T09:55:56Z</time>
      </trkpt>
      <trkpt lat="43.6638" lon="3.33946">
        <ele>147.1</ele>
        <time>2014-09-28T09:55:58Z</time>
      </trkpt>
      <trkpt lat="43.66385" lon="3.33947">
        <ele>147.5</ele>
        <time>2014-09-28T09:55:59Z</time>
      </trkpt>
      <trkpt lat="43.6639" lon="3.33946">
        <ele>147.9</ele>
        <time>2014-09-28T09:56:00Z</time>
      </trkpt>
      <trkpt lat="43.66394" lon="3.33943">
        <ele>148.1</ele>
        <time>2014-09-28T09:56:01Z</time>
      </trkpt>
      <trkpt lat="43.66397" lon="3.33938">
        <ele>148.2</ele>
        <time>2014-09-28T09:56:02Z</time>
      </trkpt>
      <trkpt lat="43.664" lon="3.33931">
        <ele>148.2</ele>
        <time>2014-09-28T09:56:04Z</time>
      </trkpt>
      <trkpt lat="43.66406" lon="3.33921">
        <ele>148.2</ele>
        <time>2014-09-28T09:56:08Z</time>
      </trkpt>
      <trkpt lat="43.6641" lon="3.33914">
        <ele>148.2</ele>
        <time>2014-09-28T09:56:11Z</time>
      </trkpt>
      <trkpt lat="43.66413" lon="3.33908">
        <ele>148.1</ele>
        <time>2014-09-28T09:56:14Z</time>
      </trkpt>
      <trkpt lat="43.66417" lon="3.33901">
        <ele>148.1</ele>
        <time>2014-09-28T09:56:17Z</time>
      </trkpt>
      <trkpt lat="43.6642" lon="3.33895">
        <ele>148</ele>
        <time>2014-09-28T09:56:20Z</time>
      </trkpt>
      <trkpt lat="43.66423" lon="3.3389">
        <ele>148</ele>
        <time>2014-09-28T09:56:23Z</time>
      </trkpt>
      <trkpt lat="43.66427" lon="3.33887">
        <ele>148</ele>
        <time>2014-09-28T09:56:26Z</time>
      </trkpt>
      <trkpt lat="43.66433" lon="3.33886">
        <ele>148.3</ele>
        <time>2014-09-28T09:56:29Z</time>
      </trkpt>
      <trkpt lat="43.66437" lon="3.33884">
        <ele>148.5</ele>
        <time>2014-09-28T09:56:31Z</time>
      </trkpt>
      <trkpt lat="43.66443" lon="3.33881">
        <ele>148.6</ele>
        <time>2014-09-28T09:56:34Z</time>
      </trkpt>
      <trkpt lat="43.66448" lon="3.3388">
        <ele>148.8</ele>
        <time>2014-09-28T09:56:36Z</time>
      </trkpt>
      <trkpt lat="43.66455" lon="3.33881">
        <ele>149.2</ele>
        <time>2014-09-28T09:56:38Z</time>
      </trkpt>
      <trkpt lat="43.66463" lon="3.33882">
        <ele>150.2</ele>
        <time>2014-09-28T09:56:40Z</time>
      </trkpt>
      <trkpt lat="43.6647" lon="3.33878">
        <ele>151.1</ele>
        <time>2014-09-28T09:56:42Z</time>
      </trkpt>
      <trkpt lat="43.66475" lon="3.33873">
        <ele>151.7</ele>
        <time>2014-09-28T09:56:44Z</time>
      </trkpt>
      <trkpt lat="43.66479" lon="3.33868">
        <ele>152.3</ele>
        <time>2014-09-28T09:56:47Z</time>
      </trkpt>
      <trkpt lat="43.66484" lon="3.33863">
        <ele>153</ele>
        <time>2014-09-28T09:56:50Z</time>
      </trkpt>
      <trkpt lat="43.66489" lon="3.33859">
        <ele>153.5</ele>
        <time>2014-09-28T09:56:53Z</time>
      </trkpt>
      <trkpt lat="43.66492" lon="3.33853">
        <ele>153.8</ele>
        <time>2014-09-28T09:56:56Z</time>
      </trkpt>
      <trkpt lat="43.66497" lon="3.3385">
        <ele>154.4</ele>
        <time>2014-09-28T09:56:59Z</time>
      </trkpt>
      <trkpt lat="43.66503" lon="3.33847">
        <ele>155.1</ele>
        <time>2014-09-28T09:57:02Z</time>
      </trkpt>
      <trkpt lat="43.66508" lon="3.33844">
        <ele>155.5</ele>
        <time>2014-09-28T09:57:05Z</time>
      </trkpt>
      <trkpt lat="43.66513" lon="3.33839">
        <ele>155.9</ele>
        <time>2014-09-28T09:57:08Z</time>
      </trkpt>
      <trkpt lat="43.66517" lon="3.33836">
        <ele>156.2</ele>
        <time>2014-09-28T09:57:11Z</time>
      </trkpt>
      <trkpt lat="43.66526" lon="3.33831">
        <ele>156.9</ele>
        <time>2014-09-28T09:57:18Z</time>
      </trkpt>
      <trkpt lat="43.66531" lon="3.33828">
        <ele>157.2</ele>
        <time>2014-09-28T09:57:22Z</time>
      </trkpt>
      <trkpt lat="43.66536" lon="3.33825">
        <ele>157.6</ele>
        <time>2014-09-28T09:57:26Z</time>
      </trkpt>
      <trkpt lat="43.66542" lon="3.33826">
        <ele>158.3</ele>
        <time>2014-09-28T09:57:30Z</time>
      </trkpt>
      <trkpt lat="43.66546" lon="3.33827">
        <ele>159</ele>
        <time>2014-09-28T09:57:34Z</time>
      </trkpt>
      <trkpt lat="43.66551" lon="3.33827">
        <ele>159.6</ele>
        <time>2014-09-28T09:57:37Z</time>
      </trkpt>
      <trkpt lat="43.66556" lon="3.33829">
        <ele>160.5</ele>
        <time>2014-09-28T09:57:41Z</time>
      </trkpt>
      <trkpt lat="43.66562" lon="3.33826">
        <ele>161</ele>
        <time>2014-09-28T09:57:45Z</time>
      </trkpt>
      <trkpt lat="43.66566" lon="3.33826">
        <ele>161.6</ele>
        <time>2014-09-28T09:57:53Z</time>
      </trkpt>
      <trkpt lat="43.66571" lon="3.33826">
        <ele>162.2</ele>
        <time>2014-09-28T09:57:59Z</time>
      </trkpt>
      <trkpt lat="43.66576" lon="3.33825">
        <ele>162.8</ele>
        <time>2014-09-28T09:58:05Z</time>
      </trkpt>
      <trkpt lat="43.66581" lon="3.33826">
        <ele>163.5</ele>
        <time>2014-09-28T09:58:10Z</time>
      </trkpt>
      <trkpt lat="43.66586" lon="3.33826">
        <ele>164.2</ele>
        <time>2014-09-28T09:58:16Z</time>
      </trkpt>
      <trkpt lat="43.66591" lon="3.33824">
        <ele>164.6</ele>
        <time>2014-09-28T09:58:22Z</time>
      </trkpt>
      <trkpt lat="43.66596" lon="3.33823">
        <ele>165.2</ele>
        <time>2014-09-28T09:58:27Z</time>
      </trkpt>
      <trkpt lat="43.666" lon="3.33821">
        <ele>165.6</ele>
        <time>2014-09-28T09:58:32Z</time>
      </trkpt>
      <trkpt lat="43.66605" lon="3.33821">
        <ele>166.2</ele>
        <time>2014-09-28T09:58:37Z</time>
      </trkpt>
      <trkpt lat="43.6661" lon="3.33819">
        <ele>166.6</ele>
        <time>2014-09-28T09:58:43Z</time>
      </trkpt>
      <trkpt lat="43.66615" lon="3.33817">
        <ele>167</ele>
        <time>2014-09-28T09:58:48Z</time>
      </trkpt>
      <trkpt lat="43.66624" lon="3.33819">
        <ele>168.4</ele>
        <time>2014-09-28T09:58:57Z</time>
      </trkpt>
      <trkpt lat="43.6663" lon="3.33817">
        <ele>169.2</ele>
        <time>2014-09-28T09:59:02Z</time>
      </trkpt>
      <trkpt lat="43.66635" lon="3.33816">
        <ele>170.1</ele>
        <time>2014-09-28T09:59:07Z</time>
      </trkpt>
      <trkpt lat="43.6664" lon="3.33817">
        <ele>171.3</ele>
        <time>2014-09-28T09:59:11Z</time>
      </trkpt>
      <trkpt lat="43.66645" lon="3.33818">
        <ele>172.2</ele>
        <time>2014-09-28T09:59:35Z</time>
      </trkpt>
      <trkpt lat="43.6665" lon="3.33815">
        <ele>172.8</ele>
        <time>2014-09-28T10:00:05Z</time>
      </trkpt>
      <trkpt lat="43.66653" lon="3.3381">
        <ele>172.8</ele>
        <time>2014-09-28T10:00:07Z</time>
      </trkpt>
      <trkpt lat="43.66655" lon="3.33805">
        <ele>172.7</ele>
        <time>2014-09-28T10:00:10Z</time>
      </trkpt>
      <trkpt lat="43.66658" lon="3.33798">
        <ele>172.5</ele>
        <time>2014-09-28T10:00:13Z</time>
      </trkpt>
      <trkpt lat="43.6666" lon="3.33791">
        <ele>172.1</ele>
        <time>2014-09-28T10:00:16Z</time>
      </trkpt>
      <trkpt lat="43.66663" lon="3.33785">
        <ele>172.4</ele>
        <time>2014-09-28T10:00:19Z</time>
      </trkpt>
      <trkpt lat="43.66669" lon="3.33781">
        <ele>173.2</ele>
        <time>2014-09-28T10:00:22Z</time>
      </trkpt>
      <trkpt lat="43.66674" lon="3.33777">
        <ele>173.9</ele>
        <time>2014-09-28T10:00:25Z</time>
      </trkpt>
      <trkpt lat="43.66674" lon="3.33777">
        <ele>173.9</ele>
        <time>2014-09-28T10:00:25Z</time>
      </trkpt>
      <trkpt lat="43.66679" lon="3.33772">
        <ele>174.6</ele>
        <time>2014-09-28T10:00:28Z</time>
      </trkpt>
      <trkpt lat="43.66683" lon="3.33768">
        <ele>175</ele>
        <time>2014-09-28T10:00:31Z</time>
      </trkpt>
      <trkpt lat="43.66687" lon="3.33763">
        <ele>175.5</ele>
        <time>2014-09-28T10:00:34Z</time>
      </trkpt>
      <trkpt lat="43.66691" lon="3.33757">
        <ele>175.6</ele>
        <time>2014-09-28T10:00:37Z</time>
      </trkpt>
      <trkpt lat="43.66692" lon="3.33749">
        <ele>175.2</ele>
        <time>2014-09-28T10:00:40Z</time>
      </trkpt>
      <trkpt lat="43.66694" lon="3.33742">
        <ele>174.9</ele>
        <time>2014-09-28T10:00:42Z</time>
      </trkpt>
      <trkpt lat="43.66696" lon="3.33736">
        <ele>174.8</ele>
        <time>2014-09-28T10:00:44Z</time>
      </trkpt>
      <trkpt lat="43.66701" lon="3.33731">
        <ele>174.9</ele>
        <time>2014-09-28T10:00:46Z</time>
      </trkpt>
      <trkpt lat="43.66705" lon="3.33725">
        <ele>175.1</ele>
        <time>2014-09-28T10:00:48Z</time>
      </trkpt>
      <trkpt lat="43.6671" lon="3.33721">
        <ele>175.4</ele>
        <time>2014-09-28T10:00:50Z</time>
      </trkpt>
      <trkpt lat="43.66714" lon="3.33717">
        <ele>175.4</ele>
        <time>2014-09-28T10:00:52Z</time>
      </trkpt>
      <trkpt lat="43.66718" lon="3.33712">
        <ele>175.4</ele>
        <time>2014-09-28T10:00:54Z</time>
      </trkpt>
      <trkpt lat="43.66723" lon="3.33707">
        <ele>175.6</ele>
        <time>2014-09-28T10:00:56Z</time>
      </trkpt>
      <trkpt lat="43.66727" lon="3.33702">
        <ele>176.2</ele>
        <time>2014-09-28T10:00:58Z</time>
      </trkpt>
      <trkpt lat="43.66732" lon="3.33696">
        <ele>176.8</ele>
        <time>2014-09-28T10:01:00Z</time>
      </trkpt>
      <trkpt lat="43.6674" lon="3.3369">
        <ele>177.7</ele>
        <time>2014-09-28T10:01:02Z</time>
      </trkpt>
      <trkpt lat="43.66744" lon="3.33686">
        <ele>178.1</ele>
        <time>2014-09-28T10:01:03Z</time>
      </trkpt>
      <trkpt lat="43.66748" lon="3.33682">
        <ele>178.5</ele>
        <time>2014-09-28T10:01:04Z</time>
      </trkpt>
      <trkpt lat="43.66752" lon="3.33679">
        <ele>178.8</ele>
        <time>2014-09-28T10:01:05Z</time>
      </trkpt>
      <trkpt lat="43.66757" lon="3.33675">
        <ele>179.2</ele>
        <time>2014-09-28T10:01:06Z</time>
      </trkpt>
      <trkpt lat="43.6676" lon="3.33671">
        <ele>179.4</ele>
        <time>2014-09-28T10:01:07Z</time>
      </trkpt>
      <trkpt lat="43.66763" lon="3.33666">
        <ele>179.6</ele>
        <time>2014-09-28T10:01:08Z</time>
      </trkpt>
      <trkpt lat="43.66768" lon="3.33657">
        <ele>179.8</ele>
        <time>2014-09-28T10:01:10Z</time>
      </trkpt>
      <trkpt lat="43.66774" lon="3.33653">
        <ele>180.1</ele>
        <time>2014-09-28T10:01:12Z</time>
      </trkpt>
      <trkpt lat="43.66775" lon="3.33647">
        <ele>180</ele>
        <time>2014-09-28T10:01:15Z</time>
      </trkpt>
      <trkpt lat="43.66773" lon="3.33639">
        <ele>179.8</ele>
        <time>2014-09-28T10:01:17Z</time>
      </trkpt>
      <trkpt lat="43.66773" lon="3.33629">
        <ele>179.6</ele>
        <time>2014-09-28T10:01:19Z</time>
      </trkpt>
      <trkpt lat="43.66774" lon="3.3362">
        <ele>180</ele>
        <time>2014-09-28T10:01:21Z</time>
      </trkpt>
      <trkpt lat="43.66775" lon="3.33611">
        <ele>180.6</ele>
        <time>2014-09-28T10:01:23Z</time>
      </trkpt>
      <trkpt lat="43.66776" lon="3.33602">
        <ele>181.3</ele>
        <time>2014-09-28T10:01:25Z</time>
      </trkpt>
      <trkpt lat="43.66778" lon="3.33594">
        <ele>181.8</ele>
        <time>2014-09-28T10:01:27Z</time>
      </trkpt>
      <trkpt lat="43.66781" lon="3.33587">
        <ele>182.3</ele>
        <time>2014-09-28T10:01:29Z</time>
      </trkpt>
      <trkpt lat="43.66784" lon="3.3358">
        <ele>182.7</ele>
        <time>2014-09-28T10:01:31Z</time>
      </trkpt>
      <trkpt lat="43.66788" lon="3.33574">
        <ele>183.1</ele>
        <time>2014-09-28T10:01:33Z</time>
      </trkpt>
      <trkpt lat="43.66792" lon="3.3357">
        <ele>183.3</ele>
        <time>2014-09-28T10:01:35Z</time>
      </trkpt>
      <trkpt lat="43.66798" lon="3.33567">
        <ele>183.6</ele>
        <time>2014-09-28T10:01:37Z</time>
      </trkpt>
      <trkpt lat="43.66804" lon="3.33567">
        <ele>183.9</ele>
        <time>2014-09-28T10:01:39Z</time>
      </trkpt>
      <trkpt lat="43.6681" lon="3.33568">
        <ele>184</ele>
        <time>2014-09-28T10:01:41Z</time>
      </trkpt>
      <trkpt lat="43.66815" lon="3.33569">
        <ele>184.1</ele>
        <time>2014-09-28T10:01:43Z</time>
      </trkpt>
      <trkpt lat="43.6682" lon="3.3357">
        <ele>184.2</ele>
        <time>2014-09-28T10:01:45Z</time>
      </trkpt>
      <trkpt lat="43.66825" lon="3.33568">
        <ele>184.5</ele>
        <time>2014-09-28T10:01:47Z</time>
      </trkpt>
      <trkpt lat="43.66829" lon="3.33564">
        <ele>184.7</ele>
        <time>2014-09-28T10:01:49Z</time>
      </trkpt>
      <trkpt lat="43.66835" lon="3.33562">
        <ele>184.9</ele>
        <time>2014-09-28T10:01:51Z</time>
      </trkpt>
      <trkpt lat="43.6684" lon="3.33561">
        <ele>185.1</ele>
        <time>2014-09-28T10:01:53Z</time>
      </trkpt>
      <trkpt lat="43.66846" lon="3.33561">
        <ele>185.2</ele>
        <time>2014-09-28T10:01:55Z</time>
      </trkpt>
      <trkpt lat="43.66853" lon="3.33561">
        <ele>185.4</ele>
        <time>2014-09-28T10:01:57Z</time>
      </trkpt>
      <trkpt lat="43.66861" lon="3.33561">
        <ele>185.6</ele>
        <time>2014-09-28T10:01:59Z</time>
      </trkpt>
      <trkpt lat="43.66866" lon="3.33561">
        <ele>185.8</ele>
        <time>2014-09-28T10:02:00Z</time>
      </trkpt>
      <trkpt lat="43.6687" lon="3.33561">
        <ele>185.9</ele>
        <time>2014-09-28T10:02:01Z</time>
      </trkpt>
      <trkpt lat="43.66875" lon="3.33561">
        <ele>186</ele>
        <time>2014-09-28T10:02:02Z</time>
      </trkpt>
      <trkpt lat="43.66883" lon="3.33558">
        <ele>185.5</ele>
        <time>2014-09-28T10:02:04Z</time>
      </trkpt>
      <trkpt lat="43.66891" lon="3.33555">
        <ele>184.9</ele>
        <time>2014-09-28T10:02:06Z</time>
      </trkpt>
      <trkpt lat="43.669" lon="3.33552">
        <ele>184.3</ele>
        <time>2014-09-28T10:02:08Z</time>
      </trkpt>
      <trkpt lat="43.66904" lon="3.33551">
        <ele>183.9</ele>
        <time>2014-09-28T10:02:09Z</time>
      </trkpt>
      <trkpt lat="43.66913" lon="3.3355">
        <ele>183.2</ele>
        <time>2014-09-28T10:02:11Z</time>
      </trkpt>
      <trkpt lat="43.66918" lon="3.33551">
        <ele>182.9</ele>
        <time>2014-09-28T10:02:12Z</time>
      </trkpt>
      <trkpt lat="43.66923" lon="3.33551">
        <ele>182.6</ele>
        <time>2014-09-28T10:02:13Z</time>
      </trkpt>
      <trkpt lat="43.66927" lon="3.33551">
        <ele>182.2</ele>
        <time>2014-09-28T10:02:14Z</time>
      </trkpt>
      <trkpt lat="43.66936" lon="3.33551">
        <ele>181.6</ele>
        <time>2014-09-28T10:02:16Z</time>
      </trkpt>
      <trkpt lat="43.66944" lon="3.33551">
        <ele>181.1</ele>
        <time>2014-09-28T10:02:18Z</time>
      </trkpt>
      <trkpt lat="43.66951" lon="3.33553">
        <ele>180.7</ele>
        <time>2014-09-28T10:02:20Z</time>
      </trkpt>
      <trkpt lat="43.66959" lon="3.33555">
        <ele>180.4</ele>
        <time>2014-09-28T10:02:22Z</time>
      </trkpt>
      <trkpt lat="43.66967" lon="3.33555">
        <ele>180</ele>
        <time>2014-09-28T10:02:24Z</time>
      </trkpt>
      <trkpt lat="43.66975" lon="3.33556">
        <ele>179.7</ele>
        <time>2014-09-28T10:02:26Z</time>
      </trkpt>
      <trkpt lat="43.66983" lon="3.33556">
        <ele>179.3</ele>
        <time>2014-09-28T10:02:28Z</time>
      </trkpt>
      <trkpt lat="43.66991" lon="3.33556">
        <ele>179</ele>
        <time>2014-09-28T10:02:30Z</time>
      </trkpt>
      <trkpt lat="43.66999" lon="3.33559">
        <ele>178.8</ele>
        <time>2014-09-28T10:02:32Z</time>
      </trkpt>
      <trkpt lat="43.67007" lon="3.33561">
        <ele>178.6</ele>
        <time>2014-09-28T10:02:34Z</time>
      </trkpt>
      <trkpt lat="43.67014" lon="3.33562">
        <ele>178.3</ele>
        <time>2014-09-28T10:02:36Z</time>
      </trkpt>
      <trkpt lat="43.6702" lon="3.33559">
        <ele>177.7</ele>
        <time>2014-09-28T10:02:39Z</time>
      </trkpt>
      <trkpt lat="43.67023" lon="3.33553">
        <ele>177</ele>
        <time>2014-09-28T10:02:41Z</time>
      </trkpt>
      <trkpt lat="43.67026" lon="3.33547">
        <ele>176.3</ele>
        <time>2014-09-28T10:02:43Z</time>
      </trkpt>
      <trkpt lat="43.67029" lon="3.33538">
        <ele>175.5</ele>
        <time>2014-09-28T10:02:45Z</time>
      </trkpt>
      <trkpt lat="43.67031" lon="3.33532">
        <ele>175.2</ele>
        <time>2014-09-28T10:02:46Z</time>
      </trkpt>
      <trkpt lat="43.67034" lon="3.33527">
        <ele>174.9</ele>
        <time>2014-09-28T10:02:47Z</time>
      </trkpt>
      <trkpt lat="43.6704" lon="3.33521">
        <ele>174.4</ele>
        <time>2014-09-28T10:02:49Z</time>
      </trkpt>
      <trkpt lat="43.67047" lon="3.3352">
        <ele>174</ele>
        <time>2014-09-28T10:02:51Z</time>
      </trkpt>
      <trkpt lat="43.67053" lon="3.33518">
        <ele>173.7</ele>
        <time>2014-09-28T10:02:53Z</time>
      </trkpt>
      <trkpt lat="43.67061" lon="3.33517">
        <ele>173.4</ele>
        <time>2014-09-28T10:02:55Z</time>
      </trkpt>
      <trkpt lat="43.67065" lon="3.33517">
        <ele>173.2</ele>
        <time>2014-09-28T10:02:56Z</time>
      </trkpt>
      <trkpt lat="43.6707" lon="3.33516">
        <ele>173.1</ele>
        <time>2014-09-28T10:02:57Z</time>
      </trkpt>
      <trkpt lat="43.67077" lon="3.33517">
        <ele>172.8</ele>
        <time>2014-09-28T10:02:59Z</time>
      </trkpt>
      <trkpt lat="43.67085" lon="3.33519">
        <ele>172.6</ele>
        <time>2014-09-28T10:03:01Z</time>
      </trkpt>
      <trkpt lat="43.67093" lon="3.33518">
        <ele>172.3</ele>
        <time>2014-09-28T10:03:03Z</time>
      </trkpt>
      <trkpt lat="43.67101" lon="3.33515">
        <ele>171.9</ele>
        <time>2014-09-28T10:03:05Z</time>
      </trkpt>
      <trkpt lat="43.67106" lon="3.33513">
        <ele>171.7</ele>
        <time>2014-09-28T10:03:06Z</time>
      </trkpt>
      <trkpt lat="43.67111" lon="3.33511">
        <ele>171.4</ele>
        <time>2014-09-28T10:03:07Z</time>
      </trkpt>
      <trkpt lat="43.67117" lon="3.33508">
        <ele>171.1</ele>
        <time>2014-09-28T10:03:08Z</time>
      </trkpt>
      <trkpt lat="43.67123" lon="3.33505">
        <ele>170.8</ele>
        <time>2014-09-28T10:03:09Z</time>
      </trkpt>
      <trkpt lat="43.6713" lon="3.33504">
        <ele>170.3</ele>
        <time>2014-09-28T10:03:10Z</time>
      </trkpt>
      <trkpt lat="43.67137" lon="3.33503">
        <ele>169.6</ele>
        <time>2014-09-28T10:03:11Z</time>
      </trkpt>
      <trkpt lat="43.67145" lon="3.33502">
        <ele>169</ele>
        <time>2014-09-28T10:03:12Z</time>
      </trkpt>
      <trkpt lat="43.67152" lon="3.33499">
        <ele>168.3</ele>
        <time>2014-09-28T10:03:13Z</time>
      </trkpt>
      <trkpt lat="43.67159" lon="3.33495">
        <ele>167.7</ele>
        <time>2014-09-28T10:03:14Z</time>
      </trkpt>
      <trkpt lat="43.67165" lon="3.33492">
        <ele>167.2</ele>
        <time>2014-09-28T10:03:15Z</time>
      </trkpt>
      <trkpt lat="43.67171" lon="3.3349">
        <ele>166.8</ele>
        <time>2014-09-28T10:03:16Z</time>
      </trkpt>
      <trkpt lat="43.67175" lon="3.33487">
        <ele>166.4</ele>
        <time>2014-09-28T10:03:17Z</time>
      </trkpt>
      <trkpt lat="43.67184" lon="3.33487">
        <ele>165.8</ele>
        <time>2014-09-28T10:03:19Z</time>
      </trkpt>
      <trkpt lat="43.67191" lon="3.33493">
        <ele>165.3</ele>
        <time>2014-09-28T10:03:21Z</time>
      </trkpt>
      <trkpt lat="43.67198" lon="3.33498">
        <ele>164.8</ele>
        <time>2014-09-28T10:03:23Z</time>
      </trkpt>
      <trkpt lat="43.67203" lon="3.33502">
        <ele>164.4</ele>
        <time>2014-09-28T10:03:25Z</time>
      </trkpt>
      <trkpt lat="43.6721" lon="3.33509">
        <ele>163.9</ele>
        <time>2014-09-28T10:03:27Z</time>
      </trkpt>
      <trkpt lat="43.67217" lon="3.33511">
        <ele>163.4</ele>
        <time>2014-09-28T10:03:29Z</time>
      </trkpt>
      <trkpt lat="43.67224" lon="3.33514">
        <ele>163</ele>
        <time>2014-09-28T10:03:31Z</time>
      </trkpt>
      <trkpt lat="43.6723" lon="3.33517">
        <ele>162.6</ele>
        <time>2014-09-28T10:03:33Z</time>
      </trkpt>
      <trkpt lat="43.67236" lon="3.33511">
        <ele>162.3</ele>
        <time>2014-09-28T10:03:35Z</time>
      </trkpt>
      <trkpt lat="43.67239" lon="3.33506">
        <ele>162.1</ele>
        <time>2014-09-28T10:03:36Z</time>
      </trkpt>
      <trkpt lat="43.67244" lon="3.33502">
        <ele>161.9</ele>
        <time>2014-09-28T10:03:37Z</time>
      </trkpt>
      <trkpt lat="43.67249" lon="3.335">
        <ele>161.5</ele>
        <time>2014-09-28T10:03:38Z</time>
      </trkpt>
      <trkpt lat="43.67255" lon="3.33499">
        <ele>161.2</ele>
        <time>2014-09-28T10:03:39Z</time>
      </trkpt>
      <trkpt lat="43.67255" lon="3.33499">
        <ele>161.2</ele>
        <time>2014-09-28T10:03:39Z</time>
      </trkpt>
      <trkpt lat="43.67262" lon="3.335">
        <ele>160.8</ele>
        <time>2014-09-28T10:03:40Z</time>
      </trkpt>
      <trkpt lat="43.67268" lon="3.33503">
        <ele>160.4</ele>
        <time>2014-09-28T10:03:41Z</time>
      </trkpt>
      <trkpt lat="43.67273" lon="3.33509">
        <ele>160</ele>
        <time>2014-09-28T10:03:42Z</time>
      </trkpt>
      <trkpt lat="43.67277" lon="3.33515">
        <ele>159.6</ele>
        <time>2014-09-28T10:03:43Z</time>
      </trkpt>
      <trkpt lat="43.67281" lon="3.3352">
        <ele>159.2</ele>
        <time>2014-09-28T10:03:44Z</time>
      </trkpt>
      <trkpt lat="43.67287" lon="3.33525">
        <ele>158.7</ele>
        <time>2014-09-28T10:03:46Z</time>
      </trkpt>
      <trkpt lat="43.67293" lon="3.33529">
        <ele>158.2</ele>
        <time>2014-09-28T10:03:48Z</time>
      </trkpt>
      <trkpt lat="43.673" lon="3.33532">
        <ele>157.5</ele>
        <time>2014-09-28T10:03:50Z</time>
      </trkpt>
      <trkpt lat="43.67306" lon="3.33539">
        <ele>156.7</ele>
        <time>2014-09-28T10:03:52Z</time>
      </trkpt>
      <trkpt lat="43.67309" lon="3.33545">
        <ele>156.4</ele>
        <time>2014-09-28T10:03:53Z</time>
      </trkpt>
      <trkpt lat="43.67311" lon="3.3355">
        <ele>156.3</ele>
        <time>2014-09-28T10:03:54Z</time>
      </trkpt>
      <trkpt lat="43.67318" lon="3.33554">
        <ele>155.9</ele>
        <time>2014-09-28T10:03:56Z</time>
      </trkpt>
      <trkpt lat="43.67324" lon="3.33556">
        <ele>155.3</ele>
        <time>2014-09-28T10:03:58Z</time>
      </trkpt>
      <trkpt lat="43.6733" lon="3.33559">
        <ele>154.9</ele>
        <time>2014-09-28T10:04:00Z</time>
      </trkpt>
      <trkpt lat="43.67334" lon="3.33564">
        <ele>154.7</ele>
        <time>2014-09-28T10:04:02Z</time>
      </trkpt>
      <trkpt lat="43.67338" lon="3.33572">
        <ele>154.8</ele>
        <time>2014-09-28T10:04:04Z</time>
      </trkpt>
      <trkpt lat="43.67342" lon="3.3358">
        <ele>154.8</ele>
        <time>2014-09-28T10:04:06Z</time>
      </trkpt>
      <trkpt lat="43.67348" lon="3.33588">
        <ele>154.7</ele>
        <time>2014-09-28T10:04:08Z</time>
      </trkpt>
      <trkpt lat="43.67353" lon="3.33598">
        <ele>154.8</ele>
        <time>2014-09-28T10:04:10Z</time>
      </trkpt>
      <trkpt lat="43.67358" lon="3.33606">
        <ele>154.9</ele>
        <time>2014-09-28T10:04:12Z</time>
      </trkpt>
      <trkpt lat="43.67365" lon="3.33611">
        <ele>154.7</ele>
        <time>2014-09-28T10:04:14Z</time>
      </trkpt>
      <trkpt lat="43.6737" lon="3.33617">
        <ele>154.8</ele>
        <time>2014-09-28T10:04:16Z</time>
      </trkpt>
      <trkpt lat="43.67374" lon="3.33625">
        <ele>155</ele>
        <time>2014-09-28T10:04:18Z</time>
      </trkpt>
      <trkpt lat="43.67376" lon="3.33634">
        <ele>155.8</ele>
        <time>2014-09-28T10:04:20Z</time>
      </trkpt>
      <trkpt lat="43.67378" lon="3.33643">
        <ele>156.5</ele>
        <time>2014-09-28T10:04:22Z</time>
      </trkpt>
      <trkpt lat="43.67381" lon="3.33648">
        <ele>156.8</ele>
        <time>2014-09-28T10:04:24Z</time>
      </trkpt>
      <trkpt lat="43.67388" lon="3.33642">
        <ele>155.8</ele>
        <time>2014-09-28T10:04:27Z</time>
      </trkpt>
      <trkpt lat="43.67396" lon="3.3364">
        <ele>155.1</ele>
        <time>2014-09-28T10:04:29Z</time>
      </trkpt>
      <trkpt lat="43.67405" lon="3.33641">
        <ele>154.6</ele>
        <time>2014-09-28T10:04:31Z</time>
      </trkpt>
      <trkpt lat="43.67413" lon="3.33637">
        <ele>153.7</ele>
        <time>2014-09-28T10:04:33Z</time>
      </trkpt>
      <trkpt lat="43.67419" lon="3.33632">
        <ele>152.9</ele>
        <time>2014-09-28T10:04:35Z</time>
      </trkpt>
      <trkpt lat="43.67425" lon="3.33632">
        <ele>152.5</ele>
        <time>2014-09-28T10:04:37Z</time>
      </trkpt>
      <trkpt lat="43.67431" lon="3.33634">
        <ele>152.3</ele>
        <time>2014-09-28T10:04:39Z</time>
      </trkpt>
      <trkpt lat="43.67436" lon="3.33635">
        <ele>152.1</ele>
        <time>2014-09-28T10:04:41Z</time>
      </trkpt>
      <trkpt lat="43.67441" lon="3.33638">
        <ele>151.9</ele>
        <time>2014-09-28T10:04:43Z</time>
      </trkpt>
      <trkpt lat="43.67446" lon="3.33641">
        <ele>151.8</ele>
        <time>2014-09-28T10:04:45Z</time>
      </trkpt>
      <trkpt lat="43.67451" lon="3.33638">
        <ele>151.3</ele>
        <time>2014-09-28T10:04:47Z</time>
      </trkpt>
      <trkpt lat="43.67457" lon="3.33633">
        <ele>150.6</ele>
        <time>2014-09-28T10:04:49Z</time>
      </trkpt>
      <trkpt lat="43.67464" lon="3.33626">
        <ele>149.6</ele>
        <time>2014-09-28T10:04:51Z</time>
      </trkpt>
      <trkpt lat="43.67472" lon="3.33622">
        <ele>148.9</ele>
        <time>2014-09-28T10:04:53Z</time>
      </trkpt>
      <trkpt lat="43.67479" lon="3.33622">
        <ele>148.4</ele>
        <time>2014-09-28T10:04:55Z</time>
      </trkpt>
      <trkpt lat="43.67486" lon="3.33627">
        <ele>148.1</ele>
        <time>2014-09-28T10:04:57Z</time>
      </trkpt>
      <trkpt lat="43.67493" lon="3.33628">
        <ele>147.7</ele>
        <time>2014-09-28T10:04:59Z</time>
      </trkpt>
      <trkpt lat="43.67497" lon="3.3363">
        <ele>147.5</ele>
        <time>2014-09-28T10:05:01Z</time>
      </trkpt>
      <trkpt lat="43.675" lon="3.33635">
        <ele>147.5</ele>
        <time>2014-09-28T10:05:03Z</time>
      </trkpt>
      <trkpt lat="43.67503" lon="3.33642">
        <ele>147.7</ele>
        <time>2014-09-28T10:05:05Z</time>
      </trkpt>
      <trkpt lat="43.67505" lon="3.33649">
        <ele>147.9</ele>
        <time>2014-09-28T10:05:07Z</time>
      </trkpt>
      <trkpt lat="43.67505" lon="3.33656">
        <ele>148.3</ele>
        <time>2014-09-28T10:05:09Z</time>
      </trkpt>
      <trkpt lat="43.67506" lon="3.33664">
        <ele>148.7</ele>
        <time>2014-09-28T10:05:11Z</time>
      </trkpt>
      <trkpt lat="43.67507" lon="3.33672">
        <ele>149</ele>
        <time>2014-09-28T10:05:13Z</time>
      </trkpt>
      <trkpt lat="43.67508" lon="3.3368">
        <ele>149.3</ele>
        <time>2014-09-28T10:05:15Z</time>
      </trkpt>
      <trkpt lat="43.67512" lon="3.33688">
        <ele>149.4</ele>
        <time>2014-09-28T10:05:17Z</time>
      </trkpt>
      <trkpt lat="43.67518" lon="3.33696">
        <ele>149.4</ele>
        <time>2014-09-28T10:05:19Z</time>
      </trkpt>
      <trkpt lat="43.67521" lon="3.33703">
        <ele>149.5</ele>
        <time>2014-09-28T10:05:20Z</time>
      </trkpt>
      <trkpt lat="43.67521" lon="3.33703">
        <ele>149.5</ele>
        <time>2014-09-28T10:05:20Z</time>
      </trkpt>
      <trkpt lat="43.67523" lon="3.3371">
        <ele>149.6</ele>
        <time>2014-09-28T10:05:21Z</time>
      </trkpt>
      <trkpt lat="43.67526" lon="3.33717">
        <ele>149.7</ele>
        <time>2014-09-28T10:05:22Z</time>
      </trkpt>
      <trkpt lat="43.6753" lon="3.33723">
        <ele>149.7</ele>
        <time>2014-09-28T10:05:23Z</time>
      </trkpt>
      <trkpt lat="43.67534" lon="3.33727">
        <ele>149.5</ele>
        <time>2014-09-28T10:05:24Z</time>
      </trkpt>
      <trkpt lat="43.67538" lon="3.33734">
        <ele>149.5</ele>
        <time>2014-09-28T10:05:26Z</time>
      </trkpt>
      <trkpt lat="43.67539" lon="3.3374">
        <ele>149.8</ele>
        <time>2014-09-28T10:05:28Z</time>
      </trkpt>
      <trkpt lat="43.67537" lon="3.33747">
        <ele>150.3</ele>
        <time>2014-09-28T10:05:31Z</time>
      </trkpt>
      <trkpt lat="43.67538" lon="3.33756">
        <ele>150.6</ele>
        <time>2014-09-28T10:05:34Z</time>
      </trkpt>
      <trkpt lat="43.67539" lon="3.33764">
        <ele>150.9</ele>
        <time>2014-09-28T10:05:37Z</time>
      </trkpt>
      <trkpt lat="43.67541" lon="3.33771">
        <ele>151</ele>
        <time>2014-09-28T10:05:40Z</time>
      </trkpt>
      <trkpt lat="43.67544" lon="3.33778">
        <ele>151.3</ele>
        <time>2014-09-28T10:05:43Z</time>
      </trkpt>
      <trkpt lat="43.67547" lon="3.33785">
        <ele>151.5</ele>
        <time>2014-09-28T10:05:46Z</time>
      </trkpt>
      <trkpt lat="43.67548" lon="3.33792">
        <ele>151.9</ele>
        <time>2014-09-28T10:05:49Z</time>
      </trkpt>
      <trkpt lat="43.67548" lon="3.33801">
        <ele>152.3</ele>
        <time>2014-09-28T10:05:52Z</time>
      </trkpt>
      <trkpt lat="43.67546" lon="3.33808">
        <ele>152.7</ele>
        <time>2014-09-28T10:05:54Z</time>
      </trkpt>
      <trkpt lat="43.67545" lon="3.33815">
        <ele>153</ele>
        <time>2014-09-28T10:05:56Z</time>
      </trkpt>
      <trkpt lat="43.67548" lon="3.33821">
        <ele>153.3</ele>
        <time>2014-09-28T10:05:58Z</time>
      </trkpt>
      <trkpt lat="43.67553" lon="3.33824">
        <ele>153.3</ele>
        <time>2014-09-28T10:06:00Z</time>
      </trkpt>
      <trkpt lat="43.67557" lon="3.33826">
        <ele>153.3</ele>
        <time>2014-09-28T10:06:02Z</time>
      </trkpt>
      <trkpt lat="43.67559" lon="3.33833">
        <ele>153.6</ele>
        <time>2014-09-28T10:06:06Z</time>
      </trkpt>
      <trkpt lat="43.67556" lon="3.3384">
        <ele>154</ele>
        <time>2014-09-28T10:06:10Z</time>
      </trkpt>
      <trkpt lat="43.67557" lon="3.33848">
        <ele>154.3</ele>
        <time>2014-09-28T10:06:14Z</time>
      </trkpt>
      <trkpt lat="43.67562" lon="3.33853">
        <ele>154.5</ele>
        <time>2014-09-28T10:06:16Z</time>
      </trkpt>
      <trkpt lat="43.67566" lon="3.33857">
        <ele>154.6</ele>
        <time>2014-09-28T10:06:19Z</time>
      </trkpt>
      <trkpt lat="43.67569" lon="3.33863">
        <ele>154.8</ele>
        <time>2014-09-28T10:06:22Z</time>
      </trkpt>
      <trkpt lat="43.67569" lon="3.33871">
        <ele>155.2</ele>
        <time>2014-09-28T10:06:25Z</time>
      </trkpt>
      <trkpt lat="43.67567" lon="3.33878">
        <ele>155.5</ele>
        <time>2014-09-28T10:06:28Z</time>
      </trkpt>
      <trkpt lat="43.67565" lon="3.33887">
        <ele>155.7</ele>
        <time>2014-09-28T10:06:31Z</time>
      </trkpt>
      <trkpt lat="43.67565" lon="3.33895">
        <ele>155.9</ele>
        <time>2014-09-28T10:06:34Z</time>
      </trkpt>
      <trkpt lat="43.67566" lon="3.33905">
        <ele>156.1</ele>
        <time>2014-09-28T10:06:37Z</time>
      </trkpt>
      <trkpt lat="43.67567" lon="3.33911">
        <ele>156.2</ele>
        <time>2014-09-28T10:06:39Z</time>
      </trkpt>
      <trkpt lat="43.67568" lon="3.33917">
        <ele>156.4</ele>
        <time>2014-09-28T10:06:41Z</time>
      </trkpt>
      <trkpt lat="43.67569" lon="3.33924">
        <ele>156.5</ele>
        <time>2014-09-28T10:06:43Z</time>
      </trkpt>
      <trkpt lat="43.67571" lon="3.33929">
        <ele>156.6</ele>
        <time>2014-09-28T10:06:45Z</time>
      </trkpt>
      <trkpt lat="43.67573" lon="3.33936">
        <ele>156.8</ele>
        <time>2014-09-28T10:06:47Z</time>
      </trkpt>
      <trkpt lat="43.67574" lon="3.33944">
        <ele>157</ele>
        <time>2014-09-28T10:06:49Z</time>
      </trkpt>
      <trkpt lat="43.67576" lon="3.33952">
        <ele>157.2</ele>
        <time>2014-09-28T10:06:51Z</time>
      </trkpt>
      <trkpt lat="43.67577" lon="3.3396">
        <ele>157.3</ele>
        <time>2014-09-28T10:06:53Z</time>
      </trkpt>
      <trkpt lat="43.67579" lon="3.33967">
        <ele>156.8</ele>
        <time>2014-09-28T10:06:55Z</time>
      </trkpt>
      <trkpt lat="43.67582" lon="3.33975">
        <ele>156.4</ele>
        <time>2014-09-28T10:06:57Z</time>
      </trkpt>
      <trkpt lat="43.67588" lon="3.33982">
        <ele>156.1</ele>
        <time>2014-09-28T10:06:59Z</time>
      </trkpt>
      <trkpt lat="43.67592" lon="3.33986">
        <ele>155.9</ele>
        <time>2014-09-28T10:07:00Z</time>
      </trkpt>
      <trkpt lat="43.67596" lon="3.3399">
        <ele>155.7</ele>
        <time>2014-09-28T10:07:01Z</time>
      </trkpt>
      <trkpt lat="43.676" lon="3.33996">
        <ele>155.5</ele>
        <time>2014-09-28T10:07:02Z</time>
      </trkpt>
      <trkpt lat="43.67604" lon="3.34003">
        <ele>155.2</ele>
        <time>2014-09-28T10:07:03Z</time>
      </trkpt>
      <trkpt lat="43.67608" lon="3.3401">
        <ele>155</ele>
        <time>2014-09-28T10:07:04Z</time>
      </trkpt>
      <trkpt lat="43.67613" lon="3.34017">
        <ele>154.7</ele>
        <time>2014-09-28T10:07:05Z</time>
      </trkpt>
      <trkpt lat="43.67617" lon="3.34024">
        <ele>154.5</ele>
        <time>2014-09-28T10:07:06Z</time>
      </trkpt>
      <trkpt lat="43.67622" lon="3.34031">
        <ele>154.4</ele>
        <time>2014-09-28T10:07:07Z</time>
      </trkpt>
      <trkpt lat="43.67627" lon="3.34039">
        <ele>154.1</ele>
        <time>2014-09-28T10:07:08Z</time>
      </trkpt>
      <trkpt lat="43.67632" lon="3.34047">
        <ele>153.3</ele>
        <time>2014-09-28T10:07:09Z</time>
      </trkpt>
      <trkpt lat="43.67636" lon="3.34054">
        <ele>152.5</ele>
        <time>2014-09-28T10:07:10Z</time>
      </trkpt>
      <trkpt lat="43.67641" lon="3.34059">
        <ele>151.9</ele>
        <time>2014-09-28T10:07:11Z</time>
      </trkpt>
      <trkpt lat="43.67646" lon="3.34063">
        <ele>151.5</ele>
        <time>2014-09-28T10:07:12Z</time>
      </trkpt>
      <trkpt lat="43.67652" lon="3.34065">
        <ele>151.2</ele>
        <time>2014-09-28T10:07:13Z</time>
      </trkpt>
      <trkpt lat="43.67658" lon="3.34064">
        <ele>151.3</ele>
        <time>2014-09-28T10:07:14Z</time>
      </trkpt>
      <trkpt lat="43.67663" lon="3.34062">
        <ele>151.3</ele>
        <time>2014-09-28T10:07:15Z</time>
      </trkpt>
      <trkpt lat="43.67668" lon="3.34063">
        <ele>151.2</ele>
        <time>2014-09-28T10:07:16Z</time>
      </trkpt>
      <trkpt lat="43.67672" lon="3.34065">
        <ele>151</ele>
        <time>2014-09-28T10:07:17Z</time>
      </trkpt>
      <trkpt lat="43.67676" lon="3.34069">
        <ele>150.6</ele>
        <time>2014-09-28T10:07:18Z</time>
      </trkpt>
      <trkpt lat="43.67682" lon="3.34075">
        <ele>150.2</ele>
        <time>2014-09-28T10:07:20Z</time>
      </trkpt>
      <trkpt lat="43.67688" lon="3.34077">
        <ele>150</ele>
        <time>2014-09-28T10:07:22Z</time>
      </trkpt>
      <trkpt lat="43.67695" lon="3.3408">
        <ele>149.7</ele>
        <time>2014-09-28T10:07:24Z</time>
      </trkpt>
      <trkpt lat="43.67701" lon="3.34084">
        <ele>149.5</ele>
        <time>2014-09-28T10:07:26Z</time>
      </trkpt>
      <trkpt lat="43.67708" lon="3.34092">
        <ele>149</ele>
        <time>2014-09-28T10:07:28Z</time>
      </trkpt>
      <trkpt lat="43.67711" lon="3.341">
        <ele>148.2</ele>
        <time>2014-09-28T10:07:29Z</time>
      </trkpt>
      <trkpt lat="43.67713" lon="3.34108">
        <ele>147.4</ele>
        <time>2014-09-28T10:07:30Z</time>
      </trkpt>
      <trkpt lat="43.67716" lon="3.34115">
        <ele>146.7</ele>
        <time>2014-09-28T10:07:31Z</time>
      </trkpt>
      <trkpt lat="43.6772" lon="3.34121">
        <ele>146</ele>
        <time>2014-09-28T10:07:32Z</time>
      </trkpt>
      <trkpt lat="43.67724" lon="3.34126">
        <ele>145.2</ele>
        <time>2014-09-28T10:07:33Z</time>
      </trkpt>
      <trkpt lat="43.67728" lon="3.3413">
        <ele>144.5</ele>
        <time>2014-09-28T10:07:34Z</time>
      </trkpt>
      <trkpt lat="43.67732" lon="3.34134">
        <ele>143.7</ele>
        <time>2014-09-28T10:07:35Z</time>
      </trkpt>
      <trkpt lat="43.67736" lon="3.34144">
        <ele>142.6</ele>
        <time>2014-09-28T10:07:37Z</time>
      </trkpt>
      <trkpt lat="43.67741" lon="3.34151">
        <ele>141.6</ele>
        <time>2014-09-28T10:07:39Z</time>
      </trkpt>
      <trkpt lat="43.67744" lon="3.34156">
        <ele>141</ele>
        <time>2014-09-28T10:07:40Z</time>
      </trkpt>
      <trkpt lat="43.67747" lon="3.34162">
        <ele>140.3</ele>
        <time>2014-09-28T10:07:41Z</time>
      </trkpt>
      <trkpt lat="43.67749" lon="3.3417">
        <ele>139.6</ele>
        <time>2014-09-28T10:07:42Z</time>
      </trkpt>
      <trkpt lat="43.67752" lon="3.34178">
        <ele>138.9</ele>
        <time>2014-09-28T10:07:43Z</time>
      </trkpt>
      <trkpt lat="43.67754" lon="3.34186">
        <ele>138.2</ele>
        <time>2014-09-28T10:07:44Z</time>
      </trkpt>
      <trkpt lat="43.67757" lon="3.34193">
        <ele>137.6</ele>
        <time>2014-09-28T10:07:45Z</time>
      </trkpt>
      <trkpt lat="43.6776" lon="3.342">
        <ele>137</ele>
        <time>2014-09-28T10:07:46Z</time>
      </trkpt>
      <trkpt lat="43.67764" lon="3.34205">
        <ele>136.5</ele>
        <time>2014-09-28T10:07:47Z</time>
      </trkpt>
      <trkpt lat="43.67769" lon="3.34212">
        <ele>136</ele>
        <time>2014-09-28T10:07:48Z</time>
      </trkpt>
      <trkpt lat="43.67773" lon="3.34219">
        <ele>135.5</ele>
        <time>2014-09-28T10:07:49Z</time>
      </trkpt>
      <trkpt lat="43.67777" lon="3.34227">
        <ele>135.1</ele>
        <time>2014-09-28T10:07:50Z</time>
      </trkpt>
      <trkpt lat="43.6778" lon="3.34235">
        <ele>134.6</ele>
        <time>2014-09-28T10:07:51Z</time>
      </trkpt>
      <trkpt lat="43.67783" lon="3.34243">
        <ele>134.2</ele>
        <time>2014-09-28T10:07:52Z</time>
      </trkpt>
      <trkpt lat="43.67786" lon="3.34252">
        <ele>133.7</ele>
        <time>2014-09-28T10:07:53Z</time>
      </trkpt>
      <trkpt lat="43.67788" lon="3.3426">
        <ele>133.3</ele>
        <time>2014-09-28T10:07:54Z</time>
      </trkpt>
      <trkpt lat="43.6779" lon="3.34269">
        <ele>132.9</ele>
        <time>2014-09-28T10:07:55Z</time>
      </trkpt>
      <trkpt lat="43.6779" lon="3.34277">
        <ele>132.6</ele>
        <time>2014-09-28T10:07:56Z</time>
      </trkpt>
      <trkpt lat="43.6779" lon="3.34285">
        <ele>132.4</ele>
        <time>2014-09-28T10:07:57Z</time>
      </trkpt>
      <trkpt lat="43.6779" lon="3.34293">
        <ele>132.1</ele>
        <time>2014-09-28T10:07:58Z</time>
      </trkpt>
      <trkpt lat="43.6779" lon="3.343">
        <ele>131.9</ele>
        <time>2014-09-28T10:07:59Z</time>
      </trkpt>
      <trkpt lat="43.67791" lon="3.34311">
        <ele>131.6</ele>
        <time>2014-09-28T10:08:01Z</time>
      </trkpt>
      <trkpt lat="43.67793" lon="3.34322">
        <ele>131.2</ele>
        <time>2014-09-28T10:08:03Z</time>
      </trkpt>
      <trkpt lat="43.67793" lon="3.34329">
        <ele>131</ele>
        <time>2014-09-28T10:08:04Z</time>
      </trkpt>
      <trkpt lat="43.67793" lon="3.34335">
        <ele>130.9</ele>
        <time>2014-09-28T10:08:05Z</time>
      </trkpt>
      <trkpt lat="43.67793" lon="3.34341">
        <ele>130.7</ele>
        <time>2014-09-28T10:08:06Z</time>
      </trkpt>
      <trkpt lat="43.67792" lon="3.34353">
        <ele>130.5</ele>
        <time>2014-09-28T10:08:08Z</time>
      </trkpt>
      <trkpt lat="43.6779" lon="3.34364">
        <ele>130.5</ele>
        <time>2014-09-28T10:08:10Z</time>
      </trkpt>
      <trkpt lat="43.67788" lon="3.3437">
        <ele>130.6</ele>
        <time>2014-09-28T10:08:11Z</time>
      </trkpt>
      <trkpt lat="43.67787" lon="3.34376">
        <ele>130.7</ele>
        <time>2014-09-28T10:08:12Z</time>
      </trkpt>
      <trkpt lat="43.67785" lon="3.34382">
        <ele>131</ele>
        <time>2014-09-28T10:08:13Z</time>
      </trkpt>
      <trkpt lat="43.67784" lon="3.34388">
        <ele>131.3</ele>
        <time>2014-09-28T10:08:14Z</time>
      </trkpt>
      <trkpt lat="43.67783" lon="3.34394">
        <ele>131.6</ele>
        <time>2014-09-28T10:08:15Z</time>
      </trkpt>
      <trkpt lat="43.6778" lon="3.34405">
        <ele>132.1</ele>
        <time>2014-09-28T10:08:17Z</time>
      </trkpt>
      <trkpt lat="43.67779" lon="3.34417">
        <ele>132.6</ele>
        <time>2014-09-28T10:08:19Z</time>
      </trkpt>
      <trkpt lat="43.67778" lon="3.34428">
        <ele>132.9</ele>
        <time>2014-09-28T10:08:21Z</time>
      </trkpt>
      <trkpt lat="43.67777" lon="3.34439">
        <ele>133.2</ele>
        <time>2014-09-28T10:08:23Z</time>
      </trkpt>
      <trkpt lat="43.67775" lon="3.34447">
        <ele>133.6</ele>
        <time>2014-09-28T10:08:25Z</time>
      </trkpt>
      <trkpt lat="43.67772" lon="3.34454">
        <ele>134.1</ele>
        <time>2014-09-28T10:08:27Z</time>
      </trkpt>
      <trkpt lat="43.67768" lon="3.3446">
        <ele>134.5</ele>
        <time>2014-09-28T10:08:30Z</time>
      </trkpt>
      <trkpt lat="43.67765" lon="3.34466">
        <ele>134.6</ele>
        <time>2014-09-28T10:08:32Z</time>
      </trkpt>
      <trkpt lat="43.67762" lon="3.34474">
        <ele>134.7</ele>
        <time>2014-09-28T10:08:34Z</time>
      </trkpt>
      <trkpt lat="43.67757" lon="3.3448">
        <ele>135</ele>
        <time>2014-09-28T10:08:36Z</time>
      </trkpt>
      <trkpt lat="43.67752" lon="3.34484">
        <ele>135.4</ele>
        <time>2014-09-28T10:08:38Z</time>
      </trkpt>
      <trkpt lat="43.67747" lon="3.34486">
        <ele>135.8</ele>
        <time>2014-09-28T10:08:40Z</time>
      </trkpt>
      <trkpt lat="43.67742" lon="3.34488">
        <ele>136.2</ele>
        <time>2014-09-28T10:08:42Z</time>
      </trkpt>
      <trkpt lat="43.67737" lon="3.34491">
        <ele>136.6</ele>
        <time>2014-09-28T10:08:44Z</time>
      </trkpt>
      <trkpt lat="43.67732" lon="3.34495">
        <ele>136.9</ele>
        <time>2014-09-28T10:08:46Z</time>
      </trkpt>
      <trkpt lat="43.67726" lon="3.34497">
        <ele>137.4</ele>
        <time>2014-09-28T10:08:48Z</time>
      </trkpt>
      <trkpt lat="43.67721" lon="3.345">
        <ele>137.8</ele>
        <time>2014-09-28T10:08:50Z</time>
      </trkpt>
      <trkpt lat="43.67716" lon="3.34503">
        <ele>138.2</ele>
        <time>2014-09-28T10:08:52Z</time>
      </trkpt>
      <trkpt lat="43.6771" lon="3.34507">
        <ele>138.5</ele>
        <time>2014-09-28T10:08:54Z</time>
      </trkpt>
      <trkpt lat="43.67706" lon="3.34511">
        <ele>138.5</ele>
        <time>2014-09-28T10:08:56Z</time>
      </trkpt>
      <trkpt lat="43.67701" lon="3.34514">
        <ele>138.4</ele>
        <time>2014-09-28T10:08:58Z</time>
      </trkpt>
      <trkpt lat="43.67697" lon="3.34515">
        <ele>138.4</ele>
        <time>2014-09-28T10:09:00Z</time>
      </trkpt>
      <trkpt lat="43.67692" lon="3.34518">
        <ele>138.4</ele>
        <time>2014-09-28T10:09:02Z</time>
      </trkpt>
      <trkpt lat="43.67687" lon="3.34523">
        <ele>138.2</ele>
        <time>2014-09-28T10:09:04Z</time>
      </trkpt>
      <trkpt lat="43.67682" lon="3.34529">
        <ele>137.9</ele>
        <time>2014-09-28T10:09:06Z</time>
      </trkpt>
      <trkpt lat="43.67678" lon="3.34535">
        <ele>137.7</ele>
        <time>2014-09-28T10:09:08Z</time>
      </trkpt>
      <trkpt lat="43.67674" lon="3.34543">
        <ele>137.4</ele>
        <time>2014-09-28T10:09:10Z</time>
      </trkpt>
      <trkpt lat="43.67669" lon="3.34548">
        <ele>137.4</ele>
        <time>2014-09-28T10:09:12Z</time>
      </trkpt>
      <trkpt lat="43.67664" lon="3.34551">
        <ele>137.4</ele>
        <time>2014-09-28T10:09:14Z</time>
      </trkpt>
      <trkpt lat="43.67659" lon="3.34554">
        <ele>137.4</ele>
        <time>2014-09-28T10:09:16Z</time>
      </trkpt>
      <trkpt lat="43.67653" lon="3.34559">
        <ele>137.4</ele>
        <time>2014-09-28T10:09:18Z</time>
      </trkpt>
      <trkpt lat="43.67648" lon="3.34567">
        <ele>137.3</ele>
        <time>2014-09-28T10:09:20Z</time>
      </trkpt>
      <trkpt lat="43.67645" lon="3.34575">
        <ele>137.1</ele>
        <time>2014-09-28T10:09:22Z</time>
      </trkpt>
      <trkpt lat="43.67642" lon="3.34582">
        <ele>137</ele>
        <time>2014-09-28T10:09:24Z</time>
      </trkpt>
      <trkpt lat="43.67639" lon="3.34586">
        <ele>137</ele>
        <time>2014-09-28T10:09:26Z</time>
      </trkpt>
      <trkpt lat="43.67632" lon="3.34587">
        <ele>136.9</ele>
        <time>2014-09-28T10:09:29Z</time>
      </trkpt>
      <trkpt lat="43.67627" lon="3.34587">
        <ele>136.9</ele>
        <time>2014-09-28T10:09:31Z</time>
      </trkpt>
      <trkpt lat="43.67622" lon="3.34588">
        <ele>137.1</ele>
        <time>2014-09-28T10:09:33Z</time>
      </trkpt>
      <trkpt lat="43.67617" lon="3.34591">
        <ele>137.2</ele>
        <time>2014-09-28T10:09:35Z</time>
      </trkpt>
      <trkpt lat="43.67613" lon="3.34595">
        <ele>137.4</ele>
        <time>2014-09-28T10:09:37Z</time>
      </trkpt>
      <trkpt lat="43.67608" lon="3.34598">
        <ele>137.5</ele>
        <time>2014-09-28T10:09:39Z</time>
      </trkpt>
      <trkpt lat="43.67603" lon="3.34602">
        <ele>137.7</ele>
        <time>2014-09-28T10:09:41Z</time>
      </trkpt>
      <trkpt lat="43.67598" lon="3.34605">
        <ele>138</ele>
        <time>2014-09-28T10:09:43Z</time>
      </trkpt>
      <trkpt lat="43.67592" lon="3.34609">
        <ele>138.2</ele>
        <time>2014-09-28T10:09:45Z</time>
      </trkpt>
      <trkpt lat="43.67587" lon="3.34613">
        <ele>138.4</ele>
        <time>2014-09-28T10:09:47Z</time>
      </trkpt>
      <trkpt lat="43.67582" lon="3.34619">
        <ele>138.6</ele>
        <time>2014-09-28T10:09:49Z</time>
      </trkpt>
      <trkpt lat="43.67578" lon="3.34624">
        <ele>138.9</ele>
        <time>2014-09-28T10:09:51Z</time>
      </trkpt>
      <trkpt lat="43.67574" lon="3.34629">
        <ele>139.1</ele>
        <time>2014-09-28T10:09:53Z</time>
      </trkpt>
      <trkpt lat="43.6757" lon="3.34634">
        <ele>139.3</ele>
        <time>2014-09-28T10:09:55Z</time>
      </trkpt>
      <trkpt lat="43.67566" lon="3.3464">
        <ele>139.5</ele>
        <time>2014-09-28T10:09:57Z</time>
      </trkpt>
      <trkpt lat="43.67561" lon="3.34646">
        <ele>139.8</ele>
        <time>2014-09-28T10:09:59Z</time>
      </trkpt>
      <trkpt lat="43.67558" lon="3.34654">
        <ele>140</ele>
        <time>2014-09-28T10:10:01Z</time>
      </trkpt>
      <trkpt lat="43.67554" lon="3.34663">
        <ele>140.2</ele>
        <time>2014-09-28T10:10:03Z</time>
      </trkpt>
      <trkpt lat="43.67551" lon="3.34672">
        <ele>140.4</ele>
        <time>2014-09-28T10:10:05Z</time>
      </trkpt>
      <trkpt lat="43.67548" lon="3.34681">
        <ele>140.6</ele>
        <time>2014-09-28T10:10:07Z</time>
      </trkpt>
      <trkpt lat="43.67544" lon="3.34691">
        <ele>140.9</ele>
        <time>2014-09-28T10:10:09Z</time>
      </trkpt>
      <trkpt lat="43.67541" lon="3.34696">
        <ele>141.1</ele>
        <time>2014-09-28T10:10:10Z</time>
      </trkpt>
      <trkpt lat="43.67537" lon="3.347">
        <ele>141.6</ele>
        <time>2014-09-28T10:10:11Z</time>
      </trkpt>
      <trkpt lat="43.67531" lon="3.34707">
        <ele>142.4</ele>
        <time>2014-09-28T10:10:13Z</time>
      </trkpt>
      <trkpt lat="43.67528" lon="3.34714">
        <ele>143</ele>
        <time>2014-09-28T10:10:15Z</time>
      </trkpt>
      <trkpt lat="43.67523" lon="3.3472">
        <ele>143.7</ele>
        <time>2014-09-28T10:10:17Z</time>
      </trkpt>
      <trkpt lat="43.67519" lon="3.34724">
        <ele>144.5</ele>
        <time>2014-09-28T10:10:19Z</time>
      </trkpt>
      <trkpt lat="43.67516" lon="3.34731">
        <ele>145.1</ele>
        <time>2014-09-28T10:10:21Z</time>
      </trkpt>
      <trkpt lat="43.67517" lon="3.34739">
        <ele>145.4</ele>
        <time>2014-09-28T10:10:23Z</time>
      </trkpt>
      <trkpt lat="43.67517" lon="3.34749">
        <ele>145.7</ele>
        <time>2014-09-28T10:10:25Z</time>
      </trkpt>
      <trkpt lat="43.67517" lon="3.34756">
        <ele>145.9</ele>
        <time>2014-09-28T10:10:26Z</time>
      </trkpt>
      <trkpt lat="43.67516" lon="3.34763">
        <ele>146.3</ele>
        <time>2014-09-28T10:10:27Z</time>
      </trkpt>
      <trkpt lat="43.67515" lon="3.3477">
        <ele>146.7</ele>
        <time>2014-09-28T10:10:28Z</time>
      </trkpt>
      <trkpt lat="43.67515" lon="3.34776">
        <ele>147</ele>
        <time>2014-09-28T10:10:29Z</time>
      </trkpt>
      <trkpt lat="43.67514" lon="3.34783">
        <ele>147.3</ele>
        <time>2014-09-28T10:10:30Z</time>
      </trkpt>
      <trkpt lat="43.67513" lon="3.34791">
        <ele>147.8</ele>
        <time>2014-09-28T10:10:31Z</time>
      </trkpt>
      <trkpt lat="43.67513" lon="3.34799">
        <ele>147.8</ele>
        <time>2014-09-28T10:10:32Z</time>
      </trkpt>
      <trkpt lat="43.67513" lon="3.34807">
        <ele>147.7</ele>
        <time>2014-09-28T10:10:33Z</time>
      </trkpt>
      <trkpt lat="43.67513" lon="3.34807">
        <ele>147.7</ele>
        <time>2014-09-28T10:10:33Z</time>
      </trkpt>
      <trkpt lat="43.67513" lon="3.34814">
        <ele>147.5</ele>
        <time>2014-09-28T10:10:34Z</time>
      </trkpt>
      <trkpt lat="43.67514" lon="3.34824">
        <ele>147.2</ele>
        <time>2014-09-28T10:10:36Z</time>
      </trkpt>
      <trkpt lat="43.67514" lon="3.34836">
        <ele>146.9</ele>
        <time>2014-09-28T10:10:38Z</time>
      </trkpt>
      <trkpt lat="43.67513" lon="3.34848">
        <ele>146.9</ele>
        <time>2014-09-28T10:10:40Z</time>
      </trkpt>
      <trkpt lat="43.67511" lon="3.34854">
        <ele>147.2</ele>
        <time>2014-09-28T10:10:41Z</time>
      </trkpt>
      <trkpt lat="43.67509" lon="3.3486">
        <ele>147.7</ele>
        <time>2014-09-28T10:10:42Z</time>
      </trkpt>
      <trkpt lat="43.67506" lon="3.34865">
        <ele>148.2</ele>
        <time>2014-09-28T10:10:43Z</time>
      </trkpt>
      <trkpt lat="43.67504" lon="3.3487">
        <ele>148.8</ele>
        <time>2014-09-28T10:10:44Z</time>
      </trkpt>
      <trkpt lat="43.67498" lon="3.34879">
        <ele>149.7</ele>
        <time>2014-09-28T10:10:46Z</time>
      </trkpt>
      <trkpt lat="43.67492" lon="3.34884">
        <ele>150.7</ele>
        <time>2014-09-28T10:10:48Z</time>
      </trkpt>
      <trkpt lat="43.67487" lon="3.34886">
        <ele>151.8</ele>
        <time>2014-09-28T10:10:50Z</time>
      </trkpt>
      <trkpt lat="43.67481" lon="3.3489">
        <ele>152.7</ele>
        <time>2014-09-28T10:10:52Z</time>
      </trkpt>
      <trkpt lat="43.67476" lon="3.34895">
        <ele>153.4</ele>
        <time>2014-09-28T10:10:54Z</time>
      </trkpt>
      <trkpt lat="43.67471" lon="3.34901">
        <ele>153.9</ele>
        <time>2014-09-28T10:10:56Z</time>
      </trkpt>
      <trkpt lat="43.67467" lon="3.34905">
        <ele>154.4</ele>
        <time>2014-09-28T10:10:58Z</time>
      </trkpt>
      <trkpt lat="43.67463" lon="3.3491">
        <ele>154.8</ele>
        <time>2014-09-28T10:11:00Z</time>
      </trkpt>
      <trkpt lat="43.67459" lon="3.34915">
        <ele>155</ele>
        <time>2014-09-28T10:11:02Z</time>
      </trkpt>
      <trkpt lat="43.67456" lon="3.34921">
        <ele>154.7</ele>
        <time>2014-09-28T10:11:04Z</time>
      </trkpt>
      <trkpt lat="43.67453" lon="3.34928">
        <ele>154</ele>
        <time>2014-09-28T10:11:06Z</time>
      </trkpt>
      <trkpt lat="43.67451" lon="3.34938">
        <ele>153</ele>
        <time>2014-09-28T10:11:08Z</time>
      </trkpt>
      <trkpt lat="43.67451" lon="3.34949">
        <ele>151.9</ele>
        <time>2014-09-28T10:11:10Z</time>
      </trkpt>
      <trkpt lat="43.67451" lon="3.3496">
        <ele>150.8</ele>
        <time>2014-09-28T10:11:12Z</time>
      </trkpt>
      <trkpt lat="43.6745" lon="3.34967">
        <ele>150.1</ele>
        <time>2014-09-28T10:11:13Z</time>
      </trkpt>
      <trkpt lat="43.67449" lon="3.34973">
        <ele>149.3</ele>
        <time>2014-09-28T10:11:14Z</time>
      </trkpt>
      <trkpt lat="43.67448" lon="3.3498">
        <ele>148.5</ele>
        <time>2014-09-28T10:11:15Z</time>
      </trkpt>
      <trkpt lat="43.67447" lon="3.34987">
        <ele>147.7</ele>
        <time>2014-09-28T10:11:16Z</time>
      </trkpt>
      <trkpt lat="43.67446" lon="3.34994">
        <ele>146.9</ele>
        <time>2014-09-28T10:11:17Z</time>
      </trkpt>
      <trkpt lat="43.67447" lon="3.35001">
        <ele>146.1</ele>
        <time>2014-09-28T10:11:18Z</time>
      </trkpt>
      <trkpt lat="43.67447" lon="3.35007">
        <ele>145.4</ele>
        <time>2014-09-28T10:11:19Z</time>
      </trkpt>
      <trkpt lat="43.67448" lon="3.35019">
        <ele>144</ele>
        <time>2014-09-28T10:11:21Z</time>
      </trkpt>
      <trkpt lat="43.67449" lon="3.3503">
        <ele>142.7</ele>
        <time>2014-09-28T10:11:23Z</time>
      </trkpt>
      <trkpt lat="43.67449" lon="3.35042">
        <ele>141.3</ele>
        <time>2014-09-28T10:11:25Z</time>
      </trkpt>
      <trkpt lat="43.67449" lon="3.35048">
        <ele>141.1</ele>
        <time>2014-09-28T10:11:26Z</time>
      </trkpt>
      <trkpt lat="43.67448" lon="3.35055">
        <ele>140.9</ele>
        <time>2014-09-28T10:11:27Z</time>
      </trkpt>
      <trkpt lat="43.67447" lon="3.35062">
        <ele>140.7</ele>
        <time>2014-09-28T10:11:28Z</time>
      </trkpt>
      <trkpt lat="43.67446" lon="3.3507">
        <ele>140.5</ele>
        <time>2014-09-28T10:11:29Z</time>
      </trkpt>
      <trkpt lat="43.67445" lon="3.35078">
        <ele>140.2</ele>
        <time>2014-09-28T10:11:30Z</time>
      </trkpt>
      <trkpt lat="43.67444" lon="3.35086">
        <ele>140</ele>
        <time>2014-09-28T10:11:31Z</time>
      </trkpt>
      <trkpt lat="43.67443" lon="3.35094">
        <ele>139.8</ele>
        <time>2014-09-28T10:11:32Z</time>
      </trkpt>
      <trkpt lat="43.67441" lon="3.35101">
        <ele>139.6</ele>
        <time>2014-09-28T10:11:33Z</time>
      </trkpt>
      <trkpt lat="43.6744" lon="3.35108">
        <ele>139.5</ele>
        <time>2014-09-28T10:11:34Z</time>
      </trkpt>
      <trkpt lat="43.67438" lon="3.35115">
        <ele>139.3</ele>
        <time>2014-09-28T10:11:35Z</time>
      </trkpt>
      <trkpt lat="43.67436" lon="3.35121">
        <ele>139.2</ele>
        <time>2014-09-28T10:11:36Z</time>
      </trkpt>
      <trkpt lat="43.67433" lon="3.35126">
        <ele>139.2</ele>
        <time>2014-09-28T10:11:37Z</time>
      </trkpt>
      <trkpt lat="43.6743" lon="3.35131">
        <ele>139.3</ele>
        <time>2014-09-28T10:11:38Z</time>
      </trkpt>
      <trkpt lat="43.67426" lon="3.35135">
        <ele>139.4</ele>
        <time>2014-09-28T10:11:39Z</time>
      </trkpt>
      <trkpt lat="43.67422" lon="3.35139">
        <ele>139.6</ele>
        <time>2014-09-28T10:11:40Z</time>
      </trkpt>
      <trkpt lat="43.67418" lon="3.35144">
        <ele>139.7</ele>
        <time>2014-09-28T10:11:41Z</time>
      </trkpt>
      <trkpt lat="43.67414" lon="3.35149">
        <ele>139.9</ele>
        <time>2014-09-28T10:11:42Z</time>
      </trkpt>
      <trkpt lat="43.6741" lon="3.35154">
        <ele>140</ele>
        <time>2014-09-28T10:11:43Z</time>
      </trkpt>
      <trkpt lat="43.67407" lon="3.35161">
        <ele>140</ele>
        <time>2014-09-28T10:11:44Z</time>
      </trkpt>
      <trkpt lat="43.67405" lon="3.35168">
        <ele>140.1</ele>
        <time>2014-09-28T10:11:45Z</time>
      </trkpt>
      <trkpt lat="43.67403" lon="3.35175">
        <ele>140</ele>
        <time>2014-09-28T10:11:46Z</time>
      </trkpt>
      <trkpt lat="43.67402" lon="3.35183">
        <ele>140</ele>
        <time>2014-09-28T10:11:47Z</time>
      </trkpt>
      <trkpt lat="43.67402" lon="3.3519">
        <ele>139.9</ele>
        <time>2014-09-28T10:11:48Z</time>
      </trkpt>
      <trkpt lat="43.67399" lon="3.352">
        <ele>140</ele>
        <time>2014-09-28T10:11:50Z</time>
      </trkpt>
      <trkpt lat="43.67392" lon="3.35207">
        <ele>140.2</ele>
        <time>2014-09-28T10:11:52Z</time>
      </trkpt>
      <trkpt lat="43.67386" lon="3.35214">
        <ele>140.4</ele>
        <time>2014-09-28T10:11:54Z</time>
      </trkpt>
      <trkpt lat="43.67379" lon="3.35221">
        <ele>140.5</ele>
        <time>2014-09-28T10:11:56Z</time>
      </trkpt>
      <trkpt lat="43.67379" lon="3.35221">
        <ele>140.5</ele>
        <time>2014-09-28T10:11:56Z</time>
      </trkpt>
      <trkpt lat="43.67375" lon="3.35225">
        <ele>140.6</ele>
        <time>2014-09-28T10:11:57Z</time>
      </trkpt>
      <trkpt lat="43.67371" lon="3.35229">
        <ele>140.6</ele>
        <time>2014-09-28T10:11:58Z</time>
      </trkpt>
      <trkpt lat="43.67367" lon="3.35232">
        <ele>140.6</ele>
        <time>2014-09-28T10:11:59Z</time>
      </trkpt>
      <trkpt lat="43.67363" lon="3.35236">
        <ele>140.6</ele>
        <time>2014-09-28T10:12:00Z</time>
      </trkpt>
      <trkpt lat="43.67359" lon="3.3524">
        <ele>140.5</ele>
        <time>2014-09-28T10:12:01Z</time>
      </trkpt>
      <trkpt lat="43.67355" lon="3.35245">
        <ele>140.5</ele>
        <time>2014-09-28T10:12:02Z</time>
      </trkpt>
      <trkpt lat="43.67351" lon="3.35249">
        <ele>140.5</ele>
        <time>2014-09-28T10:12:03Z</time>
      </trkpt>
      <trkpt lat="43.67347" lon="3.35253">
        <ele>140.4</ele>
        <time>2014-09-28T10:12:04Z</time>
      </trkpt>
      <trkpt lat="43.67343" lon="3.35257">
        <ele>140.4</ele>
        <time>2014-09-28T10:12:05Z</time>
      </trkpt>
      <trkpt lat="43.67336" lon="3.35262">
        <ele>140.4</ele>
        <time>2014-09-28T10:12:07Z</time>
      </trkpt>
      <trkpt lat="43.6733" lon="3.35266">
        <ele>140.3</ele>
        <time>2014-09-28T10:12:09Z</time>
      </trkpt>
      <trkpt lat="43.67324" lon="3.35271">
        <ele>140.3</ele>
        <time>2014-09-28T10:12:11Z</time>
      </trkpt>
      <trkpt lat="43.67319" lon="3.35277">
        <ele>140.2</ele>
        <time>2014-09-28T10:12:13Z</time>
      </trkpt>
      <trkpt lat="43.67314" lon="3.35282">
        <ele>140</ele>
        <time>2014-09-28T10:12:15Z</time>
      </trkpt>
      <trkpt lat="43.67308" lon="3.35286">
        <ele>140</ele>
        <time>2014-09-28T10:12:17Z</time>
      </trkpt>
      <trkpt lat="43.67302" lon="3.35292">
        <ele>139.9</ele>
        <time>2014-09-28T10:12:19Z</time>
      </trkpt>
      <trkpt lat="43.67297" lon="3.35298">
        <ele>140</ele>
        <time>2014-09-28T10:12:21Z</time>
      </trkpt>
      <trkpt lat="43.67291" lon="3.35304">
        <ele>140.2</ele>
        <time>2014-09-28T10:12:23Z</time>
      </trkpt>
      <trkpt lat="43.67284" lon="3.3531">
        <ele>140.4</ele>
        <time>2014-09-28T10:12:25Z</time>
      </trkpt>
      <trkpt lat="43.67278" lon="3.35315">
        <ele>140.5</ele>
        <time>2014-09-28T10:12:27Z</time>
      </trkpt>
      <trkpt lat="43.67272" lon="3.35321">
        <ele>140.6</ele>
        <time>2014-09-28T10:12:29Z</time>
      </trkpt>
      <trkpt lat="43.67266" lon="3.35326">
        <ele>140.7</ele>
        <time>2014-09-28T10:12:31Z</time>
      </trkpt>
      <trkpt lat="43.67259" lon="3.3533">
        <ele>140.7</ele>
        <time>2014-09-28T10:12:33Z</time>
      </trkpt>
      <trkpt lat="43.67252" lon="3.35332">
        <ele>140.8</ele>
        <time>2014-09-28T10:12:35Z</time>
      </trkpt>
      <trkpt lat="43.67245" lon="3.35334">
        <ele>140.8</ele>
        <time>2014-09-28T10:12:37Z</time>
      </trkpt>
      <trkpt lat="43.67238" lon="3.35334">
        <ele>140.8</ele>
        <time>2014-09-28T10:12:39Z</time>
      </trkpt>
      <trkpt lat="43.67231" lon="3.35332">
        <ele>140.9</ele>
        <time>2014-09-28T10:12:41Z</time>
      </trkpt>
      <trkpt lat="43.67224" lon="3.3533">
        <ele>141</ele>
        <time>2014-09-28T10:12:43Z</time>
      </trkpt>
      <trkpt lat="43.67217" lon="3.35328">
        <ele>141.2</ele>
        <time>2014-09-28T10:12:45Z</time>
      </trkpt>
      <trkpt lat="43.6721" lon="3.35327">
        <ele>141.3</ele>
        <time>2014-09-28T10:12:47Z</time>
      </trkpt>
      <trkpt lat="43.67204" lon="3.35327">
        <ele>141.6</ele>
        <time>2014-09-28T10:12:49Z</time>
      </trkpt>
      <trkpt lat="43.67197" lon="3.35326">
        <ele>142</ele>
        <time>2014-09-28T10:12:51Z</time>
      </trkpt>
      <trkpt lat="43.6719" lon="3.35325">
        <ele>142.5</ele>
        <time>2014-09-28T10:12:53Z</time>
      </trkpt>
      <trkpt lat="43.67183" lon="3.35325">
        <ele>142.9</ele>
        <time>2014-09-28T10:12:55Z</time>
      </trkpt>
      <trkpt lat="43.67178" lon="3.35325">
        <ele>143.2</ele>
        <time>2014-09-28T10:12:57Z</time>
      </trkpt>
      <trkpt lat="43.67172" lon="3.35323">
        <ele>143.6</ele>
        <time>2014-09-28T10:12:59Z</time>
      </trkpt>
      <trkpt lat="43.67168" lon="3.35319">
        <ele>143.9</ele>
        <time>2014-09-28T10:13:01Z</time>
      </trkpt>
      <trkpt lat="43.67162" lon="3.35316">
        <ele>144.4</ele>
        <time>2014-09-28T10:13:04Z</time>
      </trkpt>
      <trkpt lat="43.67156" lon="3.35316">
        <ele>144.7</ele>
        <time>2014-09-28T10:13:07Z</time>
      </trkpt>
      <trkpt lat="43.67149" lon="3.35318">
        <ele>145</ele>
        <time>2014-09-28T10:13:10Z</time>
      </trkpt>
      <trkpt lat="43.67144" lon="3.35319">
        <ele>145.3</ele>
        <time>2014-09-28T10:13:12Z</time>
      </trkpt>
      <trkpt lat="43.6714" lon="3.35319">
        <ele>145.5</ele>
        <time>2014-09-28T10:13:16Z</time>
      </trkpt>
      <trkpt lat="43.67135" lon="3.35319">
        <ele>145.8</ele>
        <time>2014-09-28T10:13:29Z</time>
      </trkpt>
      <trkpt lat="43.6713" lon="3.3532">
        <ele>146.1</ele>
        <time>2014-09-28T10:13:33Z</time>
      </trkpt>
      <trkpt lat="43.67125" lon="3.35321">
        <ele>146.3</ele>
        <time>2014-09-28T10:13:39Z</time>
      </trkpt>
      <trkpt lat="43.67121" lon="3.35319">
        <ele>146.3</ele>
        <time>2014-09-28T10:13:42Z</time>
      </trkpt>
      <trkpt lat="43.67117" lon="3.35313">
        <ele>146.4</ele>
        <time>2014-09-28T10:13:46Z</time>
      </trkpt>
      <trkpt lat="43.67114" lon="3.35302">
        <ele>146.6</ele>
        <time>2014-09-28T10:15:44Z</time>
      </trkpt>
      <trkpt lat="43.67112" lon="3.35294">
        <ele>146.8</ele>
        <time>2014-09-28T10:15:47Z</time>
      </trkpt>
      <trkpt lat="43.67111" lon="3.35285">
        <ele>147.3</ele>
        <time>2014-09-28T10:15:50Z</time>
      </trkpt>
      <trkpt lat="43.6711" lon="3.35277">
        <ele>147.8</ele>
        <time>2014-09-28T10:15:52Z</time>
      </trkpt>
      <trkpt lat="43.67109" lon="3.35268">
        <ele>148.4</ele>
        <time>2014-09-28T10:15:54Z</time>
      </trkpt>
      <trkpt lat="43.67108" lon="3.35259">
        <ele>149</ele>
        <time>2014-09-28T10:15:56Z</time>
      </trkpt>
      <trkpt lat="43.67107" lon="3.35251">
        <ele>149.5</ele>
        <time>2014-09-28T10:15:58Z</time>
      </trkpt>
      <trkpt lat="43.67106" lon="3.35242">
        <ele>150.2</ele>
        <time>2014-09-28T10:16:00Z</time>
      </trkpt>
      <trkpt lat="43.67104" lon="3.35233">
        <ele>150.8</ele>
        <time>2014-09-28T10:16:02Z</time>
      </trkpt>
      <trkpt lat="43.67102" lon="3.35225">
        <ele>151.4</ele>
        <time>2014-09-28T10:16:04Z</time>
      </trkpt>
      <trkpt lat="43.67101" lon="3.35217">
        <ele>152</ele>
        <time>2014-09-28T10:16:06Z</time>
      </trkpt>
      <trkpt lat="43.671" lon="3.35208">
        <ele>152.6</ele>
        <time>2014-09-28T10:16:08Z</time>
      </trkpt>
      <trkpt lat="43.67099" lon="3.352">
        <ele>153.1</ele>
        <time>2014-09-28T10:16:10Z</time>
      </trkpt>
      <trkpt lat="43.67097" lon="3.35193">
        <ele>153.7</ele>
        <time>2014-09-28T10:16:12Z</time>
      </trkpt>
      <trkpt lat="43.67095" lon="3.35184">
        <ele>154.3</ele>
        <time>2014-09-28T10:16:14Z</time>
      </trkpt>
      <trkpt lat="43.67093" lon="3.35176">
        <ele>154.9</ele>
        <time>2014-09-28T10:16:16Z</time>
      </trkpt>
      <trkpt lat="43.6709" lon="3.35169">
        <ele>155.7</ele>
        <time>2014-09-28T10:16:18Z</time>
      </trkpt>
      <trkpt lat="43.67086" lon="3.35162">
        <ele>156.4</ele>
        <time>2014-09-28T10:16:20Z</time>
      </trkpt>
      <trkpt lat="43.67082" lon="3.35155">
        <ele>157.2</ele>
        <time>2014-09-28T10:16:22Z</time>
      </trkpt>
      <trkpt lat="43.67078" lon="3.35148">
        <ele>158.1</ele>
        <time>2014-09-28T10:16:24Z</time>
      </trkpt>
      <trkpt lat="43.67075" lon="3.35143">
        <ele>158.9</ele>
        <time>2014-09-28T10:16:26Z</time>
      </trkpt>
      <trkpt lat="43.67071" lon="3.35138">
        <ele>159.7</ele>
        <time>2014-09-28T10:16:28Z</time>
      </trkpt>
      <trkpt lat="43.67068" lon="3.35134">
        <ele>160.4</ele>
        <time>2014-09-28T10:16:30Z</time>
      </trkpt>
      <trkpt lat="43.67064" lon="3.35131">
        <ele>161.1</ele>
        <time>2014-09-28T10:16:32Z</time>
      </trkpt>
      <trkpt lat="43.67059" lon="3.35128">
        <ele>161.9</ele>
        <time>2014-09-28T10:16:34Z</time>
      </trkpt>
      <trkpt lat="43.67054" lon="3.35127">
        <ele>162.5</ele>
        <time>2014-09-28T10:16:36Z</time>
      </trkpt>
      <trkpt lat="43.67049" lon="3.35129">
        <ele>162.8</ele>
        <time>2014-09-28T10:16:38Z</time>
      </trkpt>
      <trkpt lat="43.67044" lon="3.35133">
        <ele>162.8</ele>
        <time>2014-09-28T10:16:40Z</time>
      </trkpt>
      <trkpt lat="43.67039" lon="3.35141">
        <ele>162.1</ele>
        <time>2014-09-28T10:16:42Z</time>
      </trkpt>
      <trkpt lat="43.67036" lon="3.35145">
        <ele>161.6</ele>
        <time>2014-09-28T10:16:43Z</time>
      </trkpt>
      <trkpt lat="43.67033" lon="3.3515">
        <ele>161</ele>
        <time>2014-09-28T10:16:44Z</time>
      </trkpt>
      <trkpt lat="43.67029" lon="3.35154">
        <ele>160.5</ele>
        <time>2014-09-28T10:16:45Z</time>
      </trkpt>
      <trkpt lat="43.67026" lon="3.35158">
        <ele>160</ele>
        <time>2014-09-28T10:16:46Z</time>
      </trkpt>
      <trkpt lat="43.67022" lon="3.35162">
        <ele>159.5</ele>
        <time>2014-09-28T10:16:47Z</time>
      </trkpt>
      <trkpt lat="43.67015" lon="3.35169">
        <ele>158.5</ele>
        <time>2014-09-28T10:16:49Z</time>
      </trkpt>
      <trkpt lat="43.67008" lon="3.35176">
        <ele>157.7</ele>
        <time>2014-09-28T10:16:51Z</time>
      </trkpt>
      <trkpt lat="43.67004" lon="3.35185">
        <ele>156.5</ele>
        <time>2014-09-28T10:16:53Z</time>
      </trkpt>
      <trkpt lat="43.67004" lon="3.35192">
        <ele>155.7</ele>
        <time>2014-09-28T10:16:54Z</time>
      </trkpt>
      <trkpt lat="43.67003" lon="3.35199">
        <ele>154.7</ele>
        <time>2014-09-28T10:16:55Z</time>
      </trkpt>
      <trkpt lat="43.67003" lon="3.35207">
        <ele>153.7</ele>
        <time>2014-09-28T10:16:56Z</time>
      </trkpt>
      <trkpt lat="43.67002" lon="3.35216">
        <ele>152.8</ele>
        <time>2014-09-28T10:16:57Z</time>
      </trkpt>
      <trkpt lat="43.67001" lon="3.35224">
        <ele>151.9</ele>
        <time>2014-09-28T10:16:58Z</time>
      </trkpt>
      <trkpt lat="43.67" lon="3.35233">
        <ele>151</ele>
        <time>2014-09-28T10:16:59Z</time>
      </trkpt>
      <trkpt lat="43.66999" lon="3.35242">
        <ele>150.1</ele>
        <time>2014-09-28T10:17:00Z</time>
      </trkpt>
      <trkpt lat="43.66999" lon="3.3525">
        <ele>149.2</ele>
        <time>2014-09-28T10:17:01Z</time>
      </trkpt>
      <trkpt lat="43.66999" lon="3.35259">
        <ele>148.3</ele>
        <time>2014-09-28T10:17:02Z</time>
      </trkpt>
      <trkpt lat="43.66999" lon="3.35267">
        <ele>147.5</ele>
        <time>2014-09-28T10:17:03Z</time>
      </trkpt>
      <trkpt lat="43.66999" lon="3.35275">
        <ele>146.7</ele>
        <time>2014-09-28T10:17:04Z</time>
      </trkpt>
      <trkpt lat="43.66999" lon="3.35283">
        <ele>145.9</ele>
        <time>2014-09-28T10:17:05Z</time>
      </trkpt>
      <trkpt lat="43.66999" lon="3.3529">
        <ele>145.2</ele>
        <time>2014-09-28T10:17:06Z</time>
      </trkpt>
      <trkpt lat="43.66999" lon="3.35297">
        <ele>144.6</ele>
        <time>2014-09-28T10:17:07Z</time>
      </trkpt>
      <trkpt lat="43.67" lon="3.35305">
        <ele>144.1</ele>
        <time>2014-09-28T10:17:08Z</time>
      </trkpt>
      <trkpt lat="43.67001" lon="3.35313">
        <ele>143.7</ele>
        <time>2014-09-28T10:17:09Z</time>
      </trkpt>
      <trkpt lat="43.67002" lon="3.3532">
        <ele>143.2</ele>
        <time>2014-09-28T10:17:10Z</time>
      </trkpt>
      <trkpt lat="43.67002" lon="3.35328">
        <ele>142.7</ele>
        <time>2014-09-28T10:17:11Z</time>
      </trkpt>
      <trkpt lat="43.67001" lon="3.35337">
        <ele>142.1</ele>
        <time>2014-09-28T10:17:12Z</time>
      </trkpt>
      <trkpt lat="43.66998" lon="3.35344">
        <ele>141.4</ele>
        <time>2014-09-28T10:17:13Z</time>
      </trkpt>
      <trkpt lat="43.66995" lon="3.3535">
        <ele>140.8</ele>
        <time>2014-09-28T10:17:14Z</time>
      </trkpt>
      <trkpt lat="43.66993" lon="3.35356">
        <ele>140.2</ele>
        <time>2014-09-28T10:17:15Z</time>
      </trkpt>
      <trkpt lat="43.6699" lon="3.35362">
        <ele>139.6</ele>
        <time>2014-09-28T10:17:16Z</time>
      </trkpt>
      <trkpt lat="43.66986" lon="3.35371">
        <ele>138.7</ele>
        <time>2014-09-28T10:17:18Z</time>
      </trkpt>
      <trkpt lat="43.66985" lon="3.35378">
        <ele>138.2</ele>
        <time>2014-09-28T10:17:20Z</time>
      </trkpt>
      <trkpt lat="43.66986" lon="3.35385">
        <ele>138.2</ele>
        <time>2014-09-28T10:17:22Z</time>
      </trkpt>
      <trkpt lat="43.66989" lon="3.35393">
        <ele>138.3</ele>
        <time>2014-09-28T10:17:24Z</time>
      </trkpt>
      <trkpt lat="43.66992" lon="3.35402">
        <ele>138.4</ele>
        <time>2014-09-28T10:17:26Z</time>
      </trkpt>
      <trkpt lat="43.66995" lon="3.35411">
        <ele>138.5</ele>
        <time>2014-09-28T10:17:28Z</time>
      </trkpt>
      <trkpt lat="43.66998" lon="3.3542">
        <ele>138.6</ele>
        <time>2014-09-28T10:17:30Z</time>
      </trkpt>
      <trkpt lat="43.67001" lon="3.35429">
        <ele>138.6</ele>
        <time>2014-09-28T10:17:32Z</time>
      </trkpt>
      <trkpt lat="43.67003" lon="3.35438">
        <ele>138.5</ele>
        <time>2014-09-28T10:17:34Z</time>
      </trkpt>
      <trkpt lat="43.67002" lon="3.35449">
        <ele>138.3</ele>
        <time>2014-09-28T10:17:36Z</time>
      </trkpt>
      <trkpt lat="43.67002" lon="3.3546">
        <ele>138.1</ele>
        <time>2014-09-28T10:17:38Z</time>
      </trkpt>
      <trkpt lat="43.67004" lon="3.3547">
        <ele>138.3</ele>
        <time>2014-09-28T10:17:40Z</time>
      </trkpt>
      <trkpt lat="43.67005" lon="3.35481">
        <ele>138.6</ele>
        <time>2014-09-28T10:17:42Z</time>
      </trkpt>
      <trkpt lat="43.67007" lon="3.3549">
        <ele>138.8</ele>
        <time>2014-09-28T10:17:44Z</time>
      </trkpt>
      <trkpt lat="43.67008" lon="3.35499">
        <ele>139</ele>
        <time>2014-09-28T10:17:46Z</time>
      </trkpt>
      <trkpt lat="43.6701" lon="3.35507">
        <ele>139.2</ele>
        <time>2014-09-28T10:17:48Z</time>
      </trkpt>
      <trkpt lat="43.6701" lon="3.35514">
        <ele>139.3</ele>
        <time>2014-09-28T10:17:50Z</time>
      </trkpt>
      <trkpt lat="43.67007" lon="3.3552">
        <ele>139.2</ele>
        <time>2014-09-28T10:17:58Z</time>
      </trkpt>
      <trkpt lat="43.67004" lon="3.35525">
        <ele>139.1</ele>
        <time>2014-09-28T10:18:14Z</time>
      </trkpt>
      <trkpt lat="43.67008" lon="3.3553">
        <ele>139.4</ele>
        <time>2014-09-28T10:22:19Z</time>
      </trkpt>
      <trkpt lat="43.67003" lon="3.35528">
        <ele>139</ele>
        <time>2014-09-28T10:22:42Z</time>
      </trkpt>
      <trkpt lat="43.66998" lon="3.35533">
        <ele>138.8</ele>
        <time>2014-09-28T10:22:52Z</time>
      </trkpt>
      <trkpt lat="43.66994" lon="3.35533">
        <ele>138.4</ele>
        <time>2014-09-28T10:22:58Z</time>
      </trkpt>
      <trkpt lat="43.66998" lon="3.35534">
        <ele>138.8</ele>
        <time>2014-09-28T10:23:59Z</time>
      </trkpt>
      <trkpt lat="43.66994" lon="3.35531">
        <ele>138.5</ele>
        <time>2014-09-28T10:24:19Z</time>
      </trkpt>
      <trkpt lat="43.66994" lon="3.35532">
        <ele>138.5</ele>
        <time>2014-09-28T10:25:56Z</time>
      </trkpt>
      <trkpt lat="43.67003" lon="3.35531">
        <ele>139.1</ele>
        <time>2014-09-28T10:26:10Z</time>
      </trkpt>
      <trkpt lat="43.67006" lon="3.35523">
        <ele>139.1</ele>
        <time>2014-09-28T10:29:45Z</time>
      </trkpt>
      <trkpt lat="43.67002" lon="3.35519">
        <ele>138.9</ele>
        <time>2014-09-28T10:29:50Z</time>
      </trkpt>
      <trkpt lat="43.66998" lon="3.35518">
        <ele>138.6</ele>
        <time>2014-09-28T10:32:30Z</time>
      </trkpt>
      <trkpt lat="43.66993" lon="3.35517">
        <ele>138.2</ele>
        <time>2014-09-28T10:32:38Z</time>
      </trkpt>
      <trkpt lat="43.66988" lon="3.35517">
        <ele>137.9</ele>
        <time>2014-09-28T10:32:43Z</time>
      </trkpt>
      <trkpt lat="43.66983" lon="3.35516">
        <ele>137.6</ele>
        <time>2014-09-28T10:32:46Z</time>
      </trkpt>
      <trkpt lat="43.66977" lon="3.35517">
        <ele>137.2</ele>
        <time>2014-09-28T10:32:49Z</time>
      </trkpt>
      <trkpt lat="43.66972" lon="3.35518">
        <ele>136.9</ele>
        <time>2014-09-28T10:32:51Z</time>
      </trkpt>
      <trkpt lat="43.66965" lon="3.35519">
        <ele>136.4</ele>
        <time>2014-09-28T10:32:53Z</time>
      </trkpt>
      <trkpt lat="43.66958" lon="3.35521">
        <ele>136</ele>
        <time>2014-09-28T10:32:55Z</time>
      </trkpt>
      <trkpt lat="43.66952" lon="3.35522">
        <ele>136</ele>
        <time>2014-09-28T10:32:57Z</time>
      </trkpt>
      <trkpt lat="43.66946" lon="3.35523">
        <ele>136</ele>
        <time>2014-09-28T10:32:59Z</time>
      </trkpt>
      <trkpt lat="43.66939" lon="3.35525">
        <ele>136</ele>
        <time>2014-09-28T10:33:01Z</time>
      </trkpt>
      <trkpt lat="43.66933" lon="3.35527">
        <ele>136</ele>
        <time>2014-09-28T10:33:03Z</time>
      </trkpt>
      <trkpt lat="43.66927" lon="3.3553">
        <ele>136</ele>
        <time>2014-09-28T10:33:05Z</time>
      </trkpt>
      <trkpt lat="43.66923" lon="3.35536">
        <ele>136</ele>
        <time>2014-09-28T10:33:07Z</time>
      </trkpt>
      <trkpt lat="43.66921" lon="3.35542">
        <ele>136</ele>
        <time>2014-09-28T10:33:09Z</time>
      </trkpt>
      <trkpt lat="43.66918" lon="3.35549">
        <ele>136.1</ele>
        <time>2014-09-28T10:33:11Z</time>
      </trkpt>
      <trkpt lat="43.66915" lon="3.35556">
        <ele>136.2</ele>
        <time>2014-09-28T10:33:13Z</time>
      </trkpt>
      <trkpt lat="43.66913" lon="3.35563">
        <ele>136.3</ele>
        <time>2014-09-28T10:33:15Z</time>
      </trkpt>
      <trkpt lat="43.66911" lon="3.3557">
        <ele>136.4</ele>
        <time>2014-09-28T10:33:17Z</time>
      </trkpt>
      <trkpt lat="43.66908" lon="3.35578">
        <ele>136.5</ele>
        <time>2014-09-28T10:33:19Z</time>
      </trkpt>
      <trkpt lat="43.66906" lon="3.35586">
        <ele>136.6</ele>
        <time>2014-09-28T10:33:21Z</time>
      </trkpt>
      <trkpt lat="43.66904" lon="3.35596">
        <ele>136.7</ele>
        <time>2014-09-28T10:33:23Z</time>
      </trkpt>
      <trkpt lat="43.669" lon="3.35604">
        <ele>136.7</ele>
        <time>2014-09-28T10:33:25Z</time>
      </trkpt>
      <trkpt lat="43.66896" lon="3.35613">
        <ele>136.6</ele>
        <time>2014-09-28T10:33:27Z</time>
      </trkpt>
      <trkpt lat="43.66892" lon="3.35621">
        <ele>136.6</ele>
        <time>2014-09-28T10:33:29Z</time>
      </trkpt>
      <trkpt lat="43.66888" lon="3.3563">
        <ele>136.5</ele>
        <time>2014-09-28T10:33:31Z</time>
      </trkpt>
      <trkpt lat="43.66884" lon="3.35637">
        <ele>136.4</ele>
        <time>2014-09-28T10:33:33Z</time>
      </trkpt>
      <trkpt lat="43.66879" lon="3.35644">
        <ele>136.2</ele>
        <time>2014-09-28T10:33:35Z</time>
      </trkpt>
      <trkpt lat="43.66876" lon="3.3565">
        <ele>136</ele>
        <time>2014-09-28T10:33:37Z</time>
      </trkpt>
      <trkpt lat="43.66872" lon="3.35656">
        <ele>136</ele>
        <time>2014-09-28T10:33:39Z</time>
      </trkpt>
      <trkpt lat="43.66869" lon="3.35661">
        <ele>136</ele>
        <time>2014-09-28T10:33:41Z</time>
      </trkpt>
      <trkpt lat="43.66865" lon="3.35667">
        <ele>136</ele>
        <time>2014-09-28T10:33:43Z</time>
      </trkpt>
      <trkpt lat="43.66862" lon="3.35673">
        <ele>136</ele>
        <time>2014-09-28T10:33:45Z</time>
      </trkpt>
      <trkpt lat="43.66857" lon="3.35681">
        <ele>136</ele>
        <time>2014-09-28T10:33:47Z</time>
      </trkpt>
      <trkpt lat="43.66854" lon="3.35686">
        <ele>136</ele>
        <time>2014-09-28T10:33:48Z</time>
      </trkpt>
      <trkpt lat="43.66851" lon="3.35691">
        <ele>136</ele>
        <time>2014-09-28T10:33:49Z</time>
      </trkpt>
      <trkpt lat="43.66848" lon="3.35696">
        <ele>136</ele>
        <time>2014-09-28T10:33:50Z</time>
      </trkpt>
      <trkpt lat="43.66842" lon="3.35703">
        <ele>136</ele>
        <time>2014-09-28T10:33:52Z</time>
      </trkpt>
      <trkpt lat="43.66838" lon="3.35708">
        <ele>136</ele>
        <time>2014-09-28T10:33:54Z</time>
      </trkpt>
      <trkpt lat="43.66834" lon="3.35713">
        <ele>136.1</ele>
        <time>2014-09-28T10:33:56Z</time>
      </trkpt>
      <trkpt lat="43.6683" lon="3.35719">
        <ele>136.3</ele>
        <time>2014-09-28T10:33:58Z</time>
      </trkpt>
      <trkpt lat="43.66825" lon="3.35722">
        <ele>136.3</ele>
        <time>2014-09-28T10:34:00Z</time>
      </trkpt>
      <trkpt lat="43.66817" lon="3.35725">
        <ele>136.3</ele>
        <time>2014-09-28T10:34:02Z</time>
      </trkpt>
      <trkpt lat="43.66807" lon="3.35732">
        <ele>136.3</ele>
        <time>2014-09-28T10:34:03Z</time>
      </trkpt>
      <trkpt lat="43.66803" lon="3.35735">
        <ele>136.2</ele>
        <time>2014-09-28T10:34:05Z</time>
      </trkpt>
      <trkpt lat="43.66797" lon="3.35739">
        <ele>136.1</ele>
        <time>2014-09-28T10:34:07Z</time>
      </trkpt>
      <trkpt lat="43.66792" lon="3.35742">
        <ele>136</ele>
        <time>2014-09-28T10:34:09Z</time>
      </trkpt>
      <trkpt lat="43.66788" lon="3.35745">
        <ele>136</ele>
        <time>2014-09-28T10:34:11Z</time>
      </trkpt>
      <trkpt lat="43.66783" lon="3.35746">
        <ele>136</ele>
        <time>2014-09-28T10:34:13Z</time>
      </trkpt>
      <trkpt lat="43.66778" lon="3.35748">
        <ele>136</ele>
        <time>2014-09-28T10:34:15Z</time>
      </trkpt>
      <trkpt lat="43.66773" lon="3.3575">
        <ele>136</ele>
        <time>2014-09-28T10:34:17Z</time>
      </trkpt>
      <trkpt lat="43.66767" lon="3.35755">
        <ele>136</ele>
        <time>2014-09-28T10:34:20Z</time>
      </trkpt>
      <trkpt lat="43.66764" lon="3.35759">
        <ele>136</ele>
        <time>2014-09-28T10:34:22Z</time>
      </trkpt>
      <trkpt lat="43.66759" lon="3.35765">
        <ele>136</ele>
        <time>2014-09-28T10:34:25Z</time>
      </trkpt>
      <trkpt lat="43.66755" lon="3.3577">
        <ele>136</ele>
        <time>2014-09-28T10:34:28Z</time>
      </trkpt>
      <trkpt lat="43.66752" lon="3.35775">
        <ele>136</ele>
        <time>2014-09-28T10:34:30Z</time>
      </trkpt>
      <trkpt lat="43.66746" lon="3.35783">
        <ele>136</ele>
        <time>2014-09-28T10:34:32Z</time>
      </trkpt>
      <trkpt lat="43.66741" lon="3.35789">
        <ele>136</ele>
        <time>2014-09-28T10:34:33Z</time>
      </trkpt>
      <trkpt lat="43.66737" lon="3.35797">
        <ele>136.3</ele>
        <time>2014-09-28T10:34:34Z</time>
      </trkpt>
      <trkpt lat="43.66732" lon="3.35805">
        <ele>136.7</ele>
        <time>2014-09-28T10:34:35Z</time>
      </trkpt>
      <trkpt lat="43.66728" lon="3.35811">
        <ele>137</ele>
        <time>2014-09-28T10:34:36Z</time>
      </trkpt>
      <trkpt lat="43.66723" lon="3.35817">
        <ele>137.2</ele>
        <time>2014-09-28T10:34:37Z</time>
      </trkpt>
      <trkpt lat="43.6672" lon="3.35821">
        <ele>137.5</ele>
        <time>2014-09-28T10:34:38Z</time>
      </trkpt>
      <trkpt lat="43.66714" lon="3.35828">
        <ele>137.8</ele>
        <time>2014-09-28T10:34:40Z</time>
      </trkpt>
      <trkpt lat="43.66709" lon="3.35835">
        <ele>138.1</ele>
        <time>2014-09-28T10:34:42Z</time>
      </trkpt>
      <trkpt lat="43.66704" lon="3.35842">
        <ele>138.3</ele>
        <time>2014-09-28T10:34:44Z</time>
      </trkpt>
      <trkpt lat="43.66699" lon="3.35849">
        <ele>138.4</ele>
        <time>2014-09-28T10:34:45Z</time>
      </trkpt>
      <trkpt lat="43.66694" lon="3.35856">
        <ele>138.6</ele>
        <time>2014-09-28T10:34:48Z</time>
      </trkpt>
      <trkpt lat="43.6669" lon="3.35862">
        <ele>138.6</ele>
        <time>2014-09-28T10:34:50Z</time>
      </trkpt>
      <trkpt lat="43.66684" lon="3.35868">
        <ele>138.6</ele>
        <time>2014-09-28T10:34:52Z</time>
      </trkpt>
      <trkpt lat="43.66678" lon="3.35875">
        <ele>138.5</ele>
        <time>2014-09-28T10:34:54Z</time>
      </trkpt>
      <trkpt lat="43.66672" lon="3.35884">
        <ele>138.3</ele>
        <time>2014-09-28T10:34:56Z</time>
      </trkpt>
      <trkpt lat="43.66666" lon="3.35891">
        <ele>138.1</ele>
        <time>2014-09-28T10:34:58Z</time>
      </trkpt>
      <trkpt lat="43.66663" lon="3.35898">
        <ele>138</ele>
        <time>2014-09-28T10:35:00Z</time>
      </trkpt>
      <trkpt lat="43.66658" lon="3.35904">
        <ele>137.9</ele>
        <time>2014-09-28T10:35:03Z</time>
      </trkpt>
      <trkpt lat="43.66653" lon="3.35906">
        <ele>137.7</ele>
        <time>2014-09-28T10:35:05Z</time>
      </trkpt>
      <trkpt lat="43.66648" lon="3.35911">
        <ele>137.6</ele>
        <time>2014-09-28T10:35:07Z</time>
      </trkpt>
      <trkpt lat="43.66644" lon="3.3592">
        <ele>137.6</ele>
        <time>2014-09-28T10:35:09Z</time>
      </trkpt>
      <trkpt lat="43.66639" lon="3.35929">
        <ele>137.6</ele>
        <time>2014-09-28T10:35:11Z</time>
      </trkpt>
      <trkpt lat="43.66634" lon="3.35937">
        <ele>137.7</ele>
        <time>2014-09-28T10:35:13Z</time>
      </trkpt>
      <trkpt lat="43.66631" lon="3.35947">
        <ele>137.8</ele>
        <time>2014-09-28T10:35:15Z</time>
      </trkpt>
      <trkpt lat="43.66629" lon="3.35956">
        <ele>138</ele>
        <time>2014-09-28T10:35:17Z</time>
      </trkpt>
      <trkpt lat="43.66626" lon="3.35965">
        <ele>138</ele>
        <time>2014-09-28T10:35:19Z</time>
      </trkpt>
      <trkpt lat="43.6662" lon="3.35974">
        <ele>137.9</ele>
        <time>2014-09-28T10:35:21Z</time>
      </trkpt>
      <trkpt lat="43.66617" lon="3.35984">
        <ele>137.8</ele>
        <time>2014-09-28T10:35:23Z</time>
      </trkpt>
      <trkpt lat="43.66612" lon="3.35992">
        <ele>137.7</ele>
        <time>2014-09-28T10:35:25Z</time>
      </trkpt>
      <trkpt lat="43.66604" lon="3.35999">
        <ele>137.5</ele>
        <time>2014-09-28T10:35:27Z</time>
      </trkpt>
      <trkpt lat="43.666" lon="3.36003">
        <ele>137.4</ele>
        <time>2014-09-28T10:35:28Z</time>
      </trkpt>
      <trkpt lat="43.66594" lon="3.36009">
        <ele>137.3</ele>
        <time>2014-09-28T10:35:30Z</time>
      </trkpt>
      <trkpt lat="43.66588" lon="3.36014">
        <ele>137.1</ele>
        <time>2014-09-28T10:35:32Z</time>
      </trkpt>
      <trkpt lat="43.66584" lon="3.36022">
        <ele>137</ele>
        <time>2014-09-28T10:35:34Z</time>
      </trkpt>
      <trkpt lat="43.66584" lon="3.36033">
        <ele>137</ele>
        <time>2014-09-28T10:35:36Z</time>
      </trkpt>
      <trkpt lat="43.66586" lon="3.36042">
        <ele>137.1</ele>
        <time>2014-09-28T10:35:38Z</time>
      </trkpt>
      <trkpt lat="43.66589" lon="3.36051">
        <ele>137.1</ele>
        <time>2014-09-28T10:35:40Z</time>
      </trkpt>
      <trkpt lat="43.66592" lon="3.36058">
        <ele>137.2</ele>
        <time>2014-09-28T10:35:42Z</time>
      </trkpt>
      <trkpt lat="43.66596" lon="3.36062">
        <ele>137.3</ele>
        <time>2014-09-28T10:35:44Z</time>
      </trkpt>
      <trkpt lat="43.66601" lon="3.36065">
        <ele>137.4</ele>
        <time>2014-09-28T10:35:46Z</time>
      </trkpt>
      <trkpt lat="43.66606" lon="3.36068">
        <ele>137.5</ele>
        <time>2014-09-28T10:35:48Z</time>
      </trkpt>
      <trkpt lat="43.66611" lon="3.36074">
        <ele>137.7</ele>
        <time>2014-09-28T10:35:50Z</time>
      </trkpt>
      <trkpt lat="43.66615" lon="3.36081">
        <ele>137.7</ele>
        <time>2014-09-28T10:35:51Z</time>
      </trkpt>
      <trkpt lat="43.66619" lon="3.36092">
        <ele>137.9</ele>
        <time>2014-09-28T10:35:53Z</time>
      </trkpt>
      <trkpt lat="43.66626" lon="3.36106">
        <ele>138.1</ele>
        <time>2014-09-28T10:35:56Z</time>
      </trkpt>
      <trkpt lat="43.66629" lon="3.36118">
        <ele>138.3</ele>
        <time>2014-09-28T10:35:58Z</time>
      </trkpt>
      <trkpt lat="43.6663" lon="3.36124">
        <ele>138.4</ele>
        <time>2014-09-28T10:35:59Z</time>
      </trkpt>
      <trkpt lat="43.66631" lon="3.36131">
        <ele>138.5</ele>
        <time>2014-09-28T10:36:01Z</time>
      </trkpt>
      <trkpt lat="43.66631" lon="3.36137">
        <ele>138.5</ele>
        <time>2014-09-28T10:36:02Z</time>
      </trkpt>
      <trkpt lat="43.66627" lon="3.36147">
        <ele>138.1</ele>
        <time>2014-09-28T10:36:03Z</time>
      </trkpt>
      <trkpt lat="43.66623" lon="3.36152">
        <ele>138</ele>
        <time>2014-09-28T10:36:06Z</time>
      </trkpt>
      <trkpt lat="43.6662" lon="3.36165">
        <ele>137.9</ele>
        <time>2014-09-28T10:36:08Z</time>
      </trkpt>
      <trkpt lat="43.6662" lon="3.36171">
        <ele>137.9</ele>
        <time>2014-09-28T10:36:09Z</time>
      </trkpt>
      <trkpt lat="43.66621" lon="3.36183">
        <ele>137.9</ele>
        <time>2014-09-28T10:36:11Z</time>
      </trkpt>
      <trkpt lat="43.66624" lon="3.36195">
        <ele>138</ele>
        <time>2014-09-28T10:36:13Z</time>
      </trkpt>
      <trkpt lat="43.66631" lon="3.36209">
        <ele>138.6</ele>
        <time>2014-09-28T10:36:16Z</time>
      </trkpt>
      <trkpt lat="43.66635" lon="3.36218">
        <ele>139.3</ele>
        <time>2014-09-28T10:36:18Z</time>
      </trkpt>
      <trkpt lat="43.66636" lon="3.36228">
        <ele>139.6</ele>
        <time>2014-09-28T10:36:20Z</time>
      </trkpt>
      <trkpt lat="43.66636" lon="3.36242">
        <ele>139.9</ele>
        <time>2014-09-28T10:36:23Z</time>
      </trkpt>
      <trkpt lat="43.66637" lon="3.36252">
        <ele>140.2</ele>
        <time>2014-09-28T10:36:28Z</time>
      </trkpt>
      <trkpt lat="43.66634" lon="3.36264">
        <ele>140.2</ele>
        <time>2014-09-28T10:36:31Z</time>
      </trkpt>
      <trkpt lat="43.6663" lon="3.36268">
        <ele>139.9</ele>
        <time>2014-09-28T10:36:34Z</time>
      </trkpt>
      <trkpt lat="43.66624" lon="3.36269">
        <ele>139.4</ele>
        <time>2014-09-28T10:36:37Z</time>
      </trkpt>
      <trkpt lat="43.66619" lon="3.3627">
        <ele>139.2</ele>
        <time>2014-09-28T10:36:39Z</time>
      </trkpt>
      <trkpt lat="43.66613" lon="3.36272">
        <ele>139</ele>
        <time>2014-09-28T10:36:42Z</time>
      </trkpt>
      <trkpt lat="43.66607" lon="3.36273">
        <ele>138.8</ele>
        <time>2014-09-28T10:36:45Z</time>
      </trkpt>
      <trkpt lat="43.66601" lon="3.36273">
        <ele>138.5</ele>
        <time>2014-09-28T10:36:47Z</time>
      </trkpt>
      <trkpt lat="43.66595" lon="3.36273">
        <ele>138.3</ele>
        <time>2014-09-28T10:36:49Z</time>
      </trkpt>
      <trkpt lat="43.66587" lon="3.36275">
        <ele>138</ele>
        <time>2014-09-28T10:36:51Z</time>
      </trkpt>
      <trkpt lat="43.6658" lon="3.36278">
        <ele>137.7</ele>
        <time>2014-09-28T10:36:53Z</time>
      </trkpt>
      <trkpt lat="43.66574" lon="3.36279">
        <ele>137.4</ele>
        <time>2014-09-28T10:36:55Z</time>
      </trkpt>
      <trkpt lat="43.66568" lon="3.36284">
        <ele>137.2</ele>
        <time>2014-09-28T10:36:57Z</time>
      </trkpt>
      <trkpt lat="43.66563" lon="3.36291">
        <ele>137</ele>
        <time>2014-09-28T10:36:59Z</time>
      </trkpt>
      <trkpt lat="43.66558" lon="3.36299">
        <ele>137.2</ele>
        <time>2014-09-28T10:37:01Z</time>
      </trkpt>
      <trkpt lat="43.66553" lon="3.36309">
        <ele>137.6</ele>
        <time>2014-09-28T10:37:03Z</time>
      </trkpt>
      <trkpt lat="43.66551" lon="3.36314">
        <ele>137.8</ele>
        <time>2014-09-28T10:37:04Z</time>
      </trkpt>
      <trkpt lat="43.66549" lon="3.3632">
        <ele>138.1</ele>
        <time>2014-09-28T10:37:05Z</time>
      </trkpt>
      <trkpt lat="43.66548" lon="3.36327">
        <ele>138.4</ele>
        <time>2014-09-28T10:37:06Z</time>
      </trkpt>
      <trkpt lat="43.66548" lon="3.36333">
        <ele>138.8</ele>
        <time>2014-09-28T10:37:07Z</time>
      </trkpt>
      <trkpt lat="43.66547" lon="3.3634">
        <ele>139.2</ele>
        <time>2014-09-28T10:37:08Z</time>
      </trkpt>
      <trkpt lat="43.66547" lon="3.36347">
        <ele>139.5</ele>
        <time>2014-09-28T10:37:09Z</time>
      </trkpt>
      <trkpt lat="43.66546" lon="3.36354">
        <ele>139.9</ele>
        <time>2014-09-28T10:37:10Z</time>
      </trkpt>
      <trkpt lat="43.66547" lon="3.3636">
        <ele>140.3</ele>
        <time>2014-09-28T10:37:11Z</time>
      </trkpt>
      <trkpt lat="43.66547" lon="3.36367">
        <ele>140.8</ele>
        <time>2014-09-28T10:37:12Z</time>
      </trkpt>
      <trkpt lat="43.66549" lon="3.36373">
        <ele>141.2</ele>
        <time>2014-09-28T10:37:13Z</time>
      </trkpt>
      <trkpt lat="43.6655" lon="3.3638">
        <ele>141.4</ele>
        <time>2014-09-28T10:37:14Z</time>
      </trkpt>
      <trkpt lat="43.66551" lon="3.36387">
        <ele>141.4</ele>
        <time>2014-09-28T10:37:15Z</time>
      </trkpt>
      <trkpt lat="43.66553" lon="3.36394">
        <ele>141.5</ele>
        <time>2014-09-28T10:37:16Z</time>
      </trkpt>
      <trkpt lat="43.66553" lon="3.36394">
        <ele>141.5</ele>
        <time>2014-09-28T10:37:16Z</time>
      </trkpt>
      <trkpt lat="43.66554" lon="3.36401">
        <ele>141.5</ele>
        <time>2014-09-28T10:37:17Z</time>
      </trkpt>
      <trkpt lat="43.66555" lon="3.36414">
        <ele>141.6</ele>
        <time>2014-09-28T10:37:18Z</time>
      </trkpt>
      <trkpt lat="43.66555" lon="3.36421">
        <ele>141.5</ele>
        <time>2014-09-28T10:37:19Z</time>
      </trkpt>
      <trkpt lat="43.66554" lon="3.36427">
        <ele>141.5</ele>
        <time>2014-09-28T10:37:20Z</time>
      </trkpt>
      <trkpt lat="43.66552" lon="3.36433">
        <ele>141.4</ele>
        <time>2014-09-28T10:37:21Z</time>
      </trkpt>
      <trkpt lat="43.6655" lon="3.3644">
        <ele>141.3</ele>
        <time>2014-09-28T10:37:23Z</time>
      </trkpt>
      <trkpt lat="43.66547" lon="3.36446">
        <ele>141.2</ele>
        <time>2014-09-28T10:37:24Z</time>
      </trkpt>
      <trkpt lat="43.66544" lon="3.36452">
        <ele>141.1</ele>
        <time>2014-09-28T10:37:25Z</time>
      </trkpt>
      <trkpt lat="43.66538" lon="3.36462">
        <ele>140.8</ele>
        <time>2014-09-28T10:37:26Z</time>
      </trkpt>
      <trkpt lat="43.66535" lon="3.36467">
        <ele>140.8</ele>
        <time>2014-09-28T10:37:28Z</time>
      </trkpt>
      <trkpt lat="43.66532" lon="3.36478">
        <ele>140.8</ele>
        <time>2014-09-28T10:37:30Z</time>
      </trkpt>
      <trkpt lat="43.66528" lon="3.36488">
        <ele>140.8</ele>
        <time>2014-09-28T10:37:32Z</time>
      </trkpt>
      <trkpt lat="43.66524" lon="3.36495">
        <ele>140.6</ele>
        <time>2014-09-28T10:37:34Z</time>
      </trkpt>
      <trkpt lat="43.66518" lon="3.36502">
        <ele>140.3</ele>
        <time>2014-09-28T10:37:36Z</time>
      </trkpt>
      <trkpt lat="43.66512" lon="3.36509">
        <ele>140</ele>
        <time>2014-09-28T10:37:38Z</time>
      </trkpt>
      <trkpt lat="43.66505" lon="3.36518">
        <ele>139.6</ele>
        <time>2014-09-28T10:37:40Z</time>
      </trkpt>
      <trkpt lat="43.66502" lon="3.36523">
        <ele>139.4</ele>
        <time>2014-09-28T10:37:41Z</time>
      </trkpt>
      <trkpt lat="43.66499" lon="3.36529">
        <ele>139.2</ele>
        <time>2014-09-28T10:37:42Z</time>
      </trkpt>
      <trkpt lat="43.66496" lon="3.36534">
        <ele>139.1</ele>
        <time>2014-09-28T10:37:43Z</time>
      </trkpt>
      <trkpt lat="43.66494" lon="3.36545">
        <ele>139</ele>
        <time>2014-09-28T10:37:45Z</time>
      </trkpt>
      <trkpt lat="43.66493" lon="3.36556">
        <ele>139</ele>
        <time>2014-09-28T10:37:47Z</time>
      </trkpt>
      <trkpt lat="43.66491" lon="3.36575">
        <ele>138.9</ele>
        <time>2014-09-28T10:37:49Z</time>
      </trkpt>
      <trkpt lat="43.6649" lon="3.36581">
        <ele>138.8</ele>
        <time>2014-09-28T10:37:50Z</time>
      </trkpt>
      <trkpt lat="43.66489" lon="3.36587">
        <ele>138.8</ele>
        <time>2014-09-28T10:37:52Z</time>
      </trkpt>
      <trkpt lat="43.66487" lon="3.36593">
        <ele>138.6</ele>
        <time>2014-09-28T10:37:53Z</time>
      </trkpt>
      <trkpt lat="43.66481" lon="3.36601">
        <ele>138.1</ele>
        <time>2014-09-28T10:37:54Z</time>
      </trkpt>
      <trkpt lat="43.66475" lon="3.36606">
        <ele>137.6</ele>
        <time>2014-09-28T10:37:56Z</time>
      </trkpt>
      <trkpt lat="43.66471" lon="3.36612">
        <ele>137.2</ele>
        <time>2014-09-28T10:38:00Z</time>
      </trkpt>
      <trkpt lat="43.66469" lon="3.36617">
        <ele>137</ele>
        <time>2014-09-28T10:38:02Z</time>
      </trkpt>
      <trkpt lat="43.66467" lon="3.36624">
        <ele>136.8</ele>
        <time>2014-09-28T10:38:04Z</time>
      </trkpt>
      <trkpt lat="43.66465" lon="3.36632">
        <ele>137</ele>
        <time>2014-09-28T10:38:06Z</time>
      </trkpt>
      <trkpt lat="43.66463" lon="3.36639">
        <ele>137.1</ele>
        <time>2014-09-28T10:38:08Z</time>
      </trkpt>
      <trkpt lat="43.66461" lon="3.36646">
        <ele>137.3</ele>
        <time>2014-09-28T10:38:10Z</time>
      </trkpt>
      <trkpt lat="43.66459" lon="3.36654">
        <ele>137.4</ele>
        <time>2014-09-28T10:38:12Z</time>
      </trkpt>
      <trkpt lat="43.66457" lon="3.36663">
        <ele>137.8</ele>
        <time>2014-09-28T10:38:13Z</time>
      </trkpt>
      <trkpt lat="43.66456" lon="3.36673">
        <ele>138.2</ele>
        <time>2014-09-28T10:38:15Z</time>
      </trkpt>
      <trkpt lat="43.66455" lon="3.36683">
        <ele>138.6</ele>
        <time>2014-09-28T10:38:18Z</time>
      </trkpt>
      <trkpt lat="43.66451" lon="3.36691">
        <ele>138.9</ele>
        <time>2014-09-28T10:38:19Z</time>
      </trkpt>
      <trkpt lat="43.66447" lon="3.36698">
        <ele>139.1</ele>
        <time>2014-09-28T10:38:22Z</time>
      </trkpt>
      <trkpt lat="43.66444" lon="3.36706">
        <ele>139.2</ele>
        <time>2014-09-28T10:38:24Z</time>
      </trkpt>
      <trkpt lat="43.6644" lon="3.36719">
        <ele>139.4</ele>
        <time>2014-09-28T10:38:26Z</time>
      </trkpt>
      <trkpt lat="43.66439" lon="3.36728">
        <ele>139.6</ele>
        <time>2014-09-28T10:38:28Z</time>
      </trkpt>
      <trkpt lat="43.66437" lon="3.36737">
        <ele>139.7</ele>
        <time>2014-09-28T10:38:31Z</time>
      </trkpt>
      <trkpt lat="43.66434" lon="3.36745">
        <ele>139.8</ele>
        <time>2014-09-28T10:38:33Z</time>
      </trkpt>
      <trkpt lat="43.66432" lon="3.36754">
        <ele>139.9</ele>
        <time>2014-09-28T10:38:35Z</time>
      </trkpt>
      <trkpt lat="43.6643" lon="3.36762">
        <ele>139.9</ele>
        <time>2014-09-28T10:38:37Z</time>
      </trkpt>
      <trkpt lat="43.66429" lon="3.3677">
        <ele>140</ele>
        <time>2014-09-28T10:38:39Z</time>
      </trkpt>
      <trkpt lat="43.66426" lon="3.3678">
        <ele>140.1</ele>
        <time>2014-09-28T10:38:40Z</time>
      </trkpt>
      <trkpt lat="43.66426" lon="3.368">
        <ele>140.5</ele>
        <time>2014-09-28T10:38:43Z</time>
      </trkpt>
      <trkpt lat="43.66427" lon="3.36808">
        <ele>140.8</ele>
        <time>2014-09-28T10:38:44Z</time>
      </trkpt>
      <trkpt lat="43.66426" lon="3.36815">
        <ele>141</ele>
        <time>2014-09-28T10:38:45Z</time>
      </trkpt>
      <trkpt lat="43.66426" lon="3.36823">
        <ele>141.2</ele>
        <time>2014-09-28T10:38:46Z</time>
      </trkpt>
      <trkpt lat="43.66425" lon="3.36831">
        <ele>141.3</ele>
        <time>2014-09-28T10:38:48Z</time>
      </trkpt>
      <trkpt lat="43.66424" lon="3.36838">
        <ele>141.4</ele>
        <time>2014-09-28T10:38:49Z</time>
      </trkpt>
      <trkpt lat="43.66419" lon="3.36849">
        <ele>141.4</ele>
        <time>2014-09-28T10:38:50Z</time>
      </trkpt>
      <trkpt lat="43.6641" lon="3.36863">
        <ele>141.2</ele>
        <time>2014-09-28T10:38:53Z</time>
      </trkpt>
      <trkpt lat="43.66405" lon="3.36872">
        <ele>141</ele>
        <time>2014-09-28T10:38:56Z</time>
      </trkpt>
      <trkpt lat="43.66401" lon="3.3688">
        <ele>141.1</ele>
        <time>2014-09-28T10:38:58Z</time>
      </trkpt>
      <trkpt lat="43.66397" lon="3.36889">
        <ele>141.1</ele>
        <time>2014-09-28T10:39:00Z</time>
      </trkpt>
      <trkpt lat="43.66392" lon="3.36898">
        <ele>141.1</ele>
        <time>2014-09-28T10:39:02Z</time>
      </trkpt>
      <trkpt lat="43.66384" lon="3.36908">
        <ele>140.7</ele>
        <time>2014-09-28T10:39:04Z</time>
      </trkpt>
      <trkpt lat="43.66381" lon="3.36915">
        <ele>140.5</ele>
        <time>2014-09-28T10:39:08Z</time>
      </trkpt>
      <trkpt lat="43.66378" lon="3.36921">
        <ele>140.4</ele>
        <time>2014-09-28T10:39:10Z</time>
      </trkpt>
      <trkpt lat="43.66375" lon="3.36928">
        <ele>140.3</ele>
        <time>2014-09-28T10:39:12Z</time>
      </trkpt>
      <trkpt lat="43.66372" lon="3.36935">
        <ele>140.4</ele>
        <time>2014-09-28T10:39:14Z</time>
      </trkpt>
      <trkpt lat="43.66369" lon="3.36944">
        <ele>140.6</ele>
        <time>2014-09-28T10:39:16Z</time>
      </trkpt>
      <trkpt lat="43.66367" lon="3.36953">
        <ele>140.9</ele>
        <time>2014-09-28T10:39:18Z</time>
      </trkpt>
      <trkpt lat="43.66364" lon="3.36962">
        <ele>141</ele>
        <time>2014-09-28T10:39:20Z</time>
      </trkpt>
      <trkpt lat="43.66362" lon="3.36973">
        <ele>141.1</ele>
        <time>2014-09-28T10:39:21Z</time>
      </trkpt>
      <trkpt lat="43.66358" lon="3.36988">
        <ele>141.2</ele>
        <time>2014-09-28T10:39:24Z</time>
      </trkpt>
      <trkpt lat="43.66354" lon="3.36997">
        <ele>141.2</ele>
        <time>2014-09-28T10:39:26Z</time>
      </trkpt>
      <trkpt lat="43.66348" lon="3.37005">
        <ele>141.2</ele>
        <time>2014-09-28T10:39:28Z</time>
      </trkpt>
      <trkpt lat="43.66344" lon="3.37009">
        <ele>141.2</ele>
        <time>2014-09-28T10:39:29Z</time>
      </trkpt>
      <trkpt lat="43.66338" lon="3.37016">
        <ele>141.1</ele>
        <time>2014-09-28T10:39:31Z</time>
      </trkpt>
      <trkpt lat="43.66333" lon="3.37023">
        <ele>141</ele>
        <time>2014-09-28T10:39:33Z</time>
      </trkpt>
      <trkpt lat="43.66329" lon="3.3703">
        <ele>140.9</ele>
        <time>2014-09-28T10:39:35Z</time>
      </trkpt>
      <trkpt lat="43.66326" lon="3.37037">
        <ele>140.8</ele>
        <time>2014-09-28T10:39:38Z</time>
      </trkpt>
      <trkpt lat="43.66323" lon="3.37041">
        <ele>140.7</ele>
        <time>2014-09-28T10:39:45Z</time>
      </trkpt>
      <trkpt lat="43.66318" lon="3.37045">
        <ele>140.7</ele>
        <time>2014-09-28T10:39:50Z</time>
      </trkpt>
      <trkpt lat="43.66313" lon="3.37049">
        <ele>140.7</ele>
        <time>2014-09-28T10:39:53Z</time>
      </trkpt>
      <trkpt lat="43.66307" lon="3.37058">
        <ele>140.8</ele>
        <time>2014-09-28T10:39:56Z</time>
      </trkpt>
      <trkpt lat="43.66304" lon="3.37062">
        <ele>140.8</ele>
        <time>2014-09-28T10:39:58Z</time>
      </trkpt>
      <trkpt lat="43.663" lon="3.37067">
        <ele>140.8</ele>
        <time>2014-09-28T10:40:00Z</time>
      </trkpt>
      <trkpt lat="43.66294" lon="3.37077">
        <ele>140.9</ele>
        <time>2014-09-28T10:40:03Z</time>
      </trkpt>
      <trkpt lat="43.66291" lon="3.37084">
        <ele>141</ele>
        <time>2014-09-28T10:40:05Z</time>
      </trkpt>
      <trkpt lat="43.66287" lon="3.37094">
        <ele>141.1</ele>
        <time>2014-09-28T10:40:08Z</time>
      </trkpt>
      <trkpt lat="43.66285" lon="3.37103">
        <ele>141.2</ele>
        <time>2014-09-28T10:40:10Z</time>
      </trkpt>
      <trkpt lat="43.66286" lon="3.37117">
        <ele>141.5</ele>
        <time>2014-09-28T10:40:13Z</time>
      </trkpt>
      <trkpt lat="43.66286" lon="3.37128">
        <ele>141.7</ele>
        <time>2014-09-28T10:40:15Z</time>
      </trkpt>
      <trkpt lat="43.66288" lon="3.37143">
        <ele>141.4</ele>
        <time>2014-09-28T10:40:18Z</time>
      </trkpt>
      <trkpt lat="43.6629" lon="3.37152">
        <ele>141.3</ele>
        <time>2014-09-28T10:40:20Z</time>
      </trkpt>
      <trkpt lat="43.66292" lon="3.37165">
        <ele>141.1</ele>
        <time>2014-09-28T10:40:23Z</time>
      </trkpt>
      <trkpt lat="43.66292" lon="3.37172">
        <ele>140.9</ele>
        <time>2014-09-28T10:40:25Z</time>
      </trkpt>
      <trkpt lat="43.66291" lon="3.37181">
        <ele>140.6</ele>
        <time>2014-09-28T10:40:28Z</time>
      </trkpt>
      <trkpt lat="43.66291" lon="3.37188">
        <ele>140.5</ele>
        <time>2014-09-28T10:40:43Z</time>
      </trkpt>
      <trkpt lat="43.6629" lon="3.37194">
        <ele>140.2</ele>
        <time>2014-09-28T10:40:46Z</time>
      </trkpt>
      <trkpt lat="43.66287" lon="3.37203">
        <ele>139.9</ele>
        <time>2014-09-28T10:40:48Z</time>
      </trkpt>
      <trkpt lat="43.66286" lon="3.37209">
        <ele>139.7</ele>
        <time>2014-09-28T10:40:50Z</time>
      </trkpt>
      <trkpt lat="43.66284" lon="3.37222">
        <ele>139.5</ele>
        <time>2014-09-28T10:40:53Z</time>
      </trkpt>
      <trkpt lat="43.66281" lon="3.37237">
        <ele>139.2</ele>
        <time>2014-09-28T10:40:56Z</time>
      </trkpt>
      <trkpt lat="43.66278" lon="3.3725">
        <ele>138.9</ele>
        <time>2014-09-28T10:40:58Z</time>
      </trkpt>
      <trkpt lat="43.66276" lon="3.37256">
        <ele>138.8</ele>
        <time>2014-09-28T10:40:59Z</time>
      </trkpt>
      <trkpt lat="43.66272" lon="3.37265">
        <ele>138.5</ele>
        <time>2014-09-28T10:41:01Z</time>
      </trkpt>
      <trkpt lat="43.66268" lon="3.37275">
        <ele>138.3</ele>
        <time>2014-09-28T10:41:03Z</time>
      </trkpt>
      <trkpt lat="43.66265" lon="3.37285">
        <ele>138.1</ele>
        <time>2014-09-28T10:41:05Z</time>
      </trkpt>
      <trkpt lat="43.66264" lon="3.37303">
        <ele>138.3</ele>
        <time>2014-09-28T10:41:08Z</time>
      </trkpt>
      <trkpt lat="43.66266" lon="3.37314">
        <ele>138.6</ele>
        <time>2014-09-28T10:41:10Z</time>
      </trkpt>
      <trkpt lat="43.66269" lon="3.37331">
        <ele>139.2</ele>
        <time>2014-09-28T10:41:13Z</time>
      </trkpt>
      <trkpt lat="43.66267" lon="3.37342">
        <ele>139.4</ele>
        <time>2014-09-28T10:41:15Z</time>
      </trkpt>
      <trkpt lat="43.66264" lon="3.37354">
        <ele>139.5</ele>
        <time>2014-09-28T10:41:18Z</time>
      </trkpt>
      <trkpt lat="43.66261" lon="3.37363">
        <ele>139.5</ele>
        <time>2014-09-28T10:41:20Z</time>
      </trkpt>
      <trkpt lat="43.66257" lon="3.37373">
        <ele>139.5</ele>
        <time>2014-09-28T10:41:23Z</time>
      </trkpt>
      <trkpt lat="43.66255" lon="3.37385">
        <ele>139.2</ele>
        <time>2014-09-28T10:41:24Z</time>
      </trkpt>
      <trkpt lat="43.66255" lon="3.37392">
        <ele>139.2</ele>
        <time>2014-09-28T10:41:25Z</time>
      </trkpt>
      <trkpt lat="43.66256" lon="3.37398">
        <ele>139.1</ele>
        <time>2014-09-28T10:41:26Z</time>
      </trkpt>
      <trkpt lat="43.66258" lon="3.37411">
        <ele>139.1</ele>
        <time>2014-09-28T10:41:28Z</time>
      </trkpt>
      <trkpt lat="43.6626" lon="3.37418">
        <ele>139.1</ele>
        <time>2014-09-28T10:41:29Z</time>
      </trkpt>
      <trkpt lat="43.66261" lon="3.37425">
        <ele>139</ele>
        <time>2014-09-28T10:41:30Z</time>
      </trkpt>
      <trkpt lat="43.66262" lon="3.37431">
        <ele>139</ele>
        <time>2014-09-28T10:41:31Z</time>
      </trkpt>
      <trkpt lat="43.66266" lon="3.37443">
        <ele>139</ele>
        <time>2014-09-28T10:41:33Z</time>
      </trkpt>
      <trkpt lat="43.66271" lon="3.37451">
        <ele>139.1</ele>
        <time>2014-09-28T10:41:35Z</time>
      </trkpt>
      <trkpt lat="43.66276" lon="3.37467">
        <ele>139</ele>
        <time>2014-09-28T10:41:38Z</time>
      </trkpt>
      <trkpt lat="43.66274" lon="3.37478">
        <ele>138.6</ele>
        <time>2014-09-28T10:41:40Z</time>
      </trkpt>
      <trkpt lat="43.66274" lon="3.37491">
        <ele>138.2</ele>
        <time>2014-09-28T10:41:43Z</time>
      </trkpt>
      <trkpt lat="43.66273" lon="3.37499">
        <ele>138</ele>
        <time>2014-09-28T10:41:45Z</time>
      </trkpt>
      <trkpt lat="43.66272" lon="3.37513">
        <ele>137.5</ele>
        <time>2014-09-28T10:41:48Z</time>
      </trkpt>
      <trkpt lat="43.66273" lon="3.37524">
        <ele>137.3</ele>
        <time>2014-09-28T10:41:50Z</time>
      </trkpt>
      <trkpt lat="43.66277" lon="3.37537">
        <ele>137</ele>
        <time>2014-09-28T10:41:53Z</time>
      </trkpt>
      <trkpt lat="43.66281" lon="3.37544">
        <ele>136.9</ele>
        <time>2014-09-28T10:41:55Z</time>
      </trkpt>
      <trkpt lat="43.66285" lon="3.37556">
        <ele>136.9</ele>
        <time>2014-09-28T10:41:58Z</time>
      </trkpt>
      <trkpt lat="43.66286" lon="3.37566">
        <ele>136.9</ele>
        <time>2014-09-28T10:42:00Z</time>
      </trkpt>
      <trkpt lat="43.66287" lon="3.37579">
        <ele>136.9</ele>
        <time>2014-09-28T10:42:03Z</time>
      </trkpt>
      <trkpt lat="43.66286" lon="3.37588">
        <ele>136.9</ele>
        <time>2014-09-28T10:42:05Z</time>
      </trkpt>
      <trkpt lat="43.66283" lon="3.37602">
        <ele>136.9</ele>
        <time>2014-09-28T10:42:08Z</time>
      </trkpt>
      <trkpt lat="43.66282" lon="3.37611">
        <ele>136.9</ele>
        <time>2014-09-28T10:42:10Z</time>
      </trkpt>
      <trkpt lat="43.66278" lon="3.37624">
        <ele>136.8</ele>
        <time>2014-09-28T10:42:13Z</time>
      </trkpt>
      <trkpt lat="43.66275" lon="3.37634">
        <ele>137</ele>
        <time>2014-09-28T10:42:15Z</time>
      </trkpt>
      <trkpt lat="43.66273" lon="3.37648">
        <ele>137.2</ele>
        <time>2014-09-28T10:42:18Z</time>
      </trkpt>
      <trkpt lat="43.66275" lon="3.37657">
        <ele>137.4</ele>
        <time>2014-09-28T10:42:20Z</time>
      </trkpt>
      <trkpt lat="43.66278" lon="3.37669">
        <ele>137.7</ele>
        <time>2014-09-28T10:42:23Z</time>
      </trkpt>
      <trkpt lat="43.66281" lon="3.37676">
        <ele>137.9</ele>
        <time>2014-09-28T10:42:25Z</time>
      </trkpt>
      <trkpt lat="43.66281" lon="3.37686">
        <ele>138.1</ele>
        <time>2014-09-28T10:42:28Z</time>
      </trkpt>
      <trkpt lat="43.66278" lon="3.3769">
        <ele>138.1</ele>
        <time>2014-09-28T10:42:30Z</time>
      </trkpt>
      <trkpt lat="43.66275" lon="3.37698">
        <ele>138.2</ele>
        <time>2014-09-28T10:42:33Z</time>
      </trkpt>
      <trkpt lat="43.66274" lon="3.37705">
        <ele>138.3</ele>
        <time>2014-09-28T10:42:35Z</time>
      </trkpt>
      <trkpt lat="43.66272" lon="3.37714">
        <ele>138.4</ele>
        <time>2014-09-28T10:42:38Z</time>
      </trkpt>
      <trkpt lat="43.66268" lon="3.3772">
        <ele>138.5</ele>
        <time>2014-09-28T10:42:40Z</time>
      </trkpt>
      <trkpt lat="43.66264" lon="3.37729">
        <ele>138.5</ele>
        <time>2014-09-28T10:42:43Z</time>
      </trkpt>
      <trkpt lat="43.66264" lon="3.37736">
        <ele>138.7</ele>
        <time>2014-09-28T10:42:45Z</time>
      </trkpt>
      <trkpt lat="43.66262" lon="3.37745">
        <ele>138.8</ele>
        <time>2014-09-28T10:42:48Z</time>
      </trkpt>
      <trkpt lat="43.66259" lon="3.37752">
        <ele>138.7</ele>
        <time>2014-09-28T10:42:51Z</time>
      </trkpt>
      <trkpt lat="43.66259" lon="3.37758">
        <ele>138.9</ele>
        <time>2014-09-28T10:42:53Z</time>
      </trkpt>
      <trkpt lat="43.66259" lon="3.37766">
        <ele>139.1</ele>
        <time>2014-09-28T10:42:55Z</time>
      </trkpt>
      <trkpt lat="43.66255" lon="3.37774">
        <ele>139</ele>
        <time>2014-09-28T10:42:58Z</time>
      </trkpt>
      <trkpt lat="43.66253" lon="3.3778">
        <ele>139</ele>
        <time>2014-09-28T10:43:05Z</time>
      </trkpt>
      <trkpt lat="43.66249" lon="3.37784">
        <ele>138.8</ele>
        <time>2014-09-28T10:43:13Z</time>
      </trkpt>
      <trkpt lat="43.66246" lon="3.3779">
        <ele>138.7</ele>
        <time>2014-09-28T10:43:18Z</time>
      </trkpt>
      <trkpt lat="43.66243" lon="3.37797">
        <ele>138.5</ele>
        <time>2014-09-28T10:43:23Z</time>
      </trkpt>
      <trkpt lat="43.66239" lon="3.37802">
        <ele>138.3</ele>
        <time>2014-09-28T10:43:28Z</time>
      </trkpt>
      <trkpt lat="43.66235" lon="3.37808">
        <ele>137.9</ele>
        <time>2014-09-28T10:43:31Z</time>
      </trkpt>
      <trkpt lat="43.66232" lon="3.37817">
        <ele>137.7</ele>
        <time>2014-09-28T10:43:34Z</time>
      </trkpt>
      <trkpt lat="43.66229" lon="3.37824">
        <ele>137.5</ele>
        <time>2014-09-28T10:43:36Z</time>
      </trkpt>
      <trkpt lat="43.66225" lon="3.3783">
        <ele>137.1</ele>
        <time>2014-09-28T10:43:38Z</time>
      </trkpt>
      <trkpt lat="43.6622" lon="3.37836">
        <ele>136.6</ele>
        <time>2014-09-28T10:43:40Z</time>
      </trkpt>
      <trkpt lat="43.66215" lon="3.37849">
        <ele>136</ele>
        <time>2014-09-28T10:43:43Z</time>
      </trkpt>
      <trkpt lat="43.66212" lon="3.37857">
        <ele>135.6</ele>
        <time>2014-09-28T10:43:45Z</time>
      </trkpt>
      <trkpt lat="43.66211" lon="3.3787">
        <ele>135.3</ele>
        <time>2014-09-28T10:43:48Z</time>
      </trkpt>
      <trkpt lat="43.6621" lon="3.37878">
        <ele>135.3</ele>
        <time>2014-09-28T10:43:50Z</time>
      </trkpt>
      <trkpt lat="43.66211" lon="3.3789">
        <ele>135.9</ele>
        <time>2014-09-28T10:43:53Z</time>
      </trkpt>
      <trkpt lat="43.66209" lon="3.37901">
        <ele>136</ele>
        <time>2014-09-28T10:43:55Z</time>
      </trkpt>
      <trkpt lat="43.66207" lon="3.37907">
        <ele>136.2</ele>
        <time>2014-09-28T10:43:56Z</time>
      </trkpt>
      <trkpt lat="43.66206" lon="3.37919">
        <ele>136.6</ele>
        <time>2014-09-28T10:43:58Z</time>
      </trkpt>
      <trkpt lat="43.66208" lon="3.37928">
        <ele>136.9</ele>
        <time>2014-09-28T10:44:00Z</time>
      </trkpt>
      <trkpt lat="43.66211" lon="3.37935">
        <ele>137.6</ele>
        <time>2014-09-28T10:44:03Z</time>
      </trkpt>
      <trkpt lat="43.66206" lon="3.37937">
        <ele>137.2</ele>
        <time>2014-09-28T10:44:06Z</time>
      </trkpt>
      <trkpt lat="43.662" lon="3.37934">
        <ele>137</ele>
        <time>2014-09-28T10:44:09Z</time>
      </trkpt>
      <trkpt lat="43.66192" lon="3.37934">
        <ele>136.9</ele>
        <time>2014-09-28T10:44:13Z</time>
      </trkpt>
      <trkpt lat="43.66188" lon="3.3794">
        <ele>137</ele>
        <time>2014-09-28T10:44:16Z</time>
      </trkpt>
      <trkpt lat="43.66185" lon="3.37945">
        <ele>137.1</ele>
        <time>2014-09-28T10:44:19Z</time>
      </trkpt>
      <trkpt lat="43.66182" lon="3.37952">
        <ele>137.2</ele>
        <time>2014-09-28T10:44:23Z</time>
      </trkpt>
      <trkpt lat="43.6618" lon="3.37962">
        <ele>137.7</ele>
        <time>2014-09-28T10:44:28Z</time>
      </trkpt>
      <trkpt lat="43.66178" lon="3.37969">
        <ele>138.2</ele>
        <time>2014-09-28T10:44:31Z</time>
      </trkpt>
      <trkpt lat="43.66178" lon="3.37976">
        <ele>138.9</ele>
        <time>2014-09-28T10:44:39Z</time>
      </trkpt>
      <trkpt lat="43.66176" lon="3.37983">
        <ele>139.5</ele>
        <time>2014-09-28T10:44:44Z</time>
      </trkpt>
      <trkpt lat="43.66173" lon="3.37988">
        <ele>139.8</ele>
        <time>2014-09-28T10:44:50Z</time>
      </trkpt>
      <trkpt lat="43.6617" lon="3.37995">
        <ele>140.3</ele>
        <time>2014-09-28T10:44:53Z</time>
      </trkpt>
      <trkpt lat="43.66168" lon="3.38004">
        <ele>140.9</ele>
        <time>2014-09-28T10:44:56Z</time>
      </trkpt>
      <trkpt lat="43.66167" lon="3.3801">
        <ele>141.4</ele>
        <time>2014-09-28T10:44:58Z</time>
      </trkpt>
      <trkpt lat="43.66168" lon="3.38017">
        <ele>142</ele>
        <time>2014-09-28T10:45:00Z</time>
      </trkpt>
      <trkpt lat="43.66169" lon="3.38025">
        <ele>142.8</ele>
        <time>2014-09-28T10:45:03Z</time>
      </trkpt>
      <trkpt lat="43.66169" lon="3.38033">
        <ele>143.5</ele>
        <time>2014-09-28T10:45:06Z</time>
      </trkpt>
      <trkpt lat="43.6617" lon="3.38039">
        <ele>144.1</ele>
        <time>2014-09-28T10:45:09Z</time>
      </trkpt>
      <trkpt lat="43.66173" lon="3.38048">
        <ele>144.8</ele>
        <time>2014-09-28T10:45:13Z</time>
      </trkpt>
      <trkpt lat="43.66176" lon="3.38053">
        <ele>145.3</ele>
        <time>2014-09-28T10:45:16Z</time>
      </trkpt>
      <trkpt lat="43.66178" lon="3.38059">
        <ele>145.8</ele>
        <time>2014-09-28T10:45:19Z</time>
      </trkpt>
      <trkpt lat="43.6618" lon="3.38066">
        <ele>146.2</ele>
        <time>2014-09-28T10:45:23Z</time>
      </trkpt>
      <trkpt lat="43.6618" lon="3.38074">
        <ele>146.5</ele>
        <time>2014-09-28T10:45:26Z</time>
      </trkpt>
      <trkpt lat="43.66178" lon="3.38082">
        <ele>146.6</ele>
        <time>2014-09-28T10:45:28Z</time>
      </trkpt>
      <trkpt lat="43.66179" lon="3.38089">
        <ele>147</ele>
        <time>2014-09-28T10:45:31Z</time>
      </trkpt>
      <trkpt lat="43.66181" lon="3.38095">
        <ele>147.5</ele>
        <time>2014-09-28T10:45:35Z</time>
      </trkpt>
      <trkpt lat="43.66181" lon="3.38102">
        <ele>147.8</ele>
        <time>2014-09-28T10:45:46Z</time>
      </trkpt>
      <trkpt lat="43.66182" lon="3.38109">
        <ele>148.2</ele>
        <time>2014-09-28T10:45:55Z</time>
      </trkpt>
      <trkpt lat="43.66185" lon="3.38118">
        <ele>149</ele>
        <time>2014-09-28T10:45:58Z</time>
      </trkpt>
      <trkpt lat="43.66182" lon="3.38123">
        <ele>148.8</ele>
        <time>2014-09-28T10:46:00Z</time>
      </trkpt>
      <trkpt lat="43.6618" lon="3.3813">
        <ele>148.7</ele>
        <time>2014-09-28T10:46:04Z</time>
      </trkpt>
      <trkpt lat="43.66177" lon="3.38136">
        <ele>148.4</ele>
        <time>2014-09-28T10:46:10Z</time>
      </trkpt>
      <trkpt lat="43.66173" lon="3.38142">
        <ele>147.9</ele>
        <time>2014-09-28T10:46:16Z</time>
      </trkpt>
      <trkpt lat="43.6617" lon="3.38149">
        <ele>147.6</ele>
        <time>2014-09-28T10:46:19Z</time>
      </trkpt>
      <trkpt lat="43.66166" lon="3.38158">
        <ele>146.9</ele>
        <time>2014-09-28T10:46:23Z</time>
      </trkpt>
      <trkpt lat="43.66162" lon="3.38163">
        <ele>146.4</ele>
        <time>2014-09-28T10:46:25Z</time>
      </trkpt>
      <trkpt lat="43.6616" lon="3.38169">
        <ele>146</ele>
        <time>2014-09-28T10:46:28Z</time>
      </trkpt>
      <trkpt lat="43.66158" lon="3.38175">
        <ele>145.6</ele>
        <time>2014-09-28T10:46:41Z</time>
      </trkpt>
      <trkpt lat="43.66155" lon="3.38181">
        <ele>145.2</ele>
        <time>2014-09-28T10:46:43Z</time>
      </trkpt>
      <trkpt lat="43.66152" lon="3.38189">
        <ele>144.8</ele>
        <time>2014-09-28T10:46:45Z</time>
      </trkpt>
      <trkpt lat="43.66152" lon="3.38201">
        <ele>144.8</ele>
        <time>2014-09-28T10:46:48Z</time>
      </trkpt>
      <trkpt lat="43.66153" lon="3.38207">
        <ele>145</ele>
        <time>2014-09-28T10:46:50Z</time>
      </trkpt>
      <trkpt lat="43.66153" lon="3.38218">
        <ele>145.4</ele>
        <time>2014-09-28T10:46:53Z</time>
      </trkpt>
      <trkpt lat="43.66155" lon="3.38225">
        <ele>145.8</ele>
        <time>2014-09-28T10:46:55Z</time>
      </trkpt>
      <trkpt lat="43.66155" lon="3.38235">
        <ele>146.2</ele>
        <time>2014-09-28T10:46:58Z</time>
      </trkpt>
      <trkpt lat="43.66155" lon="3.38245">
        <ele>146.3</ele>
        <time>2014-09-28T10:47:00Z</time>
      </trkpt>
      <trkpt lat="43.66153" lon="3.3826">
        <ele>146.3</ele>
        <time>2014-09-28T10:47:03Z</time>
      </trkpt>
      <trkpt lat="43.66152" lon="3.38267">
        <ele>146.2</ele>
        <time>2014-09-28T10:47:05Z</time>
      </trkpt>
      <trkpt lat="43.66148" lon="3.38274">
        <ele>145.6</ele>
        <time>2014-09-28T10:47:08Z</time>
      </trkpt>
      <trkpt lat="43.66145" lon="3.38281">
        <ele>145.1</ele>
        <time>2014-09-28T10:47:10Z</time>
      </trkpt>
      <trkpt lat="43.66143" lon="3.38294">
        <ele>144.9</ele>
        <time>2014-09-28T10:47:13Z</time>
      </trkpt>
      <trkpt lat="43.66144" lon="3.38302">
        <ele>145.1</ele>
        <time>2014-09-28T10:47:16Z</time>
      </trkpt>
      <trkpt lat="43.66143" lon="3.3831">
        <ele>145</ele>
        <time>2014-09-28T10:47:19Z</time>
      </trkpt>
      <trkpt lat="43.66141" lon="3.38319">
        <ele>144.5</ele>
        <time>2014-09-28T10:47:21Z</time>
      </trkpt>
      <trkpt lat="43.66139" lon="3.38332">
        <ele>144.1</ele>
        <time>2014-09-28T10:47:23Z</time>
      </trkpt>
      <trkpt lat="43.66138" lon="3.38339">
        <ele>144</ele>
        <time>2014-09-28T10:47:24Z</time>
      </trkpt>
      <trkpt lat="43.66138" lon="3.38346">
        <ele>144</ele>
        <time>2014-09-28T10:47:25Z</time>
      </trkpt>
      <trkpt lat="43.66138" lon="3.38359">
        <ele>144</ele>
        <time>2014-09-28T10:47:28Z</time>
      </trkpt>
      <trkpt lat="43.66135" lon="3.38366">
        <ele>143.6</ele>
        <time>2014-09-28T10:47:30Z</time>
      </trkpt>
      <trkpt lat="43.66129" lon="3.38372">
        <ele>142.7</ele>
        <time>2014-09-28T10:47:33Z</time>
      </trkpt>
      <trkpt lat="43.66124" lon="3.38376">
        <ele>142</ele>
        <time>2014-09-28T10:47:35Z</time>
      </trkpt>
      <trkpt lat="43.66119" lon="3.38381">
        <ele>141.8</ele>
        <time>2014-09-28T10:47:38Z</time>
      </trkpt>
      <trkpt lat="43.66114" lon="3.38388">
        <ele>141.6</ele>
        <time>2014-09-28T10:47:43Z</time>
      </trkpt>
      <trkpt lat="43.66112" lon="3.38396">
        <ele>141.7</ele>
        <time>2014-09-28T10:47:45Z</time>
      </trkpt>
      <trkpt lat="43.66111" lon="3.38404">
        <ele>141.9</ele>
        <time>2014-09-28T10:47:48Z</time>
      </trkpt>
      <trkpt lat="43.6611" lon="3.38412">
        <ele>142</ele>
        <time>2014-09-28T10:47:51Z</time>
      </trkpt>
      <trkpt lat="43.66106" lon="3.38419">
        <ele>141.9</ele>
        <time>2014-09-28T10:47:54Z</time>
      </trkpt>
      <trkpt lat="43.66103" lon="3.38426">
        <ele>141.7</ele>
        <time>2014-09-28T10:47:58Z</time>
      </trkpt>
      <trkpt lat="43.661" lon="3.38433">
        <ele>141.7</ele>
        <time>2014-09-28T10:48:01Z</time>
      </trkpt>
      <trkpt lat="43.66099" lon="3.38439">
        <ele>141.7</ele>
        <time>2014-09-28T10:48:03Z</time>
      </trkpt>
      <trkpt lat="43.66098" lon="3.38446">
        <ele>141.8</ele>
        <time>2014-09-28T10:48:05Z</time>
      </trkpt>
      <trkpt lat="43.66097" lon="3.3846">
        <ele>141.9</ele>
        <time>2014-09-28T10:48:08Z</time>
      </trkpt>
      <trkpt lat="43.66098" lon="3.38469">
        <ele>142</ele>
        <time>2014-09-28T10:48:10Z</time>
      </trkpt>
      <trkpt lat="43.661" lon="3.38483">
        <ele>142</ele>
        <time>2014-09-28T10:48:13Z</time>
      </trkpt>
      <trkpt lat="43.661" lon="3.38492">
        <ele>142</ele>
        <time>2014-09-28T10:48:15Z</time>
      </trkpt>
      <trkpt lat="43.66102" lon="3.38505">
        <ele>142.1</ele>
        <time>2014-09-28T10:48:18Z</time>
      </trkpt>
      <trkpt lat="43.66103" lon="3.38512">
        <ele>142.1</ele>
        <time>2014-09-28T10:48:20Z</time>
      </trkpt>
      <trkpt lat="43.66101" lon="3.38519">
        <ele>141.9</ele>
        <time>2014-09-28T10:48:29Z</time>
      </trkpt>
      <trkpt lat="43.66099" lon="3.38524">
        <ele>141.6</ele>
        <time>2014-09-28T10:48:40Z</time>
      </trkpt>
      <trkpt lat="43.66096" lon="3.38531">
        <ele>141.3</ele>
        <time>2014-09-28T10:48:43Z</time>
      </trkpt>
      <trkpt lat="43.66094" lon="3.3854">
        <ele>141.1</ele>
        <time>2014-09-28T10:48:45Z</time>
      </trkpt>
      <trkpt lat="43.66093" lon="3.38553">
        <ele>140.7</ele>
        <time>2014-09-28T10:48:48Z</time>
      </trkpt>
      <trkpt lat="43.66092" lon="3.38561">
        <ele>140.4</ele>
        <time>2014-09-28T10:48:50Z</time>
      </trkpt>
      <trkpt lat="43.6609" lon="3.38575">
        <ele>139.9</ele>
        <time>2014-09-28T10:48:53Z</time>
      </trkpt>
      <trkpt lat="43.66088" lon="3.38586">
        <ele>139.5</ele>
        <time>2014-09-28T10:48:55Z</time>
      </trkpt>
      <trkpt lat="43.66084" lon="3.38603">
        <ele>138.9</ele>
        <time>2014-09-28T10:48:58Z</time>
      </trkpt>
      <trkpt lat="43.66083" lon="3.38614">
        <ele>138.7</ele>
        <time>2014-09-28T10:49:00Z</time>
      </trkpt>
      <trkpt lat="43.66081" lon="3.38631">
        <ele>138.5</ele>
        <time>2014-09-28T10:49:03Z</time>
      </trkpt>
      <trkpt lat="43.6608" lon="3.38642">
        <ele>138.7</ele>
        <time>2014-09-28T10:49:05Z</time>
      </trkpt>
      <trkpt lat="43.66081" lon="3.38658">
        <ele>139.2</ele>
        <time>2014-09-28T10:49:08Z</time>
      </trkpt>
      <trkpt lat="43.66082" lon="3.38667">
        <ele>139.4</ele>
        <time>2014-09-28T10:49:10Z</time>
      </trkpt>
      <trkpt lat="43.66082" lon="3.38676">
        <ele>139.6</ele>
        <time>2014-09-28T10:49:13Z</time>
      </trkpt>
      <trkpt lat="43.66079" lon="3.38683">
        <ele>139.6</ele>
        <time>2014-09-28T10:49:15Z</time>
      </trkpt>
      <trkpt lat="43.66077" lon="3.38695">
        <ele>139.8</ele>
        <time>2014-09-28T10:49:18Z</time>
      </trkpt>
      <trkpt lat="43.66075" lon="3.38704">
        <ele>139.9</ele>
        <time>2014-09-28T10:49:20Z</time>
      </trkpt>
      <trkpt lat="43.66071" lon="3.38716">
        <ele>140.4</ele>
        <time>2014-09-28T10:49:23Z</time>
      </trkpt>
      <trkpt lat="43.66069" lon="3.38722">
        <ele>140.7</ele>
        <time>2014-09-28T10:49:25Z</time>
      </trkpt>
      <trkpt lat="43.66067" lon="3.38734">
        <ele>141.4</ele>
        <time>2014-09-28T10:49:28Z</time>
      </trkpt>
      <trkpt lat="43.66067" lon="3.38741">
        <ele>141.9</ele>
        <time>2014-09-28T10:49:30Z</time>
      </trkpt>
      <trkpt lat="43.66068" lon="3.3875">
        <ele>142.7</ele>
        <time>2014-09-28T10:49:33Z</time>
      </trkpt>
      <trkpt lat="43.6607" lon="3.38758">
        <ele>143.5</ele>
        <time>2014-09-28T10:49:36Z</time>
      </trkpt>
      <trkpt lat="43.66073" lon="3.38764">
        <ele>144.2</ele>
        <time>2014-09-28T10:49:39Z</time>
      </trkpt>
      <trkpt lat="43.66073" lon="3.38775">
        <ele>145</ele>
        <time>2014-09-28T10:49:43Z</time>
      </trkpt>
      <trkpt lat="43.6607" lon="3.3878">
        <ele>145.2</ele>
        <time>2014-09-28T10:49:46Z</time>
      </trkpt>
      <trkpt lat="43.66068" lon="3.38786">
        <ele>145.4</ele>
        <time>2014-09-28T10:49:49Z</time>
      </trkpt>
      <trkpt lat="43.66069" lon="3.38792">
        <ele>145.9</ele>
        <time>2014-09-28T10:49:53Z</time>
      </trkpt>
      <trkpt lat="43.66075" lon="3.38788">
        <ele>146.3</ele>
        <time>2014-09-28T10:49:58Z</time>
      </trkpt>
      <trkpt lat="43.66079" lon="3.38783">
        <ele>146.3</ele>
        <time>2014-09-28T10:50:01Z</time>
      </trkpt>
      <trkpt lat="43.66084" lon="3.38778">
        <ele>146.4</ele>
        <time>2014-09-28T10:50:05Z</time>
      </trkpt>
      <trkpt lat="43.66088" lon="3.38775">
        <ele>146.5</ele>
        <time>2014-09-28T10:50:08Z</time>
      </trkpt>
      <trkpt lat="43.66092" lon="3.38769">
        <ele>146.4</ele>
        <time>2014-09-28T10:50:11Z</time>
      </trkpt>
      <trkpt lat="43.66096" lon="3.38765">
        <ele>146.4</ele>
        <time>2014-09-28T10:50:13Z</time>
      </trkpt>
      <trkpt lat="43.661" lon="3.3876">
        <ele>146.4</ele>
        <time>2014-09-28T10:50:16Z</time>
      </trkpt>
      <trkpt lat="43.66105" lon="3.38756">
        <ele>146.4</ele>
        <time>2014-09-28T10:50:20Z</time>
      </trkpt>
      <trkpt lat="43.6611" lon="3.38753">
        <ele>146.5</ele>
        <time>2014-09-28T10:50:23Z</time>
      </trkpt>
      <trkpt lat="43.66115" lon="3.38749">
        <ele>146.6</ele>
        <time>2014-09-28T10:50:28Z</time>
      </trkpt>
      <trkpt lat="43.66119" lon="3.38742">
        <ele>146.2</ele>
        <time>2014-09-28T10:50:33Z</time>
      </trkpt>
      <trkpt lat="43.66123" lon="3.38739">
        <ele>146.1</ele>
        <time>2014-09-28T10:50:36Z</time>
      </trkpt>
      <trkpt lat="43.66128" lon="3.38736">
        <ele>146.6</ele>
        <time>2014-09-28T10:50:40Z</time>
      </trkpt>
      <trkpt lat="43.66132" lon="3.38738">
        <ele>148</ele>
        <time>2014-09-28T10:50:45Z</time>
      </trkpt>
      <trkpt lat="43.66133" lon="3.38746">
        <ele>149.1</ele>
        <time>2014-09-28T10:50:53Z</time>
      </trkpt>
      <trkpt lat="43.66134" lon="3.38754">
        <ele>149.9</ele>
        <time>2014-09-28T10:50:56Z</time>
      </trkpt>
      <trkpt lat="43.66131" lon="3.38761">
        <ele>150.1</ele>
        <time>2014-09-28T10:50:59Z</time>
      </trkpt>
      <trkpt lat="43.6613" lon="3.3877">
        <ele>150.8</ele>
        <time>2014-09-28T10:51:03Z</time>
      </trkpt>
      <trkpt lat="43.6613" lon="3.38778">
        <ele>151.6</ele>
        <time>2014-09-28T10:51:06Z</time>
      </trkpt>
      <trkpt lat="43.66129" lon="3.38785">
        <ele>152</ele>
        <time>2014-09-28T10:51:09Z</time>
      </trkpt>
      <trkpt lat="43.66127" lon="3.38793">
        <ele>152.4</ele>
        <time>2014-09-28T10:51:13Z</time>
      </trkpt>
      <trkpt lat="43.66124" lon="3.38802">
        <ele>152.5</ele>
        <time>2014-09-28T10:51:18Z</time>
      </trkpt>
      <trkpt lat="43.66124" lon="3.38813">
        <ele>153.1</ele>
        <time>2014-09-28T10:51:23Z</time>
      </trkpt>
      <trkpt lat="43.66124" lon="3.3882">
        <ele>153.6</ele>
        <time>2014-09-28T10:51:26Z</time>
      </trkpt>
      <trkpt lat="43.66124" lon="3.38827">
        <ele>154</ele>
        <time>2014-09-28T10:51:29Z</time>
      </trkpt>
      <trkpt lat="43.66123" lon="3.38835">
        <ele>154.3</ele>
        <time>2014-09-28T10:51:33Z</time>
      </trkpt>
      <trkpt lat="43.66121" lon="3.38841">
        <ele>154.3</ele>
        <time>2014-09-28T10:51:36Z</time>
      </trkpt>
      <trkpt lat="43.66118" lon="3.38848">
        <ele>154.3</ele>
        <time>2014-09-28T10:51:40Z</time>
      </trkpt>
      <trkpt lat="43.66117" lon="3.38856">
        <ele>154.6</ele>
        <time>2014-09-28T10:51:43Z</time>
      </trkpt>
      <trkpt lat="43.66117" lon="3.38864">
        <ele>155</ele>
        <time>2014-09-28T10:51:46Z</time>
      </trkpt>
      <trkpt lat="43.66116" lon="3.38873">
        <ele>155.3</ele>
        <time>2014-09-28T10:51:49Z</time>
      </trkpt>
      <trkpt lat="43.66116" lon="3.38885">
        <ele>156</ele>
        <time>2014-09-28T10:51:53Z</time>
      </trkpt>
      <trkpt lat="43.66117" lon="3.38893">
        <ele>156.6</ele>
        <time>2014-09-28T10:51:56Z</time>
      </trkpt>
      <trkpt lat="43.66117" lon="3.389">
        <ele>157</ele>
        <time>2014-09-28T10:51:59Z</time>
      </trkpt>
      <trkpt lat="43.66116" lon="3.38909">
        <ele>157.4</ele>
        <time>2014-09-28T10:52:03Z</time>
      </trkpt>
      <trkpt lat="43.66116" lon="3.38916">
        <ele>157.8</ele>
        <time>2014-09-28T10:52:06Z</time>
      </trkpt>
      <trkpt lat="43.66115" lon="3.38924">
        <ele>158.1</ele>
        <time>2014-09-28T10:52:09Z</time>
      </trkpt>
      <trkpt lat="43.66111" lon="3.38931">
        <ele>157.6</ele>
        <time>2014-09-28T10:52:13Z</time>
      </trkpt>
      <trkpt lat="43.66105" lon="3.3894">
        <ele>156.9</ele>
        <time>2014-09-28T10:52:19Z</time>
      </trkpt>
      <trkpt lat="43.66101" lon="3.38947">
        <ele>156.4</ele>
        <time>2014-09-28T10:52:23Z</time>
      </trkpt>
      <trkpt lat="43.66097" lon="3.38953">
        <ele>156</ele>
        <time>2014-09-28T10:52:26Z</time>
      </trkpt>
      <trkpt lat="43.66094" lon="3.38958">
        <ele>155.6</ele>
        <time>2014-09-28T10:52:29Z</time>
      </trkpt>
      <trkpt lat="43.66094" lon="3.38965">
        <ele>156.3</ele>
        <time>2014-09-28T10:52:33Z</time>
      </trkpt>
      <trkpt lat="43.66094" lon="3.38976">
        <ele>157.6</ele>
        <time>2014-09-28T10:52:38Z</time>
      </trkpt>
      <trkpt lat="43.66095" lon="3.38983">
        <ele>158.5</ele>
        <time>2014-09-28T10:52:41Z</time>
      </trkpt>
      <trkpt lat="43.66095" lon="3.3899">
        <ele>159.4</ele>
        <time>2014-09-28T10:52:44Z</time>
      </trkpt>
      <trkpt lat="43.66094" lon="3.38999">
        <ele>160.3</ele>
        <time>2014-09-28T10:52:48Z</time>
      </trkpt>
      <trkpt lat="43.66094" lon="3.39005">
        <ele>160.9</ele>
        <time>2014-09-28T10:52:51Z</time>
      </trkpt>
      <trkpt lat="43.66092" lon="3.39012">
        <ele>161.3</ele>
        <time>2014-09-28T10:52:55Z</time>
      </trkpt>
      <trkpt lat="43.66093" lon="3.39025">
        <ele>162.8</ele>
        <time>2014-09-28T10:53:01Z</time>
      </trkpt>
      <trkpt lat="43.66092" lon="3.39032">
        <ele>163.2</ele>
        <time>2014-09-28T10:53:04Z</time>
      </trkpt>
      <trkpt lat="43.6609" lon="3.3904">
        <ele>163.8</ele>
        <time>2014-09-28T10:53:08Z</time>
      </trkpt>
      <trkpt lat="43.66089" lon="3.39046">
        <ele>163.8</ele>
        <time>2014-09-28T10:53:11Z</time>
      </trkpt>
      <trkpt lat="43.66089" lon="3.39053">
        <ele>164.1</ele>
        <time>2014-09-28T10:53:14Z</time>
      </trkpt>
      <trkpt lat="43.6609" lon="3.39061">
        <ele>164.7</ele>
        <time>2014-09-28T10:53:18Z</time>
      </trkpt>
      <trkpt lat="43.66093" lon="3.39066">
        <ele>165.7</ele>
        <time>2014-09-28T10:53:23Z</time>
      </trkpt>
      <trkpt lat="43.66094" lon="3.39079">
        <ele>166.8</ele>
        <time>2014-09-28T10:53:34Z</time>
      </trkpt>
      <trkpt lat="43.66095" lon="3.39087">
        <ele>167.4</ele>
        <time>2014-09-28T10:53:41Z</time>
      </trkpt>
      <trkpt lat="43.66097" lon="3.39094">
        <ele>168.1</ele>
        <time>2014-09-28T10:53:46Z</time>
      </trkpt>
      <trkpt lat="43.66098" lon="3.391">
        <ele>168.8</ele>
        <time>2014-09-28T10:53:51Z</time>
      </trkpt>
      <trkpt lat="43.66099" lon="3.39107">
        <ele>169.5</ele>
        <time>2014-09-28T10:53:55Z</time>
      </trkpt>
      <trkpt lat="43.66098" lon="3.39114">
        <ele>169.4</ele>
        <time>2014-09-28T10:54:01Z</time>
      </trkpt>
      <trkpt lat="43.66099" lon="3.39122">
        <ele>170</ele>
        <time>2014-09-28T10:54:08Z</time>
      </trkpt>
      <trkpt lat="43.661" lon="3.39129">
        <ele>170.7</ele>
        <time>2014-09-28T10:54:13Z</time>
      </trkpt>
      <trkpt lat="43.66101" lon="3.39136">
        <ele>171.6</ele>
        <time>2014-09-28T10:54:21Z</time>
      </trkpt>
      <trkpt lat="43.66101" lon="3.39143">
        <ele>172.2</ele>
        <time>2014-09-28T10:54:26Z</time>
      </trkpt>
      <trkpt lat="43.66102" lon="3.39151">
        <ele>173</ele>
        <time>2014-09-28T10:54:33Z</time>
      </trkpt>
      <trkpt lat="43.66102" lon="3.3916">
        <ele>173.7</ele>
        <time>2014-09-28T10:54:38Z</time>
      </trkpt>
      <trkpt lat="43.66103" lon="3.39167">
        <ele>174.5</ele>
        <time>2014-09-28T10:54:43Z</time>
      </trkpt>
      <trkpt lat="43.66107" lon="3.39173">
        <ele>176</ele>
        <time>2014-09-28T10:54:48Z</time>
      </trkpt>
      <trkpt lat="43.66111" lon="3.39179">
        <ele>177.4</ele>
        <time>2014-09-28T10:54:53Z</time>
      </trkpt>
      <trkpt lat="43.66113" lon="3.39186">
        <ele>178.6</ele>
        <time>2014-09-28T10:54:58Z</time>
      </trkpt>
      <trkpt lat="43.66116" lon="3.39195">
        <ele>179.8</ele>
        <time>2014-09-28T10:55:03Z</time>
      </trkpt>
      <trkpt lat="43.66117" lon="3.39203">
        <ele>180.7</ele>
        <time>2014-09-28T10:55:08Z</time>
      </trkpt>
      <trkpt lat="43.66118" lon="3.39212">
        <ele>181.5</ele>
        <time>2014-09-28T10:55:13Z</time>
      </trkpt>
      <trkpt lat="43.66117" lon="3.3922">
        <ele>182.2</ele>
        <time>2014-09-28T10:55:16Z</time>
      </trkpt>
      <trkpt lat="43.66116" lon="3.39227">
        <ele>182.8</ele>
        <time>2014-09-28T10:55:20Z</time>
      </trkpt>
      <trkpt lat="43.66114" lon="3.3924">
        <ele>183.7</ele>
        <time>2014-09-28T10:55:30Z</time>
      </trkpt>
      <trkpt lat="43.66112" lon="3.39245">
        <ele>183.7</ele>
        <time>2014-09-28T10:55:34Z</time>
      </trkpt>
      <trkpt lat="43.66109" lon="3.39251">
        <ele>183.7</ele>
        <time>2014-09-28T10:55:38Z</time>
      </trkpt>
      <trkpt lat="43.66107" lon="3.39259">
        <ele>184.1</ele>
        <time>2014-09-28T10:55:43Z</time>
      </trkpt>
      <trkpt lat="43.66107" lon="3.39266">
        <ele>184.9</ele>
        <time>2014-09-28T10:55:48Z</time>
      </trkpt>
      <trkpt lat="43.66107" lon="3.39273">
        <ele>185.8</ele>
        <time>2014-09-28T10:55:53Z</time>
      </trkpt>
      <trkpt lat="43.66109" lon="3.39279">
        <ele>186.8</ele>
        <time>2014-09-28T10:55:59Z</time>
      </trkpt>
      <trkpt lat="43.66117" lon="3.3928">
        <ele>188.9</ele>
        <time>2014-09-28T10:58:15Z</time>
      </trkpt>
      <trkpt lat="43.66121" lon="3.39275">
        <ele>189.2</ele>
        <time>2014-09-28T10:58:18Z</time>
      </trkpt>
      <trkpt lat="43.66126" lon="3.39269">
        <ele>189.8</ele>
        <time>2014-09-28T10:58:23Z</time>
      </trkpt>
      <trkpt lat="43.6613" lon="3.39264">
        <ele>190.6</ele>
        <time>2014-09-28T10:58:26Z</time>
      </trkpt>
      <trkpt lat="43.66133" lon="3.39256">
        <ele>190.9</ele>
        <time>2014-09-28T10:58:29Z</time>
      </trkpt>
      <trkpt lat="43.66136" lon="3.39249">
        <ele>191.2</ele>
        <time>2014-09-28T10:58:31Z</time>
      </trkpt>
      <trkpt lat="43.66138" lon="3.39241">
        <ele>191.2</ele>
        <time>2014-09-28T10:58:33Z</time>
      </trkpt>
      <trkpt lat="43.6614" lon="3.39232">
        <ele>191.2</ele>
        <time>2014-09-28T10:58:35Z</time>
      </trkpt>
      <trkpt lat="43.66142" lon="3.39221">
        <ele>191</ele>
        <time>2014-09-28T10:58:38Z</time>
      </trkpt>
      <trkpt lat="43.66143" lon="3.39214">
        <ele>190.6</ele>
        <time>2014-09-28T10:58:40Z</time>
      </trkpt>
      <trkpt lat="43.66142" lon="3.39203">
        <ele>189.6</ele>
        <time>2014-09-28T10:58:43Z</time>
      </trkpt>
      <trkpt lat="43.66143" lon="3.39195">
        <ele>189.3</ele>
        <time>2014-09-28T10:58:46Z</time>
      </trkpt>
      <trkpt lat="43.66143" lon="3.39187">
        <ele>189.1</ele>
        <time>2014-09-28T10:58:49Z</time>
      </trkpt>
      <trkpt lat="43.66144" lon="3.39177">
        <ele>189</ele>
        <time>2014-09-28T10:58:53Z</time>
      </trkpt>
      <trkpt lat="43.66143" lon="3.39168">
        <ele>188.5</ele>
        <time>2014-09-28T10:58:56Z</time>
      </trkpt>
      <trkpt lat="43.66144" lon="3.39162">
        <ele>188.5</ele>
        <time>2014-09-28T10:58:58Z</time>
      </trkpt>
      <trkpt lat="43.66145" lon="3.39155">
        <ele>188.7</ele>
        <time>2014-09-28T10:59:00Z</time>
      </trkpt>
      <trkpt lat="43.66146" lon="3.39146">
        <ele>188.8</ele>
        <time>2014-09-28T10:59:03Z</time>
      </trkpt>
      <trkpt lat="43.66147" lon="3.3914">
        <ele>188.9</ele>
        <time>2014-09-28T10:59:05Z</time>
      </trkpt>
      <trkpt lat="43.66148" lon="3.39131">
        <ele>189</ele>
        <time>2014-09-28T10:59:08Z</time>
      </trkpt>
      <trkpt lat="43.6615" lon="3.39123">
        <ele>189.1</ele>
        <time>2014-09-28T10:59:11Z</time>
      </trkpt>
      <trkpt lat="43.6615" lon="3.39117">
        <ele>188.9</ele>
        <time>2014-09-28T10:59:13Z</time>
      </trkpt>
      <trkpt lat="43.66151" lon="3.39108">
        <ele>188.7</ele>
        <time>2014-09-28T10:59:16Z</time>
      </trkpt>
      <trkpt lat="43.66154" lon="3.39101">
        <ele>189</ele>
        <time>2014-09-28T10:59:19Z</time>
      </trkpt>
      <trkpt lat="43.66157" lon="3.39092">
        <ele>189.8</ele>
        <time>2014-09-28T10:59:23Z</time>
      </trkpt>
      <trkpt lat="43.6616" lon="3.39086">
        <ele>190.5</ele>
        <time>2014-09-28T10:59:26Z</time>
      </trkpt>
      <trkpt lat="43.66162" lon="3.39079">
        <ele>190.5</ele>
        <time>2014-09-28T10:59:29Z</time>
      </trkpt>
      <trkpt lat="43.66163" lon="3.3907">
        <ele>190.3</ele>
        <time>2014-09-28T10:59:33Z</time>
      </trkpt>
      <trkpt lat="43.66166" lon="3.39065">
        <ele>190.9</ele>
        <time>2014-09-28T10:59:36Z</time>
      </trkpt>
      <trkpt lat="43.6617" lon="3.3907">
        <ele>192.9</ele>
        <time>2014-09-28T10:59:41Z</time>
      </trkpt>
      <trkpt lat="43.6617" lon="3.39077">
        <ele>193.4</ele>
        <time>2014-09-28T10:59:44Z</time>
      </trkpt>
      <trkpt lat="43.66167" lon="3.39088">
        <ele>193.2</ele>
        <time>2014-09-28T10:59:48Z</time>
      </trkpt>
      <trkpt lat="43.66165" lon="3.39097">
        <ele>193.4</ele>
        <time>2014-09-28T10:59:51Z</time>
      </trkpt>
      <trkpt lat="43.66164" lon="3.39106">
        <ele>193.6</ele>
        <time>2014-09-28T10:59:54Z</time>
      </trkpt>
      <trkpt lat="43.66163" lon="3.39112">
        <ele>193.6</ele>
        <time>2014-09-28T10:59:56Z</time>
      </trkpt>
      <trkpt lat="43.66161" lon="3.39118">
        <ele>193.6</ele>
        <time>2014-09-28T10:59:58Z</time>
      </trkpt>
      <trkpt lat="43.66161" lon="3.39134">
        <ele>194.2</ele>
        <time>2014-09-28T11:00:03Z</time>
      </trkpt>
      <trkpt lat="43.6616" lon="3.3914">
        <ele>194.4</ele>
        <time>2014-09-28T11:00:05Z</time>
      </trkpt>
      <trkpt lat="43.6616" lon="3.39148">
        <ele>194.7</ele>
        <time>2014-09-28T11:00:08Z</time>
      </trkpt>
      <trkpt lat="43.6616" lon="3.39156">
        <ele>194.9</ele>
        <time>2014-09-28T11:00:11Z</time>
      </trkpt>
      <trkpt lat="43.6616" lon="3.39165">
        <ele>195.3</ele>
        <time>2014-09-28T11:00:14Z</time>
      </trkpt>
      <trkpt lat="43.66162" lon="3.39176">
        <ele>196.3</ele>
        <time>2014-09-28T11:00:18Z</time>
      </trkpt>
      <trkpt lat="43.66163" lon="3.39182">
        <ele>197.2</ele>
        <time>2014-09-28T11:00:21Z</time>
      </trkpt>
      <trkpt lat="43.66165" lon="3.39189">
        <ele>198.2</ele>
        <time>2014-09-28T11:00:24Z</time>
      </trkpt>
      <trkpt lat="43.66167" lon="3.39198">
        <ele>199.1</ele>
        <time>2014-09-28T11:00:28Z</time>
      </trkpt>
      <trkpt lat="43.66169" lon="3.39206">
        <ele>200.1</ele>
        <time>2014-09-28T11:00:31Z</time>
      </trkpt>
      <trkpt lat="43.6617" lon="3.39213">
        <ele>201.2</ele>
        <time>2014-09-28T11:00:34Z</time>
      </trkpt>
      <trkpt lat="43.66173" lon="3.39222">
        <ele>202.7</ele>
        <time>2014-09-28T11:00:38Z</time>
      </trkpt>
      <trkpt lat="43.66174" lon="3.39229">
        <ele>203.9</ele>
        <time>2014-09-28T11:00:41Z</time>
      </trkpt>
      <trkpt lat="43.66175" lon="3.39237">
        <ele>204.8</ele>
        <time>2014-09-28T11:00:44Z</time>
      </trkpt>
      <trkpt lat="43.66176" lon="3.39249">
        <ele>205.9</ele>
        <time>2014-09-28T11:00:48Z</time>
      </trkpt>
      <trkpt lat="43.66175" lon="3.39256">
        <ele>206</ele>
        <time>2014-09-28T11:00:51Z</time>
      </trkpt>
      <trkpt lat="43.66173" lon="3.39264">
        <ele>205.7</ele>
        <time>2014-09-28T11:00:54Z</time>
      </trkpt>
      <trkpt lat="43.66169" lon="3.39276">
        <ele>205.2</ele>
        <time>2014-09-28T11:00:58Z</time>
      </trkpt>
      <trkpt lat="43.66167" lon="3.39281">
        <ele>204.8</ele>
        <time>2014-09-28T11:01:00Z</time>
      </trkpt>
      <trkpt lat="43.66163" lon="3.39289">
        <ele>204.1</ele>
        <time>2014-09-28T11:01:03Z</time>
      </trkpt>
      <trkpt lat="43.66159" lon="3.39297">
        <ele>203.9</ele>
        <time>2014-09-28T11:01:06Z</time>
      </trkpt>
      <trkpt lat="43.66156" lon="3.39304">
        <ele>204</ele>
        <time>2014-09-28T11:01:09Z</time>
      </trkpt>
      <trkpt lat="43.66151" lon="3.39314">
        <ele>204.1</ele>
        <time>2014-09-28T11:01:13Z</time>
      </trkpt>
      <trkpt lat="43.66148" lon="3.3932">
        <ele>204.2</ele>
        <time>2014-09-28T11:01:15Z</time>
      </trkpt>
      <trkpt lat="43.66145" lon="3.39328">
        <ele>204.5</ele>
        <time>2014-09-28T11:01:18Z</time>
      </trkpt>
      <trkpt lat="43.66142" lon="3.39334">
        <ele>204.7</ele>
        <time>2014-09-28T11:01:20Z</time>
      </trkpt>
      <trkpt lat="43.66139" lon="3.39343">
        <ele>205.2</ele>
        <time>2014-09-28T11:01:23Z</time>
      </trkpt>
      <trkpt lat="43.66136" lon="3.3935">
        <ele>205.5</ele>
        <time>2014-09-28T11:01:25Z</time>
      </trkpt>
      <trkpt lat="43.66131" lon="3.39361">
        <ele>206</ele>
        <time>2014-09-28T11:01:28Z</time>
      </trkpt>
      <trkpt lat="43.66128" lon="3.39368">
        <ele>206.5</ele>
        <time>2014-09-28T11:01:30Z</time>
      </trkpt>
      <trkpt lat="43.66123" lon="3.39377">
        <ele>206.7</ele>
        <time>2014-09-28T11:01:33Z</time>
      </trkpt>
      <trkpt lat="43.66119" lon="3.39384">
        <ele>206.7</ele>
        <time>2014-09-28T11:01:35Z</time>
      </trkpt>
      <trkpt lat="43.66114" lon="3.39392">
        <ele>206.6</ele>
        <time>2014-09-28T11:01:38Z</time>
      </trkpt>
      <trkpt lat="43.6611" lon="3.39397">
        <ele>206.5</ele>
        <time>2014-09-28T11:01:40Z</time>
      </trkpt>
      <trkpt lat="43.66106" lon="3.39405">
        <ele>206.6</ele>
        <time>2014-09-28T11:01:43Z</time>
      </trkpt>
      <trkpt lat="43.66101" lon="3.39411">
        <ele>206.5</ele>
        <time>2014-09-28T11:01:46Z</time>
      </trkpt>
      <trkpt lat="43.66099" lon="3.39417">
        <ele>206.9</ele>
        <time>2014-09-28T11:01:48Z</time>
      </trkpt>
      <trkpt lat="43.66099" lon="3.39425">
        <ele>208.3</ele>
        <time>2014-09-28T11:01:51Z</time>
      </trkpt>
      <trkpt lat="43.661" lon="3.39432">
        <ele>209.7</ele>
        <time>2014-09-28T11:01:54Z</time>
      </trkpt>
      <trkpt lat="43.66106" lon="3.39441">
        <ele>212.6</ele>
        <time>2014-09-28T11:01:58Z</time>
      </trkpt>
      <trkpt lat="43.6611" lon="3.39445">
        <ele>214.4</ele>
        <time>2014-09-28T11:02:01Z</time>
      </trkpt>
      <trkpt lat="43.66115" lon="3.3945">
        <ele>216.4</ele>
        <time>2014-09-28T11:02:04Z</time>
      </trkpt>
      <trkpt lat="43.66119" lon="3.39454">
        <ele>217.9</ele>
        <time>2014-09-28T11:02:06Z</time>
      </trkpt>
      <trkpt lat="43.66123" lon="3.39459">
        <ele>219.5</ele>
        <time>2014-09-28T11:02:08Z</time>
      </trkpt>
      <trkpt lat="43.66128" lon="3.39463">
        <ele>220.2</ele>
        <time>2014-09-28T11:02:10Z</time>
      </trkpt>
      <trkpt lat="43.66136" lon="3.3947">
        <ele>221</ele>
        <time>2014-09-28T11:02:13Z</time>
      </trkpt>
      <trkpt lat="43.66141" lon="3.39475">
        <ele>221.5</ele>
        <time>2014-09-28T11:02:15Z</time>
      </trkpt>
      <trkpt lat="43.66152" lon="3.3948">
        <ele>222.5</ele>
        <time>2014-09-28T11:02:18Z</time>
      </trkpt>
      <trkpt lat="43.66159" lon="3.39482">
        <ele>223.3</ele>
        <time>2014-09-28T11:02:20Z</time>
      </trkpt>
      <trkpt lat="43.66172" lon="3.39485">
        <ele>224.6</ele>
        <time>2014-09-28T11:02:23Z</time>
      </trkpt>
      <trkpt lat="43.66177" lon="3.39486">
        <ele>225.1</ele>
        <time>2014-09-28T11:02:24Z</time>
      </trkpt>
      <trkpt lat="43.66182" lon="3.39487">
        <ele>225.6</ele>
        <time>2014-09-28T11:02:25Z</time>
      </trkpt>
      <trkpt lat="43.66186" lon="3.39488">
        <ele>226</ele>
        <time>2014-09-28T11:02:26Z</time>
      </trkpt>
      <trkpt lat="43.66197" lon="3.3949">
        <ele>227</ele>
        <time>2014-09-28T11:02:28Z</time>
      </trkpt>
      <trkpt lat="43.66202" lon="3.39491">
        <ele>227.6</ele>
        <time>2014-09-28T11:02:29Z</time>
      </trkpt>
      <trkpt lat="43.66207" lon="3.39491">
        <ele>228.2</ele>
        <time>2014-09-28T11:02:30Z</time>
      </trkpt>
      <trkpt lat="43.66213" lon="3.39491">
        <ele>228.1</ele>
        <time>2014-09-28T11:02:31Z</time>
      </trkpt>
      <trkpt lat="43.66224" lon="3.39494">
        <ele>227.4</ele>
        <time>2014-09-28T11:02:33Z</time>
      </trkpt>
      <trkpt lat="43.66231" lon="3.39495">
        <ele>226.9</ele>
        <time>2014-09-28T11:02:34Z</time>
      </trkpt>
      <trkpt lat="43.66237" lon="3.39497">
        <ele>226.4</ele>
        <time>2014-09-28T11:02:35Z</time>
      </trkpt>
      <trkpt lat="43.66243" lon="3.39499">
        <ele>225.9</ele>
        <time>2014-09-28T11:02:36Z</time>
      </trkpt>
      <trkpt lat="43.66257" lon="3.39505">
        <ele>224.5</ele>
        <time>2014-09-28T11:02:38Z</time>
      </trkpt>
      <trkpt lat="43.66265" lon="3.39509">
        <ele>223.8</ele>
        <time>2014-09-28T11:02:39Z</time>
      </trkpt>
      <trkpt lat="43.66272" lon="3.39512">
        <ele>223.1</ele>
        <time>2014-09-28T11:02:40Z</time>
      </trkpt>
      <trkpt lat="43.66279" lon="3.39515">
        <ele>222.4</ele>
        <time>2014-09-28T11:02:41Z</time>
      </trkpt>
      <trkpt lat="43.66294" lon="3.3952">
        <ele>221.1</ele>
        <time>2014-09-28T11:02:43Z</time>
      </trkpt>
      <trkpt lat="43.66301" lon="3.39523">
        <ele>220.9</ele>
        <time>2014-09-28T11:02:44Z</time>
      </trkpt>
      <trkpt lat="43.66309" lon="3.39525">
        <ele>220.8</ele>
        <time>2014-09-28T11:02:45Z</time>
      </trkpt>
      <trkpt lat="43.66316" lon="3.39526">
        <ele>220.9</ele>
        <time>2014-09-28T11:02:46Z</time>
      </trkpt>
      <trkpt lat="43.66331" lon="3.39524">
        <ele>221.5</ele>
        <time>2014-09-28T11:02:48Z</time>
      </trkpt>
      <trkpt lat="43.66339" lon="3.39521">
        <ele>222.1</ele>
        <time>2014-09-28T11:02:49Z</time>
      </trkpt>
      <trkpt lat="43.66346" lon="3.39518">
        <ele>222.7</ele>
        <time>2014-09-28T11:02:50Z</time>
      </trkpt>
      <trkpt lat="43.66354" lon="3.39514">
        <ele>223.2</ele>
        <time>2014-09-28T11:02:51Z</time>
      </trkpt>
      <trkpt lat="43.66368" lon="3.3951">
        <ele>223.9</ele>
        <time>2014-09-28T11:02:53Z</time>
      </trkpt>
      <trkpt lat="43.66374" lon="3.39512">
        <ele>223.8</ele>
        <time>2014-09-28T11:02:54Z</time>
      </trkpt>
      <trkpt lat="43.66378" lon="3.39516">
        <ele>223.4</ele>
        <time>2014-09-28T11:02:55Z</time>
      </trkpt>
      <trkpt lat="43.66381" lon="3.39521">
        <ele>222.9</ele>
        <time>2014-09-28T11:02:56Z</time>
      </trkpt>
      <trkpt lat="43.66378" lon="3.39532">
        <ele>221.9</ele>
        <time>2014-09-28T11:02:58Z</time>
      </trkpt>
      <trkpt lat="43.66371" lon="3.39539">
        <ele>221.1</ele>
        <time>2014-09-28T11:03:00Z</time>
      </trkpt>
      <trkpt lat="43.6636" lon="3.39546">
        <ele>220.2</ele>
        <time>2014-09-28T11:03:03Z</time>
      </trkpt>
      <trkpt lat="43.66353" lon="3.39551">
        <ele>219.7</ele>
        <time>2014-09-28T11:03:05Z</time>
      </trkpt>
      <trkpt lat="43.66346" lon="3.39563">
        <ele>218.6</ele>
        <time>2014-09-28T11:03:08Z</time>
      </trkpt>
      <trkpt lat="43.66342" lon="3.39574">
        <ele>217.8</ele>
        <time>2014-09-28T11:03:10Z</time>
      </trkpt>
      <trkpt lat="43.66336" lon="3.39589">
        <ele>216.3</ele>
        <time>2014-09-28T11:03:13Z</time>
      </trkpt>
      <trkpt lat="43.6633" lon="3.39596">
        <ele>215.3</ele>
        <time>2014-09-28T11:03:15Z</time>
      </trkpt>
      <trkpt lat="43.6632" lon="3.39602">
        <ele>214</ele>
        <time>2014-09-28T11:03:18Z</time>
      </trkpt>
      <trkpt lat="43.66313" lon="3.39603">
        <ele>213.2</ele>
        <time>2014-09-28T11:03:20Z</time>
      </trkpt>
      <trkpt lat="43.66303" lon="3.39606">
        <ele>212.1</ele>
        <time>2014-09-28T11:03:23Z</time>
      </trkpt>
      <trkpt lat="43.66298" lon="3.39609">
        <ele>211.2</ele>
        <time>2014-09-28T11:03:25Z</time>
      </trkpt>
      <trkpt lat="43.66288" lon="3.39612">
        <ele>210.3</ele>
        <time>2014-09-28T11:03:28Z</time>
      </trkpt>
      <trkpt lat="43.66282" lon="3.39614">
        <ele>209.6</ele>
        <time>2014-09-28T11:03:30Z</time>
      </trkpt>
      <trkpt lat="43.66274" lon="3.39622">
        <ele>208.1</ele>
        <time>2014-09-28T11:03:33Z</time>
      </trkpt>
      <trkpt lat="43.66268" lon="3.39627">
        <ele>207.4</ele>
        <time>2014-09-28T11:03:35Z</time>
      </trkpt>
      <trkpt lat="43.6626" lon="3.39633">
        <ele>207.2</ele>
        <time>2014-09-28T11:03:38Z</time>
      </trkpt>
      <trkpt lat="43.66255" lon="3.39636">
        <ele>206.9</ele>
        <time>2014-09-28T11:03:40Z</time>
      </trkpt>
      <trkpt lat="43.66247" lon="3.39637">
        <ele>206.3</ele>
        <time>2014-09-28T11:03:43Z</time>
      </trkpt>
      <trkpt lat="43.6624" lon="3.39638">
        <ele>205.7</ele>
        <time>2014-09-28T11:03:45Z</time>
      </trkpt>
      <trkpt lat="43.66231" lon="3.39646">
        <ele>204.9</ele>
        <time>2014-09-28T11:03:48Z</time>
      </trkpt>
      <trkpt lat="43.66226" lon="3.39657">
        <ele>204.5</ele>
        <time>2014-09-28T11:03:50Z</time>
      </trkpt>
      <trkpt lat="43.66224" lon="3.39663">
        <ele>204.2</ele>
        <time>2014-09-28T11:03:51Z</time>
      </trkpt>
      <trkpt lat="43.6622" lon="3.39676">
        <ele>203.6</ele>
        <time>2014-09-28T11:03:53Z</time>
      </trkpt>
      <trkpt lat="43.66217" lon="3.39681">
        <ele>203.1</ele>
        <time>2014-09-28T11:03:54Z</time>
      </trkpt>
      <trkpt lat="43.66213" lon="3.39686">
        <ele>202.4</ele>
        <time>2014-09-28T11:03:55Z</time>
      </trkpt>
      <trkpt lat="43.6621" lon="3.3969">
        <ele>201.7</ele>
        <time>2014-09-28T11:03:56Z</time>
      </trkpt>
      <trkpt lat="43.66203" lon="3.39697">
        <ele>200</ele>
        <time>2014-09-28T11:03:58Z</time>
      </trkpt>
      <trkpt lat="43.66196" lon="3.39703">
        <ele>198.2</ele>
        <time>2014-09-28T11:04:00Z</time>
      </trkpt>
      <trkpt lat="43.66192" lon="3.39707">
        <ele>197.2</ele>
        <time>2014-09-28T11:04:01Z</time>
      </trkpt>
      <trkpt lat="43.66184" lon="3.39713">
        <ele>196.4</ele>
        <time>2014-09-28T11:04:03Z</time>
      </trkpt>
      <trkpt lat="43.6618" lon="3.39715">
        <ele>195.9</ele>
        <time>2014-09-28T11:04:04Z</time>
      </trkpt>
      <trkpt lat="43.66175" lon="3.39716">
        <ele>195</ele>
        <time>2014-09-28T11:04:05Z</time>
      </trkpt>
      <trkpt lat="43.6617" lon="3.39716">
        <ele>193.8</ele>
        <time>2014-09-28T11:04:06Z</time>
      </trkpt>
      <trkpt lat="43.66161" lon="3.39714">
        <ele>191</ele>
        <time>2014-09-28T11:04:08Z</time>
      </trkpt>
      <trkpt lat="43.66156" lon="3.39713">
        <ele>189.7</ele>
        <time>2014-09-28T11:04:09Z</time>
      </trkpt>
      <trkpt lat="43.66148" lon="3.39712">
        <ele>187.5</ele>
        <time>2014-09-28T11:04:11Z</time>
      </trkpt>
      <trkpt lat="43.6614" lon="3.39714">
        <ele>186.1</ele>
        <time>2014-09-28T11:04:13Z</time>
      </trkpt>
      <trkpt lat="43.66133" lon="3.39718">
        <ele>185.6</ele>
        <time>2014-09-28T11:04:15Z</time>
      </trkpt>
      <trkpt lat="43.66122" lon="3.39727">
        <ele>185.8</ele>
        <time>2014-09-28T11:04:18Z</time>
      </trkpt>
      <trkpt lat="43.66116" lon="3.39735">
        <ele>186.8</ele>
        <time>2014-09-28T11:04:20Z</time>
      </trkpt>
      <trkpt lat="43.66113" lon="3.3974">
        <ele>187.5</ele>
        <time>2014-09-28T11:04:21Z</time>
      </trkpt>
      <trkpt lat="43.66108" lon="3.39751">
        <ele>189.5</ele>
        <time>2014-09-28T11:04:23Z</time>
      </trkpt>
      <trkpt lat="43.66106" lon="3.39756">
        <ele>190.3</ele>
        <time>2014-09-28T11:04:24Z</time>
      </trkpt>
      <trkpt lat="43.66103" lon="3.39762">
        <ele>191.1</ele>
        <time>2014-09-28T11:04:25Z</time>
      </trkpt>
      <trkpt lat="43.66099" lon="3.39767">
        <ele>191.8</ele>
        <time>2014-09-28T11:04:26Z</time>
      </trkpt>
      <trkpt lat="43.66092" lon="3.39777">
        <ele>192.4</ele>
        <time>2014-09-28T11:04:28Z</time>
      </trkpt>
      <trkpt lat="43.66088" lon="3.39781">
        <ele>192.3</ele>
        <time>2014-09-28T11:04:29Z</time>
      </trkpt>
      <trkpt lat="43.66083" lon="3.39784">
        <ele>192</ele>
        <time>2014-09-28T11:04:30Z</time>
      </trkpt>
      <trkpt lat="43.66079" lon="3.39786">
        <ele>191.5</ele>
        <time>2014-09-28T11:04:31Z</time>
      </trkpt>
      <trkpt lat="43.66071" lon="3.39791">
        <ele>190.5</ele>
        <time>2014-09-28T11:04:33Z</time>
      </trkpt>
      <trkpt lat="43.66063" lon="3.39796">
        <ele>190.1</ele>
        <time>2014-09-28T11:04:35Z</time>
      </trkpt>
      <trkpt lat="43.66059" lon="3.39799">
        <ele>190.2</ele>
        <time>2014-09-28T11:04:36Z</time>
      </trkpt>
      <trkpt lat="43.66052" lon="3.39806">
        <ele>190.8</ele>
        <time>2014-09-28T11:04:38Z</time>
      </trkpt>
      <trkpt lat="43.66045" lon="3.39814">
        <ele>192.2</ele>
        <time>2014-09-28T11:04:40Z</time>
      </trkpt>
      <trkpt lat="43.66042" lon="3.39818">
        <ele>192.9</ele>
        <time>2014-09-28T11:04:41Z</time>
      </trkpt>
      <trkpt lat="43.66035" lon="3.39827">
        <ele>195.2</ele>
        <time>2014-09-28T11:04:43Z</time>
      </trkpt>
      <trkpt lat="43.66031" lon="3.39831">
        <ele>196.1</ele>
        <time>2014-09-28T11:04:44Z</time>
      </trkpt>
      <trkpt lat="43.66028" lon="3.39835">
        <ele>196.8</ele>
        <time>2014-09-28T11:04:45Z</time>
      </trkpt>
      <trkpt lat="43.66024" lon="3.39838">
        <ele>197.5</ele>
        <time>2014-09-28T11:04:46Z</time>
      </trkpt>
      <trkpt lat="43.66017" lon="3.39845">
        <ele>198.5</ele>
        <time>2014-09-28T11:04:48Z</time>
      </trkpt>
      <trkpt lat="43.66009" lon="3.39848">
        <ele>198.5</ele>
        <time>2014-09-28T11:04:50Z</time>
      </trkpt>
      <trkpt lat="43.65998" lon="3.39853">
        <ele>198.3</ele>
        <time>2014-09-28T11:04:53Z</time>
      </trkpt>
      <trkpt lat="43.65991" lon="3.39858">
        <ele>198.6</ele>
        <time>2014-09-28T11:04:55Z</time>
      </trkpt>
      <trkpt lat="43.6598" lon="3.39868">
        <ele>200</ele>
        <time>2014-09-28T11:04:58Z</time>
      </trkpt>
      <trkpt lat="43.65976" lon="3.39872">
        <ele>200.3</ele>
        <time>2014-09-28T11:04:59Z</time>
      </trkpt>
      <trkpt lat="43.65972" lon="3.39875">
        <ele>200.6</ele>
        <time>2014-09-28T11:05:00Z</time>
      </trkpt>
      <trkpt lat="43.65967" lon="3.39878">
        <ele>200.3</ele>
        <time>2014-09-28T11:05:01Z</time>
      </trkpt>
      <trkpt lat="43.65958" lon="3.39883">
        <ele>199.8</ele>
        <time>2014-09-28T11:05:03Z</time>
      </trkpt>
      <trkpt lat="43.65953" lon="3.39885">
        <ele>199.4</ele>
        <time>2014-09-28T11:05:04Z</time>
      </trkpt>
      <trkpt lat="43.65949" lon="3.39887">
        <ele>199</ele>
        <time>2014-09-28T11:05:05Z</time>
      </trkpt>
      <trkpt lat="43.65944" lon="3.3989">
        <ele>198.6</ele>
        <time>2014-09-28T11:05:06Z</time>
      </trkpt>
      <trkpt lat="43.65936" lon="3.39896">
        <ele>198.4</ele>
        <time>2014-09-28T11:05:08Z</time>
      </trkpt>
      <trkpt lat="43.65932" lon="3.399">
        <ele>198.4</ele>
        <time>2014-09-28T11:05:09Z</time>
      </trkpt>
      <trkpt lat="43.65929" lon="3.39904">
        <ele>198.4</ele>
        <time>2014-09-28T11:05:10Z</time>
      </trkpt>
      <trkpt lat="43.65925" lon="3.39907">
        <ele>198.4</ele>
        <time>2014-09-28T11:05:11Z</time>
      </trkpt>
      <trkpt lat="43.65918" lon="3.39915">
        <ele>198.3</ele>
        <time>2014-09-28T11:05:13Z</time>
      </trkpt>
      <trkpt lat="43.65914" lon="3.39919">
        <ele>198.3</ele>
        <time>2014-09-28T11:05:14Z</time>
      </trkpt>
      <trkpt lat="43.6591" lon="3.39924">
        <ele>198.4</ele>
        <time>2014-09-28T11:05:15Z</time>
      </trkpt>
      <trkpt lat="43.65907" lon="3.39929">
        <ele>198.6</ele>
        <time>2014-09-28T11:05:16Z</time>
      </trkpt>
      <trkpt lat="43.65902" lon="3.3994">
        <ele>199.5</ele>
        <time>2014-09-28T11:05:18Z</time>
      </trkpt>
      <trkpt lat="43.65901" lon="3.39946">
        <ele>200.2</ele>
        <time>2014-09-28T11:05:19Z</time>
      </trkpt>
      <trkpt lat="43.65899" lon="3.39952">
        <ele>200.9</ele>
        <time>2014-09-28T11:05:20Z</time>
      </trkpt>
      <trkpt lat="43.65898" lon="3.39958">
        <ele>201.7</ele>
        <time>2014-09-28T11:05:21Z</time>
      </trkpt>
      <trkpt lat="43.65896" lon="3.39972">
        <ele>201.8</ele>
        <time>2014-09-28T11:05:23Z</time>
      </trkpt>
      <trkpt lat="43.65896" lon="3.39978">
        <ele>202.1</ele>
        <time>2014-09-28T11:05:24Z</time>
      </trkpt>
      <trkpt lat="43.65897" lon="3.39985">
        <ele>202.5</ele>
        <time>2014-09-28T11:05:25Z</time>
      </trkpt>
      <trkpt lat="43.65897" lon="3.39991">
        <ele>202.9</ele>
        <time>2014-09-28T11:05:26Z</time>
      </trkpt>
      <trkpt lat="43.65899" lon="3.40004">
        <ele>203.9</ele>
        <time>2014-09-28T11:05:28Z</time>
      </trkpt>
      <trkpt lat="43.659" lon="3.4001">
        <ele>204.4</ele>
        <time>2014-09-28T11:05:29Z</time>
      </trkpt>
      <trkpt lat="43.65901" lon="3.40016">
        <ele>205.1</ele>
        <time>2014-09-28T11:05:30Z</time>
      </trkpt>
      <trkpt lat="43.65903" lon="3.40023">
        <ele>205.8</ele>
        <time>2014-09-28T11:05:31Z</time>
      </trkpt>
      <trkpt lat="43.65906" lon="3.40036">
        <ele>207.3</ele>
        <time>2014-09-28T11:05:33Z</time>
      </trkpt>
      <trkpt lat="43.65908" lon="3.40042">
        <ele>208.1</ele>
        <time>2014-09-28T11:05:34Z</time>
      </trkpt>
      <trkpt lat="43.6591" lon="3.40049">
        <ele>208.1</ele>
        <time>2014-09-28T11:05:35Z</time>
      </trkpt>
      <trkpt lat="43.65913" lon="3.40056">
        <ele>208.3</ele>
        <time>2014-09-28T11:05:36Z</time>
      </trkpt>
      <trkpt lat="43.6592" lon="3.4007">
        <ele>209.1</ele>
        <time>2014-09-28T11:05:38Z</time>
      </trkpt>
      <trkpt lat="43.65923" lon="3.40076">
        <ele>209.6</ele>
        <time>2014-09-28T11:05:39Z</time>
      </trkpt>
      <trkpt lat="43.65926" lon="3.40082">
        <ele>210.2</ele>
        <time>2014-09-28T11:05:40Z</time>
      </trkpt>
      <trkpt lat="43.6593" lon="3.40088">
        <ele>210.9</ele>
        <time>2014-09-28T11:05:41Z</time>
      </trkpt>
      <trkpt lat="43.65939" lon="3.40099">
        <ele>212.9</ele>
        <time>2014-09-28T11:05:43Z</time>
      </trkpt>
      <trkpt lat="43.65944" lon="3.40104">
        <ele>213.9</ele>
        <time>2014-09-28T11:05:44Z</time>
      </trkpt>
      <trkpt lat="43.65948" lon="3.40108">
        <ele>214.8</ele>
        <time>2014-09-28T11:05:45Z</time>
      </trkpt>
      <trkpt lat="43.65952" lon="3.40113">
        <ele>215.9</ele>
        <time>2014-09-28T11:05:46Z</time>
      </trkpt>
      <trkpt lat="43.65961" lon="3.40122">
        <ele>217.5</ele>
        <time>2014-09-28T11:05:48Z</time>
      </trkpt>
      <trkpt lat="43.65965" lon="3.40127">
        <ele>217.6</ele>
        <time>2014-09-28T11:05:49Z</time>
      </trkpt>
      <trkpt lat="43.65969" lon="3.40132">
        <ele>217.3</ele>
        <time>2014-09-28T11:05:50Z</time>
      </trkpt>
      <trkpt lat="43.65973" lon="3.40137">
        <ele>217</ele>
        <time>2014-09-28T11:05:51Z</time>
      </trkpt>
      <trkpt lat="43.65981" lon="3.40149">
        <ele>216.4</ele>
        <time>2014-09-28T11:05:53Z</time>
      </trkpt>
      <trkpt lat="43.65985" lon="3.40155">
        <ele>216.2</ele>
        <time>2014-09-28T11:05:54Z</time>
      </trkpt>
      <trkpt lat="43.65989" lon="3.40162">
        <ele>215.9</ele>
        <time>2014-09-28T11:05:55Z</time>
      </trkpt>
      <trkpt lat="43.65992" lon="3.40169">
        <ele>215.5</ele>
        <time>2014-09-28T11:05:56Z</time>
      </trkpt>
      <trkpt lat="43.65996" lon="3.40182">
        <ele>214.7</ele>
        <time>2014-09-28T11:05:58Z</time>
      </trkpt>
      <trkpt lat="43.65997" lon="3.4019">
        <ele>214.1</ele>
        <time>2014-09-28T11:05:59Z</time>
      </trkpt>
      <trkpt lat="43.65998" lon="3.40197">
        <ele>213.4</ele>
        <time>2014-09-28T11:06:00Z</time>
      </trkpt>
      <trkpt lat="43.65999" lon="3.40205">
        <ele>212.7</ele>
        <time>2014-09-28T11:06:01Z</time>
      </trkpt>
      <trkpt lat="43.66001" lon="3.4022">
        <ele>211.1</ele>
        <time>2014-09-28T11:06:03Z</time>
      </trkpt>
      <trkpt lat="43.66002" lon="3.40227">
        <ele>210.4</ele>
        <time>2014-09-28T11:06:04Z</time>
      </trkpt>
      <trkpt lat="43.66004" lon="3.40235">
        <ele>209.8</ele>
        <time>2014-09-28T11:06:05Z</time>
      </trkpt>
      <trkpt lat="43.66005" lon="3.40242">
        <ele>209.2</ele>
        <time>2014-09-28T11:06:06Z</time>
      </trkpt>
      <trkpt lat="43.6601" lon="3.40257">
        <ele>208.6</ele>
        <time>2014-09-28T11:06:08Z</time>
      </trkpt>
      <trkpt lat="43.66013" lon="3.40263">
        <ele>208.4</ele>
        <time>2014-09-28T11:06:09Z</time>
      </trkpt>
      <trkpt lat="43.66016" lon="3.4027">
        <ele>208.2</ele>
        <time>2014-09-28T11:06:10Z</time>
      </trkpt>
      <trkpt lat="43.66018" lon="3.40278">
        <ele>207.8</ele>
        <time>2014-09-28T11:06:11Z</time>
      </trkpt>
      <trkpt lat="43.66021" lon="3.40292">
        <ele>207.1</ele>
        <time>2014-09-28T11:06:13Z</time>
      </trkpt>
      <trkpt lat="43.66022" lon="3.40298">
        <ele>206.8</ele>
        <time>2014-09-28T11:06:14Z</time>
      </trkpt>
      <trkpt lat="43.66023" lon="3.40305">
        <ele>206.5</ele>
        <time>2014-09-28T11:06:15Z</time>
      </trkpt>
      <trkpt lat="43.66024" lon="3.40312">
        <ele>206.1</ele>
        <time>2014-09-28T11:06:16Z</time>
      </trkpt>
      <trkpt lat="43.66025" lon="3.40325">
        <ele>205.2</ele>
        <time>2014-09-28T11:06:18Z</time>
      </trkpt>
      <trkpt lat="43.66025" lon="3.40331">
        <ele>204.7</ele>
        <time>2014-09-28T11:06:19Z</time>
      </trkpt>
      <trkpt lat="43.66026" lon="3.40338">
        <ele>204.2</ele>
        <time>2014-09-28T11:06:20Z</time>
      </trkpt>
      <trkpt lat="43.66026" lon="3.40344">
        <ele>203.6</ele>
        <time>2014-09-28T11:06:21Z</time>
      </trkpt>
      <trkpt lat="43.66027" lon="3.40358">
        <ele>202.6</ele>
        <time>2014-09-28T11:06:23Z</time>
      </trkpt>
      <trkpt lat="43.66027" lon="3.40365">
        <ele>202.2</ele>
        <time>2014-09-28T11:06:24Z</time>
      </trkpt>
      <trkpt lat="43.66027" lon="3.40372">
        <ele>201.6</ele>
        <time>2014-09-28T11:06:25Z</time>
      </trkpt>
      <trkpt lat="43.66028" lon="3.4038">
        <ele>201.1</ele>
        <time>2014-09-28T11:06:26Z</time>
      </trkpt>
      <trkpt lat="43.66028" lon="3.40394">
        <ele>200.4</ele>
        <time>2014-09-28T11:06:28Z</time>
      </trkpt>
      <trkpt lat="43.66029" lon="3.40402">
        <ele>200.3</ele>
        <time>2014-09-28T11:06:29Z</time>
      </trkpt>
      <trkpt lat="43.66031" lon="3.40409">
        <ele>200.4</ele>
        <time>2014-09-28T11:06:30Z</time>
      </trkpt>
      <trkpt lat="43.66033" lon="3.40417">
        <ele>200.7</ele>
        <time>2014-09-28T11:06:31Z</time>
      </trkpt>
      <trkpt lat="43.66038" lon="3.4043">
        <ele>201.9</ele>
        <time>2014-09-28T11:06:33Z</time>
      </trkpt>
      <trkpt lat="43.66041" lon="3.40437">
        <ele>202.7</ele>
        <time>2014-09-28T11:06:34Z</time>
      </trkpt>
      <trkpt lat="43.66044" lon="3.40443">
        <ele>203.2</ele>
        <time>2014-09-28T11:06:35Z</time>
      </trkpt>
      <trkpt lat="43.66047" lon="3.40449">
        <ele>203.5</ele>
        <time>2014-09-28T11:06:36Z</time>
      </trkpt>
      <trkpt lat="43.66053" lon="3.40461">
        <ele>203.9</ele>
        <time>2014-09-28T11:06:38Z</time>
      </trkpt>
      <trkpt lat="43.66057" lon="3.40467">
        <ele>203.9</ele>
        <time>2014-09-28T11:06:39Z</time>
      </trkpt>
      <trkpt lat="43.6606" lon="3.40471">
        <ele>204.2</ele>
        <time>2014-09-28T11:06:40Z</time>
      </trkpt>
      <trkpt lat="43.66065" lon="3.40473">
        <ele>204.7</ele>
        <time>2014-09-28T11:06:41Z</time>
      </trkpt>
      <trkpt lat="43.66073" lon="3.40475">
        <ele>206.1</ele>
        <time>2014-09-28T11:06:43Z</time>
      </trkpt>
      <trkpt lat="43.66081" lon="3.40475">
        <ele>207.7</ele>
        <time>2014-09-28T11:06:45Z</time>
      </trkpt>
      <trkpt lat="43.66089" lon="3.40474">
        <ele>209.4</ele>
        <time>2014-09-28T11:06:48Z</time>
      </trkpt>
      <trkpt lat="43.66092" lon="3.4048">
        <ele>209.4</ele>
        <time>2014-09-28T11:06:51Z</time>
      </trkpt>
      <trkpt lat="43.66092" lon="3.40488">
        <ele>208.6</ele>
        <time>2014-09-28T11:06:53Z</time>
      </trkpt>
      <trkpt lat="43.66092" lon="3.40495">
        <ele>207.8</ele>
        <time>2014-09-28T11:06:55Z</time>
      </trkpt>
      <trkpt lat="43.66092" lon="3.40506">
        <ele>206.6</ele>
        <time>2014-09-28T11:06:58Z</time>
      </trkpt>
      <trkpt lat="43.66093" lon="3.40513">
        <ele>206.1</ele>
        <time>2014-09-28T11:07:00Z</time>
      </trkpt>
      <trkpt lat="43.66091" lon="3.40523">
        <ele>204.7</ele>
        <time>2014-09-28T11:07:03Z</time>
      </trkpt>
      <trkpt lat="43.66089" lon="3.40528">
        <ele>203.6</ele>
        <time>2014-09-28T11:07:15Z</time>
      </trkpt>
      <trkpt lat="43.66084" lon="3.40533">
        <ele>202.1</ele>
        <time>2014-09-28T11:07:18Z</time>
      </trkpt>
      <trkpt lat="43.66079" lon="3.40539">
        <ele>200.3</ele>
        <time>2014-09-28T11:07:21Z</time>
      </trkpt>
      <trkpt lat="43.66074" lon="3.40543">
        <ele>198.8</ele>
        <time>2014-09-28T11:07:23Z</time>
      </trkpt>
      <trkpt lat="43.66068" lon="3.40546">
        <ele>196.8</ele>
        <time>2014-09-28T11:07:25Z</time>
      </trkpt>
      <trkpt lat="43.66059" lon="3.4054">
        <ele>196</ele>
        <time>2014-09-28T11:07:28Z</time>
      </trkpt>
      <trkpt lat="43.66054" lon="3.40535">
        <ele>195.5</ele>
        <time>2014-09-28T11:07:31Z</time>
      </trkpt>
      <trkpt lat="43.6605" lon="3.40531">
        <ele>195.1</ele>
        <time>2014-09-28T11:07:34Z</time>
      </trkpt>
      <trkpt lat="43.66045" lon="3.40529">
        <ele>194.3</ele>
        <time>2014-09-28T11:07:38Z</time>
      </trkpt>
      <trkpt lat="43.66036" lon="3.40525">
        <ele>191.8</ele>
        <time>2014-09-28T11:07:56Z</time>
      </trkpt>
      <trkpt lat="43.66032" lon="3.4052">
        <ele>190.6</ele>
        <time>2014-09-28T11:08:03Z</time>
      </trkpt>
      <trkpt lat="43.66028" lon="3.40512">
        <ele>190.1</ele>
        <time>2014-09-28T11:08:06Z</time>
      </trkpt>
      <trkpt lat="43.66025" lon="3.40505">
        <ele>189.9</ele>
        <time>2014-09-28T11:08:08Z</time>
      </trkpt>
      <trkpt lat="43.66022" lon="3.405">
        <ele>189.2</ele>
        <time>2014-09-28T11:08:10Z</time>
      </trkpt>
      <trkpt lat="43.66016" lon="3.40491">
        <ele>187.8</ele>
        <time>2014-09-28T11:08:13Z</time>
      </trkpt>
      <trkpt lat="43.66012" lon="3.40486">
        <ele>186.8</ele>
        <time>2014-09-28T11:08:15Z</time>
      </trkpt>
      <trkpt lat="43.66008" lon="3.40484">
        <ele>185.5</ele>
        <time>2014-09-28T11:08:18Z</time>
      </trkpt>
      <trkpt lat="43.66008" lon="3.40491">
        <ele>184.6</ele>
        <time>2014-09-28T11:08:21Z</time>
      </trkpt>
      <trkpt lat="43.66009" lon="3.40499">
        <ele>184.2</ele>
        <time>2014-09-28T11:08:24Z</time>
      </trkpt>
      <trkpt lat="43.6601" lon="3.40507">
        <ele>183.4</ele>
        <time>2014-09-28T11:08:26Z</time>
      </trkpt>
      <trkpt lat="43.6601" lon="3.40516">
        <ele>182.4</ele>
        <time>2014-09-28T11:08:28Z</time>
      </trkpt>
      <trkpt lat="43.66009" lon="3.40523">
        <ele>181.2</ele>
        <time>2014-09-28T11:08:31Z</time>
      </trkpt>
      <trkpt lat="43.66006" lon="3.4053">
        <ele>179.2</ele>
        <time>2014-09-28T11:08:38Z</time>
      </trkpt>
      <trkpt lat="43.66002" lon="3.40534">
        <ele>177.3</ele>
        <time>2014-09-28T11:08:46Z</time>
      </trkpt>
      <trkpt lat="43.66002" lon="3.4054">
        <ele>176.5</ele>
        <time>2014-09-28T11:08:55Z</time>
      </trkpt>
      <trkpt lat="43.66003" lon="3.40548">
        <ele>175.8</ele>
        <time>2014-09-28T11:09:01Z</time>
      </trkpt>
      <trkpt lat="43.66003" lon="3.40554">
        <ele>175</ele>
        <time>2014-09-28T11:09:05Z</time>
      </trkpt>
      <trkpt lat="43.66001" lon="3.4056">
        <ele>173.3</ele>
        <time>2014-09-28T11:09:10Z</time>
      </trkpt>
      <trkpt lat="43.65997" lon="3.40561">
        <ele>171.3</ele>
        <time>2014-09-28T11:09:21Z</time>
      </trkpt>
      <trkpt lat="43.65992" lon="3.40562">
        <ele>169.5</ele>
        <time>2014-09-28T11:09:30Z</time>
      </trkpt>
      <trkpt lat="43.65987" lon="3.40563">
        <ele>167.5</ele>
        <time>2014-09-28T11:09:38Z</time>
      </trkpt>
      <trkpt lat="43.65981" lon="3.40574">
        <ele>163.5</ele>
        <time>2014-09-28T11:09:58Z</time>
      </trkpt>
      <trkpt lat="43.65978" lon="3.40582">
        <ele>161.5</ele>
        <time>2014-09-28T11:10:01Z</time>
      </trkpt>
      <trkpt lat="43.65974" lon="3.40587">
        <ele>159.2</ele>
        <time>2014-09-28T11:10:04Z</time>
      </trkpt>
      <trkpt lat="43.65972" lon="3.40594">
        <ele>157.9</ele>
        <time>2014-09-28T11:10:13Z</time>
      </trkpt>
      <trkpt lat="43.65971" lon="3.40603">
        <ele>156.1</ele>
        <time>2014-09-28T11:10:16Z</time>
      </trkpt>
      <trkpt lat="43.65971" lon="3.4061">
        <ele>155.4</ele>
        <time>2014-09-28T11:10:19Z</time>
      </trkpt>
      <trkpt lat="43.65972" lon="3.40616">
        <ele>155</ele>
        <time>2014-09-28T11:10:26Z</time>
      </trkpt>
      <trkpt lat="43.65972" lon="3.40629">
        <ele>153</ele>
        <time>2014-09-28T11:10:46Z</time>
      </trkpt>
      <trkpt lat="43.65972" lon="3.40637">
        <ele>151.7</ele>
        <time>2014-09-28T11:10:53Z</time>
      </trkpt>
      <trkpt lat="43.65975" lon="3.40643">
        <ele>151.7</ele>
        <time>2014-09-28T11:10:55Z</time>
      </trkpt>
      <trkpt lat="43.65981" lon="3.4065">
        <ele>152.4</ele>
        <time>2014-09-28T11:10:58Z</time>
      </trkpt>
      <trkpt lat="43.65985" lon="3.40654">
        <ele>152.8</ele>
        <time>2014-09-28T11:11:03Z</time>
      </trkpt>
      <trkpt lat="43.65988" lon="3.40661">
        <ele>152.5</ele>
        <time>2014-09-28T11:11:06Z</time>
      </trkpt>
      <trkpt lat="43.65992" lon="3.40667">
        <ele>152.6</ele>
        <time>2014-09-28T11:11:08Z</time>
      </trkpt>
      <trkpt lat="43.65998" lon="3.40673">
        <ele>153.2</ele>
        <time>2014-09-28T11:11:10Z</time>
      </trkpt>
      <trkpt lat="43.66007" lon="3.4068">
        <ele>154.4</ele>
        <time>2014-09-28T11:11:13Z</time>
      </trkpt>
      <trkpt lat="43.66012" lon="3.40682">
        <ele>155.1</ele>
        <time>2014-09-28T11:11:15Z</time>
      </trkpt>
      <trkpt lat="43.66015" lon="3.40688">
        <ele>154.7</ele>
        <time>2014-09-28T11:11:19Z</time>
      </trkpt>
      <trkpt lat="43.66021" lon="3.407">
        <ele>153.8</ele>
        <time>2014-09-28T11:11:23Z</time>
      </trkpt>
      <trkpt lat="43.66026" lon="3.40704">
        <ele>154.1</ele>
        <time>2014-09-28T11:11:25Z</time>
      </trkpt>
      <trkpt lat="43.66033" lon="3.40711">
        <ele>154.2</ele>
        <time>2014-09-28T11:11:28Z</time>
      </trkpt>
      <trkpt lat="43.66034" lon="3.40717">
        <ele>153.2</ele>
        <time>2014-09-28T11:11:31Z</time>
      </trkpt>
      <trkpt lat="43.66032" lon="3.40723">
        <ele>151.3</ele>
        <time>2014-09-28T11:11:38Z</time>
      </trkpt>
      <trkpt lat="43.66032" lon="3.40729">
        <ele>149.8</ele>
        <time>2014-09-28T11:11:41Z</time>
      </trkpt>
      <trkpt lat="43.66033" lon="3.40735">
        <ele>148.6</ele>
        <time>2014-09-28T11:11:44Z</time>
      </trkpt>
      <trkpt lat="43.66037" lon="3.40739">
        <ele>148.5</ele>
        <time>2014-09-28T11:11:49Z</time>
      </trkpt>
      <trkpt lat="43.66041" lon="3.40746">
        <ele>147.8</ele>
        <time>2014-09-28T11:11:51Z</time>
      </trkpt>
      <trkpt lat="43.66045" lon="3.40753">
        <ele>146.6</ele>
        <time>2014-09-28T11:11:53Z</time>
      </trkpt>
      <trkpt lat="43.66047" lon="3.4076">
        <ele>145.1</ele>
        <time>2014-09-28T11:11:55Z</time>
      </trkpt>
      <trkpt lat="43.66049" lon="3.40772">
        <ele>142.2</ele>
        <time>2014-09-28T11:11:58Z</time>
      </trkpt>
      <trkpt lat="43.66049" lon="3.40781">
        <ele>140</ele>
        <time>2014-09-28T11:12:00Z</time>
      </trkpt>
      <trkpt lat="43.66045" lon="3.40797">
        <ele>136.4</ele>
        <time>2014-09-28T11:12:03Z</time>
      </trkpt>
      <trkpt lat="43.66044" lon="3.40806">
        <ele>134.6</ele>
        <time>2014-09-28T11:12:05Z</time>
      </trkpt>
      <trkpt lat="43.66041" lon="3.40819">
        <ele>132</ele>
        <time>2014-09-28T11:12:08Z</time>
      </trkpt>
      <trkpt lat="43.66038" lon="3.40825">
        <ele>130.6</ele>
        <time>2014-09-28T11:12:11Z</time>
      </trkpt>
      <trkpt lat="43.66036" lon="3.40833">
        <ele>128.9</ele>
        <time>2014-09-28T11:12:14Z</time>
      </trkpt>
      <trkpt lat="43.66035" lon="3.40841">
        <ele>127.4</ele>
        <time>2014-09-28T11:12:16Z</time>
      </trkpt>
      <trkpt lat="43.66031" lon="3.40847">
        <ele>125.9</ele>
        <time>2014-09-28T11:12:18Z</time>
      </trkpt>
      <trkpt lat="43.66026" lon="3.40851">
        <ele>124.6</ele>
        <time>2014-09-28T11:12:20Z</time>
      </trkpt>
      <trkpt lat="43.66022" lon="3.40862">
        <ele>122.5</ele>
        <time>2014-09-28T11:12:23Z</time>
      </trkpt>
      <trkpt lat="43.66019" lon="3.40867">
        <ele>121.4</ele>
        <time>2014-09-28T11:12:25Z</time>
      </trkpt>
      <trkpt lat="43.66015" lon="3.40863">
        <ele>121.7</ele>
        <time>2014-09-28T11:12:39Z</time>
      </trkpt>
      <trkpt lat="43.6601" lon="3.40863">
        <ele>121.1</ele>
        <time>2014-09-28T11:12:45Z</time>
      </trkpt>
      <trkpt lat="43.66006" lon="3.40861">
        <ele>120.9</ele>
        <time>2014-09-28T11:12:48Z</time>
      </trkpt>
      <trkpt lat="43.66007" lon="3.40853">
        <ele>122.3</ele>
        <time>2014-09-28T11:12:51Z</time>
      </trkpt>
      <trkpt lat="43.66008" lon="3.40845">
        <ele>123.6</ele>
        <time>2014-09-28T11:12:54Z</time>
      </trkpt>
      <trkpt lat="43.66009" lon="3.40838">
        <ele>124.7</ele>
        <time>2014-09-28T11:12:58Z</time>
      </trkpt>
      <trkpt lat="43.66008" lon="3.40831">
        <ele>125.5</ele>
        <time>2014-09-28T11:13:25Z</time>
      </trkpt>
      <trkpt lat="43.66006" lon="3.40824">
        <ele>126.4</ele>
        <time>2014-09-28T11:13:29Z</time>
      </trkpt>
      <trkpt lat="43.66001" lon="3.40817">
        <ele>126.7</ele>
        <time>2014-09-28T11:13:33Z</time>
      </trkpt>
      <trkpt lat="43.65995" lon="3.40815">
        <ele>126.1</ele>
        <time>2014-09-28T11:13:36Z</time>
      </trkpt>
      <trkpt lat="43.6599" lon="3.40815">
        <ele>125.4</ele>
        <time>2014-09-28T11:13:38Z</time>
      </trkpt>
      <trkpt lat="43.65984" lon="3.40815">
        <ele>124.5</ele>
        <time>2014-09-28T11:13:40Z</time>
      </trkpt>
      <trkpt lat="43.65974" lon="3.40813">
        <ele>123.2</ele>
        <time>2014-09-28T11:13:43Z</time>
      </trkpt>
      <trkpt lat="43.65968" lon="3.40809">
        <ele>122.8</ele>
        <time>2014-09-28T11:13:45Z</time>
      </trkpt>
      <trkpt lat="43.65965" lon="3.40798">
        <ele>123.4</ele>
        <time>2014-09-28T11:13:48Z</time>
      </trkpt>
      <trkpt lat="43.65963" lon="3.4079">
        <ele>124.1</ele>
        <time>2014-09-28T11:13:50Z</time>
      </trkpt>
      <trkpt lat="43.6596" lon="3.40779">
        <ele>125.4</ele>
        <time>2014-09-28T11:13:53Z</time>
      </trkpt>
      <trkpt lat="43.65957" lon="3.40772">
        <ele>125.8</ele>
        <time>2014-09-28T11:13:55Z</time>
      </trkpt>
      <trkpt lat="43.65951" lon="3.40766">
        <ele>125.7</ele>
        <time>2014-09-28T11:13:58Z</time>
      </trkpt>
      <trkpt lat="43.65946" lon="3.40764">
        <ele>125</ele>
        <time>2014-09-28T11:14:00Z</time>
      </trkpt>
      <trkpt lat="43.6594" lon="3.4076">
        <ele>124.6</ele>
        <time>2014-09-28T11:14:03Z</time>
      </trkpt>
      <trkpt lat="43.65936" lon="3.40756">
        <ele>124.3</ele>
        <time>2014-09-28T11:14:05Z</time>
      </trkpt>
      <trkpt lat="43.65932" lon="3.40748">
        <ele>124.7</ele>
        <time>2014-09-28T11:14:08Z</time>
      </trkpt>
      <trkpt lat="43.65929" lon="3.40743">
        <ele>125</ele>
        <time>2014-09-28T11:14:10Z</time>
      </trkpt>
      <trkpt lat="43.65926" lon="3.40735">
        <ele>125.5</ele>
        <time>2014-09-28T11:14:13Z</time>
      </trkpt>
      <trkpt lat="43.65924" lon="3.40728">
        <ele>126.1</ele>
        <time>2014-09-28T11:14:16Z</time>
      </trkpt>
      <trkpt lat="43.65922" lon="3.4072">
        <ele>127</ele>
        <time>2014-09-28T11:14:19Z</time>
      </trkpt>
      <trkpt lat="43.65921" lon="3.40713">
        <ele>127.7</ele>
        <time>2014-09-28T11:14:21Z</time>
      </trkpt>
      <trkpt lat="43.65921" lon="3.40707">
        <ele>128.6</ele>
        <time>2014-09-28T11:14:23Z</time>
      </trkpt>
      <trkpt lat="43.6592" lon="3.407">
        <ele>129.4</ele>
        <time>2014-09-28T11:14:25Z</time>
      </trkpt>
      <trkpt lat="43.65919" lon="3.4069">
        <ele>130.4</ele>
        <time>2014-09-28T11:14:28Z</time>
      </trkpt>
      <trkpt lat="43.65917" lon="3.40684">
        <ele>130.9</ele>
        <time>2014-09-28T11:14:30Z</time>
      </trkpt>
      <trkpt lat="43.65914" lon="3.40677">
        <ele>131</ele>
        <time>2014-09-28T11:14:33Z</time>
      </trkpt>
      <trkpt lat="43.65911" lon="3.4067">
        <ele>131.2</ele>
        <time>2014-09-28T11:14:36Z</time>
      </trkpt>
      <trkpt lat="43.65907" lon="3.40665">
        <ele>131</ele>
        <time>2014-09-28T11:14:38Z</time>
      </trkpt>
      <trkpt lat="43.65903" lon="3.40659">
        <ele>130.9</ele>
        <time>2014-09-28T11:14:41Z</time>
      </trkpt>
      <trkpt lat="43.65899" lon="3.40652">
        <ele>130.7</ele>
        <time>2014-09-28T11:14:44Z</time>
      </trkpt>
      <trkpt lat="43.65894" lon="3.40645">
        <ele>130.4</ele>
        <time>2014-09-28T11:14:48Z</time>
      </trkpt>
      <trkpt lat="43.65889" lon="3.4064">
        <ele>129.9</ele>
        <time>2014-09-28T11:14:51Z</time>
      </trkpt>
      <trkpt lat="43.65884" lon="3.40636">
        <ele>129.1</ele>
        <time>2014-09-28T11:14:54Z</time>
      </trkpt>
      <trkpt lat="43.65876" lon="3.40629">
        <ele>127.8</ele>
        <time>2014-09-28T11:14:58Z</time>
      </trkpt>
      <trkpt lat="43.65871" lon="3.40623">
        <ele>126.8</ele>
        <time>2014-09-28T11:15:01Z</time>
      </trkpt>
      <trkpt lat="43.6587" lon="3.40616">
        <ele>126.4</ele>
        <time>2014-09-28T11:15:03Z</time>
      </trkpt>
      <trkpt lat="43.65869" lon="3.40602">
        <ele>126.1</ele>
        <time>2014-09-28T11:15:08Z</time>
      </trkpt>
      <trkpt lat="43.65869" lon="3.40594">
        <ele>126.3</ele>
        <time>2014-09-28T11:15:11Z</time>
      </trkpt>
      <trkpt lat="43.65869" lon="3.40586">
        <ele>126.3</ele>
        <time>2014-09-28T11:15:14Z</time>
      </trkpt>
      <trkpt lat="43.65869" lon="3.40576">
        <ele>126.6</ele>
        <time>2014-09-28T11:15:18Z</time>
      </trkpt>
      <trkpt lat="43.65869" lon="3.40568">
        <ele>126.6</ele>
        <time>2014-09-28T11:15:21Z</time>
      </trkpt>
      <trkpt lat="43.6587" lon="3.40562">
        <ele>127.1</ele>
        <time>2014-09-28T11:15:24Z</time>
      </trkpt>
      <trkpt lat="43.65869" lon="3.40552">
        <ele>126.5</ele>
        <time>2014-09-28T11:15:28Z</time>
      </trkpt>
      <trkpt lat="43.65868" lon="3.40543">
        <ele>126.5</ele>
        <time>2014-09-28T11:15:31Z</time>
      </trkpt>
      <trkpt lat="43.65867" lon="3.40535">
        <ele>126.5</ele>
        <time>2014-09-28T11:15:34Z</time>
      </trkpt>
      <trkpt lat="43.65866" lon="3.40525">
        <ele>126.6</ele>
        <time>2014-09-28T11:15:38Z</time>
      </trkpt>
      <trkpt lat="43.65866" lon="3.40516">
        <ele>126.8</ele>
        <time>2014-09-28T11:15:42Z</time>
      </trkpt>
      <trkpt lat="43.65866" lon="3.40509">
        <ele>127.3</ele>
        <time>2014-09-28T11:15:44Z</time>
      </trkpt>
      <trkpt lat="43.65864" lon="3.40499">
        <ele>127.3</ele>
        <time>2014-09-28T11:15:48Z</time>
      </trkpt>
      <trkpt lat="43.65864" lon="3.4049">
        <ele>127.4</ele>
        <time>2014-09-28T11:15:51Z</time>
      </trkpt>
      <trkpt lat="43.65864" lon="3.40481">
        <ele>128</ele>
        <time>2014-09-28T11:15:54Z</time>
      </trkpt>
      <trkpt lat="43.65864" lon="3.40474">
        <ele>128.4</ele>
        <time>2014-09-28T11:15:56Z</time>
      </trkpt>
      <trkpt lat="43.65864" lon="3.40467">
        <ele>128.8</ele>
        <time>2014-09-28T11:15:58Z</time>
      </trkpt>
      <trkpt lat="43.65863" lon="3.40461">
        <ele>128.8</ele>
        <time>2014-09-28T11:16:00Z</time>
      </trkpt>
      <trkpt lat="43.65862" lon="3.4045">
        <ele>129.3</ele>
        <time>2014-09-28T11:16:03Z</time>
      </trkpt>
      <trkpt lat="43.65861" lon="3.40442">
        <ele>129.6</ele>
        <time>2014-09-28T11:16:05Z</time>
      </trkpt>
      <trkpt lat="43.6586" lon="3.4043">
        <ele>130.6</ele>
        <time>2014-09-28T11:16:08Z</time>
      </trkpt>
      <trkpt lat="43.6586" lon="3.40422">
        <ele>131.2</ele>
        <time>2014-09-28T11:16:10Z</time>
      </trkpt>
      <trkpt lat="43.65859" lon="3.4041">
        <ele>132.2</ele>
        <time>2014-09-28T11:16:13Z</time>
      </trkpt>
      <trkpt lat="43.65858" lon="3.40403">
        <ele>132.4</ele>
        <time>2014-09-28T11:16:16Z</time>
      </trkpt>
      <trkpt lat="43.65857" lon="3.40394">
        <ele>132.6</ele>
        <time>2014-09-28T11:16:18Z</time>
      </trkpt>
      <trkpt lat="43.65855" lon="3.40387">
        <ele>132.7</ele>
        <time>2014-09-28T11:16:20Z</time>
      </trkpt>
      <trkpt lat="43.65853" lon="3.40379">
        <ele>132.6</ele>
        <time>2014-09-28T11:16:22Z</time>
      </trkpt>
      <trkpt lat="43.6585" lon="3.40371">
        <ele>132.5</ele>
        <time>2014-09-28T11:16:24Z</time>
      </trkpt>
      <trkpt lat="43.65848" lon="3.40364">
        <ele>132.8</ele>
        <time>2014-09-28T11:16:26Z</time>
      </trkpt>
      <trkpt lat="43.65846" lon="3.40357">
        <ele>133.3</ele>
        <time>2014-09-28T11:16:28Z</time>
      </trkpt>
      <trkpt lat="43.65844" lon="3.40349">
        <ele>133.8</ele>
        <time>2014-09-28T11:16:30Z</time>
      </trkpt>
      <trkpt lat="43.65843" lon="3.40342">
        <ele>134.5</ele>
        <time>2014-09-28T11:16:32Z</time>
      </trkpt>
      <trkpt lat="43.65841" lon="3.40335">
        <ele>135.1</ele>
        <time>2014-09-28T11:16:34Z</time>
      </trkpt>
      <trkpt lat="43.65839" lon="3.40327">
        <ele>135.9</ele>
        <time>2014-09-28T11:16:36Z</time>
      </trkpt>
      <trkpt lat="43.65838" lon="3.40317">
        <ele>137.2</ele>
        <time>2014-09-28T11:16:38Z</time>
      </trkpt>
      <trkpt lat="43.65837" lon="3.40311">
        <ele>137.9</ele>
        <time>2014-09-28T11:16:40Z</time>
      </trkpt>
      <trkpt lat="43.65836" lon="3.40305">
        <ele>138.5</ele>
        <time>2014-09-28T11:16:43Z</time>
      </trkpt>
      <trkpt lat="43.65835" lon="3.40298">
        <ele>139.4</ele>
        <time>2014-09-28T11:16:45Z</time>
      </trkpt>
      <trkpt lat="43.65834" lon="3.40291">
        <ele>140.3</ele>
        <time>2014-09-28T11:16:47Z</time>
      </trkpt>
      <trkpt lat="43.65832" lon="3.40285">
        <ele>140.7</ele>
        <time>2014-09-28T11:16:49Z</time>
      </trkpt>
      <trkpt lat="43.6583" lon="3.40279">
        <ele>141.1</ele>
        <time>2014-09-28T11:16:51Z</time>
      </trkpt>
      <trkpt lat="43.65828" lon="3.40272">
        <ele>141.8</ele>
        <time>2014-09-28T11:16:53Z</time>
      </trkpt>
      <trkpt lat="43.65826" lon="3.40264">
        <ele>142.8</ele>
        <time>2014-09-28T11:16:56Z</time>
      </trkpt>
      <trkpt lat="43.65824" lon="3.40255">
        <ele>143.6</ele>
        <time>2014-09-28T11:16:59Z</time>
      </trkpt>
      <trkpt lat="43.65822" lon="3.40249">
        <ele>143.9</ele>
        <time>2014-09-28T11:17:01Z</time>
      </trkpt>
      <trkpt lat="43.65818" lon="3.40242">
        <ele>143.9</ele>
        <time>2014-09-28T11:17:03Z</time>
      </trkpt>
      <trkpt lat="43.65816" lon="3.40235">
        <ele>144.4</ele>
        <time>2014-09-28T11:17:05Z</time>
      </trkpt>
      <trkpt lat="43.65815" lon="3.40228">
        <ele>145.3</ele>
        <time>2014-09-28T11:17:07Z</time>
      </trkpt>
      <trkpt lat="43.65813" lon="3.40222">
        <ele>145.9</ele>
        <time>2014-09-28T11:17:09Z</time>
      </trkpt>
      <trkpt lat="43.65811" lon="3.40215">
        <ele>146.5</ele>
        <time>2014-09-28T11:17:11Z</time>
      </trkpt>
      <trkpt lat="43.65809" lon="3.40209">
        <ele>147</ele>
        <time>2014-09-28T11:17:13Z</time>
      </trkpt>
      <trkpt lat="43.65807" lon="3.40202">
        <ele>147.4</ele>
        <time>2014-09-28T11:17:15Z</time>
      </trkpt>
      <trkpt lat="43.65805" lon="3.40194">
        <ele>147.9</ele>
        <time>2014-09-28T11:17:17Z</time>
      </trkpt>
      <trkpt lat="43.65803" lon="3.40187">
        <ele>148.1</ele>
        <time>2014-09-28T11:17:19Z</time>
      </trkpt>
      <trkpt lat="43.658" lon="3.4018">
        <ele>147.9</ele>
        <time>2014-09-28T11:17:21Z</time>
      </trkpt>
      <trkpt lat="43.65796" lon="3.40173">
        <ele>147.4</ele>
        <time>2014-09-28T11:17:23Z</time>
      </trkpt>
      <trkpt lat="43.65792" lon="3.40166">
        <ele>146.8</ele>
        <time>2014-09-28T11:17:25Z</time>
      </trkpt>
      <trkpt lat="43.65788" lon="3.40158">
        <ele>147.1</ele>
        <time>2014-09-28T11:17:27Z</time>
      </trkpt>
      <trkpt lat="43.65785" lon="3.4015">
        <ele>147.7</ele>
        <time>2014-09-28T11:17:29Z</time>
      </trkpt>
      <trkpt lat="43.6578" lon="3.4014">
        <ele>148.3</ele>
        <time>2014-09-28T11:17:31Z</time>
      </trkpt>
      <trkpt lat="43.65776" lon="3.4013">
        <ele>149.2</ele>
        <time>2014-09-28T11:17:33Z</time>
      </trkpt>
      <trkpt lat="43.65773" lon="3.40119">
        <ele>150.2</ele>
        <time>2014-09-28T11:17:35Z</time>
      </trkpt>
      <trkpt lat="43.65771" lon="3.40113">
        <ele>150.6</ele>
        <time>2014-09-28T11:17:36Z</time>
      </trkpt>
      <trkpt lat="43.6577" lon="3.40106">
        <ele>151.2</ele>
        <time>2014-09-28T11:17:37Z</time>
      </trkpt>
      <trkpt lat="43.65768" lon="3.401">
        <ele>151.7</ele>
        <time>2014-09-28T11:17:38Z</time>
      </trkpt>
      <trkpt lat="43.65767" lon="3.40093">
        <ele>152.3</ele>
        <time>2014-09-28T11:17:39Z</time>
      </trkpt>
      <trkpt lat="43.65766" lon="3.40086">
        <ele>152.9</ele>
        <time>2014-09-28T11:17:40Z</time>
      </trkpt>
      <trkpt lat="43.65765" lon="3.4008">
        <ele>153.4</ele>
        <time>2014-09-28T11:17:41Z</time>
      </trkpt>
      <trkpt lat="43.65764" lon="3.40074">
        <ele>153.9</ele>
        <time>2014-09-28T11:17:42Z</time>
      </trkpt>
      <trkpt lat="43.65761" lon="3.40063">
        <ele>154.6</ele>
        <time>2014-09-28T11:17:44Z</time>
      </trkpt>
      <trkpt lat="43.65757" lon="3.40053">
        <ele>154.9</ele>
        <time>2014-09-28T11:17:46Z</time>
      </trkpt>
      <trkpt lat="43.65753" lon="3.40045">
        <ele>154.8</ele>
        <time>2014-09-28T11:17:48Z</time>
      </trkpt>
      <trkpt lat="43.65748" lon="3.40036">
        <ele>154.1</ele>
        <time>2014-09-28T11:17:50Z</time>
      </trkpt>
      <trkpt lat="43.65743" lon="3.40026">
        <ele>153.1</ele>
        <time>2014-09-28T11:17:52Z</time>
      </trkpt>
      <trkpt lat="43.65741" lon="3.40015">
        <ele>152.5</ele>
        <time>2014-09-28T11:17:54Z</time>
      </trkpt>
      <trkpt lat="43.65737" lon="3.40005">
        <ele>151.9</ele>
        <time>2014-09-28T11:17:56Z</time>
      </trkpt>
      <trkpt lat="43.65733" lon="3.39995">
        <ele>151</ele>
        <time>2014-09-28T11:17:58Z</time>
      </trkpt>
      <trkpt lat="43.6573" lon="3.39984">
        <ele>150.3</ele>
        <time>2014-09-28T11:18:00Z</time>
      </trkpt>
      <trkpt lat="43.65728" lon="3.39972">
        <ele>149.9</ele>
        <time>2014-09-28T11:18:02Z</time>
      </trkpt>
      <trkpt lat="43.65725" lon="3.39961">
        <ele>149.3</ele>
        <time>2014-09-28T11:18:04Z</time>
      </trkpt>
      <trkpt lat="43.65722" lon="3.39949">
        <ele>148.8</ele>
        <time>2014-09-28T11:18:06Z</time>
      </trkpt>
      <trkpt lat="43.6572" lon="3.39943">
        <ele>148.4</ele>
        <time>2014-09-28T11:18:07Z</time>
      </trkpt>
      <trkpt lat="43.65717" lon="3.39932">
        <ele>147.8</ele>
        <time>2014-09-28T11:18:09Z</time>
      </trkpt>
      <trkpt lat="43.65712" lon="3.39921">
        <ele>146.9</ele>
        <time>2014-09-28T11:18:11Z</time>
      </trkpt>
      <trkpt lat="43.6571" lon="3.39916">
        <ele>146.5</ele>
        <time>2014-09-28T11:18:12Z</time>
      </trkpt>
      <trkpt lat="43.65708" lon="3.3991">
        <ele>146.1</ele>
        <time>2014-09-28T11:18:13Z</time>
      </trkpt>
      <trkpt lat="43.65704" lon="3.399">
        <ele>145.8</ele>
        <time>2014-09-28T11:18:15Z</time>
      </trkpt>
      <trkpt lat="43.65699" lon="3.39891">
        <ele>145.4</ele>
        <time>2014-09-28T11:18:17Z</time>
      </trkpt>
      <trkpt lat="43.65693" lon="3.39891">
        <ele>144.7</ele>
        <time>2014-09-28T11:18:19Z</time>
      </trkpt>
      <trkpt lat="43.65692" lon="3.39898">
        <ele>144.4</ele>
        <time>2014-09-28T11:18:21Z</time>
      </trkpt>
      <trkpt lat="43.65695" lon="3.39907">
        <ele>144.6</ele>
        <time>2014-09-28T11:18:23Z</time>
      </trkpt>
      <trkpt lat="43.65699" lon="3.39916">
        <ele>144.9</ele>
        <time>2014-09-28T11:18:25Z</time>
      </trkpt>
      <trkpt lat="43.65703" lon="3.39926">
        <ele>145.1</ele>
        <time>2014-09-28T11:18:27Z</time>
      </trkpt>
      <trkpt lat="43.65707" lon="3.39937">
        <ele>145.3</ele>
        <time>2014-09-28T11:18:29Z</time>
      </trkpt>
      <trkpt lat="43.6571" lon="3.39948">
        <ele>145.5</ele>
        <time>2014-09-28T11:18:31Z</time>
      </trkpt>
      <trkpt lat="43.65712" lon="3.3996">
        <ele>146</ele>
        <time>2014-09-28T11:18:33Z</time>
      </trkpt>
      <trkpt lat="43.65714" lon="3.39966">
        <ele>146.3</ele>
        <time>2014-09-28T11:18:34Z</time>
      </trkpt>
      <trkpt lat="43.65715" lon="3.39972">
        <ele>146.5</ele>
        <time>2014-09-28T11:18:35Z</time>
      </trkpt>
      <trkpt lat="43.65716" lon="3.39978">
        <ele>146.7</ele>
        <time>2014-09-28T11:18:36Z</time>
      </trkpt>
      <trkpt lat="43.65717" lon="3.39985">
        <ele>146.8</ele>
        <time>2014-09-28T11:18:37Z</time>
      </trkpt>
      <trkpt lat="43.65717" lon="3.39992">
        <ele>146.9</ele>
        <time>2014-09-28T11:18:38Z</time>
      </trkpt>
      <trkpt lat="43.65718" lon="3.4">
        <ele>147</ele>
        <time>2014-09-28T11:18:39Z</time>
      </trkpt>
      <trkpt lat="43.65718" lon="3.40008">
        <ele>147</ele>
        <time>2014-09-28T11:18:40Z</time>
      </trkpt>
      <trkpt lat="43.65718" lon="3.40017">
        <ele>146.8</ele>
        <time>2014-09-28T11:18:41Z</time>
      </trkpt>
      <trkpt lat="43.65717" lon="3.40027">
        <ele>146.3</ele>
        <time>2014-09-28T11:18:42Z</time>
      </trkpt>
      <trkpt lat="43.65713" lon="3.40036">
        <ele>145.3</ele>
        <time>2014-09-28T11:18:43Z</time>
      </trkpt>
      <trkpt lat="43.65709" lon="3.40045">
        <ele>143.8</ele>
        <time>2014-09-28T11:18:44Z</time>
      </trkpt>
      <trkpt lat="43.65704" lon="3.40053">
        <ele>142.7</ele>
        <time>2014-09-28T11:18:45Z</time>
      </trkpt>
      <trkpt lat="43.65695" lon="3.40067">
        <ele>140.9</ele>
        <time>2014-09-28T11:18:46Z</time>
      </trkpt>
      <trkpt lat="43.6569" lon="3.40074">
        <ele>140.1</ele>
        <time>2014-09-28T11:18:48Z</time>
      </trkpt>
      <trkpt lat="43.65686" lon="3.4008">
        <ele>139.5</ele>
        <time>2014-09-28T11:18:49Z</time>
      </trkpt>
      <trkpt lat="43.65681" lon="3.40087">
        <ele>138.8</ele>
        <time>2014-09-28T11:18:50Z</time>
      </trkpt>
      <trkpt lat="43.65677" lon="3.40093">
        <ele>138.3</ele>
        <time>2014-09-28T11:18:51Z</time>
      </trkpt>
      <trkpt lat="43.65672" lon="3.40099">
        <ele>137.8</ele>
        <time>2014-09-28T11:18:52Z</time>
      </trkpt>
      <trkpt lat="43.65668" lon="3.40105">
        <ele>137.4</ele>
        <time>2014-09-28T11:18:53Z</time>
      </trkpt>
      <trkpt lat="43.65663" lon="3.40111">
        <ele>137</ele>
        <time>2014-09-28T11:18:54Z</time>
      </trkpt>
      <trkpt lat="43.65659" lon="3.40117">
        <ele>136.7</ele>
        <time>2014-09-28T11:18:55Z</time>
      </trkpt>
      <trkpt lat="43.65655" lon="3.40124">
        <ele>136.4</ele>
        <time>2014-09-28T11:18:56Z</time>
      </trkpt>
      <trkpt lat="43.65651" lon="3.4013">
        <ele>136.1</ele>
        <time>2014-09-28T11:18:57Z</time>
      </trkpt>
      <trkpt lat="43.65643" lon="3.40141">
        <ele>135.7</ele>
        <time>2014-09-28T11:18:58Z</time>
      </trkpt>
      <trkpt lat="43.65639" lon="3.40146">
        <ele>135.7</ele>
        <time>2014-09-28T11:19:00Z</time>
      </trkpt>
      <trkpt lat="43.65635" lon="3.40152">
        <ele>135.8</ele>
        <time>2014-09-28T11:19:01Z</time>
      </trkpt>
      <trkpt lat="43.65632" lon="3.40157">
        <ele>135.9</ele>
        <time>2014-09-28T11:19:02Z</time>
      </trkpt>
      <trkpt lat="43.65629" lon="3.40162">
        <ele>136.1</ele>
        <time>2014-09-28T11:19:03Z</time>
      </trkpt>
      <trkpt lat="43.65625" lon="3.40167">
        <ele>136.5</ele>
        <time>2014-09-28T11:19:04Z</time>
      </trkpt>
      <trkpt lat="43.65622" lon="3.40171">
        <ele>136.5</ele>
        <time>2014-09-28T11:19:05Z</time>
      </trkpt>
      <trkpt lat="43.65617" lon="3.4018">
        <ele>136.6</ele>
        <time>2014-09-28T11:19:07Z</time>
      </trkpt>
      <trkpt lat="43.65611" lon="3.40187">
        <ele>136.6</ele>
        <time>2014-09-28T11:19:09Z</time>
      </trkpt>
      <trkpt lat="43.65606" lon="3.40192">
        <ele>136.6</ele>
        <time>2014-09-28T11:19:11Z</time>
      </trkpt>
      <trkpt lat="43.65602" lon="3.40199">
        <ele>136.6</ele>
        <time>2014-09-28T11:19:13Z</time>
      </trkpt>
      <trkpt lat="43.65599" lon="3.40205">
        <ele>136.7</ele>
        <time>2014-09-28T11:19:15Z</time>
      </trkpt>
      <trkpt lat="43.65595" lon="3.40211">
        <ele>136.5</ele>
        <time>2014-09-28T11:19:17Z</time>
      </trkpt>
      <trkpt lat="43.65591" lon="3.40216">
        <ele>136.2</ele>
        <time>2014-09-28T11:19:19Z</time>
      </trkpt>
      <trkpt lat="43.65587" lon="3.4022">
        <ele>136</ele>
        <time>2014-09-28T11:19:21Z</time>
      </trkpt>
      <trkpt lat="43.65584" lon="3.40225">
        <ele>135.8</ele>
        <time>2014-09-28T11:19:23Z</time>
      </trkpt>
      <trkpt lat="43.65581" lon="3.4023">
        <ele>135.7</ele>
        <time>2014-09-28T11:19:25Z</time>
      </trkpt>
      <trkpt lat="43.65577" lon="3.40236">
        <ele>135.5</ele>
        <time>2014-09-28T11:19:28Z</time>
      </trkpt>
      <trkpt lat="43.65574" lon="3.40241">
        <ele>135.5</ele>
        <time>2014-09-28T11:19:30Z</time>
      </trkpt>
      <trkpt lat="43.6557" lon="3.40247">
        <ele>135.5</ele>
        <time>2014-09-28T11:19:32Z</time>
      </trkpt>
      <trkpt lat="43.65566" lon="3.40252">
        <ele>135.6</ele>
        <time>2014-09-28T11:19:34Z</time>
      </trkpt>
      <trkpt lat="43.65563" lon="3.40257">
        <ele>135.8</ele>
        <time>2014-09-28T11:19:36Z</time>
      </trkpt>
      <trkpt lat="43.65559" lon="3.40261">
        <ele>136</ele>
        <time>2014-09-28T11:19:38Z</time>
      </trkpt>
      <trkpt lat="43.65556" lon="3.40267">
        <ele>136.3</ele>
        <time>2014-09-28T11:19:40Z</time>
      </trkpt>
      <trkpt lat="43.65553" lon="3.40272">
        <ele>136.6</ele>
        <time>2014-09-28T11:19:42Z</time>
      </trkpt>
      <trkpt lat="43.6555" lon="3.40278">
        <ele>136.9</ele>
        <time>2014-09-28T11:19:44Z</time>
      </trkpt>
      <trkpt lat="43.65547" lon="3.40283">
        <ele>137.2</ele>
        <time>2014-09-28T11:19:46Z</time>
      </trkpt>
      <trkpt lat="43.65543" lon="3.40287">
        <ele>137.7</ele>
        <time>2014-09-28T11:19:48Z</time>
      </trkpt>
      <trkpt lat="43.6554" lon="3.40293">
        <ele>138.3</ele>
        <time>2014-09-28T11:19:50Z</time>
      </trkpt>
      <trkpt lat="43.65536" lon="3.40297">
        <ele>139.1</ele>
        <time>2014-09-28T11:19:52Z</time>
      </trkpt>
      <trkpt lat="43.65533" lon="3.40302">
        <ele>140</ele>
        <time>2014-09-28T11:19:54Z</time>
      </trkpt>
      <trkpt lat="43.6553" lon="3.40307">
        <ele>140.9</ele>
        <time>2014-09-28T11:19:56Z</time>
      </trkpt>
      <trkpt lat="43.65527" lon="3.40312">
        <ele>141.9</ele>
        <time>2014-09-28T11:19:58Z</time>
      </trkpt>
      <trkpt lat="43.65524" lon="3.40317">
        <ele>143</ele>
        <time>2014-09-28T11:20:00Z</time>
      </trkpt>
      <trkpt lat="43.6552" lon="3.40321">
        <ele>144.2</ele>
        <time>2014-09-28T11:20:02Z</time>
      </trkpt>
      <trkpt lat="43.65517" lon="3.40326">
        <ele>145.5</ele>
        <time>2014-09-28T11:20:04Z</time>
      </trkpt>
      <trkpt lat="43.65511" lon="3.40331">
        <ele>147.3</ele>
        <time>2014-09-28T11:20:07Z</time>
      </trkpt>
      <trkpt lat="43.65507" lon="3.40335">
        <ele>148.9</ele>
        <time>2014-09-28T11:20:10Z</time>
      </trkpt>
      <trkpt lat="43.65504" lon="3.40341">
        <ele>150.4</ele>
        <time>2014-09-28T11:20:17Z</time>
      </trkpt>
      <trkpt lat="43.65499" lon="3.40342">
        <ele>151.7</ele>
        <time>2014-09-28T11:21:35Z</time>
      </trkpt>
      <trkpt lat="43.65495" lon="3.40344">
        <ele>153.1</ele>
        <time>2014-09-28T11:23:47Z</time>
      </trkpt>
      <trkpt lat="43.6549" lon="3.40339">
        <ele>153.1</ele>
        <time>2014-09-28T11:23:50Z</time>
      </trkpt>
      <trkpt lat="43.65487" lon="3.40334">
        <ele>153</ele>
        <time>2014-09-28T11:23:52Z</time>
      </trkpt>
      <trkpt lat="43.65484" lon="3.40329">
        <ele>152.6</ele>
        <time>2014-09-28T11:23:54Z</time>
      </trkpt>
      <trkpt lat="43.65481" lon="3.40324">
        <ele>152.1</ele>
        <time>2014-09-28T11:23:56Z</time>
      </trkpt>
      <trkpt lat="43.65477" lon="3.40317">
        <ele>151.3</ele>
        <time>2014-09-28T11:23:59Z</time>
      </trkpt>
      <trkpt lat="43.65474" lon="3.40312">
        <ele>150.7</ele>
        <time>2014-09-28T11:24:01Z</time>
      </trkpt>
      <trkpt lat="43.65469" lon="3.40306">
        <ele>150</ele>
        <time>2014-09-28T11:24:03Z</time>
      </trkpt>
      <trkpt lat="43.65466" lon="3.403">
        <ele>149.2</ele>
        <time>2014-09-28T11:24:05Z</time>
      </trkpt>
      <trkpt lat="43.65461" lon="3.40294">
        <ele>148.3</ele>
        <time>2014-09-28T11:24:07Z</time>
      </trkpt>
      <trkpt lat="43.65457" lon="3.40289">
        <ele>148</ele>
        <time>2014-09-28T11:24:09Z</time>
      </trkpt>
      <trkpt lat="43.65452" lon="3.40283">
        <ele>148.4</ele>
        <time>2014-09-28T11:24:11Z</time>
      </trkpt>
      <trkpt lat="43.65447" lon="3.40278">
        <ele>148.7</ele>
        <time>2014-09-28T11:24:13Z</time>
      </trkpt>
      <trkpt lat="43.65443" lon="3.40274">
        <ele>149</ele>
        <time>2014-09-28T11:24:15Z</time>
      </trkpt>
      <trkpt lat="43.65438" lon="3.40269">
        <ele>149.3</ele>
        <time>2014-09-28T11:24:17Z</time>
      </trkpt>
      <trkpt lat="43.65433" lon="3.40265">
        <ele>149.7</ele>
        <time>2014-09-28T11:24:19Z</time>
      </trkpt>
      <trkpt lat="43.65428" lon="3.40261">
        <ele>149.9</ele>
        <time>2014-09-28T11:24:21Z</time>
      </trkpt>
      <trkpt lat="43.65423" lon="3.40257">
        <ele>150.1</ele>
        <time>2014-09-28T11:24:23Z</time>
      </trkpt>
      <trkpt lat="43.65419" lon="3.40252">
        <ele>150</ele>
        <time>2014-09-28T11:24:25Z</time>
      </trkpt>
      <trkpt lat="43.65413" lon="3.40247">
        <ele>150</ele>
        <time>2014-09-28T11:24:27Z</time>
      </trkpt>
      <trkpt lat="43.65408" lon="3.40244">
        <ele>150.3</ele>
        <time>2014-09-28T11:24:29Z</time>
      </trkpt>
      <trkpt lat="43.65403" lon="3.40242">
        <ele>150.8</ele>
        <time>2014-09-28T11:24:31Z</time>
      </trkpt>
      <trkpt lat="43.65397" lon="3.40239">
        <ele>151</ele>
        <time>2014-09-28T11:24:33Z</time>
      </trkpt>
      <trkpt lat="43.65392" lon="3.40235">
        <ele>150.9</ele>
        <time>2014-09-28T11:24:35Z</time>
      </trkpt>
      <trkpt lat="43.65387" lon="3.40231">
        <ele>150.6</ele>
        <time>2014-09-28T11:24:37Z</time>
      </trkpt>
      <trkpt lat="43.65382" lon="3.40227">
        <ele>150.4</ele>
        <time>2014-09-28T11:24:39Z</time>
      </trkpt>
      <trkpt lat="43.65377" lon="3.40224">
        <ele>150.2</ele>
        <time>2014-09-28T11:24:41Z</time>
      </trkpt>
      <trkpt lat="43.65371" lon="3.40221">
        <ele>151</ele>
        <time>2014-09-28T11:24:43Z</time>
      </trkpt>
      <trkpt lat="43.65366" lon="3.40219">
        <ele>152.5</ele>
        <time>2014-09-28T11:24:45Z</time>
      </trkpt>
      <trkpt lat="43.6536" lon="3.40217">
        <ele>154.2</ele>
        <time>2014-09-28T11:24:47Z</time>
      </trkpt>
      <trkpt lat="43.65354" lon="3.40215">
        <ele>155.8</ele>
        <time>2014-09-28T11:24:49Z</time>
      </trkpt>
      <trkpt lat="43.65349" lon="3.40213">
        <ele>157.3</ele>
        <time>2014-09-28T11:24:51Z</time>
      </trkpt>
      <trkpt lat="43.65344" lon="3.40211">
        <ele>158.9</ele>
        <time>2014-09-28T11:24:53Z</time>
      </trkpt>
      <trkpt lat="43.65339" lon="3.4021">
        <ele>160.7</ele>
        <time>2014-09-28T11:24:55Z</time>
      </trkpt>
      <trkpt lat="43.65333" lon="3.40208">
        <ele>162.7</ele>
        <time>2014-09-28T11:24:57Z</time>
      </trkpt>
      <trkpt lat="43.65327" lon="3.40207">
        <ele>165</ele>
        <time>2014-09-28T11:24:59Z</time>
      </trkpt>
      <trkpt lat="43.65321" lon="3.40206">
        <ele>167.3</ele>
        <time>2014-09-28T11:25:01Z</time>
      </trkpt>
      <trkpt lat="43.65315" lon="3.40205">
        <ele>169.7</ele>
        <time>2014-09-28T11:25:03Z</time>
      </trkpt>
      <trkpt lat="43.65309" lon="3.40203">
        <ele>171.9</ele>
        <time>2014-09-28T11:25:05Z</time>
      </trkpt>
      <trkpt lat="43.65303" lon="3.402">
        <ele>174</ele>
        <time>2014-09-28T11:25:07Z</time>
      </trkpt>
      <trkpt lat="43.65298" lon="3.40197">
        <ele>176</ele>
        <time>2014-09-28T11:25:09Z</time>
      </trkpt>
      <trkpt lat="43.65293" lon="3.40192">
        <ele>177.8</ele>
        <time>2014-09-28T11:25:11Z</time>
      </trkpt>
      <trkpt lat="43.65289" lon="3.40185">
        <ele>179</ele>
        <time>2014-09-28T11:25:13Z</time>
      </trkpt>
      <trkpt lat="43.65285" lon="3.40178">
        <ele>179.9</ele>
        <time>2014-09-28T11:25:15Z</time>
      </trkpt>
      <trkpt lat="43.65283" lon="3.40171">
        <ele>180.5</ele>
        <time>2014-09-28T11:25:17Z</time>
      </trkpt>
      <trkpt lat="43.65281" lon="3.40163">
        <ele>180.7</ele>
        <time>2014-09-28T11:25:19Z</time>
      </trkpt>
      <trkpt lat="43.6528" lon="3.40155">
        <ele>180.7</ele>
        <time>2014-09-28T11:25:21Z</time>
      </trkpt>
      <trkpt lat="43.65279" lon="3.40148">
        <ele>180.5</ele>
        <time>2014-09-28T11:25:23Z</time>
      </trkpt>
      <trkpt lat="43.65278" lon="3.4014">
        <ele>180.3</ele>
        <time>2014-09-28T11:25:25Z</time>
      </trkpt>
      <trkpt lat="43.65278" lon="3.40132">
        <ele>179.8</ele>
        <time>2014-09-28T11:25:27Z</time>
      </trkpt>
      <trkpt lat="43.65278" lon="3.40124">
        <ele>179.2</ele>
        <time>2014-09-28T11:25:29Z</time>
      </trkpt>
      <trkpt lat="43.65278" lon="3.40116">
        <ele>177.3</ele>
        <time>2014-09-28T11:25:31Z</time>
      </trkpt>
      <trkpt lat="43.65278" lon="3.40108">
        <ele>175.4</ele>
        <time>2014-09-28T11:25:33Z</time>
      </trkpt>
      <trkpt lat="43.65277" lon="3.40099">
        <ele>173.4</ele>
        <time>2014-09-28T11:25:35Z</time>
      </trkpt>
      <trkpt lat="43.65275" lon="3.4009">
        <ele>171.7</ele>
        <time>2014-09-28T11:25:37Z</time>
      </trkpt>
      <trkpt lat="43.65272" lon="3.4008">
        <ele>170.2</ele>
        <time>2014-09-28T11:25:39Z</time>
      </trkpt>
      <trkpt lat="43.65269" lon="3.40071">
        <ele>168.9</ele>
        <time>2014-09-28T11:25:41Z</time>
      </trkpt>
      <trkpt lat="43.65264" lon="3.40063">
        <ele>167.9</ele>
        <time>2014-09-28T11:25:43Z</time>
      </trkpt>
      <trkpt lat="43.65259" lon="3.40055">
        <ele>167.1</ele>
        <time>2014-09-28T11:25:45Z</time>
      </trkpt>
      <trkpt lat="43.65254" lon="3.40048">
        <ele>166.2</ele>
        <time>2014-09-28T11:25:47Z</time>
      </trkpt>
      <trkpt lat="43.65249" lon="3.40041">
        <ele>165.5</ele>
        <time>2014-09-28T11:25:49Z</time>
      </trkpt>
      <trkpt lat="43.65244" lon="3.40034">
        <ele>165.7</ele>
        <time>2014-09-28T11:25:51Z</time>
      </trkpt>
      <trkpt lat="43.65239" lon="3.40027">
        <ele>165.8</ele>
        <time>2014-09-28T11:25:53Z</time>
      </trkpt>
      <trkpt lat="43.65234" lon="3.4002">
        <ele>165.9</ele>
        <time>2014-09-28T11:25:55Z</time>
      </trkpt>
      <trkpt lat="43.65228" lon="3.40013">
        <ele>166.2</ele>
        <time>2014-09-28T11:25:57Z</time>
      </trkpt>
      <trkpt lat="43.65222" lon="3.40007">
        <ele>166.7</ele>
        <time>2014-09-28T11:25:59Z</time>
      </trkpt>
      <trkpt lat="43.65215" lon="3.40001">
        <ele>167.5</ele>
        <time>2014-09-28T11:26:01Z</time>
      </trkpt>
      <trkpt lat="43.65209" lon="3.39997">
        <ele>168.5</ele>
        <time>2014-09-28T11:26:03Z</time>
      </trkpt>
      <trkpt lat="43.65201" lon="3.39994">
        <ele>170.3</ele>
        <time>2014-09-28T11:26:05Z</time>
      </trkpt>
      <trkpt lat="43.65194" lon="3.39992">
        <ele>172.2</ele>
        <time>2014-09-28T11:26:07Z</time>
      </trkpt>
      <trkpt lat="43.65186" lon="3.3999">
        <ele>174.3</ele>
        <time>2014-09-28T11:26:09Z</time>
      </trkpt>
      <trkpt lat="43.65178" lon="3.39989">
        <ele>176.4</ele>
        <time>2014-09-28T11:26:11Z</time>
      </trkpt>
      <trkpt lat="43.6517" lon="3.39987">
        <ele>178.6</ele>
        <time>2014-09-28T11:26:13Z</time>
      </trkpt>
      <trkpt lat="43.65162" lon="3.39985">
        <ele>180.9</ele>
        <time>2014-09-28T11:26:15Z</time>
      </trkpt>
      <trkpt lat="43.65155" lon="3.39981">
        <ele>183</ele>
        <time>2014-09-28T11:26:17Z</time>
      </trkpt>
      <trkpt lat="43.65147" lon="3.39976">
        <ele>185.1</ele>
        <time>2014-09-28T11:26:19Z</time>
      </trkpt>
      <trkpt lat="43.65141" lon="3.39969">
        <ele>187</ele>
        <time>2014-09-28T11:26:21Z</time>
      </trkpt>
      <trkpt lat="43.65135" lon="3.3996">
        <ele>188.6</ele>
        <time>2014-09-28T11:26:23Z</time>
      </trkpt>
      <trkpt lat="43.65131" lon="3.3995">
        <ele>190.7</ele>
        <time>2014-09-28T11:26:25Z</time>
      </trkpt>
      <trkpt lat="43.65128" lon="3.39939">
        <ele>192.5</ele>
        <time>2014-09-28T11:26:27Z</time>
      </trkpt>
      <trkpt lat="43.65127" lon="3.39927">
        <ele>193.8</ele>
        <time>2014-09-28T11:26:29Z</time>
      </trkpt>
      <trkpt lat="43.65128" lon="3.39916">
        <ele>194.5</ele>
        <time>2014-09-28T11:26:31Z</time>
      </trkpt>
      <trkpt lat="43.65131" lon="3.39905">
        <ele>194.4</ele>
        <time>2014-09-28T11:26:33Z</time>
      </trkpt>
      <trkpt lat="43.65134" lon="3.39894">
        <ele>194.1</ele>
        <time>2014-09-28T11:26:35Z</time>
      </trkpt>
      <trkpt lat="43.65138" lon="3.39883">
        <ele>193.4</ele>
        <time>2014-09-28T11:26:37Z</time>
      </trkpt>
      <trkpt lat="43.65143" lon="3.39872">
        <ele>192.4</ele>
        <time>2014-09-28T11:26:39Z</time>
      </trkpt>
      <trkpt lat="43.65147" lon="3.39861">
        <ele>190.9</ele>
        <time>2014-09-28T11:26:41Z</time>
      </trkpt>
      <trkpt lat="43.65149" lon="3.39856">
        <ele>190.1</ele>
        <time>2014-09-28T11:26:42Z</time>
      </trkpt>
      <trkpt lat="43.65151" lon="3.3985">
        <ele>189.3</ele>
        <time>2014-09-28T11:26:43Z</time>
      </trkpt>
      <trkpt lat="43.65153" lon="3.39845">
        <ele>188.6</ele>
        <time>2014-09-28T11:26:44Z</time>
      </trkpt>
      <trkpt lat="43.65155" lon="3.39839">
        <ele>188.2</ele>
        <time>2014-09-28T11:26:45Z</time>
      </trkpt>
      <trkpt lat="43.65156" lon="3.39832">
        <ele>187.8</ele>
        <time>2014-09-28T11:26:46Z</time>
      </trkpt>
      <trkpt lat="43.65157" lon="3.39826">
        <ele>187.4</ele>
        <time>2014-09-28T11:26:47Z</time>
      </trkpt>
      <trkpt lat="43.65158" lon="3.3982">
        <ele>187.1</ele>
        <time>2014-09-28T11:26:48Z</time>
      </trkpt>
      <trkpt lat="43.65158" lon="3.39813">
        <ele>186.9</ele>
        <time>2014-09-28T11:26:49Z</time>
      </trkpt>
      <trkpt lat="43.65159" lon="3.39807">
        <ele>186.8</ele>
        <time>2014-09-28T11:26:50Z</time>
      </trkpt>
      <trkpt lat="43.65159" lon="3.398">
        <ele>186.8</ele>
        <time>2014-09-28T11:26:51Z</time>
      </trkpt>
      <trkpt lat="43.65159" lon="3.39794">
        <ele>186.8</ele>
        <time>2014-09-28T11:26:52Z</time>
      </trkpt>
      <trkpt lat="43.65159" lon="3.39788">
        <ele>186.7</ele>
        <time>2014-09-28T11:26:53Z</time>
      </trkpt>
      <trkpt lat="43.65158" lon="3.39781">
        <ele>186.9</ele>
        <time>2014-09-28T11:26:54Z</time>
      </trkpt>
      <trkpt lat="43.65158" lon="3.39775">
        <ele>187.1</ele>
        <time>2014-09-28T11:26:55Z</time>
      </trkpt>
      <trkpt lat="43.65157" lon="3.39768">
        <ele>187.2</ele>
        <time>2014-09-28T11:26:56Z</time>
      </trkpt>
      <trkpt lat="43.65157" lon="3.39761">
        <ele>187.4</ele>
        <time>2014-09-28T11:26:57Z</time>
      </trkpt>
      <trkpt lat="43.65156" lon="3.39754">
        <ele>187.6</ele>
        <time>2014-09-28T11:26:58Z</time>
      </trkpt>
      <trkpt lat="43.65155" lon="3.39746">
        <ele>187.9</ele>
        <time>2014-09-28T11:26:59Z</time>
      </trkpt>
      <trkpt lat="43.65155" lon="3.39739">
        <ele>187.9</ele>
        <time>2014-09-28T11:27:00Z</time>
      </trkpt>
      <trkpt lat="43.65154" lon="3.39731">
        <ele>188</ele>
        <time>2014-09-28T11:27:01Z</time>
      </trkpt>
      <trkpt lat="43.65154" lon="3.39723">
        <ele>188.1</ele>
        <time>2014-09-28T11:27:02Z</time>
      </trkpt>
      <trkpt lat="43.65153" lon="3.39715">
        <ele>188.2</ele>
        <time>2014-09-28T11:27:03Z</time>
      </trkpt>
      <trkpt lat="43.65152" lon="3.39707">
        <ele>188.5</ele>
        <time>2014-09-28T11:27:04Z</time>
      </trkpt>
      <trkpt lat="43.65152" lon="3.39699">
        <ele>188.8</ele>
        <time>2014-09-28T11:27:05Z</time>
      </trkpt>
      <trkpt lat="43.65151" lon="3.39691">
        <ele>189</ele>
        <time>2014-09-28T11:27:06Z</time>
      </trkpt>
      <trkpt lat="43.65151" lon="3.39683">
        <ele>189.1</ele>
        <time>2014-09-28T11:27:07Z</time>
      </trkpt>
      <trkpt lat="43.6515" lon="3.39675">
        <ele>189.3</ele>
        <time>2014-09-28T11:27:08Z</time>
      </trkpt>
      <trkpt lat="43.6515" lon="3.39667">
        <ele>189.4</ele>
        <time>2014-09-28T11:27:09Z</time>
      </trkpt>
      <trkpt lat="43.65149" lon="3.39659">
        <ele>189.5</ele>
        <time>2014-09-28T11:27:10Z</time>
      </trkpt>
      <trkpt lat="43.65149" lon="3.39651">
        <ele>189.7</ele>
        <time>2014-09-28T11:27:11Z</time>
      </trkpt>
      <trkpt lat="43.65148" lon="3.39643">
        <ele>190</ele>
        <time>2014-09-28T11:27:12Z</time>
      </trkpt>
      <trkpt lat="43.65147" lon="3.39634">
        <ele>190.3</ele>
        <time>2014-09-28T11:27:13Z</time>
      </trkpt>
      <trkpt lat="43.65146" lon="3.39626">
        <ele>190.6</ele>
        <time>2014-09-28T11:27:14Z</time>
      </trkpt>
      <trkpt lat="43.65146" lon="3.39618">
        <ele>191</ele>
        <time>2014-09-28T11:27:15Z</time>
      </trkpt>
      <trkpt lat="43.65145" lon="3.3961">
        <ele>191.2</ele>
        <time>2014-09-28T11:27:16Z</time>
      </trkpt>
      <trkpt lat="43.65145" lon="3.39602">
        <ele>191.4</ele>
        <time>2014-09-28T11:27:17Z</time>
      </trkpt>
      <trkpt lat="43.65145" lon="3.39594">
        <ele>191.6</ele>
        <time>2014-09-28T11:27:18Z</time>
      </trkpt>
      <trkpt lat="43.65145" lon="3.39585">
        <ele>191.7</ele>
        <time>2014-09-28T11:27:19Z</time>
      </trkpt>
      <trkpt lat="43.65145" lon="3.39577">
        <ele>191.6</ele>
        <time>2014-09-28T11:27:20Z</time>
      </trkpt>
      <trkpt lat="43.65146" lon="3.39569">
        <ele>191.4</ele>
        <time>2014-09-28T11:27:21Z</time>
      </trkpt>
      <trkpt lat="43.65147" lon="3.39561">
        <ele>191.2</ele>
        <time>2014-09-28T11:27:22Z</time>
      </trkpt>
      <trkpt lat="43.65148" lon="3.39553">
        <ele>191.1</ele>
        <time>2014-09-28T11:27:23Z</time>
      </trkpt>
      <trkpt lat="43.6515" lon="3.39545">
        <ele>190.8</ele>
        <time>2014-09-28T11:27:24Z</time>
      </trkpt>
      <trkpt lat="43.65151" lon="3.39537">
        <ele>190.5</ele>
        <time>2014-09-28T11:27:25Z</time>
      </trkpt>
      <trkpt lat="43.65153" lon="3.39529">
        <ele>190.2</ele>
        <time>2014-09-28T11:27:26Z</time>
      </trkpt>
      <trkpt lat="43.65154" lon="3.39521">
        <ele>189.9</ele>
        <time>2014-09-28T11:27:27Z</time>
      </trkpt>
      <trkpt lat="43.65156" lon="3.39513">
        <ele>189.5</ele>
        <time>2014-09-28T11:27:28Z</time>
      </trkpt>
      <trkpt lat="43.65158" lon="3.39506">
        <ele>189.2</ele>
        <time>2014-09-28T11:27:29Z</time>
      </trkpt>
      <trkpt lat="43.65159" lon="3.39498">
        <ele>188.9</ele>
        <time>2014-09-28T11:27:30Z</time>
      </trkpt>
      <trkpt lat="43.65161" lon="3.3949">
        <ele>188.6</ele>
        <time>2014-09-28T11:27:31Z</time>
      </trkpt>
      <trkpt lat="43.65162" lon="3.39482">
        <ele>188.5</ele>
        <time>2014-09-28T11:27:32Z</time>
      </trkpt>
      <trkpt lat="43.65163" lon="3.39475">
        <ele>188.4</ele>
        <time>2014-09-28T11:27:33Z</time>
      </trkpt>
      <trkpt lat="43.65163" lon="3.39467">
        <ele>188.4</ele>
        <time>2014-09-28T11:27:34Z</time>
      </trkpt>
      <trkpt lat="43.65163" lon="3.39459">
        <ele>188.4</ele>
        <time>2014-09-28T11:27:35Z</time>
      </trkpt>
      <trkpt lat="43.65163" lon="3.39451">
        <ele>188.2</ele>
        <time>2014-09-28T11:27:36Z</time>
      </trkpt>
      <trkpt lat="43.65163" lon="3.39443">
        <ele>187.9</ele>
        <time>2014-09-28T11:27:37Z</time>
      </trkpt>
      <trkpt lat="43.65163" lon="3.39434">
        <ele>187.8</ele>
        <time>2014-09-28T11:27:38Z</time>
      </trkpt>
      <trkpt lat="43.65163" lon="3.39426">
        <ele>187.6</ele>
        <time>2014-09-28T11:27:39Z</time>
      </trkpt>
      <trkpt lat="43.65163" lon="3.39418">
        <ele>187.4</ele>
        <time>2014-09-28T11:27:40Z</time>
      </trkpt>
      <trkpt lat="43.65162" lon="3.3941">
        <ele>187.2</ele>
        <time>2014-09-28T11:27:41Z</time>
      </trkpt>
      <trkpt lat="43.65162" lon="3.39402">
        <ele>187.1</ele>
        <time>2014-09-28T11:27:42Z</time>
      </trkpt>
      <trkpt lat="43.65161" lon="3.39394">
        <ele>187</ele>
        <time>2014-09-28T11:27:43Z</time>
      </trkpt>
      <trkpt lat="43.6516" lon="3.39386">
        <ele>186.9</ele>
        <time>2014-09-28T11:27:44Z</time>
      </trkpt>
      <trkpt lat="43.6516" lon="3.39378">
        <ele>186.8</ele>
        <time>2014-09-28T11:27:45Z</time>
      </trkpt>
      <trkpt lat="43.65159" lon="3.3937">
        <ele>186.5</ele>
        <time>2014-09-28T11:27:46Z</time>
      </trkpt>
      <trkpt lat="43.65158" lon="3.39362">
        <ele>186.2</ele>
        <time>2014-09-28T11:27:47Z</time>
      </trkpt>
      <trkpt lat="43.65157" lon="3.39354">
        <ele>185.8</ele>
        <time>2014-09-28T11:27:48Z</time>
      </trkpt>
      <trkpt lat="43.65157" lon="3.39346">
        <ele>185.4</ele>
        <time>2014-09-28T11:27:49Z</time>
      </trkpt>
      <trkpt lat="43.65156" lon="3.39337">
        <ele>185</ele>
        <time>2014-09-28T11:27:50Z</time>
      </trkpt>
      <trkpt lat="43.65155" lon="3.39329">
        <ele>184.6</ele>
        <time>2014-09-28T11:27:51Z</time>
      </trkpt>
      <trkpt lat="43.65154" lon="3.39321">
        <ele>184.1</ele>
        <time>2014-09-28T11:27:52Z</time>
      </trkpt>
      <trkpt lat="43.65153" lon="3.39313">
        <ele>183.6</ele>
        <time>2014-09-28T11:27:53Z</time>
      </trkpt>
      <trkpt lat="43.65152" lon="3.39306">
        <ele>183.1</ele>
        <time>2014-09-28T11:27:54Z</time>
      </trkpt>
      <trkpt lat="43.65151" lon="3.39298">
        <ele>182.6</ele>
        <time>2014-09-28T11:27:55Z</time>
      </trkpt>
      <trkpt lat="43.6515" lon="3.3929">
        <ele>182.3</ele>
        <time>2014-09-28T11:27:56Z</time>
      </trkpt>
      <trkpt lat="43.65149" lon="3.39282">
        <ele>182.5</ele>
        <time>2014-09-28T11:27:57Z</time>
      </trkpt>
      <trkpt lat="43.65147" lon="3.39275">
        <ele>182.7</ele>
        <time>2014-09-28T11:27:58Z</time>
      </trkpt>
      <trkpt lat="43.65146" lon="3.39267">
        <ele>182.9</ele>
        <time>2014-09-28T11:27:59Z</time>
      </trkpt>
      <trkpt lat="43.65145" lon="3.39259">
        <ele>183</ele>
        <time>2014-09-28T11:28:00Z</time>
      </trkpt>
      <trkpt lat="43.65143" lon="3.39252">
        <ele>183.2</ele>
        <time>2014-09-28T11:28:01Z</time>
      </trkpt>
      <trkpt lat="43.65141" lon="3.39244">
        <ele>183.3</ele>
        <time>2014-09-28T11:28:02Z</time>
      </trkpt>
      <trkpt lat="43.65139" lon="3.39236">
        <ele>183.3</ele>
        <time>2014-09-28T11:28:03Z</time>
      </trkpt>
      <trkpt lat="43.65137" lon="3.39229">
        <ele>183.4</ele>
        <time>2014-09-28T11:28:04Z</time>
      </trkpt>
      <trkpt lat="43.65135" lon="3.39222">
        <ele>183.3</ele>
        <time>2014-09-28T11:28:05Z</time>
      </trkpt>
      <trkpt lat="43.65132" lon="3.39214">
        <ele>183.3</ele>
        <time>2014-09-28T11:28:06Z</time>
      </trkpt>
      <trkpt lat="43.6513" lon="3.39207">
        <ele>183.3</ele>
        <time>2014-09-28T11:28:07Z</time>
      </trkpt>
      <trkpt lat="43.65128" lon="3.392">
        <ele>183.7</ele>
        <time>2014-09-28T11:28:08Z</time>
      </trkpt>
      <trkpt lat="43.65125" lon="3.39194">
        <ele>184.1</ele>
        <time>2014-09-28T11:28:09Z</time>
      </trkpt>
      <trkpt lat="43.65123" lon="3.39187">
        <ele>184.5</ele>
        <time>2014-09-28T11:28:10Z</time>
      </trkpt>
      <trkpt lat="43.6512" lon="3.3918">
        <ele>184.8</ele>
        <time>2014-09-28T11:28:11Z</time>
      </trkpt>
      <trkpt lat="43.65117" lon="3.39173">
        <ele>185.1</ele>
        <time>2014-09-28T11:28:12Z</time>
      </trkpt>
      <trkpt lat="43.65114" lon="3.39166">
        <ele>185.2</ele>
        <time>2014-09-28T11:28:13Z</time>
      </trkpt>
      <trkpt lat="43.65112" lon="3.3916">
        <ele>185.4</ele>
        <time>2014-09-28T11:28:14Z</time>
      </trkpt>
      <trkpt lat="43.65109" lon="3.39154">
        <ele>185.4</ele>
        <time>2014-09-28T11:28:15Z</time>
      </trkpt>
      <trkpt lat="43.65106" lon="3.39148">
        <ele>185.3</ele>
        <time>2014-09-28T11:28:16Z</time>
      </trkpt>
      <trkpt lat="43.65103" lon="3.39142">
        <ele>185.2</ele>
        <time>2014-09-28T11:28:17Z</time>
      </trkpt>
      <trkpt lat="43.65099" lon="3.39136">
        <ele>185</ele>
        <time>2014-09-28T11:28:18Z</time>
      </trkpt>
      <trkpt lat="43.65096" lon="3.3913">
        <ele>184.7</ele>
        <time>2014-09-28T11:28:19Z</time>
      </trkpt>
      <trkpt lat="43.65093" lon="3.39124">
        <ele>184.3</ele>
        <time>2014-09-28T11:28:20Z</time>
      </trkpt>
      <trkpt lat="43.65089" lon="3.39119">
        <ele>183.9</ele>
        <time>2014-09-28T11:28:21Z</time>
      </trkpt>
      <trkpt lat="43.65085" lon="3.39113">
        <ele>183.5</ele>
        <time>2014-09-28T11:28:22Z</time>
      </trkpt>
      <trkpt lat="43.65081" lon="3.39108">
        <ele>182.9</ele>
        <time>2014-09-28T11:28:23Z</time>
      </trkpt>
      <trkpt lat="43.65077" lon="3.39103">
        <ele>182.3</ele>
        <time>2014-09-28T11:28:24Z</time>
      </trkpt>
      <trkpt lat="43.65073" lon="3.39098">
        <ele>181.7</ele>
        <time>2014-09-28T11:28:25Z</time>
      </trkpt>
      <trkpt lat="43.65068" lon="3.39093">
        <ele>181</ele>
        <time>2014-09-28T11:28:26Z</time>
      </trkpt>
      <trkpt lat="43.65063" lon="3.39089">
        <ele>180.2</ele>
        <time>2014-09-28T11:28:27Z</time>
      </trkpt>
      <trkpt lat="43.65058" lon="3.39084">
        <ele>179.3</ele>
        <time>2014-09-28T11:28:28Z</time>
      </trkpt>
      <trkpt lat="43.65053" lon="3.3908">
        <ele>178.4</ele>
        <time>2014-09-28T11:28:29Z</time>
      </trkpt>
      <trkpt lat="43.65047" lon="3.39076">
        <ele>177.3</ele>
        <time>2014-09-28T11:28:30Z</time>
      </trkpt>
      <trkpt lat="43.65041" lon="3.39072">
        <ele>176.2</ele>
        <time>2014-09-28T11:28:31Z</time>
      </trkpt>
      <trkpt lat="43.65035" lon="3.39069">
        <ele>175.4</ele>
        <time>2014-09-28T11:28:32Z</time>
      </trkpt>
      <trkpt lat="43.65028" lon="3.39066">
        <ele>174.5</ele>
        <time>2014-09-28T11:28:33Z</time>
      </trkpt>
      <trkpt lat="43.6502" lon="3.39064">
        <ele>173.4</ele>
        <time>2014-09-28T11:28:34Z</time>
      </trkpt>
      <trkpt lat="43.65013" lon="3.39062">
        <ele>172.4</ele>
        <time>2014-09-28T11:28:35Z</time>
      </trkpt>
      <trkpt lat="43.65005" lon="3.39061">
        <ele>171.3</ele>
        <time>2014-09-28T11:28:36Z</time>
      </trkpt>
      <trkpt lat="43.64996" lon="3.3906">
        <ele>170.2</ele>
        <time>2014-09-28T11:28:37Z</time>
      </trkpt>
      <trkpt lat="43.64988" lon="3.39059">
        <ele>169.1</ele>
        <time>2014-09-28T11:28:38Z</time>
      </trkpt>
      <trkpt lat="43.6498" lon="3.39059">
        <ele>168</ele>
        <time>2014-09-28T11:28:39Z</time>
      </trkpt>
      <trkpt lat="43.64973" lon="3.3906">
        <ele>167</ele>
        <time>2014-09-28T11:28:40Z</time>
      </trkpt>
      <trkpt lat="43.64966" lon="3.39061">
        <ele>166.2</ele>
        <time>2014-09-28T11:28:41Z</time>
      </trkpt>
      <trkpt lat="43.64959" lon="3.39062">
        <ele>165.4</ele>
        <time>2014-09-28T11:28:42Z</time>
      </trkpt>
      <trkpt lat="43.64953" lon="3.39064">
        <ele>164.9</ele>
        <time>2014-09-28T11:28:43Z</time>
      </trkpt>
      <trkpt lat="43.64948" lon="3.39066">
        <ele>164.5</ele>
        <time>2014-09-28T11:28:44Z</time>
      </trkpt>
      <trkpt lat="43.64943" lon="3.39067">
        <ele>164.1</ele>
        <time>2014-09-28T11:28:45Z</time>
      </trkpt>
      <trkpt lat="43.64936" lon="3.39068">
        <ele>163.5</ele>
        <time>2014-09-28T11:28:47Z</time>
      </trkpt>
      <trkpt lat="43.64931" lon="3.39068">
        <ele>163</ele>
        <time>2014-09-28T11:28:49Z</time>
      </trkpt>
      <trkpt lat="43.64928" lon="3.39063">
        <ele>162.4</ele>
        <time>2014-09-28T11:28:51Z</time>
      </trkpt>
      <trkpt lat="43.64923" lon="3.39057">
        <ele>161.6</ele>
        <time>2014-09-28T11:28:53Z</time>
      </trkpt>
      <trkpt lat="43.64917" lon="3.39049">
        <ele>160.4</ele>
        <time>2014-09-28T11:28:55Z</time>
      </trkpt>
      <trkpt lat="43.64913" lon="3.3904">
        <ele>159.6</ele>
        <time>2014-09-28T11:28:57Z</time>
      </trkpt>
      <trkpt lat="43.64912" lon="3.39033">
        <ele>159</ele>
        <time>2014-09-28T11:28:59Z</time>
      </trkpt>
      <trkpt lat="43.64912" lon="3.39026">
        <ele>158.6</ele>
        <time>2014-09-28T11:29:01Z</time>
      </trkpt>
      <trkpt lat="43.64913" lon="3.39018">
        <ele>158.2</ele>
        <time>2014-09-28T11:29:03Z</time>
      </trkpt>
      <trkpt lat="43.64913" lon="3.39009">
        <ele>157.6</ele>
        <time>2014-09-28T11:29:05Z</time>
      </trkpt>
      <trkpt lat="43.64911" lon="3.39001">
        <ele>157</ele>
        <time>2014-09-28T11:29:07Z</time>
      </trkpt>
      <trkpt lat="43.64913" lon="3.38991">
        <ele>156.5</ele>
        <time>2014-09-28T11:29:09Z</time>
      </trkpt>
      <trkpt lat="43.64915" lon="3.38981">
        <ele>156.1</ele>
        <time>2014-09-28T11:29:11Z</time>
      </trkpt>
      <trkpt lat="43.64914" lon="3.38971">
        <ele>155.4</ele>
        <time>2014-09-28T11:29:13Z</time>
      </trkpt>
      <trkpt lat="43.64911" lon="3.38963">
        <ele>154.6</ele>
        <time>2014-09-28T11:29:15Z</time>
      </trkpt>
      <trkpt lat="43.64907" lon="3.38956">
        <ele>153.7</ele>
        <time>2014-09-28T11:29:17Z</time>
      </trkpt>
      <trkpt lat="43.64901" lon="3.3895">
        <ele>152.9</ele>
        <time>2014-09-28T11:29:19Z</time>
      </trkpt>
      <trkpt lat="43.64896" lon="3.38946">
        <ele>152.2</ele>
        <time>2014-09-28T11:29:21Z</time>
      </trkpt>
      <trkpt lat="43.64891" lon="3.38937">
        <ele>151.4</ele>
        <time>2014-09-28T11:29:23Z</time>
      </trkpt>
      <trkpt lat="43.64886" lon="3.38928">
        <ele>150.6</ele>
        <time>2014-09-28T11:29:25Z</time>
      </trkpt>
      <trkpt lat="43.64881" lon="3.38921">
        <ele>149.8</ele>
        <time>2014-09-28T11:29:27Z</time>
      </trkpt>
      <trkpt lat="43.64873" lon="3.38916">
        <ele>148.9</ele>
        <time>2014-09-28T11:29:29Z</time>
      </trkpt>
      <trkpt lat="43.64866" lon="3.3891">
        <ele>148.3</ele>
        <time>2014-09-28T11:29:31Z</time>
      </trkpt>
      <trkpt lat="43.64862" lon="3.38907">
        <ele>148</ele>
        <time>2014-09-28T11:29:32Z</time>
      </trkpt>
      <trkpt lat="43.64856" lon="3.389">
        <ele>147.4</ele>
        <time>2014-09-28T11:29:34Z</time>
      </trkpt>
      <trkpt lat="43.64848" lon="3.38893">
        <ele>146.8</ele>
        <time>2014-09-28T11:29:36Z</time>
      </trkpt>
      <trkpt lat="43.64844" lon="3.38889">
        <ele>146.5</ele>
        <time>2014-09-28T11:29:37Z</time>
      </trkpt>
      <trkpt lat="43.6484" lon="3.38885">
        <ele>146.1</ele>
        <time>2014-09-28T11:29:38Z</time>
      </trkpt>
      <trkpt lat="43.64835" lon="3.38881">
        <ele>145.7</ele>
        <time>2014-09-28T11:29:39Z</time>
      </trkpt>
      <trkpt lat="43.6483" lon="3.38878">
        <ele>145.4</ele>
        <time>2014-09-28T11:29:40Z</time>
      </trkpt>
      <trkpt lat="43.64827" lon="3.38873">
        <ele>145</ele>
        <time>2014-09-28T11:29:41Z</time>
      </trkpt>
      <trkpt lat="43.64821" lon="3.38866">
        <ele>144.4</ele>
        <time>2014-09-28T11:29:43Z</time>
      </trkpt>
      <trkpt lat="43.64817" lon="3.38863">
        <ele>144</ele>
        <time>2014-09-28T11:29:45Z</time>
      </trkpt>
      <trkpt lat="43.64812" lon="3.38859">
        <ele>143.6</ele>
        <time>2014-09-28T11:29:47Z</time>
      </trkpt>
      <trkpt lat="43.64806" lon="3.38858">
        <ele>143.2</ele>
        <time>2014-09-28T11:29:50Z</time>
      </trkpt>
      <trkpt lat="43.64801" lon="3.38863">
        <ele>143.1</ele>
        <time>2014-09-28T11:29:52Z</time>
      </trkpt>
      <trkpt lat="43.64796" lon="3.3887">
        <ele>143.1</ele>
        <time>2014-09-28T11:29:54Z</time>
      </trkpt>
      <trkpt lat="43.6479" lon="3.38878">
        <ele>143.1</ele>
        <time>2014-09-28T11:29:56Z</time>
      </trkpt>
      <trkpt lat="43.64786" lon="3.38883">
        <ele>143.2</ele>
        <time>2014-09-28T11:29:57Z</time>
      </trkpt>
      <trkpt lat="43.64783" lon="3.38887">
        <ele>143.3</ele>
        <time>2014-09-28T11:29:58Z</time>
      </trkpt>
      <trkpt lat="43.64779" lon="3.38892">
        <ele>143.4</ele>
        <time>2014-09-28T11:29:59Z</time>
      </trkpt>
      <trkpt lat="43.64775" lon="3.38897">
        <ele>143.5</ele>
        <time>2014-09-28T11:30:00Z</time>
      </trkpt>
      <trkpt lat="43.64772" lon="3.38902">
        <ele>143.6</ele>
        <time>2014-09-28T11:30:01Z</time>
      </trkpt>
      <trkpt lat="43.64769" lon="3.38907">
        <ele>143.8</ele>
        <time>2014-09-28T11:30:02Z</time>
      </trkpt>
      <trkpt lat="43.64765" lon="3.38913">
        <ele>143.9</ele>
        <time>2014-09-28T11:30:03Z</time>
      </trkpt>
      <trkpt lat="43.64762" lon="3.38918">
        <ele>144</ele>
        <time>2014-09-28T11:30:04Z</time>
      </trkpt>
      <trkpt lat="43.64758" lon="3.38923">
        <ele>144.1</ele>
        <time>2014-09-28T11:30:05Z</time>
      </trkpt>
      <trkpt lat="43.64754" lon="3.38926">
        <ele>144.2</ele>
        <time>2014-09-28T11:30:06Z</time>
      </trkpt>
      <trkpt lat="43.64749" lon="3.38927">
        <ele>144.3</ele>
        <time>2014-09-28T11:30:07Z</time>
      </trkpt>
      <trkpt lat="43.64744" lon="3.38926">
        <ele>144.2</ele>
        <time>2014-09-28T11:30:08Z</time>
      </trkpt>
      <trkpt lat="43.6474" lon="3.38922">
        <ele>144.1</ele>
        <time>2014-09-28T11:30:09Z</time>
      </trkpt>
      <trkpt lat="43.64735" lon="3.38917">
        <ele>144</ele>
        <time>2014-09-28T11:30:10Z</time>
      </trkpt>
      <trkpt lat="43.64732" lon="3.38911">
        <ele>143.9</ele>
        <time>2014-09-28T11:30:11Z</time>
      </trkpt>
      <trkpt lat="43.64728" lon="3.38906">
        <ele>143.7</ele>
        <time>2014-09-28T11:30:12Z</time>
      </trkpt>
      <trkpt lat="43.64725" lon="3.38901">
        <ele>143.6</ele>
        <time>2014-09-28T11:30:13Z</time>
      </trkpt>
      <trkpt lat="43.64721" lon="3.38897">
        <ele>143.5</ele>
        <time>2014-09-28T11:30:14Z</time>
      </trkpt>
      <trkpt lat="43.64716" lon="3.38894">
        <ele>143.5</ele>
        <time>2014-09-28T11:30:15Z</time>
      </trkpt>
      <trkpt lat="43.64711" lon="3.38893">
        <ele>143.4</ele>
        <time>2014-09-28T11:30:16Z</time>
      </trkpt>
      <trkpt lat="43.64706" lon="3.38892">
        <ele>143.4</ele>
        <time>2014-09-28T11:30:17Z</time>
      </trkpt>
      <trkpt lat="43.64702" lon="3.38892">
        <ele>143.4</ele>
        <time>2014-09-28T11:30:18Z</time>
      </trkpt>
      <trkpt lat="43.64694" lon="3.38892">
        <ele>143.4</ele>
        <time>2014-09-28T11:30:20Z</time>
      </trkpt>
      <trkpt lat="43.64687" lon="3.38892">
        <ele>143.4</ele>
        <time>2014-09-28T11:30:22Z</time>
      </trkpt>
      <trkpt lat="43.64681" lon="3.38893">
        <ele>143.4</ele>
        <time>2014-09-28T11:30:24Z</time>
      </trkpt>
      <trkpt lat="43.64674" lon="3.38896">
        <ele>143.5</ele>
        <time>2014-09-28T11:30:26Z</time>
      </trkpt>
      <trkpt lat="43.64669" lon="3.389">
        <ele>143.6</ele>
        <time>2014-09-28T11:30:28Z</time>
      </trkpt>
    </trkseg>
  </trk>
</gpx>